<?xml version="1.0" encoding="UTF-8" standalone="no" ?>
<gpx xmlns="http://www.topografix.com/GPX/1/1" xmlns:xsi="http://www.w3.org/2001/XMLSchema-instance" xsi:schemaLocation="http://www.topografix.com/GPX/1/1 http://www.topografix.com/GPX/1/1/gpx.xsd" version="1.1" creator="VisuGPX - https://www.visugpx.com">
  <metadata>
    <name>Transvolcanique 2013 - Aller</name>
    <desc><![CDATA[Jour 1 de la TV 2013.]]></desc>
  </metadata>
  <trk>
    <name><![CDATA[TV]]></name>
    <cmt><![CDATA[Avec Frédéric, Stani, Adriens et Franck Ly]]></cmt>
    <trkseg>
      <trkpt lat="45.82248" lon="3.07876">
        <ele>376.79998779297</ele>
        <time>2013-09-21T07:02:38Z</time>
      </trkpt>
      <trkpt lat="45.8225" lon="3.07884">
        <ele>376.79998779297</ele>
        <time>2013-09-21T07:02:42Z</time>
      </trkpt>
      <trkpt lat="45.82252" lon="3.07891">
        <ele>376.79998779297</ele>
        <time>2013-09-21T07:02:46Z</time>
      </trkpt>
      <trkpt lat="45.8226" lon="3.07915">
        <ele>376.79998779297</ele>
        <time>2013-09-21T07:02:56Z</time>
      </trkpt>
      <trkpt lat="45.82275" lon="3.0794">
        <ele>376.79998779297</ele>
        <time>2013-09-21T07:03:05Z</time>
      </trkpt>
      <trkpt lat="45.82288" lon="3.07971">
        <ele>376.79998779297</ele>
        <time>2013-09-21T07:03:15Z</time>
      </trkpt>
      <trkpt lat="45.82294" lon="3.07987">
        <ele>376.79998779297</ele>
        <time>2013-09-21T07:03:22Z</time>
      </trkpt>
      <trkpt lat="45.82299" lon="3.07998">
        <ele>376.39999389648</ele>
        <time>2013-09-21T07:03:26Z</time>
      </trkpt>
      <trkpt lat="45.823" lon="3.08001">
        <ele>376</ele>
        <time>2013-09-21T07:03:27Z</time>
      </trkpt>
      <trkpt lat="45.82301" lon="3.08004">
        <ele>375.39999389648</ele>
        <time>2013-09-21T07:03:28Z</time>
      </trkpt>
      <trkpt lat="45.82306" lon="3.08021">
        <ele>374.60000610352</ele>
        <time>2013-09-21T07:03:36Z</time>
      </trkpt>
      <trkpt lat="45.82309" lon="3.08036">
        <ele>374.60000610352</ele>
        <time>2013-09-21T07:03:46Z</time>
      </trkpt>
      <trkpt lat="45.82315" lon="3.08052">
        <ele>374.60000610352</ele>
        <time>2013-09-21T07:03:55Z</time>
      </trkpt>
      <trkpt lat="45.82318" lon="3.08062">
        <ele>374.20001220703</ele>
        <time>2013-09-21T07:03:59Z</time>
      </trkpt>
      <trkpt lat="45.8232" lon="3.08068">
        <ele>373</ele>
        <time>2013-09-21T07:04:02Z</time>
      </trkpt>
      <trkpt lat="45.82321" lon="3.0807">
        <ele>372.60000610352</ele>
        <time>2013-09-21T07:04:03Z</time>
      </trkpt>
      <trkpt lat="45.82328" lon="3.08088">
        <ele>372.60000610352</ele>
        <time>2013-09-21T07:04:12Z</time>
      </trkpt>
      <trkpt lat="45.82335" lon="3.08104">
        <ele>372.60000610352</ele>
        <time>2013-09-21T07:04:18Z</time>
      </trkpt>
      <trkpt lat="45.82341" lon="3.08121">
        <ele>372.60000610352</ele>
        <time>2013-09-21T07:04:26Z</time>
      </trkpt>
      <trkpt lat="45.82353" lon="3.08149">
        <ele>372.60000610352</ele>
        <time>2013-09-21T07:04:37Z</time>
      </trkpt>
      <trkpt lat="45.82364" lon="3.08173">
        <ele>372.60000610352</ele>
        <time>2013-09-21T07:04:44Z</time>
      </trkpt>
      <trkpt lat="45.8237" lon="3.08188">
        <ele>372.20001220703</ele>
        <time>2013-09-21T07:04:48Z</time>
      </trkpt>
      <trkpt lat="45.82371" lon="3.08192">
        <ele>371.79998779297</ele>
        <time>2013-09-21T07:04:49Z</time>
      </trkpt>
      <trkpt lat="45.82374" lon="3.08201">
        <ele>371</ele>
        <time>2013-09-21T07:04:51Z</time>
      </trkpt>
      <trkpt lat="45.82384" lon="3.0824">
        <ele>370.60000610352</ele>
        <time>2013-09-21T07:04:59Z</time>
      </trkpt>
      <trkpt lat="45.82399" lon="3.08284">
        <ele>370.60000610352</ele>
        <time>2013-09-21T07:05:08Z</time>
      </trkpt>
      <trkpt lat="45.82426" lon="3.08326">
        <ele>370.60000610352</ele>
        <time>2013-09-21T07:05:18Z</time>
      </trkpt>
      <trkpt lat="45.8245" lon="3.08359">
        <ele>370.20001220703</ele>
        <time>2013-09-21T07:05:26Z</time>
      </trkpt>
      <trkpt lat="45.82453" lon="3.08364">
        <ele>369.79998779297</ele>
        <time>2013-09-21T07:05:27Z</time>
      </trkpt>
      <trkpt lat="45.82458" lon="3.08374">
        <ele>369</ele>
        <time>2013-09-21T07:05:29Z</time>
      </trkpt>
      <trkpt lat="45.82462" lon="3.0838">
        <ele>368.39999389648</ele>
        <time>2013-09-21T07:05:30Z</time>
      </trkpt>
      <trkpt lat="45.82467" lon="3.08391">
        <ele>368.39999389648</ele>
        <time>2013-09-21T07:05:32Z</time>
      </trkpt>
      <trkpt lat="45.82492" lon="3.08432">
        <ele>368.39999389648</ele>
        <time>2013-09-21T07:05:39Z</time>
      </trkpt>
      <trkpt lat="45.8252" lon="3.08478">
        <ele>368.39999389648</ele>
        <time>2013-09-21T07:05:48Z</time>
      </trkpt>
      <trkpt lat="45.82523" lon="3.08482">
        <ele>368</ele>
        <time>2013-09-21T07:05:49Z</time>
      </trkpt>
      <trkpt lat="45.82531" lon="3.08494">
        <ele>366.79998779297</ele>
        <time>2013-09-21T07:05:52Z</time>
      </trkpt>
      <trkpt lat="45.82542" lon="3.08508">
        <ele>366.39999389648</ele>
        <time>2013-09-21T07:05:56Z</time>
      </trkpt>
      <trkpt lat="45.82559" lon="3.0852">
        <ele>366.39999389648</ele>
        <time>2013-09-21T07:06:01Z</time>
      </trkpt>
      <trkpt lat="45.82582" lon="3.08522">
        <ele>366.39999389648</ele>
        <time>2013-09-21T07:06:07Z</time>
      </trkpt>
      <trkpt lat="45.82601" lon="3.08523">
        <ele>366</ele>
        <time>2013-09-21T07:06:11Z</time>
      </trkpt>
      <trkpt lat="45.82612" lon="3.08524">
        <ele>365.20001220703</ele>
        <time>2013-09-21T07:06:13Z</time>
      </trkpt>
      <trkpt lat="45.82622" lon="3.08526">
        <ele>364.39999389648</ele>
        <time>2013-09-21T07:06:15Z</time>
      </trkpt>
      <trkpt lat="45.82633" lon="3.08527">
        <ele>364.39999389648</ele>
        <time>2013-09-21T07:06:17Z</time>
      </trkpt>
      <trkpt lat="45.82656" lon="3.08519">
        <ele>364</ele>
        <time>2013-09-21T07:06:21Z</time>
      </trkpt>
      <trkpt lat="45.82661" lon="3.08517">
        <ele>363.39999389648</ele>
        <time>2013-09-21T07:06:22Z</time>
      </trkpt>
      <trkpt lat="45.82673" lon="3.08514">
        <ele>362.60000610352</ele>
        <time>2013-09-21T07:06:24Z</time>
      </trkpt>
      <trkpt lat="45.82684" lon="3.0851">
        <ele>362.20001220703</ele>
        <time>2013-09-21T07:06:26Z</time>
      </trkpt>
      <trkpt lat="45.82691" lon="3.08501">
        <ele>362.20001220703</ele>
        <time>2013-09-21T07:06:28Z</time>
      </trkpt>
      <trkpt lat="45.82697" lon="3.08481">
        <ele>362.20001220703</ele>
        <time>2013-09-21T07:06:31Z</time>
      </trkpt>
      <trkpt lat="45.82701" lon="3.08463">
        <ele>362.20001220703</ele>
        <time>2013-09-21T07:06:35Z</time>
      </trkpt>
      <trkpt lat="45.82708" lon="3.08456">
        <ele>362.20001220703</ele>
        <time>2013-09-21T07:06:40Z</time>
      </trkpt>
      <trkpt lat="45.82724" lon="3.08451">
        <ele>362.20001220703</ele>
        <time>2013-09-21T07:06:48Z</time>
      </trkpt>
      <trkpt lat="45.82739" lon="3.08453">
        <ele>362.20001220703</ele>
        <time>2013-09-21T07:06:54Z</time>
      </trkpt>
      <trkpt lat="45.82761" lon="3.08455">
        <ele>362.20001220703</ele>
        <time>2013-09-21T07:07:01Z</time>
      </trkpt>
      <trkpt lat="45.82781" lon="3.08453">
        <ele>362.20001220703</ele>
        <time>2013-09-21T07:07:07Z</time>
      </trkpt>
      <trkpt lat="45.82791" lon="3.08451">
        <ele>363.20001220703</ele>
        <time>2013-09-21T07:07:10Z</time>
      </trkpt>
      <trkpt lat="45.82798" lon="3.08449">
        <ele>364</ele>
        <time>2013-09-21T07:07:12Z</time>
      </trkpt>
      <trkpt lat="45.82801" lon="3.08447">
        <ele>364.39999389648</ele>
        <time>2013-09-21T07:07:13Z</time>
      </trkpt>
      <trkpt lat="45.82814" lon="3.08442">
        <ele>365</ele>
        <time>2013-09-21T07:07:18Z</time>
      </trkpt>
      <trkpt lat="45.8282" lon="3.08439">
        <ele>366.20001220703</ele>
        <time>2013-09-21T07:07:21Z</time>
      </trkpt>
      <trkpt lat="45.82834" lon="3.08431">
        <ele>366.60000610352</ele>
        <time>2013-09-21T07:07:43Z</time>
      </trkpt>
      <trkpt lat="45.82856" lon="3.08422">
        <ele>366.60000610352</ele>
        <time>2013-09-21T07:07:49Z</time>
      </trkpt>
      <trkpt lat="45.82869" lon="3.08416">
        <ele>367</ele>
        <time>2013-09-21T07:07:52Z</time>
      </trkpt>
      <trkpt lat="45.82873" lon="3.08414">
        <ele>367.39999389648</ele>
        <time>2013-09-21T07:07:53Z</time>
      </trkpt>
      <trkpt lat="45.8288" lon="3.08411">
        <ele>368.20001220703</ele>
        <time>2013-09-21T07:07:55Z</time>
      </trkpt>
      <trkpt lat="45.82885" lon="3.08409">
        <ele>368.60000610352</ele>
        <time>2013-09-21T07:07:56Z</time>
      </trkpt>
      <trkpt lat="45.82919" lon="3.08389">
        <ele>369.20001220703</ele>
        <time>2013-09-21T07:08:05Z</time>
      </trkpt>
      <trkpt lat="45.82922" lon="3.08386">
        <ele>369.60000610352</ele>
        <time>2013-09-21T07:08:06Z</time>
      </trkpt>
      <trkpt lat="45.82929" lon="3.08379">
        <ele>370.39999389648</ele>
        <time>2013-09-21T07:08:08Z</time>
      </trkpt>
      <trkpt lat="45.82932" lon="3.08376">
        <ele>370.79998779297</ele>
        <time>2013-09-21T07:08:09Z</time>
      </trkpt>
      <trkpt lat="45.82947" lon="3.08361">
        <ele>370.79998779297</ele>
        <time>2013-09-21T07:08:14Z</time>
      </trkpt>
      <trkpt lat="45.8297" lon="3.08338">
        <ele>370.79998779297</ele>
        <time>2013-09-21T07:08:21Z</time>
      </trkpt>
      <trkpt lat="45.82981" lon="3.08329">
        <ele>372.20001220703</ele>
        <time>2013-09-21T07:08:24Z</time>
      </trkpt>
      <trkpt lat="45.82992" lon="3.08325">
        <ele>373</ele>
        <time>2013-09-21T07:08:27Z</time>
      </trkpt>
      <trkpt lat="45.83001" lon="3.08327">
        <ele>373</ele>
        <time>2013-09-21T07:08:29Z</time>
      </trkpt>
      <trkpt lat="45.8301" lon="3.08328">
        <ele>373</ele>
        <time>2013-09-21T07:08:31Z</time>
      </trkpt>
      <trkpt lat="45.83038" lon="3.08318">
        <ele>373</ele>
        <time>2013-09-21T07:08:37Z</time>
      </trkpt>
      <trkpt lat="45.83039" lon="3.083">
        <ele>373</ele>
        <time>2013-09-21T07:08:40Z</time>
      </trkpt>
      <trkpt lat="45.83037" lon="3.08288">
        <ele>373</ele>
        <time>2013-09-21T07:08:42Z</time>
      </trkpt>
      <trkpt lat="45.83034" lon="3.0827">
        <ele>373</ele>
        <time>2013-09-21T07:08:45Z</time>
      </trkpt>
      <trkpt lat="45.83024" lon="3.08215">
        <ele>373.39999389648</ele>
        <time>2013-09-21T07:08:54Z</time>
      </trkpt>
      <trkpt lat="45.83023" lon="3.08209">
        <ele>373.79998779297</ele>
        <time>2013-09-21T07:08:55Z</time>
      </trkpt>
      <trkpt lat="45.8302" lon="3.08198">
        <ele>374.60000610352</ele>
        <time>2013-09-21T07:08:57Z</time>
      </trkpt>
      <trkpt lat="45.83019" lon="3.08192">
        <ele>375</ele>
        <time>2013-09-21T07:08:58Z</time>
      </trkpt>
      <trkpt lat="45.83014" lon="3.08164">
        <ele>375.39999389648</ele>
        <time>2013-09-21T07:09:03Z</time>
      </trkpt>
      <trkpt lat="45.83014" lon="3.08159">
        <ele>375.79998779297</ele>
        <time>2013-09-21T07:09:04Z</time>
      </trkpt>
      <trkpt lat="45.83012" lon="3.08149">
        <ele>376.60000610352</ele>
        <time>2013-09-21T07:09:06Z</time>
      </trkpt>
      <trkpt lat="45.83009" lon="3.08139">
        <ele>377</ele>
        <time>2013-09-21T07:09:09Z</time>
      </trkpt>
      <trkpt lat="45.83006" lon="3.08122">
        <ele>377</ele>
        <time>2013-09-21T07:09:13Z</time>
      </trkpt>
      <trkpt lat="45.83006" lon="3.08115">
        <ele>377</ele>
        <time>2013-09-21T07:09:14Z</time>
      </trkpt>
      <trkpt lat="45.83004" lon="3.08103">
        <ele>377.39999389648</ele>
        <time>2013-09-21T07:09:16Z</time>
      </trkpt>
      <trkpt lat="45.83003" lon="3.08097">
        <ele>378</ele>
        <time>2013-09-21T07:09:17Z</time>
      </trkpt>
      <trkpt lat="45.83001" lon="3.08086">
        <ele>378.79998779297</ele>
        <time>2013-09-21T07:09:19Z</time>
      </trkpt>
      <trkpt lat="45.83" lon="3.0808">
        <ele>379.20001220703</ele>
        <time>2013-09-21T07:09:20Z</time>
      </trkpt>
      <trkpt lat="45.82993" lon="3.08048">
        <ele>379.20001220703</ele>
        <time>2013-09-21T07:09:26Z</time>
      </trkpt>
      <trkpt lat="45.8299" lon="3.08024">
        <ele>379.60000610352</ele>
        <time>2013-09-21T07:09:31Z</time>
      </trkpt>
      <trkpt lat="45.82989" lon="3.08019">
        <ele>380.20001220703</ele>
        <time>2013-09-21T07:09:32Z</time>
      </trkpt>
      <trkpt lat="45.82985" lon="3.08005">
        <ele>381.39999389648</ele>
        <time>2013-09-21T07:09:35Z</time>
      </trkpt>
      <trkpt lat="45.82982" lon="3.07995">
        <ele>381.39999389648</ele>
        <time>2013-09-21T07:09:37Z</time>
      </trkpt>
      <trkpt lat="45.82979" lon="3.0798">
        <ele>382</ele>
        <time>2013-09-21T07:09:40Z</time>
      </trkpt>
      <trkpt lat="45.82978" lon="3.07976">
        <ele>382.39999389648</ele>
        <time>2013-09-21T07:09:41Z</time>
      </trkpt>
      <trkpt lat="45.82976" lon="3.07967">
        <ele>383.20001220703</ele>
        <time>2013-09-21T07:09:43Z</time>
      </trkpt>
      <trkpt lat="45.82969" lon="3.07941">
        <ele>383.60000610352</ele>
        <time>2013-09-21T07:09:49Z</time>
      </trkpt>
      <trkpt lat="45.82965" lon="3.07931">
        <ele>384</ele>
        <time>2013-09-21T07:09:51Z</time>
      </trkpt>
      <trkpt lat="45.82964" lon="3.07927">
        <ele>384.39999389648</ele>
        <time>2013-09-21T07:09:52Z</time>
      </trkpt>
      <trkpt lat="45.82962" lon="3.07919">
        <ele>385.20001220703</ele>
        <time>2013-09-21T07:09:54Z</time>
      </trkpt>
      <trkpt lat="45.8296" lon="3.07911">
        <ele>385.60000610352</ele>
        <time>2013-09-21T07:09:56Z</time>
      </trkpt>
      <trkpt lat="45.82954" lon="3.07893">
        <ele>386.20001220703</ele>
        <time>2013-09-21T07:10:00Z</time>
      </trkpt>
      <trkpt lat="45.82952" lon="3.07889">
        <ele>386.60000610352</ele>
        <time>2013-09-21T07:10:01Z</time>
      </trkpt>
      <trkpt lat="45.82948" lon="3.07879">
        <ele>387.39999389648</ele>
        <time>2013-09-21T07:10:03Z</time>
      </trkpt>
      <trkpt lat="45.8294" lon="3.07866">
        <ele>387.79998779297</ele>
        <time>2013-09-21T07:10:06Z</time>
      </trkpt>
      <trkpt lat="45.82928" lon="3.07841">
        <ele>387.79998779297</ele>
        <time>2013-09-21T07:10:12Z</time>
      </trkpt>
      <trkpt lat="45.82932" lon="3.07836">
        <ele>388.20001220703</ele>
        <time>2013-09-21T07:10:13Z</time>
      </trkpt>
      <trkpt lat="45.82933" lon="3.07825">
        <ele>389</ele>
        <time>2013-09-21T07:10:15Z</time>
      </trkpt>
      <trkpt lat="45.82932" lon="3.07817">
        <ele>389.79998779297</ele>
        <time>2013-09-21T07:10:17Z</time>
      </trkpt>
      <trkpt lat="45.82935" lon="3.07791">
        <ele>389.79998779297</ele>
        <time>2013-09-21T07:10:23Z</time>
      </trkpt>
      <trkpt lat="45.82929" lon="3.07765">
        <ele>390.20001220703</ele>
        <time>2013-09-21T07:10:28Z</time>
      </trkpt>
      <trkpt lat="45.82929" lon="3.07756">
        <ele>391</ele>
        <time>2013-09-21T07:10:30Z</time>
      </trkpt>
      <trkpt lat="45.82928" lon="3.07746">
        <ele>392</ele>
        <time>2013-09-21T07:10:32Z</time>
      </trkpt>
      <trkpt lat="45.82924" lon="3.07733">
        <ele>392</ele>
        <time>2013-09-21T07:10:35Z</time>
      </trkpt>
      <trkpt lat="45.8291" lon="3.07723">
        <ele>392</ele>
        <time>2013-09-21T07:10:39Z</time>
      </trkpt>
      <trkpt lat="45.82892" lon="3.07731">
        <ele>392</ele>
        <time>2013-09-21T07:10:44Z</time>
      </trkpt>
      <trkpt lat="45.82869" lon="3.0773">
        <ele>392</ele>
        <time>2013-09-21T07:10:49Z</time>
      </trkpt>
      <trkpt lat="45.82861" lon="3.07714">
        <ele>392</ele>
        <time>2013-09-21T07:10:52Z</time>
      </trkpt>
      <trkpt lat="45.82853" lon="3.07693">
        <ele>392</ele>
        <time>2013-09-21T07:10:57Z</time>
      </trkpt>
      <trkpt lat="45.82846" lon="3.07679">
        <ele>392</ele>
        <time>2013-09-21T07:11:03Z</time>
      </trkpt>
      <trkpt lat="45.8283" lon="3.07662">
        <ele>392</ele>
        <time>2013-09-21T07:11:10Z</time>
      </trkpt>
      <trkpt lat="45.82817" lon="3.07649">
        <ele>392</ele>
        <time>2013-09-21T07:11:17Z</time>
      </trkpt>
      <trkpt lat="45.82803" lon="3.07632">
        <ele>392</ele>
        <time>2013-09-21T07:11:33Z</time>
      </trkpt>
      <trkpt lat="45.82803" lon="3.07629">
        <ele>392.79998779297</ele>
        <time>2013-09-21T07:11:36Z</time>
      </trkpt>
      <trkpt lat="45.828" lon="3.07622">
        <ele>394</ele>
        <time>2013-09-21T07:11:43Z</time>
      </trkpt>
      <trkpt lat="45.82787" lon="3.07606">
        <ele>394</ele>
        <time>2013-09-21T07:11:53Z</time>
      </trkpt>
      <trkpt lat="45.82777" lon="3.07585">
        <ele>394</ele>
        <time>2013-09-21T07:12:01Z</time>
      </trkpt>
      <trkpt lat="45.82763" lon="3.07558">
        <ele>394</ele>
        <time>2013-09-21T07:12:09Z</time>
      </trkpt>
      <trkpt lat="45.8275" lon="3.07531">
        <ele>394</ele>
        <time>2013-09-21T07:12:17Z</time>
      </trkpt>
      <trkpt lat="45.82737" lon="3.07507">
        <ele>394</ele>
        <time>2013-09-21T07:12:24Z</time>
      </trkpt>
      <trkpt lat="45.82729" lon="3.07498">
        <ele>395.20001220703</ele>
        <time>2013-09-21T07:12:27Z</time>
      </trkpt>
      <trkpt lat="45.82722" lon="3.07488">
        <ele>396</ele>
        <time>2013-09-21T07:12:29Z</time>
      </trkpt>
      <trkpt lat="45.82719" lon="3.07484">
        <ele>396</ele>
        <time>2013-09-21T07:12:30Z</time>
      </trkpt>
      <trkpt lat="45.8271" lon="3.07443">
        <ele>396</ele>
        <time>2013-09-21T07:12:38Z</time>
      </trkpt>
      <trkpt lat="45.82708" lon="3.07418">
        <ele>396</ele>
        <time>2013-09-21T07:12:42Z</time>
      </trkpt>
      <trkpt lat="45.82706" lon="3.07354">
        <ele>396</ele>
        <time>2013-09-21T07:12:51Z</time>
      </trkpt>
      <trkpt lat="45.82705" lon="3.07315">
        <ele>396</ele>
        <time>2013-09-21T07:12:56Z</time>
      </trkpt>
      <trkpt lat="45.82706" lon="3.07301">
        <ele>396</ele>
        <time>2013-09-21T07:12:58Z</time>
      </trkpt>
      <trkpt lat="45.8271" lon="3.07271">
        <ele>396</ele>
        <time>2013-09-21T07:13:03Z</time>
      </trkpt>
      <trkpt lat="45.82718" lon="3.07248">
        <ele>396</ele>
        <time>2013-09-21T07:13:08Z</time>
      </trkpt>
      <trkpt lat="45.82732" lon="3.07214">
        <ele>396</ele>
        <time>2013-09-21T07:13:15Z</time>
      </trkpt>
      <trkpt lat="45.82736" lon="3.07178">
        <ele>396</ele>
        <time>2013-09-21T07:13:22Z</time>
      </trkpt>
      <trkpt lat="45.82735" lon="3.07163">
        <ele>396.39999389648</ele>
        <time>2013-09-21T07:13:25Z</time>
      </trkpt>
      <trkpt lat="45.82734" lon="3.07158">
        <ele>396.79998779297</ele>
        <time>2013-09-21T07:13:26Z</time>
      </trkpt>
      <trkpt lat="45.82732" lon="3.07148">
        <ele>397.60000610352</ele>
        <time>2013-09-21T07:13:28Z</time>
      </trkpt>
      <trkpt lat="45.82727" lon="3.07119">
        <ele>398.60000610352</ele>
        <time>2013-09-21T07:13:34Z</time>
      </trkpt>
      <trkpt lat="45.82726" lon="3.07109">
        <ele>399.39999389648</ele>
        <time>2013-09-21T07:13:36Z</time>
      </trkpt>
      <trkpt lat="45.82725" lon="3.071">
        <ele>400.39999389648</ele>
        <time>2013-09-21T07:13:38Z</time>
      </trkpt>
      <trkpt lat="45.82719" lon="3.0707">
        <ele>400.79998779297</ele>
        <time>2013-09-21T07:13:44Z</time>
      </trkpt>
      <trkpt lat="45.82714" lon="3.07056">
        <ele>402</ele>
        <time>2013-09-21T07:13:47Z</time>
      </trkpt>
      <trkpt lat="45.82711" lon="3.07047">
        <ele>402.79998779297</ele>
        <time>2013-09-21T07:13:49Z</time>
      </trkpt>
      <trkpt lat="45.82709" lon="3.07042">
        <ele>403.20001220703</ele>
        <time>2013-09-21T07:13:50Z</time>
      </trkpt>
      <trkpt lat="45.82707" lon="3.07038">
        <ele>403.60000610352</ele>
        <time>2013-09-21T07:13:51Z</time>
      </trkpt>
      <trkpt lat="45.82703" lon="3.07029">
        <ele>404.39999389648</ele>
        <time>2013-09-21T07:13:53Z</time>
      </trkpt>
      <trkpt lat="45.82697" lon="3.07012">
        <ele>404.79998779297</ele>
        <time>2013-09-21T07:13:57Z</time>
      </trkpt>
      <trkpt lat="45.82696" lon="3.07008">
        <ele>405.20001220703</ele>
        <time>2013-09-21T07:13:58Z</time>
      </trkpt>
      <trkpt lat="45.82694" lon="3.06998">
        <ele>406</ele>
        <time>2013-09-21T07:14:00Z</time>
      </trkpt>
      <trkpt lat="45.82692" lon="3.06971">
        <ele>407</ele>
        <time>2013-09-21T07:14:06Z</time>
      </trkpt>
      <trkpt lat="45.82692" lon="3.06968">
        <ele>407.39999389648</ele>
        <time>2013-09-21T07:14:07Z</time>
      </trkpt>
      <trkpt lat="45.82693" lon="3.06959">
        <ele>408.20001220703</ele>
        <time>2013-09-21T07:14:09Z</time>
      </trkpt>
      <trkpt lat="45.82702" lon="3.06942">
        <ele>409.20001220703</ele>
        <time>2013-09-21T07:14:14Z</time>
      </trkpt>
      <trkpt lat="45.82704" lon="3.06938">
        <ele>409.60000610352</ele>
        <time>2013-09-21T07:14:15Z</time>
      </trkpt>
      <trkpt lat="45.8271" lon="3.06928">
        <ele>411</ele>
        <time>2013-09-21T07:14:18Z</time>
      </trkpt>
      <trkpt lat="45.82712" lon="3.06925">
        <ele>411</ele>
        <time>2013-09-21T07:14:19Z</time>
      </trkpt>
      <trkpt lat="45.82716" lon="3.06918">
        <ele>411.60000610352</ele>
        <time>2013-09-21T07:14:21Z</time>
      </trkpt>
      <trkpt lat="45.82721" lon="3.06908">
        <ele>412.79998779297</ele>
        <time>2013-09-21T07:14:24Z</time>
      </trkpt>
      <trkpt lat="45.82728" lon="3.06895">
        <ele>413.60000610352</ele>
        <time>2013-09-21T07:14:28Z</time>
      </trkpt>
      <trkpt lat="45.82732" lon="3.06889">
        <ele>414.60000610352</ele>
        <time>2013-09-21T07:14:30Z</time>
      </trkpt>
      <trkpt lat="45.82739" lon="3.06878">
        <ele>415.60000610352</ele>
        <time>2013-09-21T07:14:34Z</time>
      </trkpt>
      <trkpt lat="45.82749" lon="3.06866">
        <ele>416.20001220703</ele>
        <time>2013-09-21T07:14:38Z</time>
      </trkpt>
      <trkpt lat="45.82751" lon="3.06863">
        <ele>416.60000610352</ele>
        <time>2013-09-21T07:14:39Z</time>
      </trkpt>
      <trkpt lat="45.82754" lon="3.06859">
        <ele>417</ele>
        <time>2013-09-21T07:14:40Z</time>
      </trkpt>
      <trkpt lat="45.82769" lon="3.06839">
        <ele>417.79998779297</ele>
        <time>2013-09-21T07:14:46Z</time>
      </trkpt>
      <trkpt lat="45.8278" lon="3.06814">
        <ele>417.79998779297</ele>
        <time>2013-09-21T07:14:53Z</time>
      </trkpt>
      <trkpt lat="45.82788" lon="3.06795">
        <ele>418.20001220703</ele>
        <time>2013-09-21T07:14:59Z</time>
      </trkpt>
      <trkpt lat="45.8279" lon="3.06789">
        <ele>419.20001220703</ele>
        <time>2013-09-21T07:15:01Z</time>
      </trkpt>
      <trkpt lat="45.82803" lon="3.06763">
        <ele>420</ele>
        <time>2013-09-21T07:15:10Z</time>
      </trkpt>
      <trkpt lat="45.82813" lon="3.06736">
        <ele>420</ele>
        <time>2013-09-21T07:15:18Z</time>
      </trkpt>
      <trkpt lat="45.82825" lon="3.06714">
        <ele>420.39999389648</ele>
        <time>2013-09-21T07:15:25Z</time>
      </trkpt>
      <trkpt lat="45.82829" lon="3.06708">
        <ele>421.20001220703</ele>
        <time>2013-09-21T07:15:27Z</time>
      </trkpt>
      <trkpt lat="45.8283" lon="3.06705">
        <ele>421.60000610352</ele>
        <time>2013-09-21T07:15:28Z</time>
      </trkpt>
      <trkpt lat="45.82841" lon="3.06679">
        <ele>422.20001220703</ele>
        <time>2013-09-21T07:15:35Z</time>
      </trkpt>
      <trkpt lat="45.82845" lon="3.06666">
        <ele>423.39999389648</ele>
        <time>2013-09-21T07:15:38Z</time>
      </trkpt>
      <trkpt lat="45.82848" lon="3.06658">
        <ele>424.20001220703</ele>
        <time>2013-09-21T07:15:40Z</time>
      </trkpt>
      <trkpt lat="45.82853" lon="3.06642">
        <ele>424.79998779297</ele>
        <time>2013-09-21T07:15:44Z</time>
      </trkpt>
      <trkpt lat="45.82854" lon="3.06639">
        <ele>425.20001220703</ele>
        <time>2013-09-21T07:15:45Z</time>
      </trkpt>
      <trkpt lat="45.82865" lon="3.06617">
        <ele>427</ele>
        <time>2013-09-21T07:15:53Z</time>
      </trkpt>
      <trkpt lat="45.82867" lon="3.0661">
        <ele>427.79998779297</ele>
        <time>2013-09-21T07:15:55Z</time>
      </trkpt>
      <trkpt lat="45.8287" lon="3.06603">
        <ele>428.60000610352</ele>
        <time>2013-09-21T07:15:57Z</time>
      </trkpt>
      <trkpt lat="45.82874" lon="3.06592">
        <ele>429</ele>
        <time>2013-09-21T07:16:00Z</time>
      </trkpt>
      <trkpt lat="45.82875" lon="3.06588">
        <ele>429.39999389648</ele>
        <time>2013-09-21T07:16:01Z</time>
      </trkpt>
      <trkpt lat="45.8288" lon="3.06577">
        <ele>431.20001220703</ele>
        <time>2013-09-21T07:16:05Z</time>
      </trkpt>
      <trkpt lat="45.82887" lon="3.06569">
        <ele>432.39999389648</ele>
        <time>2013-09-21T07:16:08Z</time>
      </trkpt>
      <trkpt lat="45.82895" lon="3.06566">
        <ele>433.39999389648</ele>
        <time>2013-09-21T07:16:12Z</time>
      </trkpt>
      <trkpt lat="45.82901" lon="3.06565">
        <ele>434.60000610352</ele>
        <time>2013-09-21T07:16:15Z</time>
      </trkpt>
      <trkpt lat="45.82912" lon="3.0656">
        <ele>435.39999389648</ele>
        <time>2013-09-21T07:16:22Z</time>
      </trkpt>
      <trkpt lat="45.82913" lon="3.06559">
        <ele>436</ele>
        <time>2013-09-21T07:16:23Z</time>
      </trkpt>
      <trkpt lat="45.82928" lon="3.06551">
        <ele>437.60000610352</ele>
        <time>2013-09-21T07:16:31Z</time>
      </trkpt>
      <trkpt lat="45.82932" lon="3.06549">
        <ele>438.60000610352</ele>
        <time>2013-09-21T07:16:33Z</time>
      </trkpt>
      <trkpt lat="45.82946" lon="3.06541">
        <ele>439.79998779297</ele>
        <time>2013-09-21T07:16:39Z</time>
      </trkpt>
      <trkpt lat="45.82951" lon="3.0654">
        <ele>440.60000610352</ele>
        <time>2013-09-21T07:16:41Z</time>
      </trkpt>
      <trkpt lat="45.82971" lon="3.06537">
        <ele>441.39999389648</ele>
        <time>2013-09-21T07:16:51Z</time>
      </trkpt>
      <trkpt lat="45.82991" lon="3.06546">
        <ele>441.79998779297</ele>
        <time>2013-09-21T07:16:59Z</time>
      </trkpt>
      <trkpt lat="45.82996" lon="3.0655">
        <ele>442.60000610352</ele>
        <time>2013-09-21T07:17:01Z</time>
      </trkpt>
      <trkpt lat="45.83002" lon="3.06554">
        <ele>443.39999389648</ele>
        <time>2013-09-21T07:17:03Z</time>
      </trkpt>
      <trkpt lat="45.83014" lon="3.06563">
        <ele>443.39999389648</ele>
        <time>2013-09-21T07:17:07Z</time>
      </trkpt>
      <trkpt lat="45.8303" lon="3.06566">
        <ele>443.39999389648</ele>
        <time>2013-09-21T07:17:13Z</time>
      </trkpt>
      <trkpt lat="45.83041" lon="3.06565">
        <ele>443.79998779297</ele>
        <time>2013-09-21T07:17:17Z</time>
      </trkpt>
      <trkpt lat="45.83051" lon="3.06564">
        <ele>445.20001220703</ele>
        <time>2013-09-21T07:17:20Z</time>
      </trkpt>
      <trkpt lat="45.83075" lon="3.06557">
        <ele>445.60000610352</ele>
        <time>2013-09-21T07:17:28Z</time>
      </trkpt>
      <trkpt lat="45.83081" lon="3.06555">
        <ele>446.60000610352</ele>
        <time>2013-09-21T07:17:30Z</time>
      </trkpt>
      <trkpt lat="45.83091" lon="3.06553">
        <ele>448</ele>
        <time>2013-09-21T07:17:34Z</time>
      </trkpt>
      <trkpt lat="45.83102" lon="3.06553">
        <ele>449.39999389648</ele>
        <time>2013-09-21T07:17:39Z</time>
      </trkpt>
      <trkpt lat="45.8312" lon="3.06555">
        <ele>450.79998779297</ele>
        <time>2013-09-21T07:17:46Z</time>
      </trkpt>
      <trkpt lat="45.83135" lon="3.06543">
        <ele>452.39999389648</ele>
        <time>2013-09-21T07:17:54Z</time>
      </trkpt>
      <trkpt lat="45.83148" lon="3.06538">
        <ele>452.39999389648</ele>
        <time>2013-09-21T07:17:58Z</time>
      </trkpt>
      <trkpt lat="45.83151" lon="3.06537">
        <ele>452.39999389648</ele>
        <time>2013-09-21T07:17:59Z</time>
      </trkpt>
      <trkpt lat="45.83168" lon="3.06543">
        <ele>452.39999389648</ele>
        <time>2013-09-21T07:18:04Z</time>
      </trkpt>
      <trkpt lat="45.83187" lon="3.06559">
        <ele>452.39999389648</ele>
        <time>2013-09-21T07:18:11Z</time>
      </trkpt>
      <trkpt lat="45.83199" lon="3.06566">
        <ele>452.79998779297</ele>
        <time>2013-09-21T07:18:15Z</time>
      </trkpt>
      <trkpt lat="45.83202" lon="3.06567">
        <ele>453.20001220703</ele>
        <time>2013-09-21T07:18:16Z</time>
      </trkpt>
      <trkpt lat="45.83211" lon="3.06568">
        <ele>454.60000610352</ele>
        <time>2013-09-21T07:18:19Z</time>
      </trkpt>
      <trkpt lat="45.83223" lon="3.06565">
        <ele>454.60000610352</ele>
        <time>2013-09-21T07:18:23Z</time>
      </trkpt>
      <trkpt lat="45.83231" lon="3.06559">
        <ele>456.20001220703</ele>
        <time>2013-09-21T07:18:27Z</time>
      </trkpt>
      <trkpt lat="45.83242" lon="3.06553">
        <ele>458</ele>
        <time>2013-09-21T07:18:32Z</time>
      </trkpt>
      <trkpt lat="45.83249" lon="3.06549">
        <ele>458.79998779297</ele>
        <time>2013-09-21T07:18:36Z</time>
      </trkpt>
      <trkpt lat="45.83263" lon="3.06543">
        <ele>459.20001220703</ele>
        <time>2013-09-21T07:18:42Z</time>
      </trkpt>
      <trkpt lat="45.83271" lon="3.06542">
        <ele>460.39999389648</ele>
        <time>2013-09-21T07:18:45Z</time>
      </trkpt>
      <trkpt lat="45.83289" lon="3.06538">
        <ele>461.20001220703</ele>
        <time>2013-09-21T07:18:53Z</time>
      </trkpt>
      <trkpt lat="45.83292" lon="3.06538">
        <ele>461.79998779297</ele>
        <time>2013-09-21T07:18:54Z</time>
      </trkpt>
      <trkpt lat="45.8332" lon="3.0654">
        <ele>463.39999389648</ele>
        <time>2013-09-21T07:19:05Z</time>
      </trkpt>
      <trkpt lat="45.83323" lon="3.06541">
        <ele>464</ele>
        <time>2013-09-21T07:19:06Z</time>
      </trkpt>
      <trkpt lat="45.8334" lon="3.06543">
        <ele>465.39999389648</ele>
        <time>2013-09-21T07:19:14Z</time>
      </trkpt>
      <trkpt lat="45.83354" lon="3.06544">
        <ele>465.39999389648</ele>
        <time>2013-09-21T07:19:20Z</time>
      </trkpt>
      <trkpt lat="45.83362" lon="3.06542">
        <ele>466.20001220703</ele>
        <time>2013-09-21T07:19:23Z</time>
      </trkpt>
      <trkpt lat="45.83367" lon="3.0654">
        <ele>467.20001220703</ele>
        <time>2013-09-21T07:19:25Z</time>
      </trkpt>
      <trkpt lat="45.83373" lon="3.06537">
        <ele>467.79998779297</ele>
        <time>2013-09-21T07:19:28Z</time>
      </trkpt>
      <trkpt lat="45.83387" lon="3.06529">
        <ele>468.20001220703</ele>
        <time>2013-09-21T07:19:35Z</time>
      </trkpt>
      <trkpt lat="45.83391" lon="3.06527">
        <ele>469</ele>
        <time>2013-09-21T07:19:37Z</time>
      </trkpt>
      <trkpt lat="45.83406" lon="3.06517">
        <ele>470.39999389648</ele>
        <time>2013-09-21T07:19:45Z</time>
      </trkpt>
      <trkpt lat="45.83412" lon="3.06514">
        <ele>471.60000610352</ele>
        <time>2013-09-21T07:19:48Z</time>
      </trkpt>
      <trkpt lat="45.8342" lon="3.06506">
        <ele>472.39999389648</ele>
        <time>2013-09-21T07:19:54Z</time>
      </trkpt>
      <trkpt lat="45.83436" lon="3.06498">
        <ele>474</ele>
        <time>2013-09-21T07:20:03Z</time>
      </trkpt>
      <trkpt lat="45.83441" lon="3.06494">
        <ele>475.39999389648</ele>
        <time>2013-09-21T07:20:06Z</time>
      </trkpt>
      <trkpt lat="45.83448" lon="3.06488">
        <ele>476.20001220703</ele>
        <time>2013-09-21T07:20:10Z</time>
      </trkpt>
      <trkpt lat="45.83451" lon="3.06484">
        <ele>476.60000610352</ele>
        <time>2013-09-21T07:20:12Z</time>
      </trkpt>
      <trkpt lat="45.83458" lon="3.06479">
        <ele>477.60000610352</ele>
        <time>2013-09-21T07:20:14Z</time>
      </trkpt>
      <trkpt lat="45.8346" lon="3.06478">
        <ele>478.20001220703</ele>
        <time>2013-09-21T07:20:15Z</time>
      </trkpt>
      <trkpt lat="45.83474" lon="3.06466">
        <ele>479</ele>
        <time>2013-09-21T07:20:22Z</time>
      </trkpt>
      <trkpt lat="45.83479" lon="3.06459">
        <ele>480.20001220703</ele>
        <time>2013-09-21T07:20:25Z</time>
      </trkpt>
      <trkpt lat="45.83481" lon="3.06456">
        <ele>480.60000610352</ele>
        <time>2013-09-21T07:20:26Z</time>
      </trkpt>
      <trkpt lat="45.83487" lon="3.06449">
        <ele>480.60000610352</ele>
        <time>2013-09-21T07:20:30Z</time>
      </trkpt>
      <trkpt lat="45.83493" lon="3.06443">
        <ele>481.20001220703</ele>
        <time>2013-09-21T07:20:34Z</time>
      </trkpt>
      <trkpt lat="45.83496" lon="3.0644">
        <ele>482</ele>
        <time>2013-09-21T07:20:36Z</time>
      </trkpt>
      <trkpt lat="45.83509" lon="3.06419">
        <ele>482.79998779297</ele>
        <time>2013-09-21T07:20:44Z</time>
      </trkpt>
      <trkpt lat="45.83516" lon="3.0641">
        <ele>483.39999389648</ele>
        <time>2013-09-21T07:20:48Z</time>
      </trkpt>
      <trkpt lat="45.83517" lon="3.06408">
        <ele>483.79998779297</ele>
        <time>2013-09-21T07:20:49Z</time>
      </trkpt>
      <trkpt lat="45.83521" lon="3.06402">
        <ele>484.60000610352</ele>
        <time>2013-09-21T07:20:51Z</time>
      </trkpt>
      <trkpt lat="45.83523" lon="3.06399">
        <ele>485</ele>
        <time>2013-09-21T07:20:52Z</time>
      </trkpt>
      <trkpt lat="45.8353" lon="3.06387">
        <ele>485</ele>
        <time>2013-09-21T07:20:57Z</time>
      </trkpt>
      <trkpt lat="45.8354" lon="3.06368">
        <ele>485</ele>
        <time>2013-09-21T07:21:04Z</time>
      </trkpt>
      <trkpt lat="45.83551" lon="3.06356">
        <ele>485.39999389648</ele>
        <time>2013-09-21T07:21:11Z</time>
      </trkpt>
      <trkpt lat="45.83556" lon="3.06348">
        <ele>486.79998779297</ele>
        <time>2013-09-21T07:21:14Z</time>
      </trkpt>
      <trkpt lat="45.83561" lon="3.06337">
        <ele>487.20001220703</ele>
        <time>2013-09-21T07:21:18Z</time>
      </trkpt>
      <trkpt lat="45.83573" lon="3.0631">
        <ele>487.20001220703</ele>
        <time>2013-09-21T07:21:26Z</time>
      </trkpt>
      <trkpt lat="45.83575" lon="3.06305">
        <ele>487.60000610352</ele>
        <time>2013-09-21T07:21:28Z</time>
      </trkpt>
      <trkpt lat="45.83576" lon="3.06299">
        <ele>488.39999389648</ele>
        <time>2013-09-21T07:21:30Z</time>
      </trkpt>
      <trkpt lat="45.8358" lon="3.0629">
        <ele>489.20001220703</ele>
        <time>2013-09-21T07:21:34Z</time>
      </trkpt>
      <trkpt lat="45.83585" lon="3.06272">
        <ele>489.60000610352</ele>
        <time>2013-09-21T07:21:41Z</time>
      </trkpt>
      <trkpt lat="45.83585" lon="3.06269">
        <ele>490</ele>
        <time>2013-09-21T07:21:42Z</time>
      </trkpt>
      <trkpt lat="45.83585" lon="3.06257">
        <ele>491.39999389648</ele>
        <time>2013-09-21T07:21:45Z</time>
      </trkpt>
      <trkpt lat="45.83584" lon="3.0624">
        <ele>491.39999389648</ele>
        <time>2013-09-21T07:21:49Z</time>
      </trkpt>
      <trkpt lat="45.83585" lon="3.06213">
        <ele>491.39999389648</ele>
        <time>2013-09-21T07:21:55Z</time>
      </trkpt>
      <trkpt lat="45.83586" lon="3.06191">
        <ele>491.39999389648</ele>
        <time>2013-09-21T07:22:00Z</time>
      </trkpt>
      <trkpt lat="45.83588" lon="3.06182">
        <ele>491.79998779297</ele>
        <time>2013-09-21T07:22:04Z</time>
      </trkpt>
      <trkpt lat="45.8359" lon="3.0618">
        <ele>492.20001220703</ele>
        <time>2013-09-21T07:22:05Z</time>
      </trkpt>
      <trkpt lat="45.83591" lon="3.06177">
        <ele>492.60000610352</ele>
        <time>2013-09-21T07:22:06Z</time>
      </trkpt>
      <trkpt lat="45.83601" lon="3.0617">
        <ele>493.79998779297</ele>
        <time>2013-09-21T07:22:10Z</time>
      </trkpt>
      <trkpt lat="45.83612" lon="3.06166">
        <ele>495.60000610352</ele>
        <time>2013-09-21T07:22:14Z</time>
      </trkpt>
      <trkpt lat="45.8363" lon="3.06154">
        <ele>496.20001220703</ele>
        <time>2013-09-21T07:22:20Z</time>
      </trkpt>
      <trkpt lat="45.83633" lon="3.06153">
        <ele>496.60000610352</ele>
        <time>2013-09-21T07:22:21Z</time>
      </trkpt>
      <trkpt lat="45.83641" lon="3.06149">
        <ele>498</ele>
        <time>2013-09-21T07:22:24Z</time>
      </trkpt>
      <trkpt lat="45.83662" lon="3.06141">
        <ele>498.39999389648</ele>
        <time>2013-09-21T07:22:32Z</time>
      </trkpt>
      <trkpt lat="45.83665" lon="3.0614">
        <ele>499</ele>
        <time>2013-09-21T07:22:33Z</time>
      </trkpt>
      <trkpt lat="45.83671" lon="3.06138">
        <ele>499.79998779297</ele>
        <time>2013-09-21T07:22:35Z</time>
      </trkpt>
      <trkpt lat="45.837" lon="3.06123">
        <ele>500.39999389648</ele>
        <time>2013-09-21T07:22:44Z</time>
      </trkpt>
      <trkpt lat="45.83727" lon="3.06096">
        <ele>500.39999389648</ele>
        <time>2013-09-21T07:22:54Z</time>
      </trkpt>
      <trkpt lat="45.8374" lon="3.06079">
        <ele>500.39999389648</ele>
        <time>2013-09-21T07:22:59Z</time>
      </trkpt>
      <trkpt lat="45.83747" lon="3.06069">
        <ele>501.39999389648</ele>
        <time>2013-09-21T07:23:02Z</time>
      </trkpt>
      <trkpt lat="45.83752" lon="3.06063">
        <ele>502.20001220703</ele>
        <time>2013-09-21T07:23:04Z</time>
      </trkpt>
      <trkpt lat="45.83757" lon="3.06059">
        <ele>502.79998779297</ele>
        <time>2013-09-21T07:23:06Z</time>
      </trkpt>
      <trkpt lat="45.83769" lon="3.06047">
        <ele>503.20001220703</ele>
        <time>2013-09-21T07:23:11Z</time>
      </trkpt>
      <trkpt lat="45.83772" lon="3.06045">
        <ele>503.60000610352</ele>
        <time>2013-09-21T07:23:12Z</time>
      </trkpt>
      <trkpt lat="45.83779" lon="3.06038">
        <ele>504.79998779297</ele>
        <time>2013-09-21T07:23:15Z</time>
      </trkpt>
      <trkpt lat="45.83791" lon="3.06017">
        <ele>504.79998779297</ele>
        <time>2013-09-21T07:23:20Z</time>
      </trkpt>
      <trkpt lat="45.83811" lon="3.05987">
        <ele>504.79998779297</ele>
        <time>2013-09-21T07:23:28Z</time>
      </trkpt>
      <trkpt lat="45.83818" lon="3.05968">
        <ele>504.79998779297</ele>
        <time>2013-09-21T07:23:32Z</time>
      </trkpt>
      <trkpt lat="45.83823" lon="3.05952">
        <ele>504.79998779297</ele>
        <time>2013-09-21T07:23:35Z</time>
      </trkpt>
      <trkpt lat="45.83829" lon="3.05935">
        <ele>504.79998779297</ele>
        <time>2013-09-21T07:23:38Z</time>
      </trkpt>
      <trkpt lat="45.83831" lon="3.0593">
        <ele>504.79998779297</ele>
        <time>2013-09-21T07:23:39Z</time>
      </trkpt>
      <trkpt lat="45.83848" lon="3.05917">
        <ele>504.79998779297</ele>
        <time>2013-09-21T07:23:43Z</time>
      </trkpt>
      <trkpt lat="45.83888" lon="3.05899">
        <ele>504.79998779297</ele>
        <time>2013-09-21T07:23:52Z</time>
      </trkpt>
      <trkpt lat="45.83911" lon="3.059">
        <ele>504.79998779297</ele>
        <time>2013-09-21T07:23:58Z</time>
      </trkpt>
      <trkpt lat="45.83919" lon="3.05901">
        <ele>505.79998779297</ele>
        <time>2013-09-21T07:24:00Z</time>
      </trkpt>
      <trkpt lat="45.83923" lon="3.05902">
        <ele>506.20001220703</ele>
        <time>2013-09-21T07:24:01Z</time>
      </trkpt>
      <trkpt lat="45.8393" lon="3.05904">
        <ele>507</ele>
        <time>2013-09-21T07:24:03Z</time>
      </trkpt>
      <trkpt lat="45.83961" lon="3.05908">
        <ele>507</ele>
        <time>2013-09-21T07:24:12Z</time>
      </trkpt>
      <trkpt lat="45.83988" lon="3.05918">
        <ele>507</ele>
        <time>2013-09-21T07:24:20Z</time>
      </trkpt>
      <trkpt lat="45.84007" lon="3.05922">
        <ele>507.39999389648</ele>
        <time>2013-09-21T07:24:25Z</time>
      </trkpt>
      <trkpt lat="45.84013" lon="3.05922">
        <ele>508.20001220703</ele>
        <time>2013-09-21T07:24:27Z</time>
      </trkpt>
      <trkpt lat="45.84021" lon="3.05921">
        <ele>509</ele>
        <time>2013-09-21T07:24:29Z</time>
      </trkpt>
      <trkpt lat="45.8404" lon="3.05917">
        <ele>509</ele>
        <time>2013-09-21T07:24:35Z</time>
      </trkpt>
      <trkpt lat="45.84063" lon="3.05908">
        <ele>509</ele>
        <time>2013-09-21T07:24:43Z</time>
      </trkpt>
      <trkpt lat="45.84071" lon="3.05898">
        <ele>510</ele>
        <time>2013-09-21T07:24:46Z</time>
      </trkpt>
      <trkpt lat="45.84074" lon="3.05889">
        <ele>510.79998779297</ele>
        <time>2013-09-21T07:24:48Z</time>
      </trkpt>
      <trkpt lat="45.84071" lon="3.05877">
        <ele>511.39999389648</ele>
        <time>2013-09-21T07:24:51Z</time>
      </trkpt>
      <trkpt lat="45.84067" lon="3.05842">
        <ele>511.39999389648</ele>
        <time>2013-09-21T07:24:59Z</time>
      </trkpt>
      <trkpt lat="45.84066" lon="3.05838">
        <ele>511.79998779297</ele>
        <time>2013-09-21T07:25:00Z</time>
      </trkpt>
      <trkpt lat="45.84065" lon="3.05826">
        <ele>513</ele>
        <time>2013-09-21T07:25:03Z</time>
      </trkpt>
      <trkpt lat="45.84066" lon="3.05815">
        <ele>513.40002441406</ele>
        <time>2013-09-21T07:25:06Z</time>
      </trkpt>
      <trkpt lat="45.84069" lon="3.058">
        <ele>513.79998779297</ele>
        <time>2013-09-21T07:25:10Z</time>
      </trkpt>
      <trkpt lat="45.8407" lon="3.05789">
        <ele>515</ele>
        <time>2013-09-21T07:25:13Z</time>
      </trkpt>
      <trkpt lat="45.84076" lon="3.05746">
        <ele>516</ele>
        <time>2013-09-21T07:25:23Z</time>
      </trkpt>
      <trkpt lat="45.84077" lon="3.05736">
        <ele>516.79998779297</ele>
        <time>2013-09-21T07:25:25Z</time>
      </trkpt>
      <trkpt lat="45.84079" lon="3.05726">
        <ele>517.59997558594</ele>
        <time>2013-09-21T07:25:27Z</time>
      </trkpt>
      <trkpt lat="45.84081" lon="3.0571">
        <ele>517.59997558594</ele>
        <time>2013-09-21T07:25:30Z</time>
      </trkpt>
      <trkpt lat="45.84082" lon="3.05697">
        <ele>517.59997558594</ele>
        <time>2013-09-21T07:25:32Z</time>
      </trkpt>
      <trkpt lat="45.84083" lon="3.05649">
        <ele>517.59997558594</ele>
        <time>2013-09-21T07:25:39Z</time>
      </trkpt>
      <trkpt lat="45.84085" lon="3.05599">
        <ele>517.59997558594</ele>
        <time>2013-09-21T07:25:46Z</time>
      </trkpt>
      <trkpt lat="45.84086" lon="3.05585">
        <ele>518</ele>
        <time>2013-09-21T07:25:48Z</time>
      </trkpt>
      <trkpt lat="45.84087" lon="3.05579">
        <ele>518.40002441406</ele>
        <time>2013-09-21T07:25:49Z</time>
      </trkpt>
      <trkpt lat="45.84087" lon="3.05566">
        <ele>519.20001220703</ele>
        <time>2013-09-21T07:25:51Z</time>
      </trkpt>
      <trkpt lat="45.84087" lon="3.05559">
        <ele>519.59997558594</ele>
        <time>2013-09-21T07:25:52Z</time>
      </trkpt>
      <trkpt lat="45.84092" lon="3.05487">
        <ele>519.59997558594</ele>
        <time>2013-09-21T07:26:01Z</time>
      </trkpt>
      <trkpt lat="45.8409" lon="3.05427">
        <ele>520.20001220703</ele>
        <time>2013-09-21T07:26:09Z</time>
      </trkpt>
      <trkpt lat="45.8409" lon="3.05413">
        <ele>521</ele>
        <time>2013-09-21T07:26:11Z</time>
      </trkpt>
      <trkpt lat="45.8409" lon="3.05406">
        <ele>521.59997558594</ele>
        <time>2013-09-21T07:26:12Z</time>
      </trkpt>
      <trkpt lat="45.8409" lon="3.05399">
        <ele>522</ele>
        <time>2013-09-21T07:26:13Z</time>
      </trkpt>
      <trkpt lat="45.84094" lon="3.05359">
        <ele>522</ele>
        <time>2013-09-21T07:26:19Z</time>
      </trkpt>
      <trkpt lat="45.84095" lon="3.05313">
        <ele>522</ele>
        <time>2013-09-21T07:26:26Z</time>
      </trkpt>
      <trkpt lat="45.84093" lon="3.05282">
        <ele>522.40002441406</ele>
        <time>2013-09-21T07:26:31Z</time>
      </trkpt>
      <trkpt lat="45.84092" lon="3.05275">
        <ele>522.79998779297</ele>
        <time>2013-09-21T07:26:32Z</time>
      </trkpt>
      <trkpt lat="45.84091" lon="3.05269">
        <ele>523.20001220703</ele>
        <time>2013-09-21T07:26:33Z</time>
      </trkpt>
      <trkpt lat="45.8409" lon="3.05258">
        <ele>524</ele>
        <time>2013-09-21T07:26:35Z</time>
      </trkpt>
      <trkpt lat="45.84087" lon="3.05234">
        <ele>524</ele>
        <time>2013-09-21T07:26:40Z</time>
      </trkpt>
      <trkpt lat="45.84086" lon="3.05208">
        <ele>524</ele>
        <time>2013-09-21T07:26:46Z</time>
      </trkpt>
      <trkpt lat="45.84085" lon="3.05194">
        <ele>524.59997558594</ele>
        <time>2013-09-21T07:26:49Z</time>
      </trkpt>
      <trkpt lat="45.84085" lon="3.0519">
        <ele>525</ele>
        <time>2013-09-21T07:26:50Z</time>
      </trkpt>
      <trkpt lat="45.84084" lon="3.05179">
        <ele>526.40002441406</ele>
        <time>2013-09-21T07:26:53Z</time>
      </trkpt>
      <trkpt lat="45.84085" lon="3.05156">
        <ele>526.40002441406</ele>
        <time>2013-09-21T07:26:59Z</time>
      </trkpt>
      <trkpt lat="45.84089" lon="3.05135">
        <ele>526.40002441406</ele>
        <time>2013-09-21T07:27:04Z</time>
      </trkpt>
      <trkpt lat="45.84091" lon="3.05125">
        <ele>526.40002441406</ele>
        <time>2013-09-21T07:27:06Z</time>
      </trkpt>
      <trkpt lat="45.84093" lon="3.051">
        <ele>526.40002441406</ele>
        <time>2013-09-21T07:27:11Z</time>
      </trkpt>
      <trkpt lat="45.84094" lon="3.05078">
        <ele>526.40002441406</ele>
        <time>2013-09-21T07:27:22Z</time>
      </trkpt>
      <trkpt lat="45.84096" lon="3.05061">
        <ele>526.79998779297</ele>
        <time>2013-09-21T07:27:29Z</time>
      </trkpt>
      <trkpt lat="45.84096" lon="3.05058">
        <ele>527.20001220703</ele>
        <time>2013-09-21T07:27:30Z</time>
      </trkpt>
      <trkpt lat="45.84097" lon="3.05048">
        <ele>528.40002441406</ele>
        <time>2013-09-21T07:27:33Z</time>
      </trkpt>
      <trkpt lat="45.84098" lon="3.05036">
        <ele>528.40002441406</ele>
        <time>2013-09-21T07:27:37Z</time>
      </trkpt>
      <trkpt lat="45.841" lon="3.0501">
        <ele>528.40002441406</ele>
        <time>2013-09-21T07:27:45Z</time>
      </trkpt>
      <trkpt lat="45.84101" lon="3.04984">
        <ele>528.40002441406</ele>
        <time>2013-09-21T07:27:52Z</time>
      </trkpt>
      <trkpt lat="45.84101" lon="3.04974">
        <ele>528.40002441406</ele>
        <time>2013-09-21T07:27:58Z</time>
      </trkpt>
      <trkpt lat="45.84101" lon="3.04965">
        <ele>528.40002441406</ele>
        <time>2013-09-21T07:28:04Z</time>
      </trkpt>
      <trkpt lat="45.841" lon="3.04954">
        <ele>528.79998779297</ele>
        <time>2013-09-21T07:28:10Z</time>
      </trkpt>
      <trkpt lat="45.841" lon="3.04949">
        <ele>529.59997558594</ele>
        <time>2013-09-21T07:28:12Z</time>
      </trkpt>
      <trkpt lat="45.841" lon="3.04938">
        <ele>530.40002441406</ele>
        <time>2013-09-21T07:28:15Z</time>
      </trkpt>
      <trkpt lat="45.841" lon="3.04916">
        <ele>530.40002441406</ele>
        <time>2013-09-21T07:28:23Z</time>
      </trkpt>
      <trkpt lat="45.841" lon="3.04902">
        <ele>530.40002441406</ele>
        <time>2013-09-21T07:28:31Z</time>
      </trkpt>
      <trkpt lat="45.84096" lon="3.04882">
        <ele>530.40002441406</ele>
        <time>2013-09-21T07:28:39Z</time>
      </trkpt>
      <trkpt lat="45.84093" lon="3.04869">
        <ele>530.40002441406</ele>
        <time>2013-09-21T07:28:46Z</time>
      </trkpt>
      <trkpt lat="45.84091" lon="3.04856">
        <ele>531</ele>
        <time>2013-09-21T07:28:54Z</time>
      </trkpt>
      <trkpt lat="45.84091" lon="3.0485">
        <ele>532.20001220703</ele>
        <time>2013-09-21T07:28:57Z</time>
      </trkpt>
      <trkpt lat="45.84089" lon="3.04841">
        <ele>532.59997558594</ele>
        <time>2013-09-21T07:29:01Z</time>
      </trkpt>
      <trkpt lat="45.84088" lon="3.04831">
        <ele>532.59997558594</ele>
        <time>2013-09-21T07:29:07Z</time>
      </trkpt>
      <trkpt lat="45.84085" lon="3.04822">
        <ele>532.59997558594</ele>
        <time>2013-09-21T07:29:13Z</time>
      </trkpt>
      <trkpt lat="45.84083" lon="3.048">
        <ele>532.59997558594</ele>
        <time>2013-09-21T07:29:22Z</time>
      </trkpt>
      <trkpt lat="45.84081" lon="3.04772">
        <ele>532.59997558594</ele>
        <time>2013-09-21T07:29:31Z</time>
      </trkpt>
      <trkpt lat="45.84081" lon="3.04748">
        <ele>533</ele>
        <time>2013-09-21T07:29:39Z</time>
      </trkpt>
      <trkpt lat="45.84081" lon="3.04738">
        <ele>534.40002441406</ele>
        <time>2013-09-21T07:29:42Z</time>
      </trkpt>
      <trkpt lat="45.84079" lon="3.04735">
        <ele>534.79998779297</ele>
        <time>2013-09-21T07:29:43Z</time>
      </trkpt>
      <trkpt lat="45.84067" lon="3.04732">
        <ele>534.79998779297</ele>
        <time>2013-09-21T07:29:47Z</time>
      </trkpt>
      <trkpt lat="45.8406" lon="3.04737">
        <ele>534.79998779297</ele>
        <time>2013-09-21T07:29:49Z</time>
      </trkpt>
      <trkpt lat="45.8404" lon="3.04749">
        <ele>534.79998779297</ele>
        <time>2013-09-21T07:29:54Z</time>
      </trkpt>
      <trkpt lat="45.83994" lon="3.04777">
        <ele>534.79998779297</ele>
        <time>2013-09-21T07:30:05Z</time>
      </trkpt>
      <trkpt lat="45.83969" lon="3.04792">
        <ele>534.40002441406</ele>
        <time>2013-09-21T07:30:12Z</time>
      </trkpt>
      <trkpt lat="45.8396" lon="3.04793">
        <ele>532.79998779297</ele>
        <time>2013-09-21T07:30:16Z</time>
      </trkpt>
      <trkpt lat="45.83958" lon="3.04787">
        <ele>532.79998779297</ele>
        <time>2013-09-21T07:30:18Z</time>
      </trkpt>
      <trkpt lat="45.83955" lon="3.04772">
        <ele>532.79998779297</ele>
        <time>2013-09-21T07:30:23Z</time>
      </trkpt>
      <trkpt lat="45.83955" lon="3.04767">
        <ele>532.79998779297</ele>
        <time>2013-09-21T07:30:24Z</time>
      </trkpt>
      <trkpt lat="45.83953" lon="3.04731">
        <ele>533.59997558594</ele>
        <time>2013-09-21T07:30:32Z</time>
      </trkpt>
      <trkpt lat="45.83952" lon="3.04722">
        <ele>534.59997558594</ele>
        <time>2013-09-21T07:30:34Z</time>
      </trkpt>
      <trkpt lat="45.8395" lon="3.04717">
        <ele>535</ele>
        <time>2013-09-21T07:30:35Z</time>
      </trkpt>
      <trkpt lat="45.83948" lon="3.04699">
        <ele>535</ele>
        <time>2013-09-21T07:30:40Z</time>
      </trkpt>
      <trkpt lat="45.83949" lon="3.04675">
        <ele>535</ele>
        <time>2013-09-21T07:30:46Z</time>
      </trkpt>
      <trkpt lat="45.83954" lon="3.04647">
        <ele>535.40002441406</ele>
        <time>2013-09-21T07:30:53Z</time>
      </trkpt>
      <trkpt lat="45.83956" lon="3.04639">
        <ele>536.20001220703</ele>
        <time>2013-09-21T07:30:55Z</time>
      </trkpt>
      <trkpt lat="45.83961" lon="3.04609">
        <ele>537</ele>
        <time>2013-09-21T07:31:03Z</time>
      </trkpt>
      <trkpt lat="45.83964" lon="3.04597">
        <ele>538</ele>
        <time>2013-09-21T07:31:06Z</time>
      </trkpt>
      <trkpt lat="45.83966" lon="3.04589">
        <ele>538.79998779297</ele>
        <time>2013-09-21T07:31:08Z</time>
      </trkpt>
      <trkpt lat="45.83962" lon="3.04566">
        <ele>539.20001220703</ele>
        <time>2013-09-21T07:31:15Z</time>
      </trkpt>
      <trkpt lat="45.8396" lon="3.0456">
        <ele>539.59997558594</ele>
        <time>2013-09-21T07:31:17Z</time>
      </trkpt>
      <trkpt lat="45.83961" lon="3.0455">
        <ele>540.79998779297</ele>
        <time>2013-09-21T07:31:20Z</time>
      </trkpt>
      <trkpt lat="45.83965" lon="3.04535">
        <ele>541.79998779297</ele>
        <time>2013-09-21T07:31:25Z</time>
      </trkpt>
      <trkpt lat="45.83966" lon="3.04528">
        <ele>542.59997558594</ele>
        <time>2013-09-21T07:31:27Z</time>
      </trkpt>
      <trkpt lat="45.83971" lon="3.04506">
        <ele>543.59997558594</ele>
        <time>2013-09-21T07:31:33Z</time>
      </trkpt>
      <trkpt lat="45.83971" lon="3.04483">
        <ele>544</ele>
        <time>2013-09-21T07:31:38Z</time>
      </trkpt>
      <trkpt lat="45.83971" lon="3.04478">
        <ele>544.40002441406</ele>
        <time>2013-09-21T07:31:39Z</time>
      </trkpt>
      <trkpt lat="45.83971" lon="3.04467">
        <ele>545.40002441406</ele>
        <time>2013-09-21T07:31:41Z</time>
      </trkpt>
      <trkpt lat="45.83964" lon="3.04434">
        <ele>545.79998779297</ele>
        <time>2013-09-21T07:31:48Z</time>
      </trkpt>
      <trkpt lat="45.83963" lon="3.0443">
        <ele>546.20001220703</ele>
        <time>2013-09-21T07:31:49Z</time>
      </trkpt>
      <trkpt lat="45.8396" lon="3.04416">
        <ele>547.40002441406</ele>
        <time>2013-09-21T07:31:52Z</time>
      </trkpt>
      <trkpt lat="45.8396" lon="3.04412">
        <ele>547.79998779297</ele>
        <time>2013-09-21T07:31:53Z</time>
      </trkpt>
      <trkpt lat="45.83952" lon="3.04393">
        <ele>548.20001220703</ele>
        <time>2013-09-21T07:31:58Z</time>
      </trkpt>
      <trkpt lat="45.8395" lon="3.04392">
        <ele>548.59997558594</ele>
        <time>2013-09-21T07:31:59Z</time>
      </trkpt>
      <trkpt lat="45.83945" lon="3.04387">
        <ele>549.59997558594</ele>
        <time>2013-09-21T07:32:01Z</time>
      </trkpt>
      <trkpt lat="45.83945" lon="3.04374">
        <ele>550</ele>
        <time>2013-09-21T07:32:04Z</time>
      </trkpt>
      <trkpt lat="45.83948" lon="3.04355">
        <ele>550.40002441406</ele>
        <time>2013-09-21T07:32:08Z</time>
      </trkpt>
      <trkpt lat="45.8395" lon="3.04346">
        <ele>551.40002441406</ele>
        <time>2013-09-21T07:32:10Z</time>
      </trkpt>
      <trkpt lat="45.83954" lon="3.04338">
        <ele>552.20001220703</ele>
        <time>2013-09-21T07:32:12Z</time>
      </trkpt>
      <trkpt lat="45.83962" lon="3.04323">
        <ele>552.20001220703</ele>
        <time>2013-09-21T07:32:16Z</time>
      </trkpt>
      <trkpt lat="45.83967" lon="3.04318">
        <ele>553.20001220703</ele>
        <time>2013-09-21T07:32:18Z</time>
      </trkpt>
      <trkpt lat="45.83971" lon="3.04313">
        <ele>554</ele>
        <time>2013-09-21T07:32:20Z</time>
      </trkpt>
      <trkpt lat="45.83992" lon="3.04294">
        <ele>554.79998779297</ele>
        <time>2013-09-21T07:32:28Z</time>
      </trkpt>
      <trkpt lat="45.84002" lon="3.04289">
        <ele>556</ele>
        <time>2013-09-21T07:32:31Z</time>
      </trkpt>
      <trkpt lat="45.84014" lon="3.04286">
        <ele>556.59997558594</ele>
        <time>2013-09-21T07:32:35Z</time>
      </trkpt>
      <trkpt lat="45.84026" lon="3.04283">
        <ele>557</ele>
        <time>2013-09-21T07:32:39Z</time>
      </trkpt>
      <trkpt lat="45.84032" lon="3.04281">
        <ele>557.79998779297</ele>
        <time>2013-09-21T07:32:41Z</time>
      </trkpt>
      <trkpt lat="45.84035" lon="3.04279">
        <ele>558.40002441406</ele>
        <time>2013-09-21T07:32:42Z</time>
      </trkpt>
      <trkpt lat="45.8405" lon="3.04266">
        <ele>559.20001220703</ele>
        <time>2013-09-21T07:32:48Z</time>
      </trkpt>
      <trkpt lat="45.84052" lon="3.04263">
        <ele>559.59997558594</ele>
        <time>2013-09-21T07:32:49Z</time>
      </trkpt>
      <trkpt lat="45.84056" lon="3.04258">
        <ele>560.40002441406</ele>
        <time>2013-09-21T07:32:51Z</time>
      </trkpt>
      <trkpt lat="45.84067" lon="3.04239">
        <ele>561.40002441406</ele>
        <time>2013-09-21T07:32:58Z</time>
      </trkpt>
      <trkpt lat="45.84071" lon="3.04232">
        <ele>562.59997558594</ele>
        <time>2013-09-21T07:33:01Z</time>
      </trkpt>
      <trkpt lat="45.84072" lon="3.04229">
        <ele>563</ele>
        <time>2013-09-21T07:33:02Z</time>
      </trkpt>
      <trkpt lat="45.84075" lon="3.04216">
        <ele>563</ele>
        <time>2013-09-21T07:33:06Z</time>
      </trkpt>
      <trkpt lat="45.84076" lon="3.04197">
        <ele>563.40002441406</ele>
        <time>2013-09-21T07:33:11Z</time>
      </trkpt>
      <trkpt lat="45.84076" lon="3.04189">
        <ele>564.20001220703</ele>
        <time>2013-09-21T07:33:13Z</time>
      </trkpt>
      <trkpt lat="45.84071" lon="3.04167">
        <ele>565</ele>
        <time>2013-09-21T07:33:19Z</time>
      </trkpt>
      <trkpt lat="45.84069" lon="3.04164">
        <ele>565.59997558594</ele>
        <time>2013-09-21T07:33:20Z</time>
      </trkpt>
      <trkpt lat="45.84064" lon="3.04158">
        <ele>566.40002441406</ele>
        <time>2013-09-21T07:33:22Z</time>
      </trkpt>
      <trkpt lat="45.84053" lon="3.04144">
        <ele>567.20001220703</ele>
        <time>2013-09-21T07:33:27Z</time>
      </trkpt>
      <trkpt lat="45.84042" lon="3.04123">
        <ele>567.20001220703</ele>
        <time>2013-09-21T07:33:33Z</time>
      </trkpt>
      <trkpt lat="45.84031" lon="3.04094">
        <ele>567.20001220703</ele>
        <time>2013-09-21T07:33:40Z</time>
      </trkpt>
      <trkpt lat="45.84026" lon="3.0407">
        <ele>567.59997558594</ele>
        <time>2013-09-21T07:33:45Z</time>
      </trkpt>
      <trkpt lat="45.84024" lon="3.04065">
        <ele>568</ele>
        <time>2013-09-21T07:33:46Z</time>
      </trkpt>
      <trkpt lat="45.84023" lon="3.04055">
        <ele>569</ele>
        <time>2013-09-21T07:33:48Z</time>
      </trkpt>
      <trkpt lat="45.84016" lon="3.04011">
        <ele>569.40002441406</ele>
        <time>2013-09-21T07:33:57Z</time>
      </trkpt>
      <trkpt lat="45.84012" lon="3.03985">
        <ele>569.79998779297</ele>
        <time>2013-09-21T07:34:02Z</time>
      </trkpt>
      <trkpt lat="45.84011" lon="3.0398">
        <ele>570.20001220703</ele>
        <time>2013-09-21T07:34:03Z</time>
      </trkpt>
      <trkpt lat="45.8401" lon="3.03975">
        <ele>570.59997558594</ele>
        <time>2013-09-21T07:34:04Z</time>
      </trkpt>
      <trkpt lat="45.84009" lon="3.03965">
        <ele>571.40002441406</ele>
        <time>2013-09-21T07:34:06Z</time>
      </trkpt>
      <trkpt lat="45.84007" lon="3.03934">
        <ele>571.40002441406</ele>
        <time>2013-09-21T07:34:14Z</time>
      </trkpt>
      <trkpt lat="45.84005" lon="3.03928">
        <ele>572</ele>
        <time>2013-09-21T07:34:17Z</time>
      </trkpt>
      <trkpt lat="45.83998" lon="3.03921">
        <ele>573.59997558594</ele>
        <time>2013-09-21T07:34:21Z</time>
      </trkpt>
      <trkpt lat="45.83992" lon="3.03918">
        <ele>574</ele>
        <time>2013-09-21T07:34:24Z</time>
      </trkpt>
      <trkpt lat="45.83989" lon="3.03916">
        <ele>575</ele>
        <time>2013-09-21T07:34:26Z</time>
      </trkpt>
      <trkpt lat="45.83981" lon="3.03904">
        <ele>575.79998779297</ele>
        <time>2013-09-21T07:34:32Z</time>
      </trkpt>
      <trkpt lat="45.83979" lon="3.03901">
        <ele>576.20001220703</ele>
        <time>2013-09-21T07:34:33Z</time>
      </trkpt>
      <trkpt lat="45.83978" lon="3.03898">
        <ele>576.79998779297</ele>
        <time>2013-09-21T07:34:34Z</time>
      </trkpt>
      <trkpt lat="45.83976" lon="3.0389">
        <ele>578</ele>
        <time>2013-09-21T07:34:37Z</time>
      </trkpt>
      <trkpt lat="45.83975" lon="3.03866">
        <ele>578.40002441406</ele>
        <time>2013-09-21T07:34:44Z</time>
      </trkpt>
      <trkpt lat="45.83976" lon="3.03859">
        <ele>579.40002441406</ele>
        <time>2013-09-21T07:34:46Z</time>
      </trkpt>
      <trkpt lat="45.83978" lon="3.03823">
        <ele>580.20001220703</ele>
        <time>2013-09-21T07:34:56Z</time>
      </trkpt>
      <trkpt lat="45.83978" lon="3.03812">
        <ele>580.59997558594</ele>
        <time>2013-09-21T07:34:59Z</time>
      </trkpt>
      <trkpt lat="45.83978" lon="3.03809">
        <ele>581</ele>
        <time>2013-09-21T07:35:00Z</time>
      </trkpt>
      <trkpt lat="45.83981" lon="3.03798">
        <ele>582.20001220703</ele>
        <time>2013-09-21T07:35:03Z</time>
      </trkpt>
      <trkpt lat="45.83985" lon="3.0378">
        <ele>582.20001220703</ele>
        <time>2013-09-21T07:35:10Z</time>
      </trkpt>
      <trkpt lat="45.83986" lon="3.03769">
        <ele>583.40002441406</ele>
        <time>2013-09-21T07:35:13Z</time>
      </trkpt>
      <trkpt lat="45.83987" lon="3.0376">
        <ele>584.20001220703</ele>
        <time>2013-09-21T07:35:17Z</time>
      </trkpt>
      <trkpt lat="45.83994" lon="3.03742">
        <ele>584.20001220703</ele>
        <time>2013-09-21T07:35:24Z</time>
      </trkpt>
      <trkpt lat="45.83995" lon="3.0374">
        <ele>584.20001220703</ele>
        <time>2013-09-21T07:35:25Z</time>
      </trkpt>
      <trkpt lat="45.84001" lon="3.03732">
        <ele>585.59997558594</ele>
        <time>2013-09-21T07:35:28Z</time>
      </trkpt>
      <trkpt lat="45.84002" lon="3.03729">
        <ele>586</ele>
        <time>2013-09-21T07:35:29Z</time>
      </trkpt>
      <trkpt lat="45.84017" lon="3.03698">
        <ele>586.40002441406</ele>
        <time>2013-09-21T07:35:42Z</time>
      </trkpt>
      <trkpt lat="45.8402" lon="3.03693">
        <ele>587.40002441406</ele>
        <time>2013-09-21T07:35:44Z</time>
      </trkpt>
      <trkpt lat="45.84022" lon="3.03689">
        <ele>587.79998779297</ele>
        <time>2013-09-21T07:35:45Z</time>
      </trkpt>
      <trkpt lat="45.84032" lon="3.03665">
        <ele>588.59997558594</ele>
        <time>2013-09-21T07:35:56Z</time>
      </trkpt>
      <trkpt lat="45.84037" lon="3.03653">
        <ele>589.20001220703</ele>
        <time>2013-09-21T07:36:00Z</time>
      </trkpt>
      <trkpt lat="45.84038" lon="3.0365">
        <ele>589.59997558594</ele>
        <time>2013-09-21T07:36:01Z</time>
      </trkpt>
      <trkpt lat="45.84041" lon="3.03644">
        <ele>590.40002441406</ele>
        <time>2013-09-21T07:36:03Z</time>
      </trkpt>
      <trkpt lat="45.84043" lon="3.03637">
        <ele>590.79998779297</ele>
        <time>2013-09-21T07:36:05Z</time>
      </trkpt>
      <trkpt lat="45.84047" lon="3.03625">
        <ele>591.20001220703</ele>
        <time>2013-09-21T07:36:08Z</time>
      </trkpt>
      <trkpt lat="45.84049" lon="3.03618">
        <ele>592</ele>
        <time>2013-09-21T07:36:10Z</time>
      </trkpt>
      <trkpt lat="45.84051" lon="3.03612">
        <ele>593</ele>
        <time>2013-09-21T07:36:12Z</time>
      </trkpt>
      <trkpt lat="45.84062" lon="3.03593">
        <ele>593</ele>
        <time>2013-09-21T07:36:18Z</time>
      </trkpt>
      <trkpt lat="45.84064" lon="3.03586">
        <ele>593.40002441406</ele>
        <time>2013-09-21T07:36:20Z</time>
      </trkpt>
      <trkpt lat="45.84066" lon="3.03579">
        <ele>594.20001220703</ele>
        <time>2013-09-21T07:36:22Z</time>
      </trkpt>
      <trkpt lat="45.84068" lon="3.0357">
        <ele>595</ele>
        <time>2013-09-21T07:36:25Z</time>
      </trkpt>
      <trkpt lat="45.8407" lon="3.03559">
        <ele>596.59997558594</ele>
        <time>2013-09-21T07:36:29Z</time>
      </trkpt>
      <trkpt lat="45.84081" lon="3.03537">
        <ele>597.59997558594</ele>
        <time>2013-09-21T07:36:38Z</time>
      </trkpt>
      <trkpt lat="45.84084" lon="3.03528">
        <ele>599.20001220703</ele>
        <time>2013-09-21T07:36:42Z</time>
      </trkpt>
      <trkpt lat="45.8409" lon="3.03519">
        <ele>599.59997558594</ele>
        <time>2013-09-21T07:36:45Z</time>
      </trkpt>
      <trkpt lat="45.84098" lon="3.03502">
        <ele>600</ele>
        <time>2013-09-21T07:36:51Z</time>
      </trkpt>
      <trkpt lat="45.84099" lon="3.03498">
        <ele>600.40002441406</ele>
        <time>2013-09-21T07:36:52Z</time>
      </trkpt>
      <trkpt lat="45.84101" lon="3.03491">
        <ele>601.40002441406</ele>
        <time>2013-09-21T07:36:54Z</time>
      </trkpt>
      <trkpt lat="45.84102" lon="3.03487">
        <ele>601.79998779297</ele>
        <time>2013-09-21T07:36:55Z</time>
      </trkpt>
      <trkpt lat="45.84105" lon="3.03477">
        <ele>601.79998779297</ele>
        <time>2013-09-21T07:36:58Z</time>
      </trkpt>
      <trkpt lat="45.84105" lon="3.03445">
        <ele>601.79998779297</ele>
        <time>2013-09-21T07:37:07Z</time>
      </trkpt>
      <trkpt lat="45.84105" lon="3.03435">
        <ele>602.20001220703</ele>
        <time>2013-09-21T07:37:10Z</time>
      </trkpt>
      <trkpt lat="45.84105" lon="3.03429">
        <ele>603</ele>
        <time>2013-09-21T07:37:12Z</time>
      </trkpt>
      <trkpt lat="45.84107" lon="3.03406">
        <ele>604.20001220703</ele>
        <time>2013-09-21T07:37:18Z</time>
      </trkpt>
      <trkpt lat="45.84107" lon="3.03398">
        <ele>605</ele>
        <time>2013-09-21T07:37:20Z</time>
      </trkpt>
      <trkpt lat="45.8411" lon="3.03365">
        <ele>605.79998779297</ele>
        <time>2013-09-21T07:37:29Z</time>
      </trkpt>
      <trkpt lat="45.84114" lon="3.03349">
        <ele>606.20001220703</ele>
        <time>2013-09-21T07:37:33Z</time>
      </trkpt>
      <trkpt lat="45.84117" lon="3.03338">
        <ele>607.40002441406</ele>
        <time>2013-09-21T07:37:36Z</time>
      </trkpt>
      <trkpt lat="45.84125" lon="3.03319">
        <ele>608.20001220703</ele>
        <time>2013-09-21T07:37:42Z</time>
      </trkpt>
      <trkpt lat="45.8413" lon="3.03308">
        <ele>609.79998779297</ele>
        <time>2013-09-21T07:37:46Z</time>
      </trkpt>
      <trkpt lat="45.84137" lon="3.03284">
        <ele>609.79998779297</ele>
        <time>2013-09-21T07:37:54Z</time>
      </trkpt>
      <trkpt lat="45.8414" lon="3.03278">
        <ele>610.40002441406</ele>
        <time>2013-09-21T07:37:56Z</time>
      </trkpt>
      <trkpt lat="45.8414" lon="3.03276">
        <ele>610.79998779297</ele>
        <time>2013-09-21T07:37:57Z</time>
      </trkpt>
      <trkpt lat="45.84143" lon="3.03267">
        <ele>612</ele>
        <time>2013-09-21T07:38:00Z</time>
      </trkpt>
      <trkpt lat="45.84151" lon="3.03251">
        <ele>612.59997558594</ele>
        <time>2013-09-21T07:38:07Z</time>
      </trkpt>
      <trkpt lat="45.84152" lon="3.03249">
        <ele>613</ele>
        <time>2013-09-21T07:38:08Z</time>
      </trkpt>
      <trkpt lat="45.84158" lon="3.03227">
        <ele>614.79998779297</ele>
        <time>2013-09-21T07:38:17Z</time>
      </trkpt>
      <trkpt lat="45.84161" lon="3.03218">
        <ele>616.20001220703</ele>
        <time>2013-09-21T07:38:20Z</time>
      </trkpt>
      <trkpt lat="45.84162" lon="3.03202">
        <ele>617</ele>
        <time>2013-09-21T07:38:25Z</time>
      </trkpt>
      <trkpt lat="45.84162" lon="3.032">
        <ele>617.59997558594</ele>
        <time>2013-09-21T07:38:26Z</time>
      </trkpt>
      <trkpt lat="45.84161" lon="3.03188">
        <ele>618.79998779297</ele>
        <time>2013-09-21T07:38:29Z</time>
      </trkpt>
      <trkpt lat="45.84158" lon="3.03171">
        <ele>618.79998779297</ele>
        <time>2013-09-21T07:38:34Z</time>
      </trkpt>
      <trkpt lat="45.84158" lon="3.03138">
        <ele>618.79998779297</ele>
        <time>2013-09-21T07:38:40Z</time>
      </trkpt>
      <trkpt lat="45.84161" lon="3.03099">
        <ele>618.79998779297</ele>
        <time>2013-09-21T07:38:47Z</time>
      </trkpt>
      <trkpt lat="45.84164" lon="3.03062">
        <ele>618.79998779297</ele>
        <time>2013-09-21T07:38:53Z</time>
      </trkpt>
      <trkpt lat="45.8417" lon="3.03021">
        <ele>618.79998779297</ele>
        <time>2013-09-21T07:39:00Z</time>
      </trkpt>
      <trkpt lat="45.84171" lon="3.03002">
        <ele>618.79998779297</ele>
        <time>2013-09-21T07:39:03Z</time>
      </trkpt>
      <trkpt lat="45.84174" lon="3.02974">
        <ele>618.79998779297</ele>
        <time>2013-09-21T07:39:07Z</time>
      </trkpt>
      <trkpt lat="45.84174" lon="3.02961">
        <ele>619.20001220703</ele>
        <time>2013-09-21T07:39:09Z</time>
      </trkpt>
      <trkpt lat="45.84175" lon="3.02954">
        <ele>619.79998779297</ele>
        <time>2013-09-21T07:39:10Z</time>
      </trkpt>
      <trkpt lat="45.84175" lon="3.02948">
        <ele>620.20001220703</ele>
        <time>2013-09-21T07:39:11Z</time>
      </trkpt>
      <trkpt lat="45.84176" lon="3.02936">
        <ele>621</ele>
        <time>2013-09-21T07:39:13Z</time>
      </trkpt>
      <trkpt lat="45.84176" lon="3.0293">
        <ele>621</ele>
        <time>2013-09-21T07:39:14Z</time>
      </trkpt>
      <trkpt lat="45.84179" lon="3.02892">
        <ele>621</ele>
        <time>2013-09-21T07:39:21Z</time>
      </trkpt>
      <trkpt lat="45.8418" lon="3.02874">
        <ele>621.40002441406</ele>
        <time>2013-09-21T07:39:24Z</time>
      </trkpt>
      <trkpt lat="45.84181" lon="3.02868">
        <ele>621.79998779297</ele>
        <time>2013-09-21T07:39:25Z</time>
      </trkpt>
      <trkpt lat="45.84184" lon="3.02856">
        <ele>622.59997558594</ele>
        <time>2013-09-21T07:39:27Z</time>
      </trkpt>
      <trkpt lat="45.84188" lon="3.02847">
        <ele>623</ele>
        <time>2013-09-21T07:39:29Z</time>
      </trkpt>
      <trkpt lat="45.84192" lon="3.02838">
        <ele>623</ele>
        <time>2013-09-21T07:39:31Z</time>
      </trkpt>
      <trkpt lat="45.842" lon="3.02803">
        <ele>623</ele>
        <time>2013-09-21T07:39:38Z</time>
      </trkpt>
      <trkpt lat="45.84203" lon="3.02783">
        <ele>623</ele>
        <time>2013-09-21T07:39:43Z</time>
      </trkpt>
      <trkpt lat="45.84204" lon="3.02779">
        <ele>623.40002441406</ele>
        <time>2013-09-21T07:39:44Z</time>
      </trkpt>
      <trkpt lat="45.84205" lon="3.02766">
        <ele>624.59997558594</ele>
        <time>2013-09-21T07:39:47Z</time>
      </trkpt>
      <trkpt lat="45.84207" lon="3.0275">
        <ele>625</ele>
        <time>2013-09-21T07:39:51Z</time>
      </trkpt>
      <trkpt lat="45.84212" lon="3.02718">
        <ele>625</ele>
        <time>2013-09-21T07:39:59Z</time>
      </trkpt>
      <trkpt lat="45.84216" lon="3.02697">
        <ele>625.40002441406</ele>
        <time>2013-09-21T07:40:04Z</time>
      </trkpt>
      <trkpt lat="45.84217" lon="3.02689">
        <ele>626.20001220703</ele>
        <time>2013-09-21T07:40:06Z</time>
      </trkpt>
      <trkpt lat="45.8422" lon="3.02676">
        <ele>627.20001220703</ele>
        <time>2013-09-21T07:40:10Z</time>
      </trkpt>
      <trkpt lat="45.84226" lon="3.02653">
        <ele>627.20001220703</ele>
        <time>2013-09-21T07:40:17Z</time>
      </trkpt>
      <trkpt lat="45.84234" lon="3.02636">
        <ele>627.20001220703</ele>
        <time>2013-09-21T07:40:22Z</time>
      </trkpt>
      <trkpt lat="45.84236" lon="3.02626">
        <ele>628</ele>
        <time>2013-09-21T07:40:24Z</time>
      </trkpt>
      <trkpt lat="45.84238" lon="3.02618">
        <ele>628.79998779297</ele>
        <time>2013-09-21T07:40:26Z</time>
      </trkpt>
      <trkpt lat="45.8425" lon="3.02582">
        <ele>629.20001220703</ele>
        <time>2013-09-21T07:40:35Z</time>
      </trkpt>
      <trkpt lat="45.8426" lon="3.02547">
        <ele>629.59997558594</ele>
        <time>2013-09-21T07:40:42Z</time>
      </trkpt>
      <trkpt lat="45.84261" lon="3.02543">
        <ele>630</ele>
        <time>2013-09-21T07:40:43Z</time>
      </trkpt>
      <trkpt lat="45.84263" lon="3.02538">
        <ele>630.40002441406</ele>
        <time>2013-09-21T07:40:44Z</time>
      </trkpt>
      <trkpt lat="45.84267" lon="3.02529">
        <ele>631.20001220703</ele>
        <time>2013-09-21T07:40:46Z</time>
      </trkpt>
      <trkpt lat="45.84278" lon="3.0252">
        <ele>631.20001220703</ele>
        <time>2013-09-21T07:40:50Z</time>
      </trkpt>
      <trkpt lat="45.8429" lon="3.02531">
        <ele>631.20001220703</ele>
        <time>2013-09-21T07:40:53Z</time>
      </trkpt>
      <trkpt lat="45.84303" lon="3.02545">
        <ele>631.79998779297</ele>
        <time>2013-09-21T07:40:57Z</time>
      </trkpt>
      <trkpt lat="45.84308" lon="3.02551">
        <ele>632.59997558594</ele>
        <time>2013-09-21T07:40:59Z</time>
      </trkpt>
      <trkpt lat="45.84312" lon="3.02553">
        <ele>633</ele>
        <time>2013-09-21T07:41:00Z</time>
      </trkpt>
      <trkpt lat="45.8433" lon="3.02564">
        <ele>633.40002441406</ele>
        <time>2013-09-21T07:41:06Z</time>
      </trkpt>
      <trkpt lat="45.84344" lon="3.02564">
        <ele>633.79998779297</ele>
        <time>2013-09-21T07:41:10Z</time>
      </trkpt>
      <trkpt lat="45.84351" lon="3.0256">
        <ele>635</ele>
        <time>2013-09-21T07:41:13Z</time>
      </trkpt>
      <trkpt lat="45.84361" lon="3.02553">
        <ele>635.79998779297</ele>
        <time>2013-09-21T07:41:17Z</time>
      </trkpt>
      <trkpt lat="45.84362" lon="3.02549">
        <ele>636.40002441406</ele>
        <time>2013-09-21T07:41:18Z</time>
      </trkpt>
      <trkpt lat="45.84368" lon="3.0254">
        <ele>637.79998779297</ele>
        <time>2013-09-21T07:41:21Z</time>
      </trkpt>
      <trkpt lat="45.84373" lon="3.02529">
        <ele>638.20001220703</ele>
        <time>2013-09-21T07:41:24Z</time>
      </trkpt>
      <trkpt lat="45.84382" lon="3.02518">
        <ele>640</ele>
        <time>2013-09-21T07:41:28Z</time>
      </trkpt>
      <trkpt lat="45.84392" lon="3.02517">
        <ele>641.79998779297</ele>
        <time>2013-09-21T07:41:32Z</time>
      </trkpt>
      <trkpt lat="45.84409" lon="3.0251">
        <ele>642.20001220703</ele>
        <time>2013-09-21T07:41:39Z</time>
      </trkpt>
      <trkpt lat="45.84413" lon="3.02507">
        <ele>642.59997558594</ele>
        <time>2013-09-21T07:41:41Z</time>
      </trkpt>
      <trkpt lat="45.84419" lon="3.025">
        <ele>644</ele>
        <time>2013-09-21T07:41:44Z</time>
      </trkpt>
      <trkpt lat="45.84421" lon="3.02497">
        <ele>644.59997558594</ele>
        <time>2013-09-21T07:41:45Z</time>
      </trkpt>
      <trkpt lat="45.84427" lon="3.0247">
        <ele>645</ele>
        <time>2013-09-21T07:41:52Z</time>
      </trkpt>
      <trkpt lat="45.8443" lon="3.02457">
        <ele>646.20001220703</ele>
        <time>2013-09-21T07:41:55Z</time>
      </trkpt>
      <trkpt lat="45.8443" lon="3.02453">
        <ele>646.59997558594</ele>
        <time>2013-09-21T07:41:56Z</time>
      </trkpt>
      <trkpt lat="45.84432" lon="3.02432">
        <ele>646.59997558594</ele>
        <time>2013-09-21T07:42:01Z</time>
      </trkpt>
      <trkpt lat="45.84431" lon="3.02409">
        <ele>647.20001220703</ele>
        <time>2013-09-21T07:42:07Z</time>
      </trkpt>
      <trkpt lat="45.84431" lon="3.02396">
        <ele>648.59997558594</ele>
        <time>2013-09-21T07:42:10Z</time>
      </trkpt>
      <trkpt lat="45.8443" lon="3.02392">
        <ele>649</ele>
        <time>2013-09-21T07:42:11Z</time>
      </trkpt>
      <trkpt lat="45.84427" lon="3.02373">
        <ele>649</ele>
        <time>2013-09-21T07:42:16Z</time>
      </trkpt>
      <trkpt lat="45.84426" lon="3.02364">
        <ele>649.59997558594</ele>
        <time>2013-09-21T07:42:18Z</time>
      </trkpt>
      <trkpt lat="45.84426" lon="3.02357">
        <ele>650.40002441406</ele>
        <time>2013-09-21T07:42:20Z</time>
      </trkpt>
      <trkpt lat="45.84425" lon="3.02349">
        <ele>651.20001220703</ele>
        <time>2013-09-21T07:42:22Z</time>
      </trkpt>
      <trkpt lat="45.84423" lon="3.0233">
        <ele>651.20001220703</ele>
        <time>2013-09-21T07:42:27Z</time>
      </trkpt>
      <trkpt lat="45.84421" lon="3.02318">
        <ele>651.59997558594</ele>
        <time>2013-09-21T07:42:30Z</time>
      </trkpt>
      <trkpt lat="45.8442" lon="3.0231">
        <ele>652.40002441406</ele>
        <time>2013-09-21T07:42:32Z</time>
      </trkpt>
      <trkpt lat="45.84417" lon="3.02298">
        <ele>653.40002441406</ele>
        <time>2013-09-21T07:42:35Z</time>
      </trkpt>
      <trkpt lat="45.84417" lon="3.0226">
        <ele>653.79998779297</ele>
        <time>2013-09-21T07:42:43Z</time>
      </trkpt>
      <trkpt lat="45.84417" lon="3.02256">
        <ele>654.20001220703</ele>
        <time>2013-09-21T07:42:44Z</time>
      </trkpt>
      <trkpt lat="45.84417" lon="3.02247">
        <ele>655</ele>
        <time>2013-09-21T07:42:46Z</time>
      </trkpt>
      <trkpt lat="45.84417" lon="3.02226">
        <ele>655.40002441406</ele>
        <time>2013-09-21T07:42:51Z</time>
      </trkpt>
      <trkpt lat="45.84424" lon="3.02208">
        <ele>655.40002441406</ele>
        <time>2013-09-21T07:42:56Z</time>
      </trkpt>
      <trkpt lat="45.84431" lon="3.02204">
        <ele>656.40002441406</ele>
        <time>2013-09-21T07:42:59Z</time>
      </trkpt>
      <trkpt lat="45.84443" lon="3.022">
        <ele>658.20001220703</ele>
        <time>2013-09-21T07:43:05Z</time>
      </trkpt>
      <trkpt lat="45.8445" lon="3.02198">
        <ele>660</ele>
        <time>2013-09-21T07:43:09Z</time>
      </trkpt>
      <trkpt lat="45.84464" lon="3.02193">
        <ele>660.40002441406</ele>
        <time>2013-09-21T07:43:16Z</time>
      </trkpt>
      <trkpt lat="45.84472" lon="3.02189">
        <ele>661.79998779297</ele>
        <time>2013-09-21T07:43:19Z</time>
      </trkpt>
      <trkpt lat="45.84492" lon="3.0217">
        <ele>662.20001220703</ele>
        <time>2013-09-21T07:43:28Z</time>
      </trkpt>
      <trkpt lat="45.84501" lon="3.02159">
        <ele>663.40002441406</ele>
        <time>2013-09-21T07:43:33Z</time>
      </trkpt>
      <trkpt lat="45.84507" lon="3.02148">
        <ele>665</ele>
        <time>2013-09-21T07:43:39Z</time>
      </trkpt>
      <trkpt lat="45.8451" lon="3.02143">
        <ele>665.79998779297</ele>
        <time>2013-09-21T07:43:42Z</time>
      </trkpt>
      <trkpt lat="45.84519" lon="3.02128">
        <ele>666.79998779297</ele>
        <time>2013-09-21T07:43:50Z</time>
      </trkpt>
      <trkpt lat="45.8452" lon="3.02126">
        <ele>667.20001220703</ele>
        <time>2013-09-21T07:43:51Z</time>
      </trkpt>
      <trkpt lat="45.8453" lon="3.0211">
        <ele>669.20001220703</ele>
        <time>2013-09-21T07:43:59Z</time>
      </trkpt>
      <trkpt lat="45.84531" lon="3.02107">
        <ele>669.59997558594</ele>
        <time>2013-09-21T07:44:00Z</time>
      </trkpt>
      <trkpt lat="45.84537" lon="3.02093">
        <ele>671.20001220703</ele>
        <time>2013-09-21T07:44:07Z</time>
      </trkpt>
      <trkpt lat="45.84538" lon="3.02087">
        <ele>672</ele>
        <time>2013-09-21T07:44:09Z</time>
      </trkpt>
      <trkpt lat="45.84539" lon="3.02079">
        <ele>673.20001220703</ele>
        <time>2013-09-21T07:44:12Z</time>
      </trkpt>
      <trkpt lat="45.84539" lon="3.0207">
        <ele>673.20001220703</ele>
        <time>2013-09-21T07:44:16Z</time>
      </trkpt>
      <trkpt lat="45.8454" lon="3.02059">
        <ele>675.40002441406</ele>
        <time>2013-09-21T07:44:21Z</time>
      </trkpt>
      <trkpt lat="45.84541" lon="3.02048">
        <ele>675.40002441406</ele>
        <time>2013-09-21T07:44:26Z</time>
      </trkpt>
      <trkpt lat="45.84544" lon="3.02038">
        <ele>676.40002441406</ele>
        <time>2013-09-21T07:44:30Z</time>
      </trkpt>
      <trkpt lat="45.84546" lon="3.02029">
        <ele>677.59997558594</ele>
        <time>2013-09-21T07:44:34Z</time>
      </trkpt>
      <trkpt lat="45.84552" lon="3.02014">
        <ele>678.20001220703</ele>
        <time>2013-09-21T07:44:41Z</time>
      </trkpt>
      <trkpt lat="45.84554" lon="3.0201">
        <ele>679</ele>
        <time>2013-09-21T07:44:43Z</time>
      </trkpt>
      <trkpt lat="45.84561" lon="3.01992">
        <ele>679.79998779297</ele>
        <time>2013-09-21T07:44:52Z</time>
      </trkpt>
      <trkpt lat="45.84563" lon="3.0199">
        <ele>680.40002441406</ele>
        <time>2013-09-21T07:44:53Z</time>
      </trkpt>
      <trkpt lat="45.8457" lon="3.01979">
        <ele>682.20001220703</ele>
        <time>2013-09-21T07:44:58Z</time>
      </trkpt>
      <trkpt lat="45.8457" lon="3.01977">
        <ele>682.59997558594</ele>
        <time>2013-09-21T07:44:59Z</time>
      </trkpt>
      <trkpt lat="45.84573" lon="3.01966">
        <ele>683.79998779297</ele>
        <time>2013-09-21T07:45:02Z</time>
      </trkpt>
      <trkpt lat="45.84574" lon="3.01954">
        <ele>684.20001220703</ele>
        <time>2013-09-21T07:45:06Z</time>
      </trkpt>
      <trkpt lat="45.84575" lon="3.01941">
        <ele>685</ele>
        <time>2013-09-21T07:45:12Z</time>
      </trkpt>
      <trkpt lat="45.84575" lon="3.01938">
        <ele>685.59997558594</ele>
        <time>2013-09-21T07:45:13Z</time>
      </trkpt>
      <trkpt lat="45.84575" lon="3.01925">
        <ele>686.40002441406</ele>
        <time>2013-09-21T07:45:20Z</time>
      </trkpt>
      <trkpt lat="45.84575" lon="3.01919">
        <ele>687.20001220703</ele>
        <time>2013-09-21T07:45:23Z</time>
      </trkpt>
      <trkpt lat="45.84576" lon="3.0191">
        <ele>688.40002441406</ele>
        <time>2013-09-21T07:45:27Z</time>
      </trkpt>
      <trkpt lat="45.84577" lon="3.01894">
        <ele>689</ele>
        <time>2013-09-21T07:45:32Z</time>
      </trkpt>
      <trkpt lat="45.84578" lon="3.01889">
        <ele>689.79998779297</ele>
        <time>2013-09-21T07:45:34Z</time>
      </trkpt>
      <trkpt lat="45.84576" lon="3.01867">
        <ele>691</ele>
        <time>2013-09-21T07:45:43Z</time>
      </trkpt>
      <trkpt lat="45.84576" lon="3.01859">
        <ele>692.79998779297</ele>
        <time>2013-09-21T07:45:47Z</time>
      </trkpt>
      <trkpt lat="45.84576" lon="3.01845">
        <ele>693.20001220703</ele>
        <time>2013-09-21T07:45:53Z</time>
      </trkpt>
      <trkpt lat="45.84576" lon="3.01836">
        <ele>694.40002441406</ele>
        <time>2013-09-21T07:45:57Z</time>
      </trkpt>
      <trkpt lat="45.84575" lon="3.01827">
        <ele>694.79998779297</ele>
        <time>2013-09-21T07:46:01Z</time>
      </trkpt>
      <trkpt lat="45.84573" lon="3.01818">
        <ele>695.59997558594</ele>
        <time>2013-09-21T07:46:04Z</time>
      </trkpt>
      <trkpt lat="45.84572" lon="3.01809">
        <ele>696.79998779297</ele>
        <time>2013-09-21T07:46:08Z</time>
      </trkpt>
      <trkpt lat="45.84571" lon="3.01789">
        <ele>697.20001220703</ele>
        <time>2013-09-21T07:46:15Z</time>
      </trkpt>
      <trkpt lat="45.8457" lon="3.01784">
        <ele>697.59997558594</ele>
        <time>2013-09-21T07:46:17Z</time>
      </trkpt>
      <trkpt lat="45.84569" lon="3.01778">
        <ele>698.79998779297</ele>
        <time>2013-09-21T07:46:19Z</time>
      </trkpt>
      <trkpt lat="45.84565" lon="3.01763">
        <ele>698.79998779297</ele>
        <time>2013-09-21T07:46:25Z</time>
      </trkpt>
      <trkpt lat="45.84566" lon="3.01755">
        <ele>698.79998779297</ele>
        <time>2013-09-21T07:46:28Z</time>
      </trkpt>
      <trkpt lat="45.84566" lon="3.0175">
        <ele>699.79998779297</ele>
        <time>2013-09-21T07:46:30Z</time>
      </trkpt>
      <trkpt lat="45.84568" lon="3.01734">
        <ele>701.40002441406</ele>
        <time>2013-09-21T07:46:36Z</time>
      </trkpt>
      <trkpt lat="45.84568" lon="3.01728">
        <ele>702.20001220703</ele>
        <time>2013-09-21T07:46:38Z</time>
      </trkpt>
      <trkpt lat="45.84563" lon="3.01702">
        <ele>703</ele>
        <time>2013-09-21T07:46:47Z</time>
      </trkpt>
      <trkpt lat="45.84557" lon="3.0168">
        <ele>703</ele>
        <time>2013-09-21T07:46:55Z</time>
      </trkpt>
      <trkpt lat="45.84556" lon="3.01672">
        <ele>703</ele>
        <time>2013-09-21T07:46:58Z</time>
      </trkpt>
      <trkpt lat="45.84556" lon="3.01668">
        <ele>703.40002441406</ele>
        <time>2013-09-21T07:46:59Z</time>
      </trkpt>
      <trkpt lat="45.84553" lon="3.01658">
        <ele>704.59997558594</ele>
        <time>2013-09-21T07:47:02Z</time>
      </trkpt>
      <trkpt lat="45.84547" lon="3.01633">
        <ele>705</ele>
        <time>2013-09-21T07:47:09Z</time>
      </trkpt>
      <trkpt lat="45.84544" lon="3.01619">
        <ele>705.40002441406</ele>
        <time>2013-09-21T07:47:13Z</time>
      </trkpt>
      <trkpt lat="45.84541" lon="3.01609">
        <ele>706.59997558594</ele>
        <time>2013-09-21T07:47:16Z</time>
      </trkpt>
      <trkpt lat="45.84532" lon="3.01587">
        <ele>707.20001220703</ele>
        <time>2013-09-21T07:47:23Z</time>
      </trkpt>
      <trkpt lat="45.84522" lon="3.01577">
        <ele>707.20001220703</ele>
        <time>2013-09-21T07:47:28Z</time>
      </trkpt>
      <trkpt lat="45.84518" lon="3.01573">
        <ele>707.59997558594</ele>
        <time>2013-09-21T07:47:30Z</time>
      </trkpt>
      <trkpt lat="45.8451" lon="3.0157">
        <ele>708.79998779297</ele>
        <time>2013-09-21T07:47:33Z</time>
      </trkpt>
      <trkpt lat="45.84507" lon="3.01568">
        <ele>709.20001220703</ele>
        <time>2013-09-21T07:47:34Z</time>
      </trkpt>
      <trkpt lat="45.84485" lon="3.01551">
        <ele>709.20001220703</ele>
        <time>2013-09-21T07:47:43Z</time>
      </trkpt>
      <trkpt lat="45.84484" lon="3.01528">
        <ele>709.20001220703</ele>
        <time>2013-09-21T07:47:50Z</time>
      </trkpt>
      <trkpt lat="45.84491" lon="3.01524">
        <ele>709.20001220703</ele>
        <time>2013-09-21T07:47:53Z</time>
      </trkpt>
      <trkpt lat="45.84502" lon="3.01519">
        <ele>710.20001220703</ele>
        <time>2013-09-21T07:47:59Z</time>
      </trkpt>
      <trkpt lat="45.84519" lon="3.01511">
        <ele>711.59997558594</ele>
        <time>2013-09-21T07:48:09Z</time>
      </trkpt>
      <trkpt lat="45.84531" lon="3.01508">
        <ele>712</ele>
        <time>2013-09-21T07:48:15Z</time>
      </trkpt>
      <trkpt lat="45.84544" lon="3.01503">
        <ele>714.20001220703</ele>
        <time>2013-09-21T07:48:24Z</time>
      </trkpt>
      <trkpt lat="45.84551" lon="3.01502">
        <ele>715.59997558594</ele>
        <time>2013-09-21T07:48:27Z</time>
      </trkpt>
      <trkpt lat="45.84555" lon="3.01499">
        <ele>716</ele>
        <time>2013-09-21T07:48:29Z</time>
      </trkpt>
      <trkpt lat="45.8456" lon="3.0149">
        <ele>717</ele>
        <time>2013-09-21T07:48:34Z</time>
      </trkpt>
      <trkpt lat="45.84563" lon="3.01467">
        <ele>718.40002441406</ele>
        <time>2013-09-21T07:48:44Z</time>
      </trkpt>
      <trkpt lat="45.84564" lon="3.01456">
        <ele>718.79998779297</ele>
        <time>2013-09-21T07:48:50Z</time>
      </trkpt>
      <trkpt lat="45.84566" lon="3.01449">
        <ele>720.59997558594</ele>
        <time>2013-09-21T07:48:54Z</time>
      </trkpt>
      <trkpt lat="45.84569" lon="3.01437">
        <ele>721</ele>
        <time>2013-09-21T07:49:00Z</time>
      </trkpt>
      <trkpt lat="45.8457" lon="3.01431">
        <ele>722.20001220703</ele>
        <time>2013-09-21T07:49:03Z</time>
      </trkpt>
      <trkpt lat="45.84571" lon="3.01429">
        <ele>722.59997558594</ele>
        <time>2013-09-21T07:49:04Z</time>
      </trkpt>
      <trkpt lat="45.84571" lon="3.01409">
        <ele>722.59997558594</ele>
        <time>2013-09-21T07:49:13Z</time>
      </trkpt>
      <trkpt lat="45.84571" lon="3.01399">
        <ele>725</ele>
        <time>2013-09-21T07:49:19Z</time>
      </trkpt>
      <trkpt lat="45.84566" lon="3.01382">
        <ele>725</ele>
        <time>2013-09-21T07:49:28Z</time>
      </trkpt>
      <trkpt lat="45.84565" lon="3.0138">
        <ele>725.79998779297</ele>
        <time>2013-09-21T07:49:29Z</time>
      </trkpt>
      <trkpt lat="45.84565" lon="3.01366">
        <ele>727</ele>
        <time>2013-09-21T07:49:37Z</time>
      </trkpt>
      <trkpt lat="45.84566" lon="3.01358">
        <ele>727.40002441406</ele>
        <time>2013-09-21T07:49:41Z</time>
      </trkpt>
      <trkpt lat="45.8457" lon="3.01349">
        <ele>729</ele>
        <time>2013-09-21T07:49:45Z</time>
      </trkpt>
      <trkpt lat="45.84571" lon="3.0134">
        <ele>729.59997558594</ele>
        <time>2013-09-21T07:49:51Z</time>
      </trkpt>
      <trkpt lat="45.84572" lon="3.01339">
        <ele>730</ele>
        <time>2013-09-21T07:49:52Z</time>
      </trkpt>
      <trkpt lat="45.8457" lon="3.01312">
        <ele>733.59997558594</ele>
        <time>2013-09-21T07:50:29Z</time>
      </trkpt>
      <trkpt lat="45.84569" lon="3.01309">
        <ele>734</ele>
        <time>2013-09-21T07:50:30Z</time>
      </trkpt>
      <trkpt lat="45.84567" lon="3.01297">
        <ele>734.79998779297</ele>
        <time>2013-09-21T07:50:33Z</time>
      </trkpt>
      <trkpt lat="45.84562" lon="3.0128">
        <ele>735.20001220703</ele>
        <time>2013-09-21T07:50:37Z</time>
      </trkpt>
      <trkpt lat="45.84563" lon="3.01272">
        <ele>735.20001220703</ele>
        <time>2013-09-21T07:50:39Z</time>
      </trkpt>
      <trkpt lat="45.84565" lon="3.01258">
        <ele>735.20001220703</ele>
        <time>2013-09-21T07:50:42Z</time>
      </trkpt>
      <trkpt lat="45.84565" lon="3.0125">
        <ele>735.20001220703</ele>
        <time>2013-09-21T07:50:44Z</time>
      </trkpt>
      <trkpt lat="45.84565" lon="3.01237">
        <ele>735.20001220703</ele>
        <time>2013-09-21T07:50:46Z</time>
      </trkpt>
      <trkpt lat="45.84565" lon="3.01228">
        <ele>735.59997558594</ele>
        <time>2013-09-21T07:50:48Z</time>
      </trkpt>
      <trkpt lat="45.84565" lon="3.01219">
        <ele>736.40002441406</ele>
        <time>2013-09-21T07:50:50Z</time>
      </trkpt>
      <trkpt lat="45.84565" lon="3.01208">
        <ele>737.40002441406</ele>
        <time>2013-09-21T07:50:53Z</time>
      </trkpt>
      <trkpt lat="45.84568" lon="3.0119">
        <ele>737.40002441406</ele>
        <time>2013-09-21T07:50:59Z</time>
      </trkpt>
      <trkpt lat="45.8457" lon="3.01171">
        <ele>737.40002441406</ele>
        <time>2013-09-21T07:51:06Z</time>
      </trkpt>
      <trkpt lat="45.84571" lon="3.01164">
        <ele>737.79998779297</ele>
        <time>2013-09-21T07:51:08Z</time>
      </trkpt>
      <trkpt lat="45.84571" lon="3.0116">
        <ele>738.79998779297</ele>
        <time>2013-09-21T07:51:10Z</time>
      </trkpt>
      <trkpt lat="45.84573" lon="3.01133">
        <ele>739.79998779297</ele>
        <time>2013-09-21T07:51:18Z</time>
      </trkpt>
      <trkpt lat="45.84573" lon="3.01115">
        <ele>739.79998779297</ele>
        <time>2013-09-21T07:51:25Z</time>
      </trkpt>
      <trkpt lat="45.84575" lon="3.01104">
        <ele>740.20001220703</ele>
        <time>2013-09-21T07:51:29Z</time>
      </trkpt>
      <trkpt lat="45.84576" lon="3.01095">
        <ele>741</ele>
        <time>2013-09-21T07:51:32Z</time>
      </trkpt>
      <trkpt lat="45.8458" lon="3.01077">
        <ele>742</ele>
        <time>2013-09-21T07:51:38Z</time>
      </trkpt>
      <trkpt lat="45.84581" lon="3.01064">
        <ele>742</ele>
        <time>2013-09-21T07:51:43Z</time>
      </trkpt>
      <trkpt lat="45.84586" lon="3.01046">
        <ele>742</ele>
        <time>2013-09-21T07:51:48Z</time>
      </trkpt>
      <trkpt lat="45.84588" lon="3.01036">
        <ele>742.79998779297</ele>
        <time>2013-09-21T07:51:51Z</time>
      </trkpt>
      <trkpt lat="45.8459" lon="3.0103">
        <ele>744</ele>
        <time>2013-09-21T07:51:53Z</time>
      </trkpt>
      <trkpt lat="45.84594" lon="3.01012">
        <ele>744</ele>
        <time>2013-09-21T07:52:00Z</time>
      </trkpt>
      <trkpt lat="45.84599" lon="3.00987">
        <ele>744</ele>
        <time>2013-09-21T07:52:08Z</time>
      </trkpt>
      <trkpt lat="45.846" lon="3.00971">
        <ele>744.59997558594</ele>
        <time>2013-09-21T07:52:13Z</time>
      </trkpt>
      <trkpt lat="45.846" lon="3.00969">
        <ele>744.59997558594</ele>
        <time>2013-09-21T07:52:14Z</time>
      </trkpt>
      <trkpt lat="45.846" lon="3.00964">
        <ele>745.79998779297</ele>
        <time>2013-09-21T07:52:16Z</time>
      </trkpt>
      <trkpt lat="45.846" lon="3.00962">
        <ele>746.40002441406</ele>
        <time>2013-09-21T07:52:17Z</time>
      </trkpt>
      <trkpt lat="45.84596" lon="3.00947">
        <ele>746.40002441406</ele>
        <time>2013-09-21T07:52:22Z</time>
      </trkpt>
      <trkpt lat="45.84595" lon="3.00928">
        <ele>746.40002441406</ele>
        <time>2013-09-21T07:52:28Z</time>
      </trkpt>
      <trkpt lat="45.84595" lon="3.00919">
        <ele>748</ele>
        <time>2013-09-21T07:52:31Z</time>
      </trkpt>
      <trkpt lat="45.84593" lon="3.00906">
        <ele>748.40002441406</ele>
        <time>2013-09-21T07:52:36Z</time>
      </trkpt>
      <trkpt lat="45.84595" lon="3.00882">
        <ele>748.40002441406</ele>
        <time>2013-09-21T07:52:44Z</time>
      </trkpt>
      <trkpt lat="45.84597" lon="3.00864">
        <ele>748.40002441406</ele>
        <time>2013-09-21T07:52:51Z</time>
      </trkpt>
      <trkpt lat="45.84598" lon="3.00855">
        <ele>749.20001220703</ele>
        <time>2013-09-21T07:52:53Z</time>
      </trkpt>
      <trkpt lat="45.846" lon="3.00849">
        <ele>749.59997558594</ele>
        <time>2013-09-21T07:52:55Z</time>
      </trkpt>
      <trkpt lat="45.84602" lon="3.00836">
        <ele>750.40002441406</ele>
        <time>2013-09-21T07:52:59Z</time>
      </trkpt>
      <trkpt lat="45.84603" lon="3.00814">
        <ele>750.40002441406</ele>
        <time>2013-09-21T07:53:06Z</time>
      </trkpt>
      <trkpt lat="45.84605" lon="3.00796">
        <ele>750.40002441406</ele>
        <time>2013-09-21T07:53:12Z</time>
      </trkpt>
      <trkpt lat="45.84606" lon="3.00786">
        <ele>750.79998779297</ele>
        <time>2013-09-21T07:53:15Z</time>
      </trkpt>
      <trkpt lat="45.84607" lon="3.00779">
        <ele>751.79998779297</ele>
        <time>2013-09-21T07:53:17Z</time>
      </trkpt>
      <trkpt lat="45.8461" lon="3.00767">
        <ele>752.59997558594</ele>
        <time>2013-09-21T07:53:20Z</time>
      </trkpt>
      <trkpt lat="45.84612" lon="3.00751">
        <ele>752.59997558594</ele>
        <time>2013-09-21T07:53:25Z</time>
      </trkpt>
      <trkpt lat="45.84615" lon="3.00732">
        <ele>753</ele>
        <time>2013-09-21T07:53:31Z</time>
      </trkpt>
      <trkpt lat="45.84615" lon="3.00729">
        <ele>753.40002441406</ele>
        <time>2013-09-21T07:53:32Z</time>
      </trkpt>
      <trkpt lat="45.84617" lon="3.00719">
        <ele>754.40002441406</ele>
        <time>2013-09-21T07:53:35Z</time>
      </trkpt>
      <trkpt lat="45.8462" lon="3.00709">
        <ele>754.79998779297</ele>
        <time>2013-09-21T07:53:38Z</time>
      </trkpt>
      <trkpt lat="45.84624" lon="3.00694">
        <ele>754.79998779297</ele>
        <time>2013-09-21T07:53:43Z</time>
      </trkpt>
      <trkpt lat="45.84625" lon="3.00689">
        <ele>755.40002441406</ele>
        <time>2013-09-21T07:53:45Z</time>
      </trkpt>
      <trkpt lat="45.84627" lon="3.00678">
        <ele>756.59997558594</ele>
        <time>2013-09-21T07:53:49Z</time>
      </trkpt>
      <trkpt lat="45.84631" lon="3.00649">
        <ele>757.20001220703</ele>
        <time>2013-09-21T07:53:57Z</time>
      </trkpt>
      <trkpt lat="45.84633" lon="3.00625">
        <ele>758</ele>
        <time>2013-09-21T07:54:05Z</time>
      </trkpt>
      <trkpt lat="45.84634" lon="3.00619">
        <ele>758.79998779297</ele>
        <time>2013-09-21T07:54:07Z</time>
      </trkpt>
      <trkpt lat="45.84635" lon="3.00606">
        <ele>759.20001220703</ele>
        <time>2013-09-21T07:54:12Z</time>
      </trkpt>
      <trkpt lat="45.84638" lon="3.00598">
        <ele>759.79998779297</ele>
        <time>2013-09-21T07:54:16Z</time>
      </trkpt>
      <trkpt lat="45.84638" lon="3.00588">
        <ele>761.40002441406</ele>
        <time>2013-09-21T07:54:20Z</time>
      </trkpt>
      <trkpt lat="45.84637" lon="3.00562">
        <ele>761.40002441406</ele>
        <time>2013-09-21T07:54:28Z</time>
      </trkpt>
      <trkpt lat="45.84637" lon="3.00545">
        <ele>761.40002441406</ele>
        <time>2013-09-21T07:54:34Z</time>
      </trkpt>
      <trkpt lat="45.84638" lon="3.0053">
        <ele>761.79998779297</ele>
        <time>2013-09-21T07:54:39Z</time>
      </trkpt>
      <trkpt lat="45.84639" lon="3.00528">
        <ele>762.20001220703</ele>
        <time>2013-09-21T07:54:40Z</time>
      </trkpt>
      <trkpt lat="45.84639" lon="3.0052">
        <ele>763.59997558594</ele>
        <time>2013-09-21T07:54:43Z</time>
      </trkpt>
      <trkpt lat="45.84639" lon="3.00502">
        <ele>763.59997558594</ele>
        <time>2013-09-21T07:54:50Z</time>
      </trkpt>
      <trkpt lat="45.84639" lon="3.00493">
        <ele>764</ele>
        <time>2013-09-21T07:54:53Z</time>
      </trkpt>
      <trkpt lat="45.84639" lon="3.0049">
        <ele>764.40002441406</ele>
        <time>2013-09-21T07:54:54Z</time>
      </trkpt>
      <trkpt lat="45.84639" lon="3.0046">
        <ele>765.79998779297</ele>
        <time>2013-09-21T07:55:05Z</time>
      </trkpt>
      <trkpt lat="45.84642" lon="3.00443">
        <ele>766.20001220703</ele>
        <time>2013-09-21T07:55:11Z</time>
      </trkpt>
      <trkpt lat="45.84642" lon="3.00439">
        <ele>766.59997558594</ele>
        <time>2013-09-21T07:55:12Z</time>
      </trkpt>
      <trkpt lat="45.84643" lon="3.00429">
        <ele>767.79998779297</ele>
        <time>2013-09-21T07:55:15Z</time>
      </trkpt>
      <trkpt lat="45.84647" lon="3.00398">
        <ele>767.79998779297</ele>
        <time>2013-09-21T07:55:24Z</time>
      </trkpt>
      <trkpt lat="45.84647" lon="3.00381">
        <ele>768.40002441406</ele>
        <time>2013-09-21T07:55:29Z</time>
      </trkpt>
      <trkpt lat="45.84647" lon="3.00377">
        <ele>768.79998779297</ele>
        <time>2013-09-21T07:55:30Z</time>
      </trkpt>
      <trkpt lat="45.84648" lon="3.00367">
        <ele>770</ele>
        <time>2013-09-21T07:55:33Z</time>
      </trkpt>
      <trkpt lat="45.84653" lon="3.00354">
        <ele>770</ele>
        <time>2013-09-21T07:55:38Z</time>
      </trkpt>
      <trkpt lat="45.84657" lon="3.00339">
        <ele>770</ele>
        <time>2013-09-21T07:55:44Z</time>
      </trkpt>
      <trkpt lat="45.84662" lon="3.00325">
        <ele>770.40002441406</ele>
        <time>2013-09-21T07:55:50Z</time>
      </trkpt>
      <trkpt lat="45.84664" lon="3.00319">
        <ele>771.79998779297</ele>
        <time>2013-09-21T07:55:53Z</time>
      </trkpt>
      <trkpt lat="45.84667" lon="3.00303">
        <ele>772.40002441406</ele>
        <time>2013-09-21T07:55:58Z</time>
      </trkpt>
      <trkpt lat="45.8467" lon="3.00287">
        <ele>772.79998779297</ele>
        <time>2013-09-21T07:56:04Z</time>
      </trkpt>
      <trkpt lat="45.8467" lon="3.00285">
        <ele>772.79998779297</ele>
        <time>2013-09-21T07:56:05Z</time>
      </trkpt>
      <trkpt lat="45.84671" lon="3.00279">
        <ele>774.40002441406</ele>
        <time>2013-09-21T07:56:08Z</time>
      </trkpt>
      <trkpt lat="45.84676" lon="3.00263">
        <ele>774.40002441406</ele>
        <time>2013-09-21T07:56:16Z</time>
      </trkpt>
      <trkpt lat="45.84679" lon="3.00258">
        <ele>775.20001220703</ele>
        <time>2013-09-21T07:56:18Z</time>
      </trkpt>
      <trkpt lat="45.8468" lon="3.00254">
        <ele>775.59997558594</ele>
        <time>2013-09-21T07:56:19Z</time>
      </trkpt>
      <trkpt lat="45.84683" lon="3.00249">
        <ele>776</ele>
        <time>2013-09-21T07:56:21Z</time>
      </trkpt>
      <trkpt lat="45.84694" lon="3.0022">
        <ele>777</ele>
        <time>2013-09-21T07:56:31Z</time>
      </trkpt>
      <trkpt lat="45.84695" lon="3.00218">
        <ele>777.40002441406</ele>
        <time>2013-09-21T07:56:32Z</time>
      </trkpt>
      <trkpt lat="45.84698" lon="3.00208">
        <ele>778.40002441406</ele>
        <time>2013-09-21T07:56:35Z</time>
      </trkpt>
      <trkpt lat="45.84701" lon="3.00195">
        <ele>778.79998779297</ele>
        <time>2013-09-21T07:56:39Z</time>
      </trkpt>
      <trkpt lat="45.84705" lon="3.00177">
        <ele>778.79998779297</ele>
        <time>2013-09-21T07:56:46Z</time>
      </trkpt>
      <trkpt lat="45.8471" lon="3.00167">
        <ele>779.20001220703</ele>
        <time>2013-09-21T07:56:50Z</time>
      </trkpt>
      <trkpt lat="45.84712" lon="3.00159">
        <ele>780.79998779297</ele>
        <time>2013-09-21T07:56:53Z</time>
      </trkpt>
      <trkpt lat="45.84723" lon="3.0013">
        <ele>780.79998779297</ele>
        <time>2013-09-21T07:57:01Z</time>
      </trkpt>
      <trkpt lat="45.84728" lon="3.00115">
        <ele>781.20001220703</ele>
        <time>2013-09-21T07:57:05Z</time>
      </trkpt>
      <trkpt lat="45.8473" lon="3.0011">
        <ele>782</ele>
        <time>2013-09-21T07:57:06Z</time>
      </trkpt>
      <trkpt lat="45.8473" lon="3.00106">
        <ele>782.40002441406</ele>
        <time>2013-09-21T07:57:07Z</time>
      </trkpt>
      <trkpt lat="45.84731" lon="3.00098">
        <ele>782.79998779297</ele>
        <time>2013-09-21T07:57:10Z</time>
      </trkpt>
      <trkpt lat="45.84732" lon="3.00082">
        <ele>782.79998779297</ele>
        <time>2013-09-21T07:57:17Z</time>
      </trkpt>
      <trkpt lat="45.84734" lon="3.00074">
        <ele>783.40002441406</ele>
        <time>2013-09-21T07:57:22Z</time>
      </trkpt>
      <trkpt lat="45.84734" lon="3.0007">
        <ele>783.79998779297</ele>
        <time>2013-09-21T07:57:24Z</time>
      </trkpt>
      <trkpt lat="45.84735" lon="3.00053">
        <ele>785.40002441406</ele>
        <time>2013-09-21T07:57:30Z</time>
      </trkpt>
      <trkpt lat="45.84731" lon="3.00039">
        <ele>785.40002441406</ele>
        <time>2013-09-21T07:57:36Z</time>
      </trkpt>
      <trkpt lat="45.84732" lon="3.0003">
        <ele>787</ele>
        <time>2013-09-21T07:57:42Z</time>
      </trkpt>
      <trkpt lat="45.84737" lon="3.00012">
        <ele>787.40002441406</ele>
        <time>2013-09-21T07:57:49Z</time>
      </trkpt>
      <trkpt lat="45.84743" lon="2.99997">
        <ele>787.79998779297</ele>
        <time>2013-09-21T07:57:53Z</time>
      </trkpt>
      <trkpt lat="45.84744" lon="2.99989">
        <ele>788.59997558594</ele>
        <time>2013-09-21T07:57:56Z</time>
      </trkpt>
      <trkpt lat="45.84746" lon="2.99974">
        <ele>789.40002441406</ele>
        <time>2013-09-21T07:57:59Z</time>
      </trkpt>
      <trkpt lat="45.84746" lon="2.9996">
        <ele>789.40002441406</ele>
        <time>2013-09-21T07:58:02Z</time>
      </trkpt>
      <trkpt lat="45.84745" lon="2.99938">
        <ele>789.40002441406</ele>
        <time>2013-09-21T07:58:08Z</time>
      </trkpt>
      <trkpt lat="45.84744" lon="2.99924">
        <ele>789.79998779297</ele>
        <time>2013-09-21T07:58:12Z</time>
      </trkpt>
      <trkpt lat="45.84744" lon="2.99917">
        <ele>790.79998779297</ele>
        <time>2013-09-21T07:58:14Z</time>
      </trkpt>
      <trkpt lat="45.84742" lon="2.99909">
        <ele>791.59997558594</ele>
        <time>2013-09-21T07:58:17Z</time>
      </trkpt>
      <trkpt lat="45.84736" lon="2.99891">
        <ele>791.59997558594</ele>
        <time>2013-09-21T07:58:23Z</time>
      </trkpt>
      <trkpt lat="45.84734" lon="2.99881">
        <ele>792</ele>
        <time>2013-09-21T07:58:27Z</time>
      </trkpt>
      <trkpt lat="45.84733" lon="2.99879">
        <ele>792.40002441406</ele>
        <time>2013-09-21T07:58:28Z</time>
      </trkpt>
      <trkpt lat="45.84732" lon="2.99869">
        <ele>793.40002441406</ele>
        <time>2013-09-21T07:58:31Z</time>
      </trkpt>
      <trkpt lat="45.84735" lon="2.99845">
        <ele>793.79998779297</ele>
        <time>2013-09-21T07:58:40Z</time>
      </trkpt>
      <trkpt lat="45.84734" lon="2.99836">
        <ele>794.79998779297</ele>
        <time>2013-09-21T07:58:45Z</time>
      </trkpt>
      <trkpt lat="45.84735" lon="2.99828">
        <ele>796.20001220703</ele>
        <time>2013-09-21T07:58:47Z</time>
      </trkpt>
      <trkpt lat="45.84739" lon="2.99806">
        <ele>796.20001220703</ele>
        <time>2013-09-21T07:58:54Z</time>
      </trkpt>
      <trkpt lat="45.84743" lon="2.99786">
        <ele>796.20001220703</ele>
        <time>2013-09-21T07:59:00Z</time>
      </trkpt>
      <trkpt lat="45.84752" lon="2.99758">
        <ele>796.20001220703</ele>
        <time>2013-09-21T07:59:05Z</time>
      </trkpt>
      <trkpt lat="45.84753" lon="2.99749">
        <ele>797</ele>
        <time>2013-09-21T07:59:08Z</time>
      </trkpt>
      <trkpt lat="45.84753" lon="2.9974">
        <ele>797.79998779297</ele>
        <time>2013-09-21T07:59:11Z</time>
      </trkpt>
      <trkpt lat="45.84755" lon="2.99725">
        <ele>798.20001220703</ele>
        <time>2013-09-21T07:59:17Z</time>
      </trkpt>
      <trkpt lat="45.84757" lon="2.99705">
        <ele>798.20001220703</ele>
        <time>2013-09-21T07:59:23Z</time>
      </trkpt>
      <trkpt lat="45.84757" lon="2.99687">
        <ele>798.20001220703</ele>
        <time>2013-09-21T07:59:29Z</time>
      </trkpt>
      <trkpt lat="45.84756" lon="2.9966">
        <ele>798.20001220703</ele>
        <time>2013-09-21T07:59:35Z</time>
      </trkpt>
      <trkpt lat="45.84763" lon="2.9964">
        <ele>799</ele>
        <time>2013-09-21T07:59:39Z</time>
      </trkpt>
      <trkpt lat="45.84767" lon="2.99627">
        <ele>799.79998779297</ele>
        <time>2013-09-21T07:59:42Z</time>
      </trkpt>
      <trkpt lat="45.84775" lon="2.996">
        <ele>800.20001220703</ele>
        <time>2013-09-21T07:59:51Z</time>
      </trkpt>
      <trkpt lat="45.84794" lon="2.99574">
        <ele>800.20001220703</ele>
        <time>2013-09-21T07:59:56Z</time>
      </trkpt>
      <trkpt lat="45.84799" lon="2.99552">
        <ele>800.59997558594</ele>
        <time>2013-09-21T08:00:01Z</time>
      </trkpt>
      <trkpt lat="45.84799" lon="2.99547">
        <ele>801</ele>
        <time>2013-09-21T08:00:02Z</time>
      </trkpt>
      <trkpt lat="45.84798" lon="2.99539">
        <ele>801.79998779297</ele>
        <time>2013-09-21T08:00:04Z</time>
      </trkpt>
      <trkpt lat="45.84796" lon="2.99526">
        <ele>802.20001220703</ele>
        <time>2013-09-21T08:00:07Z</time>
      </trkpt>
      <trkpt lat="45.84788" lon="2.99506">
        <ele>802.20001220703</ele>
        <time>2013-09-21T08:00:14Z</time>
      </trkpt>
      <trkpt lat="45.84782" lon="2.99499">
        <ele>803.20001220703</ele>
        <time>2013-09-21T08:00:18Z</time>
      </trkpt>
      <trkpt lat="45.84779" lon="2.99495">
        <ele>803.59997558594</ele>
        <time>2013-09-21T08:00:19Z</time>
      </trkpt>
      <trkpt lat="45.84775" lon="2.99488">
        <ele>804.40002441406</ele>
        <time>2013-09-21T08:00:21Z</time>
      </trkpt>
      <trkpt lat="45.84769" lon="2.99483">
        <ele>804.40002441406</ele>
        <time>2013-09-21T08:00:24Z</time>
      </trkpt>
      <trkpt lat="45.84765" lon="2.99478">
        <ele>805.40002441406</ele>
        <time>2013-09-21T08:00:26Z</time>
      </trkpt>
      <trkpt lat="45.84758" lon="2.99473">
        <ele>806.59997558594</ele>
        <time>2013-09-21T08:00:29Z</time>
      </trkpt>
      <trkpt lat="45.84747" lon="2.99461">
        <ele>806.59997558594</ele>
        <time>2013-09-21T08:00:34Z</time>
      </trkpt>
      <trkpt lat="45.84731" lon="2.9944">
        <ele>806.59997558594</ele>
        <time>2013-09-21T08:00:39Z</time>
      </trkpt>
      <trkpt lat="45.84727" lon="2.99436">
        <ele>807</ele>
        <time>2013-09-21T08:00:41Z</time>
      </trkpt>
      <trkpt lat="45.8472" lon="2.99427">
        <ele>808.59997558594</ele>
        <time>2013-09-21T08:00:45Z</time>
      </trkpt>
      <trkpt lat="45.84717" lon="2.99425">
        <ele>808.59997558594</ele>
        <time>2013-09-21T08:00:47Z</time>
      </trkpt>
      <trkpt lat="45.84705" lon="2.99411">
        <ele>808.59997558594</ele>
        <time>2013-09-21T08:00:54Z</time>
      </trkpt>
      <trkpt lat="45.84702" lon="2.99406">
        <ele>809</ele>
        <time>2013-09-21T08:00:56Z</time>
      </trkpt>
      <trkpt lat="45.84698" lon="2.99402">
        <ele>809.79998779297</ele>
        <time>2013-09-21T08:00:58Z</time>
      </trkpt>
      <trkpt lat="45.84696" lon="2.99399">
        <ele>810.40002441406</ele>
        <time>2013-09-21T08:00:59Z</time>
      </trkpt>
      <trkpt lat="45.84681" lon="2.99385">
        <ele>810.79998779297</ele>
        <time>2013-09-21T08:01:06Z</time>
      </trkpt>
      <trkpt lat="45.8467" lon="2.99373">
        <ele>811.20001220703</ele>
        <time>2013-09-21T08:01:09Z</time>
      </trkpt>
      <trkpt lat="45.84665" lon="2.99369">
        <ele>812</ele>
        <time>2013-09-21T08:01:11Z</time>
      </trkpt>
      <trkpt lat="45.84656" lon="2.99353">
        <ele>813</ele>
        <time>2013-09-21T08:01:18Z</time>
      </trkpt>
      <trkpt lat="45.84647" lon="2.99339">
        <ele>813</ele>
        <time>2013-09-21T08:01:25Z</time>
      </trkpt>
      <trkpt lat="45.84633" lon="2.99327">
        <ele>813</ele>
        <time>2013-09-21T08:01:31Z</time>
      </trkpt>
      <trkpt lat="45.84617" lon="2.99314">
        <ele>813</ele>
        <time>2013-09-21T08:01:39Z</time>
      </trkpt>
      <trkpt lat="45.84615" lon="2.993">
        <ele>813</ele>
        <time>2013-09-21T08:01:45Z</time>
      </trkpt>
      <trkpt lat="45.84616" lon="2.99292">
        <ele>813.40002441406</ele>
        <time>2013-09-21T08:01:48Z</time>
      </trkpt>
      <trkpt lat="45.84616" lon="2.99288">
        <ele>814</ele>
        <time>2013-09-21T08:01:50Z</time>
      </trkpt>
      <trkpt lat="45.8462" lon="2.99267">
        <ele>815.40002441406</ele>
        <time>2013-09-21T08:01:58Z</time>
      </trkpt>
      <trkpt lat="45.8462" lon="2.99249">
        <ele>815.40002441406</ele>
        <time>2013-09-21T08:02:05Z</time>
      </trkpt>
      <trkpt lat="45.84617" lon="2.99237">
        <ele>817</ele>
        <time>2013-09-21T08:02:09Z</time>
      </trkpt>
      <trkpt lat="45.84616" lon="2.99222">
        <ele>817.59997558594</ele>
        <time>2013-09-21T08:02:14Z</time>
      </trkpt>
      <trkpt lat="45.84615" lon="2.99201">
        <ele>817.59997558594</ele>
        <time>2013-09-21T08:02:21Z</time>
      </trkpt>
      <trkpt lat="45.84616" lon="2.99198">
        <ele>818</ele>
        <time>2013-09-21T08:02:22Z</time>
      </trkpt>
      <trkpt lat="45.84616" lon="2.99178">
        <ele>819.59997558594</ele>
        <time>2013-09-21T08:02:30Z</time>
      </trkpt>
      <trkpt lat="45.84619" lon="2.99169">
        <ele>820.20001220703</ele>
        <time>2013-09-21T08:02:33Z</time>
      </trkpt>
      <trkpt lat="45.8462" lon="2.99163">
        <ele>821</ele>
        <time>2013-09-21T08:02:35Z</time>
      </trkpt>
      <trkpt lat="45.84621" lon="2.99156">
        <ele>821.79998779297</ele>
        <time>2013-09-21T08:02:37Z</time>
      </trkpt>
      <trkpt lat="45.84625" lon="2.99135">
        <ele>821.79998779297</ele>
        <time>2013-09-21T08:02:43Z</time>
      </trkpt>
      <trkpt lat="45.84629" lon="2.99101">
        <ele>822.59997558594</ele>
        <time>2013-09-21T08:02:53Z</time>
      </trkpt>
      <trkpt lat="45.84628" lon="2.99098">
        <ele>823</ele>
        <time>2013-09-21T08:02:54Z</time>
      </trkpt>
      <trkpt lat="45.84629" lon="2.99075">
        <ele>823.79998779297</ele>
        <time>2013-09-21T08:03:02Z</time>
      </trkpt>
      <trkpt lat="45.84629" lon="2.9907">
        <ele>824.40002441406</ele>
        <time>2013-09-21T08:03:04Z</time>
      </trkpt>
      <trkpt lat="45.84628" lon="2.99059">
        <ele>826</ele>
        <time>2013-09-21T08:03:08Z</time>
      </trkpt>
      <trkpt lat="45.84629" lon="2.99036">
        <ele>826</ele>
        <time>2013-09-21T08:03:16Z</time>
      </trkpt>
      <trkpt lat="45.84631" lon="2.99013">
        <ele>826</ele>
        <time>2013-09-21T08:03:26Z</time>
      </trkpt>
      <trkpt lat="45.84632" lon="2.99009">
        <ele>826.79998779297</ele>
        <time>2013-09-21T08:03:28Z</time>
      </trkpt>
      <trkpt lat="45.84633" lon="2.98997">
        <ele>828</ele>
        <time>2013-09-21T08:03:36Z</time>
      </trkpt>
      <trkpt lat="45.84634" lon="2.98981">
        <ele>828</ele>
        <time>2013-09-21T08:03:43Z</time>
      </trkpt>
      <trkpt lat="45.84632" lon="2.98968">
        <ele>828</ele>
        <time>2013-09-21T08:03:52Z</time>
      </trkpt>
      <trkpt lat="45.84632" lon="2.98948">
        <ele>828</ele>
        <time>2013-09-21T08:04:00Z</time>
      </trkpt>
      <trkpt lat="45.84632" lon="2.98932">
        <ele>828</ele>
        <time>2013-09-21T08:04:05Z</time>
      </trkpt>
      <trkpt lat="45.84632" lon="2.98926">
        <ele>828</ele>
        <time>2013-09-21T08:04:07Z</time>
      </trkpt>
      <trkpt lat="45.84636" lon="2.98897">
        <ele>828</ele>
        <time>2013-09-21T08:04:14Z</time>
      </trkpt>
      <trkpt lat="45.84637" lon="2.98876">
        <ele>828</ele>
        <time>2013-09-21T08:04:20Z</time>
      </trkpt>
      <trkpt lat="45.84637" lon="2.98862">
        <ele>828</ele>
        <time>2013-09-21T08:04:26Z</time>
      </trkpt>
      <trkpt lat="45.84637" lon="2.98847">
        <ele>828</ele>
        <time>2013-09-21T08:04:33Z</time>
      </trkpt>
      <trkpt lat="45.84638" lon="2.98833">
        <ele>828</ele>
        <time>2013-09-21T08:04:41Z</time>
      </trkpt>
      <trkpt lat="45.8464" lon="2.98818">
        <ele>828.59997558594</ele>
        <time>2013-09-21T08:04:50Z</time>
      </trkpt>
      <trkpt lat="45.8464" lon="2.98817">
        <ele>829</ele>
        <time>2013-09-21T08:04:51Z</time>
      </trkpt>
      <trkpt lat="45.84641" lon="2.98795">
        <ele>830.20001220703</ele>
        <time>2013-09-21T08:05:01Z</time>
      </trkpt>
      <trkpt lat="45.8464" lon="2.98775">
        <ele>830.20001220703</ele>
        <time>2013-09-21T08:05:08Z</time>
      </trkpt>
      <trkpt lat="45.84644" lon="2.98754">
        <ele>830.20001220703</ele>
        <time>2013-09-21T08:05:14Z</time>
      </trkpt>
      <trkpt lat="45.84649" lon="2.98726">
        <ele>830.59997558594</ele>
        <time>2013-09-21T08:05:23Z</time>
      </trkpt>
      <trkpt lat="45.84648" lon="2.9872">
        <ele>832.40002441406</ele>
        <time>2013-09-21T08:05:27Z</time>
      </trkpt>
      <trkpt lat="45.84648" lon="2.98706">
        <ele>832.40002441406</ele>
        <time>2013-09-21T08:05:43Z</time>
      </trkpt>
      <trkpt lat="45.84646" lon="2.98695">
        <ele>832.40002441406</ele>
        <time>2013-09-21T08:05:55Z</time>
      </trkpt>
      <trkpt lat="45.84647" lon="2.98688">
        <ele>832.40002441406</ele>
        <time>2013-09-21T08:06:04Z</time>
      </trkpt>
      <trkpt lat="45.8465" lon="2.98682">
        <ele>832.40002441406</ele>
        <time>2013-09-21T08:06:14Z</time>
      </trkpt>
      <trkpt lat="45.84651" lon="2.98674">
        <ele>832.40002441406</ele>
        <time>2013-09-21T08:06:21Z</time>
      </trkpt>
      <trkpt lat="45.84649" lon="2.98667">
        <ele>832.40002441406</ele>
        <time>2013-09-21T08:06:30Z</time>
      </trkpt>
      <trkpt lat="45.84652" lon="2.98655">
        <ele>832.40002441406</ele>
        <time>2013-09-21T08:06:39Z</time>
      </trkpt>
      <trkpt lat="45.84653" lon="2.98638">
        <ele>832.40002441406</ele>
        <time>2013-09-21T08:06:46Z</time>
      </trkpt>
      <trkpt lat="45.84653" lon="2.98621">
        <ele>832.40002441406</ele>
        <time>2013-09-21T08:06:52Z</time>
      </trkpt>
      <trkpt lat="45.84652" lon="2.98603">
        <ele>832.40002441406</ele>
        <time>2013-09-21T08:06:58Z</time>
      </trkpt>
      <trkpt lat="45.84652" lon="2.98588">
        <ele>832.79998779297</ele>
        <time>2013-09-21T08:07:04Z</time>
      </trkpt>
      <trkpt lat="45.84654" lon="2.9858">
        <ele>834</ele>
        <time>2013-09-21T08:07:07Z</time>
      </trkpt>
      <trkpt lat="45.84659" lon="2.98557">
        <ele>834.59997558594</ele>
        <time>2013-09-21T08:07:15Z</time>
      </trkpt>
      <trkpt lat="45.8466" lon="2.98543">
        <ele>835</ele>
        <time>2013-09-21T08:07:20Z</time>
      </trkpt>
      <trkpt lat="45.84658" lon="2.98537">
        <ele>835.79998779297</ele>
        <time>2013-09-21T08:07:22Z</time>
      </trkpt>
      <trkpt lat="45.84657" lon="2.9853">
        <ele>836.79998779297</ele>
        <time>2013-09-21T08:07:24Z</time>
      </trkpt>
      <trkpt lat="45.84658" lon="2.98514">
        <ele>836.79998779297</ele>
        <time>2013-09-21T08:07:30Z</time>
      </trkpt>
      <trkpt lat="45.84659" lon="2.98497">
        <ele>836.79998779297</ele>
        <time>2013-09-21T08:07:39Z</time>
      </trkpt>
      <trkpt lat="45.84661" lon="2.98475">
        <ele>836.79998779297</ele>
        <time>2013-09-21T08:07:46Z</time>
      </trkpt>
      <trkpt lat="45.84663" lon="2.98452">
        <ele>836.79998779297</ele>
        <time>2013-09-21T08:07:53Z</time>
      </trkpt>
      <trkpt lat="45.84664" lon="2.98431">
        <ele>836.79998779297</ele>
        <time>2013-09-21T08:07:59Z</time>
      </trkpt>
      <trkpt lat="45.84666" lon="2.98425">
        <ele>837.20001220703</ele>
        <time>2013-09-21T08:08:01Z</time>
      </trkpt>
      <trkpt lat="45.84666" lon="2.98419">
        <ele>838</ele>
        <time>2013-09-21T08:08:03Z</time>
      </trkpt>
      <trkpt lat="45.84667" lon="2.98385">
        <ele>838.79998779297</ele>
        <time>2013-09-21T08:08:13Z</time>
      </trkpt>
      <trkpt lat="45.8467" lon="2.98357">
        <ele>838.79998779297</ele>
        <time>2013-09-21T08:08:22Z</time>
      </trkpt>
      <trkpt lat="45.84671" lon="2.98339">
        <ele>838.79998779297</ele>
        <time>2013-09-21T08:08:28Z</time>
      </trkpt>
      <trkpt lat="45.84673" lon="2.98329">
        <ele>839.59997558594</ele>
        <time>2013-09-21T08:08:31Z</time>
      </trkpt>
      <trkpt lat="45.84673" lon="2.98317">
        <ele>840.79998779297</ele>
        <time>2013-09-21T08:08:34Z</time>
      </trkpt>
      <trkpt lat="45.84675" lon="2.98296">
        <ele>840.79998779297</ele>
        <time>2013-09-21T08:08:41Z</time>
      </trkpt>
      <trkpt lat="45.84676" lon="2.98287">
        <ele>841.79998779297</ele>
        <time>2013-09-21T08:08:44Z</time>
      </trkpt>
      <trkpt lat="45.84678" lon="2.98279">
        <ele>843</ele>
        <time>2013-09-21T08:08:47Z</time>
      </trkpt>
      <trkpt lat="45.84677" lon="2.98251">
        <ele>843.40002441406</ele>
        <time>2013-09-21T08:08:56Z</time>
      </trkpt>
      <trkpt lat="45.84677" lon="2.98248">
        <ele>843.79998779297</ele>
        <time>2013-09-21T08:08:57Z</time>
      </trkpt>
      <trkpt lat="45.84678" lon="2.98239">
        <ele>845</ele>
        <time>2013-09-21T08:09:00Z</time>
      </trkpt>
      <trkpt lat="45.84679" lon="2.98228">
        <ele>845</ele>
        <time>2013-09-21T08:09:04Z</time>
      </trkpt>
      <trkpt lat="45.84682" lon="2.98206">
        <ele>845</ele>
        <time>2013-09-21T08:09:12Z</time>
      </trkpt>
      <trkpt lat="45.84684" lon="2.98198">
        <ele>845.40002441406</ele>
        <time>2013-09-21T08:09:15Z</time>
      </trkpt>
      <trkpt lat="45.84684" lon="2.98189">
        <ele>846.79998779297</ele>
        <time>2013-09-21T08:09:18Z</time>
      </trkpt>
      <trkpt lat="45.84685" lon="2.98162">
        <ele>847.20001220703</ele>
        <time>2013-09-21T08:09:28Z</time>
      </trkpt>
      <trkpt lat="45.84684" lon="2.98146">
        <ele>847.59997558594</ele>
        <time>2013-09-21T08:09:34Z</time>
      </trkpt>
      <trkpt lat="45.84684" lon="2.9814">
        <ele>848.40002441406</ele>
        <time>2013-09-21T08:09:36Z</time>
      </trkpt>
      <trkpt lat="45.84686" lon="2.98118">
        <ele>849.20001220703</ele>
        <time>2013-09-21T08:09:44Z</time>
      </trkpt>
      <trkpt lat="45.84689" lon="2.98104">
        <ele>849.59997558594</ele>
        <time>2013-09-21T08:09:49Z</time>
      </trkpt>
      <trkpt lat="45.8469" lon="2.981">
        <ele>850.59997558594</ele>
        <time>2013-09-21T08:09:51Z</time>
      </trkpt>
      <trkpt lat="45.8469" lon="2.98098">
        <ele>851</ele>
        <time>2013-09-21T08:09:52Z</time>
      </trkpt>
      <trkpt lat="45.84693" lon="2.98076">
        <ele>851.40002441406</ele>
        <time>2013-09-21T08:10:00Z</time>
      </trkpt>
      <trkpt lat="45.84701" lon="2.98073">
        <ele>853.59997558594</ele>
        <time>2013-09-21T08:10:05Z</time>
      </trkpt>
      <trkpt lat="45.8471" lon="2.9808">
        <ele>853.59997558594</ele>
        <time>2013-09-21T08:10:08Z</time>
      </trkpt>
      <trkpt lat="45.84736" lon="2.98094">
        <ele>853.59997558594</ele>
        <time>2013-09-21T08:10:16Z</time>
      </trkpt>
      <trkpt lat="45.8476" lon="2.98108">
        <ele>853.59997558594</ele>
        <time>2013-09-21T08:10:22Z</time>
      </trkpt>
      <trkpt lat="45.84777" lon="2.9812">
        <ele>853.20001220703</ele>
        <time>2013-09-21T08:10:26Z</time>
      </trkpt>
      <trkpt lat="45.84787" lon="2.98125">
        <ele>852.40002441406</ele>
        <time>2013-09-21T08:10:28Z</time>
      </trkpt>
      <trkpt lat="45.84792" lon="2.98127">
        <ele>852</ele>
        <time>2013-09-21T08:10:29Z</time>
      </trkpt>
      <trkpt lat="45.84828" lon="2.98146">
        <ele>851.59997558594</ele>
        <time>2013-09-21T08:10:37Z</time>
      </trkpt>
      <trkpt lat="45.84841" lon="2.98154">
        <ele>851</ele>
        <time>2013-09-21T08:10:40Z</time>
      </trkpt>
      <trkpt lat="45.8485" lon="2.98159">
        <ele>850.20001220703</ele>
        <time>2013-09-21T08:10:42Z</time>
      </trkpt>
      <trkpt lat="45.84855" lon="2.98161">
        <ele>849.79998779297</ele>
        <time>2013-09-21T08:10:43Z</time>
      </trkpt>
      <trkpt lat="45.84869" lon="2.9817">
        <ele>849.40002441406</ele>
        <time>2013-09-21T08:10:46Z</time>
      </trkpt>
      <trkpt lat="45.84884" lon="2.98174">
        <ele>849.40002441406</ele>
        <time>2013-09-21T08:10:50Z</time>
      </trkpt>
      <trkpt lat="45.8489" lon="2.9816">
        <ele>849.40002441406</ele>
        <time>2013-09-21T08:10:54Z</time>
      </trkpt>
      <trkpt lat="45.84893" lon="2.98142">
        <ele>849.40002441406</ele>
        <time>2013-09-21T08:10:58Z</time>
      </trkpt>
      <trkpt lat="45.84894" lon="2.98121">
        <ele>849.40002441406</ele>
        <time>2013-09-21T08:11:03Z</time>
      </trkpt>
      <trkpt lat="45.84898" lon="2.98104">
        <ele>849.40002441406</ele>
        <time>2013-09-21T08:11:08Z</time>
      </trkpt>
      <trkpt lat="45.84902" lon="2.9809">
        <ele>849.79998779297</ele>
        <time>2013-09-21T08:11:13Z</time>
      </trkpt>
      <trkpt lat="45.84905" lon="2.9808">
        <ele>851.20001220703</ele>
        <time>2013-09-21T08:11:16Z</time>
      </trkpt>
      <trkpt lat="45.84908" lon="2.9807">
        <ele>852</ele>
        <time>2013-09-21T08:11:19Z</time>
      </trkpt>
      <trkpt lat="45.8491" lon="2.98064">
        <ele>853</ele>
        <time>2013-09-21T08:11:21Z</time>
      </trkpt>
      <trkpt lat="45.84912" lon="2.98058">
        <ele>853.79998779297</ele>
        <time>2013-09-21T08:11:23Z</time>
      </trkpt>
      <trkpt lat="45.84914" lon="2.9805">
        <ele>854.20001220703</ele>
        <time>2013-09-21T08:11:26Z</time>
      </trkpt>
      <trkpt lat="45.84914" lon="2.98038">
        <ele>855.59997558594</ele>
        <time>2013-09-21T08:11:29Z</time>
      </trkpt>
      <trkpt lat="45.84914" lon="2.98019">
        <ele>856.40002441406</ele>
        <time>2013-09-21T08:11:34Z</time>
      </trkpt>
      <trkpt lat="45.84917" lon="2.9801">
        <ele>857.79998779297</ele>
        <time>2013-09-21T08:11:37Z</time>
      </trkpt>
      <trkpt lat="45.84926" lon="2.97986">
        <ele>858.20001220703</ele>
        <time>2013-09-21T08:11:43Z</time>
      </trkpt>
      <trkpt lat="45.84936" lon="2.97965">
        <ele>858.20001220703</ele>
        <time>2013-09-21T08:11:50Z</time>
      </trkpt>
      <trkpt lat="45.84943" lon="2.97955">
        <ele>858.59997558594</ele>
        <time>2013-09-21T08:11:54Z</time>
      </trkpt>
      <trkpt lat="45.84946" lon="2.97949">
        <ele>859.59997558594</ele>
        <time>2013-09-21T08:11:56Z</time>
      </trkpt>
      <trkpt lat="45.84951" lon="2.97943">
        <ele>860.40002441406</ele>
        <time>2013-09-21T08:11:58Z</time>
      </trkpt>
      <trkpt lat="45.84971" lon="2.97926">
        <ele>860.40002441406</ele>
        <time>2013-09-21T08:12:04Z</time>
      </trkpt>
      <trkpt lat="45.84996" lon="2.97908">
        <ele>860.40002441406</ele>
        <time>2013-09-21T08:12:11Z</time>
      </trkpt>
      <trkpt lat="45.85006" lon="2.97897">
        <ele>860.40002441406</ele>
        <time>2013-09-21T08:12:17Z</time>
      </trkpt>
      <trkpt lat="45.85015" lon="2.97891">
        <ele>860.40002441406</ele>
        <time>2013-09-21T08:12:26Z</time>
      </trkpt>
      <trkpt lat="45.85033" lon="2.97885">
        <ele>860.40002441406</ele>
        <time>2013-09-21T08:12:31Z</time>
      </trkpt>
      <trkpt lat="45.85046" lon="2.97881">
        <ele>860.40002441406</ele>
        <time>2013-09-21T08:12:38Z</time>
      </trkpt>
      <trkpt lat="45.85055" lon="2.97879">
        <ele>860.40002441406</ele>
        <time>2013-09-21T08:12:44Z</time>
      </trkpt>
      <trkpt lat="45.85066" lon="2.97876">
        <ele>860.40002441406</ele>
        <time>2013-09-21T08:12:50Z</time>
      </trkpt>
      <trkpt lat="45.85077" lon="2.97875">
        <ele>860.40002441406</ele>
        <time>2013-09-21T08:12:56Z</time>
      </trkpt>
      <trkpt lat="45.85089" lon="2.97874">
        <ele>860.40002441406</ele>
        <time>2013-09-21T08:13:03Z</time>
      </trkpt>
      <trkpt lat="45.85092" lon="2.97872">
        <ele>861</ele>
        <time>2013-09-21T08:13:05Z</time>
      </trkpt>
      <trkpt lat="45.85097" lon="2.9787">
        <ele>862.40002441406</ele>
        <time>2013-09-21T08:13:08Z</time>
      </trkpt>
      <trkpt lat="45.85104" lon="2.97868">
        <ele>862.79998779297</ele>
        <time>2013-09-21T08:13:12Z</time>
      </trkpt>
      <trkpt lat="45.85116" lon="2.97866">
        <ele>863.40002441406</ele>
        <time>2013-09-21T08:13:18Z</time>
      </trkpt>
      <trkpt lat="45.85115" lon="2.97858">
        <ele>865</ele>
        <time>2013-09-21T08:13:22Z</time>
      </trkpt>
      <trkpt lat="45.85108" lon="2.97848">
        <ele>865</ele>
        <time>2013-09-21T08:13:28Z</time>
      </trkpt>
      <trkpt lat="45.85097" lon="2.97834">
        <ele>865</ele>
        <time>2013-09-21T08:13:36Z</time>
      </trkpt>
      <trkpt lat="45.85085" lon="2.97827">
        <ele>865</ele>
        <time>2013-09-21T08:13:44Z</time>
      </trkpt>
      <trkpt lat="45.85075" lon="2.97823">
        <ele>865</ele>
        <time>2013-09-21T08:13:53Z</time>
      </trkpt>
      <trkpt lat="45.85062" lon="2.97819">
        <ele>865</ele>
        <time>2013-09-21T08:14:02Z</time>
      </trkpt>
      <trkpt lat="45.85049" lon="2.97809">
        <ele>865</ele>
        <time>2013-09-21T08:14:10Z</time>
      </trkpt>
      <trkpt lat="45.85036" lon="2.97803">
        <ele>865</ele>
        <time>2013-09-21T08:14:18Z</time>
      </trkpt>
      <trkpt lat="45.8502" lon="2.97805">
        <ele>865.40002441406</ele>
        <time>2013-09-21T08:14:27Z</time>
      </trkpt>
      <trkpt lat="45.85019" lon="2.97806">
        <ele>865.79998779297</ele>
        <time>2013-09-21T08:14:28Z</time>
      </trkpt>
      <trkpt lat="45.85004" lon="2.97811">
        <ele>867</ele>
        <time>2013-09-21T08:14:36Z</time>
      </trkpt>
      <trkpt lat="45.84995" lon="2.97815">
        <ele>867.40002441406</ele>
        <time>2013-09-21T08:14:40Z</time>
      </trkpt>
      <trkpt lat="45.84982" lon="2.97823">
        <ele>869.20001220703</ele>
        <time>2013-09-21T08:14:49Z</time>
      </trkpt>
      <trkpt lat="45.84968" lon="2.97839">
        <ele>869.20001220703</ele>
        <time>2013-09-21T08:14:56Z</time>
      </trkpt>
      <trkpt lat="45.84955" lon="2.97854">
        <ele>869.20001220703</ele>
        <time>2013-09-21T08:15:03Z</time>
      </trkpt>
      <trkpt lat="45.84947" lon="2.97867">
        <ele>869.20001220703</ele>
        <time>2013-09-21T08:15:10Z</time>
      </trkpt>
      <trkpt lat="45.8493" lon="2.97879">
        <ele>869.20001220703</ele>
        <time>2013-09-21T08:15:17Z</time>
      </trkpt>
      <trkpt lat="45.84914" lon="2.9788">
        <ele>869.20001220703</ele>
        <time>2013-09-21T08:15:23Z</time>
      </trkpt>
      <trkpt lat="45.84909" lon="2.97879">
        <ele>869.79998779297</ele>
        <time>2013-09-21T08:15:25Z</time>
      </trkpt>
      <trkpt lat="45.84899" lon="2.97874">
        <ele>871.59997558594</ele>
        <time>2013-09-21T08:15:30Z</time>
      </trkpt>
      <trkpt lat="45.84888" lon="2.97871">
        <ele>872.79998779297</ele>
        <time>2013-09-21T08:15:35Z</time>
      </trkpt>
      <trkpt lat="45.84883" lon="2.97869">
        <ele>873.59997558594</ele>
        <time>2013-09-21T08:15:37Z</time>
      </trkpt>
      <trkpt lat="45.8488" lon="2.97868">
        <ele>873.59997558594</ele>
        <time>2013-09-21T08:15:38Z</time>
      </trkpt>
      <trkpt lat="45.84869" lon="2.97867">
        <ele>873.59997558594</ele>
        <time>2013-09-21T08:15:44Z</time>
      </trkpt>
      <trkpt lat="45.84857" lon="2.97868">
        <ele>873.59997558594</ele>
        <time>2013-09-21T08:15:51Z</time>
      </trkpt>
      <trkpt lat="45.84842" lon="2.97872">
        <ele>873.59997558594</ele>
        <time>2013-09-21T08:15:57Z</time>
      </trkpt>
      <trkpt lat="45.84828" lon="2.97879">
        <ele>873.59997558594</ele>
        <time>2013-09-21T08:16:03Z</time>
      </trkpt>
      <trkpt lat="45.84822" lon="2.97881">
        <ele>874</ele>
        <time>2013-09-21T08:16:05Z</time>
      </trkpt>
      <trkpt lat="45.8482" lon="2.9788">
        <ele>874.59997558594</ele>
        <time>2013-09-21T08:16:06Z</time>
      </trkpt>
      <trkpt lat="45.84797" lon="2.97883">
        <ele>875.79998779297</ele>
        <time>2013-09-21T08:16:14Z</time>
      </trkpt>
      <trkpt lat="45.84778" lon="2.97879">
        <ele>875.79998779297</ele>
        <time>2013-09-21T08:16:21Z</time>
      </trkpt>
      <trkpt lat="45.84761" lon="2.97868">
        <ele>875.79998779297</ele>
        <time>2013-09-21T08:16:28Z</time>
      </trkpt>
      <trkpt lat="45.84747" lon="2.9786">
        <ele>875.79998779297</ele>
        <time>2013-09-21T08:16:34Z</time>
      </trkpt>
      <trkpt lat="45.84732" lon="2.97849">
        <ele>876.20001220703</ele>
        <time>2013-09-21T08:16:42Z</time>
      </trkpt>
      <trkpt lat="45.84729" lon="2.97848">
        <ele>876.59997558594</ele>
        <time>2013-09-21T08:16:43Z</time>
      </trkpt>
      <trkpt lat="45.84719" lon="2.97835">
        <ele>878.40002441406</ele>
        <time>2013-09-21T08:16:50Z</time>
      </trkpt>
      <trkpt lat="45.84722" lon="2.9783">
        <ele>879.20001220703</ele>
        <time>2013-09-21T08:16:52Z</time>
      </trkpt>
      <trkpt lat="45.84723" lon="2.97829">
        <ele>879.59997558594</ele>
        <time>2013-09-21T08:16:53Z</time>
      </trkpt>
      <trkpt lat="45.84731" lon="2.97826">
        <ele>880.59997558594</ele>
        <time>2013-09-21T08:16:59Z</time>
      </trkpt>
      <trkpt lat="45.84747" lon="2.97824">
        <ele>882.20001220703</ele>
        <time>2013-09-21T08:17:07Z</time>
      </trkpt>
      <trkpt lat="45.84757" lon="2.97822">
        <ele>882.79998779297</ele>
        <time>2013-09-21T08:17:11Z</time>
      </trkpt>
      <trkpt lat="45.84761" lon="2.97821">
        <ele>883.59997558594</ele>
        <time>2013-09-21T08:17:13Z</time>
      </trkpt>
      <trkpt lat="45.84765" lon="2.97819">
        <ele>884.59997558594</ele>
        <time>2013-09-21T08:17:15Z</time>
      </trkpt>
      <trkpt lat="45.84775" lon="2.9781">
        <ele>884.59997558594</ele>
        <time>2013-09-21T08:17:22Z</time>
      </trkpt>
      <trkpt lat="45.84781" lon="2.97801">
        <ele>885.40002441406</ele>
        <time>2013-09-21T08:17:27Z</time>
      </trkpt>
      <trkpt lat="45.84782" lon="2.97798">
        <ele>885.79998779297</ele>
        <time>2013-09-21T08:17:28Z</time>
      </trkpt>
      <trkpt lat="45.84791" lon="2.9777">
        <ele>886.79998779297</ele>
        <time>2013-09-21T08:17:39Z</time>
      </trkpt>
      <trkpt lat="45.84796" lon="2.97758">
        <ele>887.20001220703</ele>
        <time>2013-09-21T08:17:45Z</time>
      </trkpt>
      <trkpt lat="45.84801" lon="2.97751">
        <ele>888.40002441406</ele>
        <time>2013-09-21T08:17:48Z</time>
      </trkpt>
      <trkpt lat="45.84802" lon="2.97749">
        <ele>888.79998779297</ele>
        <time>2013-09-21T08:17:49Z</time>
      </trkpt>
      <trkpt lat="45.84813" lon="2.97732">
        <ele>888.79998779297</ele>
        <time>2013-09-21T08:17:59Z</time>
      </trkpt>
      <trkpt lat="45.84818" lon="2.97724">
        <ele>889.20001220703</ele>
        <time>2013-09-21T08:18:04Z</time>
      </trkpt>
      <trkpt lat="45.84821" lon="2.97719">
        <ele>890.59997558594</ele>
        <time>2013-09-21T08:18:07Z</time>
      </trkpt>
      <trkpt lat="45.84834" lon="2.97707">
        <ele>891</ele>
        <time>2013-09-21T08:18:14Z</time>
      </trkpt>
      <trkpt lat="45.8484" lon="2.977">
        <ele>891.79998779297</ele>
        <time>2013-09-21T08:18:18Z</time>
      </trkpt>
      <trkpt lat="45.84858" lon="2.97683">
        <ele>893.59997558594</ele>
        <time>2013-09-21T08:18:33Z</time>
      </trkpt>
      <trkpt lat="45.84861" lon="2.97681">
        <ele>894.40002441406</ele>
        <time>2013-09-21T08:18:35Z</time>
      </trkpt>
      <trkpt lat="45.84865" lon="2.9768">
        <ele>895.20001220703</ele>
        <time>2013-09-21T08:18:37Z</time>
      </trkpt>
      <trkpt lat="45.84876" lon="2.97674">
        <ele>895.59997558594</ele>
        <time>2013-09-21T08:18:43Z</time>
      </trkpt>
      <trkpt lat="45.8488" lon="2.97671">
        <ele>897.20001220703</ele>
        <time>2013-09-21T08:18:47Z</time>
      </trkpt>
      <trkpt lat="45.84889" lon="2.97666">
        <ele>897.20001220703</ele>
        <time>2013-09-21T08:18:52Z</time>
      </trkpt>
      <trkpt lat="45.84904" lon="2.97655">
        <ele>897.59997558594</ele>
        <time>2013-09-21T08:18:59Z</time>
      </trkpt>
      <trkpt lat="45.84911" lon="2.97651">
        <ele>899</ele>
        <time>2013-09-21T08:19:02Z</time>
      </trkpt>
      <trkpt lat="45.84913" lon="2.97649">
        <ele>899.40002441406</ele>
        <time>2013-09-21T08:19:03Z</time>
      </trkpt>
      <trkpt lat="45.84922" lon="2.97643">
        <ele>899.40002441406</ele>
        <time>2013-09-21T08:19:08Z</time>
      </trkpt>
      <trkpt lat="45.8493" lon="2.97641">
        <ele>900.20001220703</ele>
        <time>2013-09-21T08:19:13Z</time>
      </trkpt>
      <trkpt lat="45.84943" lon="2.9764">
        <ele>902</ele>
        <time>2013-09-21T08:19:20Z</time>
      </trkpt>
      <trkpt lat="45.84951" lon="2.97635">
        <ele>904</ele>
        <time>2013-09-21T08:19:24Z</time>
      </trkpt>
      <trkpt lat="45.84964" lon="2.97627">
        <ele>904.40002441406</ele>
        <time>2013-09-21T08:19:37Z</time>
      </trkpt>
      <trkpt lat="45.84982" lon="2.97618">
        <ele>906</ele>
        <time>2013-09-21T08:19:54Z</time>
      </trkpt>
      <trkpt lat="45.84994" lon="2.97603">
        <ele>906</ele>
        <time>2013-09-21T08:20:03Z</time>
      </trkpt>
      <trkpt lat="45.8501" lon="2.97589">
        <ele>906.40002441406</ele>
        <time>2013-09-21T08:20:09Z</time>
      </trkpt>
      <trkpt lat="45.85026" lon="2.97578">
        <ele>908.59997558594</ele>
        <time>2013-09-21T08:20:16Z</time>
      </trkpt>
      <trkpt lat="45.85032" lon="2.97573">
        <ele>909.79998779297</ele>
        <time>2013-09-21T08:20:19Z</time>
      </trkpt>
      <trkpt lat="45.85042" lon="2.97565">
        <ele>910.59997558594</ele>
        <time>2013-09-21T08:20:25Z</time>
      </trkpt>
      <trkpt lat="45.85049" lon="2.9756">
        <ele>911.79998779297</ele>
        <time>2013-09-21T08:20:29Z</time>
      </trkpt>
      <trkpt lat="45.85051" lon="2.9756">
        <ele>912.20001220703</ele>
        <time>2013-09-21T08:20:30Z</time>
      </trkpt>
      <trkpt lat="45.85073" lon="2.97554">
        <ele>912.20001220703</ele>
        <time>2013-09-21T08:20:40Z</time>
      </trkpt>
      <trkpt lat="45.85082" lon="2.97552">
        <ele>913.20001220703</ele>
        <time>2013-09-21T08:20:45Z</time>
      </trkpt>
      <trkpt lat="45.85097" lon="2.97558">
        <ele>915</ele>
        <time>2013-09-21T08:20:53Z</time>
      </trkpt>
      <trkpt lat="45.85099" lon="2.97562">
        <ele>915.79998779297</ele>
        <time>2013-09-21T08:20:55Z</time>
      </trkpt>
      <trkpt lat="45.85102" lon="2.97565">
        <ele>916.20001220703</ele>
        <time>2013-09-21T08:20:56Z</time>
      </trkpt>
      <trkpt lat="45.85117" lon="2.97573">
        <ele>916.59997558594</ele>
        <time>2013-09-21T08:21:03Z</time>
      </trkpt>
      <trkpt lat="45.85121" lon="2.97575">
        <ele>917.40002441406</ele>
        <time>2013-09-21T08:21:05Z</time>
      </trkpt>
      <trkpt lat="45.85133" lon="2.9758">
        <ele>918.79998779297</ele>
        <time>2013-09-21T08:21:11Z</time>
      </trkpt>
      <trkpt lat="45.85144" lon="2.97587">
        <ele>918.79998779297</ele>
        <time>2013-09-21T08:21:18Z</time>
      </trkpt>
      <trkpt lat="45.85152" lon="2.9759">
        <ele>919.59997558594</ele>
        <time>2013-09-21T08:21:22Z</time>
      </trkpt>
      <trkpt lat="45.85154" lon="2.9759">
        <ele>920</ele>
        <time>2013-09-21T08:21:23Z</time>
      </trkpt>
      <trkpt lat="45.85176" lon="2.97593">
        <ele>920.79998779297</ele>
        <time>2013-09-21T08:21:33Z</time>
      </trkpt>
      <trkpt lat="45.85181" lon="2.97594">
        <ele>921.59997558594</ele>
        <time>2013-09-21T08:21:37Z</time>
      </trkpt>
      <trkpt lat="45.85196" lon="2.97596">
        <ele>923</ele>
        <time>2013-09-21T08:22:07Z</time>
      </trkpt>
      <trkpt lat="45.85206" lon="2.97596">
        <ele>923</ele>
        <time>2013-09-21T08:22:21Z</time>
      </trkpt>
      <trkpt lat="45.85212" lon="2.97599">
        <ele>923.40002441406</ele>
        <time>2013-09-21T08:22:49Z</time>
      </trkpt>
      <trkpt lat="45.85213" lon="2.976">
        <ele>924.59997558594</ele>
        <time>2013-09-21T08:22:52Z</time>
      </trkpt>
      <trkpt lat="45.85225" lon="2.97603">
        <ele>925</ele>
        <time>2013-09-21T08:23:09Z</time>
      </trkpt>
      <trkpt lat="45.85232" lon="2.97602">
        <ele>925</ele>
        <time>2013-09-21T08:23:18Z</time>
      </trkpt>
      <trkpt lat="45.85241" lon="2.97605">
        <ele>925</ele>
        <time>2013-09-21T08:23:43Z</time>
      </trkpt>
      <trkpt lat="45.85239" lon="2.97588">
        <ele>927</ele>
        <time>2013-09-21T08:24:18Z</time>
      </trkpt>
      <trkpt lat="45.85234" lon="2.97579">
        <ele>928.40002441406</ele>
        <time>2013-09-21T08:24:22Z</time>
      </trkpt>
      <trkpt lat="45.8523" lon="2.97565">
        <ele>929.79998779297</ele>
        <time>2013-09-21T08:24:28Z</time>
      </trkpt>
      <trkpt lat="45.85227" lon="2.9756">
        <ele>931.40002441406</ele>
        <time>2013-09-21T08:24:32Z</time>
      </trkpt>
      <trkpt lat="45.85225" lon="2.9755">
        <ele>933</ele>
        <time>2013-09-21T08:24:39Z</time>
      </trkpt>
      <trkpt lat="45.85221" lon="2.97537">
        <ele>934</ele>
        <time>2013-09-21T08:24:49Z</time>
      </trkpt>
      <trkpt lat="45.85219" lon="2.97532">
        <ele>935.79998779297</ele>
        <time>2013-09-21T08:24:53Z</time>
      </trkpt>
      <trkpt lat="45.85215" lon="2.97523">
        <ele>936.59997558594</ele>
        <time>2013-09-21T08:25:01Z</time>
      </trkpt>
      <trkpt lat="45.85214" lon="2.9752">
        <ele>937.59997558594</ele>
        <time>2013-09-21T08:25:03Z</time>
      </trkpt>
      <trkpt lat="45.85209" lon="2.97509">
        <ele>939</ele>
        <time>2013-09-21T08:25:13Z</time>
      </trkpt>
      <trkpt lat="45.85203" lon="2.97499">
        <ele>941.20001220703</ele>
        <time>2013-09-21T08:25:23Z</time>
      </trkpt>
      <trkpt lat="45.85198" lon="2.97492">
        <ele>943.40002441406</ele>
        <time>2013-09-21T08:25:32Z</time>
      </trkpt>
      <trkpt lat="45.85197" lon="2.97489">
        <ele>944.20001220703</ele>
        <time>2013-09-21T08:25:34Z</time>
      </trkpt>
      <trkpt lat="45.85191" lon="2.97479">
        <ele>945.40002441406</ele>
        <time>2013-09-21T08:25:40Z</time>
      </trkpt>
      <trkpt lat="45.8519" lon="2.97477">
        <ele>946.40002441406</ele>
        <time>2013-09-21T08:25:42Z</time>
      </trkpt>
      <trkpt lat="45.85184" lon="2.97468">
        <ele>947.59997558594</ele>
        <time>2013-09-21T08:25:49Z</time>
      </trkpt>
      <trkpt lat="45.8518" lon="2.97466">
        <ele>949.20001220703</ele>
        <time>2013-09-21T08:25:53Z</time>
      </trkpt>
      <trkpt lat="45.85174" lon="2.97458">
        <ele>949.59997558594</ele>
        <time>2013-09-21T08:26:02Z</time>
      </trkpt>
      <trkpt lat="45.85169" lon="2.97447">
        <ele>951.59997558594</ele>
        <time>2013-09-21T08:26:11Z</time>
      </trkpt>
      <trkpt lat="45.85162" lon="2.97436">
        <ele>953.40002441406</ele>
        <time>2013-09-21T08:26:18Z</time>
      </trkpt>
      <trkpt lat="45.85157" lon="2.97428">
        <ele>953.79998779297</ele>
        <time>2013-09-21T08:26:24Z</time>
      </trkpt>
      <trkpt lat="45.85156" lon="2.9742">
        <ele>955.59997558594</ele>
        <time>2013-09-21T08:26:28Z</time>
      </trkpt>
      <trkpt lat="45.8515" lon="2.97408">
        <ele>956</ele>
        <time>2013-09-21T08:26:34Z</time>
      </trkpt>
      <trkpt lat="45.85148" lon="2.97405">
        <ele>956.40002441406</ele>
        <time>2013-09-21T08:26:35Z</time>
      </trkpt>
      <trkpt lat="45.85146" lon="2.97398">
        <ele>957.59997558594</ele>
        <time>2013-09-21T08:26:40Z</time>
      </trkpt>
      <trkpt lat="45.85141" lon="2.97389">
        <ele>958.79998779297</ele>
        <time>2013-09-21T08:26:46Z</time>
      </trkpt>
      <trkpt lat="45.8514" lon="2.97388">
        <ele>959.79998779297</ele>
        <time>2013-09-21T08:26:48Z</time>
      </trkpt>
      <trkpt lat="45.8513" lon="2.9738">
        <ele>961.59997558594</ele>
        <time>2013-09-21T08:27:00Z</time>
      </trkpt>
      <trkpt lat="45.85118" lon="2.97375">
        <ele>964.20001220703</ele>
        <time>2013-09-21T08:27:13Z</time>
      </trkpt>
      <trkpt lat="45.85114" lon="2.9737">
        <ele>966.40002441406</ele>
        <time>2013-09-21T08:27:18Z</time>
      </trkpt>
      <trkpt lat="45.8511" lon="2.97364">
        <ele>966.79998779297</ele>
        <time>2013-09-21T08:27:25Z</time>
      </trkpt>
      <trkpt lat="45.85101" lon="2.97354">
        <ele>969</ele>
        <time>2013-09-21T08:27:36Z</time>
      </trkpt>
      <trkpt lat="45.85099" lon="2.97351">
        <ele>969.79998779297</ele>
        <time>2013-09-21T08:27:38Z</time>
      </trkpt>
      <trkpt lat="45.85099" lon="2.97349">
        <ele>970.40002441406</ele>
        <time>2013-09-21T08:27:39Z</time>
      </trkpt>
      <trkpt lat="45.85098" lon="2.97332">
        <ele>970.79998779297</ele>
        <time>2013-09-21T08:27:47Z</time>
      </trkpt>
      <trkpt lat="45.85098" lon="2.97325">
        <ele>971.20001220703</ele>
        <time>2013-09-21T08:27:50Z</time>
      </trkpt>
      <trkpt lat="45.85101" lon="2.97319">
        <ele>973.20001220703</ele>
        <time>2013-09-21T08:27:54Z</time>
      </trkpt>
      <trkpt lat="45.85106" lon="2.97309">
        <ele>974</ele>
        <time>2013-09-21T08:28:03Z</time>
      </trkpt>
      <trkpt lat="45.8511" lon="2.97301">
        <ele>976.59997558594</ele>
        <time>2013-09-21T08:28:11Z</time>
      </trkpt>
      <trkpt lat="45.85112" lon="2.97299">
        <ele>977.59997558594</ele>
        <time>2013-09-21T08:28:13Z</time>
      </trkpt>
      <trkpt lat="45.85123" lon="2.97289">
        <ele>977.59997558594</ele>
        <time>2013-09-21T08:28:21Z</time>
      </trkpt>
      <trkpt lat="45.85135" lon="2.97274">
        <ele>980.20001220703</ele>
        <time>2013-09-21T08:28:36Z</time>
      </trkpt>
      <trkpt lat="45.85143" lon="2.97262">
        <ele>982.59997558594</ele>
        <time>2013-09-21T08:28:48Z</time>
      </trkpt>
      <trkpt lat="45.85149" lon="2.97256">
        <ele>983.40002441406</ele>
        <time>2013-09-21T08:28:50Z</time>
      </trkpt>
      <trkpt lat="45.85152" lon="2.97254">
        <ele>983.79998779297</ele>
        <time>2013-09-21T08:28:51Z</time>
      </trkpt>
      <trkpt lat="45.85159" lon="2.97239">
        <ele>984.40002441406</ele>
        <time>2013-09-21T08:28:58Z</time>
      </trkpt>
      <trkpt lat="45.85166" lon="2.97222">
        <ele>984.40002441406</ele>
        <time>2013-09-21T08:29:05Z</time>
      </trkpt>
      <trkpt lat="45.85178" lon="2.97202">
        <ele>984.40002441406</ele>
        <time>2013-09-21T08:29:10Z</time>
      </trkpt>
      <trkpt lat="45.85187" lon="2.97194">
        <ele>984.79998779297</ele>
        <time>2013-09-21T08:29:13Z</time>
      </trkpt>
      <trkpt lat="45.8519" lon="2.97191">
        <ele>985.20001220703</ele>
        <time>2013-09-21T08:29:14Z</time>
      </trkpt>
      <trkpt lat="45.85193" lon="2.97188">
        <ele>985.59997558594</ele>
        <time>2013-09-21T08:29:15Z</time>
      </trkpt>
      <trkpt lat="45.8521" lon="2.97162">
        <ele>986.40002441406</ele>
        <time>2013-09-21T08:29:23Z</time>
      </trkpt>
      <trkpt lat="45.85217" lon="2.97136">
        <ele>986.40002441406</ele>
        <time>2013-09-21T08:29:31Z</time>
      </trkpt>
      <trkpt lat="45.85223" lon="2.97108">
        <ele>986.40002441406</ele>
        <time>2013-09-21T08:29:37Z</time>
      </trkpt>
      <trkpt lat="45.85225" lon="2.97081">
        <ele>986.40002441406</ele>
        <time>2013-09-21T08:29:42Z</time>
      </trkpt>
      <trkpt lat="45.85237" lon="2.97057">
        <ele>986.79998779297</ele>
        <time>2013-09-21T08:29:47Z</time>
      </trkpt>
      <trkpt lat="45.85239" lon="2.97049">
        <ele>987.79998779297</ele>
        <time>2013-09-21T08:29:49Z</time>
      </trkpt>
      <trkpt lat="45.85241" lon="2.97039">
        <ele>988.79998779297</ele>
        <time>2013-09-21T08:29:51Z</time>
      </trkpt>
      <trkpt lat="45.85242" lon="2.97018">
        <ele>988.79998779297</ele>
        <time>2013-09-21T08:29:54Z</time>
      </trkpt>
      <trkpt lat="45.8524" lon="2.97003">
        <ele>988.79998779297</ele>
        <time>2013-09-21T08:29:57Z</time>
      </trkpt>
      <trkpt lat="45.85246" lon="2.96966">
        <ele>988.79998779297</ele>
        <time>2013-09-21T08:30:04Z</time>
      </trkpt>
      <trkpt lat="45.85249" lon="2.9695">
        <ele>989.20001220703</ele>
        <time>2013-09-21T08:30:07Z</time>
      </trkpt>
      <trkpt lat="45.8525" lon="2.96945">
        <ele>989.59997558594</ele>
        <time>2013-09-21T08:30:08Z</time>
      </trkpt>
      <trkpt lat="45.85256" lon="2.96932">
        <ele>990</ele>
        <time>2013-09-21T08:30:12Z</time>
      </trkpt>
      <trkpt lat="45.85257" lon="2.96929">
        <ele>990.40002441406</ele>
        <time>2013-09-21T08:30:13Z</time>
      </trkpt>
      <trkpt lat="45.85257" lon="2.96907">
        <ele>990.79998779297</ele>
        <time>2013-09-21T08:30:20Z</time>
      </trkpt>
      <trkpt lat="45.85254" lon="2.96896">
        <ele>992.20001220703</ele>
        <time>2013-09-21T08:30:23Z</time>
      </trkpt>
      <trkpt lat="45.8525" lon="2.96886">
        <ele>993</ele>
        <time>2013-09-21T08:30:25Z</time>
      </trkpt>
      <trkpt lat="45.85247" lon="2.96882">
        <ele>993</ele>
        <time>2013-09-21T08:30:26Z</time>
      </trkpt>
      <trkpt lat="45.85241" lon="2.96862">
        <ele>993</ele>
        <time>2013-09-21T08:30:33Z</time>
      </trkpt>
      <trkpt lat="45.85238" lon="2.96849">
        <ele>993.40002441406</ele>
        <time>2013-09-21T08:30:37Z</time>
      </trkpt>
      <trkpt lat="45.85238" lon="2.96839">
        <ele>995</ele>
        <time>2013-09-21T08:30:41Z</time>
      </trkpt>
      <trkpt lat="45.85235" lon="2.9682">
        <ele>995</ele>
        <time>2013-09-21T08:30:47Z</time>
      </trkpt>
      <trkpt lat="45.85235" lon="2.9681">
        <ele>995.79998779297</ele>
        <time>2013-09-21T08:30:51Z</time>
      </trkpt>
      <trkpt lat="45.85235" lon="2.96797">
        <ele>997.20001220703</ele>
        <time>2013-09-21T08:30:54Z</time>
      </trkpt>
      <trkpt lat="45.85249" lon="2.96774">
        <ele>997.20001220703</ele>
        <time>2013-09-21T08:31:00Z</time>
      </trkpt>
      <trkpt lat="45.8526" lon="2.9676">
        <ele>997.20001220703</ele>
        <time>2013-09-21T08:31:05Z</time>
      </trkpt>
      <trkpt lat="45.85276" lon="2.96734">
        <ele>997.20001220703</ele>
        <time>2013-09-21T08:31:11Z</time>
      </trkpt>
      <trkpt lat="45.85291" lon="2.967">
        <ele>997.20001220703</ele>
        <time>2013-09-21T08:31:18Z</time>
      </trkpt>
      <trkpt lat="45.85302" lon="2.96673">
        <ele>997.20001220703</ele>
        <time>2013-09-21T08:31:23Z</time>
      </trkpt>
      <trkpt lat="45.85305" lon="2.96668">
        <ele>997.59997558594</ele>
        <time>2013-09-21T08:31:24Z</time>
      </trkpt>
      <trkpt lat="45.85305" lon="2.96654">
        <ele>998.40002441406</ele>
        <time>2013-09-21T08:31:26Z</time>
      </trkpt>
      <trkpt lat="45.85303" lon="2.96647">
        <ele>999.20001220703</ele>
        <time>2013-09-21T08:31:28Z</time>
      </trkpt>
      <trkpt lat="45.8529" lon="2.96635">
        <ele>999.20001220703</ele>
        <time>2013-09-21T08:31:34Z</time>
      </trkpt>
      <trkpt lat="45.85284" lon="2.96627">
        <ele>999.59997558594</ele>
        <time>2013-09-21T08:31:37Z</time>
      </trkpt>
      <trkpt lat="45.85278" lon="2.96616">
        <ele>1001</ele>
        <time>2013-09-21T08:31:40Z</time>
      </trkpt>
      <trkpt lat="45.85272" lon="2.96595">
        <ele>1001.4000244141</ele>
        <time>2013-09-21T08:31:46Z</time>
      </trkpt>
      <trkpt lat="45.85268" lon="2.96587">
        <ele>1001.799987793</ele>
        <time>2013-09-21T08:31:48Z</time>
      </trkpt>
      <trkpt lat="45.85265" lon="2.96578">
        <ele>1002.5999755859</ele>
        <time>2013-09-21T08:31:50Z</time>
      </trkpt>
      <trkpt lat="45.85253" lon="2.96549">
        <ele>1003.5999755859</ele>
        <time>2013-09-21T08:31:57Z</time>
      </trkpt>
      <trkpt lat="45.85244" lon="2.9653">
        <ele>1004</ele>
        <time>2013-09-21T08:32:02Z</time>
      </trkpt>
      <trkpt lat="45.85238" lon="2.96521">
        <ele>1005.200012207</ele>
        <time>2013-09-21T08:32:05Z</time>
      </trkpt>
      <trkpt lat="45.85237" lon="2.96518">
        <ele>1005.799987793</ele>
        <time>2013-09-21T08:32:06Z</time>
      </trkpt>
      <trkpt lat="45.85232" lon="2.96509">
        <ele>1005.799987793</ele>
        <time>2013-09-21T08:32:09Z</time>
      </trkpt>
      <trkpt lat="45.85225" lon="2.96489">
        <ele>1006.200012207</ele>
        <time>2013-09-21T08:32:16Z</time>
      </trkpt>
      <trkpt lat="45.85221" lon="2.9648">
        <ele>1007.4000244141</ele>
        <time>2013-09-21T08:32:19Z</time>
      </trkpt>
      <trkpt lat="45.8522" lon="2.96476">
        <ele>1007.799987793</ele>
        <time>2013-09-21T08:32:20Z</time>
      </trkpt>
      <trkpt lat="45.85217" lon="2.96466">
        <ele>1007.799987793</ele>
        <time>2013-09-21T08:32:24Z</time>
      </trkpt>
      <trkpt lat="45.85211" lon="2.96456">
        <ele>1008.4000244141</ele>
        <time>2013-09-21T08:32:28Z</time>
      </trkpt>
      <trkpt lat="45.85209" lon="2.9645">
        <ele>1009.200012207</ele>
        <time>2013-09-21T08:32:30Z</time>
      </trkpt>
      <trkpt lat="45.85208" lon="2.96448">
        <ele>1009.799987793</ele>
        <time>2013-09-21T08:32:31Z</time>
      </trkpt>
      <trkpt lat="45.85201" lon="2.96437">
        <ele>1010.200012207</ele>
        <time>2013-09-21T08:32:36Z</time>
      </trkpt>
      <trkpt lat="45.85199" lon="2.96436">
        <ele>1010.200012207</ele>
        <time>2013-09-21T08:32:37Z</time>
      </trkpt>
      <trkpt lat="45.85188" lon="2.96428">
        <ele>1011.5999755859</ele>
        <time>2013-09-21T08:32:42Z</time>
      </trkpt>
      <trkpt lat="45.85176" lon="2.96412">
        <ele>1012.5999755859</ele>
        <time>2013-09-21T08:32:49Z</time>
      </trkpt>
      <trkpt lat="45.85166" lon="2.96397">
        <ele>1012.5999755859</ele>
        <time>2013-09-21T08:32:55Z</time>
      </trkpt>
      <trkpt lat="45.85146" lon="2.96369">
        <ele>1012.5999755859</ele>
        <time>2013-09-21T08:33:01Z</time>
      </trkpt>
      <trkpt lat="45.85124" lon="2.96341">
        <ele>1012.5999755859</ele>
        <time>2013-09-21T08:33:05Z</time>
      </trkpt>
      <trkpt lat="45.85114" lon="2.96329">
        <ele>1012.200012207</ele>
        <time>2013-09-21T08:33:07Z</time>
      </trkpt>
      <trkpt lat="45.85109" lon="2.96323">
        <ele>1011.5999755859</ele>
        <time>2013-09-21T08:33:08Z</time>
      </trkpt>
      <trkpt lat="45.85105" lon="2.96318">
        <ele>1011.200012207</ele>
        <time>2013-09-21T08:33:09Z</time>
      </trkpt>
      <trkpt lat="45.85098" lon="2.9631">
        <ele>1010.799987793</ele>
        <time>2013-09-21T08:33:10Z</time>
      </trkpt>
      <trkpt lat="45.85087" lon="2.96296">
        <ele>1009.5999755859</ele>
        <time>2013-09-21T08:33:12Z</time>
      </trkpt>
      <trkpt lat="45.85082" lon="2.96288">
        <ele>1009.200012207</ele>
        <time>2013-09-21T08:33:13Z</time>
      </trkpt>
      <trkpt lat="45.85077" lon="2.96279">
        <ele>1008.5999755859</ele>
        <time>2013-09-21T08:33:14Z</time>
      </trkpt>
      <trkpt lat="45.85072" lon="2.96267">
        <ele>1007.4000244141</ele>
        <time>2013-09-21T08:33:15Z</time>
      </trkpt>
      <trkpt lat="45.85069" lon="2.9626">
        <ele>1006.5999755859</ele>
        <time>2013-09-21T08:33:16Z</time>
      </trkpt>
      <trkpt lat="45.85065" lon="2.96253">
        <ele>1005.5999755859</ele>
        <time>2013-09-21T08:33:17Z</time>
      </trkpt>
      <trkpt lat="45.8506" lon="2.96244">
        <ele>1004.799987793</ele>
        <time>2013-09-21T08:33:18Z</time>
      </trkpt>
      <trkpt lat="45.85054" lon="2.96233">
        <ele>1003.799987793</ele>
        <time>2013-09-21T08:33:19Z</time>
      </trkpt>
      <trkpt lat="45.85048" lon="2.96223">
        <ele>1002.799987793</ele>
        <time>2013-09-21T08:33:20Z</time>
      </trkpt>
      <trkpt lat="45.85039" lon="2.96202">
        <ele>1000.4000244141</ele>
        <time>2013-09-21T08:33:22Z</time>
      </trkpt>
      <trkpt lat="45.85033" lon="2.96194">
        <ele>999.40002441406</ele>
        <time>2013-09-21T08:33:23Z</time>
      </trkpt>
      <trkpt lat="45.85026" lon="2.96192">
        <ele>998.20001220703</ele>
        <time>2013-09-21T08:33:24Z</time>
      </trkpt>
      <trkpt lat="45.85019" lon="2.96185">
        <ele>997</ele>
        <time>2013-09-21T08:33:25Z</time>
      </trkpt>
      <trkpt lat="45.85011" lon="2.96178">
        <ele>996</ele>
        <time>2013-09-21T08:33:26Z</time>
      </trkpt>
      <trkpt lat="45.85004" lon="2.96172">
        <ele>995</ele>
        <time>2013-09-21T08:33:27Z</time>
      </trkpt>
      <trkpt lat="45.84997" lon="2.96164">
        <ele>994</ele>
        <time>2013-09-21T08:33:28Z</time>
      </trkpt>
      <trkpt lat="45.8499" lon="2.96154">
        <ele>993</ele>
        <time>2013-09-21T08:33:29Z</time>
      </trkpt>
      <trkpt lat="45.84984" lon="2.96145">
        <ele>992.20001220703</ele>
        <time>2013-09-21T08:33:30Z</time>
      </trkpt>
      <trkpt lat="45.84973" lon="2.96126">
        <ele>990.59997558594</ele>
        <time>2013-09-21T08:33:32Z</time>
      </trkpt>
      <trkpt lat="45.84966" lon="2.96118">
        <ele>990</ele>
        <time>2013-09-21T08:33:33Z</time>
      </trkpt>
      <trkpt lat="45.84959" lon="2.96112">
        <ele>989.20001220703</ele>
        <time>2013-09-21T08:33:34Z</time>
      </trkpt>
      <trkpt lat="45.84954" lon="2.96104">
        <ele>988.59997558594</ele>
        <time>2013-09-21T08:33:35Z</time>
      </trkpt>
      <trkpt lat="45.84948" lon="2.96097">
        <ele>988</ele>
        <time>2013-09-21T08:33:36Z</time>
      </trkpt>
      <trkpt lat="45.84933" lon="2.9608">
        <ele>986.79998779297</ele>
        <time>2013-09-21T08:33:38Z</time>
      </trkpt>
      <trkpt lat="45.84922" lon="2.96066">
        <ele>985.79998779297</ele>
        <time>2013-09-21T08:33:40Z</time>
      </trkpt>
      <trkpt lat="45.84917" lon="2.96058">
        <ele>985.40002441406</ele>
        <time>2013-09-21T08:33:41Z</time>
      </trkpt>
      <trkpt lat="45.84905" lon="2.96043">
        <ele>984.59997558594</ele>
        <time>2013-09-21T08:33:43Z</time>
      </trkpt>
      <trkpt lat="45.84901" lon="2.96035">
        <ele>984.20001220703</ele>
        <time>2013-09-21T08:33:44Z</time>
      </trkpt>
      <trkpt lat="45.84897" lon="2.96025">
        <ele>984.20001220703</ele>
        <time>2013-09-21T08:33:45Z</time>
      </trkpt>
      <trkpt lat="45.84895" lon="2.96016">
        <ele>984.20001220703</ele>
        <time>2013-09-21T08:33:46Z</time>
      </trkpt>
      <trkpt lat="45.84893" lon="2.96007">
        <ele>983.59997558594</ele>
        <time>2013-09-21T08:33:47Z</time>
      </trkpt>
      <trkpt lat="45.84892" lon="2.95997">
        <ele>983.20001220703</ele>
        <time>2013-09-21T08:33:48Z</time>
      </trkpt>
      <trkpt lat="45.84891" lon="2.95988">
        <ele>982.79998779297</ele>
        <time>2013-09-21T08:33:49Z</time>
      </trkpt>
      <trkpt lat="45.8489" lon="2.95979">
        <ele>982.20001220703</ele>
        <time>2013-09-21T08:33:50Z</time>
      </trkpt>
      <trkpt lat="45.8489" lon="2.95969">
        <ele>981.59997558594</ele>
        <time>2013-09-21T08:33:51Z</time>
      </trkpt>
      <trkpt lat="45.84887" lon="2.95959">
        <ele>981</ele>
        <time>2013-09-21T08:33:52Z</time>
      </trkpt>
      <trkpt lat="45.84886" lon="2.95948">
        <ele>980.40002441406</ele>
        <time>2013-09-21T08:33:53Z</time>
      </trkpt>
      <trkpt lat="45.84884" lon="2.95936">
        <ele>979.79998779297</ele>
        <time>2013-09-21T08:33:54Z</time>
      </trkpt>
      <trkpt lat="45.84881" lon="2.95913">
        <ele>979.40002441406</ele>
        <time>2013-09-21T08:33:56Z</time>
      </trkpt>
      <trkpt lat="45.8488" lon="2.95903">
        <ele>979</ele>
        <time>2013-09-21T08:33:57Z</time>
      </trkpt>
      <trkpt lat="45.84879" lon="2.95893">
        <ele>978.59997558594</ele>
        <time>2013-09-21T08:33:58Z</time>
      </trkpt>
      <trkpt lat="45.84877" lon="2.95885">
        <ele>977.79998779297</ele>
        <time>2013-09-21T08:33:59Z</time>
      </trkpt>
      <trkpt lat="45.84875" lon="2.95878">
        <ele>977.20001220703</ele>
        <time>2013-09-21T08:34:00Z</time>
      </trkpt>
      <trkpt lat="45.84873" lon="2.95865">
        <ele>975.79998779297</ele>
        <time>2013-09-21T08:34:02Z</time>
      </trkpt>
      <trkpt lat="45.84873" lon="2.9586">
        <ele>975.79998779297</ele>
        <time>2013-09-21T08:34:03Z</time>
      </trkpt>
      <trkpt lat="45.84873" lon="2.95828">
        <ele>975</ele>
        <time>2013-09-21T08:34:08Z</time>
      </trkpt>
      <trkpt lat="45.84873" lon="2.9581">
        <ele>974.59997558594</ele>
        <time>2013-09-21T08:34:10Z</time>
      </trkpt>
      <trkpt lat="45.84873" lon="2.958">
        <ele>974.20001220703</ele>
        <time>2013-09-21T08:34:11Z</time>
      </trkpt>
      <trkpt lat="45.84869" lon="2.9578">
        <ele>973.40002441406</ele>
        <time>2013-09-21T08:34:13Z</time>
      </trkpt>
      <trkpt lat="45.84859" lon="2.95726">
        <ele>972.79998779297</ele>
        <time>2013-09-21T08:34:18Z</time>
      </trkpt>
      <trkpt lat="45.84856" lon="2.95717">
        <ele>972.79998779297</ele>
        <time>2013-09-21T08:34:19Z</time>
      </trkpt>
      <trkpt lat="45.84853" lon="2.95703">
        <ele>972.79998779297</ele>
        <time>2013-09-21T08:34:21Z</time>
      </trkpt>
      <trkpt lat="45.8485" lon="2.95678">
        <ele>972.79998779297</ele>
        <time>2013-09-21T08:34:25Z</time>
      </trkpt>
      <trkpt lat="45.84851" lon="2.95671">
        <ele>972.40002441406</ele>
        <time>2013-09-21T08:34:26Z</time>
      </trkpt>
      <trkpt lat="45.84851" lon="2.95663">
        <ele>972</ele>
        <time>2013-09-21T08:34:27Z</time>
      </trkpt>
      <trkpt lat="45.84852" lon="2.95657">
        <ele>971.59997558594</ele>
        <time>2013-09-21T08:34:28Z</time>
      </trkpt>
      <trkpt lat="45.8485" lon="2.95649">
        <ele>971.20001220703</ele>
        <time>2013-09-21T08:34:29Z</time>
      </trkpt>
      <trkpt lat="45.84834" lon="2.95617">
        <ele>970.79998779297</ele>
        <time>2013-09-21T08:34:33Z</time>
      </trkpt>
      <trkpt lat="45.8483" lon="2.95609">
        <ele>970.79998779297</ele>
        <time>2013-09-21T08:34:34Z</time>
      </trkpt>
      <trkpt lat="45.84813" lon="2.95571">
        <ele>970.79998779297</ele>
        <time>2013-09-21T08:34:39Z</time>
      </trkpt>
      <trkpt lat="45.84797" lon="2.95535">
        <ele>970.79998779297</ele>
        <time>2013-09-21T08:34:45Z</time>
      </trkpt>
      <trkpt lat="45.84795" lon="2.95529">
        <ele>970.79998779297</ele>
        <time>2013-09-21T08:34:46Z</time>
      </trkpt>
      <trkpt lat="45.84771" lon="2.95483">
        <ele>970.79998779297</ele>
        <time>2013-09-21T08:34:53Z</time>
      </trkpt>
      <trkpt lat="45.84749" lon="2.95451">
        <ele>970.79998779297</ele>
        <time>2013-09-21T08:34:59Z</time>
      </trkpt>
      <trkpt lat="45.84728" lon="2.95419">
        <ele>970.79998779297</ele>
        <time>2013-09-21T08:35:04Z</time>
      </trkpt>
      <trkpt lat="45.84701" lon="2.95372">
        <ele>970.79998779297</ele>
        <time>2013-09-21T08:35:10Z</time>
      </trkpt>
      <trkpt lat="45.84689" lon="2.95347">
        <ele>970.79998779297</ele>
        <time>2013-09-21T08:35:13Z</time>
      </trkpt>
      <trkpt lat="45.84682" lon="2.95329">
        <ele>970.79998779297</ele>
        <time>2013-09-21T08:35:15Z</time>
      </trkpt>
      <trkpt lat="45.84678" lon="2.9532">
        <ele>970.40002441406</ele>
        <time>2013-09-21T08:35:16Z</time>
      </trkpt>
      <trkpt lat="45.84669" lon="2.95302">
        <ele>969.40002441406</ele>
        <time>2013-09-21T08:35:18Z</time>
      </trkpt>
      <trkpt lat="45.84665" lon="2.95292">
        <ele>969</ele>
        <time>2013-09-21T08:35:19Z</time>
      </trkpt>
      <trkpt lat="45.84655" lon="2.95271">
        <ele>968.20001220703</ele>
        <time>2013-09-21T08:35:21Z</time>
      </trkpt>
      <trkpt lat="45.84651" lon="2.9526">
        <ele>967.79998779297</ele>
        <time>2013-09-21T08:35:22Z</time>
      </trkpt>
      <trkpt lat="45.84651" lon="2.95247">
        <ele>967.40002441406</ele>
        <time>2013-09-21T08:35:23Z</time>
      </trkpt>
      <trkpt lat="45.84648" lon="2.95237">
        <ele>967</ele>
        <time>2013-09-21T08:35:24Z</time>
      </trkpt>
      <trkpt lat="45.84641" lon="2.95215">
        <ele>965.79998779297</ele>
        <time>2013-09-21T08:35:26Z</time>
      </trkpt>
      <trkpt lat="45.84636" lon="2.95202">
        <ele>965.20001220703</ele>
        <time>2013-09-21T08:35:27Z</time>
      </trkpt>
      <trkpt lat="45.84633" lon="2.95188">
        <ele>964.79998779297</ele>
        <time>2013-09-21T08:35:28Z</time>
      </trkpt>
      <trkpt lat="45.84638" lon="2.9517">
        <ele>964.20001220703</ele>
        <time>2013-09-21T08:35:29Z</time>
      </trkpt>
      <trkpt lat="45.84636" lon="2.95156">
        <ele>963.59997558594</ele>
        <time>2013-09-21T08:35:30Z</time>
      </trkpt>
      <trkpt lat="45.84634" lon="2.95141">
        <ele>963</ele>
        <time>2013-09-21T08:35:31Z</time>
      </trkpt>
      <trkpt lat="45.84632" lon="2.95127">
        <ele>962.59997558594</ele>
        <time>2013-09-21T08:35:32Z</time>
      </trkpt>
      <trkpt lat="45.84628" lon="2.95109">
        <ele>962</ele>
        <time>2013-09-21T08:35:33Z</time>
      </trkpt>
      <trkpt lat="45.84625" lon="2.95078">
        <ele>961</ele>
        <time>2013-09-21T08:35:35Z</time>
      </trkpt>
      <trkpt lat="45.8462" lon="2.95061">
        <ele>960.59997558594</ele>
        <time>2013-09-21T08:35:36Z</time>
      </trkpt>
      <trkpt lat="45.84613" lon="2.95045">
        <ele>960</ele>
        <time>2013-09-21T08:35:37Z</time>
      </trkpt>
      <trkpt lat="45.84605" lon="2.95029">
        <ele>959.20001220703</ele>
        <time>2013-09-21T08:35:38Z</time>
      </trkpt>
      <trkpt lat="45.84598" lon="2.95017">
        <ele>958.59997558594</ele>
        <time>2013-09-21T08:35:39Z</time>
      </trkpt>
      <trkpt lat="45.84591" lon="2.95003">
        <ele>958</ele>
        <time>2013-09-21T08:35:40Z</time>
      </trkpt>
      <trkpt lat="45.84585" lon="2.94988">
        <ele>957.40002441406</ele>
        <time>2013-09-21T08:35:41Z</time>
      </trkpt>
      <trkpt lat="45.84581" lon="2.94972">
        <ele>956.79998779297</ele>
        <time>2013-09-21T08:35:42Z</time>
      </trkpt>
      <trkpt lat="45.84572" lon="2.94945">
        <ele>955.40002441406</ele>
        <time>2013-09-21T08:35:44Z</time>
      </trkpt>
      <trkpt lat="45.84565" lon="2.9492">
        <ele>954</ele>
        <time>2013-09-21T08:35:46Z</time>
      </trkpt>
      <trkpt lat="45.84561" lon="2.94908">
        <ele>953.40002441406</ele>
        <time>2013-09-21T08:35:47Z</time>
      </trkpt>
      <trkpt lat="45.84557" lon="2.94896">
        <ele>952.79998779297</ele>
        <time>2013-09-21T08:35:48Z</time>
      </trkpt>
      <trkpt lat="45.84551" lon="2.94884">
        <ele>952.79998779297</ele>
        <time>2013-09-21T08:35:49Z</time>
      </trkpt>
      <trkpt lat="45.84543" lon="2.94862">
        <ele>952.40002441406</ele>
        <time>2013-09-21T08:35:51Z</time>
      </trkpt>
      <trkpt lat="45.84538" lon="2.94849">
        <ele>951.79998779297</ele>
        <time>2013-09-21T08:35:52Z</time>
      </trkpt>
      <trkpt lat="45.84533" lon="2.94835">
        <ele>951.40002441406</ele>
        <time>2013-09-21T08:35:53Z</time>
      </trkpt>
      <trkpt lat="45.84529" lon="2.94821">
        <ele>951</ele>
        <time>2013-09-21T08:35:54Z</time>
      </trkpt>
      <trkpt lat="45.84526" lon="2.94808">
        <ele>950.40002441406</ele>
        <time>2013-09-21T08:35:55Z</time>
      </trkpt>
      <trkpt lat="45.8452" lon="2.9478">
        <ele>950.40002441406</ele>
        <time>2013-09-21T08:35:57Z</time>
      </trkpt>
      <trkpt lat="45.84517" lon="2.94764">
        <ele>950</ele>
        <time>2013-09-21T08:35:58Z</time>
      </trkpt>
      <trkpt lat="45.84515" lon="2.94748">
        <ele>949.59997558594</ele>
        <time>2013-09-21T08:35:59Z</time>
      </trkpt>
      <trkpt lat="45.84513" lon="2.94733">
        <ele>949.20001220703</ele>
        <time>2013-09-21T08:36:00Z</time>
      </trkpt>
      <trkpt lat="45.84512" lon="2.94718">
        <ele>948.79998779297</ele>
        <time>2013-09-21T08:36:01Z</time>
      </trkpt>
      <trkpt lat="45.84509" lon="2.94689">
        <ele>948.20001220703</ele>
        <time>2013-09-21T08:36:03Z</time>
      </trkpt>
      <trkpt lat="45.8451" lon="2.9465">
        <ele>948.20001220703</ele>
        <time>2013-09-21T08:36:06Z</time>
      </trkpt>
      <trkpt lat="45.84504" lon="2.946">
        <ele>947.79998779297</ele>
        <time>2013-09-21T08:36:10Z</time>
      </trkpt>
      <trkpt lat="45.84504" lon="2.94588">
        <ele>947.40002441406</ele>
        <time>2013-09-21T08:36:11Z</time>
      </trkpt>
      <trkpt lat="45.84504" lon="2.94575">
        <ele>946.79998779297</ele>
        <time>2013-09-21T08:36:12Z</time>
      </trkpt>
      <trkpt lat="45.84503" lon="2.94563">
        <ele>946.40002441406</ele>
        <time>2013-09-21T08:36:13Z</time>
      </trkpt>
      <trkpt lat="45.84502" lon="2.94551">
        <ele>946</ele>
        <time>2013-09-21T08:36:14Z</time>
      </trkpt>
      <trkpt lat="45.84501" lon="2.94539">
        <ele>946</ele>
        <time>2013-09-21T08:36:15Z</time>
      </trkpt>
      <trkpt lat="45.84494" lon="2.94468">
        <ele>945.59997558594</ele>
        <time>2013-09-21T08:36:21Z</time>
      </trkpt>
      <trkpt lat="45.84492" lon="2.94457">
        <ele>945</ele>
        <time>2013-09-21T08:36:22Z</time>
      </trkpt>
      <trkpt lat="45.8449" lon="2.94446">
        <ele>944.59997558594</ele>
        <time>2013-09-21T08:36:23Z</time>
      </trkpt>
      <trkpt lat="45.84486" lon="2.94432">
        <ele>944.20001220703</ele>
        <time>2013-09-21T08:36:24Z</time>
      </trkpt>
      <trkpt lat="45.84483" lon="2.94419">
        <ele>943.59997558594</ele>
        <time>2013-09-21T08:36:25Z</time>
      </trkpt>
      <trkpt lat="45.84481" lon="2.94389">
        <ele>943.20001220703</ele>
        <time>2013-09-21T08:36:27Z</time>
      </trkpt>
      <trkpt lat="45.84481" lon="2.94362">
        <ele>942.40002441406</ele>
        <time>2013-09-21T08:36:29Z</time>
      </trkpt>
      <trkpt lat="45.8448" lon="2.94349">
        <ele>942</ele>
        <time>2013-09-21T08:36:30Z</time>
      </trkpt>
      <trkpt lat="45.84478" lon="2.94336">
        <ele>941.59997558594</ele>
        <time>2013-09-21T08:36:31Z</time>
      </trkpt>
      <trkpt lat="45.84468" lon="2.94274">
        <ele>941.59997558594</ele>
        <time>2013-09-21T08:36:36Z</time>
      </trkpt>
      <trkpt lat="45.84462" lon="2.94249">
        <ele>941.20001220703</ele>
        <time>2013-09-21T08:36:38Z</time>
      </trkpt>
      <trkpt lat="45.84458" lon="2.94236">
        <ele>940.59997558594</ele>
        <time>2013-09-21T08:36:39Z</time>
      </trkpt>
      <trkpt lat="45.84455" lon="2.94224">
        <ele>940.20001220703</ele>
        <time>2013-09-21T08:36:40Z</time>
      </trkpt>
      <trkpt lat="45.8445" lon="2.942">
        <ele>939.40002441406</ele>
        <time>2013-09-21T08:36:42Z</time>
      </trkpt>
      <trkpt lat="45.84449" lon="2.94188">
        <ele>939.40002441406</ele>
        <time>2013-09-21T08:36:43Z</time>
      </trkpt>
      <trkpt lat="45.84433" lon="2.94115">
        <ele>939.40002441406</ele>
        <time>2013-09-21T08:36:49Z</time>
      </trkpt>
      <trkpt lat="45.84415" lon="2.9403">
        <ele>939</ele>
        <time>2013-09-21T08:36:56Z</time>
      </trkpt>
      <trkpt lat="45.84412" lon="2.94018">
        <ele>938.59997558594</ele>
        <time>2013-09-21T08:36:57Z</time>
      </trkpt>
      <trkpt lat="45.84408" lon="2.94007">
        <ele>938.20001220703</ele>
        <time>2013-09-21T08:36:58Z</time>
      </trkpt>
      <trkpt lat="45.84401" lon="2.93986">
        <ele>937.20001220703</ele>
        <time>2013-09-21T08:37:00Z</time>
      </trkpt>
      <trkpt lat="45.84391" lon="2.93955">
        <ele>937.20001220703</ele>
        <time>2013-09-21T08:37:03Z</time>
      </trkpt>
      <trkpt lat="45.84386" lon="2.93937">
        <ele>937.20001220703</ele>
        <time>2013-09-21T08:37:05Z</time>
      </trkpt>
      <trkpt lat="45.84392" lon="2.93921">
        <ele>937.20001220703</ele>
        <time>2013-09-21T08:37:08Z</time>
      </trkpt>
      <trkpt lat="45.84408" lon="2.93914">
        <ele>937.20001220703</ele>
        <time>2013-09-21T08:37:11Z</time>
      </trkpt>
      <trkpt lat="45.84414" lon="2.93911">
        <ele>937.20001220703</ele>
        <time>2013-09-21T08:37:12Z</time>
      </trkpt>
      <trkpt lat="45.84457" lon="2.93884">
        <ele>937.20001220703</ele>
        <time>2013-09-21T08:37:19Z</time>
      </trkpt>
      <trkpt lat="45.84499" lon="2.93856">
        <ele>937.20001220703</ele>
        <time>2013-09-21T08:37:26Z</time>
      </trkpt>
      <trkpt lat="45.84555" lon="2.93827">
        <ele>937.20001220703</ele>
        <time>2013-09-21T08:37:34Z</time>
      </trkpt>
      <trkpt lat="45.84585" lon="2.93809">
        <ele>937.20001220703</ele>
        <time>2013-09-21T08:37:38Z</time>
      </trkpt>
      <trkpt lat="45.84602" lon="2.93799">
        <ele>937.20001220703</ele>
        <time>2013-09-21T08:37:40Z</time>
      </trkpt>
      <trkpt lat="45.8462" lon="2.93792">
        <ele>936.79998779297</ele>
        <time>2013-09-21T08:37:42Z</time>
      </trkpt>
      <trkpt lat="45.84628" lon="2.93787">
        <ele>936.40002441406</ele>
        <time>2013-09-21T08:37:43Z</time>
      </trkpt>
      <trkpt lat="45.84637" lon="2.93782">
        <ele>936.40002441406</ele>
        <time>2013-09-21T08:37:44Z</time>
      </trkpt>
      <trkpt lat="45.84648" lon="2.93775">
        <ele>935.40002441406</ele>
        <time>2013-09-21T08:37:45Z</time>
      </trkpt>
      <trkpt lat="45.84658" lon="2.93768">
        <ele>935</ele>
        <time>2013-09-21T08:37:46Z</time>
      </trkpt>
      <trkpt lat="45.84675" lon="2.93756">
        <ele>934</ele>
        <time>2013-09-21T08:37:48Z</time>
      </trkpt>
      <trkpt lat="45.84684" lon="2.9375">
        <ele>933.59997558594</ele>
        <time>2013-09-21T08:37:49Z</time>
      </trkpt>
      <trkpt lat="45.84692" lon="2.93745">
        <ele>933.20001220703</ele>
        <time>2013-09-21T08:37:50Z</time>
      </trkpt>
      <trkpt lat="45.84699" lon="2.93739">
        <ele>932.59997558594</ele>
        <time>2013-09-21T08:37:51Z</time>
      </trkpt>
      <trkpt lat="45.84716" lon="2.9371">
        <ele>932.20001220703</ele>
        <time>2013-09-21T08:37:54Z</time>
      </trkpt>
      <trkpt lat="45.84721" lon="2.93698">
        <ele>931.79998779297</ele>
        <time>2013-09-21T08:37:55Z</time>
      </trkpt>
      <trkpt lat="45.84726" lon="2.93686">
        <ele>931.40002441406</ele>
        <time>2013-09-21T08:37:56Z</time>
      </trkpt>
      <trkpt lat="45.84731" lon="2.93675">
        <ele>930.79998779297</ele>
        <time>2013-09-21T08:37:57Z</time>
      </trkpt>
      <trkpt lat="45.84737" lon="2.93664">
        <ele>930.40002441406</ele>
        <time>2013-09-21T08:37:58Z</time>
      </trkpt>
      <trkpt lat="45.84744" lon="2.93654">
        <ele>929.79998779297</ele>
        <time>2013-09-21T08:37:59Z</time>
      </trkpt>
      <trkpt lat="45.84752" lon="2.93643">
        <ele>929.40002441406</ele>
        <time>2013-09-21T08:38:00Z</time>
      </trkpt>
      <trkpt lat="45.84759" lon="2.93633">
        <ele>928.79998779297</ele>
        <time>2013-09-21T08:38:01Z</time>
      </trkpt>
      <trkpt lat="45.84767" lon="2.93624">
        <ele>928</ele>
        <time>2013-09-21T08:38:02Z</time>
      </trkpt>
      <trkpt lat="45.84774" lon="2.93614">
        <ele>927.40002441406</ele>
        <time>2013-09-21T08:38:03Z</time>
      </trkpt>
      <trkpt lat="45.84781" lon="2.93602">
        <ele>926.59997558594</ele>
        <time>2013-09-21T08:38:04Z</time>
      </trkpt>
      <trkpt lat="45.84787" lon="2.93589">
        <ele>926</ele>
        <time>2013-09-21T08:38:05Z</time>
      </trkpt>
      <trkpt lat="45.84793" lon="2.93576">
        <ele>925.20001220703</ele>
        <time>2013-09-21T08:38:06Z</time>
      </trkpt>
      <trkpt lat="45.84798" lon="2.93561">
        <ele>924.40002441406</ele>
        <time>2013-09-21T08:38:07Z</time>
      </trkpt>
      <trkpt lat="45.84803" lon="2.93545">
        <ele>923.79998779297</ele>
        <time>2013-09-21T08:38:08Z</time>
      </trkpt>
      <trkpt lat="45.84808" lon="2.93531">
        <ele>922.79998779297</ele>
        <time>2013-09-21T08:38:09Z</time>
      </trkpt>
      <trkpt lat="45.84814" lon="2.93516">
        <ele>922</ele>
        <time>2013-09-21T08:38:10Z</time>
      </trkpt>
      <trkpt lat="45.8482" lon="2.93501">
        <ele>921</ele>
        <time>2013-09-21T08:38:11Z</time>
      </trkpt>
      <trkpt lat="45.84826" lon="2.93486">
        <ele>920</ele>
        <time>2013-09-21T08:38:12Z</time>
      </trkpt>
      <trkpt lat="45.84832" lon="2.93471">
        <ele>919.20001220703</ele>
        <time>2013-09-21T08:38:13Z</time>
      </trkpt>
      <trkpt lat="45.84837" lon="2.93456">
        <ele>918</ele>
        <time>2013-09-21T08:38:14Z</time>
      </trkpt>
      <trkpt lat="45.84843" lon="2.93441">
        <ele>917</ele>
        <time>2013-09-21T08:38:15Z</time>
      </trkpt>
      <trkpt lat="45.8485" lon="2.93427">
        <ele>916</ele>
        <time>2013-09-21T08:38:16Z</time>
      </trkpt>
      <trkpt lat="45.84855" lon="2.93412">
        <ele>915</ele>
        <time>2013-09-21T08:38:17Z</time>
      </trkpt>
      <trkpt lat="45.8486" lon="2.93396">
        <ele>914</ele>
        <time>2013-09-21T08:38:18Z</time>
      </trkpt>
      <trkpt lat="45.84864" lon="2.93381">
        <ele>912.79998779297</ele>
        <time>2013-09-21T08:38:19Z</time>
      </trkpt>
      <trkpt lat="45.84867" lon="2.93366">
        <ele>912.20001220703</ele>
        <time>2013-09-21T08:38:20Z</time>
      </trkpt>
      <trkpt lat="45.8487" lon="2.93351">
        <ele>911.40002441406</ele>
        <time>2013-09-21T08:38:21Z</time>
      </trkpt>
      <trkpt lat="45.84872" lon="2.93334">
        <ele>910.79998779297</ele>
        <time>2013-09-21T08:38:22Z</time>
      </trkpt>
      <trkpt lat="45.84874" lon="2.93317">
        <ele>910</ele>
        <time>2013-09-21T08:38:23Z</time>
      </trkpt>
      <trkpt lat="45.84877" lon="2.93301">
        <ele>909.40002441406</ele>
        <time>2013-09-21T08:38:24Z</time>
      </trkpt>
      <trkpt lat="45.84897" lon="2.93242">
        <ele>909</ele>
        <time>2013-09-21T08:38:28Z</time>
      </trkpt>
      <trkpt lat="45.84903" lon="2.93228">
        <ele>908.59997558594</ele>
        <time>2013-09-21T08:38:29Z</time>
      </trkpt>
      <trkpt lat="45.84908" lon="2.93214">
        <ele>908.20001220703</ele>
        <time>2013-09-21T08:38:30Z</time>
      </trkpt>
      <trkpt lat="45.84912" lon="2.932">
        <ele>907.59997558594</ele>
        <time>2013-09-21T08:38:31Z</time>
      </trkpt>
      <trkpt lat="45.84919" lon="2.93186">
        <ele>907.20001220703</ele>
        <time>2013-09-21T08:38:32Z</time>
      </trkpt>
      <trkpt lat="45.84928" lon="2.93159">
        <ele>907.20001220703</ele>
        <time>2013-09-21T08:38:34Z</time>
      </trkpt>
      <trkpt lat="45.84944" lon="2.93117">
        <ele>906.79998779297</ele>
        <time>2013-09-21T08:38:37Z</time>
      </trkpt>
      <trkpt lat="45.84949" lon="2.93103">
        <ele>906.40002441406</ele>
        <time>2013-09-21T08:38:38Z</time>
      </trkpt>
      <trkpt lat="45.84954" lon="2.93089">
        <ele>906</ele>
        <time>2013-09-21T08:38:39Z</time>
      </trkpt>
      <trkpt lat="45.84959" lon="2.93074">
        <ele>905.40002441406</ele>
        <time>2013-09-21T08:38:40Z</time>
      </trkpt>
      <trkpt lat="45.84964" lon="2.9306">
        <ele>904.79998779297</ele>
        <time>2013-09-21T08:38:41Z</time>
      </trkpt>
      <trkpt lat="45.8497" lon="2.93045">
        <ele>904.20001220703</ele>
        <time>2013-09-21T08:38:42Z</time>
      </trkpt>
      <trkpt lat="45.84977" lon="2.93031">
        <ele>903.59997558594</ele>
        <time>2013-09-21T08:38:43Z</time>
      </trkpt>
      <trkpt lat="45.84988" lon="2.93003">
        <ele>902.40002441406</ele>
        <time>2013-09-21T08:38:45Z</time>
      </trkpt>
      <trkpt lat="45.84993" lon="2.9299">
        <ele>902</ele>
        <time>2013-09-21T08:38:46Z</time>
      </trkpt>
      <trkpt lat="45.84998" lon="2.92975">
        <ele>901.40002441406</ele>
        <time>2013-09-21T08:38:47Z</time>
      </trkpt>
      <trkpt lat="45.85003" lon="2.9296">
        <ele>900.79998779297</ele>
        <time>2013-09-21T08:38:48Z</time>
      </trkpt>
      <trkpt lat="45.85006" lon="2.92945">
        <ele>900.20001220703</ele>
        <time>2013-09-21T08:38:49Z</time>
      </trkpt>
      <trkpt lat="45.85011" lon="2.9293">
        <ele>899.40002441406</ele>
        <time>2013-09-21T08:38:50Z</time>
      </trkpt>
      <trkpt lat="45.85014" lon="2.92916">
        <ele>898.79998779297</ele>
        <time>2013-09-21T08:38:51Z</time>
      </trkpt>
      <trkpt lat="45.85018" lon="2.92901">
        <ele>898.20001220703</ele>
        <time>2013-09-21T08:38:52Z</time>
      </trkpt>
      <trkpt lat="45.85022" lon="2.92886">
        <ele>897.59997558594</ele>
        <time>2013-09-21T08:38:53Z</time>
      </trkpt>
      <trkpt lat="45.85035" lon="2.92844">
        <ele>897.20001220703</ele>
        <time>2013-09-21T08:38:56Z</time>
      </trkpt>
      <trkpt lat="45.8504" lon="2.92831">
        <ele>896.79998779297</ele>
        <time>2013-09-21T08:38:57Z</time>
      </trkpt>
      <trkpt lat="45.85044" lon="2.92818">
        <ele>896.20001220703</ele>
        <time>2013-09-21T08:38:58Z</time>
      </trkpt>
      <trkpt lat="45.85048" lon="2.92804">
        <ele>895.79998779297</ele>
        <time>2013-09-21T08:38:59Z</time>
      </trkpt>
      <trkpt lat="45.85052" lon="2.92792">
        <ele>895.40002441406</ele>
        <time>2013-09-21T08:39:00Z</time>
      </trkpt>
      <trkpt lat="45.85067" lon="2.92738">
        <ele>895</ele>
        <time>2013-09-21T08:39:04Z</time>
      </trkpt>
      <trkpt lat="45.85071" lon="2.92724">
        <ele>894.59997558594</ele>
        <time>2013-09-21T08:39:05Z</time>
      </trkpt>
      <trkpt lat="45.85075" lon="2.92711">
        <ele>894.20001220703</ele>
        <time>2013-09-21T08:39:06Z</time>
      </trkpt>
      <trkpt lat="45.85079" lon="2.92698">
        <ele>893.79998779297</ele>
        <time>2013-09-21T08:39:07Z</time>
      </trkpt>
      <trkpt lat="45.85083" lon="2.92685">
        <ele>893.40002441406</ele>
        <time>2013-09-21T08:39:08Z</time>
      </trkpt>
      <trkpt lat="45.85094" lon="2.92665">
        <ele>893.40002441406</ele>
        <time>2013-09-21T08:39:10Z</time>
      </trkpt>
      <trkpt lat="45.85099" lon="2.92655">
        <ele>893.40002441406</ele>
        <time>2013-09-21T08:39:11Z</time>
      </trkpt>
      <trkpt lat="45.85105" lon="2.92647">
        <ele>893.40002441406</ele>
        <time>2013-09-21T08:39:12Z</time>
      </trkpt>
      <trkpt lat="45.85123" lon="2.92627">
        <ele>893.40002441406</ele>
        <time>2013-09-21T08:39:15Z</time>
      </trkpt>
      <trkpt lat="45.85135" lon="2.92618">
        <ele>893</ele>
        <time>2013-09-21T08:39:17Z</time>
      </trkpt>
      <trkpt lat="45.85144" lon="2.92615">
        <ele>892.20001220703</ele>
        <time>2013-09-21T08:39:19Z</time>
      </trkpt>
      <trkpt lat="45.85151" lon="2.92613">
        <ele>891.40002441406</ele>
        <time>2013-09-21T08:39:21Z</time>
      </trkpt>
      <trkpt lat="45.85157" lon="2.92608">
        <ele>891.40002441406</ele>
        <time>2013-09-21T08:39:23Z</time>
      </trkpt>
      <trkpt lat="45.85154" lon="2.92597">
        <ele>891.40002441406</ele>
        <time>2013-09-21T08:39:27Z</time>
      </trkpt>
      <trkpt lat="45.8514" lon="2.92602">
        <ele>891.40002441406</ele>
        <time>2013-09-21T08:39:30Z</time>
      </trkpt>
      <trkpt lat="45.85118" lon="2.92608">
        <ele>891.40002441406</ele>
        <time>2013-09-21T08:39:34Z</time>
      </trkpt>
      <trkpt lat="45.85109" lon="2.92602">
        <ele>890.79998779297</ele>
        <time>2013-09-21T08:39:36Z</time>
      </trkpt>
      <trkpt lat="45.85109" lon="2.92593">
        <ele>890.40002441406</ele>
        <time>2013-09-21T08:39:37Z</time>
      </trkpt>
      <trkpt lat="45.85109" lon="2.92584">
        <ele>889.79998779297</ele>
        <time>2013-09-21T08:39:38Z</time>
      </trkpt>
      <trkpt lat="45.85109" lon="2.92575">
        <ele>889.20001220703</ele>
        <time>2013-09-21T08:39:39Z</time>
      </trkpt>
      <trkpt lat="45.85109" lon="2.92564">
        <ele>888.79998779297</ele>
        <time>2013-09-21T08:39:40Z</time>
      </trkpt>
      <trkpt lat="45.85109" lon="2.92553">
        <ele>888.79998779297</ele>
        <time>2013-09-21T08:39:41Z</time>
      </trkpt>
      <trkpt lat="45.85107" lon="2.92541">
        <ele>888.79998779297</ele>
        <time>2013-09-21T08:39:42Z</time>
      </trkpt>
      <trkpt lat="45.85097" lon="2.92509">
        <ele>888.79998779297</ele>
        <time>2013-09-21T08:39:45Z</time>
      </trkpt>
      <trkpt lat="45.85092" lon="2.92499">
        <ele>888.79998779297</ele>
        <time>2013-09-21T08:39:46Z</time>
      </trkpt>
      <trkpt lat="45.85088" lon="2.92489">
        <ele>888.40002441406</ele>
        <time>2013-09-21T08:39:47Z</time>
      </trkpt>
      <trkpt lat="45.85084" lon="2.92479">
        <ele>887.79998779297</ele>
        <time>2013-09-21T08:39:48Z</time>
      </trkpt>
      <trkpt lat="45.85077" lon="2.92461">
        <ele>887</ele>
        <time>2013-09-21T08:39:50Z</time>
      </trkpt>
      <trkpt lat="45.85074" lon="2.92452">
        <ele>886.59997558594</ele>
        <time>2013-09-21T08:39:51Z</time>
      </trkpt>
      <trkpt lat="45.85064" lon="2.92423">
        <ele>886.59997558594</ele>
        <time>2013-09-21T08:39:54Z</time>
      </trkpt>
      <trkpt lat="45.85051" lon="2.92392">
        <ele>886.59997558594</ele>
        <time>2013-09-21T08:39:58Z</time>
      </trkpt>
      <trkpt lat="45.85042" lon="2.92363">
        <ele>886.59997558594</ele>
        <time>2013-09-21T08:40:03Z</time>
      </trkpt>
      <trkpt lat="45.8504" lon="2.92348">
        <ele>886.59997558594</ele>
        <time>2013-09-21T08:40:05Z</time>
      </trkpt>
      <trkpt lat="45.85039" lon="2.92338">
        <ele>886.59997558594</ele>
        <time>2013-09-21T08:40:06Z</time>
      </trkpt>
      <trkpt lat="45.85034" lon="2.92314">
        <ele>886.59997558594</ele>
        <time>2013-09-21T08:40:08Z</time>
      </trkpt>
      <trkpt lat="45.85028" lon="2.92291">
        <ele>886.59997558594</ele>
        <time>2013-09-21T08:40:10Z</time>
      </trkpt>
      <trkpt lat="45.85024" lon="2.92254">
        <ele>886</ele>
        <time>2013-09-21T08:40:13Z</time>
      </trkpt>
      <trkpt lat="45.85024" lon="2.9224">
        <ele>885.59997558594</ele>
        <time>2013-09-21T08:40:14Z</time>
      </trkpt>
      <trkpt lat="45.85024" lon="2.92225">
        <ele>885</ele>
        <time>2013-09-21T08:40:15Z</time>
      </trkpt>
      <trkpt lat="45.85024" lon="2.92211">
        <ele>884.40002441406</ele>
        <time>2013-09-21T08:40:16Z</time>
      </trkpt>
      <trkpt lat="45.85022" lon="2.92198">
        <ele>883.79998779297</ele>
        <time>2013-09-21T08:40:17Z</time>
      </trkpt>
      <trkpt lat="45.85019" lon="2.92186">
        <ele>883.20001220703</ele>
        <time>2013-09-21T08:40:18Z</time>
      </trkpt>
      <trkpt lat="45.85014" lon="2.92177">
        <ele>882.40002441406</ele>
        <time>2013-09-21T08:40:19Z</time>
      </trkpt>
      <trkpt lat="45.85007" lon="2.92171">
        <ele>881.79998779297</ele>
        <time>2013-09-21T08:40:20Z</time>
      </trkpt>
      <trkpt lat="45.84998" lon="2.92166">
        <ele>881.79998779297</ele>
        <time>2013-09-21T08:40:21Z</time>
      </trkpt>
      <trkpt lat="45.8499" lon="2.92162">
        <ele>881.79998779297</ele>
        <time>2013-09-21T08:40:22Z</time>
      </trkpt>
      <trkpt lat="45.84958" lon="2.92137">
        <ele>881.40002441406</ele>
        <time>2013-09-21T08:40:26Z</time>
      </trkpt>
      <trkpt lat="45.84953" lon="2.92127">
        <ele>880.79998779297</ele>
        <time>2013-09-21T08:40:27Z</time>
      </trkpt>
      <trkpt lat="45.84948" lon="2.92116">
        <ele>880.40002441406</ele>
        <time>2013-09-21T08:40:28Z</time>
      </trkpt>
      <trkpt lat="45.84942" lon="2.92105">
        <ele>879.79998779297</ele>
        <time>2013-09-21T08:40:29Z</time>
      </trkpt>
      <trkpt lat="45.84937" lon="2.92094">
        <ele>879.40002441406</ele>
        <time>2013-09-21T08:40:30Z</time>
      </trkpt>
      <trkpt lat="45.8493" lon="2.92069">
        <ele>879.40002441406</ele>
        <time>2013-09-21T08:40:32Z</time>
      </trkpt>
      <trkpt lat="45.84927" lon="2.92029">
        <ele>879.40002441406</ele>
        <time>2013-09-21T08:40:35Z</time>
      </trkpt>
      <trkpt lat="45.84925" lon="2.92016">
        <ele>879</ele>
        <time>2013-09-21T08:40:36Z</time>
      </trkpt>
      <trkpt lat="45.84922" lon="2.92004">
        <ele>878.59997558594</ele>
        <time>2013-09-21T08:40:37Z</time>
      </trkpt>
      <trkpt lat="45.84917" lon="2.91993">
        <ele>878.20001220703</ele>
        <time>2013-09-21T08:40:38Z</time>
      </trkpt>
      <trkpt lat="45.84912" lon="2.91984">
        <ele>877.79998779297</ele>
        <time>2013-09-21T08:40:39Z</time>
      </trkpt>
      <trkpt lat="45.84905" lon="2.91978">
        <ele>877.40002441406</ele>
        <time>2013-09-21T08:40:40Z</time>
      </trkpt>
      <trkpt lat="45.84897" lon="2.91974">
        <ele>877.40002441406</ele>
        <time>2013-09-21T08:40:41Z</time>
      </trkpt>
      <trkpt lat="45.84887" lon="2.91965">
        <ele>877</ele>
        <time>2013-09-21T08:40:43Z</time>
      </trkpt>
      <trkpt lat="45.84883" lon="2.91959">
        <ele>876.59997558594</ele>
        <time>2013-09-21T08:40:44Z</time>
      </trkpt>
      <trkpt lat="45.8488" lon="2.91943">
        <ele>875.79998779297</ele>
        <time>2013-09-21T08:40:46Z</time>
      </trkpt>
      <trkpt lat="45.84881" lon="2.91933">
        <ele>875.40002441406</ele>
        <time>2013-09-21T08:40:47Z</time>
      </trkpt>
      <trkpt lat="45.84882" lon="2.91924">
        <ele>874.79998779297</ele>
        <time>2013-09-21T08:40:48Z</time>
      </trkpt>
      <trkpt lat="45.84883" lon="2.91913">
        <ele>874.40002441406</ele>
        <time>2013-09-21T08:40:49Z</time>
      </trkpt>
      <trkpt lat="45.84884" lon="2.91903">
        <ele>874</ele>
        <time>2013-09-21T08:40:50Z</time>
      </trkpt>
      <trkpt lat="45.84886" lon="2.91892">
        <ele>873.59997558594</ele>
        <time>2013-09-21T08:40:51Z</time>
      </trkpt>
      <trkpt lat="45.84887" lon="2.91882">
        <ele>873.20001220703</ele>
        <time>2013-09-21T08:40:52Z</time>
      </trkpt>
      <trkpt lat="45.84893" lon="2.91849">
        <ele>873.20001220703</ele>
        <time>2013-09-21T08:40:56Z</time>
      </trkpt>
      <trkpt lat="45.84896" lon="2.91825">
        <ele>873.20001220703</ele>
        <time>2013-09-21T08:41:00Z</time>
      </trkpt>
      <trkpt lat="45.84887" lon="2.91808">
        <ele>873.20001220703</ele>
        <time>2013-09-21T08:41:04Z</time>
      </trkpt>
      <trkpt lat="45.84871" lon="2.91784">
        <ele>873.20001220703</ele>
        <time>2013-09-21T08:41:08Z</time>
      </trkpt>
      <trkpt lat="45.84861" lon="2.9177">
        <ele>872.79998779297</ele>
        <time>2013-09-21T08:41:10Z</time>
      </trkpt>
      <trkpt lat="45.84857" lon="2.91764">
        <ele>872.40002441406</ele>
        <time>2013-09-21T08:41:11Z</time>
      </trkpt>
      <trkpt lat="45.84848" lon="2.91752">
        <ele>871.40002441406</ele>
        <time>2013-09-21T08:41:13Z</time>
      </trkpt>
      <trkpt lat="45.8484" lon="2.91741">
        <ele>871</ele>
        <time>2013-09-21T08:41:15Z</time>
      </trkpt>
      <trkpt lat="45.84826" lon="2.9172">
        <ele>871</ele>
        <time>2013-09-21T08:41:19Z</time>
      </trkpt>
      <trkpt lat="45.84811" lon="2.917">
        <ele>871</ele>
        <time>2013-09-21T08:41:24Z</time>
      </trkpt>
      <trkpt lat="45.84798" lon="2.91675">
        <ele>870.59997558594</ele>
        <time>2013-09-21T08:41:29Z</time>
      </trkpt>
      <trkpt lat="45.84795" lon="2.91669">
        <ele>869</ele>
        <time>2013-09-21T08:41:46Z</time>
      </trkpt>
      <trkpt lat="45.8479" lon="2.91653">
        <ele>869</ele>
        <time>2013-09-21T08:41:51Z</time>
      </trkpt>
      <trkpt lat="45.84781" lon="2.91624">
        <ele>869</ele>
        <time>2013-09-21T08:41:57Z</time>
      </trkpt>
      <trkpt lat="45.84761" lon="2.91602">
        <ele>869</ele>
        <time>2013-09-21T08:42:03Z</time>
      </trkpt>
      <trkpt lat="45.84748" lon="2.91591">
        <ele>869</ele>
        <time>2013-09-21T08:42:09Z</time>
      </trkpt>
      <trkpt lat="45.84741" lon="2.91582">
        <ele>869</ele>
        <time>2013-09-21T08:42:14Z</time>
      </trkpt>
      <trkpt lat="45.84735" lon="2.9157">
        <ele>869</ele>
        <time>2013-09-21T08:42:19Z</time>
      </trkpt>
      <trkpt lat="45.84726" lon="2.9156">
        <ele>869</ele>
        <time>2013-09-21T08:42:24Z</time>
      </trkpt>
      <trkpt lat="45.84715" lon="2.91539">
        <ele>869</ele>
        <time>2013-09-21T08:42:31Z</time>
      </trkpt>
      <trkpt lat="45.84704" lon="2.91515">
        <ele>869</ele>
        <time>2013-09-21T08:42:40Z</time>
      </trkpt>
      <trkpt lat="45.84697" lon="2.91497">
        <ele>869</ele>
        <time>2013-09-21T08:42:46Z</time>
      </trkpt>
      <trkpt lat="45.84692" lon="2.91474">
        <ele>869</ele>
        <time>2013-09-21T08:42:52Z</time>
      </trkpt>
      <trkpt lat="45.84694" lon="2.91454">
        <ele>868.59997558594</ele>
        <time>2013-09-21T08:42:56Z</time>
      </trkpt>
      <trkpt lat="45.84694" lon="2.91449">
        <ele>868.20001220703</ele>
        <time>2013-09-21T08:42:57Z</time>
      </trkpt>
      <trkpt lat="45.84695" lon="2.91439">
        <ele>867.20001220703</ele>
        <time>2013-09-21T08:42:59Z</time>
      </trkpt>
      <trkpt lat="45.84694" lon="2.91425">
        <ele>866.79998779297</ele>
        <time>2013-09-21T08:43:02Z</time>
      </trkpt>
      <trkpt lat="45.84691" lon="2.91394">
        <ele>866.79998779297</ele>
        <time>2013-09-21T08:43:07Z</time>
      </trkpt>
      <trkpt lat="45.84692" lon="2.91389">
        <ele>866.40002441406</ele>
        <time>2013-09-21T08:43:08Z</time>
      </trkpt>
      <trkpt lat="45.84694" lon="2.91378">
        <ele>865.59997558594</ele>
        <time>2013-09-21T08:43:10Z</time>
      </trkpt>
      <trkpt lat="45.84694" lon="2.91367">
        <ele>864.59997558594</ele>
        <time>2013-09-21T08:43:12Z</time>
      </trkpt>
      <trkpt lat="45.84689" lon="2.91357">
        <ele>864.20001220703</ele>
        <time>2013-09-21T08:43:14Z</time>
      </trkpt>
      <trkpt lat="45.84678" lon="2.9135">
        <ele>862.79998779297</ele>
        <time>2013-09-21T08:43:17Z</time>
      </trkpt>
      <trkpt lat="45.84668" lon="2.91338">
        <ele>862.40002441406</ele>
        <time>2013-09-21T08:43:20Z</time>
      </trkpt>
      <trkpt lat="45.84663" lon="2.91329">
        <ele>861.79998779297</ele>
        <time>2013-09-21T08:43:22Z</time>
      </trkpt>
      <trkpt lat="45.84659" lon="2.91324">
        <ele>861.40002441406</ele>
        <time>2013-09-21T08:43:23Z</time>
      </trkpt>
      <trkpt lat="45.84655" lon="2.91318">
        <ele>861</ele>
        <time>2013-09-21T08:43:24Z</time>
      </trkpt>
      <trkpt lat="45.84649" lon="2.91308">
        <ele>860</ele>
        <time>2013-09-21T08:43:26Z</time>
      </trkpt>
      <trkpt lat="45.84641" lon="2.913">
        <ele>859.59997558594</ele>
        <time>2013-09-21T08:43:29Z</time>
      </trkpt>
      <trkpt lat="45.84638" lon="2.91297">
        <ele>859.20001220703</ele>
        <time>2013-09-21T08:43:30Z</time>
      </trkpt>
      <trkpt lat="45.84631" lon="2.91287">
        <ele>858</ele>
        <time>2013-09-21T08:43:33Z</time>
      </trkpt>
      <trkpt lat="45.84626" lon="2.91283">
        <ele>857.59997558594</ele>
        <time>2013-09-21T08:43:35Z</time>
      </trkpt>
      <trkpt lat="45.84617" lon="2.91278">
        <ele>856.40002441406</ele>
        <time>2013-09-21T08:43:38Z</time>
      </trkpt>
      <trkpt lat="45.84603" lon="2.91269">
        <ele>855.79998779297</ele>
        <time>2013-09-21T08:43:42Z</time>
      </trkpt>
      <trkpt lat="45.84591" lon="2.91254">
        <ele>855.40002441406</ele>
        <time>2013-09-21T08:43:46Z</time>
      </trkpt>
      <trkpt lat="45.84594" lon="2.91247">
        <ele>855</ele>
        <time>2013-09-21T08:43:47Z</time>
      </trkpt>
      <trkpt lat="45.84596" lon="2.91239">
        <ele>854.59997558594</ele>
        <time>2013-09-21T08:43:48Z</time>
      </trkpt>
      <trkpt lat="45.846" lon="2.91222">
        <ele>853.79998779297</ele>
        <time>2013-09-21T08:43:50Z</time>
      </trkpt>
      <trkpt lat="45.84604" lon="2.91202">
        <ele>853.79998779297</ele>
        <time>2013-09-21T08:43:52Z</time>
      </trkpt>
      <trkpt lat="45.84618" lon="2.91139">
        <ele>853.79998779297</ele>
        <time>2013-09-21T08:43:58Z</time>
      </trkpt>
      <trkpt lat="45.84621" lon="2.91129">
        <ele>853.40002441406</ele>
        <time>2013-09-21T08:43:59Z</time>
      </trkpt>
      <trkpt lat="45.84624" lon="2.91117">
        <ele>853</ele>
        <time>2013-09-21T08:44:00Z</time>
      </trkpt>
      <trkpt lat="45.84627" lon="2.91106">
        <ele>852.59997558594</ele>
        <time>2013-09-21T08:44:01Z</time>
      </trkpt>
      <trkpt lat="45.8463" lon="2.91095">
        <ele>852.20001220703</ele>
        <time>2013-09-21T08:44:02Z</time>
      </trkpt>
      <trkpt lat="45.84633" lon="2.91084">
        <ele>851.79998779297</ele>
        <time>2013-09-21T08:44:03Z</time>
      </trkpt>
      <trkpt lat="45.84638" lon="2.91063">
        <ele>851.79998779297</ele>
        <time>2013-09-21T08:44:05Z</time>
      </trkpt>
      <trkpt lat="45.84641" lon="2.91043">
        <ele>851.79998779297</ele>
        <time>2013-09-21T08:44:07Z</time>
      </trkpt>
      <trkpt lat="45.84642" lon="2.91023">
        <ele>851.79998779297</ele>
        <time>2013-09-21T08:44:09Z</time>
      </trkpt>
      <trkpt lat="45.84645" lon="2.90963">
        <ele>851.79998779297</ele>
        <time>2013-09-21T08:44:14Z</time>
      </trkpt>
      <trkpt lat="45.84647" lon="2.90937">
        <ele>851.40002441406</ele>
        <time>2013-09-21T08:44:16Z</time>
      </trkpt>
      <trkpt lat="45.84648" lon="2.90925">
        <ele>851</ele>
        <time>2013-09-21T08:44:17Z</time>
      </trkpt>
      <trkpt lat="45.84648" lon="2.90912">
        <ele>850.59997558594</ele>
        <time>2013-09-21T08:44:18Z</time>
      </trkpt>
      <trkpt lat="45.84649" lon="2.909">
        <ele>850.20001220703</ele>
        <time>2013-09-21T08:44:19Z</time>
      </trkpt>
      <trkpt lat="45.84648" lon="2.90888">
        <ele>849.79998779297</ele>
        <time>2013-09-21T08:44:20Z</time>
      </trkpt>
      <trkpt lat="45.84646" lon="2.90876">
        <ele>849.79998779297</ele>
        <time>2013-09-21T08:44:21Z</time>
      </trkpt>
      <trkpt lat="45.84634" lon="2.90829">
        <ele>849.79998779297</ele>
        <time>2013-09-21T08:44:25Z</time>
      </trkpt>
      <trkpt lat="45.84625" lon="2.90794">
        <ele>849.79998779297</ele>
        <time>2013-09-21T08:44:28Z</time>
      </trkpt>
      <trkpt lat="45.84622" lon="2.9077">
        <ele>849.20001220703</ele>
        <time>2013-09-21T08:44:30Z</time>
      </trkpt>
      <trkpt lat="45.84621" lon="2.90758">
        <ele>848.79998779297</ele>
        <time>2013-09-21T08:44:31Z</time>
      </trkpt>
      <trkpt lat="45.84623" lon="2.90746">
        <ele>848.40002441406</ele>
        <time>2013-09-21T08:44:32Z</time>
      </trkpt>
      <trkpt lat="45.84624" lon="2.90734">
        <ele>847.79998779297</ele>
        <time>2013-09-21T08:44:33Z</time>
      </trkpt>
      <trkpt lat="45.84626" lon="2.90721">
        <ele>847.40002441406</ele>
        <time>2013-09-21T08:44:34Z</time>
      </trkpt>
      <trkpt lat="45.8463" lon="2.90683">
        <ele>847</ele>
        <time>2013-09-21T08:44:37Z</time>
      </trkpt>
      <trkpt lat="45.84629" lon="2.9067">
        <ele>846.59997558594</ele>
        <time>2013-09-21T08:44:38Z</time>
      </trkpt>
      <trkpt lat="45.84625" lon="2.90655">
        <ele>845.79998779297</ele>
        <time>2013-09-21T08:44:39Z</time>
      </trkpt>
      <trkpt lat="45.8462" lon="2.90641">
        <ele>845.20001220703</ele>
        <time>2013-09-21T08:44:40Z</time>
      </trkpt>
      <trkpt lat="45.84618" lon="2.90628">
        <ele>844.40002441406</ele>
        <time>2013-09-21T08:44:41Z</time>
      </trkpt>
      <trkpt lat="45.84617" lon="2.90613">
        <ele>843.59997558594</ele>
        <time>2013-09-21T08:44:42Z</time>
      </trkpt>
      <trkpt lat="45.84618" lon="2.90599">
        <ele>842.79998779297</ele>
        <time>2013-09-21T08:44:43Z</time>
      </trkpt>
      <trkpt lat="45.8462" lon="2.90585">
        <ele>841.79998779297</ele>
        <time>2013-09-21T08:44:44Z</time>
      </trkpt>
      <trkpt lat="45.84623" lon="2.90571">
        <ele>841</ele>
        <time>2013-09-21T08:44:45Z</time>
      </trkpt>
      <trkpt lat="45.84626" lon="2.90556">
        <ele>840.59997558594</ele>
        <time>2013-09-21T08:44:46Z</time>
      </trkpt>
      <trkpt lat="45.84629" lon="2.90542">
        <ele>840</ele>
        <time>2013-09-21T08:44:47Z</time>
      </trkpt>
      <trkpt lat="45.84634" lon="2.90525">
        <ele>839.40002441406</ele>
        <time>2013-09-21T08:44:48Z</time>
      </trkpt>
      <trkpt lat="45.84638" lon="2.90508">
        <ele>838.59997558594</ele>
        <time>2013-09-21T08:44:49Z</time>
      </trkpt>
      <trkpt lat="45.8464" lon="2.9049">
        <ele>837.59997558594</ele>
        <time>2013-09-21T08:44:50Z</time>
      </trkpt>
      <trkpt lat="45.84641" lon="2.90472">
        <ele>836.79998779297</ele>
        <time>2013-09-21T08:44:51Z</time>
      </trkpt>
      <trkpt lat="45.8464" lon="2.90453">
        <ele>836</ele>
        <time>2013-09-21T08:44:52Z</time>
      </trkpt>
      <trkpt lat="45.84638" lon="2.90435">
        <ele>835.20001220703</ele>
        <time>2013-09-21T08:44:53Z</time>
      </trkpt>
      <trkpt lat="45.84637" lon="2.90417">
        <ele>834.40002441406</ele>
        <time>2013-09-21T08:44:54Z</time>
      </trkpt>
      <trkpt lat="45.84636" lon="2.90399">
        <ele>833.59997558594</ele>
        <time>2013-09-21T08:44:55Z</time>
      </trkpt>
      <trkpt lat="45.84634" lon="2.90382">
        <ele>832.79998779297</ele>
        <time>2013-09-21T08:44:56Z</time>
      </trkpt>
      <trkpt lat="45.84632" lon="2.90365">
        <ele>832.20001220703</ele>
        <time>2013-09-21T08:44:57Z</time>
      </trkpt>
      <trkpt lat="45.84629" lon="2.90348">
        <ele>831.59997558594</ele>
        <time>2013-09-21T08:44:58Z</time>
      </trkpt>
      <trkpt lat="45.84624" lon="2.90332">
        <ele>831</ele>
        <time>2013-09-21T08:44:59Z</time>
      </trkpt>
      <trkpt lat="45.84619" lon="2.90317">
        <ele>830.20001220703</ele>
        <time>2013-09-21T08:45:00Z</time>
      </trkpt>
      <trkpt lat="45.84613" lon="2.90301">
        <ele>829.59997558594</ele>
        <time>2013-09-21T08:45:01Z</time>
      </trkpt>
      <trkpt lat="45.84607" lon="2.90287">
        <ele>829</ele>
        <time>2013-09-21T08:45:02Z</time>
      </trkpt>
      <trkpt lat="45.84602" lon="2.90272">
        <ele>828.20001220703</ele>
        <time>2013-09-21T08:45:03Z</time>
      </trkpt>
      <trkpt lat="45.84596" lon="2.90258">
        <ele>827.59997558594</ele>
        <time>2013-09-21T08:45:04Z</time>
      </trkpt>
      <trkpt lat="45.8459" lon="2.90243">
        <ele>827</ele>
        <time>2013-09-21T08:45:05Z</time>
      </trkpt>
      <trkpt lat="45.84585" lon="2.90228">
        <ele>826.59997558594</ele>
        <time>2013-09-21T08:45:06Z</time>
      </trkpt>
      <trkpt lat="45.8458" lon="2.90213">
        <ele>826</ele>
        <time>2013-09-21T08:45:07Z</time>
      </trkpt>
      <trkpt lat="45.84576" lon="2.90198">
        <ele>825.40002441406</ele>
        <time>2013-09-21T08:45:08Z</time>
      </trkpt>
      <trkpt lat="45.8457" lon="2.90174">
        <ele>825.40002441406</ele>
        <time>2013-09-21T08:45:10Z</time>
      </trkpt>
      <trkpt lat="45.84568" lon="2.90165">
        <ele>824.79998779297</ele>
        <time>2013-09-21T08:45:11Z</time>
      </trkpt>
      <trkpt lat="45.84566" lon="2.90158">
        <ele>824</ele>
        <time>2013-09-21T08:45:12Z</time>
      </trkpt>
      <trkpt lat="45.84569" lon="2.90145">
        <ele>822.40002441406</ele>
        <time>2013-09-21T08:45:14Z</time>
      </trkpt>
      <trkpt lat="45.84573" lon="2.90139">
        <ele>821.59997558594</ele>
        <time>2013-09-21T08:45:15Z</time>
      </trkpt>
      <trkpt lat="45.84583" lon="2.90132">
        <ele>820</ele>
        <time>2013-09-21T08:45:17Z</time>
      </trkpt>
      <trkpt lat="45.84589" lon="2.90128">
        <ele>820</ele>
        <time>2013-09-21T08:45:18Z</time>
      </trkpt>
      <trkpt lat="45.84595" lon="2.90124">
        <ele>820</ele>
        <time>2013-09-21T08:45:19Z</time>
      </trkpt>
      <trkpt lat="45.84607" lon="2.90116">
        <ele>819.59997558594</ele>
        <time>2013-09-21T08:45:21Z</time>
      </trkpt>
      <trkpt lat="45.84613" lon="2.90111">
        <ele>819.20001220703</ele>
        <time>2013-09-21T08:45:22Z</time>
      </trkpt>
      <trkpt lat="45.8462" lon="2.90107">
        <ele>818.59997558594</ele>
        <time>2013-09-21T08:45:23Z</time>
      </trkpt>
      <trkpt lat="45.84624" lon="2.90103">
        <ele>818.20001220703</ele>
        <time>2013-09-21T08:45:24Z</time>
      </trkpt>
      <trkpt lat="45.8463" lon="2.90099">
        <ele>817.79998779297</ele>
        <time>2013-09-21T08:45:25Z</time>
      </trkpt>
      <trkpt lat="45.84635" lon="2.90095">
        <ele>817.79998779297</ele>
        <time>2013-09-21T08:45:26Z</time>
      </trkpt>
      <trkpt lat="45.84644" lon="2.90086">
        <ele>817.79998779297</ele>
        <time>2013-09-21T08:45:28Z</time>
      </trkpt>
      <trkpt lat="45.84648" lon="2.90066">
        <ele>817.79998779297</ele>
        <time>2013-09-21T08:45:30Z</time>
      </trkpt>
      <trkpt lat="45.84655" lon="2.90054">
        <ele>817.40002441406</ele>
        <time>2013-09-21T08:45:32Z</time>
      </trkpt>
      <trkpt lat="45.84661" lon="2.90047">
        <ele>816.40002441406</ele>
        <time>2013-09-21T08:45:34Z</time>
      </trkpt>
      <trkpt lat="45.84665" lon="2.90036">
        <ele>815.40002441406</ele>
        <time>2013-09-21T08:45:37Z</time>
      </trkpt>
      <trkpt lat="45.84674" lon="2.90013">
        <ele>815</ele>
        <time>2013-09-21T08:45:41Z</time>
      </trkpt>
      <trkpt lat="45.84677" lon="2.90007">
        <ele>814.40002441406</ele>
        <time>2013-09-21T08:45:42Z</time>
      </trkpt>
      <trkpt lat="45.84679" lon="2.89999">
        <ele>813.79998779297</ele>
        <time>2013-09-21T08:45:43Z</time>
      </trkpt>
      <trkpt lat="45.8468" lon="2.89992">
        <ele>813.40002441406</ele>
        <time>2013-09-21T08:45:44Z</time>
      </trkpt>
      <trkpt lat="45.84682" lon="2.89985">
        <ele>812.79998779297</ele>
        <time>2013-09-21T08:45:45Z</time>
      </trkpt>
      <trkpt lat="45.84682" lon="2.89968">
        <ele>812.40002441406</ele>
        <time>2013-09-21T08:45:47Z</time>
      </trkpt>
      <trkpt lat="45.84681" lon="2.8996">
        <ele>812</ele>
        <time>2013-09-21T08:45:48Z</time>
      </trkpt>
      <trkpt lat="45.84682" lon="2.89944">
        <ele>811.20001220703</ele>
        <time>2013-09-21T08:45:50Z</time>
      </trkpt>
      <trkpt lat="45.84682" lon="2.89937">
        <ele>810.79998779297</ele>
        <time>2013-09-21T08:45:51Z</time>
      </trkpt>
      <trkpt lat="45.84682" lon="2.89923">
        <ele>809.79998779297</ele>
        <time>2013-09-21T08:45:53Z</time>
      </trkpt>
      <trkpt lat="45.84683" lon="2.89917">
        <ele>809.40002441406</ele>
        <time>2013-09-21T08:45:54Z</time>
      </trkpt>
      <trkpt lat="45.84686" lon="2.89907">
        <ele>808.59997558594</ele>
        <time>2013-09-21T08:45:56Z</time>
      </trkpt>
      <trkpt lat="45.8469" lon="2.89897">
        <ele>807.59997558594</ele>
        <time>2013-09-21T08:45:58Z</time>
      </trkpt>
      <trkpt lat="45.84697" lon="2.89888">
        <ele>806.79998779297</ele>
        <time>2013-09-21T08:46:00Z</time>
      </trkpt>
      <trkpt lat="45.84702" lon="2.89883">
        <ele>806.20001220703</ele>
        <time>2013-09-21T08:46:01Z</time>
      </trkpt>
      <trkpt lat="45.84705" lon="2.89877">
        <ele>805.59997558594</ele>
        <time>2013-09-21T08:46:02Z</time>
      </trkpt>
      <trkpt lat="45.84715" lon="2.89866">
        <ele>804.40002441406</ele>
        <time>2013-09-21T08:46:04Z</time>
      </trkpt>
      <trkpt lat="45.84721" lon="2.89859">
        <ele>804</ele>
        <time>2013-09-21T08:46:05Z</time>
      </trkpt>
      <trkpt lat="45.84729" lon="2.89844">
        <ele>803</ele>
        <time>2013-09-21T08:46:07Z</time>
      </trkpt>
      <trkpt lat="45.84734" lon="2.89834">
        <ele>802.59997558594</ele>
        <time>2013-09-21T08:46:08Z</time>
      </trkpt>
      <trkpt lat="45.84739" lon="2.89824">
        <ele>802.20001220703</ele>
        <time>2013-09-21T08:46:09Z</time>
      </trkpt>
      <trkpt lat="45.84746" lon="2.89815">
        <ele>801.59997558594</ele>
        <time>2013-09-21T08:46:10Z</time>
      </trkpt>
      <trkpt lat="45.84761" lon="2.898">
        <ele>801.59997558594</ele>
        <time>2013-09-21T08:46:12Z</time>
      </trkpt>
      <trkpt lat="45.84777" lon="2.89786">
        <ele>801.59997558594</ele>
        <time>2013-09-21T08:46:14Z</time>
      </trkpt>
      <trkpt lat="45.84787" lon="2.8978">
        <ele>801.20001220703</ele>
        <time>2013-09-21T08:46:15Z</time>
      </trkpt>
      <trkpt lat="45.84796" lon="2.89774">
        <ele>800.79998779297</ele>
        <time>2013-09-21T08:46:16Z</time>
      </trkpt>
      <trkpt lat="45.84805" lon="2.89769">
        <ele>800.40002441406</ele>
        <time>2013-09-21T08:46:17Z</time>
      </trkpt>
      <trkpt lat="45.84816" lon="2.89762">
        <ele>799.79998779297</ele>
        <time>2013-09-21T08:46:18Z</time>
      </trkpt>
      <trkpt lat="45.84824" lon="2.89758">
        <ele>799.40002441406</ele>
        <time>2013-09-21T08:46:19Z</time>
      </trkpt>
      <trkpt lat="45.84836" lon="2.89751">
        <ele>799.40002441406</ele>
        <time>2013-09-21T08:46:21Z</time>
      </trkpt>
      <trkpt lat="45.84838" lon="2.89747">
        <ele>799.40002441406</ele>
        <time>2013-09-21T08:46:22Z</time>
      </trkpt>
      <trkpt lat="45.8484" lon="2.89717">
        <ele>799.40002441406</ele>
        <time>2013-09-21T08:46:26Z</time>
      </trkpt>
      <trkpt lat="45.84839" lon="2.89707">
        <ele>799.40002441406</ele>
        <time>2013-09-21T08:46:27Z</time>
      </trkpt>
      <trkpt lat="45.84834" lon="2.89674">
        <ele>799.40002441406</ele>
        <time>2013-09-21T08:46:30Z</time>
      </trkpt>
      <trkpt lat="45.84832" lon="2.89623">
        <ele>799.40002441406</ele>
        <time>2013-09-21T08:46:35Z</time>
      </trkpt>
      <trkpt lat="45.84835" lon="2.89607">
        <ele>799.79998779297</ele>
        <time>2013-09-21T08:46:37Z</time>
      </trkpt>
      <trkpt lat="45.8484" lon="2.89594">
        <ele>800.79998779297</ele>
        <time>2013-09-21T08:46:39Z</time>
      </trkpt>
      <trkpt lat="45.84841" lon="2.89588">
        <ele>801.40002441406</ele>
        <time>2013-09-21T08:46:40Z</time>
      </trkpt>
      <trkpt lat="45.84844" lon="2.89577">
        <ele>802.20001220703</ele>
        <time>2013-09-21T08:46:42Z</time>
      </trkpt>
      <trkpt lat="45.84846" lon="2.89567">
        <ele>803</ele>
        <time>2013-09-21T08:46:44Z</time>
      </trkpt>
      <trkpt lat="45.8485" lon="2.89555">
        <ele>803.79998779297</ele>
        <time>2013-09-21T08:46:46Z</time>
      </trkpt>
      <trkpt lat="45.84855" lon="2.89537">
        <ele>804.40002441406</ele>
        <time>2013-09-21T08:46:49Z</time>
      </trkpt>
      <trkpt lat="45.84859" lon="2.89525">
        <ele>805.40002441406</ele>
        <time>2013-09-21T08:46:51Z</time>
      </trkpt>
      <trkpt lat="45.84861" lon="2.89519">
        <ele>805.79998779297</ele>
        <time>2013-09-21T08:46:52Z</time>
      </trkpt>
      <trkpt lat="45.84864" lon="2.89509">
        <ele>806.40002441406</ele>
        <time>2013-09-21T08:46:54Z</time>
      </trkpt>
      <trkpt lat="45.84872" lon="2.89489">
        <ele>806.40002441406</ele>
        <time>2013-09-21T08:47:01Z</time>
      </trkpt>
      <trkpt lat="45.84861" lon="2.89478">
        <ele>806.40002441406</ele>
        <time>2013-09-21T08:47:10Z</time>
      </trkpt>
      <trkpt lat="45.84848" lon="2.89479">
        <ele>806.40002441406</ele>
        <time>2013-09-21T08:47:16Z</time>
      </trkpt>
      <trkpt lat="45.8483" lon="2.8948">
        <ele>806.40002441406</ele>
        <time>2013-09-21T08:47:22Z</time>
      </trkpt>
      <trkpt lat="45.84814" lon="2.89487">
        <ele>806.40002441406</ele>
        <time>2013-09-21T08:47:27Z</time>
      </trkpt>
      <trkpt lat="45.84801" lon="2.89487">
        <ele>805.79998779297</ele>
        <time>2013-09-21T08:47:50Z</time>
      </trkpt>
      <trkpt lat="45.848" lon="2.89484">
        <ele>805</ele>
        <time>2013-09-21T08:48:05Z</time>
      </trkpt>
      <trkpt lat="45.8488" lon="2.89454">
        <ele>806.20001220703</ele>
        <time>2013-09-21T09:07:25Z</time>
      </trkpt>
      <trkpt lat="45.84892" lon="2.89425">
        <ele>806.20001220703</ele>
        <time>2013-09-21T09:07:32Z</time>
      </trkpt>
      <trkpt lat="45.84902" lon="2.89393">
        <ele>806.59997558594</ele>
        <time>2013-09-21T09:07:39Z</time>
      </trkpt>
      <trkpt lat="45.84903" lon="2.89389">
        <ele>807.20001220703</ele>
        <time>2013-09-21T09:07:40Z</time>
      </trkpt>
      <trkpt lat="45.84908" lon="2.89378">
        <ele>808.40002441406</ele>
        <time>2013-09-21T09:07:43Z</time>
      </trkpt>
      <trkpt lat="45.84918" lon="2.89371">
        <ele>808.40002441406</ele>
        <time>2013-09-21T09:07:47Z</time>
      </trkpt>
      <trkpt lat="45.84939" lon="2.89363">
        <ele>808.40002441406</ele>
        <time>2013-09-21T09:07:53Z</time>
      </trkpt>
      <trkpt lat="45.84958" lon="2.89351">
        <ele>808.40002441406</ele>
        <time>2013-09-21T09:08:00Z</time>
      </trkpt>
      <trkpt lat="45.84982" lon="2.89337">
        <ele>808.40002441406</ele>
        <time>2013-09-21T09:08:07Z</time>
      </trkpt>
      <trkpt lat="45.85005" lon="2.89327">
        <ele>808.40002441406</ele>
        <time>2013-09-21T09:08:14Z</time>
      </trkpt>
      <trkpt lat="45.85013" lon="2.89324">
        <ele>807.40002441406</ele>
        <time>2013-09-21T09:08:16Z</time>
      </trkpt>
      <trkpt lat="45.85022" lon="2.8932">
        <ele>806.59997558594</ele>
        <time>2013-09-21T09:08:18Z</time>
      </trkpt>
      <trkpt lat="45.85043" lon="2.89328">
        <ele>806.20001220703</ele>
        <time>2013-09-21T09:08:24Z</time>
      </trkpt>
      <trkpt lat="45.85048" lon="2.89338">
        <ele>806.20001220703</ele>
        <time>2013-09-21T09:08:26Z</time>
      </trkpt>
      <trkpt lat="45.85061" lon="2.89341">
        <ele>806.20001220703</ele>
        <time>2013-09-21T09:08:30Z</time>
      </trkpt>
      <trkpt lat="45.85083" lon="2.89321">
        <ele>806.20001220703</ele>
        <time>2013-09-21T09:08:35Z</time>
      </trkpt>
      <trkpt lat="45.85115" lon="2.8929">
        <ele>806.20001220703</ele>
        <time>2013-09-21T09:08:42Z</time>
      </trkpt>
      <trkpt lat="45.85123" lon="2.89282">
        <ele>805.40002441406</ele>
        <time>2013-09-21T09:08:44Z</time>
      </trkpt>
      <trkpt lat="45.85128" lon="2.89278">
        <ele>805</ele>
        <time>2013-09-21T09:08:45Z</time>
      </trkpt>
      <trkpt lat="45.85131" lon="2.89274">
        <ele>804.59997558594</ele>
        <time>2013-09-21T09:08:46Z</time>
      </trkpt>
      <trkpt lat="45.85136" lon="2.89266">
        <ele>804.20001220703</ele>
        <time>2013-09-21T09:08:48Z</time>
      </trkpt>
      <trkpt lat="45.85158" lon="2.89249">
        <ele>804.20001220703</ele>
        <time>2013-09-21T09:08:54Z</time>
      </trkpt>
      <trkpt lat="45.85176" lon="2.89246">
        <ele>803.79998779297</ele>
        <time>2013-09-21T09:08:57Z</time>
      </trkpt>
      <trkpt lat="45.85183" lon="2.89244">
        <ele>803.40002441406</ele>
        <time>2013-09-21T09:08:58Z</time>
      </trkpt>
      <trkpt lat="45.85196" lon="2.8924">
        <ele>802.40002441406</ele>
        <time>2013-09-21T09:09:00Z</time>
      </trkpt>
      <trkpt lat="45.85204" lon="2.89238">
        <ele>802</ele>
        <time>2013-09-21T09:09:01Z</time>
      </trkpt>
      <trkpt lat="45.85225" lon="2.89228">
        <ele>802</ele>
        <time>2013-09-21T09:09:04Z</time>
      </trkpt>
      <trkpt lat="45.85233" lon="2.89224">
        <ele>801.40002441406</ele>
        <time>2013-09-21T09:09:05Z</time>
      </trkpt>
      <trkpt lat="45.8524" lon="2.89223">
        <ele>801</ele>
        <time>2013-09-21T09:09:06Z</time>
      </trkpt>
      <trkpt lat="45.85257" lon="2.89223">
        <ele>799.79998779297</ele>
        <time>2013-09-21T09:09:08Z</time>
      </trkpt>
      <trkpt lat="45.85266" lon="2.89223">
        <ele>799</ele>
        <time>2013-09-21T09:09:09Z</time>
      </trkpt>
      <trkpt lat="45.85278" lon="2.89224">
        <ele>798.40002441406</ele>
        <time>2013-09-21T09:09:10Z</time>
      </trkpt>
      <trkpt lat="45.85289" lon="2.89226">
        <ele>797.59997558594</ele>
        <time>2013-09-21T09:09:11Z</time>
      </trkpt>
      <trkpt lat="45.85299" lon="2.89228">
        <ele>796.79998779297</ele>
        <time>2013-09-21T09:09:12Z</time>
      </trkpt>
      <trkpt lat="45.8531" lon="2.8923">
        <ele>796</ele>
        <time>2013-09-21T09:09:13Z</time>
      </trkpt>
      <trkpt lat="45.85322" lon="2.89232">
        <ele>795.20001220703</ele>
        <time>2013-09-21T09:09:14Z</time>
      </trkpt>
      <trkpt lat="45.85333" lon="2.89234">
        <ele>794.40002441406</ele>
        <time>2013-09-21T09:09:15Z</time>
      </trkpt>
      <trkpt lat="45.85344" lon="2.89235">
        <ele>793.40002441406</ele>
        <time>2013-09-21T09:09:16Z</time>
      </trkpt>
      <trkpt lat="45.85354" lon="2.89236">
        <ele>792.59997558594</ele>
        <time>2013-09-21T09:09:17Z</time>
      </trkpt>
      <trkpt lat="45.85366" lon="2.89237">
        <ele>791.79998779297</ele>
        <time>2013-09-21T09:09:18Z</time>
      </trkpt>
      <trkpt lat="45.85378" lon="2.89238">
        <ele>790.79998779297</ele>
        <time>2013-09-21T09:09:19Z</time>
      </trkpt>
      <trkpt lat="45.85389" lon="2.8924">
        <ele>790.20001220703</ele>
        <time>2013-09-21T09:09:20Z</time>
      </trkpt>
      <trkpt lat="45.85401" lon="2.89239">
        <ele>789.59997558594</ele>
        <time>2013-09-21T09:09:21Z</time>
      </trkpt>
      <trkpt lat="45.85411" lon="2.89234">
        <ele>788.79998779297</ele>
        <time>2013-09-21T09:09:22Z</time>
      </trkpt>
      <trkpt lat="45.85421" lon="2.89228">
        <ele>788.20001220703</ele>
        <time>2013-09-21T09:09:23Z</time>
      </trkpt>
      <trkpt lat="45.85431" lon="2.8922">
        <ele>787.40002441406</ele>
        <time>2013-09-21T09:09:24Z</time>
      </trkpt>
      <trkpt lat="45.8544" lon="2.89213">
        <ele>787.40002441406</ele>
        <time>2013-09-21T09:09:25Z</time>
      </trkpt>
      <trkpt lat="45.85457" lon="2.892">
        <ele>787.40002441406</ele>
        <time>2013-09-21T09:09:27Z</time>
      </trkpt>
      <trkpt lat="45.85472" lon="2.89188">
        <ele>787</ele>
        <time>2013-09-21T09:09:29Z</time>
      </trkpt>
      <trkpt lat="45.85486" lon="2.89179">
        <ele>786</ele>
        <time>2013-09-21T09:09:31Z</time>
      </trkpt>
      <trkpt lat="45.85493" lon="2.89174">
        <ele>785.59997558594</ele>
        <time>2013-09-21T09:09:32Z</time>
      </trkpt>
      <trkpt lat="45.85502" lon="2.89171">
        <ele>785.20001220703</ele>
        <time>2013-09-21T09:09:33Z</time>
      </trkpt>
      <trkpt lat="45.85544" lon="2.89153">
        <ele>785.20001220703</ele>
        <time>2013-09-21T09:09:38Z</time>
      </trkpt>
      <trkpt lat="45.85552" lon="2.89151">
        <ele>785.20001220703</ele>
        <time>2013-09-21T09:09:39Z</time>
      </trkpt>
      <trkpt lat="45.85575" lon="2.89145">
        <ele>784.79998779297</ele>
        <time>2013-09-21T09:09:42Z</time>
      </trkpt>
      <trkpt lat="45.85583" lon="2.89142">
        <ele>784.40002441406</ele>
        <time>2013-09-21T09:09:43Z</time>
      </trkpt>
      <trkpt lat="45.85592" lon="2.89138">
        <ele>783.79998779297</ele>
        <time>2013-09-21T09:09:44Z</time>
      </trkpt>
      <trkpt lat="45.85607" lon="2.89126">
        <ele>783</ele>
        <time>2013-09-21T09:09:46Z</time>
      </trkpt>
      <trkpt lat="45.85614" lon="2.89118">
        <ele>783</ele>
        <time>2013-09-21T09:09:47Z</time>
      </trkpt>
      <trkpt lat="45.85644" lon="2.89097">
        <ele>782.59997558594</ele>
        <time>2013-09-21T09:09:51Z</time>
      </trkpt>
      <trkpt lat="45.85653" lon="2.89091">
        <ele>782</ele>
        <time>2013-09-21T09:09:52Z</time>
      </trkpt>
      <trkpt lat="45.85662" lon="2.89085">
        <ele>781.59997558594</ele>
        <time>2013-09-21T09:09:53Z</time>
      </trkpt>
      <trkpt lat="45.85671" lon="2.89079">
        <ele>780.79998779297</ele>
        <time>2013-09-21T09:09:54Z</time>
      </trkpt>
      <trkpt lat="45.85689" lon="2.89065">
        <ele>779.20001220703</ele>
        <time>2013-09-21T09:09:56Z</time>
      </trkpt>
      <trkpt lat="45.85699" lon="2.89058">
        <ele>778.20001220703</ele>
        <time>2013-09-21T09:09:57Z</time>
      </trkpt>
      <trkpt lat="45.85709" lon="2.89053">
        <ele>777.40002441406</ele>
        <time>2013-09-21T09:09:58Z</time>
      </trkpt>
      <trkpt lat="45.85719" lon="2.89049">
        <ele>776.40002441406</ele>
        <time>2013-09-21T09:09:59Z</time>
      </trkpt>
      <trkpt lat="45.8573" lon="2.89045">
        <ele>775.40002441406</ele>
        <time>2013-09-21T09:10:00Z</time>
      </trkpt>
      <trkpt lat="45.85741" lon="2.89041">
        <ele>774.40002441406</ele>
        <time>2013-09-21T09:10:01Z</time>
      </trkpt>
      <trkpt lat="45.85752" lon="2.89037">
        <ele>773.40002441406</ele>
        <time>2013-09-21T09:10:02Z</time>
      </trkpt>
      <trkpt lat="45.85764" lon="2.89033">
        <ele>772.40002441406</ele>
        <time>2013-09-21T09:10:03Z</time>
      </trkpt>
      <trkpt lat="45.85775" lon="2.89029">
        <ele>771.20001220703</ele>
        <time>2013-09-21T09:10:04Z</time>
      </trkpt>
      <trkpt lat="45.85786" lon="2.89027">
        <ele>770.20001220703</ele>
        <time>2013-09-21T09:10:05Z</time>
      </trkpt>
      <trkpt lat="45.85798" lon="2.89026">
        <ele>769</ele>
        <time>2013-09-21T09:10:06Z</time>
      </trkpt>
      <trkpt lat="45.8581" lon="2.89026">
        <ele>767.79998779297</ele>
        <time>2013-09-21T09:10:07Z</time>
      </trkpt>
      <trkpt lat="45.85823" lon="2.89025">
        <ele>766.79998779297</ele>
        <time>2013-09-21T09:10:08Z</time>
      </trkpt>
      <trkpt lat="45.85835" lon="2.89023">
        <ele>765.59997558594</ele>
        <time>2013-09-21T09:10:09Z</time>
      </trkpt>
      <trkpt lat="45.85847" lon="2.89019">
        <ele>764.59997558594</ele>
        <time>2013-09-21T09:10:10Z</time>
      </trkpt>
      <trkpt lat="45.85858" lon="2.89013">
        <ele>763.40002441406</ele>
        <time>2013-09-21T09:10:11Z</time>
      </trkpt>
      <trkpt lat="45.85868" lon="2.89005">
        <ele>762.20001220703</ele>
        <time>2013-09-21T09:10:12Z</time>
      </trkpt>
      <trkpt lat="45.85878" lon="2.88995">
        <ele>761.20001220703</ele>
        <time>2013-09-21T09:10:13Z</time>
      </trkpt>
      <trkpt lat="45.85888" lon="2.88983">
        <ele>760</ele>
        <time>2013-09-21T09:10:14Z</time>
      </trkpt>
      <trkpt lat="45.85899" lon="2.88973">
        <ele>759</ele>
        <time>2013-09-21T09:10:15Z</time>
      </trkpt>
      <trkpt lat="45.85909" lon="2.88963">
        <ele>758</ele>
        <time>2013-09-21T09:10:16Z</time>
      </trkpt>
      <trkpt lat="45.85918" lon="2.88956">
        <ele>757</ele>
        <time>2013-09-21T09:10:17Z</time>
      </trkpt>
      <trkpt lat="45.85928" lon="2.88949">
        <ele>756</ele>
        <time>2013-09-21T09:10:18Z</time>
      </trkpt>
      <trkpt lat="45.85937" lon="2.88941">
        <ele>755.40002441406</ele>
        <time>2013-09-21T09:10:19Z</time>
      </trkpt>
      <trkpt lat="45.85946" lon="2.88935">
        <ele>754.79998779297</ele>
        <time>2013-09-21T09:10:20Z</time>
      </trkpt>
      <trkpt lat="45.85958" lon="2.88931">
        <ele>754</ele>
        <time>2013-09-21T09:10:21Z</time>
      </trkpt>
      <trkpt lat="45.85968" lon="2.8893">
        <ele>753.40002441406</ele>
        <time>2013-09-21T09:10:22Z</time>
      </trkpt>
      <trkpt lat="45.85979" lon="2.8893">
        <ele>752.59997558594</ele>
        <time>2013-09-21T09:10:23Z</time>
      </trkpt>
      <trkpt lat="45.85989" lon="2.88932">
        <ele>751.79998779297</ele>
        <time>2013-09-21T09:10:24Z</time>
      </trkpt>
      <trkpt lat="45.86002" lon="2.88934">
        <ele>751.20001220703</ele>
        <time>2013-09-21T09:10:25Z</time>
      </trkpt>
      <trkpt lat="45.86013" lon="2.88934">
        <ele>750.40002441406</ele>
        <time>2013-09-21T09:10:26Z</time>
      </trkpt>
      <trkpt lat="45.86024" lon="2.88934">
        <ele>749.79998779297</ele>
        <time>2013-09-21T09:10:27Z</time>
      </trkpt>
      <trkpt lat="45.86035" lon="2.88934">
        <ele>749</ele>
        <time>2013-09-21T09:10:28Z</time>
      </trkpt>
      <trkpt lat="45.86046" lon="2.88934">
        <ele>748.20001220703</ele>
        <time>2013-09-21T09:10:29Z</time>
      </trkpt>
      <trkpt lat="45.86057" lon="2.88933">
        <ele>747.40002441406</ele>
        <time>2013-09-21T09:10:30Z</time>
      </trkpt>
      <trkpt lat="45.86066" lon="2.88933">
        <ele>746.59997558594</ele>
        <time>2013-09-21T09:10:31Z</time>
      </trkpt>
      <trkpt lat="45.86077" lon="2.88937">
        <ele>745</ele>
        <time>2013-09-21T09:10:33Z</time>
      </trkpt>
      <trkpt lat="45.86086" lon="2.88941">
        <ele>744.20001220703</ele>
        <time>2013-09-21T09:10:34Z</time>
      </trkpt>
      <trkpt lat="45.86096" lon="2.88946">
        <ele>743.40002441406</ele>
        <time>2013-09-21T09:10:35Z</time>
      </trkpt>
      <trkpt lat="45.86106" lon="2.8895">
        <ele>742.59997558594</ele>
        <time>2013-09-21T09:10:36Z</time>
      </trkpt>
      <trkpt lat="45.86116" lon="2.88952">
        <ele>741.79998779297</ele>
        <time>2013-09-21T09:10:37Z</time>
      </trkpt>
      <trkpt lat="45.86125" lon="2.88952">
        <ele>741</ele>
        <time>2013-09-21T09:10:38Z</time>
      </trkpt>
      <trkpt lat="45.86143" lon="2.88945">
        <ele>741</ele>
        <time>2013-09-21T09:10:40Z</time>
      </trkpt>
      <trkpt lat="45.86162" lon="2.88927">
        <ele>741</ele>
        <time>2013-09-21T09:10:43Z</time>
      </trkpt>
      <trkpt lat="45.86169" lon="2.88919">
        <ele>741</ele>
        <time>2013-09-21T09:10:45Z</time>
      </trkpt>
      <trkpt lat="45.86172" lon="2.88911">
        <ele>741.59997558594</ele>
        <time>2013-09-21T09:10:47Z</time>
      </trkpt>
      <trkpt lat="45.86174" lon="2.88908">
        <ele>742</ele>
        <time>2013-09-21T09:10:48Z</time>
      </trkpt>
      <trkpt lat="45.8618" lon="2.88898">
        <ele>743.59997558594</ele>
        <time>2013-09-21T09:10:51Z</time>
      </trkpt>
      <trkpt lat="45.86188" lon="2.88888">
        <ele>745.40002441406</ele>
        <time>2013-09-21T09:10:55Z</time>
      </trkpt>
      <trkpt lat="45.86193" lon="2.88879">
        <ele>746.40002441406</ele>
        <time>2013-09-21T09:10:58Z</time>
      </trkpt>
      <trkpt lat="45.86199" lon="2.8887">
        <ele>748</ele>
        <time>2013-09-21T09:11:01Z</time>
      </trkpt>
      <trkpt lat="45.86201" lon="2.88866">
        <ele>748.40002441406</ele>
        <time>2013-09-21T09:11:02Z</time>
      </trkpt>
      <trkpt lat="45.8621" lon="2.88854">
        <ele>749</ele>
        <time>2013-09-21T09:11:06Z</time>
      </trkpt>
      <trkpt lat="45.86215" lon="2.88848">
        <ele>749.79998779297</ele>
        <time>2013-09-21T09:11:08Z</time>
      </trkpt>
      <trkpt lat="45.8622" lon="2.88842">
        <ele>750.59997558594</ele>
        <time>2013-09-21T09:11:10Z</time>
      </trkpt>
      <trkpt lat="45.86223" lon="2.88839">
        <ele>751</ele>
        <time>2013-09-21T09:11:11Z</time>
      </trkpt>
      <trkpt lat="45.86232" lon="2.8883">
        <ele>752.40002441406</ele>
        <time>2013-09-21T09:11:14Z</time>
      </trkpt>
      <trkpt lat="45.86235" lon="2.88826">
        <ele>752.79998779297</ele>
        <time>2013-09-21T09:11:15Z</time>
      </trkpt>
      <trkpt lat="45.86243" lon="2.88817">
        <ele>752.79998779297</ele>
        <time>2013-09-21T09:11:18Z</time>
      </trkpt>
      <trkpt lat="45.86252" lon="2.88808">
        <ele>754.20001220703</ele>
        <time>2013-09-21T09:11:22Z</time>
      </trkpt>
      <trkpt lat="45.86262" lon="2.88799">
        <ele>755</ele>
        <time>2013-09-21T09:11:26Z</time>
      </trkpt>
      <trkpt lat="45.86271" lon="2.8879">
        <ele>756.40002441406</ele>
        <time>2013-09-21T09:11:30Z</time>
      </trkpt>
      <trkpt lat="45.8628" lon="2.8878">
        <ele>757.79998779297</ele>
        <time>2013-09-21T09:11:36Z</time>
      </trkpt>
      <trkpt lat="45.86282" lon="2.88779">
        <ele>758.20001220703</ele>
        <time>2013-09-21T09:11:37Z</time>
      </trkpt>
      <trkpt lat="45.86293" lon="2.88765">
        <ele>760</ele>
        <time>2013-09-21T09:11:44Z</time>
      </trkpt>
      <trkpt lat="45.86298" lon="2.8876">
        <ele>761.20001220703</ele>
        <time>2013-09-21T09:11:47Z</time>
      </trkpt>
      <trkpt lat="45.86307" lon="2.8875">
        <ele>762</ele>
        <time>2013-09-21T09:11:53Z</time>
      </trkpt>
      <trkpt lat="45.86313" lon="2.88743">
        <ele>763.79998779297</ele>
        <time>2013-09-21T09:11:57Z</time>
      </trkpt>
      <trkpt lat="45.86322" lon="2.88734">
        <ele>764.20001220703</ele>
        <time>2013-09-21T09:12:03Z</time>
      </trkpt>
      <trkpt lat="45.86327" lon="2.88728">
        <ele>765.40002441406</ele>
        <time>2013-09-21T09:12:06Z</time>
      </trkpt>
      <trkpt lat="45.86331" lon="2.88724">
        <ele>765.79998779297</ele>
        <time>2013-09-21T09:12:09Z</time>
      </trkpt>
      <trkpt lat="45.86336" lon="2.88718">
        <ele>766.59997558594</ele>
        <time>2013-09-21T09:12:12Z</time>
      </trkpt>
      <trkpt lat="45.86342" lon="2.88715">
        <ele>767.40002441406</ele>
        <time>2013-09-21T09:12:14Z</time>
      </trkpt>
      <trkpt lat="45.86352" lon="2.88706">
        <ele>767.79998779297</ele>
        <time>2013-09-21T09:12:17Z</time>
      </trkpt>
      <trkpt lat="45.86389" lon="2.88662">
        <ele>769.59997558594</ele>
        <time>2013-09-21T09:12:37Z</time>
      </trkpt>
      <trkpt lat="45.86395" lon="2.88657">
        <ele>770</ele>
        <time>2013-09-21T09:12:39Z</time>
      </trkpt>
      <trkpt lat="45.86406" lon="2.8864">
        <ele>770</ele>
        <time>2013-09-21T09:12:45Z</time>
      </trkpt>
      <trkpt lat="45.86415" lon="2.88625">
        <ele>770.40002441406</ele>
        <time>2013-09-21T09:12:50Z</time>
      </trkpt>
      <trkpt lat="45.8642" lon="2.88618">
        <ele>771.20001220703</ele>
        <time>2013-09-21T09:12:53Z</time>
      </trkpt>
      <trkpt lat="45.86432" lon="2.88608">
        <ele>772</ele>
        <time>2013-09-21T09:12:59Z</time>
      </trkpt>
      <trkpt lat="45.8644" lon="2.88602">
        <ele>773</ele>
        <time>2013-09-21T09:13:03Z</time>
      </trkpt>
      <trkpt lat="45.86445" lon="2.886">
        <ele>773.79998779297</ele>
        <time>2013-09-21T09:13:05Z</time>
      </trkpt>
      <trkpt lat="45.86451" lon="2.88595">
        <ele>774.20001220703</ele>
        <time>2013-09-21T09:13:08Z</time>
      </trkpt>
      <trkpt lat="45.86459" lon="2.88589">
        <ele>775.59997558594</ele>
        <time>2013-09-21T09:13:12Z</time>
      </trkpt>
      <trkpt lat="45.86461" lon="2.88588">
        <ele>776</ele>
        <time>2013-09-21T09:13:13Z</time>
      </trkpt>
      <trkpt lat="45.86473" lon="2.8858">
        <ele>776.79998779297</ele>
        <time>2013-09-21T09:13:19Z</time>
      </trkpt>
      <trkpt lat="45.86475" lon="2.88579">
        <ele>777.20001220703</ele>
        <time>2013-09-21T09:13:20Z</time>
      </trkpt>
      <trkpt lat="45.86481" lon="2.88575">
        <ele>778.59997558594</ele>
        <time>2013-09-21T09:13:23Z</time>
      </trkpt>
      <trkpt lat="45.86491" lon="2.88568">
        <ele>779</ele>
        <time>2013-09-21T09:13:29Z</time>
      </trkpt>
      <trkpt lat="45.86506" lon="2.88559">
        <ele>780.79998779297</ele>
        <time>2013-09-21T09:13:37Z</time>
      </trkpt>
      <trkpt lat="45.86513" lon="2.88556">
        <ele>781.20001220703</ele>
        <time>2013-09-21T09:13:40Z</time>
      </trkpt>
      <trkpt lat="45.86521" lon="2.8855">
        <ele>782.40002441406</ele>
        <time>2013-09-21T09:13:43Z</time>
      </trkpt>
      <trkpt lat="45.86523" lon="2.88549">
        <ele>782.79998779297</ele>
        <time>2013-09-21T09:13:44Z</time>
      </trkpt>
      <trkpt lat="45.86535" lon="2.88542">
        <ele>782.79998779297</ele>
        <time>2013-09-21T09:13:49Z</time>
      </trkpt>
      <trkpt lat="45.86547" lon="2.88531">
        <ele>783.20001220703</ele>
        <time>2013-09-21T09:13:54Z</time>
      </trkpt>
      <trkpt lat="45.86549" lon="2.88529">
        <ele>783.59997558594</ele>
        <time>2013-09-21T09:13:55Z</time>
      </trkpt>
      <trkpt lat="45.86551" lon="2.88526">
        <ele>784</ele>
        <time>2013-09-21T09:13:56Z</time>
      </trkpt>
      <trkpt lat="45.86565" lon="2.88507">
        <ele>785</ele>
        <time>2013-09-21T09:14:03Z</time>
      </trkpt>
      <trkpt lat="45.86572" lon="2.88492">
        <ele>785.40002441406</ele>
        <time>2013-09-21T09:14:08Z</time>
      </trkpt>
      <trkpt lat="45.86573" lon="2.88488">
        <ele>785.79998779297</ele>
        <time>2013-09-21T09:14:09Z</time>
      </trkpt>
      <trkpt lat="45.86576" lon="2.88478">
        <ele>787</ele>
        <time>2013-09-21T09:14:12Z</time>
      </trkpt>
      <trkpt lat="45.8658" lon="2.88466">
        <ele>787</ele>
        <time>2013-09-21T09:14:16Z</time>
      </trkpt>
      <trkpt lat="45.86581" lon="2.88443">
        <ele>787</ele>
        <time>2013-09-21T09:14:22Z</time>
      </trkpt>
      <trkpt lat="45.86582" lon="2.88435">
        <ele>787.40002441406</ele>
        <time>2013-09-21T09:14:24Z</time>
      </trkpt>
      <trkpt lat="45.86583" lon="2.8843">
        <ele>787.79998779297</ele>
        <time>2013-09-21T09:14:25Z</time>
      </trkpt>
      <trkpt lat="45.86584" lon="2.88416">
        <ele>789.20001220703</ele>
        <time>2013-09-21T09:14:28Z</time>
      </trkpt>
      <trkpt lat="45.86585" lon="2.88406">
        <ele>789.20001220703</ele>
        <time>2013-09-21T09:14:30Z</time>
      </trkpt>
      <trkpt lat="45.86586" lon="2.88368">
        <ele>789.20001220703</ele>
        <time>2013-09-21T09:14:37Z</time>
      </trkpt>
      <trkpt lat="45.8658" lon="2.88349">
        <ele>789.20001220703</ele>
        <time>2013-09-21T09:14:40Z</time>
      </trkpt>
      <trkpt lat="45.86575" lon="2.88332">
        <ele>789.20001220703</ele>
        <time>2013-09-21T09:14:43Z</time>
      </trkpt>
      <trkpt lat="45.86573" lon="2.88327">
        <ele>789.20001220703</ele>
        <time>2013-09-21T09:14:44Z</time>
      </trkpt>
      <trkpt lat="45.86559" lon="2.883">
        <ele>789.20001220703</ele>
        <time>2013-09-21T09:14:49Z</time>
      </trkpt>
      <trkpt lat="45.86554" lon="2.88289">
        <ele>789.20001220703</ele>
        <time>2013-09-21T09:14:51Z</time>
      </trkpt>
      <trkpt lat="45.86541" lon="2.88257">
        <ele>789.59997558594</ele>
        <time>2013-09-21T09:14:57Z</time>
      </trkpt>
      <trkpt lat="45.8654" lon="2.88246">
        <ele>790.59997558594</ele>
        <time>2013-09-21T09:14:59Z</time>
      </trkpt>
      <trkpt lat="45.86538" lon="2.88235">
        <ele>791.40002441406</ele>
        <time>2013-09-21T09:15:01Z</time>
      </trkpt>
      <trkpt lat="45.86538" lon="2.88229">
        <ele>792</ele>
        <time>2013-09-21T09:15:02Z</time>
      </trkpt>
      <trkpt lat="45.86539" lon="2.88219">
        <ele>792.79998779297</ele>
        <time>2013-09-21T09:15:04Z</time>
      </trkpt>
      <trkpt lat="45.8654" lon="2.88214">
        <ele>793.20001220703</ele>
        <time>2013-09-21T09:15:05Z</time>
      </trkpt>
      <trkpt lat="45.86547" lon="2.88207">
        <ele>793.59997558594</ele>
        <time>2013-09-21T09:15:08Z</time>
      </trkpt>
      <trkpt lat="45.86555" lon="2.88206">
        <ele>794.20001220703</ele>
        <time>2013-09-21T09:15:10Z</time>
      </trkpt>
      <trkpt lat="45.86562" lon="2.8821">
        <ele>795</ele>
        <time>2013-09-21T09:15:12Z</time>
      </trkpt>
      <trkpt lat="45.86564" lon="2.88212">
        <ele>795.59997558594</ele>
        <time>2013-09-21T09:15:13Z</time>
      </trkpt>
      <trkpt lat="45.8658" lon="2.88224">
        <ele>796</ele>
        <time>2013-09-21T09:15:20Z</time>
      </trkpt>
      <trkpt lat="45.86581" lon="2.88225">
        <ele>796.40002441406</ele>
        <time>2013-09-21T09:15:21Z</time>
      </trkpt>
      <trkpt lat="45.86591" lon="2.88223">
        <ele>798.20001220703</ele>
        <time>2013-09-21T09:15:25Z</time>
      </trkpt>
      <trkpt lat="45.86599" lon="2.88219">
        <ele>798.20001220703</ele>
        <time>2013-09-21T09:15:29Z</time>
      </trkpt>
      <trkpt lat="45.866" lon="2.88219">
        <ele>798.20001220703</ele>
        <time>2013-09-21T09:15:30Z</time>
      </trkpt>
      <trkpt lat="45.86613" lon="2.88215">
        <ele>800.40002441406</ele>
        <time>2013-09-21T09:15:37Z</time>
      </trkpt>
      <trkpt lat="45.86621" lon="2.88212">
        <ele>802.20001220703</ele>
        <time>2013-09-21T09:15:41Z</time>
      </trkpt>
      <trkpt lat="45.8663" lon="2.8821">
        <ele>803.40002441406</ele>
        <time>2013-09-21T09:15:46Z</time>
      </trkpt>
      <trkpt lat="45.86632" lon="2.88209">
        <ele>803.79998779297</ele>
        <time>2013-09-21T09:15:47Z</time>
      </trkpt>
      <trkpt lat="45.8664" lon="2.88194">
        <ele>804.59997558594</ele>
        <time>2013-09-21T09:15:53Z</time>
      </trkpt>
      <trkpt lat="45.8665" lon="2.88172">
        <ele>805</ele>
        <time>2013-09-21T09:16:00Z</time>
      </trkpt>
      <trkpt lat="45.8665" lon="2.88168">
        <ele>805.40002441406</ele>
        <time>2013-09-21T09:16:01Z</time>
      </trkpt>
      <trkpt lat="45.86653" lon="2.88158">
        <ele>806.59997558594</ele>
        <time>2013-09-21T09:16:04Z</time>
      </trkpt>
      <trkpt lat="45.86657" lon="2.88138">
        <ele>806.59997558594</ele>
        <time>2013-09-21T09:16:09Z</time>
      </trkpt>
      <trkpt lat="45.86662" lon="2.88106">
        <ele>806.59997558594</ele>
        <time>2013-09-21T09:16:16Z</time>
      </trkpt>
      <trkpt lat="45.86661" lon="2.88085">
        <ele>807</ele>
        <time>2013-09-21T09:16:20Z</time>
      </trkpt>
      <trkpt lat="45.86662" lon="2.88078">
        <ele>807.59997558594</ele>
        <time>2013-09-21T09:16:21Z</time>
      </trkpt>
      <trkpt lat="45.86662" lon="2.88066">
        <ele>808.40002441406</ele>
        <time>2013-09-21T09:16:23Z</time>
      </trkpt>
      <trkpt lat="45.86662" lon="2.8806">
        <ele>808.79998779297</ele>
        <time>2013-09-21T09:16:24Z</time>
      </trkpt>
      <trkpt lat="45.86666" lon="2.88024">
        <ele>808.79998779297</ele>
        <time>2013-09-21T09:16:30Z</time>
      </trkpt>
      <trkpt lat="45.86667" lon="2.88019">
        <ele>808.79998779297</ele>
        <time>2013-09-21T09:16:31Z</time>
      </trkpt>
      <trkpt lat="45.86674" lon="2.87997">
        <ele>808.79998779297</ele>
        <time>2013-09-21T09:16:35Z</time>
      </trkpt>
      <trkpt lat="45.86679" lon="2.87987">
        <ele>808.79998779297</ele>
        <time>2013-09-21T09:16:37Z</time>
      </trkpt>
      <trkpt lat="45.86686" lon="2.87962">
        <ele>808.79998779297</ele>
        <time>2013-09-21T09:16:41Z</time>
      </trkpt>
      <trkpt lat="45.86697" lon="2.8791">
        <ele>808.79998779297</ele>
        <time>2013-09-21T09:16:48Z</time>
      </trkpt>
      <trkpt lat="45.86705" lon="2.87861">
        <ele>808.79998779297</ele>
        <time>2013-09-21T09:16:54Z</time>
      </trkpt>
      <trkpt lat="45.86707" lon="2.87836">
        <ele>808.79998779297</ele>
        <time>2013-09-21T09:16:57Z</time>
      </trkpt>
      <trkpt lat="45.8671" lon="2.87782">
        <ele>808.79998779297</ele>
        <time>2013-09-21T09:17:03Z</time>
      </trkpt>
      <trkpt lat="45.8671" lon="2.87719">
        <ele>808.79998779297</ele>
        <time>2013-09-21T09:17:10Z</time>
      </trkpt>
      <trkpt lat="45.86706" lon="2.8764">
        <ele>808.79998779297</ele>
        <time>2013-09-21T09:17:19Z</time>
      </trkpt>
      <trkpt lat="45.86705" lon="2.87632">
        <ele>808.79998779297</ele>
        <time>2013-09-21T09:17:20Z</time>
      </trkpt>
      <trkpt lat="45.86703" lon="2.87593">
        <ele>808.79998779297</ele>
        <time>2013-09-21T09:17:25Z</time>
      </trkpt>
      <trkpt lat="45.867" lon="2.87576">
        <ele>808.79998779297</ele>
        <time>2013-09-21T09:17:27Z</time>
      </trkpt>
      <trkpt lat="45.86694" lon="2.87536">
        <ele>808.79998779297</ele>
        <time>2013-09-21T09:17:32Z</time>
      </trkpt>
      <trkpt lat="45.86681" lon="2.87493">
        <ele>808.79998779297</ele>
        <time>2013-09-21T09:17:37Z</time>
      </trkpt>
      <trkpt lat="45.86676" lon="2.87471">
        <ele>808.79998779297</ele>
        <time>2013-09-21T09:17:39Z</time>
      </trkpt>
      <trkpt lat="45.86672" lon="2.87448">
        <ele>808.40002441406</ele>
        <time>2013-09-21T09:17:41Z</time>
      </trkpt>
      <trkpt lat="45.8667" lon="2.87436">
        <ele>808</ele>
        <time>2013-09-21T09:17:42Z</time>
      </trkpt>
      <trkpt lat="45.86667" lon="2.87424">
        <ele>807.59997558594</ele>
        <time>2013-09-21T09:17:43Z</time>
      </trkpt>
      <trkpt lat="45.86665" lon="2.87412">
        <ele>807.20001220703</ele>
        <time>2013-09-21T09:17:44Z</time>
      </trkpt>
      <trkpt lat="45.86663" lon="2.874">
        <ele>806.79998779297</ele>
        <time>2013-09-21T09:17:45Z</time>
      </trkpt>
      <trkpt lat="45.86661" lon="2.87374">
        <ele>806.40002441406</ele>
        <time>2013-09-21T09:17:47Z</time>
      </trkpt>
      <trkpt lat="45.8666" lon="2.87362">
        <ele>805.79998779297</ele>
        <time>2013-09-21T09:17:48Z</time>
      </trkpt>
      <trkpt lat="45.86658" lon="2.87348">
        <ele>805.40002441406</ele>
        <time>2013-09-21T09:17:49Z</time>
      </trkpt>
      <trkpt lat="45.86657" lon="2.87336">
        <ele>805</ele>
        <time>2013-09-21T09:17:50Z</time>
      </trkpt>
      <trkpt lat="45.86655" lon="2.87323">
        <ele>804.59997558594</ele>
        <time>2013-09-21T09:17:51Z</time>
      </trkpt>
      <trkpt lat="45.86652" lon="2.87296">
        <ele>804.59997558594</ele>
        <time>2013-09-21T09:17:53Z</time>
      </trkpt>
      <trkpt lat="45.8665" lon="2.87282">
        <ele>804.20001220703</ele>
        <time>2013-09-21T09:17:54Z</time>
      </trkpt>
      <trkpt lat="45.86648" lon="2.87269">
        <ele>803.79998779297</ele>
        <time>2013-09-21T09:17:55Z</time>
      </trkpt>
      <trkpt lat="45.86646" lon="2.87255">
        <ele>803.20001220703</ele>
        <time>2013-09-21T09:17:56Z</time>
      </trkpt>
      <trkpt lat="45.86645" lon="2.8724">
        <ele>802.79998779297</ele>
        <time>2013-09-21T09:17:57Z</time>
      </trkpt>
      <trkpt lat="45.86644" lon="2.87226">
        <ele>802.40002441406</ele>
        <time>2013-09-21T09:17:58Z</time>
      </trkpt>
      <trkpt lat="45.86644" lon="2.87212">
        <ele>801.79998779297</ele>
        <time>2013-09-21T09:17:59Z</time>
      </trkpt>
      <trkpt lat="45.86645" lon="2.87198">
        <ele>801.40002441406</ele>
        <time>2013-09-21T09:18:00Z</time>
      </trkpt>
      <trkpt lat="45.86646" lon="2.87185">
        <ele>800.79998779297</ele>
        <time>2013-09-21T09:18:01Z</time>
      </trkpt>
      <trkpt lat="45.86652" lon="2.87174">
        <ele>800</ele>
        <time>2013-09-21T09:18:02Z</time>
      </trkpt>
      <trkpt lat="45.86658" lon="2.87166">
        <ele>799.20001220703</ele>
        <time>2013-09-21T09:18:03Z</time>
      </trkpt>
      <trkpt lat="45.86666" lon="2.87161">
        <ele>798.59997558594</ele>
        <time>2013-09-21T09:18:04Z</time>
      </trkpt>
      <trkpt lat="45.86674" lon="2.87159">
        <ele>797.79998779297</ele>
        <time>2013-09-21T09:18:05Z</time>
      </trkpt>
      <trkpt lat="45.86684" lon="2.87159">
        <ele>797.20001220703</ele>
        <time>2013-09-21T09:18:06Z</time>
      </trkpt>
      <trkpt lat="45.86694" lon="2.8716">
        <ele>796.59997558594</ele>
        <time>2013-09-21T09:18:07Z</time>
      </trkpt>
      <trkpt lat="45.86704" lon="2.87161">
        <ele>796</ele>
        <time>2013-09-21T09:18:08Z</time>
      </trkpt>
      <trkpt lat="45.86715" lon="2.87162">
        <ele>795.40002441406</ele>
        <time>2013-09-21T09:18:09Z</time>
      </trkpt>
      <trkpt lat="45.86726" lon="2.87162">
        <ele>794.79998779297</ele>
        <time>2013-09-21T09:18:10Z</time>
      </trkpt>
      <trkpt lat="45.86737" lon="2.87161">
        <ele>794.20001220703</ele>
        <time>2013-09-21T09:18:11Z</time>
      </trkpt>
      <trkpt lat="45.86748" lon="2.87159">
        <ele>793.59997558594</ele>
        <time>2013-09-21T09:18:12Z</time>
      </trkpt>
      <trkpt lat="45.86759" lon="2.87157">
        <ele>792.79998779297</ele>
        <time>2013-09-21T09:18:13Z</time>
      </trkpt>
      <trkpt lat="45.86771" lon="2.87155">
        <ele>792.20001220703</ele>
        <time>2013-09-21T09:18:14Z</time>
      </trkpt>
      <trkpt lat="45.86782" lon="2.87155">
        <ele>791.59997558594</ele>
        <time>2013-09-21T09:18:15Z</time>
      </trkpt>
      <trkpt lat="45.86794" lon="2.87157">
        <ele>790.79998779297</ele>
        <time>2013-09-21T09:18:16Z</time>
      </trkpt>
      <trkpt lat="45.86804" lon="2.87162">
        <ele>790.20001220703</ele>
        <time>2013-09-21T09:18:17Z</time>
      </trkpt>
      <trkpt lat="45.86814" lon="2.87168">
        <ele>789.40002441406</ele>
        <time>2013-09-21T09:18:18Z</time>
      </trkpt>
      <trkpt lat="45.86823" lon="2.87173">
        <ele>788.79998779297</ele>
        <time>2013-09-21T09:18:19Z</time>
      </trkpt>
      <trkpt lat="45.86831" lon="2.87177">
        <ele>788</ele>
        <time>2013-09-21T09:18:20Z</time>
      </trkpt>
      <trkpt lat="45.8684" lon="2.87174">
        <ele>787.20001220703</ele>
        <time>2013-09-21T09:18:21Z</time>
      </trkpt>
      <trkpt lat="45.86849" lon="2.87169">
        <ele>786.40002441406</ele>
        <time>2013-09-21T09:18:22Z</time>
      </trkpt>
      <trkpt lat="45.86857" lon="2.87163">
        <ele>785.59997558594</ele>
        <time>2013-09-21T09:18:23Z</time>
      </trkpt>
      <trkpt lat="45.86869" lon="2.87146">
        <ele>784</ele>
        <time>2013-09-21T09:18:25Z</time>
      </trkpt>
      <trkpt lat="45.86875" lon="2.87137">
        <ele>783.20001220703</ele>
        <time>2013-09-21T09:18:26Z</time>
      </trkpt>
      <trkpt lat="45.8688" lon="2.87125">
        <ele>782.20001220703</ele>
        <time>2013-09-21T09:18:27Z</time>
      </trkpt>
      <trkpt lat="45.86884" lon="2.87113">
        <ele>781.79998779297</ele>
        <time>2013-09-21T09:18:28Z</time>
      </trkpt>
      <trkpt lat="45.86888" lon="2.871">
        <ele>781.40002441406</ele>
        <time>2013-09-21T09:18:29Z</time>
      </trkpt>
      <trkpt lat="45.86892" lon="2.87087">
        <ele>781</ele>
        <time>2013-09-21T09:18:30Z</time>
      </trkpt>
      <trkpt lat="45.86894" lon="2.87075">
        <ele>780.59997558594</ele>
        <time>2013-09-21T09:18:31Z</time>
      </trkpt>
      <trkpt lat="45.86895" lon="2.87062">
        <ele>780.20001220703</ele>
        <time>2013-09-21T09:18:32Z</time>
      </trkpt>
      <trkpt lat="45.86894" lon="2.87049">
        <ele>780.20001220703</ele>
        <time>2013-09-21T09:18:33Z</time>
      </trkpt>
      <trkpt lat="45.86898" lon="2.86996">
        <ele>781</ele>
        <time>2013-09-21T09:18:38Z</time>
      </trkpt>
      <trkpt lat="45.86897" lon="2.86987">
        <ele>781.40002441406</ele>
        <time>2013-09-21T09:18:39Z</time>
      </trkpt>
      <trkpt lat="45.86898" lon="2.86979">
        <ele>781.79998779297</ele>
        <time>2013-09-21T09:18:40Z</time>
      </trkpt>
      <trkpt lat="45.86901" lon="2.86945">
        <ele>782.20001220703</ele>
        <time>2013-09-21T09:18:44Z</time>
      </trkpt>
      <trkpt lat="45.86901" lon="2.86934">
        <ele>782.20001220703</ele>
        <time>2013-09-21T09:18:45Z</time>
      </trkpt>
      <trkpt lat="45.86901" lon="2.869">
        <ele>781.79998779297</ele>
        <time>2013-09-21T09:18:48Z</time>
      </trkpt>
      <trkpt lat="45.86901" lon="2.86887">
        <ele>781.40002441406</ele>
        <time>2013-09-21T09:18:49Z</time>
      </trkpt>
      <trkpt lat="45.86901" lon="2.86875">
        <ele>780.79998779297</ele>
        <time>2013-09-21T09:18:50Z</time>
      </trkpt>
      <trkpt lat="45.86902" lon="2.86864">
        <ele>780.40002441406</ele>
        <time>2013-09-21T09:18:51Z</time>
      </trkpt>
      <trkpt lat="45.86902" lon="2.86853">
        <ele>780</ele>
        <time>2013-09-21T09:18:52Z</time>
      </trkpt>
      <trkpt lat="45.86904" lon="2.86803">
        <ele>780</ele>
        <time>2013-09-21T09:18:57Z</time>
      </trkpt>
      <trkpt lat="45.86911" lon="2.86751">
        <ele>780</ele>
        <time>2013-09-21T09:19:02Z</time>
      </trkpt>
      <trkpt lat="45.86912" lon="2.8674">
        <ele>780</ele>
        <time>2013-09-21T09:19:03Z</time>
      </trkpt>
      <trkpt lat="45.86905" lon="2.86694">
        <ele>780</ele>
        <time>2013-09-21T09:19:07Z</time>
      </trkpt>
      <trkpt lat="45.86891" lon="2.8665">
        <ele>780</ele>
        <time>2013-09-21T09:19:12Z</time>
      </trkpt>
      <trkpt lat="45.86886" lon="2.86562">
        <ele>780</ele>
        <time>2013-09-21T09:19:22Z</time>
      </trkpt>
      <trkpt lat="45.8689" lon="2.86535">
        <ele>780</ele>
        <time>2013-09-21T09:19:25Z</time>
      </trkpt>
      <trkpt lat="45.86893" lon="2.86526">
        <ele>780</ele>
        <time>2013-09-21T09:19:26Z</time>
      </trkpt>
      <trkpt lat="45.86898" lon="2.86503">
        <ele>779.59997558594</ele>
        <time>2013-09-21T09:19:28Z</time>
      </trkpt>
      <trkpt lat="45.869" lon="2.86492">
        <ele>779</ele>
        <time>2013-09-21T09:19:29Z</time>
      </trkpt>
      <trkpt lat="45.86904" lon="2.86481">
        <ele>778.59997558594</ele>
        <time>2013-09-21T09:19:30Z</time>
      </trkpt>
      <trkpt lat="45.86908" lon="2.86471">
        <ele>778.20001220703</ele>
        <time>2013-09-21T09:19:31Z</time>
      </trkpt>
      <trkpt lat="45.86913" lon="2.86461">
        <ele>777.79998779297</ele>
        <time>2013-09-21T09:19:32Z</time>
      </trkpt>
      <trkpt lat="45.86928" lon="2.86435">
        <ele>777.40002441406</ele>
        <time>2013-09-21T09:19:35Z</time>
      </trkpt>
      <trkpt lat="45.86934" lon="2.86427">
        <ele>777</ele>
        <time>2013-09-21T09:19:36Z</time>
      </trkpt>
      <trkpt lat="45.8694" lon="2.86417">
        <ele>776.59997558594</ele>
        <time>2013-09-21T09:19:37Z</time>
      </trkpt>
      <trkpt lat="45.86946" lon="2.86409">
        <ele>776.20001220703</ele>
        <time>2013-09-21T09:19:38Z</time>
      </trkpt>
      <trkpt lat="45.86952" lon="2.864">
        <ele>775.79998779297</ele>
        <time>2013-09-21T09:19:39Z</time>
      </trkpt>
      <trkpt lat="45.86971" lon="2.86376">
        <ele>775.79998779297</ele>
        <time>2013-09-21T09:19:42Z</time>
      </trkpt>
      <trkpt lat="45.86978" lon="2.86368">
        <ele>775.40002441406</ele>
        <time>2013-09-21T09:19:43Z</time>
      </trkpt>
      <trkpt lat="45.86984" lon="2.86361">
        <ele>775</ele>
        <time>2013-09-21T09:19:44Z</time>
      </trkpt>
      <trkpt lat="45.8699" lon="2.86353">
        <ele>774.59997558594</ele>
        <time>2013-09-21T09:19:45Z</time>
      </trkpt>
      <trkpt lat="45.86996" lon="2.86345">
        <ele>774.20001220703</ele>
        <time>2013-09-21T09:19:46Z</time>
      </trkpt>
      <trkpt lat="45.87002" lon="2.86338">
        <ele>773.79998779297</ele>
        <time>2013-09-21T09:19:47Z</time>
      </trkpt>
      <trkpt lat="45.87012" lon="2.86319">
        <ele>773.79998779297</ele>
        <time>2013-09-21T09:19:49Z</time>
      </trkpt>
      <trkpt lat="45.8703" lon="2.86269">
        <ele>773.79998779297</ele>
        <time>2013-09-21T09:19:55Z</time>
      </trkpt>
      <trkpt lat="45.87036" lon="2.8622">
        <ele>773.79998779297</ele>
        <time>2013-09-21T09:20:01Z</time>
      </trkpt>
      <trkpt lat="45.87034" lon="2.86189">
        <ele>773.79998779297</ele>
        <time>2013-09-21T09:20:05Z</time>
      </trkpt>
      <trkpt lat="45.87028" lon="2.86169">
        <ele>774.20001220703</ele>
        <time>2013-09-21T09:20:08Z</time>
      </trkpt>
      <trkpt lat="45.87021" lon="2.86158">
        <ele>775.20001220703</ele>
        <time>2013-09-21T09:20:10Z</time>
      </trkpt>
      <trkpt lat="45.87018" lon="2.86153">
        <ele>775.59997558594</ele>
        <time>2013-09-21T09:20:11Z</time>
      </trkpt>
      <trkpt lat="45.87016" lon="2.86149">
        <ele>776</ele>
        <time>2013-09-21T09:20:12Z</time>
      </trkpt>
      <trkpt lat="45.87005" lon="2.86137">
        <ele>776.59997558594</ele>
        <time>2013-09-21T09:20:17Z</time>
      </trkpt>
      <trkpt lat="45.87001" lon="2.86129">
        <ele>778</ele>
        <time>2013-09-21T09:20:20Z</time>
      </trkpt>
      <trkpt lat="45.87005" lon="2.86117">
        <ele>779</ele>
        <time>2013-09-21T09:20:24Z</time>
      </trkpt>
      <trkpt lat="45.87012" lon="2.86116">
        <ele>780.20001220703</ele>
        <time>2013-09-21T09:20:27Z</time>
      </trkpt>
      <trkpt lat="45.87027" lon="2.86112">
        <ele>781</ele>
        <time>2013-09-21T09:20:33Z</time>
      </trkpt>
      <trkpt lat="45.87032" lon="2.86109">
        <ele>781.79998779297</ele>
        <time>2013-09-21T09:20:35Z</time>
      </trkpt>
      <trkpt lat="45.87051" lon="2.86099">
        <ele>783</ele>
        <time>2013-09-21T09:20:43Z</time>
      </trkpt>
      <trkpt lat="45.87067" lon="2.8609">
        <ele>785.20001220703</ele>
        <time>2013-09-21T09:20:50Z</time>
      </trkpt>
      <trkpt lat="45.8707" lon="2.86089">
        <ele>785.59997558594</ele>
        <time>2013-09-21T09:20:51Z</time>
      </trkpt>
      <trkpt lat="45.87085" lon="2.86081">
        <ele>786.79998779297</ele>
        <time>2013-09-21T09:20:58Z</time>
      </trkpt>
      <trkpt lat="45.87089" lon="2.86079">
        <ele>787.20001220703</ele>
        <time>2013-09-21T09:21:00Z</time>
      </trkpt>
      <trkpt lat="45.87091" lon="2.86077">
        <ele>787.79998779297</ele>
        <time>2013-09-21T09:21:01Z</time>
      </trkpt>
      <trkpt lat="45.87107" lon="2.86069">
        <ele>789.20001220703</ele>
        <time>2013-09-21T09:21:08Z</time>
      </trkpt>
      <trkpt lat="45.87111" lon="2.86067">
        <ele>790.20001220703</ele>
        <time>2013-09-21T09:21:10Z</time>
      </trkpt>
      <trkpt lat="45.87127" lon="2.86059">
        <ele>791.40002441406</ele>
        <time>2013-09-21T09:21:18Z</time>
      </trkpt>
      <trkpt lat="45.87135" lon="2.86056">
        <ele>791.79998779297</ele>
        <time>2013-09-21T09:21:22Z</time>
      </trkpt>
      <trkpt lat="45.87141" lon="2.86051">
        <ele>793.40002441406</ele>
        <time>2013-09-21T09:21:26Z</time>
      </trkpt>
      <trkpt lat="45.87141" lon="2.8605">
        <ele>793.40002441406</ele>
        <time>2013-09-21T09:21:27Z</time>
      </trkpt>
      <trkpt lat="45.87152" lon="2.86037">
        <ele>793.40002441406</ele>
        <time>2013-09-21T09:21:34Z</time>
      </trkpt>
      <trkpt lat="45.87163" lon="2.86026">
        <ele>795.59997558594</ele>
        <time>2013-09-21T09:21:42Z</time>
      </trkpt>
      <trkpt lat="45.87171" lon="2.86022">
        <ele>796.79998779297</ele>
        <time>2013-09-21T09:21:47Z</time>
      </trkpt>
      <trkpt lat="45.87172" lon="2.86019">
        <ele>797.59997558594</ele>
        <time>2013-09-21T09:21:49Z</time>
      </trkpt>
      <trkpt lat="45.87181" lon="2.86012">
        <ele>799.79998779297</ele>
        <time>2013-09-21T09:21:58Z</time>
      </trkpt>
      <trkpt lat="45.87191" lon="2.86013">
        <ele>801.79998779297</ele>
        <time>2013-09-21T09:22:06Z</time>
      </trkpt>
      <trkpt lat="45.87201" lon="2.8602">
        <ele>802.59997558594</ele>
        <time>2013-09-21T09:22:14Z</time>
      </trkpt>
      <trkpt lat="45.87202" lon="2.8602">
        <ele>803</ele>
        <time>2013-09-21T09:22:15Z</time>
      </trkpt>
      <trkpt lat="45.87211" lon="2.86025">
        <ele>803.79998779297</ele>
        <time>2013-09-21T09:22:20Z</time>
      </trkpt>
      <trkpt lat="45.8722" lon="2.86007">
        <ele>803.79998779297</ele>
        <time>2013-09-21T09:22:27Z</time>
      </trkpt>
      <trkpt lat="45.87228" lon="2.85978">
        <ele>803.79998779297</ele>
        <time>2013-09-21T09:22:32Z</time>
      </trkpt>
      <trkpt lat="45.87236" lon="2.85956">
        <ele>803.40002441406</ele>
        <time>2013-09-21T09:22:35Z</time>
      </trkpt>
      <trkpt lat="45.87239" lon="2.85946">
        <ele>803</ele>
        <time>2013-09-21T09:22:36Z</time>
      </trkpt>
      <trkpt lat="45.87241" lon="2.85935">
        <ele>802.59997558594</ele>
        <time>2013-09-21T09:22:37Z</time>
      </trkpt>
      <trkpt lat="45.87245" lon="2.85913">
        <ele>802.20001220703</ele>
        <time>2013-09-21T09:22:39Z</time>
      </trkpt>
      <trkpt lat="45.87247" lon="2.85904">
        <ele>801.79998779297</ele>
        <time>2013-09-21T09:22:40Z</time>
      </trkpt>
      <trkpt lat="45.87255" lon="2.859">
        <ele>801.20001220703</ele>
        <time>2013-09-21T09:22:41Z</time>
      </trkpt>
      <trkpt lat="45.87262" lon="2.85898">
        <ele>800.79998779297</ele>
        <time>2013-09-21T09:22:42Z</time>
      </trkpt>
      <trkpt lat="45.87271" lon="2.85897">
        <ele>800.20001220703</ele>
        <time>2013-09-21T09:22:43Z</time>
      </trkpt>
      <trkpt lat="45.87286" lon="2.85897">
        <ele>799.79998779297</ele>
        <time>2013-09-21T09:22:45Z</time>
      </trkpt>
      <trkpt lat="45.87331" lon="2.85896">
        <ele>799.40002441406</ele>
        <time>2013-09-21T09:22:51Z</time>
      </trkpt>
      <trkpt lat="45.87348" lon="2.85894">
        <ele>798.40002441406</ele>
        <time>2013-09-21T09:22:53Z</time>
      </trkpt>
      <trkpt lat="45.87355" lon="2.85892">
        <ele>798</ele>
        <time>2013-09-21T09:22:54Z</time>
      </trkpt>
      <trkpt lat="45.87363" lon="2.8589">
        <ele>797.40002441406</ele>
        <time>2013-09-21T09:22:55Z</time>
      </trkpt>
      <trkpt lat="45.87376" lon="2.85886">
        <ele>796.20001220703</ele>
        <time>2013-09-21T09:22:57Z</time>
      </trkpt>
      <trkpt lat="45.87383" lon="2.85883">
        <ele>795.59997558594</ele>
        <time>2013-09-21T09:22:58Z</time>
      </trkpt>
      <trkpt lat="45.8739" lon="2.85878">
        <ele>794.79998779297</ele>
        <time>2013-09-21T09:22:59Z</time>
      </trkpt>
      <trkpt lat="45.87397" lon="2.85871">
        <ele>794.20001220703</ele>
        <time>2013-09-21T09:23:00Z</time>
      </trkpt>
      <trkpt lat="45.87404" lon="2.85864">
        <ele>793.40002441406</ele>
        <time>2013-09-21T09:23:01Z</time>
      </trkpt>
      <trkpt lat="45.87412" lon="2.85858">
        <ele>792.40002441406</ele>
        <time>2013-09-21T09:23:02Z</time>
      </trkpt>
      <trkpt lat="45.87429" lon="2.85845">
        <ele>790.79998779297</ele>
        <time>2013-09-21T09:23:04Z</time>
      </trkpt>
      <trkpt lat="45.87437" lon="2.8584">
        <ele>789.79998779297</ele>
        <time>2013-09-21T09:23:05Z</time>
      </trkpt>
      <trkpt lat="45.87446" lon="2.85834">
        <ele>789</ele>
        <time>2013-09-21T09:23:06Z</time>
      </trkpt>
      <trkpt lat="45.87454" lon="2.85828">
        <ele>788.20001220703</ele>
        <time>2013-09-21T09:23:07Z</time>
      </trkpt>
      <trkpt lat="45.87463" lon="2.85822">
        <ele>787.20001220703</ele>
        <time>2013-09-21T09:23:08Z</time>
      </trkpt>
      <trkpt lat="45.87472" lon="2.85814">
        <ele>786.40002441406</ele>
        <time>2013-09-21T09:23:09Z</time>
      </trkpt>
      <trkpt lat="45.8748" lon="2.85809">
        <ele>785.59997558594</ele>
        <time>2013-09-21T09:23:10Z</time>
      </trkpt>
      <trkpt lat="45.8749" lon="2.85799">
        <ele>785</ele>
        <time>2013-09-21T09:23:11Z</time>
      </trkpt>
      <trkpt lat="45.87499" lon="2.85791">
        <ele>784.20001220703</ele>
        <time>2013-09-21T09:23:12Z</time>
      </trkpt>
      <trkpt lat="45.87508" lon="2.85785">
        <ele>783.59997558594</ele>
        <time>2013-09-21T09:23:13Z</time>
      </trkpt>
      <trkpt lat="45.87518" lon="2.85778">
        <ele>783</ele>
        <time>2013-09-21T09:23:14Z</time>
      </trkpt>
      <trkpt lat="45.87528" lon="2.85773">
        <ele>782.40002441406</ele>
        <time>2013-09-21T09:23:15Z</time>
      </trkpt>
      <trkpt lat="45.87548" lon="2.85764">
        <ele>782</ele>
        <time>2013-09-21T09:23:17Z</time>
      </trkpt>
      <trkpt lat="45.87558" lon="2.8576">
        <ele>781.40002441406</ele>
        <time>2013-09-21T09:23:18Z</time>
      </trkpt>
      <trkpt lat="45.87569" lon="2.85758">
        <ele>780.79998779297</ele>
        <time>2013-09-21T09:23:19Z</time>
      </trkpt>
      <trkpt lat="45.87579" lon="2.85755">
        <ele>780.40002441406</ele>
        <time>2013-09-21T09:23:20Z</time>
      </trkpt>
      <trkpt lat="45.87588" lon="2.85751">
        <ele>779.79998779297</ele>
        <time>2013-09-21T09:23:21Z</time>
      </trkpt>
      <trkpt lat="45.87595" lon="2.85745">
        <ele>779.40002441406</ele>
        <time>2013-09-21T09:23:22Z</time>
      </trkpt>
      <trkpt lat="45.87601" lon="2.85737">
        <ele>779</ele>
        <time>2013-09-21T09:23:23Z</time>
      </trkpt>
      <trkpt lat="45.87606" lon="2.85728">
        <ele>778.59997558594</ele>
        <time>2013-09-21T09:23:24Z</time>
      </trkpt>
      <trkpt lat="45.8761" lon="2.85719">
        <ele>778.20001220703</ele>
        <time>2013-09-21T09:23:25Z</time>
      </trkpt>
      <trkpt lat="45.8761" lon="2.85705">
        <ele>777.79998779297</ele>
        <time>2013-09-21T09:23:26Z</time>
      </trkpt>
      <trkpt lat="45.87607" lon="2.85691">
        <ele>777.40002441406</ele>
        <time>2013-09-21T09:23:27Z</time>
      </trkpt>
      <trkpt lat="45.87608" lon="2.8568">
        <ele>777</ele>
        <time>2013-09-21T09:23:28Z</time>
      </trkpt>
      <trkpt lat="45.87607" lon="2.85668">
        <ele>776.59997558594</ele>
        <time>2013-09-21T09:23:29Z</time>
      </trkpt>
      <trkpt lat="45.87607" lon="2.85656">
        <ele>776.20001220703</ele>
        <time>2013-09-21T09:23:30Z</time>
      </trkpt>
      <trkpt lat="45.87608" lon="2.85645">
        <ele>775.59997558594</ele>
        <time>2013-09-21T09:23:31Z</time>
      </trkpt>
      <trkpt lat="45.87607" lon="2.85634">
        <ele>775.59997558594</ele>
        <time>2013-09-21T09:23:32Z</time>
      </trkpt>
      <trkpt lat="45.87612" lon="2.85555">
        <ele>775.59997558594</ele>
        <time>2013-09-21T09:23:39Z</time>
      </trkpt>
      <trkpt lat="45.87613" lon="2.85543">
        <ele>775.59997558594</ele>
        <time>2013-09-21T09:23:40Z</time>
      </trkpt>
      <trkpt lat="45.87621" lon="2.85475">
        <ele>775.59997558594</ele>
        <time>2013-09-21T09:23:47Z</time>
      </trkpt>
      <trkpt lat="45.87635" lon="2.85416">
        <ele>775.59997558594</ele>
        <time>2013-09-21T09:23:54Z</time>
      </trkpt>
      <trkpt lat="45.87638" lon="2.85407">
        <ele>775.59997558594</ele>
        <time>2013-09-21T09:23:55Z</time>
      </trkpt>
      <trkpt lat="45.8765" lon="2.85372">
        <ele>775.59997558594</ele>
        <time>2013-09-21T09:23:59Z</time>
      </trkpt>
      <trkpt lat="45.8768" lon="2.85304">
        <ele>775.59997558594</ele>
        <time>2013-09-21T09:24:07Z</time>
      </trkpt>
      <trkpt lat="45.87684" lon="2.85294">
        <ele>775.59997558594</ele>
        <time>2013-09-21T09:24:08Z</time>
      </trkpt>
      <trkpt lat="45.87697" lon="2.85257">
        <ele>775.59997558594</ele>
        <time>2013-09-21T09:24:12Z</time>
      </trkpt>
      <trkpt lat="45.877" lon="2.85247">
        <ele>775.20001220703</ele>
        <time>2013-09-21T09:24:13Z</time>
      </trkpt>
      <trkpt lat="45.87702" lon="2.85238">
        <ele>774.79998779297</ele>
        <time>2013-09-21T09:24:14Z</time>
      </trkpt>
      <trkpt lat="45.87704" lon="2.85229">
        <ele>774.40002441406</ele>
        <time>2013-09-21T09:24:15Z</time>
      </trkpt>
      <trkpt lat="45.87708" lon="2.85212">
        <ele>773.59997558594</ele>
        <time>2013-09-21T09:24:17Z</time>
      </trkpt>
      <trkpt lat="45.87713" lon="2.85188">
        <ele>773.59997558594</ele>
        <time>2013-09-21T09:24:20Z</time>
      </trkpt>
      <trkpt lat="45.87719" lon="2.85134">
        <ele>773.59997558594</ele>
        <time>2013-09-21T09:24:26Z</time>
      </trkpt>
      <trkpt lat="45.87721" lon="2.85099">
        <ele>773.20001220703</ele>
        <time>2013-09-21T09:24:29Z</time>
      </trkpt>
      <trkpt lat="45.87721" lon="2.85086">
        <ele>772.79998779297</ele>
        <time>2013-09-21T09:24:30Z</time>
      </trkpt>
      <trkpt lat="45.87721" lon="2.85073">
        <ele>772.40002441406</ele>
        <time>2013-09-21T09:24:31Z</time>
      </trkpt>
      <trkpt lat="45.87722" lon="2.85059">
        <ele>771.59997558594</ele>
        <time>2013-09-21T09:24:32Z</time>
      </trkpt>
      <trkpt lat="45.87721" lon="2.85045">
        <ele>771</ele>
        <time>2013-09-21T09:24:33Z</time>
      </trkpt>
      <trkpt lat="45.8772" lon="2.85031">
        <ele>770.20001220703</ele>
        <time>2013-09-21T09:24:34Z</time>
      </trkpt>
      <trkpt lat="45.87719" lon="2.85017">
        <ele>769.40002441406</ele>
        <time>2013-09-21T09:24:35Z</time>
      </trkpt>
      <trkpt lat="45.87717" lon="2.85002">
        <ele>768.59997558594</ele>
        <time>2013-09-21T09:24:36Z</time>
      </trkpt>
      <trkpt lat="45.87715" lon="2.84987">
        <ele>767.79998779297</ele>
        <time>2013-09-21T09:24:37Z</time>
      </trkpt>
      <trkpt lat="45.87713" lon="2.84972">
        <ele>767</ele>
        <time>2013-09-21T09:24:38Z</time>
      </trkpt>
      <trkpt lat="45.87711" lon="2.84959">
        <ele>766.20001220703</ele>
        <time>2013-09-21T09:24:39Z</time>
      </trkpt>
      <trkpt lat="45.87708" lon="2.84947">
        <ele>765.40002441406</ele>
        <time>2013-09-21T09:24:40Z</time>
      </trkpt>
      <trkpt lat="45.87704" lon="2.84936">
        <ele>764.59997558594</ele>
        <time>2013-09-21T09:24:41Z</time>
      </trkpt>
      <trkpt lat="45.877" lon="2.84927">
        <ele>763.79998779297</ele>
        <time>2013-09-21T09:24:42Z</time>
      </trkpt>
      <trkpt lat="45.87687" lon="2.84911">
        <ele>763.20001220703</ele>
        <time>2013-09-21T09:24:44Z</time>
      </trkpt>
      <trkpt lat="45.8768" lon="2.84902">
        <ele>762.79998779297</ele>
        <time>2013-09-21T09:24:45Z</time>
      </trkpt>
      <trkpt lat="45.87674" lon="2.84893">
        <ele>762.20001220703</ele>
        <time>2013-09-21T09:24:46Z</time>
      </trkpt>
      <trkpt lat="45.87667" lon="2.84884">
        <ele>761.79998779297</ele>
        <time>2013-09-21T09:24:47Z</time>
      </trkpt>
      <trkpt lat="45.8766" lon="2.84874">
        <ele>761.20001220703</ele>
        <time>2013-09-21T09:24:48Z</time>
      </trkpt>
      <trkpt lat="45.87654" lon="2.84864">
        <ele>760.59997558594</ele>
        <time>2013-09-21T09:24:49Z</time>
      </trkpt>
      <trkpt lat="45.87649" lon="2.84853">
        <ele>760</ele>
        <time>2013-09-21T09:24:50Z</time>
      </trkpt>
      <trkpt lat="45.87645" lon="2.84842">
        <ele>759.40002441406</ele>
        <time>2013-09-21T09:24:51Z</time>
      </trkpt>
      <trkpt lat="45.87642" lon="2.84831">
        <ele>758.79998779297</ele>
        <time>2013-09-21T09:24:52Z</time>
      </trkpt>
      <trkpt lat="45.87637" lon="2.84822">
        <ele>758.79998779297</ele>
        <time>2013-09-21T09:24:53Z</time>
      </trkpt>
      <trkpt lat="45.87631" lon="2.84815">
        <ele>758.79998779297</ele>
        <time>2013-09-21T09:24:54Z</time>
      </trkpt>
      <trkpt lat="45.87604" lon="2.84783">
        <ele>758.79998779297</ele>
        <time>2013-09-21T09:24:58Z</time>
      </trkpt>
      <trkpt lat="45.87597" lon="2.84775">
        <ele>758.20001220703</ele>
        <time>2013-09-21T09:24:59Z</time>
      </trkpt>
      <trkpt lat="45.87589" lon="2.84766">
        <ele>757.79998779297</ele>
        <time>2013-09-21T09:25:00Z</time>
      </trkpt>
      <trkpt lat="45.87582" lon="2.84759">
        <ele>757.40002441406</ele>
        <time>2013-09-21T09:25:01Z</time>
      </trkpt>
      <trkpt lat="45.87574" lon="2.84752">
        <ele>756.59997558594</ele>
        <time>2013-09-21T09:25:02Z</time>
      </trkpt>
      <trkpt lat="45.87566" lon="2.84744">
        <ele>756</ele>
        <time>2013-09-21T09:25:03Z</time>
      </trkpt>
      <trkpt lat="45.8756" lon="2.84735">
        <ele>755</ele>
        <time>2013-09-21T09:25:04Z</time>
      </trkpt>
      <trkpt lat="45.87554" lon="2.84726">
        <ele>754.20001220703</ele>
        <time>2013-09-21T09:25:05Z</time>
      </trkpt>
      <trkpt lat="45.87548" lon="2.84715">
        <ele>753.40002441406</ele>
        <time>2013-09-21T09:25:06Z</time>
      </trkpt>
      <trkpt lat="45.87542" lon="2.84706">
        <ele>752.59997558594</ele>
        <time>2013-09-21T09:25:07Z</time>
      </trkpt>
      <trkpt lat="45.87535" lon="2.84695">
        <ele>751.79998779297</ele>
        <time>2013-09-21T09:25:08Z</time>
      </trkpt>
      <trkpt lat="45.8753" lon="2.84683">
        <ele>751</ele>
        <time>2013-09-21T09:25:09Z</time>
      </trkpt>
      <trkpt lat="45.87524" lon="2.84673">
        <ele>750</ele>
        <time>2013-09-21T09:25:10Z</time>
      </trkpt>
      <trkpt lat="45.87522" lon="2.84666">
        <ele>749</ele>
        <time>2013-09-21T09:25:11Z</time>
      </trkpt>
      <trkpt lat="45.87519" lon="2.8466">
        <ele>748</ele>
        <time>2013-09-21T09:25:12Z</time>
      </trkpt>
      <trkpt lat="45.8751" lon="2.84655">
        <ele>744.79998779297</ele>
        <time>2013-09-21T09:25:15Z</time>
      </trkpt>
      <trkpt lat="45.87505" lon="2.84661">
        <ele>743</ele>
        <time>2013-09-21T09:25:17Z</time>
      </trkpt>
      <trkpt lat="45.87499" lon="2.84669">
        <ele>741.79998779297</ele>
        <time>2013-09-21T09:25:19Z</time>
      </trkpt>
      <trkpt lat="45.87494" lon="2.84673">
        <ele>741.20001220703</ele>
        <time>2013-09-21T09:25:20Z</time>
      </trkpt>
      <trkpt lat="45.87487" lon="2.84677">
        <ele>740.59997558594</ele>
        <time>2013-09-21T09:25:21Z</time>
      </trkpt>
      <trkpt lat="45.87481" lon="2.8468">
        <ele>740.20001220703</ele>
        <time>2013-09-21T09:25:22Z</time>
      </trkpt>
      <trkpt lat="45.87473" lon="2.84683">
        <ele>739.79998779297</ele>
        <time>2013-09-21T09:25:23Z</time>
      </trkpt>
      <trkpt lat="45.87465" lon="2.84686">
        <ele>739.20001220703</ele>
        <time>2013-09-21T09:25:24Z</time>
      </trkpt>
      <trkpt lat="45.87458" lon="2.84687">
        <ele>738.79998779297</ele>
        <time>2013-09-21T09:25:25Z</time>
      </trkpt>
      <trkpt lat="45.8745" lon="2.8469">
        <ele>738.40002441406</ele>
        <time>2013-09-21T09:25:26Z</time>
      </trkpt>
      <trkpt lat="45.87442" lon="2.84691">
        <ele>738</ele>
        <time>2013-09-21T09:25:27Z</time>
      </trkpt>
      <trkpt lat="45.87433" lon="2.84689">
        <ele>737.40002441406</ele>
        <time>2013-09-21T09:25:28Z</time>
      </trkpt>
      <trkpt lat="45.87425" lon="2.84687">
        <ele>737</ele>
        <time>2013-09-21T09:25:29Z</time>
      </trkpt>
      <trkpt lat="45.87419" lon="2.84681">
        <ele>736.40002441406</ele>
        <time>2013-09-21T09:25:30Z</time>
      </trkpt>
      <trkpt lat="45.87412" lon="2.84677">
        <ele>735.79998779297</ele>
        <time>2013-09-21T09:25:31Z</time>
      </trkpt>
      <trkpt lat="45.87405" lon="2.84673">
        <ele>735.20001220703</ele>
        <time>2013-09-21T09:25:32Z</time>
      </trkpt>
      <trkpt lat="45.87398" lon="2.84671">
        <ele>734.59997558594</ele>
        <time>2013-09-21T09:25:33Z</time>
      </trkpt>
      <trkpt lat="45.87379" lon="2.8467">
        <ele>733.59997558594</ele>
        <time>2013-09-21T09:25:36Z</time>
      </trkpt>
      <trkpt lat="45.87373" lon="2.8467">
        <ele>733</ele>
        <time>2013-09-21T09:25:37Z</time>
      </trkpt>
      <trkpt lat="45.87368" lon="2.8467">
        <ele>732.40002441406</ele>
        <time>2013-09-21T09:25:38Z</time>
      </trkpt>
      <trkpt lat="45.87358" lon="2.84668">
        <ele>730.79998779297</ele>
        <time>2013-09-21T09:25:40Z</time>
      </trkpt>
      <trkpt lat="45.87346" lon="2.84664">
        <ele>729</ele>
        <time>2013-09-21T09:25:42Z</time>
      </trkpt>
      <trkpt lat="45.8734" lon="2.84662">
        <ele>728.20001220703</ele>
        <time>2013-09-21T09:25:43Z</time>
      </trkpt>
      <trkpt lat="45.87334" lon="2.8466">
        <ele>727.20001220703</ele>
        <time>2013-09-21T09:25:44Z</time>
      </trkpt>
      <trkpt lat="45.87323" lon="2.84654">
        <ele>726.40002441406</ele>
        <time>2013-09-21T09:25:47Z</time>
      </trkpt>
      <trkpt lat="45.8732" lon="2.8465">
        <ele>725.40002441406</ele>
        <time>2013-09-21T09:25:48Z</time>
      </trkpt>
      <trkpt lat="45.87309" lon="2.84636">
        <ele>722.79998779297</ele>
        <time>2013-09-21T09:25:51Z</time>
      </trkpt>
      <trkpt lat="45.87305" lon="2.84629">
        <ele>721.79998779297</ele>
        <time>2013-09-21T09:25:52Z</time>
      </trkpt>
      <trkpt lat="45.87297" lon="2.84615">
        <ele>720</ele>
        <time>2013-09-21T09:25:54Z</time>
      </trkpt>
      <trkpt lat="45.87293" lon="2.84608">
        <ele>719</ele>
        <time>2013-09-21T09:25:55Z</time>
      </trkpt>
      <trkpt lat="45.87289" lon="2.84603">
        <ele>718.20001220703</ele>
        <time>2013-09-21T09:25:56Z</time>
      </trkpt>
      <trkpt lat="45.87285" lon="2.84598">
        <ele>717.20001220703</ele>
        <time>2013-09-21T09:25:57Z</time>
      </trkpt>
      <trkpt lat="45.87278" lon="2.8459">
        <ele>715.59997558594</ele>
        <time>2013-09-21T09:25:59Z</time>
      </trkpt>
      <trkpt lat="45.8727" lon="2.84585">
        <ele>714.20001220703</ele>
        <time>2013-09-21T09:26:01Z</time>
      </trkpt>
      <trkpt lat="45.87255" lon="2.84583">
        <ele>711.20001220703</ele>
        <time>2013-09-21T09:26:04Z</time>
      </trkpt>
      <trkpt lat="45.8725" lon="2.84584">
        <ele>710.20001220703</ele>
        <time>2013-09-21T09:26:05Z</time>
      </trkpt>
      <trkpt lat="45.87237" lon="2.84583">
        <ele>707.59997558594</ele>
        <time>2013-09-21T09:26:08Z</time>
      </trkpt>
      <trkpt lat="45.87229" lon="2.84583">
        <ele>706</ele>
        <time>2013-09-21T09:26:10Z</time>
      </trkpt>
      <trkpt lat="45.87216" lon="2.84583">
        <ele>703.59997558594</ele>
        <time>2013-09-21T09:26:13Z</time>
      </trkpt>
      <trkpt lat="45.87208" lon="2.84584">
        <ele>702</ele>
        <time>2013-09-21T09:26:15Z</time>
      </trkpt>
      <trkpt lat="45.872" lon="2.84583">
        <ele>700.20001220703</ele>
        <time>2013-09-21T09:26:17Z</time>
      </trkpt>
      <trkpt lat="45.87188" lon="2.84585">
        <ele>697.79998779297</ele>
        <time>2013-09-21T09:26:20Z</time>
      </trkpt>
      <trkpt lat="45.87178" lon="2.84585">
        <ele>695.59997558594</ele>
        <time>2013-09-21T09:26:23Z</time>
      </trkpt>
      <trkpt lat="45.87169" lon="2.84578">
        <ele>693.20001220703</ele>
        <time>2013-09-21T09:26:26Z</time>
      </trkpt>
      <trkpt lat="45.8716" lon="2.8457">
        <ele>690.59997558594</ele>
        <time>2013-09-21T09:26:29Z</time>
      </trkpt>
      <trkpt lat="45.87157" lon="2.84568">
        <ele>689.59997558594</ele>
        <time>2013-09-21T09:26:30Z</time>
      </trkpt>
      <trkpt lat="45.8715" lon="2.84563">
        <ele>687</ele>
        <time>2013-09-21T09:26:33Z</time>
      </trkpt>
      <trkpt lat="45.87142" lon="2.84559">
        <ele>685.20001220703</ele>
        <time>2013-09-21T09:26:35Z</time>
      </trkpt>
      <trkpt lat="45.8714" lon="2.84557">
        <ele>684.40002441406</ele>
        <time>2013-09-21T09:26:36Z</time>
      </trkpt>
      <trkpt lat="45.87133" lon="2.8455">
        <ele>682</ele>
        <time>2013-09-21T09:26:39Z</time>
      </trkpt>
      <trkpt lat="45.87128" lon="2.84544">
        <ele>680.59997558594</ele>
        <time>2013-09-21T09:26:41Z</time>
      </trkpt>
      <trkpt lat="45.87123" lon="2.84539">
        <ele>679.20001220703</ele>
        <time>2013-09-21T09:26:43Z</time>
      </trkpt>
      <trkpt lat="45.87117" lon="2.84534">
        <ele>677.79998779297</ele>
        <time>2013-09-21T09:26:45Z</time>
      </trkpt>
      <trkpt lat="45.8711" lon="2.8453">
        <ele>676.20001220703</ele>
        <time>2013-09-21T09:26:47Z</time>
      </trkpt>
      <trkpt lat="45.87106" lon="2.84527">
        <ele>675.20001220703</ele>
        <time>2013-09-21T09:26:48Z</time>
      </trkpt>
      <trkpt lat="45.87091" lon="2.84521">
        <ele>673.20001220703</ele>
        <time>2013-09-21T09:26:50Z</time>
      </trkpt>
      <trkpt lat="45.87086" lon="2.84516">
        <ele>672.20001220703</ele>
        <time>2013-09-21T09:26:51Z</time>
      </trkpt>
      <trkpt lat="45.8708" lon="2.84508">
        <ele>670.20001220703</ele>
        <time>2013-09-21T09:26:53Z</time>
      </trkpt>
      <trkpt lat="45.87075" lon="2.84503">
        <ele>669.20001220703</ele>
        <time>2013-09-21T09:26:54Z</time>
      </trkpt>
      <trkpt lat="45.87072" lon="2.84499">
        <ele>668.40002441406</ele>
        <time>2013-09-21T09:26:55Z</time>
      </trkpt>
      <trkpt lat="45.87066" lon="2.84496">
        <ele>667.40002441406</ele>
        <time>2013-09-21T09:26:56Z</time>
      </trkpt>
      <trkpt lat="45.87058" lon="2.84489">
        <ele>665.79998779297</ele>
        <time>2013-09-21T09:26:58Z</time>
      </trkpt>
      <trkpt lat="45.87053" lon="2.84479">
        <ele>664.20001220703</ele>
        <time>2013-09-21T09:27:00Z</time>
      </trkpt>
      <trkpt lat="45.87047" lon="2.84468">
        <ele>662.59997558594</ele>
        <time>2013-09-21T09:27:02Z</time>
      </trkpt>
      <trkpt lat="45.87043" lon="2.84453">
        <ele>661</ele>
        <time>2013-09-21T09:27:04Z</time>
      </trkpt>
      <trkpt lat="45.87042" lon="2.84444">
        <ele>660.20001220703</ele>
        <time>2013-09-21T09:27:05Z</time>
      </trkpt>
      <trkpt lat="45.87042" lon="2.84435">
        <ele>659.40002441406</ele>
        <time>2013-09-21T09:27:06Z</time>
      </trkpt>
      <trkpt lat="45.87044" lon="2.84426">
        <ele>658.59997558594</ele>
        <time>2013-09-21T09:27:07Z</time>
      </trkpt>
      <trkpt lat="45.87046" lon="2.84417">
        <ele>657.59997558594</ele>
        <time>2013-09-21T09:27:08Z</time>
      </trkpt>
      <trkpt lat="45.87049" lon="2.84407">
        <ele>656.79998779297</ele>
        <time>2013-09-21T09:27:09Z</time>
      </trkpt>
      <trkpt lat="45.87052" lon="2.84397">
        <ele>655.79998779297</ele>
        <time>2013-09-21T09:27:10Z</time>
      </trkpt>
      <trkpt lat="45.87054" lon="2.84386">
        <ele>655</ele>
        <time>2013-09-21T09:27:11Z</time>
      </trkpt>
      <trkpt lat="45.87056" lon="2.84376">
        <ele>654</ele>
        <time>2013-09-21T09:27:12Z</time>
      </trkpt>
      <trkpt lat="45.87059" lon="2.84367">
        <ele>653</ele>
        <time>2013-09-21T09:27:13Z</time>
      </trkpt>
      <trkpt lat="45.87061" lon="2.84359">
        <ele>651.79998779297</ele>
        <time>2013-09-21T09:27:14Z</time>
      </trkpt>
      <trkpt lat="45.87062" lon="2.8435">
        <ele>650.79998779297</ele>
        <time>2013-09-21T09:27:15Z</time>
      </trkpt>
      <trkpt lat="45.87064" lon="2.8434">
        <ele>649.59997558594</ele>
        <time>2013-09-21T09:27:16Z</time>
      </trkpt>
      <trkpt lat="45.87073" lon="2.84315">
        <ele>647</ele>
        <time>2013-09-21T09:27:19Z</time>
      </trkpt>
      <trkpt lat="45.87075" lon="2.84306">
        <ele>645.40002441406</ele>
        <time>2013-09-21T09:27:20Z</time>
      </trkpt>
      <trkpt lat="45.87078" lon="2.84296">
        <ele>643.79998779297</ele>
        <time>2013-09-21T09:27:21Z</time>
      </trkpt>
      <trkpt lat="45.87081" lon="2.8429">
        <ele>642.20001220703</ele>
        <time>2013-09-21T09:27:22Z</time>
      </trkpt>
      <trkpt lat="45.8709" lon="2.84273">
        <ele>639.20001220703</ele>
        <time>2013-09-21T09:27:24Z</time>
      </trkpt>
      <trkpt lat="45.87093" lon="2.84265">
        <ele>637.79998779297</ele>
        <time>2013-09-21T09:27:25Z</time>
      </trkpt>
      <trkpt lat="45.87092" lon="2.84257">
        <ele>636.40002441406</ele>
        <time>2013-09-21T09:27:26Z</time>
      </trkpt>
      <trkpt lat="45.8709" lon="2.84251">
        <ele>635.40002441406</ele>
        <time>2013-09-21T09:27:27Z</time>
      </trkpt>
      <trkpt lat="45.87087" lon="2.84246">
        <ele>634.40002441406</ele>
        <time>2013-09-21T09:27:28Z</time>
      </trkpt>
      <trkpt lat="45.87075" lon="2.84238">
        <ele>632.40002441406</ele>
        <time>2013-09-21T09:27:30Z</time>
      </trkpt>
      <trkpt lat="45.87069" lon="2.84236">
        <ele>631.59997558594</ele>
        <time>2013-09-21T09:27:31Z</time>
      </trkpt>
      <trkpt lat="45.87047" lon="2.8423">
        <ele>630</ele>
        <time>2013-09-21T09:27:34Z</time>
      </trkpt>
      <trkpt lat="45.87039" lon="2.84228">
        <ele>629</ele>
        <time>2013-09-21T09:27:35Z</time>
      </trkpt>
      <trkpt lat="45.87025" lon="2.84226">
        <ele>626.59997558594</ele>
        <time>2013-09-21T09:27:37Z</time>
      </trkpt>
      <trkpt lat="45.87019" lon="2.84226">
        <ele>625.59997558594</ele>
        <time>2013-09-21T09:27:38Z</time>
      </trkpt>
      <trkpt lat="45.87006" lon="2.84224">
        <ele>623.20001220703</ele>
        <time>2013-09-21T09:27:40Z</time>
      </trkpt>
      <trkpt lat="45.87" lon="2.84223">
        <ele>622</ele>
        <time>2013-09-21T09:27:41Z</time>
      </trkpt>
      <trkpt lat="45.86987" lon="2.84228">
        <ele>619.79998779297</ele>
        <time>2013-09-21T09:27:44Z</time>
      </trkpt>
      <trkpt lat="45.86985" lon="2.84233">
        <ele>619.20001220703</ele>
        <time>2013-09-21T09:27:45Z</time>
      </trkpt>
      <trkpt lat="45.86985" lon="2.84242">
        <ele>617.79998779297</ele>
        <time>2013-09-21T09:27:47Z</time>
      </trkpt>
      <trkpt lat="45.86983" lon="2.84252">
        <ele>616</ele>
        <time>2013-09-21T09:27:50Z</time>
      </trkpt>
      <trkpt lat="45.86976" lon="2.84258">
        <ele>616</ele>
        <time>2013-09-21T09:27:52Z</time>
      </trkpt>
      <trkpt lat="45.86972" lon="2.8426">
        <ele>615.59997558594</ele>
        <time>2013-09-21T09:27:53Z</time>
      </trkpt>
      <trkpt lat="45.86966" lon="2.84266">
        <ele>615.20001220703</ele>
        <time>2013-09-21T09:27:54Z</time>
      </trkpt>
      <trkpt lat="45.86959" lon="2.8427">
        <ele>614.79998779297</ele>
        <time>2013-09-21T09:27:55Z</time>
      </trkpt>
      <trkpt lat="45.86945" lon="2.84279">
        <ele>613.59997558594</ele>
        <time>2013-09-21T09:27:57Z</time>
      </trkpt>
      <trkpt lat="45.86939" lon="2.84283">
        <ele>613</ele>
        <time>2013-09-21T09:27:58Z</time>
      </trkpt>
      <trkpt lat="45.86926" lon="2.8429">
        <ele>611.40002441406</ele>
        <time>2013-09-21T09:28:00Z</time>
      </trkpt>
      <trkpt lat="45.86917" lon="2.84292">
        <ele>610.59997558594</ele>
        <time>2013-09-21T09:28:01Z</time>
      </trkpt>
      <trkpt lat="45.86909" lon="2.84292">
        <ele>609.79998779297</ele>
        <time>2013-09-21T09:28:02Z</time>
      </trkpt>
      <trkpt lat="45.86893" lon="2.84294">
        <ele>607.79998779297</ele>
        <time>2013-09-21T09:28:04Z</time>
      </trkpt>
      <trkpt lat="45.86886" lon="2.84295">
        <ele>606.79998779297</ele>
        <time>2013-09-21T09:28:05Z</time>
      </trkpt>
      <trkpt lat="45.86878" lon="2.84295">
        <ele>605.40002441406</ele>
        <time>2013-09-21T09:28:06Z</time>
      </trkpt>
      <trkpt lat="45.86864" lon="2.84296">
        <ele>603</ele>
        <time>2013-09-21T09:28:08Z</time>
      </trkpt>
      <trkpt lat="45.86858" lon="2.84296">
        <ele>601.79998779297</ele>
        <time>2013-09-21T09:28:09Z</time>
      </trkpt>
      <trkpt lat="45.86846" lon="2.84301">
        <ele>599.40002441406</ele>
        <time>2013-09-21T09:28:11Z</time>
      </trkpt>
      <trkpt lat="45.86835" lon="2.84301">
        <ele>597</ele>
        <time>2013-09-21T09:28:13Z</time>
      </trkpt>
      <trkpt lat="45.86829" lon="2.84299">
        <ele>595.79998779297</ele>
        <time>2013-09-21T09:28:14Z</time>
      </trkpt>
      <trkpt lat="45.86816" lon="2.84293">
        <ele>593.20001220703</ele>
        <time>2013-09-21T09:28:16Z</time>
      </trkpt>
      <trkpt lat="45.86808" lon="2.84291">
        <ele>591.79998779297</ele>
        <time>2013-09-21T09:28:17Z</time>
      </trkpt>
      <trkpt lat="45.868" lon="2.84289">
        <ele>590.40002441406</ele>
        <time>2013-09-21T09:28:18Z</time>
      </trkpt>
      <trkpt lat="45.86792" lon="2.84285">
        <ele>589</ele>
        <time>2013-09-21T09:28:19Z</time>
      </trkpt>
      <trkpt lat="45.86784" lon="2.8428">
        <ele>587.59997558594</ele>
        <time>2013-09-21T09:28:20Z</time>
      </trkpt>
      <trkpt lat="45.86778" lon="2.84273">
        <ele>586.40002441406</ele>
        <time>2013-09-21T09:28:21Z</time>
      </trkpt>
      <trkpt lat="45.86771" lon="2.84265">
        <ele>585</ele>
        <time>2013-09-21T09:28:22Z</time>
      </trkpt>
      <trkpt lat="45.86764" lon="2.84258">
        <ele>584</ele>
        <time>2013-09-21T09:28:23Z</time>
      </trkpt>
      <trkpt lat="45.86757" lon="2.84253">
        <ele>583</ele>
        <time>2013-09-21T09:28:24Z</time>
      </trkpt>
      <trkpt lat="45.86747" lon="2.84252">
        <ele>582</ele>
        <time>2013-09-21T09:28:25Z</time>
      </trkpt>
      <trkpt lat="45.8674" lon="2.84253">
        <ele>581.20001220703</ele>
        <time>2013-09-21T09:28:26Z</time>
      </trkpt>
      <trkpt lat="45.86725" lon="2.84253">
        <ele>579.40002441406</ele>
        <time>2013-09-21T09:28:28Z</time>
      </trkpt>
      <trkpt lat="45.86719" lon="2.84248">
        <ele>578.59997558594</ele>
        <time>2013-09-21T09:28:29Z</time>
      </trkpt>
      <trkpt lat="45.86712" lon="2.84233">
        <ele>577.20001220703</ele>
        <time>2013-09-21T09:28:31Z</time>
      </trkpt>
      <trkpt lat="45.8671" lon="2.84224">
        <ele>576.79998779297</ele>
        <time>2013-09-21T09:28:32Z</time>
      </trkpt>
      <trkpt lat="45.86708" lon="2.84215">
        <ele>576.40002441406</ele>
        <time>2013-09-21T09:28:33Z</time>
      </trkpt>
      <trkpt lat="45.86707" lon="2.84207">
        <ele>575.79998779297</ele>
        <time>2013-09-21T09:28:34Z</time>
      </trkpt>
      <trkpt lat="45.86709" lon="2.84198">
        <ele>575.40002441406</ele>
        <time>2013-09-21T09:28:35Z</time>
      </trkpt>
      <trkpt lat="45.86713" lon="2.84178">
        <ele>575.40002441406</ele>
        <time>2013-09-21T09:28:37Z</time>
      </trkpt>
      <trkpt lat="45.86715" lon="2.84169">
        <ele>575.40002441406</ele>
        <time>2013-09-21T09:28:38Z</time>
      </trkpt>
      <trkpt lat="45.86717" lon="2.8414">
        <ele>575</ele>
        <time>2013-09-21T09:28:42Z</time>
      </trkpt>
      <trkpt lat="45.86717" lon="2.84135">
        <ele>574.59997558594</ele>
        <time>2013-09-21T09:28:43Z</time>
      </trkpt>
      <trkpt lat="45.86721" lon="2.84132">
        <ele>574.20001220703</ele>
        <time>2013-09-21T09:28:44Z</time>
      </trkpt>
      <trkpt lat="45.86726" lon="2.84126">
        <ele>573.79998779297</ele>
        <time>2013-09-21T09:28:45Z</time>
      </trkpt>
      <trkpt lat="45.86728" lon="2.8412">
        <ele>573.40002441406</ele>
        <time>2013-09-21T09:28:46Z</time>
      </trkpt>
      <trkpt lat="45.86735" lon="2.84112">
        <ele>573.40002441406</ele>
        <time>2013-09-21T09:28:47Z</time>
      </trkpt>
      <trkpt lat="45.86732" lon="2.84103">
        <ele>573.40002441406</ele>
        <time>2013-09-21T09:28:50Z</time>
      </trkpt>
      <trkpt lat="45.86721" lon="2.84106">
        <ele>573.40002441406</ele>
        <time>2013-09-21T09:28:54Z</time>
      </trkpt>
      <trkpt lat="45.86714" lon="2.84106">
        <ele>573.40002441406</ele>
        <time>2013-09-21T09:28:55Z</time>
      </trkpt>
      <trkpt lat="45.86701" lon="2.84093">
        <ele>573.40002441406</ele>
        <time>2013-09-21T09:28:58Z</time>
      </trkpt>
      <trkpt lat="45.86695" lon="2.84083">
        <ele>573.40002441406</ele>
        <time>2013-09-21T09:29:00Z</time>
      </trkpt>
      <trkpt lat="45.86692" lon="2.84073">
        <ele>573.40002441406</ele>
        <time>2013-09-21T09:29:02Z</time>
      </trkpt>
      <trkpt lat="45.86692" lon="2.84066">
        <ele>573.40002441406</ele>
        <time>2013-09-21T09:29:03Z</time>
      </trkpt>
      <trkpt lat="45.8669" lon="2.84045">
        <ele>573.40002441406</ele>
        <time>2013-09-21T09:29:06Z</time>
      </trkpt>
      <trkpt lat="45.86683" lon="2.84009">
        <ele>573.40002441406</ele>
        <time>2013-09-21T09:29:12Z</time>
      </trkpt>
      <trkpt lat="45.86682" lon="2.83998">
        <ele>573.79998779297</ele>
        <time>2013-09-21T09:29:14Z</time>
      </trkpt>
      <trkpt lat="45.86682" lon="2.83987">
        <ele>574.59997558594</ele>
        <time>2013-09-21T09:29:16Z</time>
      </trkpt>
      <trkpt lat="45.86683" lon="2.83978">
        <ele>575.40002441406</ele>
        <time>2013-09-21T09:29:18Z</time>
      </trkpt>
      <trkpt lat="45.86686" lon="2.83965">
        <ele>575.79998779297</ele>
        <time>2013-09-21T09:29:22Z</time>
      </trkpt>
      <trkpt lat="45.86684" lon="2.83959">
        <ele>577.20001220703</ele>
        <time>2013-09-21T09:29:25Z</time>
      </trkpt>
      <trkpt lat="45.86685" lon="2.83948">
        <ele>578.20001220703</ele>
        <time>2013-09-21T09:29:29Z</time>
      </trkpt>
      <trkpt lat="45.86686" lon="2.83937">
        <ele>579.59997558594</ele>
        <time>2013-09-21T09:29:32Z</time>
      </trkpt>
      <trkpt lat="45.86682" lon="2.83923">
        <ele>580</ele>
        <time>2013-09-21T09:29:36Z</time>
      </trkpt>
      <trkpt lat="45.8668" lon="2.83921">
        <ele>580.59997558594</ele>
        <time>2013-09-21T09:29:37Z</time>
      </trkpt>
      <trkpt lat="45.8667" lon="2.83922">
        <ele>581</ele>
        <time>2013-09-21T09:29:38Z</time>
      </trkpt>
      <trkpt lat="45.86668" lon="2.83918">
        <ele>581.40002441406</ele>
        <time>2013-09-21T09:29:39Z</time>
      </trkpt>
      <trkpt lat="45.86649" lon="2.83911">
        <ele>582.40002441406</ele>
        <time>2013-09-21T09:29:45Z</time>
      </trkpt>
      <trkpt lat="45.86626" lon="2.83903">
        <ele>582.40002441406</ele>
        <time>2013-09-21T09:29:51Z</time>
      </trkpt>
      <trkpt lat="45.866" lon="2.83899">
        <ele>582.40002441406</ele>
        <time>2013-09-21T09:29:58Z</time>
      </trkpt>
      <trkpt lat="45.86588" lon="2.839">
        <ele>582.79998779297</ele>
        <time>2013-09-21T09:30:01Z</time>
      </trkpt>
      <trkpt lat="45.86579" lon="2.83903">
        <ele>584</ele>
        <time>2013-09-21T09:30:04Z</time>
      </trkpt>
      <trkpt lat="45.86561" lon="2.83907">
        <ele>584.40002441406</ele>
        <time>2013-09-21T09:30:10Z</time>
      </trkpt>
      <trkpt lat="45.86549" lon="2.8391">
        <ele>585</ele>
        <time>2013-09-21T09:30:15Z</time>
      </trkpt>
      <trkpt lat="45.86547" lon="2.83911">
        <ele>585.40002441406</ele>
        <time>2013-09-21T09:30:16Z</time>
      </trkpt>
      <trkpt lat="45.8653" lon="2.83918">
        <ele>586.59997558594</ele>
        <time>2013-09-21T09:30:23Z</time>
      </trkpt>
      <trkpt lat="45.86522" lon="2.8392">
        <ele>588.40002441406</ele>
        <time>2013-09-21T09:30:27Z</time>
      </trkpt>
      <trkpt lat="45.8652" lon="2.83921">
        <ele>588.79998779297</ele>
        <time>2013-09-21T09:30:28Z</time>
      </trkpt>
      <trkpt lat="45.86502" lon="2.8393">
        <ele>588.79998779297</ele>
        <time>2013-09-21T09:30:34Z</time>
      </trkpt>
      <trkpt lat="45.86482" lon="2.83939">
        <ele>588.79998779297</ele>
        <time>2013-09-21T09:30:39Z</time>
      </trkpt>
      <trkpt lat="45.86471" lon="2.83942">
        <ele>589.20001220703</ele>
        <time>2013-09-21T09:30:42Z</time>
      </trkpt>
      <trkpt lat="45.86468" lon="2.83943">
        <ele>589.59997558594</ele>
        <time>2013-09-21T09:30:43Z</time>
      </trkpt>
      <trkpt lat="45.86458" lon="2.83946">
        <ele>590.79998779297</ele>
        <time>2013-09-21T09:30:46Z</time>
      </trkpt>
      <trkpt lat="45.86441" lon="2.83948">
        <ele>590.79998779297</ele>
        <time>2013-09-21T09:30:52Z</time>
      </trkpt>
      <trkpt lat="45.86427" lon="2.83952">
        <ele>591.20001220703</ele>
        <time>2013-09-21T09:30:57Z</time>
      </trkpt>
      <trkpt lat="45.86419" lon="2.83955">
        <ele>592.40002441406</ele>
        <time>2013-09-21T09:30:59Z</time>
      </trkpt>
      <trkpt lat="45.86385" lon="2.83963">
        <ele>593</ele>
        <time>2013-09-21T09:31:08Z</time>
      </trkpt>
      <trkpt lat="45.86372" lon="2.83965">
        <ele>593.40002441406</ele>
        <time>2013-09-21T09:31:13Z</time>
      </trkpt>
      <trkpt lat="45.86367" lon="2.83967">
        <ele>594.20001220703</ele>
        <time>2013-09-21T09:31:15Z</time>
      </trkpt>
      <trkpt lat="45.86355" lon="2.83965">
        <ele>595.40002441406</ele>
        <time>2013-09-21T09:31:21Z</time>
      </trkpt>
      <trkpt lat="45.86349" lon="2.83963">
        <ele>596.40002441406</ele>
        <time>2013-09-21T09:31:23Z</time>
      </trkpt>
      <trkpt lat="45.8633" lon="2.8396">
        <ele>597.20001220703</ele>
        <time>2013-09-21T09:31:31Z</time>
      </trkpt>
      <trkpt lat="45.86321" lon="2.83943">
        <ele>597.20001220703</ele>
        <time>2013-09-21T09:31:37Z</time>
      </trkpt>
      <trkpt lat="45.86304" lon="2.83923">
        <ele>597.20001220703</ele>
        <time>2013-09-21T09:31:42Z</time>
      </trkpt>
      <trkpt lat="45.86292" lon="2.83888">
        <ele>596.79998779297</ele>
        <time>2013-09-21T09:31:48Z</time>
      </trkpt>
      <trkpt lat="45.8629" lon="2.83882">
        <ele>596.40002441406</ele>
        <time>2013-09-21T09:31:49Z</time>
      </trkpt>
      <trkpt lat="45.86287" lon="2.83877">
        <ele>595.79998779297</ele>
        <time>2013-09-21T09:31:50Z</time>
      </trkpt>
      <trkpt lat="45.86286" lon="2.83868">
        <ele>595.40002441406</ele>
        <time>2013-09-21T09:31:51Z</time>
      </trkpt>
      <trkpt lat="45.86277" lon="2.83844">
        <ele>595</ele>
        <time>2013-09-21T09:31:54Z</time>
      </trkpt>
      <trkpt lat="45.86272" lon="2.83817">
        <ele>594.59997558594</ele>
        <time>2013-09-21T09:31:57Z</time>
      </trkpt>
      <trkpt lat="45.86271" lon="2.83806">
        <ele>594.20001220703</ele>
        <time>2013-09-21T09:31:58Z</time>
      </trkpt>
      <trkpt lat="45.86268" lon="2.83797">
        <ele>593.79998779297</ele>
        <time>2013-09-21T09:31:59Z</time>
      </trkpt>
      <trkpt lat="45.86265" lon="2.83789">
        <ele>593.40002441406</ele>
        <time>2013-09-21T09:32:00Z</time>
      </trkpt>
      <trkpt lat="45.86264" lon="2.83779">
        <ele>593</ele>
        <time>2013-09-21T09:32:01Z</time>
      </trkpt>
      <trkpt lat="45.86259" lon="2.83768">
        <ele>593</ele>
        <time>2013-09-21T09:32:03Z</time>
      </trkpt>
      <trkpt lat="45.86244" lon="2.83744">
        <ele>593</ele>
        <time>2013-09-21T09:32:08Z</time>
      </trkpt>
      <trkpt lat="45.8624" lon="2.83737">
        <ele>593.40002441406</ele>
        <time>2013-09-21T09:32:10Z</time>
      </trkpt>
      <trkpt lat="45.86239" lon="2.83736">
        <ele>593.79998779297</ele>
        <time>2013-09-21T09:32:11Z</time>
      </trkpt>
      <trkpt lat="45.8624" lon="2.83734">
        <ele>594.20001220703</ele>
        <time>2013-09-21T09:32:12Z</time>
      </trkpt>
      <trkpt lat="45.86239" lon="2.83732">
        <ele>594.59997558594</ele>
        <time>2013-09-21T09:32:13Z</time>
      </trkpt>
      <trkpt lat="45.8624" lon="2.8372">
        <ele>595.20001220703</ele>
        <time>2013-09-21T09:32:17Z</time>
      </trkpt>
      <trkpt lat="45.86227" lon="2.83711">
        <ele>595.59997558594</ele>
        <time>2013-09-21T09:32:20Z</time>
      </trkpt>
      <trkpt lat="45.86226" lon="2.83707">
        <ele>596</ele>
        <time>2013-09-21T09:32:21Z</time>
      </trkpt>
      <trkpt lat="45.86224" lon="2.83697">
        <ele>597.20001220703</ele>
        <time>2013-09-21T09:32:24Z</time>
      </trkpt>
      <trkpt lat="45.86213" lon="2.83677">
        <ele>597.20001220703</ele>
        <time>2013-09-21T09:32:30Z</time>
      </trkpt>
      <trkpt lat="45.86206" lon="2.83658">
        <ele>597.79998779297</ele>
        <time>2013-09-21T09:32:37Z</time>
      </trkpt>
      <trkpt lat="45.86204" lon="2.83648">
        <ele>599.40002441406</ele>
        <time>2013-09-21T09:32:41Z</time>
      </trkpt>
      <trkpt lat="45.86203" lon="2.83634">
        <ele>599.40002441406</ele>
        <time>2013-09-21T09:32:46Z</time>
      </trkpt>
      <trkpt lat="45.86206" lon="2.83616">
        <ele>599.40002441406</ele>
        <time>2013-09-21T09:32:52Z</time>
      </trkpt>
      <trkpt lat="45.86206" lon="2.83607">
        <ele>599.79998779297</ele>
        <time>2013-09-21T09:32:55Z</time>
      </trkpt>
      <trkpt lat="45.86205" lon="2.83598">
        <ele>601.20001220703</ele>
        <time>2013-09-21T09:32:58Z</time>
      </trkpt>
      <trkpt lat="45.86202" lon="2.8358">
        <ele>601.59997558594</ele>
        <time>2013-09-21T09:33:04Z</time>
      </trkpt>
      <trkpt lat="45.86202" lon="2.83577">
        <ele>602</ele>
        <time>2013-09-21T09:33:05Z</time>
      </trkpt>
      <trkpt lat="45.86199" lon="2.83571">
        <ele>603.79998779297</ele>
        <time>2013-09-21T09:33:09Z</time>
      </trkpt>
      <trkpt lat="45.86198" lon="2.83566">
        <ele>603.79998779297</ele>
        <time>2013-09-21T09:33:11Z</time>
      </trkpt>
      <trkpt lat="45.86198" lon="2.83552">
        <ele>604.20001220703</ele>
        <time>2013-09-21T09:33:16Z</time>
      </trkpt>
      <trkpt lat="45.86196" lon="2.8355">
        <ele>604.59997558594</ele>
        <time>2013-09-21T09:33:17Z</time>
      </trkpt>
      <trkpt lat="45.86194" lon="2.83533">
        <ele>605.79998779297</ele>
        <time>2013-09-21T09:33:27Z</time>
      </trkpt>
      <trkpt lat="45.86193" lon="2.83528">
        <ele>606.79998779297</ele>
        <time>2013-09-21T09:33:29Z</time>
      </trkpt>
      <trkpt lat="45.86193" lon="2.8351">
        <ele>608.59997558594</ele>
        <time>2013-09-21T09:33:37Z</time>
      </trkpt>
      <trkpt lat="45.86192" lon="2.83509">
        <ele>609</ele>
        <time>2013-09-21T09:33:38Z</time>
      </trkpt>
      <trkpt lat="45.86198" lon="2.83488">
        <ele>610.20001220703</ele>
        <time>2013-09-21T09:33:48Z</time>
      </trkpt>
      <trkpt lat="45.86199" lon="2.83479">
        <ele>612.20001220703</ele>
        <time>2013-09-21T09:33:54Z</time>
      </trkpt>
      <trkpt lat="45.86198" lon="2.83469">
        <ele>613.79998779297</ele>
        <time>2013-09-21T09:34:00Z</time>
      </trkpt>
      <trkpt lat="45.86197" lon="2.83457">
        <ele>631.59997558594</ele>
        <time>2013-09-21T09:35:57Z</time>
      </trkpt>
      <trkpt lat="45.86201" lon="2.83442">
        <ele>631.59997558594</ele>
        <time>2013-09-21T09:36:01Z</time>
      </trkpt>
      <trkpt lat="45.86206" lon="2.8343">
        <ele>632</ele>
        <time>2013-09-21T09:36:04Z</time>
      </trkpt>
      <trkpt lat="45.8621" lon="2.83416">
        <ele>633.20001220703</ele>
        <time>2013-09-21T09:36:07Z</time>
      </trkpt>
      <trkpt lat="45.86216" lon="2.83376">
        <ele>633.59997558594</ele>
        <time>2013-09-21T09:36:14Z</time>
      </trkpt>
      <trkpt lat="45.86219" lon="2.83331">
        <ele>633.59997558594</ele>
        <time>2013-09-21T09:36:21Z</time>
      </trkpt>
      <trkpt lat="45.86221" lon="2.83296">
        <ele>633.59997558594</ele>
        <time>2013-09-21T09:36:26Z</time>
      </trkpt>
      <trkpt lat="45.86222" lon="2.83282">
        <ele>633.59997558594</ele>
        <time>2013-09-21T09:36:28Z</time>
      </trkpt>
      <trkpt lat="45.86224" lon="2.83243">
        <ele>634.20001220703</ele>
        <time>2013-09-21T09:36:33Z</time>
      </trkpt>
      <trkpt lat="45.86224" lon="2.83234">
        <ele>634.59997558594</ele>
        <time>2013-09-21T09:36:34Z</time>
      </trkpt>
      <trkpt lat="45.86225" lon="2.83226">
        <ele>635</ele>
        <time>2013-09-21T09:36:35Z</time>
      </trkpt>
      <trkpt lat="45.86225" lon="2.83219">
        <ele>635.40002441406</ele>
        <time>2013-09-21T09:36:36Z</time>
      </trkpt>
      <trkpt lat="45.8623" lon="2.83174">
        <ele>635.79998779297</ele>
        <time>2013-09-21T09:36:42Z</time>
      </trkpt>
      <trkpt lat="45.86236" lon="2.83116">
        <ele>635.79998779297</ele>
        <time>2013-09-21T09:36:49Z</time>
      </trkpt>
      <trkpt lat="45.86244" lon="2.8307">
        <ele>636.20001220703</ele>
        <time>2013-09-21T09:36:56Z</time>
      </trkpt>
      <trkpt lat="45.86246" lon="2.83066">
        <ele>636.79998779297</ele>
        <time>2013-09-21T09:36:57Z</time>
      </trkpt>
      <trkpt lat="45.86248" lon="2.83056">
        <ele>637.59997558594</ele>
        <time>2013-09-21T09:36:59Z</time>
      </trkpt>
      <trkpt lat="45.86249" lon="2.83045">
        <ele>638</ele>
        <time>2013-09-21T09:37:01Z</time>
      </trkpt>
      <trkpt lat="45.8624" lon="2.83018">
        <ele>638</ele>
        <time>2013-09-21T09:37:06Z</time>
      </trkpt>
      <trkpt lat="45.86235" lon="2.83013">
        <ele>638</ele>
        <time>2013-09-21T09:37:07Z</time>
      </trkpt>
      <trkpt lat="45.86223" lon="2.83003">
        <ele>638</ele>
        <time>2013-09-21T09:37:10Z</time>
      </trkpt>
      <trkpt lat="45.86186" lon="2.82977">
        <ele>638</ele>
        <time>2013-09-21T09:37:18Z</time>
      </trkpt>
      <trkpt lat="45.86166" lon="2.82966">
        <ele>638.40002441406</ele>
        <time>2013-09-21T09:37:22Z</time>
      </trkpt>
      <trkpt lat="45.86156" lon="2.82962">
        <ele>639.20001220703</ele>
        <time>2013-09-21T09:37:24Z</time>
      </trkpt>
      <trkpt lat="45.86152" lon="2.82959">
        <ele>639.59997558594</ele>
        <time>2013-09-21T09:37:25Z</time>
      </trkpt>
      <trkpt lat="45.86148" lon="2.82957">
        <ele>640</ele>
        <time>2013-09-21T09:37:26Z</time>
      </trkpt>
      <trkpt lat="45.86126" lon="2.82946">
        <ele>640.79998779297</ele>
        <time>2013-09-21T09:37:33Z</time>
      </trkpt>
      <trkpt lat="45.8612" lon="2.82943">
        <ele>641.20001220703</ele>
        <time>2013-09-21T09:37:35Z</time>
      </trkpt>
      <trkpt lat="45.86104" lon="2.82932">
        <ele>642.59997558594</ele>
        <time>2013-09-21T09:37:42Z</time>
      </trkpt>
      <trkpt lat="45.86102" lon="2.82928">
        <ele>643.40002441406</ele>
        <time>2013-09-21T09:37:44Z</time>
      </trkpt>
      <trkpt lat="45.86099" lon="2.82925">
        <ele>644.20001220703</ele>
        <time>2013-09-21T09:37:46Z</time>
      </trkpt>
      <trkpt lat="45.86096" lon="2.82914">
        <ele>644.20001220703</ele>
        <time>2013-09-21T09:37:50Z</time>
      </trkpt>
      <trkpt lat="45.86101" lon="2.82911">
        <ele>645.59997558594</ele>
        <time>2013-09-21T09:37:54Z</time>
      </trkpt>
      <trkpt lat="45.86109" lon="2.82908">
        <ele>646.59997558594</ele>
        <time>2013-09-21T09:38:00Z</time>
      </trkpt>
      <trkpt lat="45.8611" lon="2.82898">
        <ele>649.79998779297</ele>
        <time>2013-09-21T09:38:11Z</time>
      </trkpt>
      <trkpt lat="45.8611" lon="2.82895">
        <ele>650.20001220703</ele>
        <time>2013-09-21T09:38:12Z</time>
      </trkpt>
      <trkpt lat="45.86119" lon="2.82872">
        <ele>650.59997558594</ele>
        <time>2013-09-21T09:38:20Z</time>
      </trkpt>
      <trkpt lat="45.86121" lon="2.82862">
        <ele>651</ele>
        <time>2013-09-21T09:38:23Z</time>
      </trkpt>
      <trkpt lat="45.86122" lon="2.82858">
        <ele>652</ele>
        <time>2013-09-21T09:38:25Z</time>
      </trkpt>
      <trkpt lat="45.86129" lon="2.82848">
        <ele>652.79998779297</ele>
        <time>2013-09-21T09:38:32Z</time>
      </trkpt>
      <trkpt lat="45.86142" lon="2.82836">
        <ele>652.79998779297</ele>
        <time>2013-09-21T09:38:38Z</time>
      </trkpt>
      <trkpt lat="45.86153" lon="2.82829">
        <ele>652.79998779297</ele>
        <time>2013-09-21T09:38:43Z</time>
      </trkpt>
      <trkpt lat="45.86168" lon="2.82815">
        <ele>652.79998779297</ele>
        <time>2013-09-21T09:38:50Z</time>
      </trkpt>
      <trkpt lat="45.86193" lon="2.82792">
        <ele>652.79998779297</ele>
        <time>2013-09-21T09:38:58Z</time>
      </trkpt>
      <trkpt lat="45.86202" lon="2.82789">
        <ele>653.20001220703</ele>
        <time>2013-09-21T09:39:01Z</time>
      </trkpt>
      <trkpt lat="45.86211" lon="2.82781">
        <ele>655</ele>
        <time>2013-09-21T09:39:05Z</time>
      </trkpt>
      <trkpt lat="45.86217" lon="2.82773">
        <ele>655</ele>
        <time>2013-09-21T09:39:10Z</time>
      </trkpt>
      <trkpt lat="45.86222" lon="2.82768">
        <ele>655.40002441406</ele>
        <time>2013-09-21T09:39:14Z</time>
      </trkpt>
      <trkpt lat="45.86235" lon="2.82752">
        <ele>657</ele>
        <time>2013-09-21T09:39:23Z</time>
      </trkpt>
      <trkpt lat="45.86238" lon="2.82746">
        <ele>657.40002441406</ele>
        <time>2013-09-21T09:39:25Z</time>
      </trkpt>
      <trkpt lat="45.8624" lon="2.82743">
        <ele>658.20001220703</ele>
        <time>2013-09-21T09:39:27Z</time>
      </trkpt>
      <trkpt lat="45.86242" lon="2.8274">
        <ele>659.20001220703</ele>
        <time>2013-09-21T09:39:29Z</time>
      </trkpt>
      <trkpt lat="45.86251" lon="2.82731">
        <ele>660.40002441406</ele>
        <time>2013-09-21T09:39:36Z</time>
      </trkpt>
      <trkpt lat="45.86251" lon="2.8273">
        <ele>660.79998779297</ele>
        <time>2013-09-21T09:39:37Z</time>
      </trkpt>
      <trkpt lat="45.86257" lon="2.82717">
        <ele>661.59997558594</ele>
        <time>2013-09-21T09:39:45Z</time>
      </trkpt>
      <trkpt lat="45.86266" lon="2.82702">
        <ele>663.40002441406</ele>
        <time>2013-09-21T09:39:54Z</time>
      </trkpt>
      <trkpt lat="45.86273" lon="2.82689">
        <ele>663.40002441406</ele>
        <time>2013-09-21T09:40:01Z</time>
      </trkpt>
      <trkpt lat="45.86278" lon="2.82671">
        <ele>663.40002441406</ele>
        <time>2013-09-21T09:40:08Z</time>
      </trkpt>
      <trkpt lat="45.86285" lon="2.82656">
        <ele>663.40002441406</ele>
        <time>2013-09-21T09:40:15Z</time>
      </trkpt>
      <trkpt lat="45.86298" lon="2.82634">
        <ele>663.40002441406</ele>
        <time>2013-09-21T09:40:19Z</time>
      </trkpt>
      <trkpt lat="45.86314" lon="2.82605">
        <ele>663.40002441406</ele>
        <time>2013-09-21T09:40:26Z</time>
      </trkpt>
      <trkpt lat="45.86319" lon="2.82586">
        <ele>663.40002441406</ele>
        <time>2013-09-21T09:40:31Z</time>
      </trkpt>
      <trkpt lat="45.86327" lon="2.82556">
        <ele>663.40002441406</ele>
        <time>2013-09-21T09:40:38Z</time>
      </trkpt>
      <trkpt lat="45.86337" lon="2.82538">
        <ele>663.40002441406</ele>
        <time>2013-09-21T09:40:41Z</time>
      </trkpt>
      <trkpt lat="45.86345" lon="2.8253">
        <ele>663.40002441406</ele>
        <time>2013-09-21T09:40:43Z</time>
      </trkpt>
      <trkpt lat="45.8637" lon="2.825">
        <ele>663.40002441406</ele>
        <time>2013-09-21T09:40:49Z</time>
      </trkpt>
      <trkpt lat="45.86382" lon="2.82492">
        <ele>662.79998779297</ele>
        <time>2013-09-21T09:40:52Z</time>
      </trkpt>
      <trkpt lat="45.86386" lon="2.82489">
        <ele>662.40002441406</ele>
        <time>2013-09-21T09:40:53Z</time>
      </trkpt>
      <trkpt lat="45.86394" lon="2.82481">
        <ele>661.59997558594</ele>
        <time>2013-09-21T09:40:55Z</time>
      </trkpt>
      <trkpt lat="45.86398" lon="2.82478">
        <ele>661.20001220703</ele>
        <time>2013-09-21T09:40:56Z</time>
      </trkpt>
      <trkpt lat="45.86412" lon="2.82466">
        <ele>661.20001220703</ele>
        <time>2013-09-21T09:41:00Z</time>
      </trkpt>
      <trkpt lat="45.8642" lon="2.82455">
        <ele>661.20001220703</ele>
        <time>2013-09-21T09:41:04Z</time>
      </trkpt>
      <trkpt lat="45.86427" lon="2.82431">
        <ele>661.20001220703</ele>
        <time>2013-09-21T09:41:10Z</time>
      </trkpt>
      <trkpt lat="45.86436" lon="2.82394">
        <ele>660.79998779297</ele>
        <time>2013-09-21T09:41:16Z</time>
      </trkpt>
      <trkpt lat="45.86438" lon="2.82383">
        <ele>660.40002441406</ele>
        <time>2013-09-21T09:41:17Z</time>
      </trkpt>
      <trkpt lat="45.86439" lon="2.82379">
        <ele>660</ele>
        <time>2013-09-21T09:41:18Z</time>
      </trkpt>
      <trkpt lat="45.8644" lon="2.82376">
        <ele>659.59997558594</ele>
        <time>2013-09-21T09:41:19Z</time>
      </trkpt>
      <trkpt lat="45.8645" lon="2.82376">
        <ele>658.40002441406</ele>
        <time>2013-09-21T09:41:21Z</time>
      </trkpt>
      <trkpt lat="45.86461" lon="2.82376">
        <ele>657.40002441406</ele>
        <time>2013-09-21T09:41:23Z</time>
      </trkpt>
      <trkpt lat="45.86467" lon="2.8238">
        <ele>656.79998779297</ele>
        <time>2013-09-21T09:41:24Z</time>
      </trkpt>
      <trkpt lat="45.86476" lon="2.82386">
        <ele>656.20001220703</ele>
        <time>2013-09-21T09:41:25Z</time>
      </trkpt>
      <trkpt lat="45.86485" lon="2.82393">
        <ele>655.40002441406</ele>
        <time>2013-09-21T09:41:26Z</time>
      </trkpt>
      <trkpt lat="45.86494" lon="2.824">
        <ele>654.59997558594</ele>
        <time>2013-09-21T09:41:27Z</time>
      </trkpt>
      <trkpt lat="45.86503" lon="2.82407">
        <ele>653.79998779297</ele>
        <time>2013-09-21T09:41:28Z</time>
      </trkpt>
      <trkpt lat="45.86512" lon="2.82415">
        <ele>652.79998779297</ele>
        <time>2013-09-21T09:41:29Z</time>
      </trkpt>
      <trkpt lat="45.86521" lon="2.82422">
        <ele>652</ele>
        <time>2013-09-21T09:41:30Z</time>
      </trkpt>
      <trkpt lat="45.8653" lon="2.8243">
        <ele>651.20001220703</ele>
        <time>2013-09-21T09:41:31Z</time>
      </trkpt>
      <trkpt lat="45.86541" lon="2.82437">
        <ele>650.20001220703</ele>
        <time>2013-09-21T09:41:32Z</time>
      </trkpt>
      <trkpt lat="45.86551" lon="2.82446">
        <ele>649.20001220703</ele>
        <time>2013-09-21T09:41:33Z</time>
      </trkpt>
      <trkpt lat="45.86562" lon="2.82455">
        <ele>648.20001220703</ele>
        <time>2013-09-21T09:41:34Z</time>
      </trkpt>
      <trkpt lat="45.86582" lon="2.82479">
        <ele>647</ele>
        <time>2013-09-21T09:41:36Z</time>
      </trkpt>
      <trkpt lat="45.86588" lon="2.82486">
        <ele>646</ele>
        <time>2013-09-21T09:41:37Z</time>
      </trkpt>
      <trkpt lat="45.86593" lon="2.82496">
        <ele>644.59997558594</ele>
        <time>2013-09-21T09:41:38Z</time>
      </trkpt>
      <trkpt lat="45.86597" lon="2.82502">
        <ele>643.40002441406</ele>
        <time>2013-09-21T09:41:39Z</time>
      </trkpt>
      <trkpt lat="45.86601" lon="2.82504">
        <ele>642.20001220703</ele>
        <time>2013-09-21T09:41:40Z</time>
      </trkpt>
      <trkpt lat="45.86613" lon="2.82502">
        <ele>639.79998779297</ele>
        <time>2013-09-21T09:41:42Z</time>
      </trkpt>
      <trkpt lat="45.86619" lon="2.82496">
        <ele>638.40002441406</ele>
        <time>2013-09-21T09:41:43Z</time>
      </trkpt>
      <trkpt lat="45.86626" lon="2.82491">
        <ele>637.20001220703</ele>
        <time>2013-09-21T09:41:44Z</time>
      </trkpt>
      <trkpt lat="45.86638" lon="2.82479">
        <ele>637.20001220703</ele>
        <time>2013-09-21T09:41:46Z</time>
      </trkpt>
      <trkpt lat="45.86642" lon="2.8247">
        <ele>637.20001220703</ele>
        <time>2013-09-21T09:41:47Z</time>
      </trkpt>
      <trkpt lat="45.86649" lon="2.82446">
        <ele>636.79998779297</ele>
        <time>2013-09-21T09:41:49Z</time>
      </trkpt>
      <trkpt lat="45.86651" lon="2.82434">
        <ele>636.20001220703</ele>
        <time>2013-09-21T09:41:50Z</time>
      </trkpt>
      <trkpt lat="45.86653" lon="2.82421">
        <ele>635.59997558594</ele>
        <time>2013-09-21T09:41:51Z</time>
      </trkpt>
      <trkpt lat="45.86655" lon="2.82409">
        <ele>635.20001220703</ele>
        <time>2013-09-21T09:41:52Z</time>
      </trkpt>
      <trkpt lat="45.86656" lon="2.82395">
        <ele>634.59997558594</ele>
        <time>2013-09-21T09:41:53Z</time>
      </trkpt>
      <trkpt lat="45.8666" lon="2.82369">
        <ele>634</ele>
        <time>2013-09-21T09:41:55Z</time>
      </trkpt>
      <trkpt lat="45.86662" lon="2.82355">
        <ele>633.59997558594</ele>
        <time>2013-09-21T09:41:56Z</time>
      </trkpt>
      <trkpt lat="45.86663" lon="2.82341">
        <ele>633.20001220703</ele>
        <time>2013-09-21T09:41:57Z</time>
      </trkpt>
      <trkpt lat="45.86665" lon="2.82329">
        <ele>632.59997558594</ele>
        <time>2013-09-21T09:41:58Z</time>
      </trkpt>
      <trkpt lat="45.86666" lon="2.82315">
        <ele>632.20001220703</ele>
        <time>2013-09-21T09:41:59Z</time>
      </trkpt>
      <trkpt lat="45.86669" lon="2.82285">
        <ele>631.79998779297</ele>
        <time>2013-09-21T09:42:01Z</time>
      </trkpt>
      <trkpt lat="45.86669" lon="2.82271">
        <ele>631.40002441406</ele>
        <time>2013-09-21T09:42:02Z</time>
      </trkpt>
      <trkpt lat="45.8667" lon="2.82257">
        <ele>630.79998779297</ele>
        <time>2013-09-21T09:42:03Z</time>
      </trkpt>
      <trkpt lat="45.8667" lon="2.82243">
        <ele>630.40002441406</ele>
        <time>2013-09-21T09:42:04Z</time>
      </trkpt>
      <trkpt lat="45.86671" lon="2.82228">
        <ele>630</ele>
        <time>2013-09-21T09:42:05Z</time>
      </trkpt>
      <trkpt lat="45.86671" lon="2.82214">
        <ele>629.40002441406</ele>
        <time>2013-09-21T09:42:06Z</time>
      </trkpt>
      <trkpt lat="45.86671" lon="2.82199">
        <ele>628.79998779297</ele>
        <time>2013-09-21T09:42:07Z</time>
      </trkpt>
      <trkpt lat="45.86671" lon="2.82185">
        <ele>628.20001220703</ele>
        <time>2013-09-21T09:42:08Z</time>
      </trkpt>
      <trkpt lat="45.86671" lon="2.8217">
        <ele>627.59997558594</ele>
        <time>2013-09-21T09:42:09Z</time>
      </trkpt>
      <trkpt lat="45.86671" lon="2.82155">
        <ele>627</ele>
        <time>2013-09-21T09:42:10Z</time>
      </trkpt>
      <trkpt lat="45.86671" lon="2.82139">
        <ele>626.40002441406</ele>
        <time>2013-09-21T09:42:11Z</time>
      </trkpt>
      <trkpt lat="45.8667" lon="2.82123">
        <ele>625.79998779297</ele>
        <time>2013-09-21T09:42:12Z</time>
      </trkpt>
      <trkpt lat="45.86667" lon="2.82109">
        <ele>625.20001220703</ele>
        <time>2013-09-21T09:42:13Z</time>
      </trkpt>
      <trkpt lat="45.86663" lon="2.82094">
        <ele>624.59997558594</ele>
        <time>2013-09-21T09:42:14Z</time>
      </trkpt>
      <trkpt lat="45.8666" lon="2.82081">
        <ele>624</ele>
        <time>2013-09-21T09:42:15Z</time>
      </trkpt>
      <trkpt lat="45.86654" lon="2.82068">
        <ele>623.40002441406</ele>
        <time>2013-09-21T09:42:16Z</time>
      </trkpt>
      <trkpt lat="45.86648" lon="2.82057">
        <ele>622.79998779297</ele>
        <time>2013-09-21T09:42:17Z</time>
      </trkpt>
      <trkpt lat="45.8664" lon="2.82049">
        <ele>622.20001220703</ele>
        <time>2013-09-21T09:42:18Z</time>
      </trkpt>
      <trkpt lat="45.86621" lon="2.82039">
        <ele>621</ele>
        <time>2013-09-21T09:42:20Z</time>
      </trkpt>
      <trkpt lat="45.86612" lon="2.82034">
        <ele>620.40002441406</ele>
        <time>2013-09-21T09:42:21Z</time>
      </trkpt>
      <trkpt lat="45.86603" lon="2.82012">
        <ele>620</ele>
        <time>2013-09-21T09:42:23Z</time>
      </trkpt>
      <trkpt lat="45.86602" lon="2.82">
        <ele>619.40002441406</ele>
        <time>2013-09-21T09:42:24Z</time>
      </trkpt>
      <trkpt lat="45.866" lon="2.81987">
        <ele>619</ele>
        <time>2013-09-21T09:42:25Z</time>
      </trkpt>
      <trkpt lat="45.86598" lon="2.81976">
        <ele>618.59997558594</ele>
        <time>2013-09-21T09:42:26Z</time>
      </trkpt>
      <trkpt lat="45.86593" lon="2.81968">
        <ele>618.20001220703</ele>
        <time>2013-09-21T09:42:28Z</time>
      </trkpt>
      <trkpt lat="45.86588" lon="2.81967">
        <ele>620.59997558594</ele>
        <time>2013-09-21T09:42:57Z</time>
      </trkpt>
      <trkpt lat="45.86572" lon="2.81967">
        <ele>622.40002441406</ele>
        <time>2013-09-21T09:43:03Z</time>
      </trkpt>
      <trkpt lat="45.86565" lon="2.81968">
        <ele>622.40002441406</ele>
        <time>2013-09-21T09:43:05Z</time>
      </trkpt>
      <trkpt lat="45.86552" lon="2.81971">
        <ele>622.40002441406</ele>
        <time>2013-09-21T09:43:10Z</time>
      </trkpt>
      <trkpt lat="45.86541" lon="2.81974">
        <ele>622.79998779297</ele>
        <time>2013-09-21T09:43:14Z</time>
      </trkpt>
      <trkpt lat="45.86539" lon="2.81975">
        <ele>623.20001220703</ele>
        <time>2013-09-21T09:43:15Z</time>
      </trkpt>
      <trkpt lat="45.86517" lon="2.8198">
        <ele>624.40002441406</ele>
        <time>2013-09-21T09:43:27Z</time>
      </trkpt>
      <trkpt lat="45.86514" lon="2.81979">
        <ele>624.79998779297</ele>
        <time>2013-09-21T09:43:29Z</time>
      </trkpt>
      <trkpt lat="45.86509" lon="2.81977">
        <ele>626.40002441406</ele>
        <time>2013-09-21T09:43:33Z</time>
      </trkpt>
      <trkpt lat="45.86507" lon="2.81967">
        <ele>626.79998779297</ele>
        <time>2013-09-21T09:43:39Z</time>
      </trkpt>
      <trkpt lat="45.8651" lon="2.81959">
        <ele>628.59997558594</ele>
        <time>2013-09-21T09:43:43Z</time>
      </trkpt>
      <trkpt lat="45.86515" lon="2.81946">
        <ele>628.59997558594</ele>
        <time>2013-09-21T09:43:50Z</time>
      </trkpt>
      <trkpt lat="45.86516" lon="2.8194">
        <ele>629</ele>
        <time>2013-09-21T09:43:53Z</time>
      </trkpt>
      <trkpt lat="45.86522" lon="2.81925">
        <ele>631.20001220703</ele>
        <time>2013-09-21T09:44:02Z</time>
      </trkpt>
      <trkpt lat="45.86525" lon="2.81919">
        <ele>632.40002441406</ele>
        <time>2013-09-21T09:44:05Z</time>
      </trkpt>
      <trkpt lat="45.86533" lon="2.81904">
        <ele>632.79998779297</ele>
        <time>2013-09-21T09:44:12Z</time>
      </trkpt>
      <trkpt lat="45.86537" lon="2.81899">
        <ele>632.79998779297</ele>
        <time>2013-09-21T09:44:18Z</time>
      </trkpt>
      <trkpt lat="45.86541" lon="2.8189">
        <ele>633.59997558594</ele>
        <time>2013-09-21T09:44:23Z</time>
      </trkpt>
      <trkpt lat="45.86552" lon="2.81876">
        <ele>634.79998779297</ele>
        <time>2013-09-21T09:44:31Z</time>
      </trkpt>
      <trkpt lat="45.8656" lon="2.81868">
        <ele>634.79998779297</ele>
        <time>2013-09-21T09:44:36Z</time>
      </trkpt>
      <trkpt lat="45.86566" lon="2.8186">
        <ele>635.20001220703</ele>
        <time>2013-09-21T09:44:40Z</time>
      </trkpt>
      <trkpt lat="45.86567" lon="2.81858">
        <ele>635.59997558594</ele>
        <time>2013-09-21T09:44:41Z</time>
      </trkpt>
      <trkpt lat="45.86571" lon="2.81855">
        <ele>637</ele>
        <time>2013-09-21T09:44:44Z</time>
      </trkpt>
      <trkpt lat="45.86575" lon="2.81848">
        <ele>637</ele>
        <time>2013-09-21T09:44:51Z</time>
      </trkpt>
      <trkpt lat="45.8658" lon="2.81837">
        <ele>639</ele>
        <time>2013-09-21T09:44:59Z</time>
      </trkpt>
      <trkpt lat="45.86584" lon="2.81827">
        <ele>639.59997558594</ele>
        <time>2013-09-21T09:45:04Z</time>
      </trkpt>
      <trkpt lat="45.86591" lon="2.8182">
        <ele>641.20001220703</ele>
        <time>2013-09-21T09:45:11Z</time>
      </trkpt>
      <trkpt lat="45.86586" lon="2.81811">
        <ele>641.59997558594</ele>
        <time>2013-09-21T09:45:18Z</time>
      </trkpt>
      <trkpt lat="45.86586" lon="2.8181">
        <ele>642</ele>
        <time>2013-09-21T09:45:19Z</time>
      </trkpt>
      <trkpt lat="45.86579" lon="2.81807">
        <ele>643.79998779297</ele>
        <time>2013-09-21T09:45:27Z</time>
      </trkpt>
      <trkpt lat="45.86564" lon="2.81801">
        <ele>645.59997558594</ele>
        <time>2013-09-21T09:45:36Z</time>
      </trkpt>
      <trkpt lat="45.86554" lon="2.81797">
        <ele>645.59997558594</ele>
        <time>2013-09-21T09:45:43Z</time>
      </trkpt>
      <trkpt lat="45.86549" lon="2.81795">
        <ele>646.79998779297</ele>
        <time>2013-09-21T09:45:47Z</time>
      </trkpt>
      <trkpt lat="45.86528" lon="2.81788">
        <ele>648</ele>
        <time>2013-09-21T09:45:57Z</time>
      </trkpt>
      <trkpt lat="45.86518" lon="2.81785">
        <ele>649.59997558594</ele>
        <time>2013-09-21T09:46:01Z</time>
      </trkpt>
      <trkpt lat="45.86508" lon="2.81785">
        <ele>650</ele>
        <time>2013-09-21T09:46:06Z</time>
      </trkpt>
      <trkpt lat="45.86498" lon="2.81781">
        <ele>651.20001220703</ele>
        <time>2013-09-21T09:46:09Z</time>
      </trkpt>
      <trkpt lat="45.86496" lon="2.81779">
        <ele>651.59997558594</ele>
        <time>2013-09-21T09:46:10Z</time>
      </trkpt>
      <trkpt lat="45.86485" lon="2.81774">
        <ele>651.59997558594</ele>
        <time>2013-09-21T09:46:13Z</time>
      </trkpt>
      <trkpt lat="45.86465" lon="2.81761">
        <ele>651.59997558594</ele>
        <time>2013-09-21T09:46:19Z</time>
      </trkpt>
      <trkpt lat="45.86451" lon="2.8175">
        <ele>651.59997558594</ele>
        <time>2013-09-21T09:46:25Z</time>
      </trkpt>
      <trkpt lat="45.86427" lon="2.81731">
        <ele>651.20001220703</ele>
        <time>2013-09-21T09:46:33Z</time>
      </trkpt>
      <trkpt lat="45.86422" lon="2.81728">
        <ele>650.79998779297</ele>
        <time>2013-09-21T09:46:34Z</time>
      </trkpt>
      <trkpt lat="45.86417" lon="2.81724">
        <ele>650.40002441406</ele>
        <time>2013-09-21T09:46:35Z</time>
      </trkpt>
      <trkpt lat="45.86412" lon="2.81718">
        <ele>649.79998779297</ele>
        <time>2013-09-21T09:46:36Z</time>
      </trkpt>
      <trkpt lat="45.86407" lon="2.81712">
        <ele>649.40002441406</ele>
        <time>2013-09-21T09:46:37Z</time>
      </trkpt>
      <trkpt lat="45.86401" lon="2.81707">
        <ele>649.40002441406</ele>
        <time>2013-09-21T09:46:38Z</time>
      </trkpt>
      <trkpt lat="45.86394" lon="2.81705">
        <ele>649</ele>
        <time>2013-09-21T09:46:39Z</time>
      </trkpt>
      <trkpt lat="45.86389" lon="2.81701">
        <ele>648.59997558594</ele>
        <time>2013-09-21T09:46:40Z</time>
      </trkpt>
      <trkpt lat="45.86384" lon="2.81697">
        <ele>648</ele>
        <time>2013-09-21T09:46:41Z</time>
      </trkpt>
      <trkpt lat="45.86377" lon="2.81691">
        <ele>647.20001220703</ele>
        <time>2013-09-21T09:46:43Z</time>
      </trkpt>
      <trkpt lat="45.86368" lon="2.81686">
        <ele>646.79998779297</ele>
        <time>2013-09-21T09:46:45Z</time>
      </trkpt>
      <trkpt lat="45.86355" lon="2.81679">
        <ele>645.79998779297</ele>
        <time>2013-09-21T09:46:47Z</time>
      </trkpt>
      <trkpt lat="45.86349" lon="2.81674">
        <ele>645.20001220703</ele>
        <time>2013-09-21T09:46:48Z</time>
      </trkpt>
      <trkpt lat="45.86336" lon="2.81667">
        <ele>643.79998779297</ele>
        <time>2013-09-21T09:46:50Z</time>
      </trkpt>
      <trkpt lat="45.86329" lon="2.81663">
        <ele>643</ele>
        <time>2013-09-21T09:46:51Z</time>
      </trkpt>
      <trkpt lat="45.86322" lon="2.8166">
        <ele>642.40002441406</ele>
        <time>2013-09-21T09:46:52Z</time>
      </trkpt>
      <trkpt lat="45.86316" lon="2.81656">
        <ele>642</ele>
        <time>2013-09-21T09:46:53Z</time>
      </trkpt>
      <trkpt lat="45.86303" lon="2.81647">
        <ele>641.59997558594</ele>
        <time>2013-09-21T09:46:54Z</time>
      </trkpt>
      <trkpt lat="45.86296" lon="2.81642">
        <ele>641.20001220703</ele>
        <time>2013-09-21T09:46:55Z</time>
      </trkpt>
      <trkpt lat="45.86287" lon="2.81635">
        <ele>640.59997558594</ele>
        <time>2013-09-21T09:46:56Z</time>
      </trkpt>
      <trkpt lat="45.8628" lon="2.8163">
        <ele>640</ele>
        <time>2013-09-21T09:46:57Z</time>
      </trkpt>
      <trkpt lat="45.86273" lon="2.81624">
        <ele>639.20001220703</ele>
        <time>2013-09-21T09:46:58Z</time>
      </trkpt>
      <trkpt lat="45.86242" lon="2.81595">
        <ele>637.59997558594</ele>
        <time>2013-09-21T09:47:01Z</time>
      </trkpt>
      <trkpt lat="45.86235" lon="2.81588">
        <ele>636.59997558594</ele>
        <time>2013-09-21T09:47:02Z</time>
      </trkpt>
      <trkpt lat="45.86227" lon="2.81581">
        <ele>635.79998779297</ele>
        <time>2013-09-21T09:47:03Z</time>
      </trkpt>
      <trkpt lat="45.86219" lon="2.81578">
        <ele>634.79998779297</ele>
        <time>2013-09-21T09:47:04Z</time>
      </trkpt>
      <trkpt lat="45.86208" lon="2.81573">
        <ele>633.79998779297</ele>
        <time>2013-09-21T09:47:05Z</time>
      </trkpt>
      <trkpt lat="45.862" lon="2.81569">
        <ele>633</ele>
        <time>2013-09-21T09:47:06Z</time>
      </trkpt>
      <trkpt lat="45.86194" lon="2.81563">
        <ele>632</ele>
        <time>2013-09-21T09:47:07Z</time>
      </trkpt>
      <trkpt lat="45.86189" lon="2.81559">
        <ele>631.59997558594</ele>
        <time>2013-09-21T09:47:08Z</time>
      </trkpt>
      <trkpt lat="45.86176" lon="2.81548">
        <ele>630.20001220703</ele>
        <time>2013-09-21T09:47:11Z</time>
      </trkpt>
      <trkpt lat="45.86169" lon="2.81537">
        <ele>628.59997558594</ele>
        <time>2013-09-21T09:47:14Z</time>
      </trkpt>
      <trkpt lat="45.86171" lon="2.81537">
        <ele>625</ele>
        <time>2013-09-21T09:47:19Z</time>
      </trkpt>
      <trkpt lat="45.86177" lon="2.8154">
        <ele>622.79998779297</ele>
        <time>2013-09-21T09:47:22Z</time>
      </trkpt>
      <trkpt lat="45.86181" lon="2.81538">
        <ele>621.20001220703</ele>
        <time>2013-09-21T09:47:24Z</time>
      </trkpt>
      <trkpt lat="45.86187" lon="2.81526">
        <ele>619.59997558594</ele>
        <time>2013-09-21T09:47:26Z</time>
      </trkpt>
      <trkpt lat="45.86196" lon="2.81508">
        <ele>619.20001220703</ele>
        <time>2013-09-21T09:47:29Z</time>
      </trkpt>
      <trkpt lat="45.862" lon="2.81499">
        <ele>618.40002441406</ele>
        <time>2013-09-21T09:47:31Z</time>
      </trkpt>
      <trkpt lat="45.862" lon="2.81494">
        <ele>617.79998779297</ele>
        <time>2013-09-21T09:47:32Z</time>
      </trkpt>
      <trkpt lat="45.86201" lon="2.81487">
        <ele>617.40002441406</ele>
        <time>2013-09-21T09:47:33Z</time>
      </trkpt>
      <trkpt lat="45.86192" lon="2.81479">
        <ele>617.40002441406</ele>
        <time>2013-09-21T09:47:36Z</time>
      </trkpt>
      <trkpt lat="45.86183" lon="2.81471">
        <ele>617.40002441406</ele>
        <time>2013-09-21T09:47:41Z</time>
      </trkpt>
      <trkpt lat="45.86182" lon="2.8147">
        <ele>617.79998779297</ele>
        <time>2013-09-21T09:47:42Z</time>
      </trkpt>
      <trkpt lat="45.86179" lon="2.81466">
        <ele>618.79998779297</ele>
        <time>2013-09-21T09:47:44Z</time>
      </trkpt>
      <trkpt lat="45.86174" lon="2.8146">
        <ele>619.59997558594</ele>
        <time>2013-09-21T09:47:48Z</time>
      </trkpt>
      <trkpt lat="45.8617" lon="2.81458">
        <ele>619.59997558594</ele>
        <time>2013-09-21T09:47:50Z</time>
      </trkpt>
      <trkpt lat="45.86159" lon="2.81451">
        <ele>620</ele>
        <time>2013-09-21T09:47:55Z</time>
      </trkpt>
      <trkpt lat="45.86155" lon="2.81449">
        <ele>620.79998779297</ele>
        <time>2013-09-21T09:47:57Z</time>
      </trkpt>
      <trkpt lat="45.86148" lon="2.81446">
        <ele>621.59997558594</ele>
        <time>2013-09-21T09:48:00Z</time>
      </trkpt>
      <trkpt lat="45.86134" lon="2.81442">
        <ele>621.59997558594</ele>
        <time>2013-09-21T09:48:08Z</time>
      </trkpt>
      <trkpt lat="45.86126" lon="2.81441">
        <ele>622</ele>
        <time>2013-09-21T09:48:12Z</time>
      </trkpt>
      <trkpt lat="45.8612" lon="2.81441">
        <ele>623.20001220703</ele>
        <time>2013-09-21T09:48:15Z</time>
      </trkpt>
      <trkpt lat="45.86116" lon="2.8144">
        <ele>623.59997558594</ele>
        <time>2013-09-21T09:48:17Z</time>
      </trkpt>
      <trkpt lat="45.86106" lon="2.81437">
        <ele>623.59997558594</ele>
        <time>2013-09-21T09:48:21Z</time>
      </trkpt>
      <trkpt lat="45.86098" lon="2.81436">
        <ele>624</ele>
        <time>2013-09-21T09:48:28Z</time>
      </trkpt>
      <trkpt lat="45.86085" lon="2.81432">
        <ele>625.59997558594</ele>
        <time>2013-09-21T09:48:36Z</time>
      </trkpt>
      <trkpt lat="45.8608" lon="2.81431">
        <ele>626</ele>
        <time>2013-09-21T09:48:39Z</time>
      </trkpt>
      <trkpt lat="45.86074" lon="2.8143">
        <ele>627.40002441406</ele>
        <time>2013-09-21T09:48:42Z</time>
      </trkpt>
      <trkpt lat="45.86072" lon="2.8143">
        <ele>627.79998779297</ele>
        <time>2013-09-21T09:48:43Z</time>
      </trkpt>
      <trkpt lat="45.86057" lon="2.81431">
        <ele>627.79998779297</ele>
        <time>2013-09-21T09:48:50Z</time>
      </trkpt>
      <trkpt lat="45.86046" lon="2.81428">
        <ele>627.79998779297</ele>
        <time>2013-09-21T09:48:56Z</time>
      </trkpt>
      <trkpt lat="45.86034" lon="2.81422">
        <ele>628.20001220703</ele>
        <time>2013-09-21T09:49:04Z</time>
      </trkpt>
      <trkpt lat="45.86036" lon="2.81417">
        <ele>630.20001220703</ele>
        <time>2013-09-21T09:49:12Z</time>
      </trkpt>
      <trkpt lat="45.86041" lon="2.8142">
        <ele>630.59997558594</ele>
        <time>2013-09-21T09:49:17Z</time>
      </trkpt>
      <trkpt lat="45.86044" lon="2.8142">
        <ele>631.59997558594</ele>
        <time>2013-09-21T09:49:19Z</time>
      </trkpt>
      <trkpt lat="45.86053" lon="2.81421">
        <ele>632.40002441406</ele>
        <time>2013-09-21T09:49:25Z</time>
      </trkpt>
      <trkpt lat="45.86055" lon="2.8142">
        <ele>632.40002441406</ele>
        <time>2013-09-21T09:49:26Z</time>
      </trkpt>
      <trkpt lat="45.86063" lon="2.81418">
        <ele>632.40002441406</ele>
        <time>2013-09-21T09:49:30Z</time>
      </trkpt>
      <trkpt lat="45.86081" lon="2.81414">
        <ele>632.40002441406</ele>
        <time>2013-09-21T09:49:38Z</time>
      </trkpt>
      <trkpt lat="45.86091" lon="2.8141">
        <ele>633.40002441406</ele>
        <time>2013-09-21T09:49:45Z</time>
      </trkpt>
      <trkpt lat="45.86092" lon="2.8141">
        <ele>633.79998779297</ele>
        <time>2013-09-21T09:49:46Z</time>
      </trkpt>
      <trkpt lat="45.861" lon="2.81408">
        <ele>639.20001220703</ele>
        <time>2013-09-21T09:51:44Z</time>
      </trkpt>
      <trkpt lat="45.86125" lon="2.81397">
        <ele>641</ele>
        <time>2013-09-21T09:51:58Z</time>
      </trkpt>
      <trkpt lat="45.86145" lon="2.81394">
        <ele>641.40002441406</ele>
        <time>2013-09-21T09:52:07Z</time>
      </trkpt>
      <trkpt lat="45.86151" lon="2.81395">
        <ele>642.20001220703</ele>
        <time>2013-09-21T09:52:09Z</time>
      </trkpt>
      <trkpt lat="45.86176" lon="2.81407">
        <ele>643.20001220703</ele>
        <time>2013-09-21T09:52:22Z</time>
      </trkpt>
      <trkpt lat="45.86192" lon="2.81409">
        <ele>643.20001220703</ele>
        <time>2013-09-21T09:52:34Z</time>
      </trkpt>
      <trkpt lat="45.86208" lon="2.81418">
        <ele>643.20001220703</ele>
        <time>2013-09-21T09:52:47Z</time>
      </trkpt>
      <trkpt lat="45.86219" lon="2.81422">
        <ele>643.20001220703</ele>
        <time>2013-09-21T09:53:29Z</time>
      </trkpt>
      <trkpt lat="45.86222" lon="2.81425">
        <ele>643.59997558594</ele>
        <time>2013-09-21T09:53:32Z</time>
      </trkpt>
      <trkpt lat="45.86239" lon="2.81435">
        <ele>645.20001220703</ele>
        <time>2013-09-21T09:53:45Z</time>
      </trkpt>
      <trkpt lat="45.86241" lon="2.81435">
        <ele>645.59997558594</ele>
        <time>2013-09-21T09:53:47Z</time>
      </trkpt>
      <trkpt lat="45.86252" lon="2.81431">
        <ele>647.20001220703</ele>
        <time>2013-09-21T09:53:58Z</time>
      </trkpt>
      <trkpt lat="45.86253" lon="2.81429">
        <ele>647.20001220703</ele>
        <time>2013-09-21T09:54:00Z</time>
      </trkpt>
      <trkpt lat="45.8626" lon="2.81414">
        <ele>647.20001220703</ele>
        <time>2013-09-21T09:54:14Z</time>
      </trkpt>
      <trkpt lat="45.86265" lon="2.81401">
        <ele>647.20001220703</ele>
        <time>2013-09-21T09:54:28Z</time>
      </trkpt>
      <trkpt lat="45.86267" lon="2.81394">
        <ele>647.20001220703</ele>
        <time>2013-09-21T09:56:44Z</time>
      </trkpt>
      <trkpt lat="45.86264" lon="2.81369">
        <ele>647.20001220703</ele>
        <time>2013-09-21T09:56:53Z</time>
      </trkpt>
      <trkpt lat="45.86262" lon="2.81354">
        <ele>647.20001220703</ele>
        <time>2013-09-21T09:57:00Z</time>
      </trkpt>
      <trkpt lat="45.86259" lon="2.81335">
        <ele>647.20001220703</ele>
        <time>2013-09-21T09:57:10Z</time>
      </trkpt>
      <trkpt lat="45.86259" lon="2.81325">
        <ele>647.20001220703</ele>
        <time>2013-09-21T09:57:17Z</time>
      </trkpt>
      <trkpt lat="45.86258" lon="2.81316">
        <ele>647.20001220703</ele>
        <time>2013-09-21T09:57:23Z</time>
      </trkpt>
      <trkpt lat="45.86258" lon="2.81302">
        <ele>647.20001220703</ele>
        <time>2013-09-21T09:57:38Z</time>
      </trkpt>
      <trkpt lat="45.86258" lon="2.81295">
        <ele>647.20001220703</ele>
        <time>2013-09-21T09:57:44Z</time>
      </trkpt>
      <trkpt lat="45.86253" lon="2.81288">
        <ele>647.20001220703</ele>
        <time>2013-09-21T09:57:53Z</time>
      </trkpt>
      <trkpt lat="45.8625" lon="2.81282">
        <ele>647.79998779297</ele>
        <time>2013-09-21T09:57:59Z</time>
      </trkpt>
      <trkpt lat="45.86249" lon="2.8128">
        <ele>648.59997558594</ele>
        <time>2013-09-21T09:58:01Z</time>
      </trkpt>
      <trkpt lat="45.86232" lon="2.81276">
        <ele>649.59997558594</ele>
        <time>2013-09-21T09:58:28Z</time>
      </trkpt>
      <trkpt lat="45.86234" lon="2.8127">
        <ele>649.59997558594</ele>
        <time>2013-09-21T09:58:48Z</time>
      </trkpt>
      <trkpt lat="45.86242" lon="2.81252">
        <ele>650</ele>
        <time>2013-09-21T09:58:59Z</time>
      </trkpt>
      <trkpt lat="45.8624" lon="2.81248">
        <ele>650.79998779297</ele>
        <time>2013-09-21T09:59:01Z</time>
      </trkpt>
      <trkpt lat="45.8624" lon="2.81245">
        <ele>651.59997558594</ele>
        <time>2013-09-21T09:59:03Z</time>
      </trkpt>
      <trkpt lat="45.86237" lon="2.81235">
        <ele>651.59997558594</ele>
        <time>2013-09-21T09:59:09Z</time>
      </trkpt>
      <trkpt lat="45.86238" lon="2.81229">
        <ele>653</ele>
        <time>2013-09-21T09:59:16Z</time>
      </trkpt>
      <trkpt lat="45.86243" lon="2.81221">
        <ele>653.79998779297</ele>
        <time>2013-09-21T09:59:21Z</time>
      </trkpt>
      <trkpt lat="45.86246" lon="2.81219">
        <ele>653.79998779297</ele>
        <time>2013-09-21T09:59:31Z</time>
      </trkpt>
      <trkpt lat="45.86238" lon="2.81224">
        <ele>653.79998779297</ele>
        <time>2013-09-21T09:59:48Z</time>
      </trkpt>
      <trkpt lat="45.86242" lon="2.81228">
        <ele>653.79998779297</ele>
        <time>2013-09-21T09:59:56Z</time>
      </trkpt>
      <trkpt lat="45.86238" lon="2.81222">
        <ele>653.79998779297</ele>
        <time>2013-09-21T10:00:12Z</time>
      </trkpt>
      <trkpt lat="45.8624" lon="2.8122">
        <ele>653.79998779297</ele>
        <time>2013-09-21T10:00:14Z</time>
      </trkpt>
      <trkpt lat="45.86239" lon="2.81207">
        <ele>653.79998779297</ele>
        <time>2013-09-21T10:00:18Z</time>
      </trkpt>
      <trkpt lat="45.86238" lon="2.81198">
        <ele>654.20001220703</ele>
        <time>2013-09-21T10:00:22Z</time>
      </trkpt>
      <trkpt lat="45.86237" lon="2.81184">
        <ele>656</ele>
        <time>2013-09-21T10:00:33Z</time>
      </trkpt>
      <trkpt lat="45.86238" lon="2.8117">
        <ele>656</ele>
        <time>2013-09-21T10:00:52Z</time>
      </trkpt>
      <trkpt lat="45.86236" lon="2.81164">
        <ele>656.40002441406</ele>
        <time>2013-09-21T10:00:57Z</time>
      </trkpt>
      <trkpt lat="45.86233" lon="2.8116">
        <ele>658</ele>
        <time>2013-09-21T10:01:03Z</time>
      </trkpt>
      <trkpt lat="45.86228" lon="2.81155">
        <ele>658</ele>
        <time>2013-09-21T10:01:08Z</time>
      </trkpt>
      <trkpt lat="45.86226" lon="2.81146">
        <ele>658</ele>
        <time>2013-09-21T10:01:13Z</time>
      </trkpt>
      <trkpt lat="45.86219" lon="2.81141">
        <ele>660.20001220703</ele>
        <time>2013-09-21T10:01:18Z</time>
      </trkpt>
      <trkpt lat="45.86216" lon="2.81134">
        <ele>660.20001220703</ele>
        <time>2013-09-21T10:01:24Z</time>
      </trkpt>
      <trkpt lat="45.86219" lon="2.81129">
        <ele>660.20001220703</ele>
        <time>2013-09-21T10:01:26Z</time>
      </trkpt>
      <trkpt lat="45.8622" lon="2.81114">
        <ele>660.59997558594</ele>
        <time>2013-09-21T10:01:33Z</time>
      </trkpt>
      <trkpt lat="45.8622" lon="2.81109">
        <ele>661.59997558594</ele>
        <time>2013-09-21T10:01:35Z</time>
      </trkpt>
      <trkpt lat="45.8622" lon="2.81106">
        <ele>662</ele>
        <time>2013-09-21T10:01:36Z</time>
      </trkpt>
      <trkpt lat="45.8622" lon="2.81105">
        <ele>662.40002441406</ele>
        <time>2013-09-21T10:01:37Z</time>
      </trkpt>
      <trkpt lat="45.86219" lon="2.81099">
        <ele>662.40002441406</ele>
        <time>2013-09-21T10:01:40Z</time>
      </trkpt>
      <trkpt lat="45.86222" lon="2.8108">
        <ele>662.40002441406</ele>
        <time>2013-09-21T10:01:48Z</time>
      </trkpt>
      <trkpt lat="45.8622" lon="2.81068">
        <ele>662.79998779297</ele>
        <time>2013-09-21T10:01:58Z</time>
      </trkpt>
      <trkpt lat="45.86219" lon="2.81066">
        <ele>663.40002441406</ele>
        <time>2013-09-21T10:01:59Z</time>
      </trkpt>
      <trkpt lat="45.86214" lon="2.81053">
        <ele>664.59997558594</ele>
        <time>2013-09-21T10:02:08Z</time>
      </trkpt>
      <trkpt lat="45.86213" lon="2.81049">
        <ele>665.40002441406</ele>
        <time>2013-09-21T10:02:10Z</time>
      </trkpt>
      <trkpt lat="45.86211" lon="2.81039">
        <ele>666.79998779297</ele>
        <time>2013-09-21T10:02:14Z</time>
      </trkpt>
      <trkpt lat="45.86212" lon="2.81024">
        <ele>667.20001220703</ele>
        <time>2013-09-21T10:02:21Z</time>
      </trkpt>
      <trkpt lat="45.86211" lon="2.81019">
        <ele>668.59997558594</ele>
        <time>2013-09-21T10:02:24Z</time>
      </trkpt>
      <trkpt lat="45.86205" lon="2.81006">
        <ele>669</ele>
        <time>2013-09-21T10:02:35Z</time>
      </trkpt>
      <trkpt lat="45.86209" lon="2.80998">
        <ele>669</ele>
        <time>2013-09-21T10:02:42Z</time>
      </trkpt>
      <trkpt lat="45.86211" lon="2.80984">
        <ele>669</ele>
        <time>2013-09-21T10:02:54Z</time>
      </trkpt>
      <trkpt lat="45.86205" lon="2.80967">
        <ele>669</ele>
        <time>2013-09-21T10:03:02Z</time>
      </trkpt>
      <trkpt lat="45.86201" lon="2.80959">
        <ele>670</ele>
        <time>2013-09-21T10:03:07Z</time>
      </trkpt>
      <trkpt lat="45.862" lon="2.80956">
        <ele>671.20001220703</ele>
        <time>2013-09-21T10:03:10Z</time>
      </trkpt>
      <trkpt lat="45.86197" lon="2.80943">
        <ele>671.59997558594</ele>
        <time>2013-09-21T10:03:23Z</time>
      </trkpt>
      <trkpt lat="45.86193" lon="2.8094">
        <ele>673.40002441406</ele>
        <time>2013-09-21T10:03:29Z</time>
      </trkpt>
      <trkpt lat="45.86192" lon="2.80928">
        <ele>673.40002441406</ele>
        <time>2013-09-21T10:03:41Z</time>
      </trkpt>
      <trkpt lat="45.86189" lon="2.80926">
        <ele>674.20001220703</ele>
        <time>2013-09-21T10:03:43Z</time>
      </trkpt>
      <trkpt lat="45.86187" lon="2.80918">
        <ele>675.40002441406</ele>
        <time>2013-09-21T10:03:47Z</time>
      </trkpt>
      <trkpt lat="45.86187" lon="2.80904">
        <ele>675.40002441406</ele>
        <time>2013-09-21T10:03:52Z</time>
      </trkpt>
      <trkpt lat="45.86186" lon="2.80891">
        <ele>675.40002441406</ele>
        <time>2013-09-21T10:03:59Z</time>
      </trkpt>
      <trkpt lat="45.86189" lon="2.80878">
        <ele>675.79998779297</ele>
        <time>2013-09-21T10:04:05Z</time>
      </trkpt>
      <trkpt lat="45.8619" lon="2.80871">
        <ele>676.79998779297</ele>
        <time>2013-09-21T10:04:07Z</time>
      </trkpt>
      <trkpt lat="45.86192" lon="2.80867">
        <ele>677.20001220703</ele>
        <time>2013-09-21T10:04:08Z</time>
      </trkpt>
      <trkpt lat="45.86192" lon="2.80858">
        <ele>677.59997558594</ele>
        <time>2013-09-21T10:04:12Z</time>
      </trkpt>
      <trkpt lat="45.86192" lon="2.8085">
        <ele>677.59997558594</ele>
        <time>2013-09-21T10:04:17Z</time>
      </trkpt>
      <trkpt lat="45.8619" lon="2.80839">
        <ele>677.59997558594</ele>
        <time>2013-09-21T10:04:23Z</time>
      </trkpt>
      <trkpt lat="45.86192" lon="2.80829">
        <ele>679.40002441406</ele>
        <time>2013-09-21T10:04:27Z</time>
      </trkpt>
      <trkpt lat="45.86192" lon="2.80818">
        <ele>679.79998779297</ele>
        <time>2013-09-21T10:04:35Z</time>
      </trkpt>
      <trkpt lat="45.86195" lon="2.80809">
        <ele>680.59997558594</ele>
        <time>2013-09-21T10:04:40Z</time>
      </trkpt>
      <trkpt lat="45.86195" lon="2.80796">
        <ele>681.79998779297</ele>
        <time>2013-09-21T10:04:47Z</time>
      </trkpt>
      <trkpt lat="45.86196" lon="2.80778">
        <ele>681.79998779297</ele>
        <time>2013-09-21T10:04:54Z</time>
      </trkpt>
      <trkpt lat="45.86199" lon="2.80768">
        <ele>682.79998779297</ele>
        <time>2013-09-21T10:04:59Z</time>
      </trkpt>
      <trkpt lat="45.86192" lon="2.80752">
        <ele>684.79998779297</ele>
        <time>2013-09-21T10:05:09Z</time>
      </trkpt>
      <trkpt lat="45.8619" lon="2.80749">
        <ele>686.40002441406</ele>
        <time>2013-09-21T10:05:13Z</time>
      </trkpt>
      <trkpt lat="45.86193" lon="2.80735">
        <ele>686.40002441406</ele>
        <time>2013-09-21T10:05:21Z</time>
      </trkpt>
      <trkpt lat="45.8619" lon="2.80729">
        <ele>686.40002441406</ele>
        <time>2013-09-21T10:05:25Z</time>
      </trkpt>
      <trkpt lat="45.86189" lon="2.80726">
        <ele>686.40002441406</ele>
        <time>2013-09-21T10:05:26Z</time>
      </trkpt>
      <trkpt lat="45.86187" lon="2.80718">
        <ele>687.20001220703</ele>
        <time>2013-09-21T10:05:29Z</time>
      </trkpt>
      <trkpt lat="45.86182" lon="2.80702">
        <ele>688.40002441406</ele>
        <time>2013-09-21T10:05:37Z</time>
      </trkpt>
      <trkpt lat="45.86177" lon="2.80697">
        <ele>688.40002441406</ele>
        <time>2013-09-21T10:05:41Z</time>
      </trkpt>
      <trkpt lat="45.86172" lon="2.80688">
        <ele>689</ele>
        <time>2013-09-21T10:05:46Z</time>
      </trkpt>
      <trkpt lat="45.8617" lon="2.80684">
        <ele>690</ele>
        <time>2013-09-21T10:05:48Z</time>
      </trkpt>
      <trkpt lat="45.86164" lon="2.8067">
        <ele>690.79998779297</ele>
        <time>2013-09-21T10:05:55Z</time>
      </trkpt>
      <trkpt lat="45.86157" lon="2.80663">
        <ele>691.79998779297</ele>
        <time>2013-09-21T10:06:01Z</time>
      </trkpt>
      <trkpt lat="45.86153" lon="2.80656">
        <ele>693</ele>
        <time>2013-09-21T10:06:05Z</time>
      </trkpt>
      <trkpt lat="45.86148" lon="2.80651">
        <ele>693</ele>
        <time>2013-09-21T10:06:08Z</time>
      </trkpt>
      <trkpt lat="45.8614" lon="2.80647">
        <ele>694</ele>
        <time>2013-09-21T10:06:13Z</time>
      </trkpt>
      <trkpt lat="45.86138" lon="2.80647">
        <ele>694.40002441406</ele>
        <time>2013-09-21T10:06:14Z</time>
      </trkpt>
      <trkpt lat="45.86129" lon="2.80644">
        <ele>695.20001220703</ele>
        <time>2013-09-21T10:06:20Z</time>
      </trkpt>
      <trkpt lat="45.86118" lon="2.80638">
        <ele>695.20001220703</ele>
        <time>2013-09-21T10:06:28Z</time>
      </trkpt>
      <trkpt lat="45.86108" lon="2.80628">
        <ele>697.40002441406</ele>
        <time>2013-09-21T10:06:36Z</time>
      </trkpt>
      <trkpt lat="45.86098" lon="2.80621">
        <ele>698.40002441406</ele>
        <time>2013-09-21T10:06:42Z</time>
      </trkpt>
      <trkpt lat="45.86096" lon="2.8062">
        <ele>698.40002441406</ele>
        <time>2013-09-21T10:06:43Z</time>
      </trkpt>
      <trkpt lat="45.86085" lon="2.8061">
        <ele>699.79998779297</ele>
        <time>2013-09-21T10:06:51Z</time>
      </trkpt>
      <trkpt lat="45.86074" lon="2.80607">
        <ele>699.79998779297</ele>
        <time>2013-09-21T10:06:57Z</time>
      </trkpt>
      <trkpt lat="45.86069" lon="2.80605">
        <ele>700.59997558594</ele>
        <time>2013-09-21T10:07:00Z</time>
      </trkpt>
      <trkpt lat="45.86052" lon="2.80597">
        <ele>702</ele>
        <time>2013-09-21T10:07:10Z</time>
      </trkpt>
      <trkpt lat="45.86044" lon="2.8059">
        <ele>702.40002441406</ele>
        <time>2013-09-21T10:07:16Z</time>
      </trkpt>
      <trkpt lat="45.8604" lon="2.8059">
        <ele>703.59997558594</ele>
        <time>2013-09-21T10:07:19Z</time>
      </trkpt>
      <trkpt lat="45.86039" lon="2.80589">
        <ele>704.20001220703</ele>
        <time>2013-09-21T10:07:20Z</time>
      </trkpt>
      <trkpt lat="45.86029" lon="2.80585">
        <ele>706.20001220703</ele>
        <time>2013-09-21T10:07:28Z</time>
      </trkpt>
      <trkpt lat="45.86013" lon="2.80582">
        <ele>706.59997558594</ele>
        <time>2013-09-21T10:07:38Z</time>
      </trkpt>
      <trkpt lat="45.86008" lon="2.80583">
        <ele>707.40002441406</ele>
        <time>2013-09-21T10:07:40Z</time>
      </trkpt>
      <trkpt lat="45.85995" lon="2.80581">
        <ele>708.20001220703</ele>
        <time>2013-09-21T10:07:49Z</time>
      </trkpt>
      <trkpt lat="45.85979" lon="2.80576">
        <ele>708.20001220703</ele>
        <time>2013-09-21T10:07:57Z</time>
      </trkpt>
      <trkpt lat="45.85962" lon="2.80561">
        <ele>708.20001220703</ele>
        <time>2013-09-21T10:08:03Z</time>
      </trkpt>
      <trkpt lat="45.85945" lon="2.80552">
        <ele>708.20001220703</ele>
        <time>2013-09-21T10:08:09Z</time>
      </trkpt>
      <trkpt lat="45.85928" lon="2.8054">
        <ele>708.20001220703</ele>
        <time>2013-09-21T10:08:17Z</time>
      </trkpt>
      <trkpt lat="45.85909" lon="2.80529">
        <ele>708.20001220703</ele>
        <time>2013-09-21T10:08:25Z</time>
      </trkpt>
      <trkpt lat="45.859" lon="2.80528">
        <ele>710</ele>
        <time>2013-09-21T10:08:29Z</time>
      </trkpt>
      <trkpt lat="45.85884" lon="2.80521">
        <ele>710.59997558594</ele>
        <time>2013-09-21T10:08:35Z</time>
      </trkpt>
      <trkpt lat="45.85882" lon="2.8052">
        <ele>711</ele>
        <time>2013-09-21T10:08:36Z</time>
      </trkpt>
      <trkpt lat="45.8588" lon="2.80519">
        <ele>711.40002441406</ele>
        <time>2013-09-21T10:08:37Z</time>
      </trkpt>
      <trkpt lat="45.85862" lon="2.80509">
        <ele>712.40002441406</ele>
        <time>2013-09-21T10:08:44Z</time>
      </trkpt>
      <trkpt lat="45.85859" lon="2.80508">
        <ele>713</ele>
        <time>2013-09-21T10:08:45Z</time>
      </trkpt>
      <trkpt lat="45.85842" lon="2.80503">
        <ele>713</ele>
        <time>2013-09-21T10:08:50Z</time>
      </trkpt>
      <trkpt lat="45.85815" lon="2.80495">
        <ele>713</ele>
        <time>2013-09-21T10:08:58Z</time>
      </trkpt>
      <trkpt lat="45.85797" lon="2.80486">
        <ele>713</ele>
        <time>2013-09-21T10:09:04Z</time>
      </trkpt>
      <trkpt lat="45.85778" lon="2.80479">
        <ele>713</ele>
        <time>2013-09-21T10:09:10Z</time>
      </trkpt>
      <trkpt lat="45.8577" lon="2.80478">
        <ele>713.40002441406</ele>
        <time>2013-09-21T10:09:13Z</time>
      </trkpt>
      <trkpt lat="45.85756" lon="2.80482">
        <ele>715.59997558594</ele>
        <time>2013-09-21T10:09:20Z</time>
      </trkpt>
      <trkpt lat="45.85749" lon="2.80487">
        <ele>717</ele>
        <time>2013-09-21T10:09:23Z</time>
      </trkpt>
      <trkpt lat="45.85739" lon="2.80493">
        <ele>717.59997558594</ele>
        <time>2013-09-21T10:09:26Z</time>
      </trkpt>
      <trkpt lat="45.85727" lon="2.80499">
        <ele>718</ele>
        <time>2013-09-21T10:09:33Z</time>
      </trkpt>
      <trkpt lat="45.85725" lon="2.80501">
        <ele>718.59997558594</ele>
        <time>2013-09-21T10:09:34Z</time>
      </trkpt>
      <trkpt lat="45.85719" lon="2.80504">
        <ele>720</ele>
        <time>2013-09-21T10:09:37Z</time>
      </trkpt>
      <trkpt lat="45.85707" lon="2.80508">
        <ele>720</ele>
        <time>2013-09-21T10:09:44Z</time>
      </trkpt>
      <trkpt lat="45.85702" lon="2.80511">
        <ele>720.40002441406</ele>
        <time>2013-09-21T10:09:47Z</time>
      </trkpt>
      <trkpt lat="45.85699" lon="2.80512">
        <ele>720.79998779297</ele>
        <time>2013-09-21T10:09:48Z</time>
      </trkpt>
      <trkpt lat="45.85678" lon="2.80522">
        <ele>722</ele>
        <time>2013-09-21T10:09:58Z</time>
      </trkpt>
      <trkpt lat="45.85667" lon="2.80529">
        <ele>722.40002441406</ele>
        <time>2013-09-21T10:10:03Z</time>
      </trkpt>
      <trkpt lat="45.85665" lon="2.8053">
        <ele>723</ele>
        <time>2013-09-21T10:10:04Z</time>
      </trkpt>
      <trkpt lat="45.8566" lon="2.80532">
        <ele>724.20001220703</ele>
        <time>2013-09-21T10:10:07Z</time>
      </trkpt>
      <trkpt lat="45.85649" lon="2.80537">
        <ele>724.20001220703</ele>
        <time>2013-09-21T10:10:12Z</time>
      </trkpt>
      <trkpt lat="45.85632" lon="2.80545">
        <ele>724.20001220703</ele>
        <time>2013-09-21T10:10:20Z</time>
      </trkpt>
      <trkpt lat="45.85616" lon="2.80553">
        <ele>724.59997558594</ele>
        <time>2013-09-21T10:10:26Z</time>
      </trkpt>
      <trkpt lat="45.85605" lon="2.80557">
        <ele>726.40002441406</ele>
        <time>2013-09-21T10:10:33Z</time>
      </trkpt>
      <trkpt lat="45.85592" lon="2.80564">
        <ele>726.79998779297</ele>
        <time>2013-09-21T10:10:39Z</time>
      </trkpt>
      <trkpt lat="45.85588" lon="2.80566">
        <ele>727.59997558594</ele>
        <time>2013-09-21T10:10:41Z</time>
      </trkpt>
      <trkpt lat="45.85583" lon="2.80571">
        <ele>728.40002441406</ele>
        <time>2013-09-21T10:10:45Z</time>
      </trkpt>
      <trkpt lat="45.85579" lon="2.80574">
        <ele>729.59997558594</ele>
        <time>2013-09-21T10:10:48Z</time>
      </trkpt>
      <trkpt lat="45.8557" lon="2.80577">
        <ele>730.59997558594</ele>
        <time>2013-09-21T10:10:55Z</time>
      </trkpt>
      <trkpt lat="45.8556" lon="2.8058">
        <ele>730.59997558594</ele>
        <time>2013-09-21T10:11:03Z</time>
      </trkpt>
      <trkpt lat="45.85551" lon="2.80583">
        <ele>731.79998779297</ele>
        <time>2013-09-21T10:11:10Z</time>
      </trkpt>
      <trkpt lat="45.8555" lon="2.80582">
        <ele>731.79998779297</ele>
        <time>2013-09-21T10:11:12Z</time>
      </trkpt>
      <trkpt lat="45.85537" lon="2.80579">
        <ele>735.20001220703</ele>
        <time>2013-09-21T10:11:22Z</time>
      </trkpt>
      <trkpt lat="45.85528" lon="2.80578">
        <ele>736</ele>
        <time>2013-09-21T10:11:28Z</time>
      </trkpt>
      <trkpt lat="45.8552" lon="2.80572">
        <ele>736.79998779297</ele>
        <time>2013-09-21T10:11:37Z</time>
      </trkpt>
      <trkpt lat="45.85513" lon="2.80569">
        <ele>737.20001220703</ele>
        <time>2013-09-21T10:11:40Z</time>
      </trkpt>
      <trkpt lat="45.85507" lon="2.80569">
        <ele>737.20001220703</ele>
        <time>2013-09-21T10:11:43Z</time>
      </trkpt>
      <trkpt lat="45.85499" lon="2.80563">
        <ele>738.20001220703</ele>
        <time>2013-09-21T10:11:49Z</time>
      </trkpt>
      <trkpt lat="45.85488" lon="2.80563">
        <ele>739.40002441406</ele>
        <time>2013-09-21T10:11:56Z</time>
      </trkpt>
      <trkpt lat="45.8548" lon="2.80559">
        <ele>741.79998779297</ele>
        <time>2013-09-21T10:12:04Z</time>
      </trkpt>
      <trkpt lat="45.85475" lon="2.80555">
        <ele>743</ele>
        <time>2013-09-21T10:12:10Z</time>
      </trkpt>
      <trkpt lat="45.85469" lon="2.80541">
        <ele>743.79998779297</ele>
        <time>2013-09-21T10:12:16Z</time>
      </trkpt>
      <trkpt lat="45.85466" lon="2.80536">
        <ele>743.79998779297</ele>
        <time>2013-09-21T10:12:18Z</time>
      </trkpt>
      <trkpt lat="45.8546" lon="2.80528">
        <ele>744.59997558594</ele>
        <time>2013-09-21T10:12:22Z</time>
      </trkpt>
      <trkpt lat="45.85457" lon="2.8052">
        <ele>744.59997558594</ele>
        <time>2013-09-21T10:12:24Z</time>
      </trkpt>
      <trkpt lat="45.85451" lon="2.80501">
        <ele>745</ele>
        <time>2013-09-21T10:12:28Z</time>
      </trkpt>
      <trkpt lat="45.85442" lon="2.80475">
        <ele>745</ele>
        <time>2013-09-21T10:12:33Z</time>
      </trkpt>
      <trkpt lat="45.85426" lon="2.80437">
        <ele>745</ele>
        <time>2013-09-21T10:12:40Z</time>
      </trkpt>
      <trkpt lat="45.85414" lon="2.80395">
        <ele>745</ele>
        <time>2013-09-21T10:12:48Z</time>
      </trkpt>
      <trkpt lat="45.85403" lon="2.80356">
        <ele>745</ele>
        <time>2013-09-21T10:12:55Z</time>
      </trkpt>
      <trkpt lat="45.85393" lon="2.80318">
        <ele>745</ele>
        <time>2013-09-21T10:13:02Z</time>
      </trkpt>
      <trkpt lat="45.85386" lon="2.80324">
        <ele>745</ele>
        <time>2013-09-21T10:13:05Z</time>
      </trkpt>
      <trkpt lat="45.85386" lon="2.80335">
        <ele>745</ele>
        <time>2013-09-21T10:13:07Z</time>
      </trkpt>
      <trkpt lat="45.85385" lon="2.80349">
        <ele>745</ele>
        <time>2013-09-21T10:13:09Z</time>
      </trkpt>
      <trkpt lat="45.85381" lon="2.804">
        <ele>745</ele>
        <time>2013-09-21T10:13:16Z</time>
      </trkpt>
      <trkpt lat="45.85377" lon="2.80452">
        <ele>745</ele>
        <time>2013-09-21T10:13:24Z</time>
      </trkpt>
      <trkpt lat="45.85376" lon="2.80463">
        <ele>746</ele>
        <time>2013-09-21T10:13:26Z</time>
      </trkpt>
      <trkpt lat="45.85375" lon="2.80473">
        <ele>746.79998779297</ele>
        <time>2013-09-21T10:13:28Z</time>
      </trkpt>
      <trkpt lat="45.85374" lon="2.80489">
        <ele>747.20001220703</ele>
        <time>2013-09-21T10:13:31Z</time>
      </trkpt>
      <trkpt lat="45.85414" lon="2.80458">
        <ele>747.20001220703</ele>
        <time>2013-09-21T10:13:38Z</time>
      </trkpt>
      <trkpt lat="45.85415" lon="2.80476">
        <ele>747.59997558594</ele>
        <time>2013-09-21T10:13:42Z</time>
      </trkpt>
      <trkpt lat="45.85414" lon="2.8048">
        <ele>748</ele>
        <time>2013-09-21T10:13:43Z</time>
      </trkpt>
      <trkpt lat="45.85415" lon="2.8049">
        <ele>748.79998779297</ele>
        <time>2013-09-21T10:13:45Z</time>
      </trkpt>
      <trkpt lat="45.85411" lon="2.80503">
        <ele>749.20001220703</ele>
        <time>2013-09-21T10:13:48Z</time>
      </trkpt>
      <trkpt lat="45.85401" lon="2.80524">
        <ele>749.20001220703</ele>
        <time>2013-09-21T10:13:53Z</time>
      </trkpt>
      <trkpt lat="45.85395" lon="2.80531">
        <ele>749.59997558594</ele>
        <time>2013-09-21T10:13:55Z</time>
      </trkpt>
      <trkpt lat="45.85389" lon="2.80533">
        <ele>750.40002441406</ele>
        <time>2013-09-21T10:13:57Z</time>
      </trkpt>
      <trkpt lat="45.85373" lon="2.80528">
        <ele>751.20001220703</ele>
        <time>2013-09-21T10:14:02Z</time>
      </trkpt>
      <trkpt lat="45.8536" lon="2.80525">
        <ele>751.79998779297</ele>
        <time>2013-09-21T10:14:06Z</time>
      </trkpt>
      <trkpt lat="45.85348" lon="2.8052">
        <ele>753.40002441406</ele>
        <time>2013-09-21T10:14:10Z</time>
      </trkpt>
      <trkpt lat="45.85326" lon="2.80514">
        <ele>753.40002441406</ele>
        <time>2013-09-21T10:14:18Z</time>
      </trkpt>
      <trkpt lat="45.8532" lon="2.80512">
        <ele>754.20001220703</ele>
        <time>2013-09-21T10:14:20Z</time>
      </trkpt>
      <trkpt lat="45.853" lon="2.80507">
        <ele>755.40002441406</ele>
        <time>2013-09-21T10:14:27Z</time>
      </trkpt>
      <trkpt lat="45.85294" lon="2.80506">
        <ele>755.79998779297</ele>
        <time>2013-09-21T10:14:29Z</time>
      </trkpt>
      <trkpt lat="45.85287" lon="2.80499">
        <ele>756.20001220703</ele>
        <time>2013-09-21T10:14:30Z</time>
      </trkpt>
      <trkpt lat="45.85279" lon="2.80495">
        <ele>757.59997558594</ele>
        <time>2013-09-21T10:14:33Z</time>
      </trkpt>
      <trkpt lat="45.85267" lon="2.80494">
        <ele>757.59997558594</ele>
        <time>2013-09-21T10:14:38Z</time>
      </trkpt>
      <trkpt lat="45.85256" lon="2.80492">
        <ele>758</ele>
        <time>2013-09-21T10:14:43Z</time>
      </trkpt>
      <trkpt lat="45.85249" lon="2.80491">
        <ele>759.20001220703</ele>
        <time>2013-09-21T10:14:46Z</time>
      </trkpt>
      <trkpt lat="45.85247" lon="2.8049">
        <ele>759.59997558594</ele>
        <time>2013-09-21T10:14:47Z</time>
      </trkpt>
      <trkpt lat="45.85228" lon="2.8048">
        <ele>760</ele>
        <time>2013-09-21T10:14:54Z</time>
      </trkpt>
      <trkpt lat="45.85225" lon="2.80478">
        <ele>760.40002441406</ele>
        <time>2013-09-21T10:14:55Z</time>
      </trkpt>
      <trkpt lat="45.85218" lon="2.80473">
        <ele>761.59997558594</ele>
        <time>2013-09-21T10:14:58Z</time>
      </trkpt>
      <trkpt lat="45.85205" lon="2.80466">
        <ele>761.59997558594</ele>
        <time>2013-09-21T10:15:03Z</time>
      </trkpt>
      <trkpt lat="45.85186" lon="2.80459">
        <ele>762</ele>
        <time>2013-09-21T10:15:09Z</time>
      </trkpt>
      <trkpt lat="45.85178" lon="2.80457">
        <ele>763.40002441406</ele>
        <time>2013-09-21T10:15:12Z</time>
      </trkpt>
      <trkpt lat="45.85155" lon="2.80455">
        <ele>763.79998779297</ele>
        <time>2013-09-21T10:15:19Z</time>
      </trkpt>
      <trkpt lat="45.85136" lon="2.80447">
        <ele>763.79998779297</ele>
        <time>2013-09-21T10:15:25Z</time>
      </trkpt>
      <trkpt lat="45.85112" lon="2.80435">
        <ele>763.79998779297</ele>
        <time>2013-09-21T10:15:32Z</time>
      </trkpt>
      <trkpt lat="45.8511" lon="2.80429">
        <ele>763.79998779297</ele>
        <time>2013-09-21T10:15:33Z</time>
      </trkpt>
      <trkpt lat="45.85104" lon="2.80415">
        <ele>763.79998779297</ele>
        <time>2013-09-21T10:15:36Z</time>
      </trkpt>
      <trkpt lat="45.85093" lon="2.80354">
        <ele>763.79998779297</ele>
        <time>2013-09-21T10:15:45Z</time>
      </trkpt>
      <trkpt lat="45.8508" lon="2.80293">
        <ele>763.79998779297</ele>
        <time>2013-09-21T10:15:53Z</time>
      </trkpt>
      <trkpt lat="45.85077" lon="2.80287">
        <ele>763.79998779297</ele>
        <time>2013-09-21T10:15:54Z</time>
      </trkpt>
      <trkpt lat="45.85062" lon="2.80265">
        <ele>763.79998779297</ele>
        <time>2013-09-21T10:15:58Z</time>
      </trkpt>
      <trkpt lat="45.85058" lon="2.80259">
        <ele>763.79998779297</ele>
        <time>2013-09-21T10:15:59Z</time>
      </trkpt>
      <trkpt lat="45.85042" lon="2.80239">
        <ele>763.79998779297</ele>
        <time>2013-09-21T10:16:03Z</time>
      </trkpt>
      <trkpt lat="45.85027" lon="2.80221">
        <ele>763.79998779297</ele>
        <time>2013-09-21T10:16:07Z</time>
      </trkpt>
      <trkpt lat="45.85019" lon="2.80211">
        <ele>764.20001220703</ele>
        <time>2013-09-21T10:16:09Z</time>
      </trkpt>
      <trkpt lat="45.85015" lon="2.80206">
        <ele>764.59997558594</ele>
        <time>2013-09-21T10:16:10Z</time>
      </trkpt>
      <trkpt lat="45.85008" lon="2.80196">
        <ele>765.40002441406</ele>
        <time>2013-09-21T10:16:12Z</time>
      </trkpt>
      <trkpt lat="45.84993" lon="2.80178">
        <ele>765.79998779297</ele>
        <time>2013-09-21T10:16:16Z</time>
      </trkpt>
      <trkpt lat="45.84976" lon="2.80155">
        <ele>765.79998779297</ele>
        <time>2013-09-21T10:16:22Z</time>
      </trkpt>
      <trkpt lat="45.84971" lon="2.80149">
        <ele>766.79998779297</ele>
        <time>2013-09-21T10:16:24Z</time>
      </trkpt>
      <trkpt lat="45.84969" lon="2.80146">
        <ele>767.20001220703</ele>
        <time>2013-09-21T10:16:25Z</time>
      </trkpt>
      <trkpt lat="45.84964" lon="2.80138">
        <ele>768.20001220703</ele>
        <time>2013-09-21T10:16:27Z</time>
      </trkpt>
      <trkpt lat="45.84958" lon="2.80126">
        <ele>768.20001220703</ele>
        <time>2013-09-21T10:16:30Z</time>
      </trkpt>
      <trkpt lat="45.84946" lon="2.80106">
        <ele>768.59997558594</ele>
        <time>2013-09-21T10:16:35Z</time>
      </trkpt>
      <trkpt lat="45.84942" lon="2.80097">
        <ele>769.59997558594</ele>
        <time>2013-09-21T10:16:37Z</time>
      </trkpt>
      <trkpt lat="45.8494" lon="2.80093">
        <ele>770.20001220703</ele>
        <time>2013-09-21T10:16:38Z</time>
      </trkpt>
      <trkpt lat="45.84937" lon="2.80089">
        <ele>770.59997558594</ele>
        <time>2013-09-21T10:16:39Z</time>
      </trkpt>
      <trkpt lat="45.84919" lon="2.80061">
        <ele>770.59997558594</ele>
        <time>2013-09-21T10:16:46Z</time>
      </trkpt>
      <trkpt lat="45.84899" lon="2.80028">
        <ele>770.59997558594</ele>
        <time>2013-09-21T10:16:54Z</time>
      </trkpt>
      <trkpt lat="45.84882" lon="2.79998">
        <ele>770.59997558594</ele>
        <time>2013-09-21T10:17:01Z</time>
      </trkpt>
      <trkpt lat="45.84861" lon="2.79966">
        <ele>771</ele>
        <time>2013-09-21T10:17:08Z</time>
      </trkpt>
      <trkpt lat="45.84858" lon="2.79961">
        <ele>771.40002441406</ele>
        <time>2013-09-21T10:17:09Z</time>
      </trkpt>
      <trkpt lat="45.84855" lon="2.79957">
        <ele>771.79998779297</ele>
        <time>2013-09-21T10:17:10Z</time>
      </trkpt>
      <trkpt lat="45.84848" lon="2.79952">
        <ele>772.59997558594</ele>
        <time>2013-09-21T10:17:12Z</time>
      </trkpt>
      <trkpt lat="45.84831" lon="2.79949">
        <ele>772.59997558594</ele>
        <time>2013-09-21T10:17:16Z</time>
      </trkpt>
      <trkpt lat="45.84824" lon="2.79947">
        <ele>772.59997558594</ele>
        <time>2013-09-21T10:17:18Z</time>
      </trkpt>
      <trkpt lat="45.8482" lon="2.79946">
        <ele>772.59997558594</ele>
        <time>2013-09-21T10:17:19Z</time>
      </trkpt>
      <trkpt lat="45.84798" lon="2.79941">
        <ele>773</ele>
        <time>2013-09-21T10:17:25Z</time>
      </trkpt>
      <trkpt lat="45.84795" lon="2.7994">
        <ele>773.59997558594</ele>
        <time>2013-09-21T10:17:26Z</time>
      </trkpt>
      <trkpt lat="45.84789" lon="2.79937">
        <ele>774.40002441406</ele>
        <time>2013-09-21T10:17:28Z</time>
      </trkpt>
      <trkpt lat="45.84767" lon="2.79932">
        <ele>774.79998779297</ele>
        <time>2013-09-21T10:17:35Z</time>
      </trkpt>
      <trkpt lat="45.84758" lon="2.7993">
        <ele>776.20001220703</ele>
        <time>2013-09-21T10:17:38Z</time>
      </trkpt>
      <trkpt lat="45.84747" lon="2.79923">
        <ele>777.20001220703</ele>
        <time>2013-09-21T10:17:42Z</time>
      </trkpt>
      <trkpt lat="45.84739" lon="2.79908">
        <ele>777.20001220703</ele>
        <time>2013-09-21T10:17:46Z</time>
      </trkpt>
      <trkpt lat="45.84732" lon="2.79899">
        <ele>778.59997558594</ele>
        <time>2013-09-21T10:17:49Z</time>
      </trkpt>
      <trkpt lat="45.84729" lon="2.79891">
        <ele>779.59997558594</ele>
        <time>2013-09-21T10:17:51Z</time>
      </trkpt>
      <trkpt lat="45.84726" lon="2.79881">
        <ele>779.59997558594</ele>
        <time>2013-09-21T10:17:53Z</time>
      </trkpt>
      <trkpt lat="45.84707" lon="2.7984">
        <ele>779.59997558594</ele>
        <time>2013-09-21T10:18:01Z</time>
      </trkpt>
      <trkpt lat="45.84694" lon="2.79815">
        <ele>779.59997558594</ele>
        <time>2013-09-21T10:18:06Z</time>
      </trkpt>
      <trkpt lat="45.84691" lon="2.79809">
        <ele>779.59997558594</ele>
        <time>2013-09-21T10:18:07Z</time>
      </trkpt>
      <trkpt lat="45.84686" lon="2.79788">
        <ele>779.59997558594</ele>
        <time>2013-09-21T10:18:10Z</time>
      </trkpt>
      <trkpt lat="45.84685" lon="2.7978">
        <ele>779</ele>
        <time>2013-09-21T10:18:11Z</time>
      </trkpt>
      <trkpt lat="45.84683" lon="2.79761">
        <ele>778.20001220703</ele>
        <time>2013-09-21T10:18:13Z</time>
      </trkpt>
      <trkpt lat="45.84682" lon="2.79752">
        <ele>777.79998779297</ele>
        <time>2013-09-21T10:18:14Z</time>
      </trkpt>
      <trkpt lat="45.84681" lon="2.79742">
        <ele>777.20001220703</ele>
        <time>2013-09-21T10:18:15Z</time>
      </trkpt>
      <trkpt lat="45.84679" lon="2.7973">
        <ele>776.59997558594</ele>
        <time>2013-09-21T10:18:16Z</time>
      </trkpt>
      <trkpt lat="45.84678" lon="2.79719">
        <ele>776</ele>
        <time>2013-09-21T10:18:17Z</time>
      </trkpt>
      <trkpt lat="45.84677" lon="2.79707">
        <ele>775.40002441406</ele>
        <time>2013-09-21T10:18:18Z</time>
      </trkpt>
      <trkpt lat="45.84676" lon="2.79696">
        <ele>774.79998779297</ele>
        <time>2013-09-21T10:18:19Z</time>
      </trkpt>
      <trkpt lat="45.84674" lon="2.79684">
        <ele>774.40002441406</ele>
        <time>2013-09-21T10:18:20Z</time>
      </trkpt>
      <trkpt lat="45.84673" lon="2.79673">
        <ele>773.79998779297</ele>
        <time>2013-09-21T10:18:21Z</time>
      </trkpt>
      <trkpt lat="45.84672" lon="2.79662">
        <ele>773.40002441406</ele>
        <time>2013-09-21T10:18:22Z</time>
      </trkpt>
      <trkpt lat="45.84671" lon="2.7965">
        <ele>772.79998779297</ele>
        <time>2013-09-21T10:18:23Z</time>
      </trkpt>
      <trkpt lat="45.8467" lon="2.79638">
        <ele>772.20001220703</ele>
        <time>2013-09-21T10:18:24Z</time>
      </trkpt>
      <trkpt lat="45.84668" lon="2.79616">
        <ele>771.79998779297</ele>
        <time>2013-09-21T10:18:26Z</time>
      </trkpt>
      <trkpt lat="45.84667" lon="2.79605">
        <ele>771.40002441406</ele>
        <time>2013-09-21T10:18:27Z</time>
      </trkpt>
      <trkpt lat="45.84666" lon="2.79594">
        <ele>771</ele>
        <time>2013-09-21T10:18:28Z</time>
      </trkpt>
      <trkpt lat="45.84666" lon="2.79583">
        <ele>770.59997558594</ele>
        <time>2013-09-21T10:18:29Z</time>
      </trkpt>
      <trkpt lat="45.84667" lon="2.79572">
        <ele>770</ele>
        <time>2013-09-21T10:18:30Z</time>
      </trkpt>
      <trkpt lat="45.84668" lon="2.79562">
        <ele>770</ele>
        <time>2013-09-21T10:18:31Z</time>
      </trkpt>
      <trkpt lat="45.84673" lon="2.79518">
        <ele>769.59997558594</ele>
        <time>2013-09-21T10:18:35Z</time>
      </trkpt>
      <trkpt lat="45.84674" lon="2.79507">
        <ele>769.20001220703</ele>
        <time>2013-09-21T10:18:36Z</time>
      </trkpt>
      <trkpt lat="45.84674" lon="2.79495">
        <ele>768.79998779297</ele>
        <time>2013-09-21T10:18:37Z</time>
      </trkpt>
      <trkpt lat="45.84675" lon="2.79483">
        <ele>768.20001220703</ele>
        <time>2013-09-21T10:18:38Z</time>
      </trkpt>
      <trkpt lat="45.84676" lon="2.7947">
        <ele>767.79998779297</ele>
        <time>2013-09-21T10:18:39Z</time>
      </trkpt>
      <trkpt lat="45.84677" lon="2.79458">
        <ele>767.40002441406</ele>
        <time>2013-09-21T10:18:40Z</time>
      </trkpt>
      <trkpt lat="45.84678" lon="2.79445">
        <ele>767</ele>
        <time>2013-09-21T10:18:41Z</time>
      </trkpt>
      <trkpt lat="45.84679" lon="2.79431">
        <ele>766.40002441406</ele>
        <time>2013-09-21T10:18:42Z</time>
      </trkpt>
      <trkpt lat="45.84679" lon="2.79418">
        <ele>766</ele>
        <time>2013-09-21T10:18:43Z</time>
      </trkpt>
      <trkpt lat="45.8468" lon="2.79405">
        <ele>765.59997558594</ele>
        <time>2013-09-21T10:18:44Z</time>
      </trkpt>
      <trkpt lat="45.8468" lon="2.79392">
        <ele>765</ele>
        <time>2013-09-21T10:18:45Z</time>
      </trkpt>
      <trkpt lat="45.84681" lon="2.79379">
        <ele>764.59997558594</ele>
        <time>2013-09-21T10:18:46Z</time>
      </trkpt>
      <trkpt lat="45.84682" lon="2.79365">
        <ele>764</ele>
        <time>2013-09-21T10:18:47Z</time>
      </trkpt>
      <trkpt lat="45.84682" lon="2.79352">
        <ele>763.59997558594</ele>
        <time>2013-09-21T10:18:48Z</time>
      </trkpt>
      <trkpt lat="45.84683" lon="2.79339">
        <ele>763.20001220703</ele>
        <time>2013-09-21T10:18:49Z</time>
      </trkpt>
      <trkpt lat="45.84684" lon="2.79327">
        <ele>762.59997558594</ele>
        <time>2013-09-21T10:18:50Z</time>
      </trkpt>
      <trkpt lat="45.84684" lon="2.79314">
        <ele>762.20001220703</ele>
        <time>2013-09-21T10:18:51Z</time>
      </trkpt>
      <trkpt lat="45.84685" lon="2.79301">
        <ele>761.79998779297</ele>
        <time>2013-09-21T10:18:52Z</time>
      </trkpt>
      <trkpt lat="45.84686" lon="2.79288">
        <ele>761.40002441406</ele>
        <time>2013-09-21T10:18:53Z</time>
      </trkpt>
      <trkpt lat="45.84686" lon="2.79276">
        <ele>761</ele>
        <time>2013-09-21T10:18:54Z</time>
      </trkpt>
      <trkpt lat="45.84687" lon="2.79264">
        <ele>761</ele>
        <time>2013-09-21T10:18:55Z</time>
      </trkpt>
      <trkpt lat="45.84688" lon="2.79217">
        <ele>760.59997558594</ele>
        <time>2013-09-21T10:18:59Z</time>
      </trkpt>
      <trkpt lat="45.84689" lon="2.79205">
        <ele>760.20001220703</ele>
        <time>2013-09-21T10:19:00Z</time>
      </trkpt>
      <trkpt lat="45.84689" lon="2.79193">
        <ele>759.79998779297</ele>
        <time>2013-09-21T10:19:01Z</time>
      </trkpt>
      <trkpt lat="45.8469" lon="2.79181">
        <ele>759.40002441406</ele>
        <time>2013-09-21T10:19:02Z</time>
      </trkpt>
      <trkpt lat="45.8469" lon="2.79169">
        <ele>759</ele>
        <time>2013-09-21T10:19:03Z</time>
      </trkpt>
      <trkpt lat="45.8469" lon="2.79145">
        <ele>758.59997558594</ele>
        <time>2013-09-21T10:19:05Z</time>
      </trkpt>
      <trkpt lat="45.84691" lon="2.79134">
        <ele>758.20001220703</ele>
        <time>2013-09-21T10:19:06Z</time>
      </trkpt>
      <trkpt lat="45.84692" lon="2.79123">
        <ele>757.79998779297</ele>
        <time>2013-09-21T10:19:07Z</time>
      </trkpt>
      <trkpt lat="45.84695" lon="2.79112">
        <ele>757.40002441406</ele>
        <time>2013-09-21T10:19:08Z</time>
      </trkpt>
      <trkpt lat="45.84698" lon="2.79102">
        <ele>757</ele>
        <time>2013-09-21T10:19:09Z</time>
      </trkpt>
      <trkpt lat="45.84702" lon="2.79092">
        <ele>757</ele>
        <time>2013-09-21T10:19:10Z</time>
      </trkpt>
      <trkpt lat="45.84715" lon="2.79047">
        <ele>756.40002441406</ele>
        <time>2013-09-21T10:19:14Z</time>
      </trkpt>
      <trkpt lat="45.84718" lon="2.79035">
        <ele>756</ele>
        <time>2013-09-21T10:19:15Z</time>
      </trkpt>
      <trkpt lat="45.84721" lon="2.79023">
        <ele>755.59997558594</ele>
        <time>2013-09-21T10:19:16Z</time>
      </trkpt>
      <trkpt lat="45.84724" lon="2.7901">
        <ele>755</ele>
        <time>2013-09-21T10:19:17Z</time>
      </trkpt>
      <trkpt lat="45.84726" lon="2.78997">
        <ele>754.59997558594</ele>
        <time>2013-09-21T10:19:18Z</time>
      </trkpt>
      <trkpt lat="45.84729" lon="2.78985">
        <ele>754</ele>
        <time>2013-09-21T10:19:19Z</time>
      </trkpt>
      <trkpt lat="45.84734" lon="2.78973">
        <ele>753.40002441406</ele>
        <time>2013-09-21T10:19:20Z</time>
      </trkpt>
      <trkpt lat="45.8474" lon="2.78961">
        <ele>752.79998779297</ele>
        <time>2013-09-21T10:19:21Z</time>
      </trkpt>
      <trkpt lat="45.84749" lon="2.78954">
        <ele>752.20001220703</ele>
        <time>2013-09-21T10:19:22Z</time>
      </trkpt>
      <trkpt lat="45.84766" lon="2.78942">
        <ele>752.20001220703</ele>
        <time>2013-09-21T10:19:24Z</time>
      </trkpt>
      <trkpt lat="45.84782" lon="2.78933">
        <ele>752.20001220703</ele>
        <time>2013-09-21T10:19:26Z</time>
      </trkpt>
      <trkpt lat="45.84797" lon="2.78926">
        <ele>752.20001220703</ele>
        <time>2013-09-21T10:19:28Z</time>
      </trkpt>
      <trkpt lat="45.84829" lon="2.78903">
        <ele>752.20001220703</ele>
        <time>2013-09-21T10:19:33Z</time>
      </trkpt>
      <trkpt lat="45.84853" lon="2.78875">
        <ele>752.20001220703</ele>
        <time>2013-09-21T10:19:38Z</time>
      </trkpt>
      <trkpt lat="45.84856" lon="2.78867">
        <ele>752.20001220703</ele>
        <time>2013-09-21T10:19:39Z</time>
      </trkpt>
      <trkpt lat="45.84861" lon="2.78855">
        <ele>752.20001220703</ele>
        <time>2013-09-21T10:19:41Z</time>
      </trkpt>
      <trkpt lat="45.84859" lon="2.78847">
        <ele>752.20001220703</ele>
        <time>2013-09-21T10:19:44Z</time>
      </trkpt>
      <trkpt lat="45.84855" lon="2.78839">
        <ele>752.20001220703</ele>
        <time>2013-09-21T10:19:50Z</time>
      </trkpt>
      <trkpt lat="45.84856" lon="2.78826">
        <ele>754.20001220703</ele>
        <time>2013-09-21T10:31:35Z</time>
      </trkpt>
      <trkpt lat="45.84855" lon="2.78808">
        <ele>754.20001220703</ele>
        <time>2013-09-21T10:31:39Z</time>
      </trkpt>
      <trkpt lat="45.8484" lon="2.7879">
        <ele>754.20001220703</ele>
        <time>2013-09-21T10:31:43Z</time>
      </trkpt>
      <trkpt lat="45.84836" lon="2.78786">
        <ele>754.20001220703</ele>
        <time>2013-09-21T10:31:44Z</time>
      </trkpt>
      <trkpt lat="45.84828" lon="2.78775">
        <ele>753.40002441406</ele>
        <time>2013-09-21T10:31:46Z</time>
      </trkpt>
      <trkpt lat="45.84819" lon="2.78765">
        <ele>752.59997558594</ele>
        <time>2013-09-21T10:31:48Z</time>
      </trkpt>
      <trkpt lat="45.84809" lon="2.78758">
        <ele>752.20001220703</ele>
        <time>2013-09-21T10:31:50Z</time>
      </trkpt>
      <trkpt lat="45.84791" lon="2.78753">
        <ele>752.20001220703</ele>
        <time>2013-09-21T10:31:53Z</time>
      </trkpt>
      <trkpt lat="45.84785" lon="2.78753">
        <ele>751.79998779297</ele>
        <time>2013-09-21T10:31:54Z</time>
      </trkpt>
      <trkpt lat="45.84779" lon="2.78752">
        <ele>751.40002441406</ele>
        <time>2013-09-21T10:31:55Z</time>
      </trkpt>
      <trkpt lat="45.84766" lon="2.78752">
        <ele>750.59997558594</ele>
        <time>2013-09-21T10:31:57Z</time>
      </trkpt>
      <trkpt lat="45.84755" lon="2.78752">
        <ele>750.20001220703</ele>
        <time>2013-09-21T10:31:59Z</time>
      </trkpt>
      <trkpt lat="45.84735" lon="2.7875">
        <ele>750.20001220703</ele>
        <time>2013-09-21T10:32:02Z</time>
      </trkpt>
      <trkpt lat="45.84723" lon="2.78747">
        <ele>750.20001220703</ele>
        <time>2013-09-21T10:32:04Z</time>
      </trkpt>
      <trkpt lat="45.8468" lon="2.78728">
        <ele>750.20001220703</ele>
        <time>2013-09-21T10:32:11Z</time>
      </trkpt>
      <trkpt lat="45.84664" lon="2.78719">
        <ele>750.20001220703</ele>
        <time>2013-09-21T10:32:14Z</time>
      </trkpt>
      <trkpt lat="45.84647" lon="2.78708">
        <ele>750.20001220703</ele>
        <time>2013-09-21T10:32:17Z</time>
      </trkpt>
      <trkpt lat="45.84605" lon="2.78685">
        <ele>750.20001220703</ele>
        <time>2013-09-21T10:32:24Z</time>
      </trkpt>
      <trkpt lat="45.84566" lon="2.78667">
        <ele>749.20001220703</ele>
        <time>2013-09-21T10:32:30Z</time>
      </trkpt>
      <trkpt lat="45.84554" lon="2.78665">
        <ele>748.20001220703</ele>
        <time>2013-09-21T10:32:32Z</time>
      </trkpt>
      <trkpt lat="45.84549" lon="2.78662">
        <ele>747.79998779297</ele>
        <time>2013-09-21T10:32:33Z</time>
      </trkpt>
      <trkpt lat="45.84543" lon="2.78657">
        <ele>747.79998779297</ele>
        <time>2013-09-21T10:32:34Z</time>
      </trkpt>
      <trkpt lat="45.84524" lon="2.78637">
        <ele>747.79998779297</ele>
        <time>2013-09-21T10:32:37Z</time>
      </trkpt>
      <trkpt lat="45.84512" lon="2.78625">
        <ele>747.79998779297</ele>
        <time>2013-09-21T10:32:39Z</time>
      </trkpt>
      <trkpt lat="45.84508" lon="2.78622">
        <ele>747.20001220703</ele>
        <time>2013-09-21T10:32:40Z</time>
      </trkpt>
      <trkpt lat="45.84504" lon="2.78619">
        <ele>746.79998779297</ele>
        <time>2013-09-21T10:32:41Z</time>
      </trkpt>
      <trkpt lat="45.845" lon="2.78615">
        <ele>746.20001220703</ele>
        <time>2013-09-21T10:32:42Z</time>
      </trkpt>
      <trkpt lat="45.84489" lon="2.78607">
        <ele>745.20001220703</ele>
        <time>2013-09-21T10:32:44Z</time>
      </trkpt>
      <trkpt lat="45.8447" lon="2.78595">
        <ele>744.79998779297</ele>
        <time>2013-09-21T10:32:47Z</time>
      </trkpt>
      <trkpt lat="45.84453" lon="2.78587">
        <ele>744.40002441406</ele>
        <time>2013-09-21T10:32:49Z</time>
      </trkpt>
      <trkpt lat="45.84444" lon="2.78583">
        <ele>743.79998779297</ele>
        <time>2013-09-21T10:32:50Z</time>
      </trkpt>
      <trkpt lat="45.84434" lon="2.7858">
        <ele>743.20001220703</ele>
        <time>2013-09-21T10:32:51Z</time>
      </trkpt>
      <trkpt lat="45.84424" lon="2.78577">
        <ele>742.40002441406</ele>
        <time>2013-09-21T10:32:52Z</time>
      </trkpt>
      <trkpt lat="45.84414" lon="2.78575">
        <ele>741.79998779297</ele>
        <time>2013-09-21T10:32:53Z</time>
      </trkpt>
      <trkpt lat="45.84403" lon="2.78572">
        <ele>741</ele>
        <time>2013-09-21T10:32:54Z</time>
      </trkpt>
      <trkpt lat="45.84391" lon="2.78569">
        <ele>740.20001220703</ele>
        <time>2013-09-21T10:32:55Z</time>
      </trkpt>
      <trkpt lat="45.84381" lon="2.78565">
        <ele>739.40002441406</ele>
        <time>2013-09-21T10:32:56Z</time>
      </trkpt>
      <trkpt lat="45.84372" lon="2.78562">
        <ele>738.79998779297</ele>
        <time>2013-09-21T10:32:57Z</time>
      </trkpt>
      <trkpt lat="45.84363" lon="2.78558">
        <ele>738</ele>
        <time>2013-09-21T10:32:58Z</time>
      </trkpt>
      <trkpt lat="45.84356" lon="2.78555">
        <ele>737.20001220703</ele>
        <time>2013-09-21T10:32:59Z</time>
      </trkpt>
      <trkpt lat="45.84348" lon="2.78552">
        <ele>735.79998779297</ele>
        <time>2013-09-21T10:33:01Z</time>
      </trkpt>
      <trkpt lat="45.84341" lon="2.78565">
        <ele>735.79998779297</ele>
        <time>2013-09-21T10:33:07Z</time>
      </trkpt>
      <trkpt lat="45.84339" lon="2.78577">
        <ele>735.79998779297</ele>
        <time>2013-09-21T10:33:12Z</time>
      </trkpt>
      <trkpt lat="45.8434" lon="2.78588">
        <ele>736.20001220703</ele>
        <time>2013-09-21T10:33:16Z</time>
      </trkpt>
      <trkpt lat="45.8434" lon="2.78591">
        <ele>736.79998779297</ele>
        <time>2013-09-21T10:33:17Z</time>
      </trkpt>
      <trkpt lat="45.84341" lon="2.78602">
        <ele>738.59997558594</ele>
        <time>2013-09-21T10:33:22Z</time>
      </trkpt>
      <trkpt lat="45.8434" lon="2.78608">
        <ele>740</ele>
        <time>2013-09-21T10:33:25Z</time>
      </trkpt>
      <trkpt lat="45.8434" lon="2.78612">
        <ele>740.40002441406</ele>
        <time>2013-09-21T10:33:27Z</time>
      </trkpt>
      <trkpt lat="45.8434" lon="2.7862">
        <ele>741.20001220703</ele>
        <time>2013-09-21T10:33:31Z</time>
      </trkpt>
      <trkpt lat="45.8434" lon="2.78622">
        <ele>741.79998779297</ele>
        <time>2013-09-21T10:33:32Z</time>
      </trkpt>
      <trkpt lat="45.84341" lon="2.78632">
        <ele>742.59997558594</ele>
        <time>2013-09-21T10:33:37Z</time>
      </trkpt>
      <trkpt lat="45.84343" lon="2.78641">
        <ele>743</ele>
        <time>2013-09-21T10:33:43Z</time>
      </trkpt>
      <trkpt lat="45.84344" lon="2.78659">
        <ele>745.40002441406</ele>
        <time>2013-09-21T10:33:53Z</time>
      </trkpt>
      <trkpt lat="45.84344" lon="2.78661">
        <ele>745.79998779297</ele>
        <time>2013-09-21T10:33:54Z</time>
      </trkpt>
      <trkpt lat="45.84337" lon="2.78684">
        <ele>747.20001220703</ele>
        <time>2013-09-21T10:34:05Z</time>
      </trkpt>
      <trkpt lat="45.84334" lon="2.7869">
        <ele>747.59997558594</ele>
        <time>2013-09-21T10:34:08Z</time>
      </trkpt>
      <trkpt lat="45.84329" lon="2.78702">
        <ele>749.20001220703</ele>
        <time>2013-09-21T10:34:12Z</time>
      </trkpt>
      <trkpt lat="45.84312" lon="2.78727">
        <ele>749.20001220703</ele>
        <time>2013-09-21T10:34:24Z</time>
      </trkpt>
      <trkpt lat="45.84309" lon="2.78731">
        <ele>750</ele>
        <time>2013-09-21T10:34:27Z</time>
      </trkpt>
      <trkpt lat="45.84299" lon="2.78745">
        <ele>751.59997558594</ele>
        <time>2013-09-21T10:34:36Z</time>
      </trkpt>
      <trkpt lat="45.84297" lon="2.78752">
        <ele>753.20001220703</ele>
        <time>2013-09-21T10:34:40Z</time>
      </trkpt>
      <trkpt lat="45.84288" lon="2.78766">
        <ele>753.20001220703</ele>
        <time>2013-09-21T10:34:47Z</time>
      </trkpt>
      <trkpt lat="45.84284" lon="2.7877">
        <ele>754.59997558594</ele>
        <time>2013-09-21T10:34:50Z</time>
      </trkpt>
      <trkpt lat="45.84278" lon="2.78776">
        <ele>755.40002441406</ele>
        <time>2013-09-21T10:34:56Z</time>
      </trkpt>
      <trkpt lat="45.84274" lon="2.7878">
        <ele>755.79998779297</ele>
        <time>2013-09-21T10:35:00Z</time>
      </trkpt>
      <trkpt lat="45.84268" lon="2.78787">
        <ele>757.40002441406</ele>
        <time>2013-09-21T10:35:03Z</time>
      </trkpt>
      <trkpt lat="45.84252" lon="2.78812">
        <ele>758.20001220703</ele>
        <time>2013-09-21T10:35:12Z</time>
      </trkpt>
      <trkpt lat="45.84249" lon="2.78819">
        <ele>759</ele>
        <time>2013-09-21T10:35:14Z</time>
      </trkpt>
      <trkpt lat="45.84247" lon="2.78822">
        <ele>759.40002441406</ele>
        <time>2013-09-21T10:35:15Z</time>
      </trkpt>
      <trkpt lat="45.84243" lon="2.78837">
        <ele>759.79998779297</ele>
        <time>2013-09-21T10:35:21Z</time>
      </trkpt>
      <trkpt lat="45.8424" lon="2.78857">
        <ele>760.20001220703</ele>
        <time>2013-09-21T10:35:29Z</time>
      </trkpt>
      <trkpt lat="45.8424" lon="2.78861">
        <ele>761</ele>
        <time>2013-09-21T10:35:31Z</time>
      </trkpt>
      <trkpt lat="45.84237" lon="2.78875">
        <ele>761.79998779297</ele>
        <time>2013-09-21T10:35:38Z</time>
      </trkpt>
      <trkpt lat="45.84236" lon="2.78881">
        <ele>762.20001220703</ele>
        <time>2013-09-21T10:35:41Z</time>
      </trkpt>
      <trkpt lat="45.84235" lon="2.78891">
        <ele>764</ele>
        <time>2013-09-21T10:35:47Z</time>
      </trkpt>
      <trkpt lat="45.84237" lon="2.78901">
        <ele>765.79998779297</ele>
        <time>2013-09-21T10:35:52Z</time>
      </trkpt>
      <trkpt lat="45.84233" lon="2.7894">
        <ele>766.20001220703</ele>
        <time>2013-09-21T10:36:04Z</time>
      </trkpt>
      <trkpt lat="45.84223" lon="2.78964">
        <ele>766.20001220703</ele>
        <time>2013-09-21T10:36:10Z</time>
      </trkpt>
      <trkpt lat="45.84214" lon="2.78982">
        <ele>766.59997558594</ele>
        <time>2013-09-21T10:36:14Z</time>
      </trkpt>
      <trkpt lat="45.8421" lon="2.78991">
        <ele>767.79998779297</ele>
        <time>2013-09-21T10:36:17Z</time>
      </trkpt>
      <trkpt lat="45.84195" lon="2.79011">
        <ele>768.20001220703</ele>
        <time>2013-09-21T10:36:24Z</time>
      </trkpt>
      <trkpt lat="45.8418" lon="2.79028">
        <ele>768.59997558594</ele>
        <time>2013-09-21T10:36:29Z</time>
      </trkpt>
      <trkpt lat="45.84178" lon="2.79029">
        <ele>769.20001220703</ele>
        <time>2013-09-21T10:36:30Z</time>
      </trkpt>
      <trkpt lat="45.84175" lon="2.7903">
        <ele>769.59997558594</ele>
        <time>2013-09-21T10:36:31Z</time>
      </trkpt>
      <trkpt lat="45.84168" lon="2.79032">
        <ele>770.59997558594</ele>
        <time>2013-09-21T10:36:33Z</time>
      </trkpt>
      <trkpt lat="45.84159" lon="2.79035">
        <ele>770.59997558594</ele>
        <time>2013-09-21T10:36:36Z</time>
      </trkpt>
      <trkpt lat="45.84144" lon="2.79044">
        <ele>770.59997558594</ele>
        <time>2013-09-21T10:36:42Z</time>
      </trkpt>
      <trkpt lat="45.84137" lon="2.79048">
        <ele>771</ele>
        <time>2013-09-21T10:36:45Z</time>
      </trkpt>
      <trkpt lat="45.84132" lon="2.7905">
        <ele>771.79998779297</ele>
        <time>2013-09-21T10:36:47Z</time>
      </trkpt>
      <trkpt lat="45.84129" lon="2.79054">
        <ele>772.79998779297</ele>
        <time>2013-09-21T10:36:49Z</time>
      </trkpt>
      <trkpt lat="45.84113" lon="2.79062">
        <ele>773.20001220703</ele>
        <time>2013-09-21T10:36:57Z</time>
      </trkpt>
      <trkpt lat="45.84109" lon="2.79064">
        <ele>774.20001220703</ele>
        <time>2013-09-21T10:36:59Z</time>
      </trkpt>
      <trkpt lat="45.8409" lon="2.79071">
        <ele>775.59997558594</ele>
        <time>2013-09-21T10:37:08Z</time>
      </trkpt>
      <trkpt lat="45.84089" lon="2.79071">
        <ele>776</ele>
        <time>2013-09-21T10:37:09Z</time>
      </trkpt>
      <trkpt lat="45.84077" lon="2.79075">
        <ele>777.20001220703</ele>
        <time>2013-09-21T10:37:14Z</time>
      </trkpt>
      <trkpt lat="45.84061" lon="2.79082">
        <ele>777.59997558594</ele>
        <time>2013-09-21T10:37:21Z</time>
      </trkpt>
      <trkpt lat="45.84059" lon="2.79083">
        <ele>778.20001220703</ele>
        <time>2013-09-21T10:37:22Z</time>
      </trkpt>
      <trkpt lat="45.84044" lon="2.7909">
        <ele>779.40002441406</ele>
        <time>2013-09-21T10:37:29Z</time>
      </trkpt>
      <trkpt lat="45.84038" lon="2.79093">
        <ele>779.79998779297</ele>
        <time>2013-09-21T10:37:32Z</time>
      </trkpt>
      <trkpt lat="45.84029" lon="2.79096">
        <ele>781.40002441406</ele>
        <time>2013-09-21T10:37:36Z</time>
      </trkpt>
      <trkpt lat="45.84017" lon="2.79104">
        <ele>781.40002441406</ele>
        <time>2013-09-21T10:37:43Z</time>
      </trkpt>
      <trkpt lat="45.84009" lon="2.7911">
        <ele>783</ele>
        <time>2013-09-21T10:37:48Z</time>
      </trkpt>
      <trkpt lat="45.83999" lon="2.79118">
        <ele>784</ele>
        <time>2013-09-21T10:37:54Z</time>
      </trkpt>
      <trkpt lat="45.83994" lon="2.79121">
        <ele>785.20001220703</ele>
        <time>2013-09-21T10:37:57Z</time>
      </trkpt>
      <trkpt lat="45.83977" lon="2.79134">
        <ele>786</ele>
        <time>2013-09-21T10:38:07Z</time>
      </trkpt>
      <trkpt lat="45.8397" lon="2.79139">
        <ele>787.59997558594</ele>
        <time>2013-09-21T10:38:11Z</time>
      </trkpt>
      <trkpt lat="45.83959" lon="2.79145">
        <ele>788</ele>
        <time>2013-09-21T10:38:17Z</time>
      </trkpt>
      <trkpt lat="45.83939" lon="2.79159">
        <ele>790.20001220703</ele>
        <time>2013-09-21T10:38:29Z</time>
      </trkpt>
      <trkpt lat="45.83937" lon="2.79161">
        <ele>790.59997558594</ele>
        <time>2013-09-21T10:38:30Z</time>
      </trkpt>
      <trkpt lat="45.83923" lon="2.79171">
        <ele>792.20001220703</ele>
        <time>2013-09-21T10:38:38Z</time>
      </trkpt>
      <trkpt lat="45.8392" lon="2.79173">
        <ele>793</ele>
        <time>2013-09-21T10:38:40Z</time>
      </trkpt>
      <trkpt lat="45.83897" lon="2.79191">
        <ele>794.20001220703</ele>
        <time>2013-09-21T10:38:52Z</time>
      </trkpt>
      <trkpt lat="45.83889" lon="2.79196">
        <ele>795.79998779297</ele>
        <time>2013-09-21T10:38:57Z</time>
      </trkpt>
      <trkpt lat="45.8388" lon="2.79204">
        <ele>795.79998779297</ele>
        <time>2013-09-21T10:39:02Z</time>
      </trkpt>
      <trkpt lat="45.83873" lon="2.7921">
        <ele>796.20001220703</ele>
        <time>2013-09-21T10:39:06Z</time>
      </trkpt>
      <trkpt lat="45.83872" lon="2.79212">
        <ele>796.59997558594</ele>
        <time>2013-09-21T10:39:07Z</time>
      </trkpt>
      <trkpt lat="45.8387" lon="2.79216">
        <ele>797.40002441406</ele>
        <time>2013-09-21T10:39:09Z</time>
      </trkpt>
      <trkpt lat="45.83858" lon="2.79226">
        <ele>797.79998779297</ele>
        <time>2013-09-21T10:39:17Z</time>
      </trkpt>
      <trkpt lat="45.83853" lon="2.79231">
        <ele>799</ele>
        <time>2013-09-21T10:39:20Z</time>
      </trkpt>
      <trkpt lat="45.8385" lon="2.79233">
        <ele>799.79998779297</ele>
        <time>2013-09-21T10:39:22Z</time>
      </trkpt>
      <trkpt lat="45.83836" lon="2.79241">
        <ele>800.20001220703</ele>
        <time>2013-09-21T10:39:30Z</time>
      </trkpt>
      <trkpt lat="45.83829" lon="2.79246">
        <ele>802</ele>
        <time>2013-09-21T10:39:34Z</time>
      </trkpt>
      <trkpt lat="45.83815" lon="2.79251">
        <ele>802.40002441406</ele>
        <time>2013-09-21T10:39:42Z</time>
      </trkpt>
      <trkpt lat="45.83809" lon="2.79253">
        <ele>803.59997558594</ele>
        <time>2013-09-21T10:39:45Z</time>
      </trkpt>
      <trkpt lat="45.83797" lon="2.79258">
        <ele>804</ele>
        <time>2013-09-21T10:39:51Z</time>
      </trkpt>
      <trkpt lat="45.83791" lon="2.79261">
        <ele>805.20001220703</ele>
        <time>2013-09-21T10:39:55Z</time>
      </trkpt>
      <trkpt lat="45.83789" lon="2.79262">
        <ele>805.59997558594</ele>
        <time>2013-09-21T10:39:56Z</time>
      </trkpt>
      <trkpt lat="45.83773" lon="2.79277">
        <ele>806.40002441406</ele>
        <time>2013-09-21T10:40:07Z</time>
      </trkpt>
      <trkpt lat="45.83769" lon="2.79281">
        <ele>807.20001220703</ele>
        <time>2013-09-21T10:40:09Z</time>
      </trkpt>
      <trkpt lat="45.83754" lon="2.79298">
        <ele>808</ele>
        <time>2013-09-21T10:40:17Z</time>
      </trkpt>
      <trkpt lat="45.83746" lon="2.79306">
        <ele>808.59997558594</ele>
        <time>2013-09-21T10:40:21Z</time>
      </trkpt>
      <trkpt lat="45.83743" lon="2.7931">
        <ele>809.40002441406</ele>
        <time>2013-09-21T10:40:23Z</time>
      </trkpt>
      <trkpt lat="45.83739" lon="2.79314">
        <ele>810.40002441406</ele>
        <time>2013-09-21T10:40:25Z</time>
      </trkpt>
      <trkpt lat="45.83728" lon="2.79326">
        <ele>810.40002441406</ele>
        <time>2013-09-21T10:40:32Z</time>
      </trkpt>
      <trkpt lat="45.8372" lon="2.79334">
        <ele>810.79998779297</ele>
        <time>2013-09-21T10:40:36Z</time>
      </trkpt>
      <trkpt lat="45.83718" lon="2.79337">
        <ele>811.20001220703</ele>
        <time>2013-09-21T10:40:37Z</time>
      </trkpt>
      <trkpt lat="45.83714" lon="2.79341">
        <ele>812</ele>
        <time>2013-09-21T10:40:39Z</time>
      </trkpt>
      <trkpt lat="45.83709" lon="2.79347">
        <ele>812.59997558594</ele>
        <time>2013-09-21T10:40:42Z</time>
      </trkpt>
      <trkpt lat="45.83703" lon="2.79353">
        <ele>812.59997558594</ele>
        <time>2013-09-21T10:40:45Z</time>
      </trkpt>
      <trkpt lat="45.83692" lon="2.79368">
        <ele>813</ele>
        <time>2013-09-21T10:40:52Z</time>
      </trkpt>
      <trkpt lat="45.8369" lon="2.79371">
        <ele>813.40002441406</ele>
        <time>2013-09-21T10:40:53Z</time>
      </trkpt>
      <trkpt lat="45.83688" lon="2.79373">
        <ele>813.79998779297</ele>
        <time>2013-09-21T10:40:54Z</time>
      </trkpt>
      <trkpt lat="45.83674" lon="2.79392">
        <ele>814.59997558594</ele>
        <time>2013-09-21T10:41:02Z</time>
      </trkpt>
      <trkpt lat="45.83664" lon="2.794">
        <ele>815.40002441406</ele>
        <time>2013-09-21T10:41:06Z</time>
      </trkpt>
      <trkpt lat="45.83661" lon="2.79402">
        <ele>815.79998779297</ele>
        <time>2013-09-21T10:41:07Z</time>
      </trkpt>
      <trkpt lat="45.83659" lon="2.79404">
        <ele>816.20001220703</ele>
        <time>2013-09-21T10:41:08Z</time>
      </trkpt>
      <trkpt lat="45.83629" lon="2.79428">
        <ele>816.59997558594</ele>
        <time>2013-09-21T10:41:19Z</time>
      </trkpt>
      <trkpt lat="45.83603" lon="2.79448">
        <ele>816.59997558594</ele>
        <time>2013-09-21T10:41:27Z</time>
      </trkpt>
      <trkpt lat="45.83596" lon="2.79453">
        <ele>817</ele>
        <time>2013-09-21T10:41:29Z</time>
      </trkpt>
      <trkpt lat="45.8359" lon="2.79458">
        <ele>817.79998779297</ele>
        <time>2013-09-21T10:41:31Z</time>
      </trkpt>
      <trkpt lat="45.83587" lon="2.7946">
        <ele>818.20001220703</ele>
        <time>2013-09-21T10:41:32Z</time>
      </trkpt>
      <trkpt lat="45.83579" lon="2.79465">
        <ele>818.59997558594</ele>
        <time>2013-09-21T10:41:34Z</time>
      </trkpt>
      <trkpt lat="45.83545" lon="2.79493">
        <ele>818.59997558594</ele>
        <time>2013-09-21T10:41:42Z</time>
      </trkpt>
      <trkpt lat="45.83512" lon="2.79531">
        <ele>818.59997558594</ele>
        <time>2013-09-21T10:41:50Z</time>
      </trkpt>
      <trkpt lat="45.83472" lon="2.79562">
        <ele>818.59997558594</ele>
        <time>2013-09-21T10:41:59Z</time>
      </trkpt>
      <trkpt lat="45.83467" lon="2.79564">
        <ele>818.59997558594</ele>
        <time>2013-09-21T10:42:00Z</time>
      </trkpt>
      <trkpt lat="45.83439" lon="2.79579">
        <ele>818.59997558594</ele>
        <time>2013-09-21T10:42:06Z</time>
      </trkpt>
      <trkpt lat="45.83394" lon="2.79593">
        <ele>818.59997558594</ele>
        <time>2013-09-21T10:42:15Z</time>
      </trkpt>
      <trkpt lat="45.83349" lon="2.79604">
        <ele>818.59997558594</ele>
        <time>2013-09-21T10:42:23Z</time>
      </trkpt>
      <trkpt lat="45.8333" lon="2.79609">
        <ele>818.59997558594</ele>
        <time>2013-09-21T10:42:26Z</time>
      </trkpt>
      <trkpt lat="45.83305" lon="2.79615">
        <ele>818.59997558594</ele>
        <time>2013-09-21T10:42:30Z</time>
      </trkpt>
      <trkpt lat="45.83252" lon="2.79628">
        <ele>818.59997558594</ele>
        <time>2013-09-21T10:42:38Z</time>
      </trkpt>
      <trkpt lat="45.83227" lon="2.79631">
        <ele>818.59997558594</ele>
        <time>2013-09-21T10:42:42Z</time>
      </trkpt>
      <trkpt lat="45.83223" lon="2.79627">
        <ele>818.59997558594</ele>
        <time>2013-09-21T10:42:43Z</time>
      </trkpt>
      <trkpt lat="45.83218" lon="2.79613">
        <ele>818.20001220703</ele>
        <time>2013-09-21T10:42:45Z</time>
      </trkpt>
      <trkpt lat="45.83217" lon="2.79603">
        <ele>817.79998779297</ele>
        <time>2013-09-21T10:42:46Z</time>
      </trkpt>
      <trkpt lat="45.83217" lon="2.79593">
        <ele>817.40002441406</ele>
        <time>2013-09-21T10:42:47Z</time>
      </trkpt>
      <trkpt lat="45.83216" lon="2.79583">
        <ele>817</ele>
        <time>2013-09-21T10:42:48Z</time>
      </trkpt>
      <trkpt lat="45.83215" lon="2.79572">
        <ele>816.40002441406</ele>
        <time>2013-09-21T10:42:49Z</time>
      </trkpt>
      <trkpt lat="45.83213" lon="2.79561">
        <ele>816</ele>
        <time>2013-09-21T10:42:50Z</time>
      </trkpt>
      <trkpt lat="45.83211" lon="2.7955">
        <ele>815.40002441406</ele>
        <time>2013-09-21T10:42:51Z</time>
      </trkpt>
      <trkpt lat="45.83208" lon="2.79538">
        <ele>815</ele>
        <time>2013-09-21T10:42:52Z</time>
      </trkpt>
      <trkpt lat="45.83205" lon="2.79526">
        <ele>814.40002441406</ele>
        <time>2013-09-21T10:42:53Z</time>
      </trkpt>
      <trkpt lat="45.83202" lon="2.79514">
        <ele>814</ele>
        <time>2013-09-21T10:42:54Z</time>
      </trkpt>
      <trkpt lat="45.83199" lon="2.79502">
        <ele>813.40002441406</ele>
        <time>2013-09-21T10:42:55Z</time>
      </trkpt>
      <trkpt lat="45.83197" lon="2.79488">
        <ele>813</ele>
        <time>2013-09-21T10:42:56Z</time>
      </trkpt>
      <trkpt lat="45.83194" lon="2.79475">
        <ele>812.40002441406</ele>
        <time>2013-09-21T10:42:57Z</time>
      </trkpt>
      <trkpt lat="45.83192" lon="2.79461">
        <ele>811.79998779297</ele>
        <time>2013-09-21T10:42:58Z</time>
      </trkpt>
      <trkpt lat="45.83192" lon="2.79446">
        <ele>811</ele>
        <time>2013-09-21T10:42:59Z</time>
      </trkpt>
      <trkpt lat="45.83193" lon="2.79431">
        <ele>810.20001220703</ele>
        <time>2013-09-21T10:43:00Z</time>
      </trkpt>
      <trkpt lat="45.83195" lon="2.79416">
        <ele>809.40002441406</ele>
        <time>2013-09-21T10:43:01Z</time>
      </trkpt>
      <trkpt lat="45.83196" lon="2.79402">
        <ele>808.40002441406</ele>
        <time>2013-09-21T10:43:02Z</time>
      </trkpt>
      <trkpt lat="45.83197" lon="2.79389">
        <ele>807.59997558594</ele>
        <time>2013-09-21T10:43:03Z</time>
      </trkpt>
      <trkpt lat="45.83199" lon="2.79377">
        <ele>806.59997558594</ele>
        <time>2013-09-21T10:43:04Z</time>
      </trkpt>
      <trkpt lat="45.832" lon="2.79365">
        <ele>805.79998779297</ele>
        <time>2013-09-21T10:43:05Z</time>
      </trkpt>
      <trkpt lat="45.832" lon="2.79354">
        <ele>804.79998779297</ele>
        <time>2013-09-21T10:43:06Z</time>
      </trkpt>
      <trkpt lat="45.83198" lon="2.79343">
        <ele>803.59997558594</ele>
        <time>2013-09-21T10:43:07Z</time>
      </trkpt>
      <trkpt lat="45.83194" lon="2.79332">
        <ele>802.59997558594</ele>
        <time>2013-09-21T10:43:08Z</time>
      </trkpt>
      <trkpt lat="45.83189" lon="2.79323">
        <ele>801.59997558594</ele>
        <time>2013-09-21T10:43:09Z</time>
      </trkpt>
      <trkpt lat="45.83184" lon="2.79314">
        <ele>800.59997558594</ele>
        <time>2013-09-21T10:43:10Z</time>
      </trkpt>
      <trkpt lat="45.83175" lon="2.79309">
        <ele>799.59997558594</ele>
        <time>2013-09-21T10:43:11Z</time>
      </trkpt>
      <trkpt lat="45.83167" lon="2.79304">
        <ele>798.40002441406</ele>
        <time>2013-09-21T10:43:12Z</time>
      </trkpt>
      <trkpt lat="45.83157" lon="2.793">
        <ele>797.40002441406</ele>
        <time>2013-09-21T10:43:13Z</time>
      </trkpt>
      <trkpt lat="45.83149" lon="2.79296">
        <ele>796.20001220703</ele>
        <time>2013-09-21T10:43:14Z</time>
      </trkpt>
      <trkpt lat="45.83139" lon="2.79295">
        <ele>795</ele>
        <time>2013-09-21T10:43:15Z</time>
      </trkpt>
      <trkpt lat="45.83119" lon="2.79299">
        <ele>792.79998779297</ele>
        <time>2013-09-21T10:43:17Z</time>
      </trkpt>
      <trkpt lat="45.83109" lon="2.79305">
        <ele>791.59997558594</ele>
        <time>2013-09-21T10:43:18Z</time>
      </trkpt>
      <trkpt lat="45.83099" lon="2.79312">
        <ele>790.40002441406</ele>
        <time>2013-09-21T10:43:19Z</time>
      </trkpt>
      <trkpt lat="45.83091" lon="2.7932">
        <ele>789.40002441406</ele>
        <time>2013-09-21T10:43:20Z</time>
      </trkpt>
      <trkpt lat="45.83081" lon="2.79328">
        <ele>788.40002441406</ele>
        <time>2013-09-21T10:43:21Z</time>
      </trkpt>
      <trkpt lat="45.83073" lon="2.79335">
        <ele>787.59997558594</ele>
        <time>2013-09-21T10:43:22Z</time>
      </trkpt>
      <trkpt lat="45.83064" lon="2.79344">
        <ele>786.59997558594</ele>
        <time>2013-09-21T10:43:23Z</time>
      </trkpt>
      <trkpt lat="45.83055" lon="2.79353">
        <ele>785.79998779297</ele>
        <time>2013-09-21T10:43:24Z</time>
      </trkpt>
      <trkpt lat="45.83044" lon="2.79364">
        <ele>785.20001220703</ele>
        <time>2013-09-21T10:43:25Z</time>
      </trkpt>
      <trkpt lat="45.83036" lon="2.79372">
        <ele>784.79998779297</ele>
        <time>2013-09-21T10:43:26Z</time>
      </trkpt>
      <trkpt lat="45.83029" lon="2.7938">
        <ele>784.40002441406</ele>
        <time>2013-09-21T10:43:27Z</time>
      </trkpt>
      <trkpt lat="45.83022" lon="2.79385">
        <ele>783.59997558594</ele>
        <time>2013-09-21T10:43:28Z</time>
      </trkpt>
      <trkpt lat="45.83016" lon="2.79388">
        <ele>782.79998779297</ele>
        <time>2013-09-21T10:43:29Z</time>
      </trkpt>
      <trkpt lat="45.83006" lon="2.7939">
        <ele>781.40002441406</ele>
        <time>2013-09-21T10:43:31Z</time>
      </trkpt>
      <trkpt lat="45.82998" lon="2.79392">
        <ele>780.20001220703</ele>
        <time>2013-09-21T10:43:33Z</time>
      </trkpt>
      <trkpt lat="45.82989" lon="2.79391">
        <ele>778.59997558594</ele>
        <time>2013-09-21T10:43:36Z</time>
      </trkpt>
      <trkpt lat="45.82986" lon="2.79389">
        <ele>778</ele>
        <time>2013-09-21T10:43:37Z</time>
      </trkpt>
      <trkpt lat="45.82983" lon="2.79377">
        <ele>776.40002441406</ele>
        <time>2013-09-21T10:43:40Z</time>
      </trkpt>
      <trkpt lat="45.82985" lon="2.79367">
        <ele>776</ele>
        <time>2013-09-21T10:43:42Z</time>
      </trkpt>
      <trkpt lat="45.82991" lon="2.79356">
        <ele>775.20001220703</ele>
        <time>2013-09-21T10:43:44Z</time>
      </trkpt>
      <trkpt lat="45.82994" lon="2.7935">
        <ele>774.59997558594</ele>
        <time>2013-09-21T10:43:45Z</time>
      </trkpt>
      <trkpt lat="45.83002" lon="2.79334">
        <ele>773.79998779297</ele>
        <time>2013-09-21T10:43:47Z</time>
      </trkpt>
      <trkpt lat="45.83006" lon="2.79325">
        <ele>773.20001220703</ele>
        <time>2013-09-21T10:43:48Z</time>
      </trkpt>
      <trkpt lat="45.8301" lon="2.79316">
        <ele>772.79998779297</ele>
        <time>2013-09-21T10:43:49Z</time>
      </trkpt>
      <trkpt lat="45.83014" lon="2.79308">
        <ele>772.20001220703</ele>
        <time>2013-09-21T10:43:50Z</time>
      </trkpt>
      <trkpt lat="45.83024" lon="2.79293">
        <ele>770.79998779297</ele>
        <time>2013-09-21T10:43:52Z</time>
      </trkpt>
      <trkpt lat="45.83028" lon="2.79285">
        <ele>770</ele>
        <time>2013-09-21T10:43:53Z</time>
      </trkpt>
      <trkpt lat="45.83031" lon="2.79277">
        <ele>769.20001220703</ele>
        <time>2013-09-21T10:43:54Z</time>
      </trkpt>
      <trkpt lat="45.83034" lon="2.79267">
        <ele>768.59997558594</ele>
        <time>2013-09-21T10:43:55Z</time>
      </trkpt>
      <trkpt lat="45.83036" lon="2.79258">
        <ele>767.79998779297</ele>
        <time>2013-09-21T10:43:56Z</time>
      </trkpt>
      <trkpt lat="45.83036" lon="2.79248">
        <ele>767.20001220703</ele>
        <time>2013-09-21T10:43:57Z</time>
      </trkpt>
      <trkpt lat="45.83036" lon="2.79237">
        <ele>766.40002441406</ele>
        <time>2013-09-21T10:43:58Z</time>
      </trkpt>
      <trkpt lat="45.83034" lon="2.79226">
        <ele>765.79998779297</ele>
        <time>2013-09-21T10:43:59Z</time>
      </trkpt>
      <trkpt lat="45.83033" lon="2.79217">
        <ele>765.20001220703</ele>
        <time>2013-09-21T10:44:00Z</time>
      </trkpt>
      <trkpt lat="45.83027" lon="2.79209">
        <ele>764.59997558594</ele>
        <time>2013-09-21T10:44:02Z</time>
      </trkpt>
      <trkpt lat="45.83018" lon="2.79212">
        <ele>764.59997558594</ele>
        <time>2013-09-21T10:44:04Z</time>
      </trkpt>
      <trkpt lat="45.83007" lon="2.79215">
        <ele>764.20001220703</ele>
        <time>2013-09-21T10:44:06Z</time>
      </trkpt>
      <trkpt lat="45.82996" lon="2.79212">
        <ele>763.40002441406</ele>
        <time>2013-09-21T10:44:08Z</time>
      </trkpt>
      <trkpt lat="45.82986" lon="2.79209">
        <ele>762.59997558594</ele>
        <time>2013-09-21T10:44:10Z</time>
      </trkpt>
      <trkpt lat="45.82957" lon="2.79207">
        <ele>762.59997558594</ele>
        <time>2013-09-21T10:44:16Z</time>
      </trkpt>
      <trkpt lat="45.82943" lon="2.79207">
        <ele>763</ele>
        <time>2013-09-21T10:44:20Z</time>
      </trkpt>
      <trkpt lat="45.82939" lon="2.79207">
        <ele>763.40002441406</ele>
        <time>2013-09-21T10:44:21Z</time>
      </trkpt>
      <trkpt lat="45.82929" lon="2.79207">
        <ele>764.59997558594</ele>
        <time>2013-09-21T10:44:24Z</time>
      </trkpt>
      <trkpt lat="45.82917" lon="2.79206">
        <ele>765.20001220703</ele>
        <time>2013-09-21T10:44:28Z</time>
      </trkpt>
      <trkpt lat="45.82909" lon="2.79205">
        <ele>766.79998779297</ele>
        <time>2013-09-21T10:44:32Z</time>
      </trkpt>
      <trkpt lat="45.82898" lon="2.79204">
        <ele>768.79998779297</ele>
        <time>2013-09-21T10:44:38Z</time>
      </trkpt>
      <trkpt lat="45.82889" lon="2.79205">
        <ele>769.79998779297</ele>
        <time>2013-09-21T10:44:42Z</time>
      </trkpt>
      <trkpt lat="45.8288" lon="2.79207">
        <ele>771</ele>
        <time>2013-09-21T10:44:45Z</time>
      </trkpt>
      <trkpt lat="45.8285" lon="2.79213">
        <ele>771</ele>
        <time>2013-09-21T10:44:55Z</time>
      </trkpt>
      <trkpt lat="45.82827" lon="2.79221">
        <ele>771</ele>
        <time>2013-09-21T10:45:02Z</time>
      </trkpt>
      <trkpt lat="45.82807" lon="2.79222">
        <ele>771.40002441406</ele>
        <time>2013-09-21T10:45:08Z</time>
      </trkpt>
      <trkpt lat="45.82798" lon="2.79222">
        <ele>772.79998779297</ele>
        <time>2013-09-21T10:45:11Z</time>
      </trkpt>
      <trkpt lat="45.82795" lon="2.7922">
        <ele>773.20001220703</ele>
        <time>2013-09-21T10:45:12Z</time>
      </trkpt>
      <trkpt lat="45.82783" lon="2.79218">
        <ele>773.20001220703</ele>
        <time>2013-09-21T10:45:16Z</time>
      </trkpt>
      <trkpt lat="45.82771" lon="2.79218">
        <ele>773.59997558594</ele>
        <time>2013-09-21T10:45:20Z</time>
      </trkpt>
      <trkpt lat="45.82767" lon="2.79218">
        <ele>774</ele>
        <time>2013-09-21T10:45:21Z</time>
      </trkpt>
      <trkpt lat="45.82758" lon="2.79218">
        <ele>775.20001220703</ele>
        <time>2013-09-21T10:45:24Z</time>
      </trkpt>
      <trkpt lat="45.82737" lon="2.79218">
        <ele>775.20001220703</ele>
        <time>2013-09-21T10:45:30Z</time>
      </trkpt>
      <trkpt lat="45.82713" lon="2.79219">
        <ele>775.20001220703</ele>
        <time>2013-09-21T10:45:36Z</time>
      </trkpt>
      <trkpt lat="45.82678" lon="2.79224">
        <ele>775.20001220703</ele>
        <time>2013-09-21T10:45:44Z</time>
      </trkpt>
      <trkpt lat="45.8266" lon="2.79231">
        <ele>775.59997558594</ele>
        <time>2013-09-21T10:45:49Z</time>
      </trkpt>
      <trkpt lat="45.8265" lon="2.79237">
        <ele>776.59997558594</ele>
        <time>2013-09-21T10:45:52Z</time>
      </trkpt>
      <trkpt lat="45.82644" lon="2.7924">
        <ele>777.40002441406</ele>
        <time>2013-09-21T10:45:54Z</time>
      </trkpt>
      <trkpt lat="45.82632" lon="2.79248">
        <ele>777.40002441406</ele>
        <time>2013-09-21T10:45:58Z</time>
      </trkpt>
      <trkpt lat="45.82616" lon="2.79257">
        <ele>777.79998779297</ele>
        <time>2013-09-21T10:46:03Z</time>
      </trkpt>
      <trkpt lat="45.8261" lon="2.7926">
        <ele>778.79998779297</ele>
        <time>2013-09-21T10:46:05Z</time>
      </trkpt>
      <trkpt lat="45.82586" lon="2.79269">
        <ele>779.59997558594</ele>
        <time>2013-09-21T10:46:11Z</time>
      </trkpt>
      <trkpt lat="45.8258" lon="2.7927">
        <ele>779.59997558594</ele>
        <time>2013-09-21T10:46:12Z</time>
      </trkpt>
      <trkpt lat="45.82567" lon="2.79265">
        <ele>779.59997558594</ele>
        <time>2013-09-21T10:46:15Z</time>
      </trkpt>
      <trkpt lat="45.82558" lon="2.79257">
        <ele>779.59997558594</ele>
        <time>2013-09-21T10:46:18Z</time>
      </trkpt>
      <trkpt lat="45.8255" lon="2.79248">
        <ele>779.59997558594</ele>
        <time>2013-09-21T10:46:21Z</time>
      </trkpt>
      <trkpt lat="45.82538" lon="2.7924">
        <ele>781</ele>
        <time>2013-09-21T10:46:25Z</time>
      </trkpt>
      <trkpt lat="45.82536" lon="2.79239">
        <ele>781.40002441406</ele>
        <time>2013-09-21T10:46:26Z</time>
      </trkpt>
      <trkpt lat="45.82523" lon="2.79227">
        <ele>782.20001220703</ele>
        <time>2013-09-21T10:46:32Z</time>
      </trkpt>
      <trkpt lat="45.8252" lon="2.79225">
        <ele>782.79998779297</ele>
        <time>2013-09-21T10:46:33Z</time>
      </trkpt>
      <trkpt lat="45.825" lon="2.79229">
        <ele>784.20001220703</ele>
        <time>2013-09-21T10:46:40Z</time>
      </trkpt>
      <trkpt lat="45.82498" lon="2.79234">
        <ele>784.20001220703</ele>
        <time>2013-09-21T10:46:41Z</time>
      </trkpt>
      <trkpt lat="45.82489" lon="2.79259">
        <ele>784.20001220703</ele>
        <time>2013-09-21T10:46:45Z</time>
      </trkpt>
      <trkpt lat="45.82481" lon="2.79267">
        <ele>784.20001220703</ele>
        <time>2013-09-21T10:46:47Z</time>
      </trkpt>
      <trkpt lat="45.82468" lon="2.79277">
        <ele>784.20001220703</ele>
        <time>2013-09-21T10:46:51Z</time>
      </trkpt>
      <trkpt lat="45.82441" lon="2.79289">
        <ele>784.20001220703</ele>
        <time>2013-09-21T10:46:59Z</time>
      </trkpt>
      <trkpt lat="45.82417" lon="2.79299">
        <ele>784.59997558594</ele>
        <time>2013-09-21T10:47:05Z</time>
      </trkpt>
      <trkpt lat="45.82413" lon="2.79302">
        <ele>785</ele>
        <time>2013-09-21T10:47:06Z</time>
      </trkpt>
      <trkpt lat="45.82409" lon="2.79305">
        <ele>785.40002441406</ele>
        <time>2013-09-21T10:47:07Z</time>
      </trkpt>
      <trkpt lat="45.82401" lon="2.79311">
        <ele>786.40002441406</ele>
        <time>2013-09-21T10:47:09Z</time>
      </trkpt>
      <trkpt lat="45.82376" lon="2.79318">
        <ele>786.40002441406</ele>
        <time>2013-09-21T10:47:15Z</time>
      </trkpt>
      <trkpt lat="45.82354" lon="2.79325">
        <ele>786.40002441406</ele>
        <time>2013-09-21T10:47:22Z</time>
      </trkpt>
      <trkpt lat="45.82349" lon="2.7933">
        <ele>786.40002441406</ele>
        <time>2013-09-21T10:47:23Z</time>
      </trkpt>
      <trkpt lat="45.82333" lon="2.79345">
        <ele>786.40002441406</ele>
        <time>2013-09-21T10:47:26Z</time>
      </trkpt>
      <trkpt lat="45.82303" lon="2.7936">
        <ele>786.40002441406</ele>
        <time>2013-09-21T10:47:30Z</time>
      </trkpt>
      <trkpt lat="45.82288" lon="2.79363">
        <ele>785.40002441406</ele>
        <time>2013-09-21T10:47:32Z</time>
      </trkpt>
      <trkpt lat="45.82275" lon="2.79363">
        <ele>784.59997558594</ele>
        <time>2013-09-21T10:47:34Z</time>
      </trkpt>
      <trkpt lat="45.82269" lon="2.79363">
        <ele>784.20001220703</ele>
        <time>2013-09-21T10:47:35Z</time>
      </trkpt>
      <trkpt lat="45.82229" lon="2.79367">
        <ele>784.59997558594</ele>
        <time>2013-09-21T10:47:42Z</time>
      </trkpt>
      <trkpt lat="45.82217" lon="2.79367">
        <ele>785.40002441406</ele>
        <time>2013-09-21T10:47:44Z</time>
      </trkpt>
      <trkpt lat="45.822" lon="2.79366">
        <ele>786.40002441406</ele>
        <time>2013-09-21T10:47:47Z</time>
      </trkpt>
      <trkpt lat="45.82196" lon="2.79365">
        <ele>786.40002441406</ele>
        <time>2013-09-21T10:47:48Z</time>
      </trkpt>
      <trkpt lat="45.82187" lon="2.79364">
        <ele>786.79998779297</ele>
        <time>2013-09-21T10:47:50Z</time>
      </trkpt>
      <trkpt lat="45.82179" lon="2.79362">
        <ele>787.59997558594</ele>
        <time>2013-09-21T10:47:52Z</time>
      </trkpt>
      <trkpt lat="45.82171" lon="2.79359">
        <ele>788.40002441406</ele>
        <time>2013-09-21T10:47:54Z</time>
      </trkpt>
      <trkpt lat="45.82168" lon="2.79359">
        <ele>788.40002441406</ele>
        <time>2013-09-21T10:47:55Z</time>
      </trkpt>
      <trkpt lat="45.82152" lon="2.79359">
        <ele>788.79998779297</ele>
        <time>2013-09-21T10:48:00Z</time>
      </trkpt>
      <trkpt lat="45.82149" lon="2.7936">
        <ele>789.40002441406</ele>
        <time>2013-09-21T10:48:01Z</time>
      </trkpt>
      <trkpt lat="45.8214" lon="2.79364">
        <ele>790.59997558594</ele>
        <time>2013-09-21T10:48:04Z</time>
      </trkpt>
      <trkpt lat="45.82127" lon="2.79364">
        <ele>790.59997558594</ele>
        <time>2013-09-21T10:48:08Z</time>
      </trkpt>
      <trkpt lat="45.82116" lon="2.79345">
        <ele>790.59997558594</ele>
        <time>2013-09-21T10:48:14Z</time>
      </trkpt>
      <trkpt lat="45.82112" lon="2.79339">
        <ele>791.79998779297</ele>
        <time>2013-09-21T10:48:17Z</time>
      </trkpt>
      <trkpt lat="45.8211" lon="2.79336">
        <ele>792.59997558594</ele>
        <time>2013-09-21T10:48:19Z</time>
      </trkpt>
      <trkpt lat="45.82106" lon="2.7933">
        <ele>793.79998779297</ele>
        <time>2013-09-21T10:48:24Z</time>
      </trkpt>
      <trkpt lat="45.82099" lon="2.79318">
        <ele>795</ele>
        <time>2013-09-21T10:48:31Z</time>
      </trkpt>
      <trkpt lat="45.82091" lon="2.79307">
        <ele>797.20001220703</ele>
        <time>2013-09-21T10:48:39Z</time>
      </trkpt>
      <trkpt lat="45.8209" lon="2.79303">
        <ele>798</ele>
        <time>2013-09-21T10:48:41Z</time>
      </trkpt>
      <trkpt lat="45.82089" lon="2.79299">
        <ele>799</ele>
        <time>2013-09-21T10:48:43Z</time>
      </trkpt>
      <trkpt lat="45.82086" lon="2.79282">
        <ele>799.40002441406</ele>
        <time>2013-09-21T10:48:51Z</time>
      </trkpt>
      <trkpt lat="45.82086" lon="2.79279">
        <ele>799.79998779297</ele>
        <time>2013-09-21T10:48:52Z</time>
      </trkpt>
      <trkpt lat="45.82083" lon="2.79267">
        <ele>801.20001220703</ele>
        <time>2013-09-21T10:48:57Z</time>
      </trkpt>
      <trkpt lat="45.82082" lon="2.79259">
        <ele>801.79998779297</ele>
        <time>2013-09-21T10:49:01Z</time>
      </trkpt>
      <trkpt lat="45.82079" lon="2.79247">
        <ele>803.40002441406</ele>
        <time>2013-09-21T10:49:08Z</time>
      </trkpt>
      <trkpt lat="45.82077" lon="2.79239">
        <ele>804.20001220703</ele>
        <time>2013-09-21T10:49:12Z</time>
      </trkpt>
      <trkpt lat="45.82076" lon="2.79224">
        <ele>805.40002441406</ele>
        <time>2013-09-21T10:49:19Z</time>
      </trkpt>
      <trkpt lat="45.82075" lon="2.7922">
        <ele>805.79998779297</ele>
        <time>2013-09-21T10:49:21Z</time>
      </trkpt>
      <trkpt lat="45.82074" lon="2.79204">
        <ele>808</ele>
        <time>2013-09-21T10:49:29Z</time>
      </trkpt>
      <trkpt lat="45.82074" lon="2.792">
        <ele>808.79998779297</ele>
        <time>2013-09-21T10:49:31Z</time>
      </trkpt>
      <trkpt lat="45.82074" lon="2.79185">
        <ele>810</ele>
        <time>2013-09-21T10:49:38Z</time>
      </trkpt>
      <trkpt lat="45.82074" lon="2.79179">
        <ele>811.20001220703</ele>
        <time>2013-09-21T10:49:41Z</time>
      </trkpt>
      <trkpt lat="45.82074" lon="2.79159">
        <ele>812</ele>
        <time>2013-09-21T10:49:49Z</time>
      </trkpt>
      <trkpt lat="45.82074" lon="2.79147">
        <ele>813.59997558594</ele>
        <time>2013-09-21T10:49:53Z</time>
      </trkpt>
      <trkpt lat="45.82074" lon="2.7913">
        <ele>814</ele>
        <time>2013-09-21T10:50:00Z</time>
      </trkpt>
      <trkpt lat="45.82073" lon="2.79119">
        <ele>815.59997558594</ele>
        <time>2013-09-21T10:50:04Z</time>
      </trkpt>
      <trkpt lat="45.82071" lon="2.79098">
        <ele>815.59997558594</ele>
        <time>2013-09-21T10:50:12Z</time>
      </trkpt>
      <trkpt lat="45.8207" lon="2.79092">
        <ele>816.40002441406</ele>
        <time>2013-09-21T10:50:14Z</time>
      </trkpt>
      <trkpt lat="45.82069" lon="2.7909">
        <ele>816.79998779297</ele>
        <time>2013-09-21T10:50:15Z</time>
      </trkpt>
      <trkpt lat="45.82065" lon="2.79078">
        <ele>817.59997558594</ele>
        <time>2013-09-21T10:50:19Z</time>
      </trkpt>
      <trkpt lat="45.82058" lon="2.79054">
        <ele>817.59997558594</ele>
        <time>2013-09-21T10:50:26Z</time>
      </trkpt>
      <trkpt lat="45.82053" lon="2.79037">
        <ele>818</ele>
        <time>2013-09-21T10:50:31Z</time>
      </trkpt>
      <trkpt lat="45.8205" lon="2.79027">
        <ele>819.40002441406</ele>
        <time>2013-09-21T10:50:34Z</time>
      </trkpt>
      <trkpt lat="45.82049" lon="2.79023">
        <ele>819.79998779297</ele>
        <time>2013-09-21T10:50:35Z</time>
      </trkpt>
      <trkpt lat="45.8204" lon="2.78996">
        <ele>819.79998779297</ele>
        <time>2013-09-21T10:50:43Z</time>
      </trkpt>
      <trkpt lat="45.82034" lon="2.78979">
        <ele>820.20001220703</ele>
        <time>2013-09-21T10:50:48Z</time>
      </trkpt>
      <trkpt lat="45.8203" lon="2.78969">
        <ele>821.59997558594</ele>
        <time>2013-09-21T10:50:51Z</time>
      </trkpt>
      <trkpt lat="45.82029" lon="2.78966">
        <ele>822</ele>
        <time>2013-09-21T10:50:52Z</time>
      </trkpt>
      <trkpt lat="45.82023" lon="2.78947">
        <ele>822.40002441406</ele>
        <time>2013-09-21T10:50:58Z</time>
      </trkpt>
      <trkpt lat="45.8202" lon="2.7894">
        <ele>823.40002441406</ele>
        <time>2013-09-21T10:51:00Z</time>
      </trkpt>
      <trkpt lat="45.82019" lon="2.78937">
        <ele>823.79998779297</ele>
        <time>2013-09-21T10:51:01Z</time>
      </trkpt>
      <trkpt lat="45.82014" lon="2.78923">
        <ele>824.20001220703</ele>
        <time>2013-09-21T10:51:05Z</time>
      </trkpt>
      <trkpt lat="45.82003" lon="2.78895">
        <ele>824.79998779297</ele>
        <time>2013-09-21T10:51:14Z</time>
      </trkpt>
      <trkpt lat="45.82001" lon="2.78889">
        <ele>825.59997558594</ele>
        <time>2013-09-21T10:51:16Z</time>
      </trkpt>
      <trkpt lat="45.82" lon="2.78886">
        <ele>826</ele>
        <time>2013-09-21T10:51:17Z</time>
      </trkpt>
      <trkpt lat="45.81989" lon="2.78855">
        <ele>826.79998779297</ele>
        <time>2013-09-21T10:51:25Z</time>
      </trkpt>
      <trkpt lat="45.81986" lon="2.78847">
        <ele>827.59997558594</ele>
        <time>2013-09-21T10:51:27Z</time>
      </trkpt>
      <trkpt lat="45.81984" lon="2.78839">
        <ele>828.59997558594</ele>
        <time>2013-09-21T10:51:29Z</time>
      </trkpt>
      <trkpt lat="45.81974" lon="2.78807">
        <ele>828.59997558594</ele>
        <time>2013-09-21T10:51:37Z</time>
      </trkpt>
      <trkpt lat="45.81962" lon="2.78763">
        <ele>829</ele>
        <time>2013-09-21T10:51:47Z</time>
      </trkpt>
      <trkpt lat="45.8196" lon="2.78758">
        <ele>829.40002441406</ele>
        <time>2013-09-21T10:51:48Z</time>
      </trkpt>
      <trkpt lat="45.81959" lon="2.78753">
        <ele>829.79998779297</ele>
        <time>2013-09-21T10:51:49Z</time>
      </trkpt>
      <trkpt lat="45.81958" lon="2.78749">
        <ele>830.20001220703</ele>
        <time>2013-09-21T10:51:50Z</time>
      </trkpt>
      <trkpt lat="45.81951" lon="2.78732">
        <ele>830.59997558594</ele>
        <time>2013-09-21T10:51:54Z</time>
      </trkpt>
      <trkpt lat="45.81933" lon="2.78679">
        <ele>830.59997558594</ele>
        <time>2013-09-21T10:52:06Z</time>
      </trkpt>
      <trkpt lat="45.81929" lon="2.78663">
        <ele>831</ele>
        <time>2013-09-21T10:52:10Z</time>
      </trkpt>
      <trkpt lat="45.81927" lon="2.78659">
        <ele>831.40002441406</ele>
        <time>2013-09-21T10:52:11Z</time>
      </trkpt>
      <trkpt lat="45.81923" lon="2.78648">
        <ele>832.79998779297</ele>
        <time>2013-09-21T10:52:14Z</time>
      </trkpt>
      <trkpt lat="45.81915" lon="2.78619">
        <ele>833.20001220703</ele>
        <time>2013-09-21T10:52:22Z</time>
      </trkpt>
      <trkpt lat="45.81913" lon="2.78607">
        <ele>834.40002441406</ele>
        <time>2013-09-21T10:52:25Z</time>
      </trkpt>
      <trkpt lat="45.81908" lon="2.7859">
        <ele>834.79998779297</ele>
        <time>2013-09-21T10:52:30Z</time>
      </trkpt>
      <trkpt lat="45.81904" lon="2.78583">
        <ele>834.79998779297</ele>
        <time>2013-09-21T10:52:32Z</time>
      </trkpt>
      <trkpt lat="45.81898" lon="2.78572">
        <ele>835.20001220703</ele>
        <time>2013-09-21T10:52:35Z</time>
      </trkpt>
      <trkpt lat="45.81897" lon="2.78568">
        <ele>835.59997558594</ele>
        <time>2013-09-21T10:52:36Z</time>
      </trkpt>
      <trkpt lat="45.81895" lon="2.7856">
        <ele>836.40002441406</ele>
        <time>2013-09-21T10:52:38Z</time>
      </trkpt>
      <trkpt lat="45.81886" lon="2.78535">
        <ele>837</ele>
        <time>2013-09-21T10:52:45Z</time>
      </trkpt>
      <trkpt lat="45.81883" lon="2.78526">
        <ele>837.40002441406</ele>
        <time>2013-09-21T10:52:48Z</time>
      </trkpt>
      <trkpt lat="45.81881" lon="2.78518">
        <ele>838.59997558594</ele>
        <time>2013-09-21T10:52:51Z</time>
      </trkpt>
      <trkpt lat="45.81879" lon="2.78514">
        <ele>839</ele>
        <time>2013-09-21T10:52:52Z</time>
      </trkpt>
      <trkpt lat="45.81871" lon="2.78494">
        <ele>839.40002441406</ele>
        <time>2013-09-21T10:52:59Z</time>
      </trkpt>
      <trkpt lat="45.81869" lon="2.78487">
        <ele>840</ele>
        <time>2013-09-21T10:53:02Z</time>
      </trkpt>
      <trkpt lat="45.81864" lon="2.78473">
        <ele>841.20001220703</ele>
        <time>2013-09-21T10:53:08Z</time>
      </trkpt>
      <trkpt lat="45.8186" lon="2.78463">
        <ele>841.59997558594</ele>
        <time>2013-09-21T10:53:12Z</time>
      </trkpt>
      <trkpt lat="45.81858" lon="2.78457">
        <ele>842.40002441406</ele>
        <time>2013-09-21T10:53:14Z</time>
      </trkpt>
      <trkpt lat="45.81848" lon="2.78434">
        <ele>843.20001220703</ele>
        <time>2013-09-21T10:53:22Z</time>
      </trkpt>
      <trkpt lat="45.81841" lon="2.78415">
        <ele>843.20001220703</ele>
        <time>2013-09-21T10:53:28Z</time>
      </trkpt>
      <trkpt lat="45.81833" lon="2.78393">
        <ele>843.20001220703</ele>
        <time>2013-09-21T10:53:34Z</time>
      </trkpt>
      <trkpt lat="45.81832" lon="2.78388">
        <ele>844</ele>
        <time>2013-09-21T10:53:36Z</time>
      </trkpt>
      <trkpt lat="45.81829" lon="2.78381">
        <ele>844.79998779297</ele>
        <time>2013-09-21T10:53:38Z</time>
      </trkpt>
      <trkpt lat="45.81829" lon="2.78378">
        <ele>845.20001220703</ele>
        <time>2013-09-21T10:53:39Z</time>
      </trkpt>
      <trkpt lat="45.81815" lon="2.78354">
        <ele>845.20001220703</ele>
        <time>2013-09-21T10:53:47Z</time>
      </trkpt>
      <trkpt lat="45.8181" lon="2.78343">
        <ele>845.20001220703</ele>
        <time>2013-09-21T10:53:52Z</time>
      </trkpt>
      <trkpt lat="45.81798" lon="2.78317">
        <ele>845.20001220703</ele>
        <time>2013-09-21T10:54:00Z</time>
      </trkpt>
      <trkpt lat="45.81789" lon="2.78297">
        <ele>845.59997558594</ele>
        <time>2013-09-21T10:54:04Z</time>
      </trkpt>
      <trkpt lat="45.81783" lon="2.78288">
        <ele>846.59997558594</ele>
        <time>2013-09-21T10:54:06Z</time>
      </trkpt>
      <trkpt lat="45.81778" lon="2.78281">
        <ele>847.40002441406</ele>
        <time>2013-09-21T10:54:08Z</time>
      </trkpt>
      <trkpt lat="45.81775" lon="2.78266">
        <ele>847.40002441406</ele>
        <time>2013-09-21T10:54:11Z</time>
      </trkpt>
      <trkpt lat="45.81787" lon="2.78246">
        <ele>847.40002441406</ele>
        <time>2013-09-21T10:54:16Z</time>
      </trkpt>
      <trkpt lat="45.81813" lon="2.78217">
        <ele>847.40002441406</ele>
        <time>2013-09-21T10:54:24Z</time>
      </trkpt>
      <trkpt lat="45.81848" lon="2.78192">
        <ele>847.40002441406</ele>
        <time>2013-09-21T10:54:33Z</time>
      </trkpt>
      <trkpt lat="45.81864" lon="2.78177">
        <ele>847.79998779297</ele>
        <time>2013-09-21T10:54:38Z</time>
      </trkpt>
      <trkpt lat="45.8187" lon="2.78169">
        <ele>848.59997558594</ele>
        <time>2013-09-21T10:54:40Z</time>
      </trkpt>
      <trkpt lat="45.81873" lon="2.78164">
        <ele>849.20001220703</ele>
        <time>2013-09-21T10:54:41Z</time>
      </trkpt>
      <trkpt lat="45.81876" lon="2.7816">
        <ele>849.59997558594</ele>
        <time>2013-09-21T10:54:42Z</time>
      </trkpt>
      <trkpt lat="45.81896" lon="2.78124">
        <ele>849.59997558594</ele>
        <time>2013-09-21T10:54:48Z</time>
      </trkpt>
      <trkpt lat="45.81917" lon="2.7809">
        <ele>849</ele>
        <time>2013-09-21T10:54:53Z</time>
      </trkpt>
      <trkpt lat="45.81922" lon="2.78084">
        <ele>848.59997558594</ele>
        <time>2013-09-21T10:54:54Z</time>
      </trkpt>
      <trkpt lat="45.81927" lon="2.78076">
        <ele>848.20001220703</ele>
        <time>2013-09-21T10:54:55Z</time>
      </trkpt>
      <trkpt lat="45.81932" lon="2.78068">
        <ele>847.79998779297</ele>
        <time>2013-09-21T10:54:56Z</time>
      </trkpt>
      <trkpt lat="45.81942" lon="2.78052">
        <ele>846.79998779297</ele>
        <time>2013-09-21T10:54:58Z</time>
      </trkpt>
      <trkpt lat="45.81946" lon="2.78042">
        <ele>846.40002441406</ele>
        <time>2013-09-21T10:54:59Z</time>
      </trkpt>
      <trkpt lat="45.8195" lon="2.78033">
        <ele>845.79998779297</ele>
        <time>2013-09-21T10:55:00Z</time>
      </trkpt>
      <trkpt lat="45.81955" lon="2.78023">
        <ele>845.40002441406</ele>
        <time>2013-09-21T10:55:01Z</time>
      </trkpt>
      <trkpt lat="45.81958" lon="2.78013">
        <ele>844.79998779297</ele>
        <time>2013-09-21T10:55:02Z</time>
      </trkpt>
      <trkpt lat="45.8197" lon="2.77983">
        <ele>844.40002441406</ele>
        <time>2013-09-21T10:55:05Z</time>
      </trkpt>
      <trkpt lat="45.81975" lon="2.77974">
        <ele>844</ele>
        <time>2013-09-21T10:55:06Z</time>
      </trkpt>
      <trkpt lat="45.81979" lon="2.77965">
        <ele>843.59997558594</ele>
        <time>2013-09-21T10:55:07Z</time>
      </trkpt>
      <trkpt lat="45.81985" lon="2.77957">
        <ele>843.20001220703</ele>
        <time>2013-09-21T10:55:08Z</time>
      </trkpt>
      <trkpt lat="45.81992" lon="2.7795">
        <ele>842.79998779297</ele>
        <time>2013-09-21T10:55:09Z</time>
      </trkpt>
      <trkpt lat="45.81998" lon="2.77944">
        <ele>842.20001220703</ele>
        <time>2013-09-21T10:55:10Z</time>
      </trkpt>
      <trkpt lat="45.82005" lon="2.77939">
        <ele>841.79998779297</ele>
        <time>2013-09-21T10:55:11Z</time>
      </trkpt>
      <trkpt lat="45.82011" lon="2.77934">
        <ele>841.20001220703</ele>
        <time>2013-09-21T10:55:12Z</time>
      </trkpt>
      <trkpt lat="45.82014" lon="2.77929">
        <ele>840.59997558594</ele>
        <time>2013-09-21T10:55:13Z</time>
      </trkpt>
      <trkpt lat="45.82018" lon="2.77919">
        <ele>839.40002441406</ele>
        <time>2013-09-21T10:55:15Z</time>
      </trkpt>
      <trkpt lat="45.82016" lon="2.77908">
        <ele>838.20001220703</ele>
        <time>2013-09-21T10:55:17Z</time>
      </trkpt>
      <trkpt lat="45.8201" lon="2.77902">
        <ele>838.20001220703</ele>
        <time>2013-09-21T10:55:19Z</time>
      </trkpt>
      <trkpt lat="45.82007" lon="2.77899">
        <ele>838.20001220703</ele>
        <time>2013-09-21T10:55:20Z</time>
      </trkpt>
      <trkpt lat="45.81997" lon="2.77881">
        <ele>838.20001220703</ele>
        <time>2013-09-21T10:55:24Z</time>
      </trkpt>
      <trkpt lat="45.81991" lon="2.77869">
        <ele>838.20001220703</ele>
        <time>2013-09-21T10:55:26Z</time>
      </trkpt>
      <trkpt lat="45.81974" lon="2.77827">
        <ele>838.20001220703</ele>
        <time>2013-09-21T10:55:32Z</time>
      </trkpt>
      <trkpt lat="45.81963" lon="2.77798">
        <ele>838.20001220703</ele>
        <time>2013-09-21T10:55:36Z</time>
      </trkpt>
      <trkpt lat="45.81954" lon="2.77785">
        <ele>838.20001220703</ele>
        <time>2013-09-21T10:55:38Z</time>
      </trkpt>
      <trkpt lat="45.81936" lon="2.77772">
        <ele>838.20001220703</ele>
        <time>2013-09-21T10:55:42Z</time>
      </trkpt>
      <trkpt lat="45.81931" lon="2.77769">
        <ele>838.20001220703</ele>
        <time>2013-09-21T10:55:43Z</time>
      </trkpt>
      <trkpt lat="45.81902" lon="2.77743">
        <ele>838.20001220703</ele>
        <time>2013-09-21T10:55:50Z</time>
      </trkpt>
      <trkpt lat="45.81872" lon="2.77699">
        <ele>838.20001220703</ele>
        <time>2013-09-21T10:55:58Z</time>
      </trkpt>
      <trkpt lat="45.81844" lon="2.77649">
        <ele>838.20001220703</ele>
        <time>2013-09-21T10:56:05Z</time>
      </trkpt>
      <trkpt lat="45.81827" lon="2.77611">
        <ele>837.79998779297</ele>
        <time>2013-09-21T10:56:09Z</time>
      </trkpt>
      <trkpt lat="45.81823" lon="2.776">
        <ele>837.40002441406</ele>
        <time>2013-09-21T10:56:10Z</time>
      </trkpt>
      <trkpt lat="45.81819" lon="2.77589">
        <ele>836.79998779297</ele>
        <time>2013-09-21T10:56:11Z</time>
      </trkpt>
      <trkpt lat="45.81814" lon="2.77577">
        <ele>836.20001220703</ele>
        <time>2013-09-21T10:56:12Z</time>
      </trkpt>
      <trkpt lat="45.81808" lon="2.77565">
        <ele>835.59997558594</ele>
        <time>2013-09-21T10:56:13Z</time>
      </trkpt>
      <trkpt lat="45.81802" lon="2.77553">
        <ele>834.79998779297</ele>
        <time>2013-09-21T10:56:14Z</time>
      </trkpt>
      <trkpt lat="45.81795" lon="2.77541">
        <ele>834</ele>
        <time>2013-09-21T10:56:15Z</time>
      </trkpt>
      <trkpt lat="45.81788" lon="2.7753">
        <ele>833</ele>
        <time>2013-09-21T10:56:16Z</time>
      </trkpt>
      <trkpt lat="45.8178" lon="2.77519">
        <ele>832.20001220703</ele>
        <time>2013-09-21T10:56:17Z</time>
      </trkpt>
      <trkpt lat="45.81772" lon="2.77508">
        <ele>831.40002441406</ele>
        <time>2013-09-21T10:56:18Z</time>
      </trkpt>
      <trkpt lat="45.81763" lon="2.77497">
        <ele>830.40002441406</ele>
        <time>2013-09-21T10:56:19Z</time>
      </trkpt>
      <trkpt lat="45.81755" lon="2.77486">
        <ele>829.40002441406</ele>
        <time>2013-09-21T10:56:20Z</time>
      </trkpt>
      <trkpt lat="45.81746" lon="2.77476">
        <ele>828.59997558594</ele>
        <time>2013-09-21T10:56:21Z</time>
      </trkpt>
      <trkpt lat="45.81736" lon="2.77466">
        <ele>827.59997558594</ele>
        <time>2013-09-21T10:56:22Z</time>
      </trkpt>
      <trkpt lat="45.81728" lon="2.77458">
        <ele>826.59997558594</ele>
        <time>2013-09-21T10:56:23Z</time>
      </trkpt>
      <trkpt lat="45.81717" lon="2.77457">
        <ele>825.79998779297</ele>
        <time>2013-09-21T10:56:24Z</time>
      </trkpt>
      <trkpt lat="45.81709" lon="2.77457">
        <ele>824.79998779297</ele>
        <time>2013-09-21T10:56:25Z</time>
      </trkpt>
      <trkpt lat="45.81686" lon="2.77464">
        <ele>824.79998779297</ele>
        <time>2013-09-21T10:56:28Z</time>
      </trkpt>
      <trkpt lat="45.81644" lon="2.77475">
        <ele>824.79998779297</ele>
        <time>2013-09-21T10:56:34Z</time>
      </trkpt>
      <trkpt lat="45.81598" lon="2.77489">
        <ele>824.79998779297</ele>
        <time>2013-09-21T10:56:40Z</time>
      </trkpt>
      <trkpt lat="45.81556" lon="2.77503">
        <ele>824.40002441406</ele>
        <time>2013-09-21T10:56:45Z</time>
      </trkpt>
      <trkpt lat="45.81549" lon="2.77505">
        <ele>824</ele>
        <time>2013-09-21T10:56:46Z</time>
      </trkpt>
      <trkpt lat="45.81532" lon="2.77511">
        <ele>823</ele>
        <time>2013-09-21T10:56:48Z</time>
      </trkpt>
      <trkpt lat="45.81524" lon="2.77514">
        <ele>822.59997558594</ele>
        <time>2013-09-21T10:56:49Z</time>
      </trkpt>
      <trkpt lat="45.81507" lon="2.77519">
        <ele>822.20001220703</ele>
        <time>2013-09-21T10:56:51Z</time>
      </trkpt>
      <trkpt lat="45.81499" lon="2.77521">
        <ele>821.79998779297</ele>
        <time>2013-09-21T10:56:52Z</time>
      </trkpt>
      <trkpt lat="45.81484" lon="2.77527">
        <ele>820.79998779297</ele>
        <time>2013-09-21T10:56:54Z</time>
      </trkpt>
      <trkpt lat="45.81477" lon="2.7753">
        <ele>820.40002441406</ele>
        <time>2013-09-21T10:56:55Z</time>
      </trkpt>
      <trkpt lat="45.81443" lon="2.77547">
        <ele>820.40002441406</ele>
        <time>2013-09-21T10:57:00Z</time>
      </trkpt>
      <trkpt lat="45.81422" lon="2.77556">
        <ele>820</ele>
        <time>2013-09-21T10:57:03Z</time>
      </trkpt>
      <trkpt lat="45.81414" lon="2.77557">
        <ele>819.59997558594</ele>
        <time>2013-09-21T10:57:04Z</time>
      </trkpt>
      <trkpt lat="45.81406" lon="2.77556">
        <ele>819.20001220703</ele>
        <time>2013-09-21T10:57:05Z</time>
      </trkpt>
      <trkpt lat="45.81396" lon="2.77554">
        <ele>818.40002441406</ele>
        <time>2013-09-21T10:57:06Z</time>
      </trkpt>
      <trkpt lat="45.81387" lon="2.77552">
        <ele>817.59997558594</ele>
        <time>2013-09-21T10:57:07Z</time>
      </trkpt>
      <trkpt lat="45.81376" lon="2.7755">
        <ele>816.59997558594</ele>
        <time>2013-09-21T10:57:08Z</time>
      </trkpt>
      <trkpt lat="45.81367" lon="2.77547">
        <ele>815.79998779297</ele>
        <time>2013-09-21T10:57:09Z</time>
      </trkpt>
      <trkpt lat="45.81357" lon="2.77545">
        <ele>815</ele>
        <time>2013-09-21T10:57:10Z</time>
      </trkpt>
      <trkpt lat="45.81334" lon="2.77542">
        <ele>815</ele>
        <time>2013-09-21T10:57:13Z</time>
      </trkpt>
      <trkpt lat="45.81323" lon="2.77547">
        <ele>815</ele>
        <time>2013-09-21T10:57:15Z</time>
      </trkpt>
      <trkpt lat="45.8132" lon="2.7755">
        <ele>815</ele>
        <time>2013-09-21T10:57:16Z</time>
      </trkpt>
      <trkpt lat="45.8131" lon="2.77556">
        <ele>816</ele>
        <time>2013-09-21T10:57:18Z</time>
      </trkpt>
      <trkpt lat="45.81301" lon="2.7756">
        <ele>816.79998779297</ele>
        <time>2013-09-21T10:57:20Z</time>
      </trkpt>
      <trkpt lat="45.81298" lon="2.77561">
        <ele>817.20001220703</ele>
        <time>2013-09-21T10:57:21Z</time>
      </trkpt>
      <trkpt lat="45.81289" lon="2.77561">
        <ele>817.20001220703</ele>
        <time>2013-09-21T10:57:23Z</time>
      </trkpt>
      <trkpt lat="45.81277" lon="2.77559">
        <ele>817.20001220703</ele>
        <time>2013-09-21T10:57:26Z</time>
      </trkpt>
      <trkpt lat="45.81264" lon="2.77561">
        <ele>817.20001220703</ele>
        <time>2013-09-21T10:57:29Z</time>
      </trkpt>
      <trkpt lat="45.81248" lon="2.77562">
        <ele>817.20001220703</ele>
        <time>2013-09-21T10:57:32Z</time>
      </trkpt>
      <trkpt lat="45.81218" lon="2.77566">
        <ele>817.20001220703</ele>
        <time>2013-09-21T10:57:37Z</time>
      </trkpt>
      <trkpt lat="45.81179" lon="2.77556">
        <ele>817.20001220703</ele>
        <time>2013-09-21T10:57:44Z</time>
      </trkpt>
      <trkpt lat="45.81144" lon="2.77549">
        <ele>817.20001220703</ele>
        <time>2013-09-21T10:57:50Z</time>
      </trkpt>
      <trkpt lat="45.81135" lon="2.77548">
        <ele>817.20001220703</ele>
        <time>2013-09-21T10:57:52Z</time>
      </trkpt>
      <trkpt lat="45.81126" lon="2.77546">
        <ele>817.59997558594</ele>
        <time>2013-09-21T10:57:54Z</time>
      </trkpt>
      <trkpt lat="45.81114" lon="2.77545">
        <ele>818.79998779297</ele>
        <time>2013-09-21T10:57:57Z</time>
      </trkpt>
      <trkpt lat="45.81106" lon="2.77545">
        <ele>819.20001220703</ele>
        <time>2013-09-21T10:57:59Z</time>
      </trkpt>
      <trkpt lat="45.81098" lon="2.77545">
        <ele>819.20001220703</ele>
        <time>2013-09-21T10:58:01Z</time>
      </trkpt>
      <trkpt lat="45.81075" lon="2.77544">
        <ele>819.20001220703</ele>
        <time>2013-09-21T10:58:09Z</time>
      </trkpt>
      <trkpt lat="45.81063" lon="2.77544">
        <ele>819.59997558594</ele>
        <time>2013-09-21T10:58:13Z</time>
      </trkpt>
      <trkpt lat="45.8106" lon="2.77544">
        <ele>820</ele>
        <time>2013-09-21T10:58:14Z</time>
      </trkpt>
      <trkpt lat="45.81049" lon="2.77543">
        <ele>821</ele>
        <time>2013-09-21T10:58:17Z</time>
      </trkpt>
      <trkpt lat="45.81028" lon="2.77539">
        <ele>821.40002441406</ele>
        <time>2013-09-21T10:58:23Z</time>
      </trkpt>
      <trkpt lat="45.81011" lon="2.7753">
        <ele>821.40002441406</ele>
        <time>2013-09-21T10:58:28Z</time>
      </trkpt>
      <trkpt lat="45.80986" lon="2.77517">
        <ele>821.40002441406</ele>
        <time>2013-09-21T10:58:34Z</time>
      </trkpt>
      <trkpt lat="45.80952" lon="2.775">
        <ele>821.40002441406</ele>
        <time>2013-09-21T10:58:43Z</time>
      </trkpt>
      <trkpt lat="45.80934" lon="2.77491">
        <ele>821.79998779297</ele>
        <time>2013-09-21T10:58:48Z</time>
      </trkpt>
      <trkpt lat="45.80931" lon="2.7749">
        <ele>822.20001220703</ele>
        <time>2013-09-21T10:58:49Z</time>
      </trkpt>
      <trkpt lat="45.80928" lon="2.77488">
        <ele>822.59997558594</ele>
        <time>2013-09-21T10:58:50Z</time>
      </trkpt>
      <trkpt lat="45.80906" lon="2.77477">
        <ele>823.40002441406</ele>
        <time>2013-09-21T10:58:57Z</time>
      </trkpt>
      <trkpt lat="45.80895" lon="2.77473">
        <ele>823.79998779297</ele>
        <time>2013-09-21T10:59:00Z</time>
      </trkpt>
      <trkpt lat="45.80889" lon="2.77471">
        <ele>824.79998779297</ele>
        <time>2013-09-21T10:59:02Z</time>
      </trkpt>
      <trkpt lat="45.80886" lon="2.7747">
        <ele>825.20001220703</ele>
        <time>2013-09-21T10:59:03Z</time>
      </trkpt>
      <trkpt lat="45.80863" lon="2.77462">
        <ele>825.59997558594</ele>
        <time>2013-09-21T10:59:10Z</time>
      </trkpt>
      <trkpt lat="45.80858" lon="2.77462">
        <ele>826</ele>
        <time>2013-09-21T10:59:12Z</time>
      </trkpt>
      <trkpt lat="45.80849" lon="2.77463">
        <ele>827.20001220703</ele>
        <time>2013-09-21T10:59:15Z</time>
      </trkpt>
      <trkpt lat="45.80822" lon="2.77455">
        <ele>827.59997558594</ele>
        <time>2013-09-21T10:59:23Z</time>
      </trkpt>
      <trkpt lat="45.80798" lon="2.77438">
        <ele>827.59997558594</ele>
        <time>2013-09-21T10:59:29Z</time>
      </trkpt>
      <trkpt lat="45.80783" lon="2.77423">
        <ele>827.59997558594</ele>
        <time>2013-09-21T10:59:34Z</time>
      </trkpt>
      <trkpt lat="45.80769" lon="2.7741">
        <ele>827.59997558594</ele>
        <time>2013-09-21T10:59:41Z</time>
      </trkpt>
      <trkpt lat="45.80767" lon="2.77408">
        <ele>828</ele>
        <time>2013-09-21T10:59:43Z</time>
      </trkpt>
      <trkpt lat="45.80759" lon="2.77399">
        <ele>829.79998779297</ele>
        <time>2013-09-21T10:59:48Z</time>
      </trkpt>
      <trkpt lat="45.80752" lon="2.77389">
        <ele>830.59997558594</ele>
        <time>2013-09-21T10:59:54Z</time>
      </trkpt>
      <trkpt lat="45.8075" lon="2.77387">
        <ele>831.40002441406</ele>
        <time>2013-09-21T10:59:56Z</time>
      </trkpt>
      <trkpt lat="45.80738" lon="2.77378">
        <ele>831.79998779297</ele>
        <time>2013-09-21T11:00:03Z</time>
      </trkpt>
      <trkpt lat="45.80729" lon="2.77372">
        <ele>834</ele>
        <time>2013-09-21T11:00:10Z</time>
      </trkpt>
      <trkpt lat="45.80723" lon="2.77367">
        <ele>834.40002441406</ele>
        <time>2013-09-21T11:00:14Z</time>
      </trkpt>
      <trkpt lat="45.8072" lon="2.77363">
        <ele>835.40002441406</ele>
        <time>2013-09-21T11:00:16Z</time>
      </trkpt>
      <trkpt lat="45.80716" lon="2.77359">
        <ele>836.20001220703</ele>
        <time>2013-09-21T11:00:18Z</time>
      </trkpt>
      <trkpt lat="45.80706" lon="2.77346">
        <ele>836.59997558594</ele>
        <time>2013-09-21T11:00:25Z</time>
      </trkpt>
      <trkpt lat="45.80695" lon="2.77334">
        <ele>838.40002441406</ele>
        <time>2013-09-21T11:00:33Z</time>
      </trkpt>
      <trkpt lat="45.80689" lon="2.77332">
        <ele>840</ele>
        <time>2013-09-21T11:00:37Z</time>
      </trkpt>
      <trkpt lat="45.80674" lon="2.77337">
        <ele>840.40002441406</ele>
        <time>2013-09-21T11:00:45Z</time>
      </trkpt>
      <trkpt lat="45.80672" lon="2.7734">
        <ele>840.40002441406</ele>
        <time>2013-09-21T11:00:47Z</time>
      </trkpt>
      <trkpt lat="45.8067" lon="2.77344">
        <ele>840.79998779297</ele>
        <time>2013-09-21T11:00:49Z</time>
      </trkpt>
      <trkpt lat="45.80652" lon="2.77361">
        <ele>842.79998779297</ele>
        <time>2013-09-21T11:01:01Z</time>
      </trkpt>
      <trkpt lat="45.8065" lon="2.77364">
        <ele>843.59997558594</ele>
        <time>2013-09-21T11:01:03Z</time>
      </trkpt>
      <trkpt lat="45.80639" lon="2.77371">
        <ele>845.40002441406</ele>
        <time>2013-09-21T11:01:12Z</time>
      </trkpt>
      <trkpt lat="45.80618" lon="2.77387">
        <ele>847</ele>
        <time>2013-09-21T11:01:22Z</time>
      </trkpt>
      <trkpt lat="45.80613" lon="2.7739">
        <ele>848</ele>
        <time>2013-09-21T11:01:24Z</time>
      </trkpt>
      <trkpt lat="45.80609" lon="2.77394">
        <ele>848.79998779297</ele>
        <time>2013-09-21T11:01:26Z</time>
      </trkpt>
      <trkpt lat="45.80594" lon="2.77406">
        <ele>849.20001220703</ele>
        <time>2013-09-21T11:01:34Z</time>
      </trkpt>
      <trkpt lat="45.80588" lon="2.77409">
        <ele>850.40002441406</ele>
        <time>2013-09-21T11:01:37Z</time>
      </trkpt>
      <trkpt lat="45.80571" lon="2.77407">
        <ele>850.79998779297</ele>
        <time>2013-09-21T11:01:45Z</time>
      </trkpt>
      <trkpt lat="45.80568" lon="2.77406">
        <ele>851.20001220703</ele>
        <time>2013-09-21T11:01:46Z</time>
      </trkpt>
      <trkpt lat="45.80558" lon="2.77403">
        <ele>853</ele>
        <time>2013-09-21T11:01:50Z</time>
      </trkpt>
      <trkpt lat="45.80547" lon="2.77397">
        <ele>853</ele>
        <time>2013-09-21T11:01:54Z</time>
      </trkpt>
      <trkpt lat="45.80523" lon="2.77386">
        <ele>853</ele>
        <time>2013-09-21T11:02:01Z</time>
      </trkpt>
      <trkpt lat="45.80501" lon="2.77375">
        <ele>853</ele>
        <time>2013-09-21T11:02:07Z</time>
      </trkpt>
      <trkpt lat="45.80479" lon="2.77359">
        <ele>853</ele>
        <time>2013-09-21T11:02:14Z</time>
      </trkpt>
      <trkpt lat="45.80468" lon="2.77343">
        <ele>855</ele>
        <time>2013-09-21T11:02:19Z</time>
      </trkpt>
      <trkpt lat="45.80465" lon="2.77336">
        <ele>855</ele>
        <time>2013-09-21T11:02:21Z</time>
      </trkpt>
      <trkpt lat="45.80453" lon="2.77318">
        <ele>855.40002441406</ele>
        <time>2013-09-21T11:02:26Z</time>
      </trkpt>
      <trkpt lat="45.8045" lon="2.77315">
        <ele>856</ele>
        <time>2013-09-21T11:02:27Z</time>
      </trkpt>
      <trkpt lat="45.80445" lon="2.77308">
        <ele>856.79998779297</ele>
        <time>2013-09-21T11:02:29Z</time>
      </trkpt>
      <trkpt lat="45.80426" lon="2.77275">
        <ele>857.20001220703</ele>
        <time>2013-09-21T11:02:37Z</time>
      </trkpt>
      <trkpt lat="45.80414" lon="2.77257">
        <ele>857.59997558594</ele>
        <time>2013-09-21T11:02:41Z</time>
      </trkpt>
      <trkpt lat="45.80408" lon="2.77249">
        <ele>858.40002441406</ele>
        <time>2013-09-21T11:02:43Z</time>
      </trkpt>
      <trkpt lat="45.80386" lon="2.77218">
        <ele>859.20001220703</ele>
        <time>2013-09-21T11:02:53Z</time>
      </trkpt>
      <trkpt lat="45.80378" lon="2.77204">
        <ele>859.59997558594</ele>
        <time>2013-09-21T11:02:58Z</time>
      </trkpt>
      <trkpt lat="45.80375" lon="2.77198">
        <ele>860.59997558594</ele>
        <time>2013-09-21T11:03:00Z</time>
      </trkpt>
      <trkpt lat="45.80367" lon="2.77186">
        <ele>861.59997558594</ele>
        <time>2013-09-21T11:03:04Z</time>
      </trkpt>
      <trkpt lat="45.80353" lon="2.77168">
        <ele>861.59997558594</ele>
        <time>2013-09-21T11:03:11Z</time>
      </trkpt>
      <trkpt lat="45.80349" lon="2.77162">
        <ele>862</ele>
        <time>2013-09-21T11:03:13Z</time>
      </trkpt>
      <trkpt lat="45.80347" lon="2.77159">
        <ele>862.40002441406</ele>
        <time>2013-09-21T11:03:14Z</time>
      </trkpt>
      <trkpt lat="45.80336" lon="2.77146">
        <ele>863.59997558594</ele>
        <time>2013-09-21T11:03:19Z</time>
      </trkpt>
      <trkpt lat="45.80315" lon="2.77125">
        <ele>863.59997558594</ele>
        <time>2013-09-21T11:03:28Z</time>
      </trkpt>
      <trkpt lat="45.80307" lon="2.77119">
        <ele>864.40002441406</ele>
        <time>2013-09-21T11:03:31Z</time>
      </trkpt>
      <trkpt lat="45.803" lon="2.77113">
        <ele>865.59997558594</ele>
        <time>2013-09-21T11:03:34Z</time>
      </trkpt>
      <trkpt lat="45.80289" lon="2.77107">
        <ele>865.59997558594</ele>
        <time>2013-09-21T11:03:38Z</time>
      </trkpt>
      <trkpt lat="45.80276" lon="2.77101">
        <ele>866</ele>
        <time>2013-09-21T11:03:43Z</time>
      </trkpt>
      <trkpt lat="45.80268" lon="2.77101">
        <ele>867.40002441406</ele>
        <time>2013-09-21T11:03:46Z</time>
      </trkpt>
      <trkpt lat="45.80247" lon="2.77099">
        <ele>868.20001220703</ele>
        <time>2013-09-21T11:03:54Z</time>
      </trkpt>
      <trkpt lat="45.80239" lon="2.77098">
        <ele>869.40002441406</ele>
        <time>2013-09-21T11:03:57Z</time>
      </trkpt>
      <trkpt lat="45.80221" lon="2.77095">
        <ele>870.20001220703</ele>
        <time>2013-09-21T11:04:04Z</time>
      </trkpt>
      <trkpt lat="45.80218" lon="2.77095">
        <ele>870.59997558594</ele>
        <time>2013-09-21T11:04:05Z</time>
      </trkpt>
      <trkpt lat="45.80191" lon="2.77092">
        <ele>872.20001220703</ele>
        <time>2013-09-21T11:04:16Z</time>
      </trkpt>
      <trkpt lat="45.80188" lon="2.77092">
        <ele>872.59997558594</ele>
        <time>2013-09-21T11:04:17Z</time>
      </trkpt>
      <trkpt lat="45.80155" lon="2.77089">
        <ele>874</ele>
        <time>2013-09-21T11:04:29Z</time>
      </trkpt>
      <trkpt lat="45.80145" lon="2.77087">
        <ele>874.40002441406</ele>
        <time>2013-09-21T11:04:32Z</time>
      </trkpt>
      <trkpt lat="45.8014" lon="2.77086">
        <ele>875.40002441406</ele>
        <time>2013-09-21T11:04:34Z</time>
      </trkpt>
      <trkpt lat="45.80105" lon="2.77085">
        <ele>876.59997558594</ele>
        <time>2013-09-21T11:04:46Z</time>
      </trkpt>
      <trkpt lat="45.80099" lon="2.77086">
        <ele>877.40002441406</ele>
        <time>2013-09-21T11:04:48Z</time>
      </trkpt>
      <trkpt lat="45.80082" lon="2.77098">
        <ele>878.20001220703</ele>
        <time>2013-09-21T11:04:54Z</time>
      </trkpt>
      <trkpt lat="45.80069" lon="2.77115">
        <ele>878.20001220703</ele>
        <time>2013-09-21T11:05:00Z</time>
      </trkpt>
      <trkpt lat="45.8005" lon="2.77132">
        <ele>878.20001220703</ele>
        <time>2013-09-21T11:05:07Z</time>
      </trkpt>
      <trkpt lat="45.80027" lon="2.77126">
        <ele>878.20001220703</ele>
        <time>2013-09-21T11:05:14Z</time>
      </trkpt>
      <trkpt lat="45.80018" lon="2.7712">
        <ele>878.59997558594</ele>
        <time>2013-09-21T11:05:17Z</time>
      </trkpt>
      <trkpt lat="45.8001" lon="2.77113">
        <ele>880</ele>
        <time>2013-09-21T11:05:20Z</time>
      </trkpt>
      <trkpt lat="45.80002" lon="2.77105">
        <ele>880.40002441406</ele>
        <time>2013-09-21T11:05:23Z</time>
      </trkpt>
      <trkpt lat="45.79981" lon="2.77084">
        <ele>880.40002441406</ele>
        <time>2013-09-21T11:05:31Z</time>
      </trkpt>
      <trkpt lat="45.79964" lon="2.77077">
        <ele>880.40002441406</ele>
        <time>2013-09-21T11:05:37Z</time>
      </trkpt>
      <trkpt lat="45.79959" lon="2.77078">
        <ele>880.79998779297</ele>
        <time>2013-09-21T11:05:39Z</time>
      </trkpt>
      <trkpt lat="45.79953" lon="2.77081">
        <ele>881.59997558594</ele>
        <time>2013-09-21T11:05:41Z</time>
      </trkpt>
      <trkpt lat="45.79948" lon="2.77085">
        <ele>882.40002441406</ele>
        <time>2013-09-21T11:05:43Z</time>
      </trkpt>
      <trkpt lat="45.79917" lon="2.77115">
        <ele>882.40002441406</ele>
        <time>2013-09-21T11:05:54Z</time>
      </trkpt>
      <trkpt lat="45.79898" lon="2.77141">
        <ele>882.40002441406</ele>
        <time>2013-09-21T11:06:02Z</time>
      </trkpt>
      <trkpt lat="45.79903" lon="2.77161">
        <ele>882.40002441406</ele>
        <time>2013-09-21T11:06:06Z</time>
      </trkpt>
      <trkpt lat="45.79915" lon="2.77188">
        <ele>882.40002441406</ele>
        <time>2013-09-21T11:06:10Z</time>
      </trkpt>
      <trkpt lat="45.79928" lon="2.77232">
        <ele>882.40002441406</ele>
        <time>2013-09-21T11:06:17Z</time>
      </trkpt>
      <trkpt lat="45.7994" lon="2.77271">
        <ele>882.40002441406</ele>
        <time>2013-09-21T11:06:23Z</time>
      </trkpt>
      <trkpt lat="45.79952" lon="2.7732">
        <ele>882.40002441406</ele>
        <time>2013-09-21T11:06:31Z</time>
      </trkpt>
      <trkpt lat="45.79965" lon="2.77362">
        <ele>882.40002441406</ele>
        <time>2013-09-21T11:06:40Z</time>
      </trkpt>
      <trkpt lat="45.79979" lon="2.77401">
        <ele>882.40002441406</ele>
        <time>2013-09-21T11:06:49Z</time>
      </trkpt>
      <trkpt lat="45.7998" lon="2.77437">
        <ele>882.40002441406</ele>
        <time>2013-09-21T11:06:56Z</time>
      </trkpt>
      <trkpt lat="45.79979" lon="2.77448">
        <ele>883</ele>
        <time>2013-09-21T11:06:58Z</time>
      </trkpt>
      <trkpt lat="45.79979" lon="2.77453">
        <ele>883.40002441406</ele>
        <time>2013-09-21T11:06:59Z</time>
      </trkpt>
      <trkpt lat="45.79978" lon="2.77464">
        <ele>884.20001220703</ele>
        <time>2013-09-21T11:07:01Z</time>
      </trkpt>
      <trkpt lat="45.79977" lon="2.7747">
        <ele>884.59997558594</ele>
        <time>2013-09-21T11:07:02Z</time>
      </trkpt>
      <trkpt lat="45.79976" lon="2.7748">
        <ele>884.59997558594</ele>
        <time>2013-09-21T11:07:04Z</time>
      </trkpt>
      <trkpt lat="45.79969" lon="2.77535">
        <ele>884.59997558594</ele>
        <time>2013-09-21T11:07:14Z</time>
      </trkpt>
      <trkpt lat="45.79969" lon="2.77587">
        <ele>884.59997558594</ele>
        <time>2013-09-21T11:07:22Z</time>
      </trkpt>
      <trkpt lat="45.79964" lon="2.7763">
        <ele>884.59997558594</ele>
        <time>2013-09-21T11:07:28Z</time>
      </trkpt>
      <trkpt lat="45.79963" lon="2.77636">
        <ele>884.59997558594</ele>
        <time>2013-09-21T11:07:29Z</time>
      </trkpt>
      <trkpt lat="45.79961" lon="2.77643">
        <ele>884.20001220703</ele>
        <time>2013-09-21T11:07:30Z</time>
      </trkpt>
      <trkpt lat="45.79959" lon="2.77649">
        <ele>883.79998779297</ele>
        <time>2013-09-21T11:07:31Z</time>
      </trkpt>
      <trkpt lat="45.79956" lon="2.77654">
        <ele>883.40002441406</ele>
        <time>2013-09-21T11:07:32Z</time>
      </trkpt>
      <trkpt lat="45.79947" lon="2.77667">
        <ele>882.59997558594</ele>
        <time>2013-09-21T11:07:35Z</time>
      </trkpt>
      <trkpt lat="45.79935" lon="2.77675">
        <ele>882.59997558594</ele>
        <time>2013-09-21T11:07:38Z</time>
      </trkpt>
      <trkpt lat="45.79927" lon="2.77681">
        <ele>882.59997558594</ele>
        <time>2013-09-21T11:07:40Z</time>
      </trkpt>
      <trkpt lat="45.799" lon="2.77701">
        <ele>882.59997558594</ele>
        <time>2013-09-21T11:07:47Z</time>
      </trkpt>
      <trkpt lat="45.79867" lon="2.77728">
        <ele>882.59997558594</ele>
        <time>2013-09-21T11:07:55Z</time>
      </trkpt>
      <trkpt lat="45.7983" lon="2.77757">
        <ele>882.59997558594</ele>
        <time>2013-09-21T11:08:04Z</time>
      </trkpt>
      <trkpt lat="45.798" lon="2.77784">
        <ele>882.59997558594</ele>
        <time>2013-09-21T11:08:12Z</time>
      </trkpt>
      <trkpt lat="45.79773" lon="2.77804">
        <ele>883</ele>
        <time>2013-09-21T11:08:19Z</time>
      </trkpt>
      <trkpt lat="45.79769" lon="2.77806">
        <ele>883.40002441406</ele>
        <time>2013-09-21T11:08:20Z</time>
      </trkpt>
      <trkpt lat="45.7976" lon="2.7781">
        <ele>884.20001220703</ele>
        <time>2013-09-21T11:08:22Z</time>
      </trkpt>
      <trkpt lat="45.79748" lon="2.77816">
        <ele>884.59997558594</ele>
        <time>2013-09-21T11:08:25Z</time>
      </trkpt>
      <trkpt lat="45.79739" lon="2.77818">
        <ele>884.59997558594</ele>
        <time>2013-09-21T11:08:27Z</time>
      </trkpt>
      <trkpt lat="45.79724" lon="2.778">
        <ele>884.59997558594</ele>
        <time>2013-09-21T11:08:31Z</time>
      </trkpt>
      <trkpt lat="45.79716" lon="2.77789">
        <ele>884.59997558594</ele>
        <time>2013-09-21T11:08:33Z</time>
      </trkpt>
      <trkpt lat="45.79681" lon="2.77765">
        <ele>884.59997558594</ele>
        <time>2013-09-21T11:08:39Z</time>
      </trkpt>
      <trkpt lat="45.79638" lon="2.77748">
        <ele>884.59997558594</ele>
        <time>2013-09-21T11:08:46Z</time>
      </trkpt>
      <trkpt lat="45.79624" lon="2.77743">
        <ele>883.59997558594</ele>
        <time>2013-09-21T11:08:48Z</time>
      </trkpt>
      <trkpt lat="45.79617" lon="2.7774">
        <ele>883.20001220703</ele>
        <time>2013-09-21T11:08:49Z</time>
      </trkpt>
      <trkpt lat="45.79604" lon="2.77736">
        <ele>882.40002441406</ele>
        <time>2013-09-21T11:08:51Z</time>
      </trkpt>
      <trkpt lat="45.79583" lon="2.77731">
        <ele>882.40002441406</ele>
        <time>2013-09-21T11:08:54Z</time>
      </trkpt>
      <trkpt lat="45.79527" lon="2.77726">
        <ele>882.40002441406</ele>
        <time>2013-09-21T11:09:02Z</time>
      </trkpt>
      <trkpt lat="45.79469" lon="2.77708">
        <ele>882.40002441406</ele>
        <time>2013-09-21T11:09:10Z</time>
      </trkpt>
      <trkpt lat="45.79455" lon="2.77703">
        <ele>882</ele>
        <time>2013-09-21T11:09:12Z</time>
      </trkpt>
      <trkpt lat="45.79448" lon="2.77701">
        <ele>881.59997558594</ele>
        <time>2013-09-21T11:09:13Z</time>
      </trkpt>
      <trkpt lat="45.79441" lon="2.777">
        <ele>881</ele>
        <time>2013-09-21T11:09:14Z</time>
      </trkpt>
      <trkpt lat="45.79425" lon="2.77698">
        <ele>880.20001220703</ele>
        <time>2013-09-21T11:09:16Z</time>
      </trkpt>
      <trkpt lat="45.79418" lon="2.77698">
        <ele>880.20001220703</ele>
        <time>2013-09-21T11:09:17Z</time>
      </trkpt>
      <trkpt lat="45.7937" lon="2.77697">
        <ele>880.20001220703</ele>
        <time>2013-09-21T11:09:24Z</time>
      </trkpt>
      <trkpt lat="45.79329" lon="2.77695">
        <ele>880.20001220703</ele>
        <time>2013-09-21T11:09:30Z</time>
      </trkpt>
      <trkpt lat="45.79287" lon="2.77703">
        <ele>880.20001220703</ele>
        <time>2013-09-21T11:09:36Z</time>
      </trkpt>
      <trkpt lat="45.79269" lon="2.77715">
        <ele>880.20001220703</ele>
        <time>2013-09-21T11:09:39Z</time>
      </trkpt>
      <trkpt lat="45.79263" lon="2.77721">
        <ele>880.20001220703</ele>
        <time>2013-09-21T11:09:40Z</time>
      </trkpt>
      <trkpt lat="45.7923" lon="2.7775">
        <ele>880.20001220703</ele>
        <time>2013-09-21T11:09:46Z</time>
      </trkpt>
      <trkpt lat="45.7919" lon="2.77778">
        <ele>880.20001220703</ele>
        <time>2013-09-21T11:09:53Z</time>
      </trkpt>
      <trkpt lat="45.79157" lon="2.778">
        <ele>880.20001220703</ele>
        <time>2013-09-21T11:09:59Z</time>
      </trkpt>
      <trkpt lat="45.79144" lon="2.77802">
        <ele>880.20001220703</ele>
        <time>2013-09-21T11:10:01Z</time>
      </trkpt>
      <trkpt lat="45.79114" lon="2.77809">
        <ele>880.20001220703</ele>
        <time>2013-09-21T11:10:06Z</time>
      </trkpt>
      <trkpt lat="45.79107" lon="2.77809">
        <ele>880.20001220703</ele>
        <time>2013-09-21T11:10:07Z</time>
      </trkpt>
      <trkpt lat="45.79088" lon="2.77806">
        <ele>880.20001220703</ele>
        <time>2013-09-21T11:10:10Z</time>
      </trkpt>
      <trkpt lat="45.79075" lon="2.77801">
        <ele>880.20001220703</ele>
        <time>2013-09-21T11:10:12Z</time>
      </trkpt>
      <trkpt lat="45.79025" lon="2.77787">
        <ele>880.20001220703</ele>
        <time>2013-09-21T11:10:20Z</time>
      </trkpt>
      <trkpt lat="45.79007" lon="2.7778">
        <ele>880.20001220703</ele>
        <time>2013-09-21T11:10:23Z</time>
      </trkpt>
      <trkpt lat="45.78995" lon="2.77773">
        <ele>880.20001220703</ele>
        <time>2013-09-21T11:10:25Z</time>
      </trkpt>
      <trkpt lat="45.78989" lon="2.77769">
        <ele>880.20001220703</ele>
        <time>2013-09-21T11:10:26Z</time>
      </trkpt>
      <trkpt lat="45.78968" lon="2.77752">
        <ele>880.20001220703</ele>
        <time>2013-09-21T11:10:30Z</time>
      </trkpt>
      <trkpt lat="45.78936" lon="2.77722">
        <ele>880.20001220703</ele>
        <time>2013-09-21T11:10:37Z</time>
      </trkpt>
      <trkpt lat="45.78913" lon="2.77683">
        <ele>880.20001220703</ele>
        <time>2013-09-21T11:10:43Z</time>
      </trkpt>
      <trkpt lat="45.78894" lon="2.7765">
        <ele>880.20001220703</ele>
        <time>2013-09-21T11:10:49Z</time>
      </trkpt>
      <trkpt lat="45.78869" lon="2.77613">
        <ele>880.20001220703</ele>
        <time>2013-09-21T11:10:56Z</time>
      </trkpt>
      <trkpt lat="45.78855" lon="2.776">
        <ele>880.59997558594</ele>
        <time>2013-09-21T11:11:00Z</time>
      </trkpt>
      <trkpt lat="45.78846" lon="2.77592">
        <ele>881.59997558594</ele>
        <time>2013-09-21T11:11:02Z</time>
      </trkpt>
      <trkpt lat="45.78842" lon="2.77589">
        <ele>882</ele>
        <time>2013-09-21T11:11:03Z</time>
      </trkpt>
      <trkpt lat="45.78838" lon="2.77585">
        <ele>882.40002441406</ele>
        <time>2013-09-21T11:11:04Z</time>
      </trkpt>
      <trkpt lat="45.78815" lon="2.77558">
        <ele>882.40002441406</ele>
        <time>2013-09-21T11:11:10Z</time>
      </trkpt>
      <trkpt lat="45.78809" lon="2.77544">
        <ele>883.40002441406</ele>
        <time>2013-09-21T11:11:12Z</time>
      </trkpt>
      <trkpt lat="45.78808" lon="2.77538">
        <ele>883.79998779297</ele>
        <time>2013-09-21T11:11:13Z</time>
      </trkpt>
      <trkpt lat="45.78801" lon="2.77528">
        <ele>884.59997558594</ele>
        <time>2013-09-21T11:11:18Z</time>
      </trkpt>
      <trkpt lat="45.78786" lon="2.77515">
        <ele>884.59997558594</ele>
        <time>2013-09-21T11:11:23Z</time>
      </trkpt>
      <trkpt lat="45.78766" lon="2.77492">
        <ele>884.59997558594</ele>
        <time>2013-09-21T11:11:30Z</time>
      </trkpt>
      <trkpt lat="45.78736" lon="2.77455">
        <ele>884.59997558594</ele>
        <time>2013-09-21T11:11:40Z</time>
      </trkpt>
      <trkpt lat="45.78705" lon="2.7742">
        <ele>884.59997558594</ele>
        <time>2013-09-21T11:11:50Z</time>
      </trkpt>
      <trkpt lat="45.78702" lon="2.77416">
        <ele>884.59997558594</ele>
        <time>2013-09-21T11:11:51Z</time>
      </trkpt>
      <trkpt lat="45.78683" lon="2.77389">
        <ele>884.59997558594</ele>
        <time>2013-09-21T11:11:57Z</time>
      </trkpt>
      <trkpt lat="45.78668" lon="2.77366">
        <ele>884.59997558594</ele>
        <time>2013-09-21T11:12:02Z</time>
      </trkpt>
      <trkpt lat="45.78648" lon="2.77341">
        <ele>884.59997558594</ele>
        <time>2013-09-21T11:12:08Z</time>
      </trkpt>
      <trkpt lat="45.78629" lon="2.77335">
        <ele>884.59997558594</ele>
        <time>2013-09-21T11:12:12Z</time>
      </trkpt>
      <trkpt lat="45.78614" lon="2.77337">
        <ele>884.59997558594</ele>
        <time>2013-09-21T11:12:15Z</time>
      </trkpt>
      <trkpt lat="45.7861" lon="2.77339">
        <ele>884.59997558594</ele>
        <time>2013-09-21T11:12:16Z</time>
      </trkpt>
      <trkpt lat="45.78606" lon="2.77342">
        <ele>884.59997558594</ele>
        <time>2013-09-21T11:12:17Z</time>
      </trkpt>
      <trkpt lat="45.78592" lon="2.77349">
        <ele>884.59997558594</ele>
        <time>2013-09-21T11:12:20Z</time>
      </trkpt>
      <trkpt lat="45.78581" lon="2.77346">
        <ele>884.59997558594</ele>
        <time>2013-09-21T11:12:22Z</time>
      </trkpt>
      <trkpt lat="45.78572" lon="2.77323">
        <ele>884.20001220703</ele>
        <time>2013-09-21T11:12:25Z</time>
      </trkpt>
      <trkpt lat="45.7857" lon="2.77314">
        <ele>883.79998779297</ele>
        <time>2013-09-21T11:12:26Z</time>
      </trkpt>
      <trkpt lat="45.78568" lon="2.77304">
        <ele>883.40002441406</ele>
        <time>2013-09-21T11:12:27Z</time>
      </trkpt>
      <trkpt lat="45.78566" lon="2.77295">
        <ele>882.59997558594</ele>
        <time>2013-09-21T11:12:28Z</time>
      </trkpt>
      <trkpt lat="45.78563" lon="2.77288">
        <ele>882</ele>
        <time>2013-09-21T11:12:29Z</time>
      </trkpt>
      <trkpt lat="45.78559" lon="2.77283">
        <ele>881.20001220703</ele>
        <time>2013-09-21T11:12:30Z</time>
      </trkpt>
      <trkpt lat="45.78547" lon="2.77279">
        <ele>879.79998779297</ele>
        <time>2013-09-21T11:12:32Z</time>
      </trkpt>
      <trkpt lat="45.78539" lon="2.77278">
        <ele>879.20001220703</ele>
        <time>2013-09-21T11:12:33Z</time>
      </trkpt>
      <trkpt lat="45.78522" lon="2.77275">
        <ele>877.79998779297</ele>
        <time>2013-09-21T11:12:35Z</time>
      </trkpt>
      <trkpt lat="45.78513" lon="2.77271">
        <ele>877.20001220703</ele>
        <time>2013-09-21T11:12:36Z</time>
      </trkpt>
      <trkpt lat="45.78505" lon="2.77266">
        <ele>876.59997558594</ele>
        <time>2013-09-21T11:12:37Z</time>
      </trkpt>
      <trkpt lat="45.78497" lon="2.7726">
        <ele>875.79998779297</ele>
        <time>2013-09-21T11:12:38Z</time>
      </trkpt>
      <trkpt lat="45.78489" lon="2.77254">
        <ele>875.20001220703</ele>
        <time>2013-09-21T11:12:39Z</time>
      </trkpt>
      <trkpt lat="45.78481" lon="2.77247">
        <ele>874.40002441406</ele>
        <time>2013-09-21T11:12:40Z</time>
      </trkpt>
      <trkpt lat="45.78473" lon="2.7724">
        <ele>873.79998779297</ele>
        <time>2013-09-21T11:12:41Z</time>
      </trkpt>
      <trkpt lat="45.78466" lon="2.77233">
        <ele>873.20001220703</ele>
        <time>2013-09-21T11:12:42Z</time>
      </trkpt>
      <trkpt lat="45.78424" lon="2.77193">
        <ele>873.20001220703</ele>
        <time>2013-09-21T11:12:48Z</time>
      </trkpt>
      <trkpt lat="45.78399" lon="2.77184">
        <ele>873.20001220703</ele>
        <time>2013-09-21T11:12:51Z</time>
      </trkpt>
      <trkpt lat="45.78381" lon="2.77182">
        <ele>873.20001220703</ele>
        <time>2013-09-21T11:12:53Z</time>
      </trkpt>
      <trkpt lat="45.78344" lon="2.77176">
        <ele>873.20001220703</ele>
        <time>2013-09-21T11:12:57Z</time>
      </trkpt>
      <trkpt lat="45.78297" lon="2.77153">
        <ele>873.20001220703</ele>
        <time>2013-09-21T11:13:02Z</time>
      </trkpt>
      <trkpt lat="45.78267" lon="2.77121">
        <ele>873.20001220703</ele>
        <time>2013-09-21T11:13:06Z</time>
      </trkpt>
      <trkpt lat="45.78222" lon="2.77075">
        <ele>873.20001220703</ele>
        <time>2013-09-21T11:13:12Z</time>
      </trkpt>
      <trkpt lat="45.78216" lon="2.77068">
        <ele>873.20001220703</ele>
        <time>2013-09-21T11:13:13Z</time>
      </trkpt>
      <trkpt lat="45.78209" lon="2.77062">
        <ele>873.59997558594</ele>
        <time>2013-09-21T11:13:14Z</time>
      </trkpt>
      <trkpt lat="45.78202" lon="2.77055">
        <ele>874</ele>
        <time>2013-09-21T11:13:15Z</time>
      </trkpt>
      <trkpt lat="45.78196" lon="2.77048">
        <ele>874.40002441406</ele>
        <time>2013-09-21T11:13:16Z</time>
      </trkpt>
      <trkpt lat="45.78189" lon="2.77041">
        <ele>874.79998779297</ele>
        <time>2013-09-21T11:13:17Z</time>
      </trkpt>
      <trkpt lat="45.78182" lon="2.77034">
        <ele>875.40002441406</ele>
        <time>2013-09-21T11:13:18Z</time>
      </trkpt>
      <trkpt lat="45.78161" lon="2.77016">
        <ele>875.40002441406</ele>
        <time>2013-09-21T11:13:21Z</time>
      </trkpt>
      <trkpt lat="45.78128" lon="2.77004">
        <ele>875.40002441406</ele>
        <time>2013-09-21T11:13:25Z</time>
      </trkpt>
      <trkpt lat="45.7811" lon="2.77001">
        <ele>874.79998779297</ele>
        <time>2013-09-21T11:13:27Z</time>
      </trkpt>
      <trkpt lat="45.78101" lon="2.76999">
        <ele>874.40002441406</ele>
        <time>2013-09-21T11:13:28Z</time>
      </trkpt>
      <trkpt lat="45.78092" lon="2.76997">
        <ele>874</ele>
        <time>2013-09-21T11:13:29Z</time>
      </trkpt>
      <trkpt lat="45.78082" lon="2.76996">
        <ele>873.59997558594</ele>
        <time>2013-09-21T11:13:30Z</time>
      </trkpt>
      <trkpt lat="45.78074" lon="2.76995">
        <ele>873</ele>
        <time>2013-09-21T11:13:31Z</time>
      </trkpt>
      <trkpt lat="45.78036" lon="2.76993">
        <ele>872.59997558594</ele>
        <time>2013-09-21T11:13:35Z</time>
      </trkpt>
      <trkpt lat="45.78027" lon="2.76993">
        <ele>872.20001220703</ele>
        <time>2013-09-21T11:13:36Z</time>
      </trkpt>
      <trkpt lat="45.78018" lon="2.76993">
        <ele>871.79998779297</ele>
        <time>2013-09-21T11:13:37Z</time>
      </trkpt>
      <trkpt lat="45.78009" lon="2.76992">
        <ele>871.20001220703</ele>
        <time>2013-09-21T11:13:38Z</time>
      </trkpt>
      <trkpt lat="45.77999" lon="2.76992">
        <ele>870.79998779297</ele>
        <time>2013-09-21T11:13:39Z</time>
      </trkpt>
      <trkpt lat="45.77927" lon="2.76989">
        <ele>870.79998779297</ele>
        <time>2013-09-21T11:13:47Z</time>
      </trkpt>
      <trkpt lat="45.77902" lon="2.76988">
        <ele>870.79998779297</ele>
        <time>2013-09-21T11:13:50Z</time>
      </trkpt>
      <trkpt lat="45.7785" lon="2.76994">
        <ele>870.79998779297</ele>
        <time>2013-09-21T11:13:57Z</time>
      </trkpt>
      <trkpt lat="45.77844" lon="2.7699">
        <ele>870.79998779297</ele>
        <time>2013-09-21T11:13:58Z</time>
      </trkpt>
      <trkpt lat="45.77837" lon="2.7698">
        <ele>870.79998779297</ele>
        <time>2013-09-21T11:13:59Z</time>
      </trkpt>
      <trkpt lat="45.77832" lon="2.76965">
        <ele>870.79998779297</ele>
        <time>2013-09-21T11:14:01Z</time>
      </trkpt>
      <trkpt lat="45.77826" lon="2.76942">
        <ele>870.79998779297</ele>
        <time>2013-09-21T11:14:04Z</time>
      </trkpt>
      <trkpt lat="45.77805" lon="2.76874">
        <ele>870.79998779297</ele>
        <time>2013-09-21T11:14:12Z</time>
      </trkpt>
      <trkpt lat="45.7779" lon="2.76809">
        <ele>870.79998779297</ele>
        <time>2013-09-21T11:14:19Z</time>
      </trkpt>
      <trkpt lat="45.77781" lon="2.76777">
        <ele>870.79998779297</ele>
        <time>2013-09-21T11:14:22Z</time>
      </trkpt>
      <trkpt lat="45.77775" lon="2.76753">
        <ele>870.40002441406</ele>
        <time>2013-09-21T11:14:24Z</time>
      </trkpt>
      <trkpt lat="45.77772" lon="2.7674">
        <ele>869.79998779297</ele>
        <time>2013-09-21T11:14:25Z</time>
      </trkpt>
      <trkpt lat="45.77768" lon="2.76727">
        <ele>869.40002441406</ele>
        <time>2013-09-21T11:14:26Z</time>
      </trkpt>
      <trkpt lat="45.77765" lon="2.76715">
        <ele>868.79998779297</ele>
        <time>2013-09-21T11:14:27Z</time>
      </trkpt>
      <trkpt lat="45.77761" lon="2.767">
        <ele>868</ele>
        <time>2013-09-21T11:14:28Z</time>
      </trkpt>
      <trkpt lat="45.77757" lon="2.76687">
        <ele>867.40002441406</ele>
        <time>2013-09-21T11:14:29Z</time>
      </trkpt>
      <trkpt lat="45.77753" lon="2.76673">
        <ele>866.59997558594</ele>
        <time>2013-09-21T11:14:30Z</time>
      </trkpt>
      <trkpt lat="45.7775" lon="2.7666">
        <ele>865.79998779297</ele>
        <time>2013-09-21T11:14:31Z</time>
      </trkpt>
      <trkpt lat="45.77746" lon="2.76646">
        <ele>865</ele>
        <time>2013-09-21T11:14:32Z</time>
      </trkpt>
      <trkpt lat="45.77742" lon="2.76633">
        <ele>864.20001220703</ele>
        <time>2013-09-21T11:14:33Z</time>
      </trkpt>
      <trkpt lat="45.77739" lon="2.7662">
        <ele>863.59997558594</ele>
        <time>2013-09-21T11:14:34Z</time>
      </trkpt>
      <trkpt lat="45.77735" lon="2.76607">
        <ele>863</ele>
        <time>2013-09-21T11:14:35Z</time>
      </trkpt>
      <trkpt lat="45.77731" lon="2.76594">
        <ele>862.40002441406</ele>
        <time>2013-09-21T11:14:36Z</time>
      </trkpt>
      <trkpt lat="45.77727" lon="2.76582">
        <ele>861.79998779297</ele>
        <time>2013-09-21T11:14:37Z</time>
      </trkpt>
      <trkpt lat="45.77724" lon="2.76569">
        <ele>861.20001220703</ele>
        <time>2013-09-21T11:14:38Z</time>
      </trkpt>
      <trkpt lat="45.7772" lon="2.76557">
        <ele>861.20001220703</ele>
        <time>2013-09-21T11:14:39Z</time>
      </trkpt>
      <trkpt lat="45.77716" lon="2.76545">
        <ele>860.79998779297</ele>
        <time>2013-09-21T11:14:40Z</time>
      </trkpt>
      <trkpt lat="45.77712" lon="2.76532">
        <ele>860.20001220703</ele>
        <time>2013-09-21T11:14:41Z</time>
      </trkpt>
      <trkpt lat="45.77708" lon="2.7652">
        <ele>859.79998779297</ele>
        <time>2013-09-21T11:14:42Z</time>
      </trkpt>
      <trkpt lat="45.77705" lon="2.76507">
        <ele>859</ele>
        <time>2013-09-21T11:14:43Z</time>
      </trkpt>
      <trkpt lat="45.77701" lon="2.76493">
        <ele>858.40002441406</ele>
        <time>2013-09-21T11:14:44Z</time>
      </trkpt>
      <trkpt lat="45.77697" lon="2.76479">
        <ele>857.59997558594</ele>
        <time>2013-09-21T11:14:45Z</time>
      </trkpt>
      <trkpt lat="45.77694" lon="2.76465">
        <ele>856.79998779297</ele>
        <time>2013-09-21T11:14:46Z</time>
      </trkpt>
      <trkpt lat="45.7769" lon="2.76451">
        <ele>856</ele>
        <time>2013-09-21T11:14:47Z</time>
      </trkpt>
      <trkpt lat="45.77686" lon="2.76436">
        <ele>855</ele>
        <time>2013-09-21T11:14:48Z</time>
      </trkpt>
      <trkpt lat="45.77681" lon="2.76421">
        <ele>854.20001220703</ele>
        <time>2013-09-21T11:14:49Z</time>
      </trkpt>
      <trkpt lat="45.77676" lon="2.76405">
        <ele>853</ele>
        <time>2013-09-21T11:14:50Z</time>
      </trkpt>
      <trkpt lat="45.77672" lon="2.76389">
        <ele>852</ele>
        <time>2013-09-21T11:14:51Z</time>
      </trkpt>
      <trkpt lat="45.77666" lon="2.76372">
        <ele>850.59997558594</ele>
        <time>2013-09-21T11:14:52Z</time>
      </trkpt>
      <trkpt lat="45.77662" lon="2.76358">
        <ele>849.40002441406</ele>
        <time>2013-09-21T11:14:53Z</time>
      </trkpt>
      <trkpt lat="45.77657" lon="2.76342">
        <ele>848.20001220703</ele>
        <time>2013-09-21T11:14:54Z</time>
      </trkpt>
      <trkpt lat="45.77653" lon="2.76328">
        <ele>847.40002441406</ele>
        <time>2013-09-21T11:14:55Z</time>
      </trkpt>
      <trkpt lat="45.77649" lon="2.76315">
        <ele>846.40002441406</ele>
        <time>2013-09-21T11:14:56Z</time>
      </trkpt>
      <trkpt lat="45.77644" lon="2.76305">
        <ele>845.59997558594</ele>
        <time>2013-09-21T11:14:57Z</time>
      </trkpt>
      <trkpt lat="45.77638" lon="2.76294">
        <ele>844.59997558594</ele>
        <time>2013-09-21T11:14:58Z</time>
      </trkpt>
      <trkpt lat="45.77634" lon="2.76284">
        <ele>843.79998779297</ele>
        <time>2013-09-21T11:14:59Z</time>
      </trkpt>
      <trkpt lat="45.77627" lon="2.76254">
        <ele>843.79998779297</ele>
        <time>2013-09-21T11:15:02Z</time>
      </trkpt>
      <trkpt lat="45.77628" lon="2.76227">
        <ele>844.20001220703</ele>
        <time>2013-09-21T11:15:05Z</time>
      </trkpt>
      <trkpt lat="45.77629" lon="2.76219">
        <ele>844.59997558594</ele>
        <time>2013-09-21T11:15:06Z</time>
      </trkpt>
      <trkpt lat="45.77629" lon="2.76204">
        <ele>845.59997558594</ele>
        <time>2013-09-21T11:15:08Z</time>
      </trkpt>
      <trkpt lat="45.77629" lon="2.76197">
        <ele>846</ele>
        <time>2013-09-21T11:15:09Z</time>
      </trkpt>
      <trkpt lat="45.77628" lon="2.7618">
        <ele>846.40002441406</ele>
        <time>2013-09-21T11:15:12Z</time>
      </trkpt>
      <trkpt lat="45.77628" lon="2.76175">
        <ele>847</ele>
        <time>2013-09-21T11:15:13Z</time>
      </trkpt>
      <trkpt lat="45.77628" lon="2.76169">
        <ele>847.40002441406</ele>
        <time>2013-09-21T11:15:14Z</time>
      </trkpt>
      <trkpt lat="45.77628" lon="2.76157">
        <ele>848.20001220703</ele>
        <time>2013-09-21T11:15:16Z</time>
      </trkpt>
      <trkpt lat="45.77627" lon="2.76135">
        <ele>848.79998779297</ele>
        <time>2013-09-21T11:15:20Z</time>
      </trkpt>
      <trkpt lat="45.77627" lon="2.7613">
        <ele>849.20001220703</ele>
        <time>2013-09-21T11:15:21Z</time>
      </trkpt>
      <trkpt lat="45.77627" lon="2.76119">
        <ele>850</ele>
        <time>2013-09-21T11:15:23Z</time>
      </trkpt>
      <trkpt lat="45.77626" lon="2.76088">
        <ele>850.40002441406</ele>
        <time>2013-09-21T11:15:29Z</time>
      </trkpt>
      <trkpt lat="45.77625" lon="2.76052">
        <ele>850.79998779297</ele>
        <time>2013-09-21T11:15:36Z</time>
      </trkpt>
      <trkpt lat="45.77624" lon="2.76047">
        <ele>851.20001220703</ele>
        <time>2013-09-21T11:15:37Z</time>
      </trkpt>
      <trkpt lat="45.77624" lon="2.76039">
        <ele>852</ele>
        <time>2013-09-21T11:15:39Z</time>
      </trkpt>
      <trkpt lat="45.77623" lon="2.76015">
        <ele>852.40002441406</ele>
        <time>2013-09-21T11:15:44Z</time>
      </trkpt>
      <trkpt lat="45.77622" lon="2.75991">
        <ele>852.79998779297</ele>
        <time>2013-09-21T11:15:49Z</time>
      </trkpt>
      <trkpt lat="45.77622" lon="2.75986">
        <ele>853.40002441406</ele>
        <time>2013-09-21T11:15:50Z</time>
      </trkpt>
      <trkpt lat="45.77621" lon="2.75978">
        <ele>854.20001220703</ele>
        <time>2013-09-21T11:15:52Z</time>
      </trkpt>
      <trkpt lat="45.77621" lon="2.75936">
        <ele>854.59997558594</ele>
        <time>2013-09-21T11:16:02Z</time>
      </trkpt>
      <trkpt lat="45.7762" lon="2.75924">
        <ele>855</ele>
        <time>2013-09-21T11:16:05Z</time>
      </trkpt>
      <trkpt lat="45.7762" lon="2.75916">
        <ele>855.79998779297</ele>
        <time>2013-09-21T11:16:07Z</time>
      </trkpt>
      <trkpt lat="45.7762" lon="2.75908">
        <ele>856.79998779297</ele>
        <time>2013-09-21T11:16:09Z</time>
      </trkpt>
      <trkpt lat="45.7762" lon="2.75872">
        <ele>857.20001220703</ele>
        <time>2013-09-21T11:16:17Z</time>
      </trkpt>
      <trkpt lat="45.7762" lon="2.75868">
        <ele>857.59997558594</ele>
        <time>2013-09-21T11:16:18Z</time>
      </trkpt>
      <trkpt lat="45.7762" lon="2.75863">
        <ele>858</ele>
        <time>2013-09-21T11:16:19Z</time>
      </trkpt>
      <trkpt lat="45.7762" lon="2.75859">
        <ele>858.40002441406</ele>
        <time>2013-09-21T11:16:20Z</time>
      </trkpt>
      <trkpt lat="45.7762" lon="2.7583">
        <ele>859</ele>
        <time>2013-09-21T11:16:26Z</time>
      </trkpt>
      <trkpt lat="45.77619" lon="2.75801">
        <ele>859.40002441406</ele>
        <time>2013-09-21T11:16:32Z</time>
      </trkpt>
      <trkpt lat="45.77618" lon="2.75796">
        <ele>859.79998779297</ele>
        <time>2013-09-21T11:16:33Z</time>
      </trkpt>
      <trkpt lat="45.77618" lon="2.75786">
        <ele>860.59997558594</ele>
        <time>2013-09-21T11:16:35Z</time>
      </trkpt>
      <trkpt lat="45.77615" lon="2.75742">
        <ele>861.40002441406</ele>
        <time>2013-09-21T11:16:44Z</time>
      </trkpt>
      <trkpt lat="45.77615" lon="2.75737">
        <ele>862</ele>
        <time>2013-09-21T11:16:45Z</time>
      </trkpt>
      <trkpt lat="45.77615" lon="2.75726">
        <ele>862.40002441406</ele>
        <time>2013-09-21T11:16:47Z</time>
      </trkpt>
      <trkpt lat="45.77615" lon="2.75716">
        <ele>863.20001220703</ele>
        <time>2013-09-21T11:16:49Z</time>
      </trkpt>
      <trkpt lat="45.77613" lon="2.75691">
        <ele>863.20001220703</ele>
        <time>2013-09-21T11:16:54Z</time>
      </trkpt>
      <trkpt lat="45.77613" lon="2.75686">
        <ele>863.59997558594</ele>
        <time>2013-09-21T11:16:55Z</time>
      </trkpt>
      <trkpt lat="45.77612" lon="2.75677">
        <ele>864.40002441406</ele>
        <time>2013-09-21T11:16:57Z</time>
      </trkpt>
      <trkpt lat="45.77609" lon="2.7567">
        <ele>865.20001220703</ele>
        <time>2013-09-21T11:16:59Z</time>
      </trkpt>
      <trkpt lat="45.77599" lon="2.75675">
        <ele>865.20001220703</ele>
        <time>2013-09-21T11:17:02Z</time>
      </trkpt>
      <trkpt lat="45.77592" lon="2.75686">
        <ele>865.20001220703</ele>
        <time>2013-09-21T11:17:04Z</time>
      </trkpt>
      <trkpt lat="45.77584" lon="2.75698">
        <ele>865.20001220703</ele>
        <time>2013-09-21T11:17:06Z</time>
      </trkpt>
      <trkpt lat="45.77579" lon="2.75705">
        <ele>865.20001220703</ele>
        <time>2013-09-21T11:17:07Z</time>
      </trkpt>
      <trkpt lat="45.7756" lon="2.75733">
        <ele>864.79998779297</ele>
        <time>2013-09-21T11:17:11Z</time>
      </trkpt>
      <trkpt lat="45.77555" lon="2.7574">
        <ele>864.40002441406</ele>
        <time>2013-09-21T11:17:12Z</time>
      </trkpt>
      <trkpt lat="45.77541" lon="2.75762">
        <ele>862.79998779297</ele>
        <time>2013-09-21T11:17:15Z</time>
      </trkpt>
      <trkpt lat="45.77528" lon="2.75786">
        <ele>862.40002441406</ele>
        <time>2013-09-21T11:17:18Z</time>
      </trkpt>
      <trkpt lat="45.77523" lon="2.75793">
        <ele>862</ele>
        <time>2013-09-21T11:17:19Z</time>
      </trkpt>
      <trkpt lat="45.77519" lon="2.758">
        <ele>861.59997558594</ele>
        <time>2013-09-21T11:17:20Z</time>
      </trkpt>
      <trkpt lat="45.77509" lon="2.75814">
        <ele>860.79998779297</ele>
        <time>2013-09-21T11:17:22Z</time>
      </trkpt>
      <trkpt lat="45.77484" lon="2.75849">
        <ele>860.40002441406</ele>
        <time>2013-09-21T11:17:27Z</time>
      </trkpt>
      <trkpt lat="45.7748" lon="2.75852">
        <ele>860</ele>
        <time>2013-09-21T11:17:28Z</time>
      </trkpt>
      <trkpt lat="45.7747" lon="2.75847">
        <ele>859.20001220703</ele>
        <time>2013-09-21T11:17:30Z</time>
      </trkpt>
      <trkpt lat="45.77467" lon="2.7584">
        <ele>858.59997558594</ele>
        <time>2013-09-21T11:17:31Z</time>
      </trkpt>
      <trkpt lat="45.77463" lon="2.75823">
        <ele>858.59997558594</ele>
        <time>2013-09-21T11:17:33Z</time>
      </trkpt>
      <trkpt lat="45.77445" lon="2.75768">
        <ele>858.59997558594</ele>
        <time>2013-09-21T11:17:39Z</time>
      </trkpt>
      <trkpt lat="45.77424" lon="2.75706">
        <ele>858.20001220703</ele>
        <time>2013-09-21T11:17:46Z</time>
      </trkpt>
      <trkpt lat="45.77421" lon="2.75697">
        <ele>857.79998779297</ele>
        <time>2013-09-21T11:17:47Z</time>
      </trkpt>
      <trkpt lat="45.77418" lon="2.75687">
        <ele>857.40002441406</ele>
        <time>2013-09-21T11:17:48Z</time>
      </trkpt>
      <trkpt lat="45.77417" lon="2.75677">
        <ele>857</ele>
        <time>2013-09-21T11:17:49Z</time>
      </trkpt>
      <trkpt lat="45.77415" lon="2.75666">
        <ele>856.59997558594</ele>
        <time>2013-09-21T11:17:50Z</time>
      </trkpt>
      <trkpt lat="45.77414" lon="2.75646">
        <ele>856.59997558594</ele>
        <time>2013-09-21T11:17:52Z</time>
      </trkpt>
      <trkpt lat="45.77407" lon="2.75575">
        <ele>856.59997558594</ele>
        <time>2013-09-21T11:17:59Z</time>
      </trkpt>
      <trkpt lat="45.77406" lon="2.75566">
        <ele>856.59997558594</ele>
        <time>2013-09-21T11:18:00Z</time>
      </trkpt>
      <trkpt lat="45.77401" lon="2.75556">
        <ele>856.59997558594</ele>
        <time>2013-09-21T11:18:02Z</time>
      </trkpt>
      <trkpt lat="45.77386" lon="2.75555">
        <ele>856</ele>
        <time>2013-09-21T11:18:05Z</time>
      </trkpt>
      <trkpt lat="45.77379" lon="2.75559">
        <ele>855.59997558594</ele>
        <time>2013-09-21T11:18:06Z</time>
      </trkpt>
      <trkpt lat="45.77371" lon="2.75564">
        <ele>855.20001220703</ele>
        <time>2013-09-21T11:18:07Z</time>
      </trkpt>
      <trkpt lat="45.77362" lon="2.7557">
        <ele>854.59997558594</ele>
        <time>2013-09-21T11:18:08Z</time>
      </trkpt>
      <trkpt lat="45.77353" lon="2.75576">
        <ele>854</ele>
        <time>2013-09-21T11:18:09Z</time>
      </trkpt>
      <trkpt lat="45.77344" lon="2.75582">
        <ele>853.20001220703</ele>
        <time>2013-09-21T11:18:10Z</time>
      </trkpt>
      <trkpt lat="45.77335" lon="2.75587">
        <ele>852.59997558594</ele>
        <time>2013-09-21T11:18:11Z</time>
      </trkpt>
      <trkpt lat="45.77327" lon="2.75591">
        <ele>852</ele>
        <time>2013-09-21T11:18:12Z</time>
      </trkpt>
      <trkpt lat="45.77303" lon="2.75607">
        <ele>852</ele>
        <time>2013-09-21T11:18:15Z</time>
      </trkpt>
      <trkpt lat="45.77277" lon="2.75623">
        <ele>851.59997558594</ele>
        <time>2013-09-21T11:18:18Z</time>
      </trkpt>
      <trkpt lat="45.77269" lon="2.75628">
        <ele>851</ele>
        <time>2013-09-21T11:18:19Z</time>
      </trkpt>
      <trkpt lat="45.77261" lon="2.75634">
        <ele>850.59997558594</ele>
        <time>2013-09-21T11:18:20Z</time>
      </trkpt>
      <trkpt lat="45.77254" lon="2.75639">
        <ele>850.20001220703</ele>
        <time>2013-09-21T11:18:21Z</time>
      </trkpt>
      <trkpt lat="45.77246" lon="2.75644">
        <ele>849.79998779297</ele>
        <time>2013-09-21T11:18:22Z</time>
      </trkpt>
      <trkpt lat="45.77238" lon="2.75649">
        <ele>849.20001220703</ele>
        <time>2013-09-21T11:18:23Z</time>
      </trkpt>
      <trkpt lat="45.77231" lon="2.75654">
        <ele>848.79998779297</ele>
        <time>2013-09-21T11:18:24Z</time>
      </trkpt>
      <trkpt lat="45.77223" lon="2.75659">
        <ele>848.40002441406</ele>
        <time>2013-09-21T11:18:25Z</time>
      </trkpt>
      <trkpt lat="45.77216" lon="2.75664">
        <ele>848</ele>
        <time>2013-09-21T11:18:26Z</time>
      </trkpt>
      <trkpt lat="45.77208" lon="2.75669">
        <ele>847.59997558594</ele>
        <time>2013-09-21T11:18:27Z</time>
      </trkpt>
      <trkpt lat="45.77179" lon="2.75689">
        <ele>847.59997558594</ele>
        <time>2013-09-21T11:18:31Z</time>
      </trkpt>
      <trkpt lat="45.77169" lon="2.75716">
        <ele>847.59997558594</ele>
        <time>2013-09-21T11:18:34Z</time>
      </trkpt>
      <trkpt lat="45.77166" lon="2.75739">
        <ele>847.59997558594</ele>
        <time>2013-09-21T11:18:36Z</time>
      </trkpt>
      <trkpt lat="45.77164" lon="2.7575">
        <ele>847.59997558594</ele>
        <time>2013-09-21T11:18:37Z</time>
      </trkpt>
      <trkpt lat="45.77161" lon="2.75761">
        <ele>847.59997558594</ele>
        <time>2013-09-21T11:18:38Z</time>
      </trkpt>
      <trkpt lat="45.77156" lon="2.75784">
        <ele>847</ele>
        <time>2013-09-21T11:18:40Z</time>
      </trkpt>
      <trkpt lat="45.77153" lon="2.75797">
        <ele>846.59997558594</ele>
        <time>2013-09-21T11:18:41Z</time>
      </trkpt>
      <trkpt lat="45.77149" lon="2.75808">
        <ele>846</ele>
        <time>2013-09-21T11:18:42Z</time>
      </trkpt>
      <trkpt lat="45.77146" lon="2.7582">
        <ele>845.59997558594</ele>
        <time>2013-09-21T11:18:43Z</time>
      </trkpt>
      <trkpt lat="45.77143" lon="2.75832">
        <ele>845.20001220703</ele>
        <time>2013-09-21T11:18:44Z</time>
      </trkpt>
      <trkpt lat="45.7713" lon="2.75877">
        <ele>845.20001220703</ele>
        <time>2013-09-21T11:18:48Z</time>
      </trkpt>
      <trkpt lat="45.77112" lon="2.75903">
        <ele>845.20001220703</ele>
        <time>2013-09-21T11:18:51Z</time>
      </trkpt>
      <trkpt lat="45.771" lon="2.75907">
        <ele>845.20001220703</ele>
        <time>2013-09-21T11:18:53Z</time>
      </trkpt>
      <trkpt lat="45.77089" lon="2.75897">
        <ele>845.20001220703</ele>
        <time>2013-09-21T11:18:55Z</time>
      </trkpt>
      <trkpt lat="45.77083" lon="2.75889">
        <ele>845.20001220703</ele>
        <time>2013-09-21T11:18:56Z</time>
      </trkpt>
      <trkpt lat="45.77078" lon="2.75883">
        <ele>844.59997558594</ele>
        <time>2013-09-21T11:18:57Z</time>
      </trkpt>
      <trkpt lat="45.77071" lon="2.75878">
        <ele>844.20001220703</ele>
        <time>2013-09-21T11:18:58Z</time>
      </trkpt>
      <trkpt lat="45.77063" lon="2.75876">
        <ele>843.79998779297</ele>
        <time>2013-09-21T11:18:59Z</time>
      </trkpt>
      <trkpt lat="45.77054" lon="2.75876">
        <ele>843.20001220703</ele>
        <time>2013-09-21T11:19:00Z</time>
      </trkpt>
      <trkpt lat="45.77045" lon="2.75877">
        <ele>842.79998779297</ele>
        <time>2013-09-21T11:19:01Z</time>
      </trkpt>
      <trkpt lat="45.77037" lon="2.75878">
        <ele>842.79998779297</ele>
        <time>2013-09-21T11:19:02Z</time>
      </trkpt>
      <trkpt lat="45.77028" lon="2.75879">
        <ele>842.79998779297</ele>
        <time>2013-09-21T11:19:03Z</time>
      </trkpt>
      <trkpt lat="45.76978" lon="2.75896">
        <ele>842.40002441406</ele>
        <time>2013-09-21T11:19:09Z</time>
      </trkpt>
      <trkpt lat="45.7697" lon="2.75899">
        <ele>842</ele>
        <time>2013-09-21T11:19:10Z</time>
      </trkpt>
      <trkpt lat="45.76961" lon="2.75903">
        <ele>841.59997558594</ele>
        <time>2013-09-21T11:19:11Z</time>
      </trkpt>
      <trkpt lat="45.76954" lon="2.75907">
        <ele>841.20001220703</ele>
        <time>2013-09-21T11:19:12Z</time>
      </trkpt>
      <trkpt lat="45.76945" lon="2.75912">
        <ele>840.79998779297</ele>
        <time>2013-09-21T11:19:13Z</time>
      </trkpt>
      <trkpt lat="45.76923" lon="2.7593">
        <ele>840.79998779297</ele>
        <time>2013-09-21T11:19:16Z</time>
      </trkpt>
      <trkpt lat="45.76879" lon="2.7598">
        <ele>840.79998779297</ele>
        <time>2013-09-21T11:19:23Z</time>
      </trkpt>
      <trkpt lat="45.76851" lon="2.76025">
        <ele>840.79998779297</ele>
        <time>2013-09-21T11:19:29Z</time>
      </trkpt>
      <trkpt lat="45.76831" lon="2.76053">
        <ele>840.79998779297</ele>
        <time>2013-09-21T11:19:34Z</time>
      </trkpt>
      <trkpt lat="45.7682" lon="2.7605">
        <ele>840.79998779297</ele>
        <time>2013-09-21T11:19:36Z</time>
      </trkpt>
      <trkpt lat="45.76804" lon="2.7604">
        <ele>840.79998779297</ele>
        <time>2013-09-21T11:19:39Z</time>
      </trkpt>
      <trkpt lat="45.76788" lon="2.76025">
        <ele>840.79998779297</ele>
        <time>2013-09-21T11:19:42Z</time>
      </trkpt>
      <trkpt lat="45.76752" lon="2.75994">
        <ele>840.40002441406</ele>
        <time>2013-09-21T11:19:48Z</time>
      </trkpt>
      <trkpt lat="45.76746" lon="2.75988">
        <ele>840</ele>
        <time>2013-09-21T11:19:49Z</time>
      </trkpt>
      <trkpt lat="45.76739" lon="2.75981">
        <ele>839.59997558594</ele>
        <time>2013-09-21T11:19:50Z</time>
      </trkpt>
      <trkpt lat="45.76734" lon="2.75975">
        <ele>839.20001220703</ele>
        <time>2013-09-21T11:19:51Z</time>
      </trkpt>
      <trkpt lat="45.76728" lon="2.75967">
        <ele>838.79998779297</ele>
        <time>2013-09-21T11:19:52Z</time>
      </trkpt>
      <trkpt lat="45.76719" lon="2.7595">
        <ele>838.79998779297</ele>
        <time>2013-09-21T11:19:54Z</time>
      </trkpt>
      <trkpt lat="45.76716" lon="2.7594">
        <ele>838.79998779297</ele>
        <time>2013-09-21T11:19:55Z</time>
      </trkpt>
      <trkpt lat="45.76712" lon="2.75896">
        <ele>838.79998779297</ele>
        <time>2013-09-21T11:19:59Z</time>
      </trkpt>
      <trkpt lat="45.76714" lon="2.75834">
        <ele>838.79998779297</ele>
        <time>2013-09-21T11:20:05Z</time>
      </trkpt>
      <trkpt lat="45.76714" lon="2.75818">
        <ele>838.79998779297</ele>
        <time>2013-09-21T11:20:07Z</time>
      </trkpt>
      <trkpt lat="45.76709" lon="2.75807">
        <ele>838.79998779297</ele>
        <time>2013-09-21T11:20:09Z</time>
      </trkpt>
      <trkpt lat="45.767" lon="2.758">
        <ele>838.79998779297</ele>
        <time>2013-09-21T11:20:11Z</time>
      </trkpt>
      <trkpt lat="45.76667" lon="2.75763">
        <ele>838.79998779297</ele>
        <time>2013-09-21T11:20:20Z</time>
      </trkpt>
      <trkpt lat="45.76666" lon="2.75747">
        <ele>838.79998779297</ele>
        <time>2013-09-21T11:20:25Z</time>
      </trkpt>
      <trkpt lat="45.76666" lon="2.75724">
        <ele>838.79998779297</ele>
        <time>2013-09-21T11:20:32Z</time>
      </trkpt>
      <trkpt lat="45.76667" lon="2.75706">
        <ele>838.79998779297</ele>
        <time>2013-09-21T11:20:38Z</time>
      </trkpt>
      <trkpt lat="45.76667" lon="2.75693">
        <ele>838.79998779297</ele>
        <time>2013-09-21T11:21:15Z</time>
      </trkpt>
      <trkpt lat="45.76661" lon="2.7575">
        <ele>847.79998779297</ele>
        <time>2013-09-21T12:32:48Z</time>
      </trkpt>
      <trkpt lat="45.7665" lon="2.75753">
        <ele>848.59997558594</ele>
        <time>2013-09-21T12:32:54Z</time>
      </trkpt>
      <trkpt lat="45.76644" lon="2.75743">
        <ele>848.59997558594</ele>
        <time>2013-09-21T12:32:58Z</time>
      </trkpt>
      <trkpt lat="45.76629" lon="2.75726">
        <ele>848.59997558594</ele>
        <time>2013-09-21T12:33:06Z</time>
      </trkpt>
      <trkpt lat="45.76612" lon="2.75709">
        <ele>848.59997558594</ele>
        <time>2013-09-21T12:33:12Z</time>
      </trkpt>
      <trkpt lat="45.76593" lon="2.75693">
        <ele>848.59997558594</ele>
        <time>2013-09-21T12:33:19Z</time>
      </trkpt>
      <trkpt lat="45.76586" lon="2.75697">
        <ele>848.59997558594</ele>
        <time>2013-09-21T12:33:21Z</time>
      </trkpt>
      <trkpt lat="45.76584" lon="2.75701">
        <ele>848.59997558594</ele>
        <time>2013-09-21T12:33:22Z</time>
      </trkpt>
      <trkpt lat="45.76575" lon="2.75729">
        <ele>848.59997558594</ele>
        <time>2013-09-21T12:33:28Z</time>
      </trkpt>
      <trkpt lat="45.76579" lon="2.75756">
        <ele>848.59997558594</ele>
        <time>2013-09-21T12:33:33Z</time>
      </trkpt>
      <trkpt lat="45.76582" lon="2.75804">
        <ele>848.59997558594</ele>
        <time>2013-09-21T12:33:42Z</time>
      </trkpt>
      <trkpt lat="45.76583" lon="2.75843">
        <ele>848.59997558594</ele>
        <time>2013-09-21T12:33:49Z</time>
      </trkpt>
      <trkpt lat="45.76577" lon="2.7589">
        <ele>848.59997558594</ele>
        <time>2013-09-21T12:33:58Z</time>
      </trkpt>
      <trkpt lat="45.76568" lon="2.75922">
        <ele>848.59997558594</ele>
        <time>2013-09-21T12:34:05Z</time>
      </trkpt>
      <trkpt lat="45.76563" lon="2.75958">
        <ele>848.59997558594</ele>
        <time>2013-09-21T12:34:12Z</time>
      </trkpt>
      <trkpt lat="45.76553" lon="2.76031">
        <ele>848.59997558594</ele>
        <time>2013-09-21T12:34:25Z</time>
      </trkpt>
      <trkpt lat="45.76546" lon="2.76065">
        <ele>848.59997558594</ele>
        <time>2013-09-21T12:34:31Z</time>
      </trkpt>
      <trkpt lat="45.7654" lon="2.76072">
        <ele>848.59997558594</ele>
        <time>2013-09-21T12:34:33Z</time>
      </trkpt>
      <trkpt lat="45.76531" lon="2.76071">
        <ele>848.59997558594</ele>
        <time>2013-09-21T12:34:36Z</time>
      </trkpt>
      <trkpt lat="45.76527" lon="2.7607">
        <ele>848.59997558594</ele>
        <time>2013-09-21T12:34:37Z</time>
      </trkpt>
      <trkpt lat="45.76506" lon="2.76064">
        <ele>848.59997558594</ele>
        <time>2013-09-21T12:34:44Z</time>
      </trkpt>
      <trkpt lat="45.76498" lon="2.76064">
        <ele>849.59997558594</ele>
        <time>2013-09-21T12:34:47Z</time>
      </trkpt>
      <trkpt lat="45.76485" lon="2.76062">
        <ele>850.79998779297</ele>
        <time>2013-09-21T12:34:52Z</time>
      </trkpt>
      <trkpt lat="45.76468" lon="2.76058">
        <ele>851.20001220703</ele>
        <time>2013-09-21T12:34:58Z</time>
      </trkpt>
      <trkpt lat="45.7646" lon="2.76056">
        <ele>852.59997558594</ele>
        <time>2013-09-21T12:35:01Z</time>
      </trkpt>
      <trkpt lat="45.76449" lon="2.76054">
        <ele>853</ele>
        <time>2013-09-21T12:35:04Z</time>
      </trkpt>
      <trkpt lat="45.76429" lon="2.76051">
        <ele>853.40002441406</ele>
        <time>2013-09-21T12:35:12Z</time>
      </trkpt>
      <trkpt lat="45.76423" lon="2.76049">
        <ele>854.20001220703</ele>
        <time>2013-09-21T12:35:14Z</time>
      </trkpt>
      <trkpt lat="45.76419" lon="2.76049">
        <ele>854.59997558594</ele>
        <time>2013-09-21T12:35:15Z</time>
      </trkpt>
      <trkpt lat="45.76397" lon="2.76044">
        <ele>855</ele>
        <time>2013-09-21T12:35:22Z</time>
      </trkpt>
      <trkpt lat="45.76375" lon="2.7604">
        <ele>855</ele>
        <time>2013-09-21T12:35:29Z</time>
      </trkpt>
      <trkpt lat="45.7634" lon="2.76034">
        <ele>855</ele>
        <time>2013-09-21T12:35:39Z</time>
      </trkpt>
      <trkpt lat="45.76311" lon="2.7603">
        <ele>855.40002441406</ele>
        <time>2013-09-21T12:35:48Z</time>
      </trkpt>
      <trkpt lat="45.76308" lon="2.7603">
        <ele>856</ele>
        <time>2013-09-21T12:35:49Z</time>
      </trkpt>
      <trkpt lat="45.76298" lon="2.76026">
        <ele>857.20001220703</ele>
        <time>2013-09-21T12:35:52Z</time>
      </trkpt>
      <trkpt lat="45.76271" lon="2.7602">
        <ele>857.20001220703</ele>
        <time>2013-09-21T12:36:00Z</time>
      </trkpt>
      <trkpt lat="45.76248" lon="2.76015">
        <ele>857.20001220703</ele>
        <time>2013-09-21T12:36:07Z</time>
      </trkpt>
      <trkpt lat="45.76212" lon="2.76008">
        <ele>857.20001220703</ele>
        <time>2013-09-21T12:36:16Z</time>
      </trkpt>
      <trkpt lat="45.76186" lon="2.76002">
        <ele>857.20001220703</ele>
        <time>2013-09-21T12:36:23Z</time>
      </trkpt>
      <trkpt lat="45.76154" lon="2.75997">
        <ele>857.20001220703</ele>
        <time>2013-09-21T12:36:32Z</time>
      </trkpt>
      <trkpt lat="45.76121" lon="2.75987">
        <ele>857.20001220703</ele>
        <time>2013-09-21T12:36:42Z</time>
      </trkpt>
      <trkpt lat="45.76118" lon="2.75984">
        <ele>857.59997558594</ele>
        <time>2013-09-21T12:36:43Z</time>
      </trkpt>
      <trkpt lat="45.76113" lon="2.75976">
        <ele>858.40002441406</ele>
        <time>2013-09-21T12:36:45Z</time>
      </trkpt>
      <trkpt lat="45.76108" lon="2.75967">
        <ele>859.20001220703</ele>
        <time>2013-09-21T12:36:47Z</time>
      </trkpt>
      <trkpt lat="45.76085" lon="2.7593">
        <ele>859.20001220703</ele>
        <time>2013-09-21T12:36:54Z</time>
      </trkpt>
      <trkpt lat="45.76059" lon="2.75889">
        <ele>858.79998779297</ele>
        <time>2013-09-21T12:37:01Z</time>
      </trkpt>
      <trkpt lat="45.76052" lon="2.75876">
        <ele>858</ele>
        <time>2013-09-21T12:37:03Z</time>
      </trkpt>
      <trkpt lat="45.76049" lon="2.75871">
        <ele>857.59997558594</ele>
        <time>2013-09-21T12:37:04Z</time>
      </trkpt>
      <trkpt lat="45.76046" lon="2.75865">
        <ele>857.20001220703</ele>
        <time>2013-09-21T12:37:05Z</time>
      </trkpt>
      <trkpt lat="45.76034" lon="2.75845">
        <ele>857.20001220703</ele>
        <time>2013-09-21T12:37:09Z</time>
      </trkpt>
      <trkpt lat="45.76016" lon="2.75816">
        <ele>857.20001220703</ele>
        <time>2013-09-21T12:37:16Z</time>
      </trkpt>
      <trkpt lat="45.76011" lon="2.75808">
        <ele>857.59997558594</ele>
        <time>2013-09-21T12:37:18Z</time>
      </trkpt>
      <trkpt lat="45.76008" lon="2.75803">
        <ele>858</ele>
        <time>2013-09-21T12:37:19Z</time>
      </trkpt>
      <trkpt lat="45.76004" lon="2.75796">
        <ele>859</ele>
        <time>2013-09-21T12:37:21Z</time>
      </trkpt>
      <trkpt lat="45.75999" lon="2.75789">
        <ele>859.40002441406</ele>
        <time>2013-09-21T12:37:23Z</time>
      </trkpt>
      <trkpt lat="45.75982" lon="2.7576">
        <ele>859.40002441406</ele>
        <time>2013-09-21T12:37:30Z</time>
      </trkpt>
      <trkpt lat="45.75956" lon="2.75719">
        <ele>859.40002441406</ele>
        <time>2013-09-21T12:37:39Z</time>
      </trkpt>
      <trkpt lat="45.75944" lon="2.75702">
        <ele>859.40002441406</ele>
        <time>2013-09-21T12:37:43Z</time>
      </trkpt>
      <trkpt lat="45.75941" lon="2.75697">
        <ele>859.40002441406</ele>
        <time>2013-09-21T12:37:44Z</time>
      </trkpt>
      <trkpt lat="45.75914" lon="2.75651">
        <ele>859.40002441406</ele>
        <time>2013-09-21T12:37:52Z</time>
      </trkpt>
      <trkpt lat="45.7591" lon="2.75645">
        <ele>858.79998779297</ele>
        <time>2013-09-21T12:37:53Z</time>
      </trkpt>
      <trkpt lat="45.75906" lon="2.75638">
        <ele>858.40002441406</ele>
        <time>2013-09-21T12:37:54Z</time>
      </trkpt>
      <trkpt lat="45.75896" lon="2.75624">
        <ele>857.40002441406</ele>
        <time>2013-09-21T12:37:56Z</time>
      </trkpt>
      <trkpt lat="45.75892" lon="2.75617">
        <ele>856.79998779297</ele>
        <time>2013-09-21T12:37:57Z</time>
      </trkpt>
      <trkpt lat="45.75875" lon="2.75588">
        <ele>856.79998779297</ele>
        <time>2013-09-21T12:38:01Z</time>
      </trkpt>
      <trkpt lat="45.75846" lon="2.75542">
        <ele>856.79998779297</ele>
        <time>2013-09-21T12:38:08Z</time>
      </trkpt>
      <trkpt lat="45.7583" lon="2.75515">
        <ele>856.79998779297</ele>
        <time>2013-09-21T12:38:13Z</time>
      </trkpt>
      <trkpt lat="45.75817" lon="2.75494">
        <ele>856.79998779297</ele>
        <time>2013-09-21T12:38:18Z</time>
      </trkpt>
      <trkpt lat="45.75814" lon="2.75489">
        <ele>857.40002441406</ele>
        <time>2013-09-21T12:38:19Z</time>
      </trkpt>
      <trkpt lat="45.75809" lon="2.7548">
        <ele>858.20001220703</ele>
        <time>2013-09-21T12:38:21Z</time>
      </trkpt>
      <trkpt lat="45.75804" lon="2.7547">
        <ele>859.20001220703</ele>
        <time>2013-09-21T12:38:23Z</time>
      </trkpt>
      <trkpt lat="45.75797" lon="2.75459">
        <ele>859.20001220703</ele>
        <time>2013-09-21T12:38:25Z</time>
      </trkpt>
      <trkpt lat="45.75774" lon="2.75422">
        <ele>859.20001220703</ele>
        <time>2013-09-21T12:38:32Z</time>
      </trkpt>
      <trkpt lat="45.75756" lon="2.75391">
        <ele>859.20001220703</ele>
        <time>2013-09-21T12:38:38Z</time>
      </trkpt>
      <trkpt lat="45.75749" lon="2.7538">
        <ele>859.20001220703</ele>
        <time>2013-09-21T12:38:40Z</time>
      </trkpt>
      <trkpt lat="45.75729" lon="2.75349">
        <ele>859.20001220703</ele>
        <time>2013-09-21T12:38:46Z</time>
      </trkpt>
      <trkpt lat="45.75706" lon="2.7531">
        <ele>859.20001220703</ele>
        <time>2013-09-21T12:38:55Z</time>
      </trkpt>
      <trkpt lat="45.75702" lon="2.75304">
        <ele>859.20001220703</ele>
        <time>2013-09-21T12:38:57Z</time>
      </trkpt>
      <trkpt lat="45.75699" lon="2.75298">
        <ele>859.59997558594</ele>
        <time>2013-09-21T12:38:59Z</time>
      </trkpt>
      <trkpt lat="45.75692" lon="2.75289">
        <ele>861.40002441406</ele>
        <time>2013-09-21T12:39:03Z</time>
      </trkpt>
      <trkpt lat="45.75689" lon="2.75282">
        <ele>861.79998779297</ele>
        <time>2013-09-21T12:39:06Z</time>
      </trkpt>
      <trkpt lat="45.75686" lon="2.75279">
        <ele>862.59997558594</ele>
        <time>2013-09-21T12:39:08Z</time>
      </trkpt>
      <trkpt lat="45.75676" lon="2.75264">
        <ele>863.79998779297</ele>
        <time>2013-09-21T12:39:14Z</time>
      </trkpt>
      <trkpt lat="45.75673" lon="2.75259">
        <ele>864.59997558594</ele>
        <time>2013-09-21T12:39:16Z</time>
      </trkpt>
      <trkpt lat="45.75665" lon="2.75243">
        <ele>865.40002441406</ele>
        <time>2013-09-21T12:39:22Z</time>
      </trkpt>
      <trkpt lat="45.75653" lon="2.75223">
        <ele>865.79998779297</ele>
        <time>2013-09-21T12:39:30Z</time>
      </trkpt>
      <trkpt lat="45.7565" lon="2.75218">
        <ele>866.79998779297</ele>
        <time>2013-09-21T12:39:32Z</time>
      </trkpt>
      <trkpt lat="45.75648" lon="2.75215">
        <ele>867.20001220703</ele>
        <time>2013-09-21T12:39:33Z</time>
      </trkpt>
      <trkpt lat="45.75642" lon="2.752">
        <ele>867.59997558594</ele>
        <time>2013-09-21T12:39:39Z</time>
      </trkpt>
      <trkpt lat="45.75639" lon="2.75196">
        <ele>868</ele>
        <time>2013-09-21T12:39:41Z</time>
      </trkpt>
      <trkpt lat="45.75636" lon="2.75188">
        <ele>869.59997558594</ele>
        <time>2013-09-21T12:39:45Z</time>
      </trkpt>
      <trkpt lat="45.75631" lon="2.75179">
        <ele>871.20001220703</ele>
        <time>2013-09-21T12:39:50Z</time>
      </trkpt>
      <trkpt lat="45.75629" lon="2.75174">
        <ele>871.79998779297</ele>
        <time>2013-09-21T12:39:53Z</time>
      </trkpt>
      <trkpt lat="45.75627" lon="2.75166">
        <ele>872.20001220703</ele>
        <time>2013-09-21T12:39:57Z</time>
      </trkpt>
      <trkpt lat="45.75626" lon="2.75159">
        <ele>873.40002441406</ele>
        <time>2013-09-21T12:40:00Z</time>
      </trkpt>
      <trkpt lat="45.75622" lon="2.75147">
        <ele>873.79998779297</ele>
        <time>2013-09-21T12:40:06Z</time>
      </trkpt>
      <trkpt lat="45.7562" lon="2.75138">
        <ele>875</ele>
        <time>2013-09-21T12:40:10Z</time>
      </trkpt>
      <trkpt lat="45.75615" lon="2.75126">
        <ele>875.79998779297</ele>
        <time>2013-09-21T12:40:16Z</time>
      </trkpt>
      <trkpt lat="45.75613" lon="2.75117">
        <ele>876.20001220703</ele>
        <time>2013-09-21T12:40:20Z</time>
      </trkpt>
      <trkpt lat="45.7561" lon="2.75108">
        <ele>878</ele>
        <time>2013-09-21T12:40:24Z</time>
      </trkpt>
      <trkpt lat="45.75605" lon="2.75095">
        <ele>878.40002441406</ele>
        <time>2013-09-21T12:40:30Z</time>
      </trkpt>
      <trkpt lat="45.75604" lon="2.7509">
        <ele>879.20001220703</ele>
        <time>2013-09-21T12:40:32Z</time>
      </trkpt>
      <trkpt lat="45.75599" lon="2.75073">
        <ele>880</ele>
        <time>2013-09-21T12:40:39Z</time>
      </trkpt>
      <trkpt lat="45.75596" lon="2.75068">
        <ele>880</ele>
        <time>2013-09-21T12:40:41Z</time>
      </trkpt>
      <trkpt lat="45.75591" lon="2.7506">
        <ele>880</ele>
        <time>2013-09-21T12:40:44Z</time>
      </trkpt>
      <trkpt lat="45.75579" lon="2.75038">
        <ele>880</ele>
        <time>2013-09-21T12:40:50Z</time>
      </trkpt>
      <trkpt lat="45.75561" lon="2.75003">
        <ele>880</ele>
        <time>2013-09-21T12:40:57Z</time>
      </trkpt>
      <trkpt lat="45.75542" lon="2.74964">
        <ele>880</ele>
        <time>2013-09-21T12:41:04Z</time>
      </trkpt>
      <trkpt lat="45.75538" lon="2.74959">
        <ele>880</ele>
        <time>2013-09-21T12:41:05Z</time>
      </trkpt>
      <trkpt lat="45.75517" lon="2.74919">
        <ele>880</ele>
        <time>2013-09-21T12:41:12Z</time>
      </trkpt>
      <trkpt lat="45.75504" lon="2.74893">
        <ele>880.40002441406</ele>
        <time>2013-09-21T12:41:17Z</time>
      </trkpt>
      <trkpt lat="45.75502" lon="2.74888">
        <ele>881</ele>
        <time>2013-09-21T12:41:18Z</time>
      </trkpt>
      <trkpt lat="45.75499" lon="2.74877">
        <ele>881.79998779297</ele>
        <time>2013-09-21T12:41:20Z</time>
      </trkpt>
      <trkpt lat="45.7549" lon="2.74846">
        <ele>882.20001220703</ele>
        <time>2013-09-21T12:41:25Z</time>
      </trkpt>
      <trkpt lat="45.75477" lon="2.74786">
        <ele>882.20001220703</ele>
        <time>2013-09-21T12:41:34Z</time>
      </trkpt>
      <trkpt lat="45.75472" lon="2.74768">
        <ele>882.20001220703</ele>
        <time>2013-09-21T12:41:37Z</time>
      </trkpt>
      <trkpt lat="45.75465" lon="2.74762">
        <ele>882.20001220703</ele>
        <time>2013-09-21T12:41:39Z</time>
      </trkpt>
      <trkpt lat="45.75451" lon="2.74759">
        <ele>882.20001220703</ele>
        <time>2013-09-21T12:41:44Z</time>
      </trkpt>
      <trkpt lat="45.7544" lon="2.74751">
        <ele>882.20001220703</ele>
        <time>2013-09-21T12:41:48Z</time>
      </trkpt>
      <trkpt lat="45.75436" lon="2.74746">
        <ele>882.59997558594</ele>
        <time>2013-09-21T12:41:50Z</time>
      </trkpt>
      <trkpt lat="45.7543" lon="2.74742">
        <ele>883.40002441406</ele>
        <time>2013-09-21T12:41:52Z</time>
      </trkpt>
      <trkpt lat="45.75422" lon="2.7474">
        <ele>884.40002441406</ele>
        <time>2013-09-21T12:41:54Z</time>
      </trkpt>
      <trkpt lat="45.75414" lon="2.74741">
        <ele>884.40002441406</ele>
        <time>2013-09-21T12:41:56Z</time>
      </trkpt>
      <trkpt lat="45.75393" lon="2.74759">
        <ele>884.40002441406</ele>
        <time>2013-09-21T12:42:02Z</time>
      </trkpt>
      <trkpt lat="45.75374" lon="2.74779">
        <ele>884.40002441406</ele>
        <time>2013-09-21T12:42:06Z</time>
      </trkpt>
      <trkpt lat="45.75369" lon="2.74782">
        <ele>884.40002441406</ele>
        <time>2013-09-21T12:42:07Z</time>
      </trkpt>
      <trkpt lat="45.75339" lon="2.74799">
        <ele>884.40002441406</ele>
        <time>2013-09-21T12:42:13Z</time>
      </trkpt>
      <trkpt lat="45.75334" lon="2.748">
        <ele>884.40002441406</ele>
        <time>2013-09-21T12:42:14Z</time>
      </trkpt>
      <trkpt lat="45.7532" lon="2.74799">
        <ele>884.40002441406</ele>
        <time>2013-09-21T12:42:17Z</time>
      </trkpt>
      <trkpt lat="45.75296" lon="2.74793">
        <ele>884.40002441406</ele>
        <time>2013-09-21T12:42:22Z</time>
      </trkpt>
      <trkpt lat="45.75286" lon="2.74793">
        <ele>884.79998779297</ele>
        <time>2013-09-21T12:42:24Z</time>
      </trkpt>
      <trkpt lat="45.75275" lon="2.74794">
        <ele>885.59997558594</ele>
        <time>2013-09-21T12:42:26Z</time>
      </trkpt>
      <trkpt lat="45.75265" lon="2.74797">
        <ele>886.40002441406</ele>
        <time>2013-09-21T12:42:28Z</time>
      </trkpt>
      <trkpt lat="45.75255" lon="2.748">
        <ele>886.40002441406</ele>
        <time>2013-09-21T12:42:30Z</time>
      </trkpt>
      <trkpt lat="45.75222" lon="2.74814">
        <ele>886.40002441406</ele>
        <time>2013-09-21T12:42:37Z</time>
      </trkpt>
      <trkpt lat="45.75206" lon="2.74827">
        <ele>886.40002441406</ele>
        <time>2013-09-21T12:42:41Z</time>
      </trkpt>
      <trkpt lat="45.75195" lon="2.74837">
        <ele>886.79998779297</ele>
        <time>2013-09-21T12:42:44Z</time>
      </trkpt>
      <trkpt lat="45.75191" lon="2.74841">
        <ele>887.20001220703</ele>
        <time>2013-09-21T12:42:45Z</time>
      </trkpt>
      <trkpt lat="45.75188" lon="2.74845">
        <ele>887.79998779297</ele>
        <time>2013-09-21T12:42:46Z</time>
      </trkpt>
      <trkpt lat="45.75182" lon="2.74854">
        <ele>888.59997558594</ele>
        <time>2013-09-21T12:42:48Z</time>
      </trkpt>
      <trkpt lat="45.75174" lon="2.74867">
        <ele>888.59997558594</ele>
        <time>2013-09-21T12:42:51Z</time>
      </trkpt>
      <trkpt lat="45.75163" lon="2.74886">
        <ele>889</ele>
        <time>2013-09-21T12:42:55Z</time>
      </trkpt>
      <trkpt lat="45.75161" lon="2.74891">
        <ele>889.40002441406</ele>
        <time>2013-09-21T12:42:56Z</time>
      </trkpt>
      <trkpt lat="45.75158" lon="2.74895">
        <ele>889.79998779297</ele>
        <time>2013-09-21T12:42:57Z</time>
      </trkpt>
      <trkpt lat="45.75154" lon="2.74904">
        <ele>890.59997558594</ele>
        <time>2013-09-21T12:42:59Z</time>
      </trkpt>
      <trkpt lat="45.75131" lon="2.7495">
        <ele>890.59997558594</ele>
        <time>2013-09-21T12:43:08Z</time>
      </trkpt>
      <trkpt lat="45.75113" lon="2.74983">
        <ele>891</ele>
        <time>2013-09-21T12:43:15Z</time>
      </trkpt>
      <trkpt lat="45.75107" lon="2.74992">
        <ele>891.79998779297</ele>
        <time>2013-09-21T12:43:17Z</time>
      </trkpt>
      <trkpt lat="45.75091" lon="2.7501">
        <ele>892.59997558594</ele>
        <time>2013-09-21T12:43:22Z</time>
      </trkpt>
      <trkpt lat="45.75081" lon="2.75023">
        <ele>892.59997558594</ele>
        <time>2013-09-21T12:43:25Z</time>
      </trkpt>
      <trkpt lat="45.75046" lon="2.75055">
        <ele>892.59997558594</ele>
        <time>2013-09-21T12:43:34Z</time>
      </trkpt>
      <trkpt lat="45.75023" lon="2.75078">
        <ele>893</ele>
        <time>2013-09-21T12:43:40Z</time>
      </trkpt>
      <trkpt lat="45.7502" lon="2.75082">
        <ele>893.40002441406</ele>
        <time>2013-09-21T12:43:41Z</time>
      </trkpt>
      <trkpt lat="45.75008" lon="2.75093">
        <ele>894.59997558594</ele>
        <time>2013-09-21T12:43:44Z</time>
      </trkpt>
      <trkpt lat="45.74983" lon="2.75116">
        <ele>894.59997558594</ele>
        <time>2013-09-21T12:43:51Z</time>
      </trkpt>
      <trkpt lat="45.74966" lon="2.75132">
        <ele>895.20001220703</ele>
        <time>2013-09-21T12:43:56Z</time>
      </trkpt>
      <trkpt lat="45.74958" lon="2.75138">
        <ele>896</ele>
        <time>2013-09-21T12:43:58Z</time>
      </trkpt>
      <trkpt lat="45.74955" lon="2.75142">
        <ele>896.40002441406</ele>
        <time>2013-09-21T12:43:59Z</time>
      </trkpt>
      <trkpt lat="45.74948" lon="2.75148">
        <ele>897</ele>
        <time>2013-09-21T12:44:01Z</time>
      </trkpt>
      <trkpt lat="45.74929" lon="2.75169">
        <ele>897.40002441406</ele>
        <time>2013-09-21T12:44:07Z</time>
      </trkpt>
      <trkpt lat="45.74926" lon="2.75173">
        <ele>897.79998779297</ele>
        <time>2013-09-21T12:44:08Z</time>
      </trkpt>
      <trkpt lat="45.74921" lon="2.75181">
        <ele>898.59997558594</ele>
        <time>2013-09-21T12:44:10Z</time>
      </trkpt>
      <trkpt lat="45.74918" lon="2.75185">
        <ele>899.20001220703</ele>
        <time>2013-09-21T12:44:11Z</time>
      </trkpt>
      <trkpt lat="45.74905" lon="2.75211">
        <ele>899.59997558594</ele>
        <time>2013-09-21T12:44:17Z</time>
      </trkpt>
      <trkpt lat="45.749" lon="2.75225">
        <ele>900.79998779297</ele>
        <time>2013-09-21T12:44:20Z</time>
      </trkpt>
      <trkpt lat="45.74898" lon="2.75229">
        <ele>901.20001220703</ele>
        <time>2013-09-21T12:44:21Z</time>
      </trkpt>
      <trkpt lat="45.74887" lon="2.75253">
        <ele>901.20001220703</ele>
        <time>2013-09-21T12:44:26Z</time>
      </trkpt>
      <trkpt lat="45.74879" lon="2.75278">
        <ele>901.59997558594</ele>
        <time>2013-09-21T12:44:31Z</time>
      </trkpt>
      <trkpt lat="45.74878" lon="2.75283">
        <ele>902</ele>
        <time>2013-09-21T12:44:32Z</time>
      </trkpt>
      <trkpt lat="45.74874" lon="2.75294">
        <ele>903</ele>
        <time>2013-09-21T12:44:34Z</time>
      </trkpt>
      <trkpt lat="45.74871" lon="2.75304">
        <ele>903.40002441406</ele>
        <time>2013-09-21T12:44:36Z</time>
      </trkpt>
      <trkpt lat="45.74852" lon="2.75351">
        <ele>903.40002441406</ele>
        <time>2013-09-21T12:44:46Z</time>
      </trkpt>
      <trkpt lat="45.74839" lon="2.75375">
        <ele>903.79998779297</ele>
        <time>2013-09-21T12:44:52Z</time>
      </trkpt>
      <trkpt lat="45.74836" lon="2.75383">
        <ele>904.59997558594</ele>
        <time>2013-09-21T12:44:54Z</time>
      </trkpt>
      <trkpt lat="45.74832" lon="2.75392">
        <ele>905.40002441406</ele>
        <time>2013-09-21T12:44:56Z</time>
      </trkpt>
      <trkpt lat="45.7481" lon="2.75433">
        <ele>905.40002441406</ele>
        <time>2013-09-21T12:45:05Z</time>
      </trkpt>
      <trkpt lat="45.74803" lon="2.75446">
        <ele>905.79998779297</ele>
        <time>2013-09-21T12:45:08Z</time>
      </trkpt>
      <trkpt lat="45.74801" lon="2.75452">
        <ele>906.20001220703</ele>
        <time>2013-09-21T12:45:09Z</time>
      </trkpt>
      <trkpt lat="45.74798" lon="2.75456">
        <ele>906.59997558594</ele>
        <time>2013-09-21T12:45:10Z</time>
      </trkpt>
      <trkpt lat="45.74796" lon="2.75461">
        <ele>907</ele>
        <time>2013-09-21T12:45:11Z</time>
      </trkpt>
      <trkpt lat="45.74787" lon="2.75472">
        <ele>907.40002441406</ele>
        <time>2013-09-21T12:45:14Z</time>
      </trkpt>
      <trkpt lat="45.74774" lon="2.75486">
        <ele>907.79998779297</ele>
        <time>2013-09-21T12:45:18Z</time>
      </trkpt>
      <trkpt lat="45.74768" lon="2.75493">
        <ele>908.59997558594</ele>
        <time>2013-09-21T12:45:20Z</time>
      </trkpt>
      <trkpt lat="45.74751" lon="2.75509">
        <ele>909.40002441406</ele>
        <time>2013-09-21T12:45:25Z</time>
      </trkpt>
      <trkpt lat="45.74718" lon="2.75537">
        <ele>909.40002441406</ele>
        <time>2013-09-21T12:45:35Z</time>
      </trkpt>
      <trkpt lat="45.74699" lon="2.75542">
        <ele>909.79998779297</ele>
        <time>2013-09-21T12:45:40Z</time>
      </trkpt>
      <trkpt lat="45.74689" lon="2.75543">
        <ele>911</ele>
        <time>2013-09-21T12:45:43Z</time>
      </trkpt>
      <trkpt lat="45.74676" lon="2.75555">
        <ele>911.40002441406</ele>
        <time>2013-09-21T12:45:47Z</time>
      </trkpt>
      <trkpt lat="45.74657" lon="2.75587">
        <ele>911.40002441406</ele>
        <time>2013-09-21T12:45:53Z</time>
      </trkpt>
      <trkpt lat="45.7464" lon="2.75616">
        <ele>911</ele>
        <time>2013-09-21T12:45:58Z</time>
      </trkpt>
      <trkpt lat="45.74636" lon="2.75622">
        <ele>910.59997558594</ele>
        <time>2013-09-21T12:45:59Z</time>
      </trkpt>
      <trkpt lat="45.7463" lon="2.75632">
        <ele>909.59997558594</ele>
        <time>2013-09-21T12:46:01Z</time>
      </trkpt>
      <trkpt lat="45.74628" lon="2.75638">
        <ele>909.20001220703</ele>
        <time>2013-09-21T12:46:02Z</time>
      </trkpt>
      <trkpt lat="45.74626" lon="2.75644">
        <ele>909.20001220703</ele>
        <time>2013-09-21T12:46:03Z</time>
      </trkpt>
      <trkpt lat="45.7462" lon="2.75656">
        <ele>909.20001220703</ele>
        <time>2013-09-21T12:46:05Z</time>
      </trkpt>
      <trkpt lat="45.74614" lon="2.75668">
        <ele>909.20001220703</ele>
        <time>2013-09-21T12:46:07Z</time>
      </trkpt>
      <trkpt lat="45.74601" lon="2.75687">
        <ele>909.20001220703</ele>
        <time>2013-09-21T12:46:10Z</time>
      </trkpt>
      <trkpt lat="45.74577" lon="2.75726">
        <ele>909.20001220703</ele>
        <time>2013-09-21T12:46:16Z</time>
      </trkpt>
      <trkpt lat="45.74551" lon="2.75772">
        <ele>909.20001220703</ele>
        <time>2013-09-21T12:46:24Z</time>
      </trkpt>
      <trkpt lat="45.74536" lon="2.75793">
        <ele>909.20001220703</ele>
        <time>2013-09-21T12:46:30Z</time>
      </trkpt>
      <trkpt lat="45.74519" lon="2.75819">
        <ele>909.59997558594</ele>
        <time>2013-09-21T12:46:37Z</time>
      </trkpt>
      <trkpt lat="45.74517" lon="2.75822">
        <ele>910</ele>
        <time>2013-09-21T12:46:38Z</time>
      </trkpt>
      <trkpt lat="45.74511" lon="2.75832">
        <ele>911.20001220703</ele>
        <time>2013-09-21T12:46:41Z</time>
      </trkpt>
      <trkpt lat="45.74502" lon="2.75847">
        <ele>911.79998779297</ele>
        <time>2013-09-21T12:46:46Z</time>
      </trkpt>
      <trkpt lat="45.74501" lon="2.75851">
        <ele>912.20001220703</ele>
        <time>2013-09-21T12:46:47Z</time>
      </trkpt>
      <trkpt lat="45.74499" lon="2.75854">
        <ele>912.59997558594</ele>
        <time>2013-09-21T12:46:48Z</time>
      </trkpt>
      <trkpt lat="45.74496" lon="2.75861">
        <ele>913.59997558594</ele>
        <time>2013-09-21T12:46:50Z</time>
      </trkpt>
      <trkpt lat="45.74483" lon="2.75885">
        <ele>914</ele>
        <time>2013-09-21T12:46:57Z</time>
      </trkpt>
      <trkpt lat="45.7448" lon="2.75893">
        <ele>914.79998779297</ele>
        <time>2013-09-21T12:46:59Z</time>
      </trkpt>
      <trkpt lat="45.74476" lon="2.75902">
        <ele>915.59997558594</ele>
        <time>2013-09-21T12:47:01Z</time>
      </trkpt>
      <trkpt lat="45.74472" lon="2.75912">
        <ele>915.59997558594</ele>
        <time>2013-09-21T12:47:03Z</time>
      </trkpt>
      <trkpt lat="45.74454" lon="2.7595">
        <ele>915.59997558594</ele>
        <time>2013-09-21T12:47:10Z</time>
      </trkpt>
      <trkpt lat="45.7443" lon="2.76001">
        <ele>915.59997558594</ele>
        <time>2013-09-21T12:47:19Z</time>
      </trkpt>
      <trkpt lat="45.74414" lon="2.76039">
        <ele>915.59997558594</ele>
        <time>2013-09-21T12:47:27Z</time>
      </trkpt>
      <trkpt lat="45.74397" lon="2.76071">
        <ele>915.59997558594</ele>
        <time>2013-09-21T12:47:33Z</time>
      </trkpt>
      <trkpt lat="45.74379" lon="2.76103">
        <ele>916</ele>
        <time>2013-09-21T12:47:39Z</time>
      </trkpt>
      <trkpt lat="45.74375" lon="2.76114">
        <ele>917</ele>
        <time>2013-09-21T12:47:41Z</time>
      </trkpt>
      <trkpt lat="45.74371" lon="2.76122">
        <ele>917.79998779297</ele>
        <time>2013-09-21T12:47:43Z</time>
      </trkpt>
      <trkpt lat="45.74364" lon="2.76136">
        <ele>917.79998779297</ele>
        <time>2013-09-21T12:47:47Z</time>
      </trkpt>
      <trkpt lat="45.74362" lon="2.76142">
        <ele>918.59997558594</ele>
        <time>2013-09-21T12:47:49Z</time>
      </trkpt>
      <trkpt lat="45.7436" lon="2.76145">
        <ele>919.20001220703</ele>
        <time>2013-09-21T12:47:50Z</time>
      </trkpt>
      <trkpt lat="45.74356" lon="2.76152">
        <ele>920</ele>
        <time>2013-09-21T12:47:52Z</time>
      </trkpt>
      <trkpt lat="45.74349" lon="2.76165">
        <ele>920</ele>
        <time>2013-09-21T12:47:56Z</time>
      </trkpt>
      <trkpt lat="45.74339" lon="2.7619">
        <ele>920.40002441406</ele>
        <time>2013-09-21T12:48:02Z</time>
      </trkpt>
      <trkpt lat="45.74332" lon="2.76205">
        <ele>921.59997558594</ele>
        <time>2013-09-21T12:48:05Z</time>
      </trkpt>
      <trkpt lat="45.74329" lon="2.7621">
        <ele>922</ele>
        <time>2013-09-21T12:48:06Z</time>
      </trkpt>
      <trkpt lat="45.74313" lon="2.76245">
        <ele>922</ele>
        <time>2013-09-21T12:48:13Z</time>
      </trkpt>
      <trkpt lat="45.74288" lon="2.76296">
        <ele>922</ele>
        <time>2013-09-21T12:48:22Z</time>
      </trkpt>
      <trkpt lat="45.74264" lon="2.76347">
        <ele>922</ele>
        <time>2013-09-21T12:48:29Z</time>
      </trkpt>
      <trkpt lat="45.74246" lon="2.76385">
        <ele>921.59997558594</ele>
        <time>2013-09-21T12:48:34Z</time>
      </trkpt>
      <trkpt lat="45.74243" lon="2.76392">
        <ele>921.20001220703</ele>
        <time>2013-09-21T12:48:35Z</time>
      </trkpt>
      <trkpt lat="45.74238" lon="2.76403">
        <ele>920.40002441406</ele>
        <time>2013-09-21T12:48:37Z</time>
      </trkpt>
      <trkpt lat="45.74223" lon="2.76435">
        <ele>919.79998779297</ele>
        <time>2013-09-21T12:48:43Z</time>
      </trkpt>
      <trkpt lat="45.74219" lon="2.76447">
        <ele>919.79998779297</ele>
        <time>2013-09-21T12:48:45Z</time>
      </trkpt>
      <trkpt lat="45.74217" lon="2.76463">
        <ele>919.79998779297</ele>
        <time>2013-09-21T12:48:47Z</time>
      </trkpt>
      <trkpt lat="45.74217" lon="2.76479">
        <ele>919.79998779297</ele>
        <time>2013-09-21T12:48:49Z</time>
      </trkpt>
      <trkpt lat="45.74216" lon="2.76512">
        <ele>919.79998779297</ele>
        <time>2013-09-21T12:48:53Z</time>
      </trkpt>
      <trkpt lat="45.74215" lon="2.76526">
        <ele>919.79998779297</ele>
        <time>2013-09-21T12:48:55Z</time>
      </trkpt>
      <trkpt lat="45.7421" lon="2.76535">
        <ele>919.79998779297</ele>
        <time>2013-09-21T12:48:57Z</time>
      </trkpt>
      <trkpt lat="45.74191" lon="2.76546">
        <ele>920.20001220703</ele>
        <time>2013-09-21T12:49:01Z</time>
      </trkpt>
      <trkpt lat="45.74187" lon="2.76549">
        <ele>920.79998779297</ele>
        <time>2013-09-21T12:49:02Z</time>
      </trkpt>
      <trkpt lat="45.74182" lon="2.76552">
        <ele>921.20001220703</ele>
        <time>2013-09-21T12:49:03Z</time>
      </trkpt>
      <trkpt lat="45.74178" lon="2.76555">
        <ele>921.59997558594</ele>
        <time>2013-09-21T12:49:04Z</time>
      </trkpt>
      <trkpt lat="45.74144" lon="2.76577">
        <ele>922</ele>
        <time>2013-09-21T12:49:11Z</time>
      </trkpt>
      <trkpt lat="45.74135" lon="2.76585">
        <ele>922</ele>
        <time>2013-09-21T12:49:13Z</time>
      </trkpt>
      <trkpt lat="45.74117" lon="2.76603">
        <ele>922</ele>
        <time>2013-09-21T12:49:17Z</time>
      </trkpt>
      <trkpt lat="45.74084" lon="2.76636">
        <ele>922</ele>
        <time>2013-09-21T12:49:25Z</time>
      </trkpt>
      <trkpt lat="45.74047" lon="2.76665">
        <ele>922</ele>
        <time>2013-09-21T12:49:33Z</time>
      </trkpt>
      <trkpt lat="45.74002" lon="2.76694">
        <ele>922</ele>
        <time>2013-09-21T12:49:42Z</time>
      </trkpt>
      <trkpt lat="45.7399" lon="2.76695">
        <ele>922</ele>
        <time>2013-09-21T12:49:44Z</time>
      </trkpt>
      <trkpt lat="45.7398" lon="2.76689">
        <ele>922</ele>
        <time>2013-09-21T12:49:46Z</time>
      </trkpt>
      <trkpt lat="45.73966" lon="2.76662">
        <ele>922</ele>
        <time>2013-09-21T12:49:49Z</time>
      </trkpt>
      <trkpt lat="45.73961" lon="2.76653">
        <ele>922</ele>
        <time>2013-09-21T12:49:50Z</time>
      </trkpt>
      <trkpt lat="45.73946" lon="2.76626">
        <ele>921.59997558594</ele>
        <time>2013-09-21T12:49:53Z</time>
      </trkpt>
      <trkpt lat="45.73941" lon="2.76618">
        <ele>921</ele>
        <time>2013-09-21T12:49:54Z</time>
      </trkpt>
      <trkpt lat="45.73935" lon="2.76608">
        <ele>920.59997558594</ele>
        <time>2013-09-21T12:49:55Z</time>
      </trkpt>
      <trkpt lat="45.73929" lon="2.76599">
        <ele>920.20001220703</ele>
        <time>2013-09-21T12:49:56Z</time>
      </trkpt>
      <trkpt lat="45.73923" lon="2.76589">
        <ele>919.79998779297</ele>
        <time>2013-09-21T12:49:57Z</time>
      </trkpt>
      <trkpt lat="45.73917" lon="2.76579">
        <ele>919.40002441406</ele>
        <time>2013-09-21T12:49:58Z</time>
      </trkpt>
      <trkpt lat="45.73911" lon="2.76569">
        <ele>919</ele>
        <time>2013-09-21T12:49:59Z</time>
      </trkpt>
      <trkpt lat="45.73905" lon="2.76559">
        <ele>918.59997558594</ele>
        <time>2013-09-21T12:50:00Z</time>
      </trkpt>
      <trkpt lat="45.73899" lon="2.76549">
        <ele>918.20001220703</ele>
        <time>2013-09-21T12:50:01Z</time>
      </trkpt>
      <trkpt lat="45.73893" lon="2.76539">
        <ele>917.79998779297</ele>
        <time>2013-09-21T12:50:02Z</time>
      </trkpt>
      <trkpt lat="45.7386" lon="2.7649">
        <ele>917.79998779297</ele>
        <time>2013-09-21T12:50:07Z</time>
      </trkpt>
      <trkpt lat="45.73852" lon="2.76483">
        <ele>917.20001220703</ele>
        <time>2013-09-21T12:50:08Z</time>
      </trkpt>
      <trkpt lat="45.73843" lon="2.76476">
        <ele>916.59997558594</ele>
        <time>2013-09-21T12:50:09Z</time>
      </trkpt>
      <trkpt lat="45.73835" lon="2.7647">
        <ele>916.20001220703</ele>
        <time>2013-09-21T12:50:10Z</time>
      </trkpt>
      <trkpt lat="45.73827" lon="2.76463">
        <ele>915.59997558594</ele>
        <time>2013-09-21T12:50:11Z</time>
      </trkpt>
      <trkpt lat="45.73819" lon="2.76456">
        <ele>915</ele>
        <time>2013-09-21T12:50:12Z</time>
      </trkpt>
      <trkpt lat="45.73799" lon="2.76434">
        <ele>915</ele>
        <time>2013-09-21T12:50:15Z</time>
      </trkpt>
      <trkpt lat="45.7377" lon="2.76391">
        <ele>915</ele>
        <time>2013-09-21T12:50:20Z</time>
      </trkpt>
      <trkpt lat="45.7376" lon="2.76351">
        <ele>915</ele>
        <time>2013-09-21T12:50:24Z</time>
      </trkpt>
      <trkpt lat="45.7374" lon="2.76275">
        <ele>915</ele>
        <time>2013-09-21T12:50:32Z</time>
      </trkpt>
      <trkpt lat="45.73717" lon="2.76202">
        <ele>915</ele>
        <time>2013-09-21T12:50:40Z</time>
      </trkpt>
      <trkpt lat="45.73713" lon="2.76193">
        <ele>915</ele>
        <time>2013-09-21T12:50:41Z</time>
      </trkpt>
      <trkpt lat="45.73706" lon="2.76176">
        <ele>915</ele>
        <time>2013-09-21T12:50:43Z</time>
      </trkpt>
      <trkpt lat="45.73696" lon="2.76161">
        <ele>915</ele>
        <time>2013-09-21T12:50:45Z</time>
      </trkpt>
      <trkpt lat="45.73681" lon="2.7614">
        <ele>915</ele>
        <time>2013-09-21T12:50:48Z</time>
      </trkpt>
      <trkpt lat="45.7367" lon="2.76126">
        <ele>915</ele>
        <time>2013-09-21T12:50:50Z</time>
      </trkpt>
      <trkpt lat="45.73657" lon="2.76118">
        <ele>914.59997558594</ele>
        <time>2013-09-21T12:50:52Z</time>
      </trkpt>
      <trkpt lat="45.73643" lon="2.76118">
        <ele>913.79998779297</ele>
        <time>2013-09-21T12:50:54Z</time>
      </trkpt>
      <trkpt lat="45.73635" lon="2.76117">
        <ele>913.40002441406</ele>
        <time>2013-09-21T12:50:55Z</time>
      </trkpt>
      <trkpt lat="45.73628" lon="2.76115">
        <ele>913</ele>
        <time>2013-09-21T12:50:56Z</time>
      </trkpt>
      <trkpt lat="45.73613" lon="2.76113">
        <ele>913</ele>
        <time>2013-09-21T12:50:58Z</time>
      </trkpt>
      <trkpt lat="45.73569" lon="2.76105">
        <ele>913</ele>
        <time>2013-09-21T12:51:04Z</time>
      </trkpt>
      <trkpt lat="45.73539" lon="2.76098">
        <ele>913</ele>
        <time>2013-09-21T12:51:09Z</time>
      </trkpt>
      <trkpt lat="45.73519" lon="2.76096">
        <ele>913</ele>
        <time>2013-09-21T12:51:12Z</time>
      </trkpt>
      <trkpt lat="45.73506" lon="2.76101">
        <ele>913</ele>
        <time>2013-09-21T12:51:14Z</time>
      </trkpt>
      <trkpt lat="45.73493" lon="2.76107">
        <ele>913</ele>
        <time>2013-09-21T12:51:16Z</time>
      </trkpt>
      <trkpt lat="45.73462" lon="2.76119">
        <ele>913</ele>
        <time>2013-09-21T12:51:20Z</time>
      </trkpt>
      <trkpt lat="45.73429" lon="2.76133">
        <ele>912.59997558594</ele>
        <time>2013-09-21T12:51:24Z</time>
      </trkpt>
      <trkpt lat="45.73414" lon="2.76143">
        <ele>911.79998779297</ele>
        <time>2013-09-21T12:51:26Z</time>
      </trkpt>
      <trkpt lat="45.73405" lon="2.76146">
        <ele>911.20001220703</ele>
        <time>2013-09-21T12:51:27Z</time>
      </trkpt>
      <trkpt lat="45.73397" lon="2.7615">
        <ele>910.79998779297</ele>
        <time>2013-09-21T12:51:28Z</time>
      </trkpt>
      <trkpt lat="45.73388" lon="2.76153">
        <ele>910.20001220703</ele>
        <time>2013-09-21T12:51:29Z</time>
      </trkpt>
      <trkpt lat="45.7338" lon="2.76157">
        <ele>909.59997558594</ele>
        <time>2013-09-21T12:51:30Z</time>
      </trkpt>
      <trkpt lat="45.73371" lon="2.76162">
        <ele>909</ele>
        <time>2013-09-21T12:51:31Z</time>
      </trkpt>
      <trkpt lat="45.73362" lon="2.76166">
        <ele>908.40002441406</ele>
        <time>2013-09-21T12:51:32Z</time>
      </trkpt>
      <trkpt lat="45.73353" lon="2.7617">
        <ele>907.59997558594</ele>
        <time>2013-09-21T12:51:33Z</time>
      </trkpt>
      <trkpt lat="45.73344" lon="2.76174">
        <ele>907</ele>
        <time>2013-09-21T12:51:34Z</time>
      </trkpt>
      <trkpt lat="45.73335" lon="2.76177">
        <ele>906.20001220703</ele>
        <time>2013-09-21T12:51:35Z</time>
      </trkpt>
      <trkpt lat="45.73326" lon="2.7618">
        <ele>905.59997558594</ele>
        <time>2013-09-21T12:51:36Z</time>
      </trkpt>
      <trkpt lat="45.73317" lon="2.76184">
        <ele>904.79998779297</ele>
        <time>2013-09-21T12:51:37Z</time>
      </trkpt>
      <trkpt lat="45.73305" lon="2.76188">
        <ele>903</ele>
        <time>2013-09-21T12:51:39Z</time>
      </trkpt>
      <trkpt lat="45.73301" lon="2.76191">
        <ele>902</ele>
        <time>2013-09-21T12:51:40Z</time>
      </trkpt>
      <trkpt lat="45.73296" lon="2.76196">
        <ele>901</ele>
        <time>2013-09-21T12:51:41Z</time>
      </trkpt>
      <trkpt lat="45.73293" lon="2.76205">
        <ele>900</ele>
        <time>2013-09-21T12:51:42Z</time>
      </trkpt>
      <trkpt lat="45.73293" lon="2.76215">
        <ele>899</ele>
        <time>2013-09-21T12:51:43Z</time>
      </trkpt>
      <trkpt lat="45.73294" lon="2.76226">
        <ele>898</ele>
        <time>2013-09-21T12:51:44Z</time>
      </trkpt>
      <trkpt lat="45.73295" lon="2.76238">
        <ele>897</ele>
        <time>2013-09-21T12:51:45Z</time>
      </trkpt>
      <trkpt lat="45.73298" lon="2.76249">
        <ele>896.20001220703</ele>
        <time>2013-09-21T12:51:46Z</time>
      </trkpt>
      <trkpt lat="45.733" lon="2.76262">
        <ele>895.20001220703</ele>
        <time>2013-09-21T12:51:47Z</time>
      </trkpt>
      <trkpt lat="45.73302" lon="2.76275">
        <ele>894.40002441406</ele>
        <time>2013-09-21T12:51:48Z</time>
      </trkpt>
      <trkpt lat="45.73306" lon="2.76288">
        <ele>893.59997558594</ele>
        <time>2013-09-21T12:51:49Z</time>
      </trkpt>
      <trkpt lat="45.73308" lon="2.763">
        <ele>893</ele>
        <time>2013-09-21T12:51:50Z</time>
      </trkpt>
      <trkpt lat="45.73311" lon="2.76314">
        <ele>892.40002441406</ele>
        <time>2013-09-21T12:51:51Z</time>
      </trkpt>
      <trkpt lat="45.73314" lon="2.76328">
        <ele>891.59997558594</ele>
        <time>2013-09-21T12:51:52Z</time>
      </trkpt>
      <trkpt lat="45.73317" lon="2.76341">
        <ele>891</ele>
        <time>2013-09-21T12:51:53Z</time>
      </trkpt>
      <trkpt lat="45.7332" lon="2.76356">
        <ele>890.40002441406</ele>
        <time>2013-09-21T12:51:54Z</time>
      </trkpt>
      <trkpt lat="45.73322" lon="2.7637">
        <ele>889.79998779297</ele>
        <time>2013-09-21T12:51:55Z</time>
      </trkpt>
      <trkpt lat="45.73324" lon="2.76384">
        <ele>889.20001220703</ele>
        <time>2013-09-21T12:51:56Z</time>
      </trkpt>
      <trkpt lat="45.73326" lon="2.76398">
        <ele>888.40002441406</ele>
        <time>2013-09-21T12:51:57Z</time>
      </trkpt>
      <trkpt lat="45.73327" lon="2.76408">
        <ele>887.79998779297</ele>
        <time>2013-09-21T12:51:58Z</time>
      </trkpt>
      <trkpt lat="45.73328" lon="2.76417">
        <ele>887.20001220703</ele>
        <time>2013-09-21T12:51:59Z</time>
      </trkpt>
      <trkpt lat="45.73328" lon="2.76421">
        <ele>886.59997558594</ele>
        <time>2013-09-21T12:52:00Z</time>
      </trkpt>
      <trkpt lat="45.73322" lon="2.76416">
        <ele>883.79998779297</ele>
        <time>2013-09-21T12:52:04Z</time>
      </trkpt>
      <trkpt lat="45.73315" lon="2.76395">
        <ele>883.40002441406</ele>
        <time>2013-09-21T12:52:08Z</time>
      </trkpt>
      <trkpt lat="45.73313" lon="2.76389">
        <ele>883</ele>
        <time>2013-09-21T12:52:09Z</time>
      </trkpt>
      <trkpt lat="45.73309" lon="2.76377">
        <ele>882.20001220703</ele>
        <time>2013-09-21T12:52:11Z</time>
      </trkpt>
      <trkpt lat="45.73304" lon="2.76364">
        <ele>881.20001220703</ele>
        <time>2013-09-21T12:52:13Z</time>
      </trkpt>
      <trkpt lat="45.73299" lon="2.76356">
        <ele>880.59997558594</ele>
        <time>2013-09-21T12:52:14Z</time>
      </trkpt>
      <trkpt lat="45.73294" lon="2.76349">
        <ele>880.20001220703</ele>
        <time>2013-09-21T12:52:15Z</time>
      </trkpt>
      <trkpt lat="45.73287" lon="2.7634">
        <ele>879.59997558594</ele>
        <time>2013-09-21T12:52:16Z</time>
      </trkpt>
      <trkpt lat="45.7328" lon="2.7633">
        <ele>879.20001220703</ele>
        <time>2013-09-21T12:52:17Z</time>
      </trkpt>
      <trkpt lat="45.73273" lon="2.76322">
        <ele>878.59997558594</ele>
        <time>2013-09-21T12:52:18Z</time>
      </trkpt>
      <trkpt lat="45.73265" lon="2.76312">
        <ele>878</ele>
        <time>2013-09-21T12:52:19Z</time>
      </trkpt>
      <trkpt lat="45.73257" lon="2.76303">
        <ele>877.40002441406</ele>
        <time>2013-09-21T12:52:20Z</time>
      </trkpt>
      <trkpt lat="45.7325" lon="2.76292">
        <ele>876.79998779297</ele>
        <time>2013-09-21T12:52:21Z</time>
      </trkpt>
      <trkpt lat="45.73244" lon="2.76283">
        <ele>876.20001220703</ele>
        <time>2013-09-21T12:52:22Z</time>
      </trkpt>
      <trkpt lat="45.73236" lon="2.76274">
        <ele>875.40002441406</ele>
        <time>2013-09-21T12:52:23Z</time>
      </trkpt>
      <trkpt lat="45.73222" lon="2.76257">
        <ele>874.40002441406</ele>
        <time>2013-09-21T12:52:25Z</time>
      </trkpt>
      <trkpt lat="45.73216" lon="2.7625">
        <ele>873.20001220703</ele>
        <time>2013-09-21T12:52:26Z</time>
      </trkpt>
      <trkpt lat="45.73206" lon="2.76236">
        <ele>870.59997558594</ele>
        <time>2013-09-21T12:52:28Z</time>
      </trkpt>
      <trkpt lat="45.73199" lon="2.76225">
        <ele>867.79998779297</ele>
        <time>2013-09-21T12:52:30Z</time>
      </trkpt>
      <trkpt lat="45.73195" lon="2.7622">
        <ele>866.40002441406</ele>
        <time>2013-09-21T12:52:31Z</time>
      </trkpt>
      <trkpt lat="45.73189" lon="2.76211">
        <ele>864</ele>
        <time>2013-09-21T12:52:33Z</time>
      </trkpt>
      <trkpt lat="45.73187" lon="2.76208">
        <ele>863</ele>
        <time>2013-09-21T12:52:34Z</time>
      </trkpt>
      <trkpt lat="45.73179" lon="2.76197">
        <ele>859.40002441406</ele>
        <time>2013-09-21T12:52:38Z</time>
      </trkpt>
      <trkpt lat="45.7317" lon="2.76186">
        <ele>858.20001220703</ele>
        <time>2013-09-21T12:52:41Z</time>
      </trkpt>
      <trkpt lat="45.73167" lon="2.7618">
        <ele>857.59997558594</ele>
        <time>2013-09-21T12:52:42Z</time>
      </trkpt>
      <trkpt lat="45.73164" lon="2.76176">
        <ele>857</ele>
        <time>2013-09-21T12:52:43Z</time>
      </trkpt>
      <trkpt lat="45.73158" lon="2.76168">
        <ele>856</ele>
        <time>2013-09-21T12:52:45Z</time>
      </trkpt>
      <trkpt lat="45.73149" lon="2.76159">
        <ele>854.79998779297</ele>
        <time>2013-09-21T12:52:47Z</time>
      </trkpt>
      <trkpt lat="45.73141" lon="2.76149">
        <ele>853.59997558594</ele>
        <time>2013-09-21T12:52:49Z</time>
      </trkpt>
      <trkpt lat="45.73137" lon="2.76143">
        <ele>852.79998779297</ele>
        <time>2013-09-21T12:52:50Z</time>
      </trkpt>
      <trkpt lat="45.73134" lon="2.76136">
        <ele>852.20001220703</ele>
        <time>2013-09-21T12:52:51Z</time>
      </trkpt>
      <trkpt lat="45.73128" lon="2.76126">
        <ele>850.79998779297</ele>
        <time>2013-09-21T12:52:53Z</time>
      </trkpt>
      <trkpt lat="45.73122" lon="2.76116">
        <ele>849.40002441406</ele>
        <time>2013-09-21T12:52:55Z</time>
      </trkpt>
      <trkpt lat="45.73119" lon="2.76113">
        <ele>848.59997558594</ele>
        <time>2013-09-21T12:52:56Z</time>
      </trkpt>
      <trkpt lat="45.73115" lon="2.76108">
        <ele>847.40002441406</ele>
        <time>2013-09-21T12:52:58Z</time>
      </trkpt>
      <trkpt lat="45.73108" lon="2.76098">
        <ele>845.40002441406</ele>
        <time>2013-09-21T12:53:01Z</time>
      </trkpt>
      <trkpt lat="45.73102" lon="2.7609">
        <ele>843.40002441406</ele>
        <time>2013-09-21T12:53:06Z</time>
      </trkpt>
      <trkpt lat="45.73098" lon="2.76084">
        <ele>843.40002441406</ele>
        <time>2013-09-21T12:53:10Z</time>
      </trkpt>
      <trkpt lat="45.73093" lon="2.76076">
        <ele>843</ele>
        <time>2013-09-21T12:53:16Z</time>
      </trkpt>
      <trkpt lat="45.7309" lon="2.76068">
        <ele>841</ele>
        <time>2013-09-21T12:53:20Z</time>
      </trkpt>
      <trkpt lat="45.73088" lon="2.76058">
        <ele>839.40002441406</ele>
        <time>2013-09-21T12:53:23Z</time>
      </trkpt>
      <trkpt lat="45.73083" lon="2.76048">
        <ele>838.40002441406</ele>
        <time>2013-09-21T12:53:27Z</time>
      </trkpt>
      <trkpt lat="45.73079" lon="2.76044">
        <ele>837</ele>
        <time>2013-09-21T12:53:30Z</time>
      </trkpt>
      <trkpt lat="45.73068" lon="2.76034">
        <ele>836.40002441406</ele>
        <time>2013-09-21T12:53:35Z</time>
      </trkpt>
      <trkpt lat="45.73058" lon="2.76031">
        <ele>834.59997558594</ele>
        <time>2013-09-21T12:53:39Z</time>
      </trkpt>
      <trkpt lat="45.7305" lon="2.76031">
        <ele>833.59997558594</ele>
        <time>2013-09-21T12:53:43Z</time>
      </trkpt>
      <trkpt lat="45.73037" lon="2.76032">
        <ele>832</ele>
        <time>2013-09-21T12:53:47Z</time>
      </trkpt>
      <trkpt lat="45.7303" lon="2.76034">
        <ele>830.59997558594</ele>
        <time>2013-09-21T12:53:50Z</time>
      </trkpt>
      <trkpt lat="45.73013" lon="2.76041">
        <ele>829.20001220703</ele>
        <time>2013-09-21T12:54:00Z</time>
      </trkpt>
      <trkpt lat="45.73008" lon="2.7604">
        <ele>828.40002441406</ele>
        <time>2013-09-21T12:54:02Z</time>
      </trkpt>
      <trkpt lat="45.73006" lon="2.76039">
        <ele>827.79998779297</ele>
        <time>2013-09-21T12:54:03Z</time>
      </trkpt>
      <trkpt lat="45.73" lon="2.76036">
        <ele>826.40002441406</ele>
        <time>2013-09-21T12:54:06Z</time>
      </trkpt>
      <trkpt lat="45.72986" lon="2.76035">
        <ele>824.59997558594</ele>
        <time>2013-09-21T12:54:14Z</time>
      </trkpt>
      <trkpt lat="45.7298" lon="2.76034">
        <ele>823.20001220703</ele>
        <time>2013-09-21T12:54:17Z</time>
      </trkpt>
      <trkpt lat="45.72971" lon="2.76029">
        <ele>822.40002441406</ele>
        <time>2013-09-21T12:54:22Z</time>
      </trkpt>
      <trkpt lat="45.72969" lon="2.76028">
        <ele>821.40002441406</ele>
        <time>2013-09-21T12:54:24Z</time>
      </trkpt>
      <trkpt lat="45.72958" lon="2.76028">
        <ele>819.79998779297</ele>
        <time>2013-09-21T12:54:28Z</time>
      </trkpt>
      <trkpt lat="45.72947" lon="2.7603">
        <ele>818.40002441406</ele>
        <time>2013-09-21T12:54:31Z</time>
      </trkpt>
      <trkpt lat="45.72939" lon="2.76031">
        <ele>818</ele>
        <time>2013-09-21T12:54:33Z</time>
      </trkpt>
      <trkpt lat="45.72928" lon="2.76031">
        <ele>816.79998779297</ele>
        <time>2013-09-21T12:54:36Z</time>
      </trkpt>
      <trkpt lat="45.72925" lon="2.76029">
        <ele>816.20001220703</ele>
        <time>2013-09-21T12:54:37Z</time>
      </trkpt>
      <trkpt lat="45.72916" lon="2.76023">
        <ele>814.40002441406</ele>
        <time>2013-09-21T12:54:41Z</time>
      </trkpt>
      <trkpt lat="45.72907" lon="2.76014">
        <ele>813.79998779297</ele>
        <time>2013-09-21T12:54:45Z</time>
      </trkpt>
      <trkpt lat="45.72901" lon="2.7601">
        <ele>813</ele>
        <time>2013-09-21T12:54:48Z</time>
      </trkpt>
      <trkpt lat="45.729" lon="2.76009">
        <ele>812.59997558594</ele>
        <time>2013-09-21T12:54:49Z</time>
      </trkpt>
      <trkpt lat="45.72882" lon="2.75988">
        <ele>811.40002441406</ele>
        <time>2013-09-21T12:54:57Z</time>
      </trkpt>
      <trkpt lat="45.72879" lon="2.75986">
        <ele>811.40002441406</ele>
        <time>2013-09-21T12:54:59Z</time>
      </trkpt>
      <trkpt lat="45.72862" lon="2.75969">
        <ele>809.79998779297</ele>
        <time>2013-09-21T12:55:15Z</time>
      </trkpt>
      <trkpt lat="45.72842" lon="2.75954">
        <ele>809.79998779297</ele>
        <time>2013-09-21T12:55:22Z</time>
      </trkpt>
      <trkpt lat="45.72824" lon="2.75942">
        <ele>809.79998779297</ele>
        <time>2013-09-21T12:55:28Z</time>
      </trkpt>
      <trkpt lat="45.72796" lon="2.7593">
        <ele>809.79998779297</ele>
        <time>2013-09-21T12:55:37Z</time>
      </trkpt>
      <trkpt lat="45.72773" lon="2.75923">
        <ele>809.79998779297</ele>
        <time>2013-09-21T12:55:44Z</time>
      </trkpt>
      <trkpt lat="45.72754" lon="2.7592">
        <ele>809.79998779297</ele>
        <time>2013-09-21T12:55:50Z</time>
      </trkpt>
      <trkpt lat="45.72732" lon="2.75917">
        <ele>809.79998779297</ele>
        <time>2013-09-21T12:55:56Z</time>
      </trkpt>
      <trkpt lat="45.72709" lon="2.75911">
        <ele>809.79998779297</ele>
        <time>2013-09-21T12:56:02Z</time>
      </trkpt>
      <trkpt lat="45.72679" lon="2.75899">
        <ele>809.79998779297</ele>
        <time>2013-09-21T12:56:09Z</time>
      </trkpt>
      <trkpt lat="45.72653" lon="2.75894">
        <ele>809.79998779297</ele>
        <time>2013-09-21T12:56:14Z</time>
      </trkpt>
      <trkpt lat="45.72632" lon="2.75893">
        <ele>809.79998779297</ele>
        <time>2013-09-21T12:56:18Z</time>
      </trkpt>
      <trkpt lat="45.72611" lon="2.75897">
        <ele>809.79998779297</ele>
        <time>2013-09-21T12:56:23Z</time>
      </trkpt>
      <trkpt lat="45.72594" lon="2.75902">
        <ele>809.79998779297</ele>
        <time>2013-09-21T12:56:28Z</time>
      </trkpt>
      <trkpt lat="45.72569" lon="2.75909">
        <ele>809.79998779297</ele>
        <time>2013-09-21T12:56:34Z</time>
      </trkpt>
      <trkpt lat="45.72556" lon="2.7591">
        <ele>809.79998779297</ele>
        <time>2013-09-21T12:56:36Z</time>
      </trkpt>
      <trkpt lat="45.72543" lon="2.75912">
        <ele>809.79998779297</ele>
        <time>2013-09-21T12:56:39Z</time>
      </trkpt>
      <trkpt lat="45.7251" lon="2.75939">
        <ele>809.79998779297</ele>
        <time>2013-09-21T12:56:46Z</time>
      </trkpt>
      <trkpt lat="45.72489" lon="2.75953">
        <ele>809.79998779297</ele>
        <time>2013-09-21T12:56:52Z</time>
      </trkpt>
      <trkpt lat="45.72471" lon="2.75962">
        <ele>809.79998779297</ele>
        <time>2013-09-21T12:56:57Z</time>
      </trkpt>
      <trkpt lat="45.72456" lon="2.75976">
        <ele>809.79998779297</ele>
        <time>2013-09-21T12:57:03Z</time>
      </trkpt>
      <trkpt lat="45.72442" lon="2.75985">
        <ele>809.79998779297</ele>
        <time>2013-09-21T12:57:07Z</time>
      </trkpt>
      <trkpt lat="45.72413" lon="2.76013">
        <ele>809.79998779297</ele>
        <time>2013-09-21T12:57:13Z</time>
      </trkpt>
      <trkpt lat="45.72413" lon="2.76048">
        <ele>809.79998779297</ele>
        <time>2013-09-21T12:57:19Z</time>
      </trkpt>
      <trkpt lat="45.72418" lon="2.76066">
        <ele>809.79998779297</ele>
        <time>2013-09-21T12:57:22Z</time>
      </trkpt>
      <trkpt lat="45.72424" lon="2.76083">
        <ele>809.79998779297</ele>
        <time>2013-09-21T12:57:25Z</time>
      </trkpt>
      <trkpt lat="45.72429" lon="2.76094">
        <ele>809.79998779297</ele>
        <time>2013-09-21T12:57:27Z</time>
      </trkpt>
      <trkpt lat="45.72438" lon="2.76118">
        <ele>809.79998779297</ele>
        <time>2013-09-21T12:57:32Z</time>
      </trkpt>
      <trkpt lat="45.72451" lon="2.76143">
        <ele>809.79998779297</ele>
        <time>2013-09-21T12:57:37Z</time>
      </trkpt>
      <trkpt lat="45.72467" lon="2.76173">
        <ele>809.79998779297</ele>
        <time>2013-09-21T12:57:43Z</time>
      </trkpt>
      <trkpt lat="45.7248" lon="2.76186">
        <ele>809.79998779297</ele>
        <time>2013-09-21T12:57:47Z</time>
      </trkpt>
      <trkpt lat="45.72506" lon="2.76209">
        <ele>809.79998779297</ele>
        <time>2013-09-21T12:57:54Z</time>
      </trkpt>
      <trkpt lat="45.72511" lon="2.76218">
        <ele>809.40002441406</ele>
        <time>2013-09-21T12:57:56Z</time>
      </trkpt>
      <trkpt lat="45.72514" lon="2.76223">
        <ele>809</ele>
        <time>2013-09-21T12:57:57Z</time>
      </trkpt>
      <trkpt lat="45.72517" lon="2.76232">
        <ele>808.20001220703</ele>
        <time>2013-09-21T12:57:59Z</time>
      </trkpt>
      <trkpt lat="45.72527" lon="2.76254">
        <ele>807.79998779297</ele>
        <time>2013-09-21T12:58:05Z</time>
      </trkpt>
      <trkpt lat="45.72541" lon="2.76279">
        <ele>807.79998779297</ele>
        <time>2013-09-21T12:58:11Z</time>
      </trkpt>
      <trkpt lat="45.7256" lon="2.76303">
        <ele>807.79998779297</ele>
        <time>2013-09-21T12:58:17Z</time>
      </trkpt>
      <trkpt lat="45.72565" lon="2.76335">
        <ele>807.79998779297</ele>
        <time>2013-09-21T12:58:24Z</time>
      </trkpt>
      <trkpt lat="45.72566" lon="2.76364">
        <ele>807.79998779297</ele>
        <time>2013-09-21T12:58:31Z</time>
      </trkpt>
      <trkpt lat="45.72564" lon="2.76386">
        <ele>807.79998779297</ele>
        <time>2013-09-21T12:58:38Z</time>
      </trkpt>
      <trkpt lat="45.72567" lon="2.76415">
        <ele>807.79998779297</ele>
        <time>2013-09-21T12:58:45Z</time>
      </trkpt>
      <trkpt lat="45.72575" lon="2.7644">
        <ele>807.79998779297</ele>
        <time>2013-09-21T12:58:51Z</time>
      </trkpt>
      <trkpt lat="45.72587" lon="2.76469">
        <ele>807.79998779297</ele>
        <time>2013-09-21T12:58:58Z</time>
      </trkpt>
      <trkpt lat="45.72589" lon="2.7649">
        <ele>807.79998779297</ele>
        <time>2013-09-21T12:59:03Z</time>
      </trkpt>
      <trkpt lat="45.72585" lon="2.76501">
        <ele>807.79998779297</ele>
        <time>2013-09-21T12:59:07Z</time>
      </trkpt>
      <trkpt lat="45.72578" lon="2.7653">
        <ele>807.79998779297</ele>
        <time>2013-09-21T12:59:13Z</time>
      </trkpt>
      <trkpt lat="45.72575" lon="2.76555">
        <ele>807.79998779297</ele>
        <time>2013-09-21T12:59:18Z</time>
      </trkpt>
      <trkpt lat="45.72565" lon="2.76575">
        <ele>807.79998779297</ele>
        <time>2013-09-21T12:59:24Z</time>
      </trkpt>
      <trkpt lat="45.72552" lon="2.76587">
        <ele>807.79998779297</ele>
        <time>2013-09-21T12:59:30Z</time>
      </trkpt>
      <trkpt lat="45.72542" lon="2.76592">
        <ele>807.79998779297</ele>
        <time>2013-09-21T12:59:35Z</time>
      </trkpt>
      <trkpt lat="45.72524" lon="2.76603">
        <ele>807.79998779297</ele>
        <time>2013-09-21T12:59:42Z</time>
      </trkpt>
      <trkpt lat="45.72504" lon="2.7661">
        <ele>807.79998779297</ele>
        <time>2013-09-21T12:59:48Z</time>
      </trkpt>
      <trkpt lat="45.72495" lon="2.76618">
        <ele>807.79998779297</ele>
        <time>2013-09-21T12:59:53Z</time>
      </trkpt>
      <trkpt lat="45.7249" lon="2.76631">
        <ele>807.79998779297</ele>
        <time>2013-09-21T12:59:58Z</time>
      </trkpt>
      <trkpt lat="45.7248" lon="2.7665">
        <ele>807.79998779297</ele>
        <time>2013-09-21T13:00:05Z</time>
      </trkpt>
      <trkpt lat="45.72462" lon="2.76661">
        <ele>807.79998779297</ele>
        <time>2013-09-21T13:00:10Z</time>
      </trkpt>
      <trkpt lat="45.72437" lon="2.76686">
        <ele>807.79998779297</ele>
        <time>2013-09-21T13:00:17Z</time>
      </trkpt>
      <trkpt lat="45.7243" lon="2.76691">
        <ele>807.40002441406</ele>
        <time>2013-09-21T13:00:19Z</time>
      </trkpt>
      <trkpt lat="45.72422" lon="2.76702">
        <ele>806.20001220703</ele>
        <time>2013-09-21T13:00:22Z</time>
      </trkpt>
      <trkpt lat="45.72428" lon="2.76738">
        <ele>805.79998779297</ele>
        <time>2013-09-21T13:00:28Z</time>
      </trkpt>
      <trkpt lat="45.72435" lon="2.76768">
        <ele>805.79998779297</ele>
        <time>2013-09-21T13:00:33Z</time>
      </trkpt>
      <trkpt lat="45.72437" lon="2.76775">
        <ele>805.79998779297</ele>
        <time>2013-09-21T13:00:34Z</time>
      </trkpt>
      <trkpt lat="45.72441" lon="2.76795">
        <ele>805.79998779297</ele>
        <time>2013-09-21T13:00:37Z</time>
      </trkpt>
      <trkpt lat="45.72448" lon="2.76831">
        <ele>805.79998779297</ele>
        <time>2013-09-21T13:00:43Z</time>
      </trkpt>
      <trkpt lat="45.72453" lon="2.76873">
        <ele>805.79998779297</ele>
        <time>2013-09-21T13:00:48Z</time>
      </trkpt>
      <trkpt lat="45.72457" lon="2.76891">
        <ele>805.79998779297</ele>
        <time>2013-09-21T13:00:50Z</time>
      </trkpt>
      <trkpt lat="45.72463" lon="2.76906">
        <ele>805.79998779297</ele>
        <time>2013-09-21T13:00:52Z</time>
      </trkpt>
      <trkpt lat="45.72466" lon="2.76914">
        <ele>805.79998779297</ele>
        <time>2013-09-21T13:00:53Z</time>
      </trkpt>
      <trkpt lat="45.72486" lon="2.76956">
        <ele>805.79998779297</ele>
        <time>2013-09-21T13:00:59Z</time>
      </trkpt>
      <trkpt lat="45.72499" lon="2.76981">
        <ele>805.79998779297</ele>
        <time>2013-09-21T13:01:03Z</time>
      </trkpt>
      <trkpt lat="45.72504" lon="2.76986">
        <ele>805.79998779297</ele>
        <time>2013-09-21T13:01:04Z</time>
      </trkpt>
      <trkpt lat="45.7251" lon="2.76997">
        <ele>805.79998779297</ele>
        <time>2013-09-21T13:01:06Z</time>
      </trkpt>
      <trkpt lat="45.72517" lon="2.77015">
        <ele>805.79998779297</ele>
        <time>2013-09-21T13:01:09Z</time>
      </trkpt>
      <trkpt lat="45.72538" lon="2.77058">
        <ele>805.79998779297</ele>
        <time>2013-09-21T13:01:17Z</time>
      </trkpt>
      <trkpt lat="45.72551" lon="2.77091">
        <ele>805.79998779297</ele>
        <time>2013-09-21T13:01:23Z</time>
      </trkpt>
      <trkpt lat="45.72555" lon="2.77123">
        <ele>805.79998779297</ele>
        <time>2013-09-21T13:01:28Z</time>
      </trkpt>
      <trkpt lat="45.72564" lon="2.77153">
        <ele>805.79998779297</ele>
        <time>2013-09-21T13:01:33Z</time>
      </trkpt>
      <trkpt lat="45.72578" lon="2.77184">
        <ele>805.79998779297</ele>
        <time>2013-09-21T13:01:39Z</time>
      </trkpt>
      <trkpt lat="45.72596" lon="2.77212">
        <ele>805.79998779297</ele>
        <time>2013-09-21T13:01:45Z</time>
      </trkpt>
      <trkpt lat="45.72616" lon="2.77234">
        <ele>805.79998779297</ele>
        <time>2013-09-21T13:01:49Z</time>
      </trkpt>
      <trkpt lat="45.7263" lon="2.77249">
        <ele>805.79998779297</ele>
        <time>2013-09-21T13:01:52Z</time>
      </trkpt>
      <trkpt lat="45.72639" lon="2.77257">
        <ele>805.79998779297</ele>
        <time>2013-09-21T13:01:54Z</time>
      </trkpt>
      <trkpt lat="45.72656" lon="2.77267">
        <ele>805.79998779297</ele>
        <time>2013-09-21T13:01:58Z</time>
      </trkpt>
      <trkpt lat="45.72678" lon="2.77279">
        <ele>805.79998779297</ele>
        <time>2013-09-21T13:02:04Z</time>
      </trkpt>
      <trkpt lat="45.72694" lon="2.77288">
        <ele>805.79998779297</ele>
        <time>2013-09-21T13:02:08Z</time>
      </trkpt>
      <trkpt lat="45.72713" lon="2.77294">
        <ele>805.79998779297</ele>
        <time>2013-09-21T13:02:14Z</time>
      </trkpt>
      <trkpt lat="45.72737" lon="2.77292">
        <ele>805.79998779297</ele>
        <time>2013-09-21T13:02:19Z</time>
      </trkpt>
      <trkpt lat="45.72744" lon="2.7729">
        <ele>805.40002441406</ele>
        <time>2013-09-21T13:02:20Z</time>
      </trkpt>
      <trkpt lat="45.72749" lon="2.7729">
        <ele>805</ele>
        <time>2013-09-21T13:02:21Z</time>
      </trkpt>
      <trkpt lat="45.72754" lon="2.7729">
        <ele>804.59997558594</ele>
        <time>2013-09-21T13:02:22Z</time>
      </trkpt>
      <trkpt lat="45.72764" lon="2.77292">
        <ele>803.79998779297</ele>
        <time>2013-09-21T13:02:24Z</time>
      </trkpt>
      <trkpt lat="45.72775" lon="2.77303">
        <ele>803.79998779297</ele>
        <time>2013-09-21T13:02:27Z</time>
      </trkpt>
      <trkpt lat="45.72776" lon="2.77326">
        <ele>803.79998779297</ele>
        <time>2013-09-21T13:02:31Z</time>
      </trkpt>
      <trkpt lat="45.72776" lon="2.7733">
        <ele>803.79998779297</ele>
        <time>2013-09-21T13:02:32Z</time>
      </trkpt>
      <trkpt lat="45.72787" lon="2.77356">
        <ele>803.79998779297</ele>
        <time>2013-09-21T13:02:38Z</time>
      </trkpt>
      <trkpt lat="45.72803" lon="2.77381">
        <ele>803.79998779297</ele>
        <time>2013-09-21T13:02:44Z</time>
      </trkpt>
      <trkpt lat="45.72823" lon="2.77411">
        <ele>803.79998779297</ele>
        <time>2013-09-21T13:02:51Z</time>
      </trkpt>
      <trkpt lat="45.72842" lon="2.77443">
        <ele>803.79998779297</ele>
        <time>2013-09-21T13:02:57Z</time>
      </trkpt>
      <trkpt lat="45.72851" lon="2.77458">
        <ele>803.79998779297</ele>
        <time>2013-09-21T13:03:00Z</time>
      </trkpt>
      <trkpt lat="45.72863" lon="2.7748">
        <ele>803.79998779297</ele>
        <time>2013-09-21T13:03:04Z</time>
      </trkpt>
      <trkpt lat="45.72872" lon="2.7751">
        <ele>803.79998779297</ele>
        <time>2013-09-21T13:03:09Z</time>
      </trkpt>
      <trkpt lat="45.72876" lon="2.77529">
        <ele>803.79998779297</ele>
        <time>2013-09-21T13:03:12Z</time>
      </trkpt>
      <trkpt lat="45.72879" lon="2.77546">
        <ele>803.79998779297</ele>
        <time>2013-09-21T13:03:15Z</time>
      </trkpt>
      <trkpt lat="45.72881" lon="2.77552">
        <ele>803.79998779297</ele>
        <time>2013-09-21T13:03:16Z</time>
      </trkpt>
      <trkpt lat="45.72885" lon="2.77593">
        <ele>803.79998779297</ele>
        <time>2013-09-21T13:03:23Z</time>
      </trkpt>
      <trkpt lat="45.72888" lon="2.77634">
        <ele>803.79998779297</ele>
        <time>2013-09-21T13:03:30Z</time>
      </trkpt>
      <trkpt lat="45.72892" lon="2.77675">
        <ele>803.79998779297</ele>
        <time>2013-09-21T13:03:36Z</time>
      </trkpt>
      <trkpt lat="45.72896" lon="2.77705">
        <ele>803.79998779297</ele>
        <time>2013-09-21T13:03:41Z</time>
      </trkpt>
      <trkpt lat="45.729" lon="2.77727">
        <ele>803.79998779297</ele>
        <time>2013-09-21T13:03:45Z</time>
      </trkpt>
      <trkpt lat="45.72905" lon="2.77738">
        <ele>803.79998779297</ele>
        <time>2013-09-21T13:03:47Z</time>
      </trkpt>
      <trkpt lat="45.72908" lon="2.77743">
        <ele>803.79998779297</ele>
        <time>2013-09-21T13:03:48Z</time>
      </trkpt>
      <trkpt lat="45.72918" lon="2.77756">
        <ele>803.79998779297</ele>
        <time>2013-09-21T13:03:51Z</time>
      </trkpt>
      <trkpt lat="45.72921" lon="2.7776">
        <ele>803.79998779297</ele>
        <time>2013-09-21T13:03:52Z</time>
      </trkpt>
      <trkpt lat="45.72933" lon="2.77774">
        <ele>803.79998779297</ele>
        <time>2013-09-21T13:03:56Z</time>
      </trkpt>
      <trkpt lat="45.72944" lon="2.77774">
        <ele>803.79998779297</ele>
        <time>2013-09-21T13:03:59Z</time>
      </trkpt>
      <trkpt lat="45.72953" lon="2.77773">
        <ele>803.79998779297</ele>
        <time>2013-09-21T13:04:01Z</time>
      </trkpt>
      <trkpt lat="45.72975" lon="2.77766">
        <ele>803.79998779297</ele>
        <time>2013-09-21T13:04:06Z</time>
      </trkpt>
      <trkpt lat="45.72995" lon="2.77766">
        <ele>803.79998779297</ele>
        <time>2013-09-21T13:04:11Z</time>
      </trkpt>
      <trkpt lat="45.7301" lon="2.77764">
        <ele>803.20001220703</ele>
        <time>2013-09-21T13:04:14Z</time>
      </trkpt>
      <trkpt lat="45.73024" lon="2.77764">
        <ele>801.79998779297</ele>
        <time>2013-09-21T13:04:17Z</time>
      </trkpt>
      <trkpt lat="45.73043" lon="2.77764">
        <ele>801.20001220703</ele>
        <time>2013-09-21T13:04:21Z</time>
      </trkpt>
      <trkpt lat="45.73059" lon="2.77762">
        <ele>801.20001220703</ele>
        <time>2013-09-21T13:04:24Z</time>
      </trkpt>
      <trkpt lat="45.73064" lon="2.77766">
        <ele>801.20001220703</ele>
        <time>2013-09-21T13:04:26Z</time>
      </trkpt>
      <trkpt lat="45.73058" lon="2.77777">
        <ele>801.20001220703</ele>
        <time>2013-09-21T13:04:34Z</time>
      </trkpt>
      <trkpt lat="45.73052" lon="2.77793">
        <ele>801.20001220703</ele>
        <time>2013-09-21T13:04:39Z</time>
      </trkpt>
      <trkpt lat="45.73045" lon="2.77814">
        <ele>801.59997558594</ele>
        <time>2013-09-21T13:04:44Z</time>
      </trkpt>
      <trkpt lat="45.73042" lon="2.77822">
        <ele>802.40002441406</ele>
        <time>2013-09-21T13:04:46Z</time>
      </trkpt>
      <trkpt lat="45.73039" lon="2.77827">
        <ele>803.20001220703</ele>
        <time>2013-09-21T13:04:48Z</time>
      </trkpt>
      <trkpt lat="45.73035" lon="2.77832">
        <ele>803.20001220703</ele>
        <time>2013-09-21T13:04:50Z</time>
      </trkpt>
      <trkpt lat="45.73025" lon="2.77855">
        <ele>803.20001220703</ele>
        <time>2013-09-21T13:04:56Z</time>
      </trkpt>
      <trkpt lat="45.73021" lon="2.77869">
        <ele>803.20001220703</ele>
        <time>2013-09-21T13:04:59Z</time>
      </trkpt>
      <trkpt lat="45.73019" lon="2.7788">
        <ele>803.20001220703</ele>
        <time>2013-09-21T13:05:01Z</time>
      </trkpt>
      <trkpt lat="45.7302" lon="2.7791">
        <ele>803.20001220703</ele>
        <time>2013-09-21T13:05:06Z</time>
      </trkpt>
      <trkpt lat="45.73023" lon="2.77951">
        <ele>803.20001220703</ele>
        <time>2013-09-21T13:05:12Z</time>
      </trkpt>
      <trkpt lat="45.73032" lon="2.77988">
        <ele>803.20001220703</ele>
        <time>2013-09-21T13:05:18Z</time>
      </trkpt>
      <trkpt lat="45.73042" lon="2.78023">
        <ele>803.20001220703</ele>
        <time>2013-09-21T13:05:24Z</time>
      </trkpt>
      <trkpt lat="45.73052" lon="2.7806">
        <ele>803.20001220703</ele>
        <time>2013-09-21T13:05:30Z</time>
      </trkpt>
      <trkpt lat="45.73066" lon="2.78093">
        <ele>803.20001220703</ele>
        <time>2013-09-21T13:05:36Z</time>
      </trkpt>
      <trkpt lat="45.73082" lon="2.78134">
        <ele>803.20001220703</ele>
        <time>2013-09-21T13:05:43Z</time>
      </trkpt>
      <trkpt lat="45.73103" lon="2.78169">
        <ele>803.20001220703</ele>
        <time>2013-09-21T13:05:50Z</time>
      </trkpt>
      <trkpt lat="45.73119" lon="2.78201">
        <ele>803.20001220703</ele>
        <time>2013-09-21T13:05:57Z</time>
      </trkpt>
      <trkpt lat="45.73132" lon="2.78219">
        <ele>803.20001220703</ele>
        <time>2013-09-21T13:06:03Z</time>
      </trkpt>
      <trkpt lat="45.73137" lon="2.78223">
        <ele>803.59997558594</ele>
        <time>2013-09-21T13:06:05Z</time>
      </trkpt>
      <trkpt lat="45.73143" lon="2.78226">
        <ele>804.59997558594</ele>
        <time>2013-09-21T13:06:07Z</time>
      </trkpt>
      <trkpt lat="45.73149" lon="2.78231">
        <ele>805.40002441406</ele>
        <time>2013-09-21T13:06:09Z</time>
      </trkpt>
      <trkpt lat="45.73152" lon="2.78234">
        <ele>805.40002441406</ele>
        <time>2013-09-21T13:06:10Z</time>
      </trkpt>
      <trkpt lat="45.73178" lon="2.78257">
        <ele>805.40002441406</ele>
        <time>2013-09-21T13:06:18Z</time>
      </trkpt>
      <trkpt lat="45.7321" lon="2.78268">
        <ele>805.40002441406</ele>
        <time>2013-09-21T13:06:25Z</time>
      </trkpt>
      <trkpt lat="45.73228" lon="2.78268">
        <ele>804.40002441406</ele>
        <time>2013-09-21T13:06:29Z</time>
      </trkpt>
      <trkpt lat="45.7323" lon="2.7827">
        <ele>804</ele>
        <time>2013-09-21T13:06:30Z</time>
      </trkpt>
      <trkpt lat="45.73231" lon="2.78272">
        <ele>803.59997558594</ele>
        <time>2013-09-21T13:06:31Z</time>
      </trkpt>
      <trkpt lat="45.7323" lon="2.78275">
        <ele>803</ele>
        <time>2013-09-21T13:06:32Z</time>
      </trkpt>
      <trkpt lat="45.73219" lon="2.78283">
        <ele>803</ele>
        <time>2013-09-21T13:06:38Z</time>
      </trkpt>
      <trkpt lat="45.73196" lon="2.78293">
        <ele>803</ele>
        <time>2013-09-21T13:06:46Z</time>
      </trkpt>
      <trkpt lat="45.73186" lon="2.78299">
        <ele>800</ele>
        <time>2013-09-21T13:06:48Z</time>
      </trkpt>
      <trkpt lat="45.73182" lon="2.78301">
        <ele>800.20001220703</ele>
        <time>2013-09-21T13:06:49Z</time>
      </trkpt>
      <trkpt lat="45.73176" lon="2.78303">
        <ele>800.40002441406</ele>
        <time>2013-09-21T13:06:50Z</time>
      </trkpt>
      <trkpt lat="45.7317" lon="2.78303">
        <ele>800.59997558594</ele>
        <time>2013-09-21T13:06:51Z</time>
      </trkpt>
      <trkpt lat="45.73156" lon="2.78299">
        <ele>799.79998779297</ele>
        <time>2013-09-21T13:06:53Z</time>
      </trkpt>
      <trkpt lat="45.73148" lon="2.78297">
        <ele>799.40002441406</ele>
        <time>2013-09-21T13:06:54Z</time>
      </trkpt>
      <trkpt lat="45.73139" lon="2.78296">
        <ele>799</ele>
        <time>2013-09-21T13:06:55Z</time>
      </trkpt>
      <trkpt lat="45.73114" lon="2.78292">
        <ele>797.59997558594</ele>
        <time>2013-09-21T13:06:58Z</time>
      </trkpt>
      <trkpt lat="45.73106" lon="2.78289">
        <ele>796.79998779297</ele>
        <time>2013-09-21T13:06:59Z</time>
      </trkpt>
      <trkpt lat="45.731" lon="2.78286">
        <ele>795.79998779297</ele>
        <time>2013-09-21T13:07:00Z</time>
      </trkpt>
      <trkpt lat="45.7309" lon="2.78272">
        <ele>794.20001220703</ele>
        <time>2013-09-21T13:07:02Z</time>
      </trkpt>
      <trkpt lat="45.73085" lon="2.78265">
        <ele>793.40002441406</ele>
        <time>2013-09-21T13:07:03Z</time>
      </trkpt>
      <trkpt lat="45.73081" lon="2.78258">
        <ele>792.40002441406</ele>
        <time>2013-09-21T13:07:04Z</time>
      </trkpt>
      <trkpt lat="45.73077" lon="2.78251">
        <ele>791.40002441406</ele>
        <time>2013-09-21T13:07:05Z</time>
      </trkpt>
      <trkpt lat="45.73072" lon="2.78244">
        <ele>790.59997558594</ele>
        <time>2013-09-21T13:07:06Z</time>
      </trkpt>
      <trkpt lat="45.73067" lon="2.78236">
        <ele>789.59997558594</ele>
        <time>2013-09-21T13:07:07Z</time>
      </trkpt>
      <trkpt lat="45.73061" lon="2.78228">
        <ele>788.79998779297</ele>
        <time>2013-09-21T13:07:08Z</time>
      </trkpt>
      <trkpt lat="45.73056" lon="2.78218">
        <ele>788</ele>
        <time>2013-09-21T13:07:09Z</time>
      </trkpt>
      <trkpt lat="45.7305" lon="2.78208">
        <ele>787.20001220703</ele>
        <time>2013-09-21T13:07:10Z</time>
      </trkpt>
      <trkpt lat="45.73045" lon="2.78198">
        <ele>786.40002441406</ele>
        <time>2013-09-21T13:07:11Z</time>
      </trkpt>
      <trkpt lat="45.7304" lon="2.78188">
        <ele>785.79998779297</ele>
        <time>2013-09-21T13:07:12Z</time>
      </trkpt>
      <trkpt lat="45.73036" lon="2.78179">
        <ele>785.20001220703</ele>
        <time>2013-09-21T13:07:13Z</time>
      </trkpt>
      <trkpt lat="45.73027" lon="2.78162">
        <ele>783.79998779297</ele>
        <time>2013-09-21T13:07:15Z</time>
      </trkpt>
      <trkpt lat="45.73022" lon="2.78153">
        <ele>783.20001220703</ele>
        <time>2013-09-21T13:07:16Z</time>
      </trkpt>
      <trkpt lat="45.73016" lon="2.78142">
        <ele>782.59997558594</ele>
        <time>2013-09-21T13:07:17Z</time>
      </trkpt>
      <trkpt lat="45.7301" lon="2.78132">
        <ele>781.79998779297</ele>
        <time>2013-09-21T13:07:18Z</time>
      </trkpt>
      <trkpt lat="45.73005" lon="2.78122">
        <ele>781.20001220703</ele>
        <time>2013-09-21T13:07:19Z</time>
      </trkpt>
      <trkpt lat="45.72999" lon="2.78112">
        <ele>780.59997558594</ele>
        <time>2013-09-21T13:07:20Z</time>
      </trkpt>
      <trkpt lat="45.72994" lon="2.78103">
        <ele>779.79998779297</ele>
        <time>2013-09-21T13:07:21Z</time>
      </trkpt>
      <trkpt lat="45.72988" lon="2.78095">
        <ele>779.20001220703</ele>
        <time>2013-09-21T13:07:22Z</time>
      </trkpt>
      <trkpt lat="45.72981" lon="2.7809">
        <ele>778.59997558594</ele>
        <time>2013-09-21T13:07:23Z</time>
      </trkpt>
      <trkpt lat="45.72975" lon="2.78085">
        <ele>778</ele>
        <time>2013-09-21T13:07:24Z</time>
      </trkpt>
      <trkpt lat="45.72968" lon="2.78081">
        <ele>777.40002441406</ele>
        <time>2013-09-21T13:07:25Z</time>
      </trkpt>
      <trkpt lat="45.72962" lon="2.78078">
        <ele>776.59997558594</ele>
        <time>2013-09-21T13:07:26Z</time>
      </trkpt>
      <trkpt lat="45.72957" lon="2.78076">
        <ele>775.79998779297</ele>
        <time>2013-09-21T13:07:27Z</time>
      </trkpt>
      <trkpt lat="45.72949" lon="2.78069">
        <ele>774.20001220703</ele>
        <time>2013-09-21T13:07:29Z</time>
      </trkpt>
      <trkpt lat="45.72937" lon="2.78064">
        <ele>771.59997558594</ele>
        <time>2013-09-21T13:07:32Z</time>
      </trkpt>
      <trkpt lat="45.72928" lon="2.78067">
        <ele>770.40002441406</ele>
        <time>2013-09-21T13:07:34Z</time>
      </trkpt>
      <trkpt lat="45.72926" lon="2.78072">
        <ele>769.79998779297</ele>
        <time>2013-09-21T13:07:35Z</time>
      </trkpt>
      <trkpt lat="45.72925" lon="2.78081">
        <ele>768.59997558594</ele>
        <time>2013-09-21T13:07:37Z</time>
      </trkpt>
      <trkpt lat="45.72925" lon="2.78092">
        <ele>767.40002441406</ele>
        <time>2013-09-21T13:07:39Z</time>
      </trkpt>
      <trkpt lat="45.72919" lon="2.78101">
        <ele>765.40002441406</ele>
        <time>2013-09-21T13:07:42Z</time>
      </trkpt>
      <trkpt lat="45.72915" lon="2.78099">
        <ele>764.79998779297</ele>
        <time>2013-09-21T13:07:43Z</time>
      </trkpt>
      <trkpt lat="45.72908" lon="2.78092">
        <ele>763.59997558594</ele>
        <time>2013-09-21T13:07:45Z</time>
      </trkpt>
      <trkpt lat="45.72903" lon="2.78086">
        <ele>763</ele>
        <time>2013-09-21T13:07:46Z</time>
      </trkpt>
      <trkpt lat="45.72897" lon="2.78081">
        <ele>762.59997558594</ele>
        <time>2013-09-21T13:07:47Z</time>
      </trkpt>
      <trkpt lat="45.72891" lon="2.78076">
        <ele>762</ele>
        <time>2013-09-21T13:07:48Z</time>
      </trkpt>
      <trkpt lat="45.72886" lon="2.78072">
        <ele>761.40002441406</ele>
        <time>2013-09-21T13:07:49Z</time>
      </trkpt>
      <trkpt lat="45.7288" lon="2.78067">
        <ele>760.79998779297</ele>
        <time>2013-09-21T13:07:50Z</time>
      </trkpt>
      <trkpt lat="45.72876" lon="2.78062">
        <ele>760.20001220703</ele>
        <time>2013-09-21T13:07:51Z</time>
      </trkpt>
      <trkpt lat="45.72873" lon="2.78058">
        <ele>759.40002441406</ele>
        <time>2013-09-21T13:07:52Z</time>
      </trkpt>
      <trkpt lat="45.72869" lon="2.7805">
        <ele>758.40002441406</ele>
        <time>2013-09-21T13:07:54Z</time>
      </trkpt>
      <trkpt lat="45.72868" lon="2.78048">
        <ele>757.79998779297</ele>
        <time>2013-09-21T13:07:55Z</time>
      </trkpt>
      <trkpt lat="45.72863" lon="2.78039">
        <ele>755</ele>
        <time>2013-09-21T13:08:00Z</time>
      </trkpt>
      <trkpt lat="45.72859" lon="2.78041">
        <ele>754.59997558594</ele>
        <time>2013-09-21T13:08:27Z</time>
      </trkpt>
      <trkpt lat="45.72849" lon="2.78053">
        <ele>754.59997558594</ele>
        <time>2013-09-21T13:08:34Z</time>
      </trkpt>
      <trkpt lat="45.72846" lon="2.7806">
        <ele>754.59997558594</ele>
        <time>2013-09-21T13:08:39Z</time>
      </trkpt>
      <trkpt lat="45.7285" lon="2.78073">
        <ele>754</ele>
        <time>2013-09-21T13:08:43Z</time>
      </trkpt>
      <trkpt lat="45.72853" lon="2.78077">
        <ele>753.59997558594</ele>
        <time>2013-09-21T13:08:44Z</time>
      </trkpt>
      <trkpt lat="45.72856" lon="2.78081">
        <ele>753.20001220703</ele>
        <time>2013-09-21T13:08:45Z</time>
      </trkpt>
      <trkpt lat="45.72863" lon="2.7809">
        <ele>752.40002441406</ele>
        <time>2013-09-21T13:08:47Z</time>
      </trkpt>
      <trkpt lat="45.72876" lon="2.78107">
        <ele>752.40002441406</ele>
        <time>2013-09-21T13:08:50Z</time>
      </trkpt>
      <trkpt lat="45.72886" lon="2.78119">
        <ele>752</ele>
        <time>2013-09-21T13:08:52Z</time>
      </trkpt>
      <trkpt lat="45.7289" lon="2.78126">
        <ele>751.59997558594</ele>
        <time>2013-09-21T13:08:53Z</time>
      </trkpt>
      <trkpt lat="45.72894" lon="2.78132">
        <ele>751</ele>
        <time>2013-09-21T13:08:54Z</time>
      </trkpt>
      <trkpt lat="45.72902" lon="2.78145">
        <ele>750.20001220703</ele>
        <time>2013-09-21T13:08:56Z</time>
      </trkpt>
      <trkpt lat="45.72919" lon="2.78174">
        <ele>750.20001220703</ele>
        <time>2013-09-21T13:09:01Z</time>
      </trkpt>
      <trkpt lat="45.72921" lon="2.7818">
        <ele>749.79998779297</ele>
        <time>2013-09-21T13:09:02Z</time>
      </trkpt>
      <trkpt lat="45.72933" lon="2.78194">
        <ele>749</ele>
        <time>2013-09-21T13:09:04Z</time>
      </trkpt>
      <trkpt lat="45.72942" lon="2.78205">
        <ele>748.20001220703</ele>
        <time>2013-09-21T13:09:06Z</time>
      </trkpt>
      <trkpt lat="45.72952" lon="2.78215">
        <ele>748.20001220703</ele>
        <time>2013-09-21T13:09:08Z</time>
      </trkpt>
      <trkpt lat="45.72967" lon="2.78243">
        <ele>748.20001220703</ele>
        <time>2013-09-21T13:09:13Z</time>
      </trkpt>
      <trkpt lat="45.72982" lon="2.78291">
        <ele>748.20001220703</ele>
        <time>2013-09-21T13:09:21Z</time>
      </trkpt>
      <trkpt lat="45.72982" lon="2.78306">
        <ele>747.40002441406</ele>
        <time>2013-09-21T13:09:23Z</time>
      </trkpt>
      <trkpt lat="45.72981" lon="2.78313">
        <ele>747</ele>
        <time>2013-09-21T13:09:24Z</time>
      </trkpt>
      <trkpt lat="45.72979" lon="2.78319">
        <ele>746.40002441406</ele>
        <time>2013-09-21T13:09:25Z</time>
      </trkpt>
      <trkpt lat="45.72979" lon="2.78324">
        <ele>746</ele>
        <time>2013-09-21T13:09:26Z</time>
      </trkpt>
      <trkpt lat="45.72977" lon="2.7834">
        <ele>746</ele>
        <time>2013-09-21T13:09:29Z</time>
      </trkpt>
      <trkpt lat="45.72972" lon="2.78361">
        <ele>746</ele>
        <time>2013-09-21T13:09:34Z</time>
      </trkpt>
      <trkpt lat="45.72962" lon="2.78383">
        <ele>746</ele>
        <time>2013-09-21T13:09:39Z</time>
      </trkpt>
      <trkpt lat="45.72956" lon="2.78403">
        <ele>746</ele>
        <time>2013-09-21T13:09:45Z</time>
      </trkpt>
      <trkpt lat="45.72956" lon="2.78419">
        <ele>746.40002441406</ele>
        <time>2013-09-21T13:09:52Z</time>
      </trkpt>
      <trkpt lat="45.72956" lon="2.78421">
        <ele>747</ele>
        <time>2013-09-21T13:09:53Z</time>
      </trkpt>
      <trkpt lat="45.7296" lon="2.78437">
        <ele>748.20001220703</ele>
        <time>2013-09-21T13:10:01Z</time>
      </trkpt>
      <trkpt lat="45.72959" lon="2.7844">
        <ele>748.59997558594</ele>
        <time>2013-09-21T13:10:03Z</time>
      </trkpt>
      <trkpt lat="45.72958" lon="2.78451">
        <ele>750.79998779297</ele>
        <time>2013-09-21T13:10:09Z</time>
      </trkpt>
      <trkpt lat="45.72954" lon="2.78472">
        <ele>752.40002441406</ele>
        <time>2013-09-21T13:10:18Z</time>
      </trkpt>
      <trkpt lat="45.7295" lon="2.78481">
        <ele>754</ele>
        <time>2013-09-21T13:10:22Z</time>
      </trkpt>
      <trkpt lat="45.72946" lon="2.78491">
        <ele>755.20001220703</ele>
        <time>2013-09-21T13:10:27Z</time>
      </trkpt>
      <trkpt lat="45.72931" lon="2.78498">
        <ele>756.40002441406</ele>
        <time>2013-09-21T13:10:37Z</time>
      </trkpt>
      <trkpt lat="45.72929" lon="2.78496">
        <ele>757</ele>
        <time>2013-09-21T13:10:38Z</time>
      </trkpt>
      <trkpt lat="45.72918" lon="2.78489">
        <ele>758.59997558594</ele>
        <time>2013-09-21T13:10:47Z</time>
      </trkpt>
      <trkpt lat="45.7291" lon="2.78483">
        <ele>760.59997558594</ele>
        <time>2013-09-21T13:10:55Z</time>
      </trkpt>
      <trkpt lat="45.72903" lon="2.78477">
        <ele>761</ele>
        <time>2013-09-21T13:11:01Z</time>
      </trkpt>
      <trkpt lat="45.72898" lon="2.78475">
        <ele>762.20001220703</ele>
        <time>2013-09-21T13:11:04Z</time>
      </trkpt>
      <trkpt lat="45.72888" lon="2.78468">
        <ele>762.59997558594</ele>
        <time>2013-09-21T13:11:10Z</time>
      </trkpt>
      <trkpt lat="45.72879" lon="2.78463">
        <ele>764.79998779297</ele>
        <time>2013-09-21T13:11:18Z</time>
      </trkpt>
      <trkpt lat="45.72873" lon="2.78456">
        <ele>765.20001220703</ele>
        <time>2013-09-21T13:11:24Z</time>
      </trkpt>
      <trkpt lat="45.7287" lon="2.78452">
        <ele>767</ele>
        <time>2013-09-21T13:11:28Z</time>
      </trkpt>
      <trkpt lat="45.7286" lon="2.78447">
        <ele>767</ele>
        <time>2013-09-21T13:11:34Z</time>
      </trkpt>
      <trkpt lat="45.72847" lon="2.78443">
        <ele>769</ele>
        <time>2013-09-21T13:11:41Z</time>
      </trkpt>
      <trkpt lat="45.72839" lon="2.78442">
        <ele>771.20001220703</ele>
        <time>2013-09-21T13:11:48Z</time>
      </trkpt>
      <trkpt lat="45.72831" lon="2.7844">
        <ele>771.59997558594</ele>
        <time>2013-09-21T13:11:54Z</time>
      </trkpt>
      <trkpt lat="45.7283" lon="2.7844">
        <ele>772</ele>
        <time>2013-09-21T13:11:55Z</time>
      </trkpt>
      <trkpt lat="45.72806" lon="2.78436">
        <ele>775.79998779297</ele>
        <time>2013-09-21T13:12:14Z</time>
      </trkpt>
      <trkpt lat="45.72798" lon="2.78433">
        <ele>776.59997558594</ele>
        <time>2013-09-21T13:12:17Z</time>
      </trkpt>
      <trkpt lat="45.72784" lon="2.78427">
        <ele>777.79998779297</ele>
        <time>2013-09-21T13:12:27Z</time>
      </trkpt>
      <trkpt lat="45.72779" lon="2.78424">
        <ele>780</ele>
        <time>2013-09-21T13:12:33Z</time>
      </trkpt>
      <trkpt lat="45.72762" lon="2.78419">
        <ele>780</ele>
        <time>2013-09-21T13:12:42Z</time>
      </trkpt>
      <trkpt lat="45.72759" lon="2.78418">
        <ele>780.40002441406</ele>
        <time>2013-09-21T13:12:43Z</time>
      </trkpt>
      <trkpt lat="45.72745" lon="2.78412">
        <ele>782.20001220703</ele>
        <time>2013-09-21T13:12:52Z</time>
      </trkpt>
      <trkpt lat="45.72741" lon="2.7841">
        <ele>782.59997558594</ele>
        <time>2013-09-21T13:12:55Z</time>
      </trkpt>
      <trkpt lat="45.72739" lon="2.78408">
        <ele>783.40002441406</ele>
        <time>2013-09-21T13:12:57Z</time>
      </trkpt>
      <trkpt lat="45.72729" lon="2.78403">
        <ele>784.59997558594</ele>
        <time>2013-09-21T13:13:08Z</time>
      </trkpt>
      <trkpt lat="45.72715" lon="2.78402">
        <ele>786.59997558594</ele>
        <time>2013-09-21T13:13:16Z</time>
      </trkpt>
      <trkpt lat="45.72709" lon="2.78402">
        <ele>788.40002441406</ele>
        <time>2013-09-21T13:13:20Z</time>
      </trkpt>
      <trkpt lat="45.727" lon="2.78399">
        <ele>788.79998779297</ele>
        <time>2013-09-21T13:13:28Z</time>
      </trkpt>
      <trkpt lat="45.72698" lon="2.78399">
        <ele>789.20001220703</ele>
        <time>2013-09-21T13:13:29Z</time>
      </trkpt>
      <trkpt lat="45.72687" lon="2.78401">
        <ele>791</ele>
        <time>2013-09-21T13:13:38Z</time>
      </trkpt>
      <trkpt lat="45.7268" lon="2.78402">
        <ele>792.79998779297</ele>
        <time>2013-09-21T13:13:43Z</time>
      </trkpt>
      <trkpt lat="45.7267" lon="2.78406">
        <ele>794</ele>
        <time>2013-09-21T13:13:51Z</time>
      </trkpt>
      <trkpt lat="45.7266" lon="2.7841">
        <ele>795.40002441406</ele>
        <time>2013-09-21T13:14:00Z</time>
      </trkpt>
      <trkpt lat="45.72659" lon="2.7841">
        <ele>796</ele>
        <time>2013-09-21T13:14:01Z</time>
      </trkpt>
      <trkpt lat="45.72647" lon="2.78414">
        <ele>797.40002441406</ele>
        <time>2013-09-21T13:14:10Z</time>
      </trkpt>
      <trkpt lat="45.72638" lon="2.78415">
        <ele>799.40002441406</ele>
        <time>2013-09-21T13:14:19Z</time>
      </trkpt>
      <trkpt lat="45.72628" lon="2.78419">
        <ele>799.79998779297</ele>
        <time>2013-09-21T13:14:25Z</time>
      </trkpt>
      <trkpt lat="45.72624" lon="2.7842">
        <ele>800.79998779297</ele>
        <time>2013-09-21T13:14:28Z</time>
      </trkpt>
      <trkpt lat="45.72616" lon="2.78429">
        <ele>801.59997558594</ele>
        <time>2013-09-21T13:14:37Z</time>
      </trkpt>
      <trkpt lat="45.72615" lon="2.78432">
        <ele>802</ele>
        <time>2013-09-21T13:14:39Z</time>
      </trkpt>
      <trkpt lat="45.72608" lon="2.78442">
        <ele>803.59997558594</ele>
        <time>2013-09-21T13:14:47Z</time>
      </trkpt>
      <trkpt lat="45.72609" lon="2.78452">
        <ele>804</ele>
        <time>2013-09-21T13:14:52Z</time>
      </trkpt>
      <trkpt lat="45.7261" lon="2.78458">
        <ele>805.20001220703</ele>
        <time>2013-09-21T13:14:55Z</time>
      </trkpt>
      <trkpt lat="45.72615" lon="2.78475">
        <ele>805.59997558594</ele>
        <time>2013-09-21T13:15:04Z</time>
      </trkpt>
      <trkpt lat="45.72616" lon="2.78485">
        <ele>806</ele>
        <time>2013-09-21T13:15:08Z</time>
      </trkpt>
      <trkpt lat="45.72617" lon="2.78491">
        <ele>807</ele>
        <time>2013-09-21T13:15:10Z</time>
      </trkpt>
      <trkpt lat="45.72619" lon="2.78511">
        <ele>807.79998779297</ele>
        <time>2013-09-21T13:15:18Z</time>
      </trkpt>
      <trkpt lat="45.72616" lon="2.78537">
        <ele>808.59997558594</ele>
        <time>2013-09-21T13:15:25Z</time>
      </trkpt>
      <trkpt lat="45.72615" lon="2.78542">
        <ele>809</ele>
        <time>2013-09-21T13:15:26Z</time>
      </trkpt>
      <trkpt lat="45.72614" lon="2.78551">
        <ele>809.79998779297</ele>
        <time>2013-09-21T13:15:29Z</time>
      </trkpt>
      <trkpt lat="45.72599" lon="2.7857">
        <ele>809.79998779297</ele>
        <time>2013-09-21T13:15:37Z</time>
      </trkpt>
      <trkpt lat="45.72592" lon="2.7857">
        <ele>810.20001220703</ele>
        <time>2013-09-21T13:15:40Z</time>
      </trkpt>
      <trkpt lat="45.72588" lon="2.78567">
        <ele>811.20001220703</ele>
        <time>2013-09-21T13:15:42Z</time>
      </trkpt>
      <trkpt lat="45.72574" lon="2.78553">
        <ele>812</ele>
        <time>2013-09-21T13:19:25Z</time>
      </trkpt>
      <trkpt lat="45.72558" lon="2.78528">
        <ele>812</ele>
        <time>2013-09-21T13:19:33Z</time>
      </trkpt>
      <trkpt lat="45.72545" lon="2.78511">
        <ele>812.59997558594</ele>
        <time>2013-09-21T13:19:39Z</time>
      </trkpt>
      <trkpt lat="45.72543" lon="2.78509">
        <ele>813</ele>
        <time>2013-09-21T13:19:40Z</time>
      </trkpt>
      <trkpt lat="45.72538" lon="2.78504">
        <ele>814.20001220703</ele>
        <time>2013-09-21T13:19:42Z</time>
      </trkpt>
      <trkpt lat="45.72521" lon="2.78495">
        <ele>814.79998779297</ele>
        <time>2013-09-21T13:19:49Z</time>
      </trkpt>
      <trkpt lat="45.72519" lon="2.78494">
        <ele>815.20001220703</ele>
        <time>2013-09-21T13:19:50Z</time>
      </trkpt>
      <trkpt lat="45.72504" lon="2.78491">
        <ele>816.59997558594</ele>
        <time>2013-09-21T13:19:58Z</time>
      </trkpt>
      <trkpt lat="45.72495" lon="2.7849">
        <ele>816.59997558594</ele>
        <time>2013-09-21T13:20:03Z</time>
      </trkpt>
      <trkpt lat="45.72486" lon="2.78491">
        <ele>817</ele>
        <time>2013-09-21T13:20:08Z</time>
      </trkpt>
      <trkpt lat="45.72479" lon="2.78491">
        <ele>818.59997558594</ele>
        <time>2013-09-21T13:20:12Z</time>
      </trkpt>
      <trkpt lat="45.72469" lon="2.7849">
        <ele>820.20001220703</ele>
        <time>2013-09-21T13:20:19Z</time>
      </trkpt>
      <trkpt lat="45.72467" lon="2.7849">
        <ele>820.59997558594</ele>
        <time>2013-09-21T13:20:20Z</time>
      </trkpt>
      <trkpt lat="45.72459" lon="2.7849">
        <ele>821.20001220703</ele>
        <time>2013-09-21T13:20:25Z</time>
      </trkpt>
      <trkpt lat="45.72458" lon="2.7849">
        <ele>821.59997558594</ele>
        <time>2013-09-21T13:20:26Z</time>
      </trkpt>
      <trkpt lat="45.72457" lon="2.7849">
        <ele>822</ele>
        <time>2013-09-21T13:20:27Z</time>
      </trkpt>
      <trkpt lat="45.72445" lon="2.78488">
        <ele>822.79998779297</ele>
        <time>2013-09-21T13:20:35Z</time>
      </trkpt>
      <trkpt lat="45.72439" lon="2.78488">
        <ele>824</ele>
        <time>2013-09-21T13:20:39Z</time>
      </trkpt>
      <trkpt lat="45.7243" lon="2.78488">
        <ele>825.20001220703</ele>
        <time>2013-09-21T13:20:46Z</time>
      </trkpt>
      <trkpt lat="45.7242" lon="2.78488">
        <ele>827</ele>
        <time>2013-09-21T13:20:56Z</time>
      </trkpt>
      <trkpt lat="45.72404" lon="2.78485">
        <ele>829.79998779297</ele>
        <time>2013-09-21T13:21:07Z</time>
      </trkpt>
      <trkpt lat="45.72399" lon="2.78485">
        <ele>831.40002441406</ele>
        <time>2013-09-21T13:21:11Z</time>
      </trkpt>
      <trkpt lat="45.72389" lon="2.78485">
        <ele>833.59997558594</ele>
        <time>2013-09-21T13:21:20Z</time>
      </trkpt>
      <trkpt lat="45.72379" lon="2.78484">
        <ele>834.79998779297</ele>
        <time>2013-09-21T13:21:26Z</time>
      </trkpt>
      <trkpt lat="45.72365" lon="2.78486">
        <ele>835.79998779297</ele>
        <time>2013-09-21T13:21:32Z</time>
      </trkpt>
      <trkpt lat="45.72359" lon="2.78487">
        <ele>837</ele>
        <time>2013-09-21T13:21:37Z</time>
      </trkpt>
      <trkpt lat="45.72346" lon="2.78488">
        <ele>838.40002441406</ele>
        <time>2013-09-21T13:21:46Z</time>
      </trkpt>
      <trkpt lat="45.72342" lon="2.7849">
        <ele>839.59997558594</ele>
        <time>2013-09-21T13:21:49Z</time>
      </trkpt>
      <trkpt lat="45.7234" lon="2.78491">
        <ele>840</ele>
        <time>2013-09-21T13:21:50Z</time>
      </trkpt>
      <trkpt lat="45.72322" lon="2.78498">
        <ele>840.40002441406</ele>
        <time>2013-09-21T13:22:02Z</time>
      </trkpt>
      <trkpt lat="45.72319" lon="2.78501">
        <ele>841.20001220703</ele>
        <time>2013-09-21T13:22:04Z</time>
      </trkpt>
      <trkpt lat="45.72309" lon="2.78505">
        <ele>842</ele>
        <time>2013-09-21T13:22:11Z</time>
      </trkpt>
      <trkpt lat="45.723" lon="2.78508">
        <ele>842.79998779297</ele>
        <time>2013-09-21T13:22:18Z</time>
      </trkpt>
      <trkpt lat="45.7228" lon="2.78515">
        <ele>844.59997558594</ele>
        <time>2013-09-21T13:22:31Z</time>
      </trkpt>
      <trkpt lat="45.72264" lon="2.78523">
        <ele>846.20001220703</ele>
        <time>2013-09-21T13:22:41Z</time>
      </trkpt>
      <trkpt lat="45.72253" lon="2.78523">
        <ele>846.79998779297</ele>
        <time>2013-09-21T13:22:48Z</time>
      </trkpt>
      <trkpt lat="45.72249" lon="2.78522">
        <ele>847.59997558594</ele>
        <time>2013-09-21T13:22:50Z</time>
      </trkpt>
      <trkpt lat="45.72235" lon="2.78521">
        <ele>848.59997558594</ele>
        <time>2013-09-21T13:22:56Z</time>
      </trkpt>
      <trkpt lat="45.72229" lon="2.78523">
        <ele>849.79998779297</ele>
        <time>2013-09-21T13:22:59Z</time>
      </trkpt>
      <trkpt lat="45.72213" lon="2.78524">
        <ele>851.59997558594</ele>
        <time>2013-09-21T13:23:08Z</time>
      </trkpt>
      <trkpt lat="45.7221" lon="2.78524">
        <ele>852.40002441406</ele>
        <time>2013-09-21T13:23:10Z</time>
      </trkpt>
      <trkpt lat="45.72197" lon="2.78524">
        <ele>853.20001220703</ele>
        <time>2013-09-21T13:23:17Z</time>
      </trkpt>
      <trkpt lat="45.72187" lon="2.78523">
        <ele>854.79998779297</ele>
        <time>2013-09-21T13:23:22Z</time>
      </trkpt>
      <trkpt lat="45.72177" lon="2.78523">
        <ele>855.20001220703</ele>
        <time>2013-09-21T13:23:28Z</time>
      </trkpt>
      <trkpt lat="45.72158" lon="2.78535">
        <ele>856.79998779297</ele>
        <time>2013-09-21T13:23:39Z</time>
      </trkpt>
      <trkpt lat="45.72142" lon="2.78545">
        <ele>856.79998779297</ele>
        <time>2013-09-21T13:23:48Z</time>
      </trkpt>
      <trkpt lat="45.7214" lon="2.78546">
        <ele>857.40002441406</ele>
        <time>2013-09-21T13:23:49Z</time>
      </trkpt>
      <trkpt lat="45.72132" lon="2.7855">
        <ele>858.79998779297</ele>
        <time>2013-09-21T13:23:53Z</time>
      </trkpt>
      <trkpt lat="45.72127" lon="2.78553">
        <ele>859.20001220703</ele>
        <time>2013-09-21T13:23:56Z</time>
      </trkpt>
      <trkpt lat="45.7211" lon="2.7856">
        <ele>859.59997558594</ele>
        <time>2013-09-21T13:24:04Z</time>
      </trkpt>
      <trkpt lat="45.72108" lon="2.7856">
        <ele>860</ele>
        <time>2013-09-21T13:24:05Z</time>
      </trkpt>
      <trkpt lat="45.72079" lon="2.78564">
        <ele>861.20001220703</ele>
        <time>2013-09-21T13:24:15Z</time>
      </trkpt>
      <trkpt lat="45.72047" lon="2.78569">
        <ele>861.20001220703</ele>
        <time>2013-09-21T13:24:23Z</time>
      </trkpt>
      <trkpt lat="45.72016" lon="2.78571">
        <ele>861.20001220703</ele>
        <time>2013-09-21T13:24:29Z</time>
      </trkpt>
      <trkpt lat="45.72005" lon="2.7857">
        <ele>861.20001220703</ele>
        <time>2013-09-21T13:24:31Z</time>
      </trkpt>
      <trkpt lat="45.71981" lon="2.78566">
        <ele>860.79998779297</ele>
        <time>2013-09-21T13:24:35Z</time>
      </trkpt>
      <trkpt lat="45.71975" lon="2.78565">
        <ele>860.40002441406</ele>
        <time>2013-09-21T13:24:36Z</time>
      </trkpt>
      <trkpt lat="45.71968" lon="2.78564">
        <ele>860</ele>
        <time>2013-09-21T13:24:37Z</time>
      </trkpt>
      <trkpt lat="45.71955" lon="2.78561">
        <ele>859.20001220703</ele>
        <time>2013-09-21T13:24:39Z</time>
      </trkpt>
      <trkpt lat="45.71949" lon="2.78558">
        <ele>859.20001220703</ele>
        <time>2013-09-21T13:24:40Z</time>
      </trkpt>
      <trkpt lat="45.71937" lon="2.7855">
        <ele>858.20001220703</ele>
        <time>2013-09-21T13:24:42Z</time>
      </trkpt>
      <trkpt lat="45.71926" lon="2.78542">
        <ele>857.59997558594</ele>
        <time>2013-09-21T13:24:44Z</time>
      </trkpt>
      <trkpt lat="45.7192" lon="2.78539">
        <ele>856.79998779297</ele>
        <time>2013-09-21T13:24:45Z</time>
      </trkpt>
      <trkpt lat="45.71904" lon="2.78538">
        <ele>855.20001220703</ele>
        <time>2013-09-21T13:24:47Z</time>
      </trkpt>
      <trkpt lat="45.71894" lon="2.7854">
        <ele>854.40002441406</ele>
        <time>2013-09-21T13:24:48Z</time>
      </trkpt>
      <trkpt lat="45.71885" lon="2.78542">
        <ele>853.40002441406</ele>
        <time>2013-09-21T13:24:49Z</time>
      </trkpt>
      <trkpt lat="45.71876" lon="2.78545">
        <ele>852.59997558594</ele>
        <time>2013-09-21T13:24:50Z</time>
      </trkpt>
      <trkpt lat="45.71867" lon="2.78547">
        <ele>851.79998779297</ele>
        <time>2013-09-21T13:24:51Z</time>
      </trkpt>
      <trkpt lat="45.71857" lon="2.7855">
        <ele>851</ele>
        <time>2013-09-21T13:24:52Z</time>
      </trkpt>
      <trkpt lat="45.71848" lon="2.78551">
        <ele>850.20001220703</ele>
        <time>2013-09-21T13:24:53Z</time>
      </trkpt>
      <trkpt lat="45.71839" lon="2.78552">
        <ele>849.40002441406</ele>
        <time>2013-09-21T13:24:54Z</time>
      </trkpt>
      <trkpt lat="45.71829" lon="2.78552">
        <ele>848.79998779297</ele>
        <time>2013-09-21T13:24:55Z</time>
      </trkpt>
      <trkpt lat="45.7182" lon="2.78551">
        <ele>848.20001220703</ele>
        <time>2013-09-21T13:24:56Z</time>
      </trkpt>
      <trkpt lat="45.7181" lon="2.78549">
        <ele>847.40002441406</ele>
        <time>2013-09-21T13:24:57Z</time>
      </trkpt>
      <trkpt lat="45.71801" lon="2.78547">
        <ele>846.79998779297</ele>
        <time>2013-09-21T13:24:58Z</time>
      </trkpt>
      <trkpt lat="45.71791" lon="2.78544">
        <ele>846.20001220703</ele>
        <time>2013-09-21T13:24:59Z</time>
      </trkpt>
      <trkpt lat="45.71782" lon="2.78541">
        <ele>845.59997558594</ele>
        <time>2013-09-21T13:25:00Z</time>
      </trkpt>
      <trkpt lat="45.71773" lon="2.78538">
        <ele>845</ele>
        <time>2013-09-21T13:25:01Z</time>
      </trkpt>
      <trkpt lat="45.71765" lon="2.78535">
        <ele>844.40002441406</ele>
        <time>2013-09-21T13:25:02Z</time>
      </trkpt>
      <trkpt lat="45.71725" lon="2.78519">
        <ele>844.40002441406</ele>
        <time>2013-09-21T13:25:07Z</time>
      </trkpt>
      <trkpt lat="45.71693" lon="2.78515">
        <ele>844.40002441406</ele>
        <time>2013-09-21T13:25:12Z</time>
      </trkpt>
      <trkpt lat="45.71664" lon="2.78515">
        <ele>844.40002441406</ele>
        <time>2013-09-21T13:25:18Z</time>
      </trkpt>
      <trkpt lat="45.71648" lon="2.78528">
        <ele>844.40002441406</ele>
        <time>2013-09-21T13:25:22Z</time>
      </trkpt>
      <trkpt lat="45.71642" lon="2.78538">
        <ele>844.40002441406</ele>
        <time>2013-09-21T13:25:24Z</time>
      </trkpt>
      <trkpt lat="45.71638" lon="2.78543">
        <ele>844.40002441406</ele>
        <time>2013-09-21T13:25:25Z</time>
      </trkpt>
      <trkpt lat="45.71627" lon="2.78555">
        <ele>844.40002441406</ele>
        <time>2013-09-21T13:25:28Z</time>
      </trkpt>
      <trkpt lat="45.71618" lon="2.78562">
        <ele>845.40002441406</ele>
        <time>2013-09-21T13:25:30Z</time>
      </trkpt>
      <trkpt lat="45.71609" lon="2.7857">
        <ele>846.40002441406</ele>
        <time>2013-09-21T13:25:32Z</time>
      </trkpt>
      <trkpt lat="45.71605" lon="2.78574">
        <ele>846.79998779297</ele>
        <time>2013-09-21T13:25:33Z</time>
      </trkpt>
      <trkpt lat="45.71576" lon="2.78588">
        <ele>847.20001220703</ele>
        <time>2013-09-21T13:25:39Z</time>
      </trkpt>
      <trkpt lat="45.71571" lon="2.78591">
        <ele>847.59997558594</ele>
        <time>2013-09-21T13:25:40Z</time>
      </trkpt>
      <trkpt lat="45.71566" lon="2.78594">
        <ele>848</ele>
        <time>2013-09-21T13:25:41Z</time>
      </trkpt>
      <trkpt lat="45.71558" lon="2.78603">
        <ele>848.79998779297</ele>
        <time>2013-09-21T13:25:43Z</time>
      </trkpt>
      <trkpt lat="45.71545" lon="2.78631">
        <ele>848.79998779297</ele>
        <time>2013-09-21T13:25:47Z</time>
      </trkpt>
      <trkpt lat="45.71529" lon="2.78659">
        <ele>848.79998779297</ele>
        <time>2013-09-21T13:25:52Z</time>
      </trkpt>
      <trkpt lat="45.71527" lon="2.78663">
        <ele>848.79998779297</ele>
        <time>2013-09-21T13:25:53Z</time>
      </trkpt>
      <trkpt lat="45.71507" lon="2.78676">
        <ele>848.79998779297</ele>
        <time>2013-09-21T13:26:00Z</time>
      </trkpt>
      <trkpt lat="45.71511" lon="2.78657">
        <ele>848.79998779297</ele>
        <time>2013-09-21T13:26:04Z</time>
      </trkpt>
      <trkpt lat="45.71519" lon="2.78636">
        <ele>849.20001220703</ele>
        <time>2013-09-21T13:26:08Z</time>
      </trkpt>
      <trkpt lat="45.71521" lon="2.7863">
        <ele>849.79998779297</ele>
        <time>2013-09-21T13:26:09Z</time>
      </trkpt>
      <trkpt lat="45.71526" lon="2.78616">
        <ele>850.59997558594</ele>
        <time>2013-09-21T13:26:11Z</time>
      </trkpt>
      <trkpt lat="45.71527" lon="2.7861">
        <ele>851</ele>
        <time>2013-09-21T13:26:12Z</time>
      </trkpt>
      <trkpt lat="45.71531" lon="2.78597">
        <ele>851</ele>
        <time>2013-09-21T13:26:14Z</time>
      </trkpt>
      <trkpt lat="45.71545" lon="2.78553">
        <ele>851</ele>
        <time>2013-09-21T13:26:22Z</time>
      </trkpt>
      <trkpt lat="45.71547" lon="2.78543">
        <ele>851.40002441406</ele>
        <time>2013-09-21T13:26:24Z</time>
      </trkpt>
      <trkpt lat="45.71548" lon="2.78537">
        <ele>851.79998779297</ele>
        <time>2013-09-21T13:26:25Z</time>
      </trkpt>
      <trkpt lat="45.71551" lon="2.7853">
        <ele>852.20001220703</ele>
        <time>2013-09-21T13:26:26Z</time>
      </trkpt>
      <trkpt lat="45.71552" lon="2.78525">
        <ele>852.59997558594</ele>
        <time>2013-09-21T13:26:27Z</time>
      </trkpt>
      <trkpt lat="45.71556" lon="2.7851">
        <ele>853</ele>
        <time>2013-09-21T13:26:30Z</time>
      </trkpt>
      <trkpt lat="45.71561" lon="2.78476">
        <ele>853</ele>
        <time>2013-09-21T13:26:36Z</time>
      </trkpt>
      <trkpt lat="45.71567" lon="2.78438">
        <ele>853</ele>
        <time>2013-09-21T13:26:43Z</time>
      </trkpt>
      <trkpt lat="45.71569" lon="2.78429">
        <ele>853.40002441406</ele>
        <time>2013-09-21T13:26:45Z</time>
      </trkpt>
      <trkpt lat="45.7157" lon="2.78424">
        <ele>853.79998779297</ele>
        <time>2013-09-21T13:26:46Z</time>
      </trkpt>
      <trkpt lat="45.71571" lon="2.78418">
        <ele>854.20001220703</ele>
        <time>2013-09-21T13:26:47Z</time>
      </trkpt>
      <trkpt lat="45.71574" lon="2.78408">
        <ele>855</ele>
        <time>2013-09-21T13:26:49Z</time>
      </trkpt>
      <trkpt lat="45.71577" lon="2.78393">
        <ele>855</ele>
        <time>2013-09-21T13:26:52Z</time>
      </trkpt>
      <trkpt lat="45.71588" lon="2.7836">
        <ele>855</ele>
        <time>2013-09-21T13:26:59Z</time>
      </trkpt>
      <trkpt lat="45.71595" lon="2.78344">
        <ele>855.59997558594</ele>
        <time>2013-09-21T13:27:04Z</time>
      </trkpt>
      <trkpt lat="45.71597" lon="2.78338">
        <ele>856.40002441406</ele>
        <time>2013-09-21T13:27:06Z</time>
      </trkpt>
      <trkpt lat="45.71599" lon="2.78329">
        <ele>857.40002441406</ele>
        <time>2013-09-21T13:27:08Z</time>
      </trkpt>
      <trkpt lat="45.71602" lon="2.78315">
        <ele>857.40002441406</ele>
        <time>2013-09-21T13:27:11Z</time>
      </trkpt>
      <trkpt lat="45.71622" lon="2.78279">
        <ele>857.40002441406</ele>
        <time>2013-09-21T13:27:19Z</time>
      </trkpt>
      <trkpt lat="45.71642" lon="2.7824">
        <ele>857.40002441406</ele>
        <time>2013-09-21T13:27:26Z</time>
      </trkpt>
      <trkpt lat="45.71653" lon="2.78199">
        <ele>857.40002441406</ele>
        <time>2013-09-21T13:27:31Z</time>
      </trkpt>
      <trkpt lat="45.71652" lon="2.78179">
        <ele>857.40002441406</ele>
        <time>2013-09-21T13:27:34Z</time>
      </trkpt>
      <trkpt lat="45.71647" lon="2.78165">
        <ele>857.40002441406</ele>
        <time>2013-09-21T13:27:38Z</time>
      </trkpt>
      <trkpt lat="45.71638" lon="2.78144">
        <ele>857.40002441406</ele>
        <time>2013-09-21T13:27:43Z</time>
      </trkpt>
      <trkpt lat="45.71637" lon="2.78139">
        <ele>857.40002441406</ele>
        <time>2013-09-21T13:27:44Z</time>
      </trkpt>
      <trkpt lat="45.71624" lon="2.78107">
        <ele>857.40002441406</ele>
        <time>2013-09-21T13:27:52Z</time>
      </trkpt>
      <trkpt lat="45.71615" lon="2.78086">
        <ele>857.40002441406</ele>
        <time>2013-09-21T13:27:57Z</time>
      </trkpt>
      <trkpt lat="45.71605" lon="2.78063">
        <ele>857.40002441406</ele>
        <time>2013-09-21T13:28:03Z</time>
      </trkpt>
      <trkpt lat="45.71587" lon="2.78044">
        <ele>857.40002441406</ele>
        <time>2013-09-21T13:28:10Z</time>
      </trkpt>
      <trkpt lat="45.71581" lon="2.78036">
        <ele>857.79998779297</ele>
        <time>2013-09-21T13:28:13Z</time>
      </trkpt>
      <trkpt lat="45.71571" lon="2.78027">
        <ele>857.79998779297</ele>
        <time>2013-09-21T13:28:16Z</time>
      </trkpt>
      <trkpt lat="45.71564" lon="2.7802">
        <ele>858.20001220703</ele>
        <time>2013-09-21T13:28:19Z</time>
      </trkpt>
      <trkpt lat="45.71556" lon="2.7801">
        <ele>858.20001220703</ele>
        <time>2013-09-21T13:28:23Z</time>
      </trkpt>
      <trkpt lat="45.71534" lon="2.77987">
        <ele>859</ele>
        <time>2013-09-21T13:28:31Z</time>
      </trkpt>
      <trkpt lat="45.71518" lon="2.77969">
        <ele>859.40002441406</ele>
        <time>2013-09-21T13:28:37Z</time>
      </trkpt>
      <trkpt lat="45.71499" lon="2.77956">
        <ele>859.79998779297</ele>
        <time>2013-09-21T13:28:43Z</time>
      </trkpt>
      <trkpt lat="45.71488" lon="2.7795">
        <ele>859.79998779297</ele>
        <time>2013-09-21T13:28:46Z</time>
      </trkpt>
      <trkpt lat="45.71476" lon="2.77946">
        <ele>860.79998779297</ele>
        <time>2013-09-21T13:28:49Z</time>
      </trkpt>
      <trkpt lat="45.71461" lon="2.77939">
        <ele>860.79998779297</ele>
        <time>2013-09-21T13:28:52Z</time>
      </trkpt>
      <trkpt lat="45.71446" lon="2.7793">
        <ele>861.59997558594</ele>
        <time>2013-09-21T13:28:55Z</time>
      </trkpt>
      <trkpt lat="45.71425" lon="2.77919">
        <ele>861.59997558594</ele>
        <time>2013-09-21T13:28:59Z</time>
      </trkpt>
      <trkpt lat="45.71394" lon="2.779">
        <ele>861.59997558594</ele>
        <time>2013-09-21T13:29:05Z</time>
      </trkpt>
      <trkpt lat="45.71373" lon="2.77888">
        <ele>861.59997558594</ele>
        <time>2013-09-21T13:29:09Z</time>
      </trkpt>
      <trkpt lat="45.71363" lon="2.77884">
        <ele>861.59997558594</ele>
        <time>2013-09-21T13:29:11Z</time>
      </trkpt>
      <trkpt lat="45.71343" lon="2.77887">
        <ele>861.59997558594</ele>
        <time>2013-09-21T13:29:16Z</time>
      </trkpt>
      <trkpt lat="45.71339" lon="2.77891">
        <ele>861.59997558594</ele>
        <time>2013-09-21T13:29:17Z</time>
      </trkpt>
      <trkpt lat="45.7133" lon="2.77895">
        <ele>861.59997558594</ele>
        <time>2013-09-21T13:29:19Z</time>
      </trkpt>
      <trkpt lat="45.71303" lon="2.77911">
        <ele>861.59997558594</ele>
        <time>2013-09-21T13:29:24Z</time>
      </trkpt>
      <trkpt lat="45.71283" lon="2.77934">
        <ele>861.59997558594</ele>
        <time>2013-09-21T13:29:28Z</time>
      </trkpt>
      <trkpt lat="45.71278" lon="2.77937">
        <ele>860.20001220703</ele>
        <time>2013-09-21T13:29:29Z</time>
      </trkpt>
      <trkpt lat="45.71267" lon="2.77938">
        <ele>860.20001220703</ele>
        <time>2013-09-21T13:29:32Z</time>
      </trkpt>
      <trkpt lat="45.71259" lon="2.77936">
        <ele>858.20001220703</ele>
        <time>2013-09-21T13:29:37Z</time>
      </trkpt>
      <trkpt lat="45.71249" lon="2.77929">
        <ele>860.40002441406</ele>
        <time>2013-09-21T13:29:45Z</time>
      </trkpt>
      <trkpt lat="45.71231" lon="2.77909">
        <ele>863.40002441406</ele>
        <time>2013-09-21T13:30:01Z</time>
      </trkpt>
      <trkpt lat="45.71228" lon="2.77907">
        <ele>864.40002441406</ele>
        <time>2013-09-21T13:30:03Z</time>
      </trkpt>
      <trkpt lat="45.71214" lon="2.779">
        <ele>865</ele>
        <time>2013-09-21T13:30:12Z</time>
      </trkpt>
      <trkpt lat="45.71212" lon="2.77899">
        <ele>865.40002441406</ele>
        <time>2013-09-21T13:30:13Z</time>
      </trkpt>
      <trkpt lat="45.71209" lon="2.77898">
        <ele>866.20001220703</ele>
        <time>2013-09-21T13:30:15Z</time>
      </trkpt>
      <trkpt lat="45.71188" lon="2.77887">
        <ele>867</ele>
        <time>2013-09-21T13:30:26Z</time>
      </trkpt>
      <trkpt lat="45.71165" lon="2.77875">
        <ele>867</ele>
        <time>2013-09-21T13:30:36Z</time>
      </trkpt>
      <trkpt lat="45.71143" lon="2.77865">
        <ele>867</ele>
        <time>2013-09-21T13:30:43Z</time>
      </trkpt>
      <trkpt lat="45.71122" lon="2.77861">
        <ele>867</ele>
        <time>2013-09-21T13:30:50Z</time>
      </trkpt>
      <trkpt lat="45.71119" lon="2.7786">
        <ele>867.59997558594</ele>
        <time>2013-09-21T13:30:51Z</time>
      </trkpt>
      <trkpt lat="45.71107" lon="2.77858">
        <ele>869.40002441406</ele>
        <time>2013-09-21T13:30:55Z</time>
      </trkpt>
      <trkpt lat="45.71097" lon="2.77856">
        <ele>869.40002441406</ele>
        <time>2013-09-21T13:30:59Z</time>
      </trkpt>
      <trkpt lat="45.71075" lon="2.7785">
        <ele>869.40002441406</ele>
        <time>2013-09-21T13:31:06Z</time>
      </trkpt>
      <trkpt lat="45.71067" lon="2.77851">
        <ele>869.79998779297</ele>
        <time>2013-09-21T13:31:09Z</time>
      </trkpt>
      <trkpt lat="45.71058" lon="2.77853">
        <ele>871.59997558594</ele>
        <time>2013-09-21T13:31:13Z</time>
      </trkpt>
      <trkpt lat="45.7105" lon="2.77857">
        <ele>872</ele>
        <time>2013-09-21T13:31:18Z</time>
      </trkpt>
      <trkpt lat="45.71046" lon="2.7786">
        <ele>873.20001220703</ele>
        <time>2013-09-21T13:31:21Z</time>
      </trkpt>
      <trkpt lat="45.71035" lon="2.77866">
        <ele>874</ele>
        <time>2013-09-21T13:31:27Z</time>
      </trkpt>
      <trkpt lat="45.71029" lon="2.77868">
        <ele>875.40002441406</ele>
        <time>2013-09-21T13:31:30Z</time>
      </trkpt>
      <trkpt lat="45.71003" lon="2.77866">
        <ele>875.79998779297</ele>
        <time>2013-09-21T13:31:40Z</time>
      </trkpt>
      <trkpt lat="45.70987" lon="2.77868">
        <ele>875.79998779297</ele>
        <time>2013-09-21T13:31:46Z</time>
      </trkpt>
      <trkpt lat="45.70967" lon="2.77868">
        <ele>875.79998779297</ele>
        <time>2013-09-21T13:31:53Z</time>
      </trkpt>
      <trkpt lat="45.70947" lon="2.77866">
        <ele>875.79998779297</ele>
        <time>2013-09-21T13:32:01Z</time>
      </trkpt>
      <trkpt lat="45.70929" lon="2.77864">
        <ele>875.79998779297</ele>
        <time>2013-09-21T13:32:08Z</time>
      </trkpt>
      <trkpt lat="45.70909" lon="2.77859">
        <ele>875.79998779297</ele>
        <time>2013-09-21T13:32:14Z</time>
      </trkpt>
      <trkpt lat="45.70885" lon="2.77858">
        <ele>875.79998779297</ele>
        <time>2013-09-21T13:32:22Z</time>
      </trkpt>
      <trkpt lat="45.70874" lon="2.77859">
        <ele>876.20001220703</ele>
        <time>2013-09-21T13:32:25Z</time>
      </trkpt>
      <trkpt lat="45.70867" lon="2.77859">
        <ele>877</ele>
        <time>2013-09-21T13:32:27Z</time>
      </trkpt>
      <trkpt lat="45.7086" lon="2.77859">
        <ele>877.79998779297</ele>
        <time>2013-09-21T13:32:29Z</time>
      </trkpt>
      <trkpt lat="45.70827" lon="2.77851">
        <ele>877.79998779297</ele>
        <time>2013-09-21T13:32:36Z</time>
      </trkpt>
      <trkpt lat="45.70805" lon="2.7785">
        <ele>877.79998779297</ele>
        <time>2013-09-21T13:32:40Z</time>
      </trkpt>
      <trkpt lat="45.70795" lon="2.7785">
        <ele>877.79998779297</ele>
        <time>2013-09-21T13:32:42Z</time>
      </trkpt>
      <trkpt lat="45.7079" lon="2.77849">
        <ele>877.79998779297</ele>
        <time>2013-09-21T13:32:43Z</time>
      </trkpt>
      <trkpt lat="45.70782" lon="2.77844">
        <ele>877.40002441406</ele>
        <time>2013-09-21T13:32:45Z</time>
      </trkpt>
      <trkpt lat="45.70778" lon="2.77841">
        <ele>877</ele>
        <time>2013-09-21T13:32:46Z</time>
      </trkpt>
      <trkpt lat="45.70773" lon="2.77839">
        <ele>876.59997558594</ele>
        <time>2013-09-21T13:32:47Z</time>
      </trkpt>
      <trkpt lat="45.70769" lon="2.77837">
        <ele>876.20001220703</ele>
        <time>2013-09-21T13:32:48Z</time>
      </trkpt>
      <trkpt lat="45.70747" lon="2.77826">
        <ele>875.79998779297</ele>
        <time>2013-09-21T13:32:52Z</time>
      </trkpt>
      <trkpt lat="45.70733" lon="2.77816">
        <ele>874.79998779297</ele>
        <time>2013-09-21T13:32:54Z</time>
      </trkpt>
      <trkpt lat="45.70726" lon="2.7781">
        <ele>874.40002441406</ele>
        <time>2013-09-21T13:32:55Z</time>
      </trkpt>
      <trkpt lat="45.70719" lon="2.77802">
        <ele>873.59997558594</ele>
        <time>2013-09-21T13:32:56Z</time>
      </trkpt>
      <trkpt lat="45.70712" lon="2.77794">
        <ele>873</ele>
        <time>2013-09-21T13:32:57Z</time>
      </trkpt>
      <trkpt lat="45.70705" lon="2.77786">
        <ele>872.40002441406</ele>
        <time>2013-09-21T13:32:58Z</time>
      </trkpt>
      <trkpt lat="45.70697" lon="2.77776">
        <ele>871.59997558594</ele>
        <time>2013-09-21T13:32:59Z</time>
      </trkpt>
      <trkpt lat="45.70688" lon="2.77768">
        <ele>870.79998779297</ele>
        <time>2013-09-21T13:33:00Z</time>
      </trkpt>
      <trkpt lat="45.7068" lon="2.7776">
        <ele>870</ele>
        <time>2013-09-21T13:33:01Z</time>
      </trkpt>
      <trkpt lat="45.7067" lon="2.77759">
        <ele>869.40002441406</ele>
        <time>2013-09-21T13:33:02Z</time>
      </trkpt>
      <trkpt lat="45.70661" lon="2.77758">
        <ele>868.59997558594</ele>
        <time>2013-09-21T13:33:03Z</time>
      </trkpt>
      <trkpt lat="45.70652" lon="2.77759">
        <ele>867.79998779297</ele>
        <time>2013-09-21T13:33:04Z</time>
      </trkpt>
      <trkpt lat="45.70642" lon="2.7776">
        <ele>867</ele>
        <time>2013-09-21T13:33:05Z</time>
      </trkpt>
      <trkpt lat="45.70634" lon="2.77763">
        <ele>866.40002441406</ele>
        <time>2013-09-21T13:33:06Z</time>
      </trkpt>
      <trkpt lat="45.70627" lon="2.77766">
        <ele>866.40002441406</ele>
        <time>2013-09-21T13:33:07Z</time>
      </trkpt>
      <trkpt lat="45.70609" lon="2.77773">
        <ele>866.40002441406</ele>
        <time>2013-09-21T13:33:10Z</time>
      </trkpt>
      <trkpt lat="45.70592" lon="2.77778">
        <ele>866.40002441406</ele>
        <time>2013-09-21T13:33:13Z</time>
      </trkpt>
      <trkpt lat="45.70578" lon="2.7778">
        <ele>866.40002441406</ele>
        <time>2013-09-21T13:33:15Z</time>
      </trkpt>
      <trkpt lat="45.70557" lon="2.77801">
        <ele>866.40002441406</ele>
        <time>2013-09-21T13:33:20Z</time>
      </trkpt>
      <trkpt lat="45.70538" lon="2.7782">
        <ele>867.20001220703</ele>
        <time>2013-09-21T13:33:25Z</time>
      </trkpt>
      <trkpt lat="45.7053" lon="2.77826">
        <ele>868</ele>
        <time>2013-09-21T13:33:27Z</time>
      </trkpt>
      <trkpt lat="45.70511" lon="2.77834">
        <ele>868.40002441406</ele>
        <time>2013-09-21T13:33:32Z</time>
      </trkpt>
      <trkpt lat="45.70488" lon="2.77845">
        <ele>868.40002441406</ele>
        <time>2013-09-21T13:33:39Z</time>
      </trkpt>
      <trkpt lat="45.70467" lon="2.77851">
        <ele>868.40002441406</ele>
        <time>2013-09-21T13:33:44Z</time>
      </trkpt>
      <trkpt lat="45.70444" lon="2.77866">
        <ele>868.79998779297</ele>
        <time>2013-09-21T13:33:49Z</time>
      </trkpt>
      <trkpt lat="45.70439" lon="2.77869">
        <ele>869.40002441406</ele>
        <time>2013-09-21T13:33:50Z</time>
      </trkpt>
      <trkpt lat="45.70434" lon="2.77872">
        <ele>869.79998779297</ele>
        <time>2013-09-21T13:33:51Z</time>
      </trkpt>
      <trkpt lat="45.7043" lon="2.77875">
        <ele>870.20001220703</ele>
        <time>2013-09-21T13:33:52Z</time>
      </trkpt>
      <trkpt lat="45.70393" lon="2.77897">
        <ele>870.59997558594</ele>
        <time>2013-09-21T13:34:00Z</time>
      </trkpt>
      <trkpt lat="45.70367" lon="2.77905">
        <ele>870.59997558594</ele>
        <time>2013-09-21T13:34:06Z</time>
      </trkpt>
      <trkpt lat="45.70337" lon="2.77913">
        <ele>870.59997558594</ele>
        <time>2013-09-21T13:34:12Z</time>
      </trkpt>
      <trkpt lat="45.70321" lon="2.77909">
        <ele>870.59997558594</ele>
        <time>2013-09-21T13:34:15Z</time>
      </trkpt>
      <trkpt lat="45.70285" lon="2.77901">
        <ele>870.59997558594</ele>
        <time>2013-09-21T13:34:22Z</time>
      </trkpt>
      <trkpt lat="45.70256" lon="2.77896">
        <ele>870.59997558594</ele>
        <time>2013-09-21T13:34:29Z</time>
      </trkpt>
      <trkpt lat="45.7025" lon="2.77893">
        <ele>871</ele>
        <time>2013-09-21T13:34:31Z</time>
      </trkpt>
      <trkpt lat="45.70245" lon="2.77889">
        <ele>871.79998779297</ele>
        <time>2013-09-21T13:34:33Z</time>
      </trkpt>
      <trkpt lat="45.7024" lon="2.77885">
        <ele>872.59997558594</ele>
        <time>2013-09-21T13:34:35Z</time>
      </trkpt>
      <trkpt lat="45.70234" lon="2.7788">
        <ele>873</ele>
        <time>2013-09-21T13:34:38Z</time>
      </trkpt>
      <trkpt lat="45.70229" lon="2.77875">
        <ele>874.20001220703</ele>
        <time>2013-09-21T13:34:41Z</time>
      </trkpt>
      <trkpt lat="45.70221" lon="2.77868">
        <ele>875.20001220703</ele>
        <time>2013-09-21T13:34:44Z</time>
      </trkpt>
      <trkpt lat="45.70219" lon="2.77865">
        <ele>875.59997558594</ele>
        <time>2013-09-21T13:34:45Z</time>
      </trkpt>
      <trkpt lat="45.70211" lon="2.77859">
        <ele>876.79998779297</ele>
        <time>2013-09-21T13:34:48Z</time>
      </trkpt>
      <trkpt lat="45.7021" lon="2.77857">
        <ele>876.79998779297</ele>
        <time>2013-09-21T13:34:49Z</time>
      </trkpt>
      <trkpt lat="45.70196" lon="2.77847">
        <ele>877.20001220703</ele>
        <time>2013-09-21T13:34:55Z</time>
      </trkpt>
      <trkpt lat="45.70189" lon="2.77845">
        <ele>878.59997558594</ele>
        <time>2013-09-21T13:34:58Z</time>
      </trkpt>
      <trkpt lat="45.70175" lon="2.77837">
        <ele>879</ele>
        <time>2013-09-21T13:35:04Z</time>
      </trkpt>
      <trkpt lat="45.70159" lon="2.77829">
        <ele>879.40002441406</ele>
        <time>2013-09-21T13:35:11Z</time>
      </trkpt>
      <trkpt lat="45.70148" lon="2.77827">
        <ele>881</ele>
        <time>2013-09-21T13:35:15Z</time>
      </trkpt>
      <trkpt lat="45.70136" lon="2.77829">
        <ele>881</ele>
        <time>2013-09-21T13:35:19Z</time>
      </trkpt>
      <trkpt lat="45.70116" lon="2.77823">
        <ele>881</ele>
        <time>2013-09-21T13:35:26Z</time>
      </trkpt>
      <trkpt lat="45.70094" lon="2.77817">
        <ele>881</ele>
        <time>2013-09-21T13:35:32Z</time>
      </trkpt>
      <trkpt lat="45.70084" lon="2.77825">
        <ele>881</ele>
        <time>2013-09-21T13:35:36Z</time>
      </trkpt>
      <trkpt lat="45.70079" lon="2.77835">
        <ele>881.59997558594</ele>
        <time>2013-09-21T13:35:39Z</time>
      </trkpt>
      <trkpt lat="45.70076" lon="2.77842">
        <ele>882.40002441406</ele>
        <time>2013-09-21T13:35:41Z</time>
      </trkpt>
      <trkpt lat="45.70068" lon="2.77853">
        <ele>883.20001220703</ele>
        <time>2013-09-21T13:35:46Z</time>
      </trkpt>
      <trkpt lat="45.7006" lon="2.77857">
        <ele>884.59997558594</ele>
        <time>2013-09-21T13:35:50Z</time>
      </trkpt>
      <trkpt lat="45.70042" lon="2.77856">
        <ele>885.40002441406</ele>
        <time>2013-09-21T13:35:57Z</time>
      </trkpt>
      <trkpt lat="45.70023" lon="2.77858">
        <ele>885.40002441406</ele>
        <time>2013-09-21T13:36:01Z</time>
      </trkpt>
      <trkpt lat="45.70018" lon="2.7786">
        <ele>885.40002441406</ele>
        <time>2013-09-21T13:36:02Z</time>
      </trkpt>
      <trkpt lat="45.70012" lon="2.77874">
        <ele>885.40002441406</ele>
        <time>2013-09-21T13:36:05Z</time>
      </trkpt>
      <trkpt lat="45.7001" lon="2.77878">
        <ele>885.40002441406</ele>
        <time>2013-09-21T13:36:06Z</time>
      </trkpt>
      <trkpt lat="45.69995" lon="2.77889">
        <ele>885.40002441406</ele>
        <time>2013-09-21T13:36:11Z</time>
      </trkpt>
      <trkpt lat="45.69986" lon="2.77888">
        <ele>885.79998779297</ele>
        <time>2013-09-21T13:36:14Z</time>
      </trkpt>
      <trkpt lat="45.6998" lon="2.77887">
        <ele>886.59997558594</ele>
        <time>2013-09-21T13:36:16Z</time>
      </trkpt>
      <trkpt lat="45.69965" lon="2.77887">
        <ele>887.40002441406</ele>
        <time>2013-09-21T13:36:21Z</time>
      </trkpt>
      <trkpt lat="45.69943" lon="2.77886">
        <ele>887.40002441406</ele>
        <time>2013-09-21T13:36:28Z</time>
      </trkpt>
      <trkpt lat="45.69937" lon="2.77887">
        <ele>887.79998779297</ele>
        <time>2013-09-21T13:36:30Z</time>
      </trkpt>
      <trkpt lat="45.69927" lon="2.77887">
        <ele>889.20001220703</ele>
        <time>2013-09-21T13:36:33Z</time>
      </trkpt>
      <trkpt lat="45.69922" lon="2.77891">
        <ele>889.59997558594</ele>
        <time>2013-09-21T13:36:35Z</time>
      </trkpt>
      <trkpt lat="45.69915" lon="2.7791">
        <ele>890</ele>
        <time>2013-09-21T13:36:41Z</time>
      </trkpt>
      <trkpt lat="45.69913" lon="2.7792">
        <ele>891.40002441406</ele>
        <time>2013-09-21T13:36:44Z</time>
      </trkpt>
      <trkpt lat="45.69907" lon="2.77938">
        <ele>891.79998779297</ele>
        <time>2013-09-21T13:36:50Z</time>
      </trkpt>
      <trkpt lat="45.69907" lon="2.77941">
        <ele>892.20001220703</ele>
        <time>2013-09-21T13:36:51Z</time>
      </trkpt>
      <trkpt lat="45.69903" lon="2.77953">
        <ele>894</ele>
        <time>2013-09-21T13:36:55Z</time>
      </trkpt>
      <trkpt lat="45.69899" lon="2.77964">
        <ele>894</ele>
        <time>2013-09-21T13:36:59Z</time>
      </trkpt>
      <trkpt lat="45.69896" lon="2.77973">
        <ele>894.40002441406</ele>
        <time>2013-09-21T13:37:02Z</time>
      </trkpt>
      <trkpt lat="45.69891" lon="2.77981">
        <ele>895.59997558594</ele>
        <time>2013-09-21T13:37:05Z</time>
      </trkpt>
      <trkpt lat="45.6989" lon="2.77984">
        <ele>896</ele>
        <time>2013-09-21T13:37:06Z</time>
      </trkpt>
      <trkpt lat="45.69884" lon="2.77998">
        <ele>896</ele>
        <time>2013-09-21T13:37:11Z</time>
      </trkpt>
      <trkpt lat="45.6988" lon="2.7801">
        <ele>896.40002441406</ele>
        <time>2013-09-21T13:37:16Z</time>
      </trkpt>
      <trkpt lat="45.69876" lon="2.78021">
        <ele>898.20001220703</ele>
        <time>2013-09-21T13:37:20Z</time>
      </trkpt>
      <trkpt lat="45.6987" lon="2.78035">
        <ele>898.59997558594</ele>
        <time>2013-09-21T13:37:26Z</time>
      </trkpt>
      <trkpt lat="45.69868" lon="2.7804">
        <ele>899.40002441406</ele>
        <time>2013-09-21T13:37:28Z</time>
      </trkpt>
      <trkpt lat="45.69862" lon="2.78058">
        <ele>900.59997558594</ele>
        <time>2013-09-21T13:37:35Z</time>
      </trkpt>
      <trkpt lat="45.69861" lon="2.78061">
        <ele>901</ele>
        <time>2013-09-21T13:37:36Z</time>
      </trkpt>
      <trkpt lat="45.69859" lon="2.78065">
        <ele>901.79998779297</ele>
        <time>2013-09-21T13:37:38Z</time>
      </trkpt>
      <trkpt lat="45.69855" lon="2.78074">
        <ele>902.20001220703</ele>
        <time>2013-09-21T13:37:42Z</time>
      </trkpt>
      <trkpt lat="45.69848" lon="2.7808">
        <ele>902.59997558594</ele>
        <time>2013-09-21T13:37:46Z</time>
      </trkpt>
      <trkpt lat="45.69839" lon="2.78081">
        <ele>904.40002441406</ele>
        <time>2013-09-21T13:37:50Z</time>
      </trkpt>
      <trkpt lat="45.69825" lon="2.78078">
        <ele>904.40002441406</ele>
        <time>2013-09-21T13:37:56Z</time>
      </trkpt>
      <trkpt lat="45.69806" lon="2.78068">
        <ele>904.40002441406</ele>
        <time>2013-09-21T13:38:04Z</time>
      </trkpt>
      <trkpt lat="45.69792" lon="2.78063">
        <ele>904.79998779297</ele>
        <time>2013-09-21T13:38:09Z</time>
      </trkpt>
      <trkpt lat="45.69786" lon="2.78061">
        <ele>905.59997558594</ele>
        <time>2013-09-21T13:38:11Z</time>
      </trkpt>
      <trkpt lat="45.6978" lon="2.78059">
        <ele>906</ele>
        <time>2013-09-21T13:38:13Z</time>
      </trkpt>
      <trkpt lat="45.69778" lon="2.78058">
        <ele>906.40002441406</ele>
        <time>2013-09-21T13:38:14Z</time>
      </trkpt>
      <trkpt lat="45.69749" lon="2.78047">
        <ele>906.40002441406</ele>
        <time>2013-09-21T13:38:24Z</time>
      </trkpt>
      <trkpt lat="45.69733" lon="2.7804">
        <ele>907</ele>
        <time>2013-09-21T13:38:30Z</time>
      </trkpt>
      <trkpt lat="45.6973" lon="2.78039">
        <ele>907.40002441406</ele>
        <time>2013-09-21T13:38:31Z</time>
      </trkpt>
      <trkpt lat="45.69719" lon="2.78034">
        <ele>908.79998779297</ele>
        <time>2013-09-21T13:38:35Z</time>
      </trkpt>
      <trkpt lat="45.69692" lon="2.78021">
        <ele>909.20001220703</ele>
        <time>2013-09-21T13:38:44Z</time>
      </trkpt>
      <trkpt lat="45.69689" lon="2.78019">
        <ele>909.59997558594</ele>
        <time>2013-09-21T13:38:45Z</time>
      </trkpt>
      <trkpt lat="45.6968" lon="2.78013">
        <ele>910.79998779297</ele>
        <time>2013-09-21T13:38:48Z</time>
      </trkpt>
      <trkpt lat="45.69674" lon="2.78009">
        <ele>910.79998779297</ele>
        <time>2013-09-21T13:38:50Z</time>
      </trkpt>
      <trkpt lat="45.69633" lon="2.77984">
        <ele>911.20001220703</ele>
        <time>2013-09-21T13:39:03Z</time>
      </trkpt>
      <trkpt lat="45.69627" lon="2.77979">
        <ele>912</ele>
        <time>2013-09-21T13:39:05Z</time>
      </trkpt>
      <trkpt lat="45.69582" lon="2.7795">
        <ele>912.79998779297</ele>
        <time>2013-09-21T13:39:18Z</time>
      </trkpt>
      <trkpt lat="45.69532" lon="2.7792">
        <ele>912.79998779297</ele>
        <time>2013-09-21T13:39:32Z</time>
      </trkpt>
      <trkpt lat="45.69518" lon="2.77919">
        <ele>912.79998779297</ele>
        <time>2013-09-21T13:39:36Z</time>
      </trkpt>
      <trkpt lat="45.69503" lon="2.77924">
        <ele>913.40002441406</ele>
        <time>2013-09-21T13:39:40Z</time>
      </trkpt>
      <trkpt lat="45.69497" lon="2.77927">
        <ele>914.20001220703</ele>
        <time>2013-09-21T13:39:42Z</time>
      </trkpt>
      <trkpt lat="45.69492" lon="2.77931">
        <ele>915</ele>
        <time>2013-09-21T13:39:44Z</time>
      </trkpt>
      <trkpt lat="45.69479" lon="2.77948">
        <ele>915</ele>
        <time>2013-09-21T13:39:49Z</time>
      </trkpt>
      <trkpt lat="45.69457" lon="2.77979">
        <ele>915</ele>
        <time>2013-09-21T13:39:58Z</time>
      </trkpt>
      <trkpt lat="45.69447" lon="2.77994">
        <ele>915.40002441406</ele>
        <time>2013-09-21T13:40:02Z</time>
      </trkpt>
      <trkpt lat="45.69442" lon="2.78001">
        <ele>916.20001220703</ele>
        <time>2013-09-21T13:40:04Z</time>
      </trkpt>
      <trkpt lat="45.69437" lon="2.78008">
        <ele>917</ele>
        <time>2013-09-21T13:40:06Z</time>
      </trkpt>
      <trkpt lat="45.69432" lon="2.78016">
        <ele>917</ele>
        <time>2013-09-21T13:40:08Z</time>
      </trkpt>
      <trkpt lat="45.69412" lon="2.78034">
        <ele>917</ele>
        <time>2013-09-21T13:40:15Z</time>
      </trkpt>
      <trkpt lat="45.69376" lon="2.78024">
        <ele>917</ele>
        <time>2013-09-21T13:40:25Z</time>
      </trkpt>
      <trkpt lat="45.69333" lon="2.78014">
        <ele>917</ele>
        <time>2013-09-21T13:40:36Z</time>
      </trkpt>
      <trkpt lat="45.69313" lon="2.78009">
        <ele>917.40002441406</ele>
        <time>2013-09-21T13:40:41Z</time>
      </trkpt>
      <trkpt lat="45.69309" lon="2.78008">
        <ele>918</ele>
        <time>2013-09-21T13:40:42Z</time>
      </trkpt>
      <trkpt lat="45.69297" lon="2.78004">
        <ele>919.20001220703</ele>
        <time>2013-09-21T13:40:45Z</time>
      </trkpt>
      <trkpt lat="45.69289" lon="2.78003">
        <ele>919.20001220703</ele>
        <time>2013-09-21T13:40:47Z</time>
      </trkpt>
      <trkpt lat="45.69262" lon="2.77995">
        <ele>919.20001220703</ele>
        <time>2013-09-21T13:40:53Z</time>
      </trkpt>
      <trkpt lat="45.69214" lon="2.77982">
        <ele>919.20001220703</ele>
        <time>2013-09-21T13:41:04Z</time>
      </trkpt>
      <trkpt lat="45.69182" lon="2.77974">
        <ele>919.59997558594</ele>
        <time>2013-09-21T13:41:11Z</time>
      </trkpt>
      <trkpt lat="45.69177" lon="2.77972">
        <ele>920</ele>
        <time>2013-09-21T13:41:12Z</time>
      </trkpt>
      <trkpt lat="45.69168" lon="2.7797">
        <ele>920.79998779297</ele>
        <time>2013-09-21T13:41:14Z</time>
      </trkpt>
      <trkpt lat="45.69164" lon="2.77969">
        <ele>921.20001220703</ele>
        <time>2013-09-21T13:41:15Z</time>
      </trkpt>
      <trkpt lat="45.69113" lon="2.77946">
        <ele>921.20001220703</ele>
        <time>2013-09-21T13:41:27Z</time>
      </trkpt>
      <trkpt lat="45.69084" lon="2.7793">
        <ele>921.20001220703</ele>
        <time>2013-09-21T13:41:34Z</time>
      </trkpt>
      <trkpt lat="45.6907" lon="2.77925">
        <ele>921.59997558594</ele>
        <time>2013-09-21T13:41:37Z</time>
      </trkpt>
      <trkpt lat="45.69066" lon="2.77924">
        <ele>922</ele>
        <time>2013-09-21T13:41:38Z</time>
      </trkpt>
      <trkpt lat="45.69058" lon="2.77921">
        <ele>922.79998779297</ele>
        <time>2013-09-21T13:41:40Z</time>
      </trkpt>
      <trkpt lat="45.69054" lon="2.7792">
        <ele>923.20001220703</ele>
        <time>2013-09-21T13:41:41Z</time>
      </trkpt>
      <trkpt lat="45.6905" lon="2.77919">
        <ele>923.20001220703</ele>
        <time>2013-09-21T13:41:42Z</time>
      </trkpt>
      <trkpt lat="45.69031" lon="2.77918">
        <ele>923.20001220703</ele>
        <time>2013-09-21T13:41:47Z</time>
      </trkpt>
      <trkpt lat="45.69017" lon="2.77921">
        <ele>923.20001220703</ele>
        <time>2013-09-21T13:41:52Z</time>
      </trkpt>
      <trkpt lat="45.69001" lon="2.77924">
        <ele>923.59997558594</ele>
        <time>2013-09-21T13:41:57Z</time>
      </trkpt>
      <trkpt lat="45.68998" lon="2.77925">
        <ele>924</ele>
        <time>2013-09-21T13:41:58Z</time>
      </trkpt>
      <trkpt lat="45.68988" lon="2.77927">
        <ele>925.20001220703</ele>
        <time>2013-09-21T13:42:01Z</time>
      </trkpt>
      <trkpt lat="45.68969" lon="2.77931">
        <ele>925.20001220703</ele>
        <time>2013-09-21T13:42:07Z</time>
      </trkpt>
      <trkpt lat="45.68958" lon="2.77935">
        <ele>925.59997558594</ele>
        <time>2013-09-21T13:42:11Z</time>
      </trkpt>
      <trkpt lat="45.6895" lon="2.77938">
        <ele>927</ele>
        <time>2013-09-21T13:42:14Z</time>
      </trkpt>
      <trkpt lat="45.68944" lon="2.77941">
        <ele>927.40002441406</ele>
        <time>2013-09-21T13:42:16Z</time>
      </trkpt>
      <trkpt lat="45.68934" lon="2.77943">
        <ele>927.79998779297</ele>
        <time>2013-09-21T13:42:20Z</time>
      </trkpt>
      <trkpt lat="45.68929" lon="2.77943">
        <ele>928.59997558594</ele>
        <time>2013-09-21T13:42:22Z</time>
      </trkpt>
      <trkpt lat="45.68911" lon="2.7794">
        <ele>929.40002441406</ele>
        <time>2013-09-21T13:42:29Z</time>
      </trkpt>
      <trkpt lat="45.68897" lon="2.77935">
        <ele>929.40002441406</ele>
        <time>2013-09-21T13:42:34Z</time>
      </trkpt>
      <trkpt lat="45.6887" lon="2.7793">
        <ele>929.40002441406</ele>
        <time>2013-09-21T13:42:43Z</time>
      </trkpt>
      <trkpt lat="45.68863" lon="2.77928">
        <ele>929.79998779297</ele>
        <time>2013-09-21T13:42:45Z</time>
      </trkpt>
      <trkpt lat="45.68859" lon="2.77928">
        <ele>930.20001220703</ele>
        <time>2013-09-21T13:42:46Z</time>
      </trkpt>
      <trkpt lat="45.68817" lon="2.77921">
        <ele>931.59997558594</ele>
        <time>2013-09-21T13:42:58Z</time>
      </trkpt>
      <trkpt lat="45.68786" lon="2.77919">
        <ele>931.59997558594</ele>
        <time>2013-09-21T13:43:06Z</time>
      </trkpt>
      <trkpt lat="45.68763" lon="2.77913">
        <ele>931.59997558594</ele>
        <time>2013-09-21T13:43:12Z</time>
      </trkpt>
      <trkpt lat="45.68726" lon="2.779">
        <ele>931.59997558594</ele>
        <time>2013-09-21T13:43:19Z</time>
      </trkpt>
      <trkpt lat="45.6869" lon="2.77891">
        <ele>931.59997558594</ele>
        <time>2013-09-21T13:43:25Z</time>
      </trkpt>
      <trkpt lat="45.68652" lon="2.77879">
        <ele>931.20001220703</ele>
        <time>2013-09-21T13:43:31Z</time>
      </trkpt>
      <trkpt lat="45.68645" lon="2.77878">
        <ele>930.59997558594</ele>
        <time>2013-09-21T13:43:32Z</time>
      </trkpt>
      <trkpt lat="45.68638" lon="2.77876">
        <ele>930.20001220703</ele>
        <time>2013-09-21T13:43:33Z</time>
      </trkpt>
      <trkpt lat="45.68624" lon="2.77873">
        <ele>929.40002441406</ele>
        <time>2013-09-21T13:43:35Z</time>
      </trkpt>
      <trkpt lat="45.68603" lon="2.77868">
        <ele>929.40002441406</ele>
        <time>2013-09-21T13:43:38Z</time>
      </trkpt>
      <trkpt lat="45.68573" lon="2.77856">
        <ele>928.79998779297</ele>
        <time>2013-09-21T13:43:42Z</time>
      </trkpt>
      <trkpt lat="45.68566" lon="2.77853">
        <ele>928.40002441406</ele>
        <time>2013-09-21T13:43:43Z</time>
      </trkpt>
      <trkpt lat="45.68558" lon="2.7785">
        <ele>928</ele>
        <time>2013-09-21T13:43:44Z</time>
      </trkpt>
      <trkpt lat="45.68551" lon="2.77847">
        <ele>927.40002441406</ele>
        <time>2013-09-21T13:43:45Z</time>
      </trkpt>
      <trkpt lat="45.68544" lon="2.77843">
        <ele>927</ele>
        <time>2013-09-21T13:43:46Z</time>
      </trkpt>
      <trkpt lat="45.6853" lon="2.77833">
        <ele>926.40002441406</ele>
        <time>2013-09-21T13:43:48Z</time>
      </trkpt>
      <trkpt lat="45.68523" lon="2.77827">
        <ele>926</ele>
        <time>2013-09-21T13:43:49Z</time>
      </trkpt>
      <trkpt lat="45.68515" lon="2.77822">
        <ele>925.59997558594</ele>
        <time>2013-09-21T13:43:50Z</time>
      </trkpt>
      <trkpt lat="45.68507" lon="2.77817">
        <ele>925</ele>
        <time>2013-09-21T13:43:51Z</time>
      </trkpt>
      <trkpt lat="45.68493" lon="2.77807">
        <ele>924.20001220703</ele>
        <time>2013-09-21T13:43:53Z</time>
      </trkpt>
      <trkpt lat="45.68485" lon="2.77802">
        <ele>924.20001220703</ele>
        <time>2013-09-21T13:43:54Z</time>
      </trkpt>
      <trkpt lat="45.68478" lon="2.77797">
        <ele>923.40002441406</ele>
        <time>2013-09-21T13:43:55Z</time>
      </trkpt>
      <trkpt lat="45.68462" lon="2.77788">
        <ele>922.40002441406</ele>
        <time>2013-09-21T13:43:57Z</time>
      </trkpt>
      <trkpt lat="45.68426" lon="2.77764">
        <ele>922.40002441406</ele>
        <time>2013-09-21T13:44:01Z</time>
      </trkpt>
      <trkpt lat="45.6842" lon="2.77759">
        <ele>922</ele>
        <time>2013-09-21T13:44:02Z</time>
      </trkpt>
      <trkpt lat="45.68404" lon="2.77748">
        <ele>921.20001220703</ele>
        <time>2013-09-21T13:44:04Z</time>
      </trkpt>
      <trkpt lat="45.68396" lon="2.77744">
        <ele>920.79998779297</ele>
        <time>2013-09-21T13:44:05Z</time>
      </trkpt>
      <trkpt lat="45.68363" lon="2.77729">
        <ele>920.40002441406</ele>
        <time>2013-09-21T13:44:10Z</time>
      </trkpt>
      <trkpt lat="45.68316" lon="2.7772">
        <ele>920</ele>
        <time>2013-09-21T13:44:16Z</time>
      </trkpt>
      <trkpt lat="45.68309" lon="2.77719">
        <ele>919.59997558594</ele>
        <time>2013-09-21T13:44:17Z</time>
      </trkpt>
      <trkpt lat="45.68293" lon="2.77717">
        <ele>918.59997558594</ele>
        <time>2013-09-21T13:44:19Z</time>
      </trkpt>
      <trkpt lat="45.68286" lon="2.77715">
        <ele>918.20001220703</ele>
        <time>2013-09-21T13:44:20Z</time>
      </trkpt>
      <trkpt lat="45.68254" lon="2.77718">
        <ele>918.20001220703</ele>
        <time>2013-09-21T13:44:25Z</time>
      </trkpt>
      <trkpt lat="45.68228" lon="2.77732">
        <ele>918.20001220703</ele>
        <time>2013-09-21T13:44:30Z</time>
      </trkpt>
      <trkpt lat="45.68209" lon="2.7773">
        <ele>918.20001220703</ele>
        <time>2013-09-21T13:44:34Z</time>
      </trkpt>
      <trkpt lat="45.68192" lon="2.77717">
        <ele>918.20001220703</ele>
        <time>2013-09-21T13:44:37Z</time>
      </trkpt>
      <trkpt lat="45.68187" lon="2.77712">
        <ele>918.20001220703</ele>
        <time>2013-09-21T13:44:38Z</time>
      </trkpt>
      <trkpt lat="45.68176" lon="2.77699">
        <ele>918.20001220703</ele>
        <time>2013-09-21T13:44:40Z</time>
      </trkpt>
      <trkpt lat="45.68167" lon="2.77681">
        <ele>918.20001220703</ele>
        <time>2013-09-21T13:44:42Z</time>
      </trkpt>
      <trkpt lat="45.6816" lon="2.77661">
        <ele>917.79998779297</ele>
        <time>2013-09-21T13:44:44Z</time>
      </trkpt>
      <trkpt lat="45.68157" lon="2.7765">
        <ele>917.20001220703</ele>
        <time>2013-09-21T13:44:45Z</time>
      </trkpt>
      <trkpt lat="45.68153" lon="2.7764">
        <ele>916.79998779297</ele>
        <time>2013-09-21T13:44:46Z</time>
      </trkpt>
      <trkpt lat="45.68148" lon="2.77629">
        <ele>916.20001220703</ele>
        <time>2013-09-21T13:44:47Z</time>
      </trkpt>
      <trkpt lat="45.68143" lon="2.77616">
        <ele>915.79998779297</ele>
        <time>2013-09-21T13:44:48Z</time>
      </trkpt>
      <trkpt lat="45.68138" lon="2.77604">
        <ele>915.20001220703</ele>
        <time>2013-09-21T13:44:49Z</time>
      </trkpt>
      <trkpt lat="45.68133" lon="2.77593">
        <ele>914.59997558594</ele>
        <time>2013-09-21T13:44:50Z</time>
      </trkpt>
      <trkpt lat="45.68126" lon="2.77584">
        <ele>914</ele>
        <time>2013-09-21T13:44:51Z</time>
      </trkpt>
      <trkpt lat="45.68118" lon="2.77575">
        <ele>913.40002441406</ele>
        <time>2013-09-21T13:44:52Z</time>
      </trkpt>
      <trkpt lat="45.68109" lon="2.77566">
        <ele>912.79998779297</ele>
        <time>2013-09-21T13:44:53Z</time>
      </trkpt>
      <trkpt lat="45.681" lon="2.77557">
        <ele>912.20001220703</ele>
        <time>2013-09-21T13:44:54Z</time>
      </trkpt>
      <trkpt lat="45.68092" lon="2.77549">
        <ele>911.59997558594</ele>
        <time>2013-09-21T13:44:55Z</time>
      </trkpt>
      <trkpt lat="45.68083" lon="2.7754">
        <ele>911.20001220703</ele>
        <time>2013-09-21T13:44:56Z</time>
      </trkpt>
      <trkpt lat="45.68075" lon="2.77532">
        <ele>910.59997558594</ele>
        <time>2013-09-21T13:44:57Z</time>
      </trkpt>
      <trkpt lat="45.68066" lon="2.77524">
        <ele>910</ele>
        <time>2013-09-21T13:44:58Z</time>
      </trkpt>
      <trkpt lat="45.68056" lon="2.77517">
        <ele>909.59997558594</ele>
        <time>2013-09-21T13:44:59Z</time>
      </trkpt>
      <trkpt lat="45.68047" lon="2.7751">
        <ele>909.20001220703</ele>
        <time>2013-09-21T13:45:00Z</time>
      </trkpt>
      <trkpt lat="45.68039" lon="2.77503">
        <ele>908.79998779297</ele>
        <time>2013-09-21T13:45:01Z</time>
      </trkpt>
      <trkpt lat="45.68031" lon="2.77496">
        <ele>908.20001220703</ele>
        <time>2013-09-21T13:45:02Z</time>
      </trkpt>
      <trkpt lat="45.68025" lon="2.77489">
        <ele>907.79998779297</ele>
        <time>2013-09-21T13:45:03Z</time>
      </trkpt>
      <trkpt lat="45.68018" lon="2.77481">
        <ele>907.20001220703</ele>
        <time>2013-09-21T13:45:04Z</time>
      </trkpt>
      <trkpt lat="45.6801" lon="2.77476">
        <ele>906.79998779297</ele>
        <time>2013-09-21T13:45:05Z</time>
      </trkpt>
      <trkpt lat="45.67992" lon="2.77468">
        <ele>906.20001220703</ele>
        <time>2013-09-21T13:45:07Z</time>
      </trkpt>
      <trkpt lat="45.67984" lon="2.77463">
        <ele>905.59997558594</ele>
        <time>2013-09-21T13:45:08Z</time>
      </trkpt>
      <trkpt lat="45.67975" lon="2.77458">
        <ele>905</ele>
        <time>2013-09-21T13:45:09Z</time>
      </trkpt>
      <trkpt lat="45.67968" lon="2.77454">
        <ele>904.59997558594</ele>
        <time>2013-09-21T13:45:10Z</time>
      </trkpt>
      <trkpt lat="45.6796" lon="2.7745">
        <ele>904</ele>
        <time>2013-09-21T13:45:11Z</time>
      </trkpt>
      <trkpt lat="45.67948" lon="2.77438">
        <ele>903.40002441406</ele>
        <time>2013-09-21T13:45:13Z</time>
      </trkpt>
      <trkpt lat="45.67928" lon="2.77397">
        <ele>903.40002441406</ele>
        <time>2013-09-21T13:45:18Z</time>
      </trkpt>
      <trkpt lat="45.67926" lon="2.7739">
        <ele>903.40002441406</ele>
        <time>2013-09-21T13:45:19Z</time>
      </trkpt>
      <trkpt lat="45.67926" lon="2.77371">
        <ele>903.40002441406</ele>
        <time>2013-09-21T13:45:22Z</time>
      </trkpt>
      <trkpt lat="45.67933" lon="2.77356">
        <ele>903.40002441406</ele>
        <time>2013-09-21T13:45:25Z</time>
      </trkpt>
      <trkpt lat="45.67942" lon="2.77317">
        <ele>903.40002441406</ele>
        <time>2013-09-21T13:45:31Z</time>
      </trkpt>
      <trkpt lat="45.67944" lon="2.77303">
        <ele>903.40002441406</ele>
        <time>2013-09-21T13:45:33Z</time>
      </trkpt>
      <trkpt lat="45.6795" lon="2.77282">
        <ele>903.40002441406</ele>
        <time>2013-09-21T13:45:36Z</time>
      </trkpt>
      <trkpt lat="45.67958" lon="2.77258">
        <ele>903.40002441406</ele>
        <time>2013-09-21T13:45:39Z</time>
      </trkpt>
      <trkpt lat="45.67964" lon="2.77203">
        <ele>903.40002441406</ele>
        <time>2013-09-21T13:45:45Z</time>
      </trkpt>
      <trkpt lat="45.67965" lon="2.77183">
        <ele>903.40002441406</ele>
        <time>2013-09-21T13:45:47Z</time>
      </trkpt>
      <trkpt lat="45.67969" lon="2.77164">
        <ele>903.40002441406</ele>
        <time>2013-09-21T13:45:49Z</time>
      </trkpt>
      <trkpt lat="45.67973" lon="2.77156">
        <ele>903.40002441406</ele>
        <time>2013-09-21T13:45:50Z</time>
      </trkpt>
      <trkpt lat="45.67987" lon="2.77141">
        <ele>903.40002441406</ele>
        <time>2013-09-21T13:45:53Z</time>
      </trkpt>
      <trkpt lat="45.68007" lon="2.77144">
        <ele>903.40002441406</ele>
        <time>2013-09-21T13:45:56Z</time>
      </trkpt>
      <trkpt lat="45.68024" lon="2.77153">
        <ele>903.40002441406</ele>
        <time>2013-09-21T13:45:59Z</time>
      </trkpt>
      <trkpt lat="45.68052" lon="2.7717">
        <ele>903.40002441406</ele>
        <time>2013-09-21T13:46:05Z</time>
      </trkpt>
      <trkpt lat="45.68051" lon="2.77186">
        <ele>903.40002441406</ele>
        <time>2013-09-21T13:46:09Z</time>
      </trkpt>
      <trkpt lat="45.68047" lon="2.7719">
        <ele>903.40002441406</ele>
        <time>2013-09-21T13:46:11Z</time>
      </trkpt>
      <trkpt lat="45.6803" lon="2.77155">
        <ele>901</ele>
        <time>2013-09-21T14:04:06Z</time>
      </trkpt>
      <trkpt lat="45.68026" lon="2.77153">
        <ele>901</ele>
        <time>2013-09-21T14:04:08Z</time>
      </trkpt>
      <trkpt lat="45.68001" lon="2.7714">
        <ele>901</ele>
        <time>2013-09-21T14:04:19Z</time>
      </trkpt>
      <trkpt lat="45.67988" lon="2.77142">
        <ele>901</ele>
        <time>2013-09-21T14:04:24Z</time>
      </trkpt>
      <trkpt lat="45.67974" lon="2.77153">
        <ele>901</ele>
        <time>2013-09-21T14:04:30Z</time>
      </trkpt>
      <trkpt lat="45.67965" lon="2.7717">
        <ele>901</ele>
        <time>2013-09-21T14:04:36Z</time>
      </trkpt>
      <trkpt lat="45.67959" lon="2.77196">
        <ele>901</ele>
        <time>2013-09-21T14:04:45Z</time>
      </trkpt>
      <trkpt lat="45.6796" lon="2.77223">
        <ele>901</ele>
        <time>2013-09-21T14:04:52Z</time>
      </trkpt>
      <trkpt lat="45.67956" lon="2.77256">
        <ele>901</ele>
        <time>2013-09-21T14:05:00Z</time>
      </trkpt>
      <trkpt lat="45.67949" lon="2.77282">
        <ele>901</ele>
        <time>2013-09-21T14:05:06Z</time>
      </trkpt>
      <trkpt lat="45.67945" lon="2.77291">
        <ele>901.59997558594</ele>
        <time>2013-09-21T14:05:08Z</time>
      </trkpt>
      <trkpt lat="45.67938" lon="2.77317">
        <ele>902</ele>
        <time>2013-09-21T14:05:14Z</time>
      </trkpt>
      <trkpt lat="45.67935" lon="2.77346">
        <ele>902.59997558594</ele>
        <time>2013-09-21T14:05:20Z</time>
      </trkpt>
      <trkpt lat="45.67925" lon="2.77363">
        <ele>902.59997558594</ele>
        <time>2013-09-21T14:05:25Z</time>
      </trkpt>
      <trkpt lat="45.67918" lon="2.77366">
        <ele>903.59997558594</ele>
        <time>2013-09-21T14:05:27Z</time>
      </trkpt>
      <trkpt lat="45.67908" lon="2.77364">
        <ele>904</ele>
        <time>2013-09-21T14:05:30Z</time>
      </trkpt>
      <trkpt lat="45.67897" lon="2.77361">
        <ele>905.59997558594</ele>
        <time>2013-09-21T14:05:34Z</time>
      </trkpt>
      <trkpt lat="45.67892" lon="2.77358">
        <ele>906</ele>
        <time>2013-09-21T14:05:36Z</time>
      </trkpt>
      <trkpt lat="45.6789" lon="2.77356">
        <ele>906.40002441406</ele>
        <time>2013-09-21T14:05:37Z</time>
      </trkpt>
      <trkpt lat="45.67874" lon="2.77343">
        <ele>908</ele>
        <time>2013-09-21T14:05:44Z</time>
      </trkpt>
      <trkpt lat="45.6787" lon="2.77339">
        <ele>908.79998779297</ele>
        <time>2013-09-21T14:05:46Z</time>
      </trkpt>
      <trkpt lat="45.67855" lon="2.77325">
        <ele>909.59997558594</ele>
        <time>2013-09-21T14:05:53Z</time>
      </trkpt>
      <trkpt lat="45.67847" lon="2.77319">
        <ele>910</ele>
        <time>2013-09-21T14:05:57Z</time>
      </trkpt>
      <trkpt lat="45.67839" lon="2.77315">
        <ele>911.79998779297</ele>
        <time>2013-09-21T14:06:01Z</time>
      </trkpt>
      <trkpt lat="45.67825" lon="2.77307">
        <ele>911.79998779297</ele>
        <time>2013-09-21T14:06:09Z</time>
      </trkpt>
      <trkpt lat="45.67818" lon="2.77302">
        <ele>913</ele>
        <time>2013-09-21T14:06:12Z</time>
      </trkpt>
      <trkpt lat="45.67814" lon="2.77298">
        <ele>913.79998779297</ele>
        <time>2013-09-21T14:06:14Z</time>
      </trkpt>
      <trkpt lat="45.67807" lon="2.77282">
        <ele>913.79998779297</ele>
        <time>2013-09-21T14:06:21Z</time>
      </trkpt>
      <trkpt lat="45.67804" lon="2.77274">
        <ele>914.40002441406</ele>
        <time>2013-09-21T14:06:24Z</time>
      </trkpt>
      <trkpt lat="45.67802" lon="2.77269">
        <ele>915.40002441406</ele>
        <time>2013-09-21T14:06:26Z</time>
      </trkpt>
      <trkpt lat="45.67798" lon="2.77258">
        <ele>916.40002441406</ele>
        <time>2013-09-21T14:06:30Z</time>
      </trkpt>
      <trkpt lat="45.67792" lon="2.77244">
        <ele>916.79998779297</ele>
        <time>2013-09-21T14:06:35Z</time>
      </trkpt>
      <trkpt lat="45.6779" lon="2.77239">
        <ele>917.59997558594</ele>
        <time>2013-09-21T14:06:37Z</time>
      </trkpt>
      <trkpt lat="45.67778" lon="2.77215">
        <ele>918.79998779297</ele>
        <time>2013-09-21T14:06:47Z</time>
      </trkpt>
      <trkpt lat="45.67775" lon="2.77209">
        <ele>920</ele>
        <time>2013-09-21T14:06:50Z</time>
      </trkpt>
      <trkpt lat="45.67754" lon="2.77188">
        <ele>921</ele>
        <time>2013-09-21T14:07:02Z</time>
      </trkpt>
      <trkpt lat="45.67748" lon="2.77183">
        <ele>922.20001220703</ele>
        <time>2013-09-21T14:07:05Z</time>
      </trkpt>
      <trkpt lat="45.67729" lon="2.77165">
        <ele>922.59997558594</ele>
        <time>2013-09-21T14:07:13Z</time>
      </trkpt>
      <trkpt lat="45.67706" lon="2.77151">
        <ele>922.59997558594</ele>
        <time>2013-09-21T14:07:21Z</time>
      </trkpt>
      <trkpt lat="45.67683" lon="2.77134">
        <ele>922.59997558594</ele>
        <time>2013-09-21T14:07:30Z</time>
      </trkpt>
      <trkpt lat="45.67664" lon="2.77125">
        <ele>923</ele>
        <time>2013-09-21T14:07:37Z</time>
      </trkpt>
      <trkpt lat="45.67658" lon="2.77122">
        <ele>923.79998779297</ele>
        <time>2013-09-21T14:07:39Z</time>
      </trkpt>
      <trkpt lat="45.67653" lon="2.77119">
        <ele>924.79998779297</ele>
        <time>2013-09-21T14:07:41Z</time>
      </trkpt>
      <trkpt lat="45.67638" lon="2.77115">
        <ele>924.79998779297</ele>
        <time>2013-09-21T14:07:46Z</time>
      </trkpt>
      <trkpt lat="45.67627" lon="2.7712">
        <ele>925.20001220703</ele>
        <time>2013-09-21T14:07:51Z</time>
      </trkpt>
      <trkpt lat="45.67621" lon="2.77133">
        <ele>926.79998779297</ele>
        <time>2013-09-21T14:07:56Z</time>
      </trkpt>
      <trkpt lat="45.67619" lon="2.77138">
        <ele>926.79998779297</ele>
        <time>2013-09-21T14:07:58Z</time>
      </trkpt>
      <trkpt lat="45.67617" lon="2.77145">
        <ele>927.20001220703</ele>
        <time>2013-09-21T14:08:01Z</time>
      </trkpt>
      <trkpt lat="45.67616" lon="2.77151">
        <ele>928.20001220703</ele>
        <time>2013-09-21T14:08:03Z</time>
      </trkpt>
      <trkpt lat="45.67617" lon="2.77168">
        <ele>929.59997558594</ele>
        <time>2013-09-21T14:08:10Z</time>
      </trkpt>
      <trkpt lat="45.67619" lon="2.77172">
        <ele>930.40002441406</ele>
        <time>2013-09-21T14:08:12Z</time>
      </trkpt>
      <trkpt lat="45.67621" lon="2.77176">
        <ele>931.40002441406</ele>
        <time>2013-09-21T14:08:14Z</time>
      </trkpt>
      <trkpt lat="45.67625" lon="2.77182">
        <ele>931.79998779297</ele>
        <time>2013-09-21T14:08:17Z</time>
      </trkpt>
      <trkpt lat="45.6763" lon="2.77186">
        <ele>933</ele>
        <time>2013-09-21T14:08:20Z</time>
      </trkpt>
      <trkpt lat="45.67641" lon="2.77195">
        <ele>933.40002441406</ele>
        <time>2013-09-21T14:08:27Z</time>
      </trkpt>
      <trkpt lat="45.6765" lon="2.77203">
        <ele>934</ele>
        <time>2013-09-21T14:08:33Z</time>
      </trkpt>
      <trkpt lat="45.67664" lon="2.77215">
        <ele>935.79998779297</ele>
        <time>2013-09-21T14:08:41Z</time>
      </trkpt>
      <trkpt lat="45.67673" lon="2.77222">
        <ele>936.20001220703</ele>
        <time>2013-09-21T14:08:46Z</time>
      </trkpt>
      <trkpt lat="45.67677" lon="2.7723">
        <ele>938</ele>
        <time>2013-09-21T14:08:50Z</time>
      </trkpt>
      <trkpt lat="45.67676" lon="2.77245">
        <ele>938</ele>
        <time>2013-09-21T14:08:56Z</time>
      </trkpt>
      <trkpt lat="45.67671" lon="2.77253">
        <ele>938.79998779297</ele>
        <time>2013-09-21T14:09:00Z</time>
      </trkpt>
      <trkpt lat="45.67669" lon="2.77254">
        <ele>939.40002441406</ele>
        <time>2013-09-21T14:09:01Z</time>
      </trkpt>
      <trkpt lat="45.67651" lon="2.77261">
        <ele>940.20001220703</ele>
        <time>2013-09-21T14:09:10Z</time>
      </trkpt>
      <trkpt lat="45.67638" lon="2.77263">
        <ele>941</ele>
        <time>2013-09-21T14:09:16Z</time>
      </trkpt>
      <trkpt lat="45.67628" lon="2.77264">
        <ele>942.20001220703</ele>
        <time>2013-09-21T14:09:20Z</time>
      </trkpt>
      <trkpt lat="45.67605" lon="2.77264">
        <ele>942.20001220703</ele>
        <time>2013-09-21T14:09:29Z</time>
      </trkpt>
      <trkpt lat="45.67597" lon="2.77264">
        <ele>942.59997558594</ele>
        <time>2013-09-21T14:09:32Z</time>
      </trkpt>
      <trkpt lat="45.67589" lon="2.77264">
        <ele>944</ele>
        <time>2013-09-21T14:09:35Z</time>
      </trkpt>
      <trkpt lat="45.67553" lon="2.77263">
        <ele>944.40002441406</ele>
        <time>2013-09-21T14:09:47Z</time>
      </trkpt>
      <trkpt lat="45.67523" lon="2.77262">
        <ele>944.79998779297</ele>
        <time>2013-09-21T14:09:57Z</time>
      </trkpt>
      <trkpt lat="45.6752" lon="2.77261">
        <ele>945.20001220703</ele>
        <time>2013-09-21T14:09:58Z</time>
      </trkpt>
      <trkpt lat="45.67513" lon="2.7726">
        <ele>946</ele>
        <time>2013-09-21T14:10:00Z</time>
      </trkpt>
      <trkpt lat="45.6748" lon="2.77251">
        <ele>946.40002441406</ele>
        <time>2013-09-21T14:10:11Z</time>
      </trkpt>
      <trkpt lat="45.67471" lon="2.77247">
        <ele>947</ele>
        <time>2013-09-21T14:10:14Z</time>
      </trkpt>
      <trkpt lat="45.67467" lon="2.77245">
        <ele>947.40002441406</ele>
        <time>2013-09-21T14:10:15Z</time>
      </trkpt>
      <trkpt lat="45.67458" lon="2.77241">
        <ele>948.59997558594</ele>
        <time>2013-09-21T14:10:18Z</time>
      </trkpt>
      <trkpt lat="45.67424" lon="2.77234">
        <ele>948.59997558594</ele>
        <time>2013-09-21T14:10:28Z</time>
      </trkpt>
      <trkpt lat="45.67403" lon="2.77232">
        <ele>949</ele>
        <time>2013-09-21T14:10:34Z</time>
      </trkpt>
      <trkpt lat="45.674" lon="2.77232">
        <ele>949.40002441406</ele>
        <time>2013-09-21T14:10:35Z</time>
      </trkpt>
      <trkpt lat="45.6739" lon="2.7723">
        <ele>950.59997558594</ele>
        <time>2013-09-21T14:10:38Z</time>
      </trkpt>
      <trkpt lat="45.67362" lon="2.77226">
        <ele>950.59997558594</ele>
        <time>2013-09-21T14:10:46Z</time>
      </trkpt>
      <trkpt lat="45.67349" lon="2.77225">
        <ele>951.20001220703</ele>
        <time>2013-09-21T14:10:50Z</time>
      </trkpt>
      <trkpt lat="45.67339" lon="2.77224">
        <ele>952.40002441406</ele>
        <time>2013-09-21T14:10:53Z</time>
      </trkpt>
      <trkpt lat="45.67326" lon="2.77223">
        <ele>953</ele>
        <time>2013-09-21T14:10:57Z</time>
      </trkpt>
      <trkpt lat="45.67307" lon="2.77223">
        <ele>953</ele>
        <time>2013-09-21T14:11:03Z</time>
      </trkpt>
      <trkpt lat="45.67298" lon="2.77221">
        <ele>953.79998779297</ele>
        <time>2013-09-21T14:11:06Z</time>
      </trkpt>
      <trkpt lat="45.67288" lon="2.77219">
        <ele>955.20001220703</ele>
        <time>2013-09-21T14:11:09Z</time>
      </trkpt>
      <trkpt lat="45.67278" lon="2.77216">
        <ele>955.20001220703</ele>
        <time>2013-09-21T14:11:12Z</time>
      </trkpt>
      <trkpt lat="45.67233" lon="2.77198">
        <ele>955.59997558594</ele>
        <time>2013-09-21T14:11:25Z</time>
      </trkpt>
      <trkpt lat="45.6723" lon="2.77196">
        <ele>956</ele>
        <time>2013-09-21T14:11:26Z</time>
      </trkpt>
      <trkpt lat="45.67213" lon="2.77189">
        <ele>957.20001220703</ele>
        <time>2013-09-21T14:11:31Z</time>
      </trkpt>
      <trkpt lat="45.6718" lon="2.77178">
        <ele>957.20001220703</ele>
        <time>2013-09-21T14:11:40Z</time>
      </trkpt>
      <trkpt lat="45.67158" lon="2.7717">
        <ele>957.20001220703</ele>
        <time>2013-09-21T14:11:46Z</time>
      </trkpt>
      <trkpt lat="45.67149" lon="2.77165">
        <ele>957.59997558594</ele>
        <time>2013-09-21T14:11:49Z</time>
      </trkpt>
      <trkpt lat="45.67138" lon="2.77161">
        <ele>958.79998779297</ele>
        <time>2013-09-21T14:11:52Z</time>
      </trkpt>
      <trkpt lat="45.67135" lon="2.77159">
        <ele>959.20001220703</ele>
        <time>2013-09-21T14:11:53Z</time>
      </trkpt>
      <trkpt lat="45.67104" lon="2.77141">
        <ele>959.20001220703</ele>
        <time>2013-09-21T14:12:02Z</time>
      </trkpt>
      <trkpt lat="45.67083" lon="2.77127">
        <ele>959.59997558594</ele>
        <time>2013-09-21T14:12:08Z</time>
      </trkpt>
      <trkpt lat="45.6708" lon="2.77125">
        <ele>960</ele>
        <time>2013-09-21T14:12:09Z</time>
      </trkpt>
      <trkpt lat="45.67056" lon="2.77114">
        <ele>961.20001220703</ele>
        <time>2013-09-21T14:12:16Z</time>
      </trkpt>
      <trkpt lat="45.67037" lon="2.77102">
        <ele>961.59997558594</ele>
        <time>2013-09-21T14:12:22Z</time>
      </trkpt>
      <trkpt lat="45.67033" lon="2.77099">
        <ele>962</ele>
        <time>2013-09-21T14:12:23Z</time>
      </trkpt>
      <trkpt lat="45.6703" lon="2.77096">
        <ele>962.40002441406</ele>
        <time>2013-09-21T14:12:24Z</time>
      </trkpt>
      <trkpt lat="45.67004" lon="2.77082">
        <ele>963.20001220703</ele>
        <time>2013-09-21T14:12:31Z</time>
      </trkpt>
      <trkpt lat="45.66975" lon="2.77073">
        <ele>963.20001220703</ele>
        <time>2013-09-21T14:12:38Z</time>
      </trkpt>
      <trkpt lat="45.66944" lon="2.77071">
        <ele>963.20001220703</ele>
        <time>2013-09-21T14:12:46Z</time>
      </trkpt>
      <trkpt lat="45.66932" lon="2.7707">
        <ele>963.59997558594</ele>
        <time>2013-09-21T14:12:49Z</time>
      </trkpt>
      <trkpt lat="45.66928" lon="2.77071">
        <ele>964.20001220703</ele>
        <time>2013-09-21T14:12:50Z</time>
      </trkpt>
      <trkpt lat="45.66917" lon="2.77073">
        <ele>965.59997558594</ele>
        <time>2013-09-21T14:12:53Z</time>
      </trkpt>
      <trkpt lat="45.66899" lon="2.77071">
        <ele>965.59997558594</ele>
        <time>2013-09-21T14:12:58Z</time>
      </trkpt>
      <trkpt lat="45.66865" lon="2.7706">
        <ele>965.59997558594</ele>
        <time>2013-09-21T14:13:04Z</time>
      </trkpt>
      <trkpt lat="45.66854" lon="2.77046">
        <ele>965</ele>
        <time>2013-09-21T14:13:06Z</time>
      </trkpt>
      <trkpt lat="45.66851" lon="2.7704">
        <ele>964.59997558594</ele>
        <time>2013-09-21T14:13:07Z</time>
      </trkpt>
      <trkpt lat="45.66846" lon="2.77034">
        <ele>964.20001220703</ele>
        <time>2013-09-21T14:13:08Z</time>
      </trkpt>
      <trkpt lat="45.66835" lon="2.77029">
        <ele>963.20001220703</ele>
        <time>2013-09-21T14:13:10Z</time>
      </trkpt>
      <trkpt lat="45.66829" lon="2.77028">
        <ele>962.59997558594</ele>
        <time>2013-09-21T14:13:11Z</time>
      </trkpt>
      <trkpt lat="45.66822" lon="2.77016">
        <ele>961.20001220703</ele>
        <time>2013-09-21T14:13:14Z</time>
      </trkpt>
      <trkpt lat="45.66826" lon="2.76986">
        <ele>961.20001220703</ele>
        <time>2013-09-21T14:13:18Z</time>
      </trkpt>
      <trkpt lat="45.66819" lon="2.76957">
        <ele>960.59997558594</ele>
        <time>2013-09-21T14:13:21Z</time>
      </trkpt>
      <trkpt lat="45.66815" lon="2.76946">
        <ele>960</ele>
        <time>2013-09-21T14:13:22Z</time>
      </trkpt>
      <trkpt lat="45.66811" lon="2.76935">
        <ele>959.59997558594</ele>
        <time>2013-09-21T14:13:23Z</time>
      </trkpt>
      <trkpt lat="45.66807" lon="2.76927">
        <ele>958.79998779297</ele>
        <time>2013-09-21T14:13:24Z</time>
      </trkpt>
      <trkpt lat="45.66802" lon="2.76919">
        <ele>958.20001220703</ele>
        <time>2013-09-21T14:13:25Z</time>
      </trkpt>
      <trkpt lat="45.66798" lon="2.76914">
        <ele>957.40002441406</ele>
        <time>2013-09-21T14:13:26Z</time>
      </trkpt>
      <trkpt lat="45.66788" lon="2.76917">
        <ele>956.79998779297</ele>
        <time>2013-09-21T14:13:27Z</time>
      </trkpt>
      <trkpt lat="45.66751" lon="2.76926">
        <ele>956</ele>
        <time>2013-09-21T14:13:34Z</time>
      </trkpt>
      <trkpt lat="45.66741" lon="2.76927">
        <ele>956.59997558594</ele>
        <time>2013-09-21T14:13:37Z</time>
      </trkpt>
      <trkpt lat="45.66739" lon="2.76927">
        <ele>957</ele>
        <time>2013-09-21T14:13:38Z</time>
      </trkpt>
      <trkpt lat="45.66726" lon="2.76925">
        <ele>959</ele>
        <time>2013-09-21T14:13:45Z</time>
      </trkpt>
      <trkpt lat="45.66719" lon="2.76925">
        <ele>960.59997558594</ele>
        <time>2013-09-21T14:13:49Z</time>
      </trkpt>
      <trkpt lat="45.66709" lon="2.7692">
        <ele>961.79998779297</ele>
        <time>2013-09-21T14:13:55Z</time>
      </trkpt>
      <trkpt lat="45.66707" lon="2.7692">
        <ele>962.20001220703</ele>
        <time>2013-09-21T14:13:56Z</time>
      </trkpt>
      <trkpt lat="45.667" lon="2.76918">
        <ele>963.79998779297</ele>
        <time>2013-09-21T14:14:01Z</time>
      </trkpt>
      <trkpt lat="45.6669" lon="2.76914">
        <ele>966.40002441406</ele>
        <time>2013-09-21T14:14:09Z</time>
      </trkpt>
      <trkpt lat="45.66684" lon="2.76906">
        <ele>967.20001220703</ele>
        <time>2013-09-21T14:14:15Z</time>
      </trkpt>
      <trkpt lat="45.66682" lon="2.769">
        <ele>968.59997558594</ele>
        <time>2013-09-21T14:14:18Z</time>
      </trkpt>
      <trkpt lat="45.66681" lon="2.76885">
        <ele>969</ele>
        <time>2013-09-21T14:14:25Z</time>
      </trkpt>
      <trkpt lat="45.6668" lon="2.76878">
        <ele>969.40002441406</ele>
        <time>2013-09-21T14:14:28Z</time>
      </trkpt>
      <trkpt lat="45.66678" lon="2.76869">
        <ele>971.20001220703</ele>
        <time>2013-09-21T14:14:32Z</time>
      </trkpt>
      <trkpt lat="45.66675" lon="2.76851">
        <ele>971.20001220703</ele>
        <time>2013-09-21T14:14:40Z</time>
      </trkpt>
      <trkpt lat="45.66675" lon="2.76838">
        <ele>971.59997558594</ele>
        <time>2013-09-21T14:14:46Z</time>
      </trkpt>
      <trkpt lat="45.66675" lon="2.7683">
        <ele>973.20001220703</ele>
        <time>2013-09-21T14:14:50Z</time>
      </trkpt>
      <trkpt lat="45.66675" lon="2.76816">
        <ele>973.79998779297</ele>
        <time>2013-09-21T14:14:56Z</time>
      </trkpt>
      <trkpt lat="45.66674" lon="2.76809">
        <ele>975</ele>
        <time>2013-09-21T14:14:59Z</time>
      </trkpt>
      <trkpt lat="45.66668" lon="2.76787">
        <ele>975.40002441406</ele>
        <time>2013-09-21T14:15:07Z</time>
      </trkpt>
      <trkpt lat="45.66649" lon="2.76766">
        <ele>975.40002441406</ele>
        <time>2013-09-21T14:15:13Z</time>
      </trkpt>
      <trkpt lat="45.66624" lon="2.76738">
        <ele>975.40002441406</ele>
        <time>2013-09-21T14:15:18Z</time>
      </trkpt>
      <trkpt lat="45.66611" lon="2.76726">
        <ele>974.79998779297</ele>
        <time>2013-09-21T14:15:20Z</time>
      </trkpt>
      <trkpt lat="45.66597" lon="2.76713">
        <ele>974</ele>
        <time>2013-09-21T14:15:22Z</time>
      </trkpt>
      <trkpt lat="45.66591" lon="2.76707">
        <ele>973.59997558594</ele>
        <time>2013-09-21T14:15:23Z</time>
      </trkpt>
      <trkpt lat="45.66584" lon="2.767">
        <ele>973.20001220703</ele>
        <time>2013-09-21T14:15:24Z</time>
      </trkpt>
      <trkpt lat="45.66539" lon="2.76671">
        <ele>973.20001220703</ele>
        <time>2013-09-21T14:15:31Z</time>
      </trkpt>
      <trkpt lat="45.66529" lon="2.7668">
        <ele>972.20001220703</ele>
        <time>2013-09-21T14:15:37Z</time>
      </trkpt>
      <trkpt lat="45.66524" lon="2.76693">
        <ele>971.79998779297</ele>
        <time>2013-09-21T14:15:39Z</time>
      </trkpt>
      <trkpt lat="45.66521" lon="2.76702">
        <ele>971.40002441406</ele>
        <time>2013-09-21T14:15:40Z</time>
      </trkpt>
      <trkpt lat="45.66518" lon="2.7671">
        <ele>971</ele>
        <time>2013-09-21T14:15:41Z</time>
      </trkpt>
      <trkpt lat="45.66513" lon="2.76728">
        <ele>970</ele>
        <time>2013-09-21T14:15:43Z</time>
      </trkpt>
      <trkpt lat="45.6651" lon="2.76737">
        <ele>969.59997558594</ele>
        <time>2013-09-21T14:15:44Z</time>
      </trkpt>
      <trkpt lat="45.66505" lon="2.76744">
        <ele>969</ele>
        <time>2013-09-21T14:15:45Z</time>
      </trkpt>
      <trkpt lat="45.665" lon="2.76749">
        <ele>968.40002441406</ele>
        <time>2013-09-21T14:15:46Z</time>
      </trkpt>
      <trkpt lat="45.66493" lon="2.7675">
        <ele>968.40002441406</ele>
        <time>2013-09-21T14:15:47Z</time>
      </trkpt>
      <trkpt lat="45.66477" lon="2.76742">
        <ele>968.40002441406</ele>
        <time>2013-09-21T14:15:50Z</time>
      </trkpt>
      <trkpt lat="45.66451" lon="2.76725">
        <ele>968.40002441406</ele>
        <time>2013-09-21T14:15:56Z</time>
      </trkpt>
      <trkpt lat="45.66418" lon="2.7671">
        <ele>968.40002441406</ele>
        <time>2013-09-21T14:16:04Z</time>
      </trkpt>
      <trkpt lat="45.66389" lon="2.76709">
        <ele>968.40002441406</ele>
        <time>2013-09-21T14:16:11Z</time>
      </trkpt>
      <trkpt lat="45.6637" lon="2.76708">
        <ele>969</ele>
        <time>2013-09-21T14:16:16Z</time>
      </trkpt>
      <trkpt lat="45.66366" lon="2.76708">
        <ele>969.40002441406</ele>
        <time>2013-09-21T14:16:17Z</time>
      </trkpt>
      <trkpt lat="45.66359" lon="2.76707">
        <ele>970.20001220703</ele>
        <time>2013-09-21T14:16:19Z</time>
      </trkpt>
      <trkpt lat="45.66332" lon="2.76706">
        <ele>971.20001220703</ele>
        <time>2013-09-21T14:16:26Z</time>
      </trkpt>
      <trkpt lat="45.66328" lon="2.76705">
        <ele>971.59997558594</ele>
        <time>2013-09-21T14:16:27Z</time>
      </trkpt>
      <trkpt lat="45.66319" lon="2.76705">
        <ele>972.40002441406</ele>
        <time>2013-09-21T14:16:29Z</time>
      </trkpt>
      <trkpt lat="45.66294" lon="2.76704">
        <ele>973</ele>
        <time>2013-09-21T14:16:35Z</time>
      </trkpt>
      <trkpt lat="45.66285" lon="2.76703">
        <ele>973</ele>
        <time>2013-09-21T14:16:37Z</time>
      </trkpt>
      <trkpt lat="45.6626" lon="2.76705">
        <ele>973</ele>
        <time>2013-09-21T14:16:43Z</time>
      </trkpt>
      <trkpt lat="45.66244" lon="2.76709">
        <ele>973.40002441406</ele>
        <time>2013-09-21T14:16:47Z</time>
      </trkpt>
      <trkpt lat="45.6624" lon="2.76711">
        <ele>973.79998779297</ele>
        <time>2013-09-21T14:16:48Z</time>
      </trkpt>
      <trkpt lat="45.66236" lon="2.76711">
        <ele>974.20001220703</ele>
        <time>2013-09-21T14:16:49Z</time>
      </trkpt>
      <trkpt lat="45.66228" lon="2.76713">
        <ele>975.20001220703</ele>
        <time>2013-09-21T14:16:51Z</time>
      </trkpt>
      <trkpt lat="45.66217" lon="2.76716">
        <ele>975.20001220703</ele>
        <time>2013-09-21T14:16:54Z</time>
      </trkpt>
      <trkpt lat="45.66209" lon="2.76719">
        <ele>975.20001220703</ele>
        <time>2013-09-21T14:16:56Z</time>
      </trkpt>
      <trkpt lat="45.66183" lon="2.76727">
        <ele>975.59997558594</ele>
        <time>2013-09-21T14:17:02Z</time>
      </trkpt>
      <trkpt lat="45.66179" lon="2.76728">
        <ele>976</ele>
        <time>2013-09-21T14:17:03Z</time>
      </trkpt>
      <trkpt lat="45.66171" lon="2.76731">
        <ele>977</ele>
        <time>2013-09-21T14:17:05Z</time>
      </trkpt>
      <trkpt lat="45.66166" lon="2.76732">
        <ele>977.40002441406</ele>
        <time>2013-09-21T14:17:06Z</time>
      </trkpt>
      <trkpt lat="45.66129" lon="2.76747">
        <ele>977.40002441406</ele>
        <time>2013-09-21T14:17:16Z</time>
      </trkpt>
      <trkpt lat="45.66109" lon="2.76759">
        <ele>977.79998779297</ele>
        <time>2013-09-21T14:17:22Z</time>
      </trkpt>
      <trkpt lat="45.66107" lon="2.76761">
        <ele>978.20001220703</ele>
        <time>2013-09-21T14:17:23Z</time>
      </trkpt>
      <trkpt lat="45.66097" lon="2.76768">
        <ele>979.59997558594</ele>
        <time>2013-09-21T14:17:26Z</time>
      </trkpt>
      <trkpt lat="45.66084" lon="2.76779">
        <ele>979.59997558594</ele>
        <time>2013-09-21T14:17:31Z</time>
      </trkpt>
      <trkpt lat="45.66077" lon="2.76783">
        <ele>980</ele>
        <time>2013-09-21T14:17:33Z</time>
      </trkpt>
      <trkpt lat="45.66067" lon="2.7679">
        <ele>981.20001220703</ele>
        <time>2013-09-21T14:17:36Z</time>
      </trkpt>
      <trkpt lat="45.66059" lon="2.76795">
        <ele>981.59997558594</ele>
        <time>2013-09-21T14:17:39Z</time>
      </trkpt>
      <trkpt lat="45.66038" lon="2.76809">
        <ele>981.59997558594</ele>
        <time>2013-09-21T14:17:48Z</time>
      </trkpt>
      <trkpt lat="45.66014" lon="2.76828">
        <ele>981.59997558594</ele>
        <time>2013-09-21T14:17:54Z</time>
      </trkpt>
      <trkpt lat="45.65981" lon="2.76852">
        <ele>982</ele>
        <time>2013-09-21T14:18:01Z</time>
      </trkpt>
      <trkpt lat="45.65977" lon="2.76855">
        <ele>982.40002441406</ele>
        <time>2013-09-21T14:18:02Z</time>
      </trkpt>
      <trkpt lat="45.6597" lon="2.76861">
        <ele>983.20001220703</ele>
        <time>2013-09-21T14:18:04Z</time>
      </trkpt>
      <trkpt lat="45.65952" lon="2.76881">
        <ele>983.59997558594</ele>
        <time>2013-09-21T14:18:10Z</time>
      </trkpt>
      <trkpt lat="45.65936" lon="2.76907">
        <ele>983.59997558594</ele>
        <time>2013-09-21T14:18:17Z</time>
      </trkpt>
      <trkpt lat="45.6592" lon="2.76928">
        <ele>984.20001220703</ele>
        <time>2013-09-21T14:18:24Z</time>
      </trkpt>
      <trkpt lat="45.65917" lon="2.76931">
        <ele>984.20001220703</ele>
        <time>2013-09-21T14:18:25Z</time>
      </trkpt>
      <trkpt lat="45.65907" lon="2.7694">
        <ele>985.59997558594</ele>
        <time>2013-09-21T14:18:28Z</time>
      </trkpt>
      <trkpt lat="45.65905" lon="2.76942">
        <ele>986</ele>
        <time>2013-09-21T14:18:29Z</time>
      </trkpt>
      <trkpt lat="45.65897" lon="2.7695">
        <ele>986</ele>
        <time>2013-09-21T14:18:32Z</time>
      </trkpt>
      <trkpt lat="45.65884" lon="2.7697">
        <ele>986.59997558594</ele>
        <time>2013-09-21T14:18:38Z</time>
      </trkpt>
      <trkpt lat="45.65882" lon="2.76974">
        <ele>987</ele>
        <time>2013-09-21T14:18:39Z</time>
      </trkpt>
      <trkpt lat="45.6588" lon="2.76982">
        <ele>987.79998779297</ele>
        <time>2013-09-21T14:18:41Z</time>
      </trkpt>
      <trkpt lat="45.65879" lon="2.76986">
        <ele>988.20001220703</ele>
        <time>2013-09-21T14:18:42Z</time>
      </trkpt>
      <trkpt lat="45.65877" lon="2.76991">
        <ele>988.20001220703</ele>
        <time>2013-09-21T14:18:44Z</time>
      </trkpt>
      <trkpt lat="45.65871" lon="2.77003">
        <ele>988.79998779297</ele>
        <time>2013-09-21T14:18:49Z</time>
      </trkpt>
      <trkpt lat="45.6587" lon="2.77005">
        <ele>989.20001220703</ele>
        <time>2013-09-21T14:18:50Z</time>
      </trkpt>
      <trkpt lat="45.65867" lon="2.77011">
        <ele>990</ele>
        <time>2013-09-21T14:18:52Z</time>
      </trkpt>
      <trkpt lat="45.65855" lon="2.77033">
        <ele>990.40002441406</ele>
        <time>2013-09-21T14:19:00Z</time>
      </trkpt>
      <trkpt lat="45.65852" lon="2.77042">
        <ele>992.40002441406</ele>
        <time>2013-09-21T14:19:04Z</time>
      </trkpt>
      <trkpt lat="45.6585" lon="2.77051">
        <ele>992.79998779297</ele>
        <time>2013-09-21T14:19:08Z</time>
      </trkpt>
      <trkpt lat="45.6585" lon="2.77058">
        <ele>994.20001220703</ele>
        <time>2013-09-21T14:19:11Z</time>
      </trkpt>
      <trkpt lat="45.6585" lon="2.7706">
        <ele>994.59997558594</ele>
        <time>2013-09-21T14:19:12Z</time>
      </trkpt>
      <trkpt lat="45.65851" lon="2.77071">
        <ele>995.79998779297</ele>
        <time>2013-09-21T14:19:18Z</time>
      </trkpt>
      <trkpt lat="45.65852" lon="2.77084">
        <ele>997.59997558594</ele>
        <time>2013-09-21T14:19:26Z</time>
      </trkpt>
      <trkpt lat="45.65852" lon="2.77092">
        <ele>999.40002441406</ele>
        <time>2013-09-21T14:19:30Z</time>
      </trkpt>
      <trkpt lat="45.65854" lon="2.77107">
        <ele>999.79998779297</ele>
        <time>2013-09-21T14:19:38Z</time>
      </trkpt>
      <trkpt lat="45.65854" lon="2.77111">
        <ele>1000.5999755859</ele>
        <time>2013-09-21T14:19:40Z</time>
      </trkpt>
      <trkpt lat="45.65856" lon="2.77132">
        <ele>1001.5999755859</ele>
        <time>2013-09-21T14:19:50Z</time>
      </trkpt>
      <trkpt lat="45.65857" lon="2.77142">
        <ele>1002.799987793</ele>
        <time>2013-09-21T14:19:54Z</time>
      </trkpt>
      <trkpt lat="45.65858" lon="2.77155">
        <ele>1003.5999755859</ele>
        <time>2013-09-21T14:20:00Z</time>
      </trkpt>
      <trkpt lat="45.65859" lon="2.77174">
        <ele>1004</ele>
        <time>2013-09-21T14:20:08Z</time>
      </trkpt>
      <trkpt lat="45.6586" lon="2.77181">
        <ele>1005.4000244141</ele>
        <time>2013-09-21T14:20:11Z</time>
      </trkpt>
      <trkpt lat="45.65862" lon="2.77205">
        <ele>1006.200012207</ele>
        <time>2013-09-21T14:20:22Z</time>
      </trkpt>
      <trkpt lat="45.65863" lon="2.77212">
        <ele>1007.4000244141</ele>
        <time>2013-09-21T14:20:25Z</time>
      </trkpt>
      <trkpt lat="45.65865" lon="2.77226">
        <ele>1007.799987793</ele>
        <time>2013-09-21T14:20:31Z</time>
      </trkpt>
      <trkpt lat="45.65865" lon="2.77232">
        <ele>1008.4000244141</ele>
        <time>2013-09-21T14:20:34Z</time>
      </trkpt>
      <trkpt lat="45.65866" lon="2.7724">
        <ele>1010</ele>
        <time>2013-09-21T14:20:38Z</time>
      </trkpt>
      <trkpt lat="45.65867" lon="2.77258">
        <ele>1011.4000244141</ele>
        <time>2013-09-21T14:20:47Z</time>
      </trkpt>
      <trkpt lat="45.65867" lon="2.77262">
        <ele>1012.200012207</ele>
        <time>2013-09-21T14:20:49Z</time>
      </trkpt>
      <trkpt lat="45.65868" lon="2.7727">
        <ele>1013.200012207</ele>
        <time>2013-09-21T14:20:54Z</time>
      </trkpt>
      <trkpt lat="45.65869" lon="2.77281">
        <ele>1014.799987793</ele>
        <time>2013-09-21T14:21:00Z</time>
      </trkpt>
      <trkpt lat="45.6587" lon="2.77291">
        <ele>1015.5999755859</ele>
        <time>2013-09-21T14:21:06Z</time>
      </trkpt>
      <trkpt lat="45.6587" lon="2.77303">
        <ele>1016.4000244141</ele>
        <time>2013-09-21T14:21:12Z</time>
      </trkpt>
      <trkpt lat="45.65872" lon="2.77311">
        <ele>1018</ele>
        <time>2013-09-21T14:21:17Z</time>
      </trkpt>
      <trkpt lat="45.65874" lon="2.77324">
        <ele>1018.799987793</ele>
        <time>2013-09-21T14:21:23Z</time>
      </trkpt>
      <trkpt lat="45.65874" lon="2.77332">
        <ele>1020.5999755859</ele>
        <time>2013-09-21T14:21:27Z</time>
      </trkpt>
      <trkpt lat="45.65876" lon="2.77357">
        <ele>1021</ele>
        <time>2013-09-21T14:21:38Z</time>
      </trkpt>
      <trkpt lat="45.65876" lon="2.77362">
        <ele>1021.799987793</ele>
        <time>2013-09-21T14:21:40Z</time>
      </trkpt>
      <trkpt lat="45.65876" lon="2.77386">
        <ele>1022.799987793</ele>
        <time>2013-09-21T14:21:48Z</time>
      </trkpt>
      <trkpt lat="45.65869" lon="2.77413">
        <ele>1022.799987793</ele>
        <time>2013-09-21T14:21:56Z</time>
      </trkpt>
      <trkpt lat="45.65858" lon="2.77418">
        <ele>1022.799987793</ele>
        <time>2013-09-21T14:22:01Z</time>
      </trkpt>
      <trkpt lat="45.65841" lon="2.77415">
        <ele>1022.799987793</ele>
        <time>2013-09-21T14:22:08Z</time>
      </trkpt>
      <trkpt lat="45.65836" lon="2.77413">
        <ele>1023.200012207</ele>
        <time>2013-09-21T14:22:10Z</time>
      </trkpt>
      <trkpt lat="45.65829" lon="2.77412">
        <ele>1024.4000244141</ele>
        <time>2013-09-21T14:22:13Z</time>
      </trkpt>
      <trkpt lat="45.65815" lon="2.77414">
        <ele>1024.8000488281</ele>
        <time>2013-09-21T14:22:19Z</time>
      </trkpt>
      <trkpt lat="45.65804" lon="2.77421">
        <ele>1024.8000488281</ele>
        <time>2013-09-21T14:22:26Z</time>
      </trkpt>
      <trkpt lat="45.65797" lon="2.77426">
        <ele>1025.1999511719</ele>
        <time>2013-09-21T14:22:29Z</time>
      </trkpt>
      <trkpt lat="45.65794" lon="2.77431">
        <ele>1026.1999511719</ele>
        <time>2013-09-21T14:22:31Z</time>
      </trkpt>
      <trkpt lat="45.65769" lon="2.77459">
        <ele>1027</ele>
        <time>2013-09-21T14:22:41Z</time>
      </trkpt>
      <trkpt lat="45.65754" lon="2.77476">
        <ele>1027.4000244141</ele>
        <time>2013-09-21T14:22:48Z</time>
      </trkpt>
      <trkpt lat="45.65749" lon="2.77479">
        <ele>1028.4000244141</ele>
        <time>2013-09-21T14:22:50Z</time>
      </trkpt>
      <trkpt lat="45.65746" lon="2.77481">
        <ele>1028.8000488281</ele>
        <time>2013-09-21T14:22:51Z</time>
      </trkpt>
      <trkpt lat="45.65737" lon="2.77488">
        <ele>1029.4000244141</ele>
        <time>2013-09-21T14:22:56Z</time>
      </trkpt>
      <trkpt lat="45.65726" lon="2.7749">
        <ele>1029.4000244141</ele>
        <time>2013-09-21T14:23:00Z</time>
      </trkpt>
      <trkpt lat="45.6572" lon="2.77493">
        <ele>1029.8000488281</ele>
        <time>2013-09-21T14:23:02Z</time>
      </trkpt>
      <trkpt lat="45.65707" lon="2.77496">
        <ele>1031.4000244141</ele>
        <time>2013-09-21T14:23:06Z</time>
      </trkpt>
      <trkpt lat="45.65677" lon="2.77506">
        <ele>1031.4000244141</ele>
        <time>2013-09-21T14:23:16Z</time>
      </trkpt>
      <trkpt lat="45.65664" lon="2.7751">
        <ele>1031.8000488281</ele>
        <time>2013-09-21T14:23:22Z</time>
      </trkpt>
      <trkpt lat="45.65661" lon="2.77511">
        <ele>1032.1999511719</ele>
        <time>2013-09-21T14:23:23Z</time>
      </trkpt>
      <trkpt lat="45.65659" lon="2.77512">
        <ele>1032.5999755859</ele>
        <time>2013-09-21T14:23:24Z</time>
      </trkpt>
      <trkpt lat="45.65648" lon="2.77518">
        <ele>1033.4000244141</ele>
        <time>2013-09-21T14:23:29Z</time>
      </trkpt>
      <trkpt lat="45.65626" lon="2.77528">
        <ele>1033.8000488281</ele>
        <time>2013-09-21T14:23:36Z</time>
      </trkpt>
      <trkpt lat="45.65623" lon="2.77531">
        <ele>1034.1999511719</ele>
        <time>2013-09-21T14:23:37Z</time>
      </trkpt>
      <trkpt lat="45.65618" lon="2.77535">
        <ele>1035.1999511719</ele>
        <time>2013-09-21T14:23:39Z</time>
      </trkpt>
      <trkpt lat="45.65606" lon="2.77557">
        <ele>1035.5999755859</ele>
        <time>2013-09-21T14:23:48Z</time>
      </trkpt>
      <trkpt lat="45.65605" lon="2.77565">
        <ele>1036</ele>
        <time>2013-09-21T14:23:50Z</time>
      </trkpt>
      <trkpt lat="45.65603" lon="2.77572">
        <ele>1036.4000244141</ele>
        <time>2013-09-21T14:23:52Z</time>
      </trkpt>
      <trkpt lat="45.656" lon="2.77584">
        <ele>1037.5999755859</ele>
        <time>2013-09-21T14:23:55Z</time>
      </trkpt>
      <trkpt lat="45.65596" lon="2.77608">
        <ele>1037.5999755859</ele>
        <time>2013-09-21T14:24:00Z</time>
      </trkpt>
      <trkpt lat="45.65582" lon="2.77652">
        <ele>1037.5999755859</ele>
        <time>2013-09-21T14:24:10Z</time>
      </trkpt>
      <trkpt lat="45.65578" lon="2.77665">
        <ele>1038</ele>
        <time>2013-09-21T14:24:13Z</time>
      </trkpt>
      <trkpt lat="45.65576" lon="2.77673">
        <ele>1038.8000488281</ele>
        <time>2013-09-21T14:24:15Z</time>
      </trkpt>
      <trkpt lat="45.65573" lon="2.77682">
        <ele>1039.4000244141</ele>
        <time>2013-09-21T14:24:17Z</time>
      </trkpt>
      <trkpt lat="45.65556" lon="2.77723">
        <ele>1039.8000488281</ele>
        <time>2013-09-21T14:24:27Z</time>
      </trkpt>
      <trkpt lat="45.65541" lon="2.77739">
        <ele>1039.8000488281</ele>
        <time>2013-09-21T14:24:33Z</time>
      </trkpt>
      <trkpt lat="45.65527" lon="2.77756">
        <ele>1040.1999511719</ele>
        <time>2013-09-21T14:24:39Z</time>
      </trkpt>
      <trkpt lat="45.65524" lon="2.77761">
        <ele>1040.5999755859</ele>
        <time>2013-09-21T14:24:40Z</time>
      </trkpt>
      <trkpt lat="45.65521" lon="2.77771">
        <ele>1041.4000244141</ele>
        <time>2013-09-21T14:24:42Z</time>
      </trkpt>
      <trkpt lat="45.65517" lon="2.77793">
        <ele>1041.8000488281</ele>
        <time>2013-09-21T14:24:46Z</time>
      </trkpt>
      <trkpt lat="45.65509" lon="2.77832">
        <ele>1041.8000488281</ele>
        <time>2013-09-21T14:24:53Z</time>
      </trkpt>
      <trkpt lat="45.65496" lon="2.77889">
        <ele>1042.1999511719</ele>
        <time>2013-09-21T14:25:03Z</time>
      </trkpt>
      <trkpt lat="45.65495" lon="2.77894">
        <ele>1042.5999755859</ele>
        <time>2013-09-21T14:25:04Z</time>
      </trkpt>
      <trkpt lat="45.65491" lon="2.77905">
        <ele>1043.5999755859</ele>
        <time>2013-09-21T14:25:06Z</time>
      </trkpt>
      <trkpt lat="45.6549" lon="2.7791">
        <ele>1044</ele>
        <time>2013-09-21T14:25:07Z</time>
      </trkpt>
      <trkpt lat="45.65478" lon="2.77942">
        <ele>1044</ele>
        <time>2013-09-21T14:25:12Z</time>
      </trkpt>
      <trkpt lat="45.65477" lon="2.77973">
        <ele>1044</ele>
        <time>2013-09-21T14:25:16Z</time>
      </trkpt>
      <trkpt lat="45.65479" lon="2.77983">
        <ele>1043.4000244141</ele>
        <time>2013-09-21T14:25:17Z</time>
      </trkpt>
      <trkpt lat="45.65482" lon="2.77992">
        <ele>1043</ele>
        <time>2013-09-21T14:25:18Z</time>
      </trkpt>
      <trkpt lat="45.65486" lon="2.78003">
        <ele>1042.4000244141</ele>
        <time>2013-09-21T14:25:19Z</time>
      </trkpt>
      <trkpt lat="45.65489" lon="2.78015">
        <ele>1041.8000488281</ele>
        <time>2013-09-21T14:25:20Z</time>
      </trkpt>
      <trkpt lat="45.65492" lon="2.78028">
        <ele>1041.1999511719</ele>
        <time>2013-09-21T14:25:21Z</time>
      </trkpt>
      <trkpt lat="45.65493" lon="2.78042">
        <ele>1040.1999511719</ele>
        <time>2013-09-21T14:25:22Z</time>
      </trkpt>
      <trkpt lat="45.65492" lon="2.78056">
        <ele>1039.4000244141</ele>
        <time>2013-09-21T14:25:23Z</time>
      </trkpt>
      <trkpt lat="45.6549" lon="2.78071">
        <ele>1038.4000244141</ele>
        <time>2013-09-21T14:25:24Z</time>
      </trkpt>
      <trkpt lat="45.65487" lon="2.78087">
        <ele>1037.1999511719</ele>
        <time>2013-09-21T14:25:25Z</time>
      </trkpt>
      <trkpt lat="45.65485" lon="2.78103">
        <ele>1036.1999511719</ele>
        <time>2013-09-21T14:25:26Z</time>
      </trkpt>
      <trkpt lat="45.65482" lon="2.78117">
        <ele>1035.1999511719</ele>
        <time>2013-09-21T14:25:27Z</time>
      </trkpt>
      <trkpt lat="45.65481" lon="2.78133">
        <ele>1034.1999511719</ele>
        <time>2013-09-21T14:25:28Z</time>
      </trkpt>
      <trkpt lat="45.65481" lon="2.7815">
        <ele>1033.1999511719</ele>
        <time>2013-09-21T14:25:29Z</time>
      </trkpt>
      <trkpt lat="45.65482" lon="2.78165">
        <ele>1032.1999511719</ele>
        <time>2013-09-21T14:25:30Z</time>
      </trkpt>
      <trkpt lat="45.65483" lon="2.78179">
        <ele>1031.1999511719</ele>
        <time>2013-09-21T14:25:31Z</time>
      </trkpt>
      <trkpt lat="45.65485" lon="2.7819">
        <ele>1030.1999511719</ele>
        <time>2013-09-21T14:25:32Z</time>
      </trkpt>
      <trkpt lat="45.65485" lon="2.78207">
        <ele>1028.1999511719</ele>
        <time>2013-09-21T14:25:34Z</time>
      </trkpt>
      <trkpt lat="45.65482" lon="2.78212">
        <ele>1027.4000244141</ele>
        <time>2013-09-21T14:25:35Z</time>
      </trkpt>
      <trkpt lat="45.65479" lon="2.78215">
        <ele>1026.5999755859</ele>
        <time>2013-09-21T14:25:36Z</time>
      </trkpt>
      <trkpt lat="45.65465" lon="2.78227">
        <ele>1024.8000488281</ele>
        <time>2013-09-21T14:25:40Z</time>
      </trkpt>
      <trkpt lat="45.65448" lon="2.78252">
        <ele>1024.8000488281</ele>
        <time>2013-09-21T14:25:46Z</time>
      </trkpt>
      <trkpt lat="45.65445" lon="2.78263">
        <ele>1024.1999511719</ele>
        <time>2013-09-21T14:25:48Z</time>
      </trkpt>
      <trkpt lat="45.65441" lon="2.78271">
        <ele>1023.200012207</ele>
        <time>2013-09-21T14:25:50Z</time>
      </trkpt>
      <trkpt lat="45.65433" lon="2.78271">
        <ele>1022.5999755859</ele>
        <time>2013-09-21T14:25:52Z</time>
      </trkpt>
      <trkpt lat="45.6543" lon="2.78264">
        <ele>1021.4000244141</ele>
        <time>2013-09-21T14:25:53Z</time>
      </trkpt>
      <trkpt lat="45.65427" lon="2.78259">
        <ele>1020.799987793</ele>
        <time>2013-09-21T14:25:54Z</time>
      </trkpt>
      <trkpt lat="45.65412" lon="2.78248">
        <ele>1018.4000244141</ele>
        <time>2013-09-21T14:25:58Z</time>
      </trkpt>
      <trkpt lat="45.65407" lon="2.78248">
        <ele>1017.5999755859</ele>
        <time>2013-09-21T14:25:59Z</time>
      </trkpt>
      <trkpt lat="45.65396" lon="2.78247">
        <ele>1015.799987793</ele>
        <time>2013-09-21T14:26:01Z</time>
      </trkpt>
      <trkpt lat="45.65385" lon="2.78243">
        <ele>1013.799987793</ele>
        <time>2013-09-21T14:26:03Z</time>
      </trkpt>
      <trkpt lat="45.6538" lon="2.78241">
        <ele>1012.5999755859</ele>
        <time>2013-09-21T14:26:04Z</time>
      </trkpt>
      <trkpt lat="45.65366" lon="2.78243">
        <ele>1009.200012207</ele>
        <time>2013-09-21T14:26:07Z</time>
      </trkpt>
      <trkpt lat="45.65366" lon="2.78254">
        <ele>1006.799987793</ele>
        <time>2013-09-21T14:26:09Z</time>
      </trkpt>
      <trkpt lat="45.65367" lon="2.7826">
        <ele>1006</ele>
        <time>2013-09-21T14:26:10Z</time>
      </trkpt>
      <trkpt lat="45.65367" lon="2.78282">
        <ele>1004.4000244141</ele>
        <time>2013-09-21T14:26:12Z</time>
      </trkpt>
      <trkpt lat="45.65365" lon="2.78295">
        <ele>1003.5999755859</ele>
        <time>2013-09-21T14:26:13Z</time>
      </trkpt>
      <trkpt lat="45.65363" lon="2.78307">
        <ele>1002.799987793</ele>
        <time>2013-09-21T14:26:14Z</time>
      </trkpt>
      <trkpt lat="45.65361" lon="2.78319">
        <ele>1002.200012207</ele>
        <time>2013-09-21T14:26:15Z</time>
      </trkpt>
      <trkpt lat="45.65359" lon="2.7833">
        <ele>1001.4000244141</ele>
        <time>2013-09-21T14:26:16Z</time>
      </trkpt>
      <trkpt lat="45.65357" lon="2.78342">
        <ele>1000.799987793</ele>
        <time>2013-09-21T14:26:17Z</time>
      </trkpt>
      <trkpt lat="45.65355" lon="2.78354">
        <ele>1000</ele>
        <time>2013-09-21T14:26:18Z</time>
      </trkpt>
      <trkpt lat="45.65354" lon="2.78364">
        <ele>999.40002441406</ele>
        <time>2013-09-21T14:26:19Z</time>
      </trkpt>
      <trkpt lat="45.65353" lon="2.78373">
        <ele>998.79998779297</ele>
        <time>2013-09-21T14:26:20Z</time>
      </trkpt>
      <trkpt lat="45.6535" lon="2.78381">
        <ele>998.40002441406</ele>
        <time>2013-09-21T14:26:21Z</time>
      </trkpt>
      <trkpt lat="45.6534" lon="2.7839">
        <ele>997</ele>
        <time>2013-09-21T14:26:23Z</time>
      </trkpt>
      <trkpt lat="45.65334" lon="2.78393">
        <ele>996.40002441406</ele>
        <time>2013-09-21T14:26:24Z</time>
      </trkpt>
      <trkpt lat="45.65326" lon="2.78394">
        <ele>995.59997558594</ele>
        <time>2013-09-21T14:26:25Z</time>
      </trkpt>
      <trkpt lat="45.65319" lon="2.78394">
        <ele>995</ele>
        <time>2013-09-21T14:26:26Z</time>
      </trkpt>
      <trkpt lat="45.65305" lon="2.78397">
        <ele>995</ele>
        <time>2013-09-21T14:26:28Z</time>
      </trkpt>
      <trkpt lat="45.65286" lon="2.78423">
        <ele>995</ele>
        <time>2013-09-21T14:26:33Z</time>
      </trkpt>
      <trkpt lat="45.65284" lon="2.78447">
        <ele>995</ele>
        <time>2013-09-21T14:26:37Z</time>
      </trkpt>
      <trkpt lat="45.65283" lon="2.78452">
        <ele>995</ele>
        <time>2013-09-21T14:26:38Z</time>
      </trkpt>
      <trkpt lat="45.65278" lon="2.78478">
        <ele>995.40002441406</ele>
        <time>2013-09-21T14:26:44Z</time>
      </trkpt>
      <trkpt lat="45.65277" lon="2.78481">
        <ele>996</ele>
        <time>2013-09-21T14:26:45Z</time>
      </trkpt>
      <trkpt lat="45.65274" lon="2.78492">
        <ele>997.40002441406</ele>
        <time>2013-09-21T14:26:48Z</time>
      </trkpt>
      <trkpt lat="45.65272" lon="2.78502">
        <ele>998.59997558594</ele>
        <time>2013-09-21T14:26:51Z</time>
      </trkpt>
      <trkpt lat="45.65269" lon="2.78509">
        <ele>999.40002441406</ele>
        <time>2013-09-21T14:26:53Z</time>
      </trkpt>
      <trkpt lat="45.65269" lon="2.78513">
        <ele>999.40002441406</ele>
        <time>2013-09-21T14:26:54Z</time>
      </trkpt>
      <trkpt lat="45.65266" lon="2.78523">
        <ele>1000.5999755859</ele>
        <time>2013-09-21T14:26:57Z</time>
      </trkpt>
      <trkpt lat="45.65264" lon="2.7853">
        <ele>1001.4000244141</ele>
        <time>2013-09-21T14:26:59Z</time>
      </trkpt>
      <trkpt lat="45.65256" lon="2.7856">
        <ele>1001.4000244141</ele>
        <time>2013-09-21T14:27:07Z</time>
      </trkpt>
      <trkpt lat="45.65255" lon="2.78563">
        <ele>1002</ele>
        <time>2013-09-21T14:27:08Z</time>
      </trkpt>
      <trkpt lat="45.65252" lon="2.78573">
        <ele>1003.200012207</ele>
        <time>2013-09-21T14:27:11Z</time>
      </trkpt>
      <trkpt lat="45.65246" lon="2.78587">
        <ele>1003.799987793</ele>
        <time>2013-09-21T14:27:15Z</time>
      </trkpt>
      <trkpt lat="45.65228" lon="2.78621">
        <ele>1003.799987793</ele>
        <time>2013-09-21T14:27:26Z</time>
      </trkpt>
      <trkpt lat="45.65222" lon="2.7863">
        <ele>1005</ele>
        <time>2013-09-21T14:27:29Z</time>
      </trkpt>
      <trkpt lat="45.6522" lon="2.78633">
        <ele>1005.4000244141</ele>
        <time>2013-09-21T14:27:30Z</time>
      </trkpt>
      <trkpt lat="45.65205" lon="2.78653">
        <ele>1005.799987793</ele>
        <time>2013-09-21T14:27:37Z</time>
      </trkpt>
      <trkpt lat="45.65187" lon="2.78677">
        <ele>1005.799987793</ele>
        <time>2013-09-21T14:27:45Z</time>
      </trkpt>
      <trkpt lat="45.65182" lon="2.78697">
        <ele>1005.799987793</ele>
        <time>2013-09-21T14:27:50Z</time>
      </trkpt>
      <trkpt lat="45.65169" lon="2.78721">
        <ele>1006.200012207</ele>
        <time>2013-09-21T14:27:56Z</time>
      </trkpt>
      <trkpt lat="45.65163" lon="2.78733">
        <ele>1007.4000244141</ele>
        <time>2013-09-21T14:27:59Z</time>
      </trkpt>
      <trkpt lat="45.6516" lon="2.78737">
        <ele>1007.799987793</ele>
        <time>2013-09-21T14:28:00Z</time>
      </trkpt>
      <trkpt lat="45.65154" lon="2.78743">
        <ele>1007.799987793</ele>
        <time>2013-09-21T14:28:02Z</time>
      </trkpt>
      <trkpt lat="45.65142" lon="2.78759">
        <ele>1007.799987793</ele>
        <time>2013-09-21T14:28:08Z</time>
      </trkpt>
      <trkpt lat="45.65125" lon="2.78772">
        <ele>1007.799987793</ele>
        <time>2013-09-21T14:28:15Z</time>
      </trkpt>
      <trkpt lat="45.65108" lon="2.7878">
        <ele>1007.4000244141</ele>
        <time>2013-09-21T14:28:21Z</time>
      </trkpt>
      <trkpt lat="45.65099" lon="2.78785">
        <ele>1005.799987793</ele>
        <time>2013-09-21T14:28:25Z</time>
      </trkpt>
      <trkpt lat="45.65082" lon="2.78793">
        <ele>1005.4000244141</ele>
        <time>2013-09-21T14:28:36Z</time>
      </trkpt>
      <trkpt lat="45.65079" lon="2.78795">
        <ele>1004.4000244141</ele>
        <time>2013-09-21T14:28:38Z</time>
      </trkpt>
      <trkpt lat="45.65074" lon="2.78802">
        <ele>1003.5999755859</ele>
        <time>2013-09-21T14:28:40Z</time>
      </trkpt>
      <trkpt lat="45.65064" lon="2.78814">
        <ele>1003.5999755859</ele>
        <time>2013-09-21T14:28:46Z</time>
      </trkpt>
      <trkpt lat="45.65051" lon="2.78834">
        <ele>1003.5999755859</ele>
        <time>2013-09-21T14:28:51Z</time>
      </trkpt>
      <trkpt lat="45.65044" lon="2.78841">
        <ele>1003.5999755859</ele>
        <time>2013-09-21T14:28:57Z</time>
      </trkpt>
      <trkpt lat="45.65039" lon="2.78849">
        <ele>1001.4000244141</ele>
        <time>2013-09-21T14:29:12Z</time>
      </trkpt>
      <trkpt lat="45.65028" lon="2.78871">
        <ele>1001.4000244141</ele>
        <time>2013-09-21T14:29:18Z</time>
      </trkpt>
      <trkpt lat="45.65026" lon="2.78896">
        <ele>1001.4000244141</ele>
        <time>2013-09-21T14:29:24Z</time>
      </trkpt>
      <trkpt lat="45.65026" lon="2.78919">
        <ele>1001</ele>
        <time>2013-09-21T14:29:29Z</time>
      </trkpt>
      <trkpt lat="45.65026" lon="2.78923">
        <ele>1000.5999755859</ele>
        <time>2013-09-21T14:29:30Z</time>
      </trkpt>
      <trkpt lat="45.65028" lon="2.78934">
        <ele>999.79998779297</ele>
        <time>2013-09-21T14:29:32Z</time>
      </trkpt>
      <trkpt lat="45.65028" lon="2.78947">
        <ele>999.40002441406</ele>
        <time>2013-09-21T14:29:34Z</time>
      </trkpt>
      <trkpt lat="45.65021" lon="2.78963">
        <ele>999.40002441406</ele>
        <time>2013-09-21T14:29:37Z</time>
      </trkpt>
      <trkpt lat="45.65018" lon="2.78967">
        <ele>999.40002441406</ele>
        <time>2013-09-21T14:29:38Z</time>
      </trkpt>
      <trkpt lat="45.64999" lon="2.78987">
        <ele>999.40002441406</ele>
        <time>2013-09-21T14:29:45Z</time>
      </trkpt>
      <trkpt lat="45.64975" lon="2.79011">
        <ele>999.40002441406</ele>
        <time>2013-09-21T14:29:54Z</time>
      </trkpt>
      <trkpt lat="45.6496" lon="2.79036">
        <ele>999.40002441406</ele>
        <time>2013-09-21T14:29:59Z</time>
      </trkpt>
      <trkpt lat="45.64942" lon="2.79062">
        <ele>999.40002441406</ele>
        <time>2013-09-21T14:30:04Z</time>
      </trkpt>
      <trkpt lat="45.64932" lon="2.7907">
        <ele>999.40002441406</ele>
        <time>2013-09-21T14:30:06Z</time>
      </trkpt>
      <trkpt lat="45.64913" lon="2.79083">
        <ele>999.40002441406</ele>
        <time>2013-09-21T14:30:10Z</time>
      </trkpt>
      <trkpt lat="45.64908" lon="2.79086">
        <ele>998.79998779297</ele>
        <time>2013-09-21T14:30:11Z</time>
      </trkpt>
      <trkpt lat="45.64897" lon="2.79092">
        <ele>998</ele>
        <time>2013-09-21T14:30:13Z</time>
      </trkpt>
      <trkpt lat="45.64883" lon="2.79096">
        <ele>997.20001220703</ele>
        <time>2013-09-21T14:30:15Z</time>
      </trkpt>
      <trkpt lat="45.64877" lon="2.79096">
        <ele>997.20001220703</ele>
        <time>2013-09-21T14:30:16Z</time>
      </trkpt>
      <trkpt lat="45.64864" lon="2.79097">
        <ele>996.79998779297</ele>
        <time>2013-09-21T14:30:18Z</time>
      </trkpt>
      <trkpt lat="45.64857" lon="2.79097">
        <ele>996.40002441406</ele>
        <time>2013-09-21T14:30:19Z</time>
      </trkpt>
      <trkpt lat="45.64849" lon="2.79097">
        <ele>996</ele>
        <time>2013-09-21T14:30:20Z</time>
      </trkpt>
      <trkpt lat="45.64835" lon="2.79098">
        <ele>995.20001220703</ele>
        <time>2013-09-21T14:30:22Z</time>
      </trkpt>
      <trkpt lat="45.64827" lon="2.79099">
        <ele>994.59997558594</ele>
        <time>2013-09-21T14:30:23Z</time>
      </trkpt>
      <trkpt lat="45.64812" lon="2.79105">
        <ele>993.59997558594</ele>
        <time>2013-09-21T14:30:25Z</time>
      </trkpt>
      <trkpt lat="45.64805" lon="2.79111">
        <ele>993</ele>
        <time>2013-09-21T14:30:26Z</time>
      </trkpt>
      <trkpt lat="45.64797" lon="2.79117">
        <ele>992.40002441406</ele>
        <time>2013-09-21T14:30:27Z</time>
      </trkpt>
      <trkpt lat="45.64783" lon="2.79129">
        <ele>992</ele>
        <time>2013-09-21T14:30:29Z</time>
      </trkpt>
      <trkpt lat="45.64775" lon="2.79134">
        <ele>991.40002441406</ele>
        <time>2013-09-21T14:30:30Z</time>
      </trkpt>
      <trkpt lat="45.64758" lon="2.79143">
        <ele>990.20001220703</ele>
        <time>2013-09-21T14:30:32Z</time>
      </trkpt>
      <trkpt lat="45.64749" lon="2.79148">
        <ele>989.40002441406</ele>
        <time>2013-09-21T14:30:33Z</time>
      </trkpt>
      <trkpt lat="45.64741" lon="2.79152">
        <ele>988.79998779297</ele>
        <time>2013-09-21T14:30:34Z</time>
      </trkpt>
      <trkpt lat="45.64734" lon="2.79156">
        <ele>988</ele>
        <time>2013-09-21T14:30:35Z</time>
      </trkpt>
      <trkpt lat="45.64727" lon="2.79161">
        <ele>987.40002441406</ele>
        <time>2013-09-21T14:30:36Z</time>
      </trkpt>
      <trkpt lat="45.64716" lon="2.79173">
        <ele>986.20001220703</ele>
        <time>2013-09-21T14:30:38Z</time>
      </trkpt>
      <trkpt lat="45.64711" lon="2.7918">
        <ele>985.79998779297</ele>
        <time>2013-09-21T14:30:39Z</time>
      </trkpt>
      <trkpt lat="45.64707" lon="2.79189">
        <ele>985.20001220703</ele>
        <time>2013-09-21T14:30:40Z</time>
      </trkpt>
      <trkpt lat="45.64702" lon="2.79198">
        <ele>984.59997558594</ele>
        <time>2013-09-21T14:30:41Z</time>
      </trkpt>
      <trkpt lat="45.64696" lon="2.79208">
        <ele>984</ele>
        <time>2013-09-21T14:30:42Z</time>
      </trkpt>
      <trkpt lat="45.64689" lon="2.79217">
        <ele>984</ele>
        <time>2013-09-21T14:30:43Z</time>
      </trkpt>
      <trkpt lat="45.64682" lon="2.79225">
        <ele>983</ele>
        <time>2013-09-21T14:30:44Z</time>
      </trkpt>
      <trkpt lat="45.64663" lon="2.79249">
        <ele>982.59997558594</ele>
        <time>2013-09-21T14:30:47Z</time>
      </trkpt>
      <trkpt lat="45.6466" lon="2.79257">
        <ele>982</ele>
        <time>2013-09-21T14:30:48Z</time>
      </trkpt>
      <trkpt lat="45.6466" lon="2.79265">
        <ele>981.59997558594</ele>
        <time>2013-09-21T14:30:49Z</time>
      </trkpt>
      <trkpt lat="45.64665" lon="2.79273">
        <ele>981.20001220703</ele>
        <time>2013-09-21T14:30:50Z</time>
      </trkpt>
      <trkpt lat="45.6467" lon="2.7928">
        <ele>980.79998779297</ele>
        <time>2013-09-21T14:30:51Z</time>
      </trkpt>
      <trkpt lat="45.64685" lon="2.79295">
        <ele>980.79998779297</ele>
        <time>2013-09-21T14:30:53Z</time>
      </trkpt>
      <trkpt lat="45.64692" lon="2.79302">
        <ele>980.20001220703</ele>
        <time>2013-09-21T14:30:54Z</time>
      </trkpt>
      <trkpt lat="45.64704" lon="2.79317">
        <ele>979.40002441406</ele>
        <time>2013-09-21T14:30:56Z</time>
      </trkpt>
      <trkpt lat="45.64708" lon="2.79325">
        <ele>979</ele>
        <time>2013-09-21T14:30:57Z</time>
      </trkpt>
      <trkpt lat="45.64711" lon="2.79334">
        <ele>978.40002441406</ele>
        <time>2013-09-21T14:30:58Z</time>
      </trkpt>
      <trkpt lat="45.64716" lon="2.79376">
        <ele>978</ele>
        <time>2013-09-21T14:31:02Z</time>
      </trkpt>
      <trkpt lat="45.64714" lon="2.79398">
        <ele>977.20001220703</ele>
        <time>2013-09-21T14:31:04Z</time>
      </trkpt>
      <trkpt lat="45.64713" lon="2.79408">
        <ele>977.20001220703</ele>
        <time>2013-09-21T14:31:05Z</time>
      </trkpt>
      <trkpt lat="45.64711" lon="2.79418">
        <ele>976.79998779297</ele>
        <time>2013-09-21T14:31:06Z</time>
      </trkpt>
      <trkpt lat="45.64709" lon="2.79427">
        <ele>976.40002441406</ele>
        <time>2013-09-21T14:31:07Z</time>
      </trkpt>
      <trkpt lat="45.64708" lon="2.79446">
        <ele>976.40002441406</ele>
        <time>2013-09-21T14:31:09Z</time>
      </trkpt>
      <trkpt lat="45.64709" lon="2.79456">
        <ele>976.40002441406</ele>
        <time>2013-09-21T14:31:10Z</time>
      </trkpt>
      <trkpt lat="45.64717" lon="2.79485">
        <ele>976.40002441406</ele>
        <time>2013-09-21T14:31:13Z</time>
      </trkpt>
      <trkpt lat="45.64719" lon="2.79495">
        <ele>976.40002441406</ele>
        <time>2013-09-21T14:31:14Z</time>
      </trkpt>
      <trkpt lat="45.64722" lon="2.79514">
        <ele>976.40002441406</ele>
        <time>2013-09-21T14:31:16Z</time>
      </trkpt>
      <trkpt lat="45.64723" lon="2.79524">
        <ele>976</ele>
        <time>2013-09-21T14:31:17Z</time>
      </trkpt>
      <trkpt lat="45.64722" lon="2.79534">
        <ele>975.59997558594</ele>
        <time>2013-09-21T14:31:18Z</time>
      </trkpt>
      <trkpt lat="45.6472" lon="2.79544">
        <ele>975.20001220703</ele>
        <time>2013-09-21T14:31:19Z</time>
      </trkpt>
      <trkpt lat="45.64717" lon="2.79554">
        <ele>974.79998779297</ele>
        <time>2013-09-21T14:31:20Z</time>
      </trkpt>
      <trkpt lat="45.64714" lon="2.79562">
        <ele>974.40002441406</ele>
        <time>2013-09-21T14:31:21Z</time>
      </trkpt>
      <trkpt lat="45.64708" lon="2.79577">
        <ele>974.40002441406</ele>
        <time>2013-09-21T14:31:23Z</time>
      </trkpt>
      <trkpt lat="45.64696" lon="2.79602">
        <ele>974.40002441406</ele>
        <time>2013-09-21T14:31:26Z</time>
      </trkpt>
      <trkpt lat="45.64695" lon="2.79611">
        <ele>974.40002441406</ele>
        <time>2013-09-21T14:31:27Z</time>
      </trkpt>
      <trkpt lat="45.64694" lon="2.7962">
        <ele>974.40002441406</ele>
        <time>2013-09-21T14:31:28Z</time>
      </trkpt>
      <trkpt lat="45.64694" lon="2.79638">
        <ele>974.40002441406</ele>
        <time>2013-09-21T14:31:30Z</time>
      </trkpt>
      <trkpt lat="45.64693" lon="2.79664">
        <ele>974.40002441406</ele>
        <time>2013-09-21T14:31:34Z</time>
      </trkpt>
      <trkpt lat="45.64692" lon="2.79688">
        <ele>974.40002441406</ele>
        <time>2013-09-21T14:31:40Z</time>
      </trkpt>
      <trkpt lat="45.64692" lon="2.79696">
        <ele>974.79998779297</ele>
        <time>2013-09-21T14:31:42Z</time>
      </trkpt>
      <trkpt lat="45.64692" lon="2.79702">
        <ele>975.59997558594</ele>
        <time>2013-09-21T14:31:44Z</time>
      </trkpt>
      <trkpt lat="45.64694" lon="2.79725">
        <ele>977</ele>
        <time>2013-09-21T14:31:51Z</time>
      </trkpt>
      <trkpt lat="45.64695" lon="2.79731">
        <ele>977.79998779297</ele>
        <time>2013-09-21T14:31:53Z</time>
      </trkpt>
      <trkpt lat="45.64703" lon="2.79757">
        <ele>978.59997558594</ele>
        <time>2013-09-21T14:32:01Z</time>
      </trkpt>
      <trkpt lat="45.64708" lon="2.79765">
        <ele>979</ele>
        <time>2013-09-21T14:32:04Z</time>
      </trkpt>
      <trkpt lat="45.64711" lon="2.7977">
        <ele>979.79998779297</ele>
        <time>2013-09-21T14:32:06Z</time>
      </trkpt>
      <trkpt lat="45.64737" lon="2.79793">
        <ele>980.59997558594</ele>
        <time>2013-09-21T14:32:18Z</time>
      </trkpt>
      <trkpt lat="45.64745" lon="2.79797">
        <ele>981.20001220703</ele>
        <time>2013-09-21T14:32:22Z</time>
      </trkpt>
      <trkpt lat="45.64752" lon="2.79801">
        <ele>982.40002441406</ele>
        <time>2013-09-21T14:32:25Z</time>
      </trkpt>
      <trkpt lat="45.6477" lon="2.79806">
        <ele>983.40002441406</ele>
        <time>2013-09-21T14:32:32Z</time>
      </trkpt>
      <trkpt lat="45.64775" lon="2.79807">
        <ele>984.20001220703</ele>
        <time>2013-09-21T14:32:34Z</time>
      </trkpt>
      <trkpt lat="45.6478" lon="2.79807">
        <ele>985.20001220703</ele>
        <time>2013-09-21T14:32:36Z</time>
      </trkpt>
      <trkpt lat="45.64808" lon="2.79805">
        <ele>985.20001220703</ele>
        <time>2013-09-21T14:32:45Z</time>
      </trkpt>
      <trkpt lat="45.64828" lon="2.798">
        <ele>985.20001220703</ele>
        <time>2013-09-21T14:32:51Z</time>
      </trkpt>
      <trkpt lat="45.64849" lon="2.79793">
        <ele>985.20001220703</ele>
        <time>2013-09-21T14:32:56Z</time>
      </trkpt>
      <trkpt lat="45.64872" lon="2.79788">
        <ele>985.20001220703</ele>
        <time>2013-09-21T14:33:01Z</time>
      </trkpt>
      <trkpt lat="45.64883" lon="2.79788">
        <ele>985.20001220703</ele>
        <time>2013-09-21T14:33:03Z</time>
      </trkpt>
      <trkpt lat="45.64904" lon="2.79788">
        <ele>984.79998779297</ele>
        <time>2013-09-21T14:33:06Z</time>
      </trkpt>
      <trkpt lat="45.64912" lon="2.79789">
        <ele>984.40002441406</ele>
        <time>2013-09-21T14:33:07Z</time>
      </trkpt>
      <trkpt lat="45.64919" lon="2.7979">
        <ele>984</ele>
        <time>2013-09-21T14:33:08Z</time>
      </trkpt>
      <trkpt lat="45.64927" lon="2.79791">
        <ele>983.40002441406</ele>
        <time>2013-09-21T14:33:09Z</time>
      </trkpt>
      <trkpt lat="45.64934" lon="2.79792">
        <ele>983</ele>
        <time>2013-09-21T14:33:10Z</time>
      </trkpt>
      <trkpt lat="45.64948" lon="2.79795">
        <ele>983</ele>
        <time>2013-09-21T14:33:12Z</time>
      </trkpt>
      <trkpt lat="45.64962" lon="2.798">
        <ele>982.59997558594</ele>
        <time>2013-09-21T14:33:14Z</time>
      </trkpt>
      <trkpt lat="45.64968" lon="2.79802">
        <ele>982.20001220703</ele>
        <time>2013-09-21T14:33:15Z</time>
      </trkpt>
      <trkpt lat="45.64974" lon="2.79804">
        <ele>981.79998779297</ele>
        <time>2013-09-21T14:33:16Z</time>
      </trkpt>
      <trkpt lat="45.64985" lon="2.79807">
        <ele>981</ele>
        <time>2013-09-21T14:33:18Z</time>
      </trkpt>
      <trkpt lat="45.64994" lon="2.79812">
        <ele>981</ele>
        <time>2013-09-21T14:33:21Z</time>
      </trkpt>
      <trkpt lat="45.64992" lon="2.79832">
        <ele>981</ele>
        <time>2013-09-21T14:33:26Z</time>
      </trkpt>
      <trkpt lat="45.64982" lon="2.79859">
        <ele>981</ele>
        <time>2013-09-21T14:33:33Z</time>
      </trkpt>
      <trkpt lat="45.64978" lon="2.79877">
        <ele>981.40002441406</ele>
        <time>2013-09-21T14:33:38Z</time>
      </trkpt>
      <trkpt lat="45.64977" lon="2.7988">
        <ele>981.79998779297</ele>
        <time>2013-09-21T14:33:39Z</time>
      </trkpt>
      <trkpt lat="45.64967" lon="2.79898">
        <ele>983.40002441406</ele>
        <time>2013-09-21T14:33:46Z</time>
      </trkpt>
      <trkpt lat="45.64965" lon="2.799">
        <ele>983.79998779297</ele>
        <time>2013-09-21T14:33:47Z</time>
      </trkpt>
      <trkpt lat="45.64952" lon="2.79913">
        <ele>985.59997558594</ele>
        <time>2013-09-21T14:33:56Z</time>
      </trkpt>
      <trkpt lat="45.6495" lon="2.79916">
        <ele>986.40002441406</ele>
        <time>2013-09-21T14:33:58Z</time>
      </trkpt>
      <trkpt lat="45.64941" lon="2.79924">
        <ele>987.59997558594</ele>
        <time>2013-09-21T14:34:04Z</time>
      </trkpt>
      <trkpt lat="45.64939" lon="2.79927">
        <ele>988</ele>
        <time>2013-09-21T14:34:06Z</time>
      </trkpt>
      <trkpt lat="45.64935" lon="2.79931">
        <ele>989.40002441406</ele>
        <time>2013-09-21T14:34:09Z</time>
      </trkpt>
      <trkpt lat="45.64929" lon="2.79938">
        <ele>989.40002441406</ele>
        <time>2013-09-21T14:34:14Z</time>
      </trkpt>
      <trkpt lat="45.64926" lon="2.79941">
        <ele>990.20001220703</ele>
        <time>2013-09-21T14:34:17Z</time>
      </trkpt>
      <trkpt lat="45.64919" lon="2.79948">
        <ele>991.40002441406</ele>
        <time>2013-09-21T14:34:23Z</time>
      </trkpt>
      <trkpt lat="45.64916" lon="2.79951">
        <ele>991.79998779297</ele>
        <time>2013-09-21T14:34:26Z</time>
      </trkpt>
      <trkpt lat="45.64904" lon="2.79965">
        <ele>994</ele>
        <time>2013-09-21T14:34:37Z</time>
      </trkpt>
      <trkpt lat="45.64891" lon="2.7998">
        <ele>995.79998779297</ele>
        <time>2013-09-21T14:34:49Z</time>
      </trkpt>
      <trkpt lat="45.6489" lon="2.79982">
        <ele>996.20001220703</ele>
        <time>2013-09-21T14:34:50Z</time>
      </trkpt>
      <trkpt lat="45.64882" lon="2.79994">
        <ele>997.79998779297</ele>
        <time>2013-09-21T14:34:57Z</time>
      </trkpt>
      <trkpt lat="45.64873" lon="2.8">
        <ele>998.20001220703</ele>
        <time>2013-09-21T14:35:03Z</time>
      </trkpt>
      <trkpt lat="45.64869" lon="2.80004">
        <ele>999.40002441406</ele>
        <time>2013-09-21T14:35:06Z</time>
      </trkpt>
      <trkpt lat="45.64861" lon="2.80012">
        <ele>999.79998779297</ele>
        <time>2013-09-21T14:35:12Z</time>
      </trkpt>
      <trkpt lat="45.64859" lon="2.80015">
        <ele>1000.200012207</ele>
        <time>2013-09-21T14:35:14Z</time>
      </trkpt>
      <trkpt lat="45.64854" lon="2.80021">
        <ele>1002</ele>
        <time>2013-09-21T14:35:18Z</time>
      </trkpt>
      <trkpt lat="45.64847" lon="2.80031">
        <ele>1002</ele>
        <time>2013-09-21T14:35:24Z</time>
      </trkpt>
      <trkpt lat="45.6484" lon="2.80041">
        <ele>1003.5999755859</ele>
        <time>2013-09-21T14:35:31Z</time>
      </trkpt>
      <trkpt lat="45.6484" lon="2.80042">
        <ele>1004</ele>
        <time>2013-09-21T14:35:32Z</time>
      </trkpt>
      <trkpt lat="45.6483" lon="2.80051">
        <ele>1004.4000244141</ele>
        <time>2013-09-21T14:35:40Z</time>
      </trkpt>
      <trkpt lat="45.6482" lon="2.80064">
        <ele>1006.200012207</ele>
        <time>2013-09-21T14:35:52Z</time>
      </trkpt>
      <trkpt lat="45.64814" lon="2.80073">
        <ele>1006.5999755859</ele>
        <time>2013-09-21T14:35:58Z</time>
      </trkpt>
      <trkpt lat="45.64807" lon="2.80082">
        <ele>1008.200012207</ele>
        <time>2013-09-21T14:36:06Z</time>
      </trkpt>
      <trkpt lat="45.64799" lon="2.8009">
        <ele>1010.4000244141</ele>
        <time>2013-09-21T14:36:15Z</time>
      </trkpt>
      <trkpt lat="45.64793" lon="2.80109">
        <ele>1023.799987793</ele>
        <time>2013-09-21T14:37:55Z</time>
      </trkpt>
      <trkpt lat="45.64792" lon="2.80111">
        <ele>1024.1999511719</ele>
        <time>2013-09-21T14:37:56Z</time>
      </trkpt>
      <trkpt lat="45.64789" lon="2.80119">
        <ele>1025.4000244141</ele>
        <time>2013-09-21T14:37:59Z</time>
      </trkpt>
      <trkpt lat="45.64782" lon="2.80146">
        <ele>1025.4000244141</ele>
        <time>2013-09-21T14:38:09Z</time>
      </trkpt>
      <trkpt lat="45.64779" lon="2.80152">
        <ele>1025.8000488281</ele>
        <time>2013-09-21T14:38:12Z</time>
      </trkpt>
      <trkpt lat="45.64771" lon="2.80171">
        <ele>1027.8000488281</ele>
        <time>2013-09-21T14:38:22Z</time>
      </trkpt>
      <trkpt lat="45.64764" lon="2.80187">
        <ele>1028.1999511719</ele>
        <time>2013-09-21T14:38:31Z</time>
      </trkpt>
      <trkpt lat="45.6476" lon="2.80192">
        <ele>1029.4000244141</ele>
        <time>2013-09-21T14:38:34Z</time>
      </trkpt>
      <trkpt lat="45.64758" lon="2.80193">
        <ele>1030</ele>
        <time>2013-09-21T14:38:35Z</time>
      </trkpt>
      <trkpt lat="45.64748" lon="2.80221">
        <ele>1030</ele>
        <time>2013-09-21T14:38:46Z</time>
      </trkpt>
      <trkpt lat="45.64742" lon="2.8023">
        <ele>1030.8000488281</ele>
        <time>2013-09-21T14:38:51Z</time>
      </trkpt>
      <trkpt lat="45.6474" lon="2.80234">
        <ele>1031.5999755859</ele>
        <time>2013-09-21T14:38:53Z</time>
      </trkpt>
      <trkpt lat="45.64733" lon="2.80243">
        <ele>1032</ele>
        <time>2013-09-21T14:38:59Z</time>
      </trkpt>
      <trkpt lat="45.64727" lon="2.80251">
        <ele>1032.4000244141</ele>
        <time>2013-09-21T14:39:01Z</time>
      </trkpt>
      <trkpt lat="45.6472" lon="2.8026">
        <ele>1033.8000488281</ele>
        <time>2013-09-21T14:39:04Z</time>
      </trkpt>
      <trkpt lat="45.64716" lon="2.80263">
        <ele>1034.1999511719</ele>
        <time>2013-09-21T14:39:05Z</time>
      </trkpt>
      <trkpt lat="45.64706" lon="2.80273">
        <ele>1034.1999511719</ele>
        <time>2013-09-21T14:39:10Z</time>
      </trkpt>
      <trkpt lat="45.64699" lon="2.80284">
        <ele>1034.8000488281</ele>
        <time>2013-09-21T14:39:13Z</time>
      </trkpt>
      <trkpt lat="45.64697" lon="2.80293">
        <ele>1035.1999511719</ele>
        <time>2013-09-21T14:39:14Z</time>
      </trkpt>
      <trkpt lat="45.64689" lon="2.80302">
        <ele>1036.8000488281</ele>
        <time>2013-09-21T14:39:17Z</time>
      </trkpt>
      <trkpt lat="45.6468" lon="2.80311">
        <ele>1036.8000488281</ele>
        <time>2013-09-21T14:39:24Z</time>
      </trkpt>
      <trkpt lat="45.64673" lon="2.80324">
        <ele>1039.1999511719</ele>
        <time>2013-09-21T14:39:36Z</time>
      </trkpt>
      <trkpt lat="45.64669" lon="2.80328">
        <ele>1040.8000488281</ele>
        <time>2013-09-21T14:39:40Z</time>
      </trkpt>
      <trkpt lat="45.64658" lon="2.80341">
        <ele>1040.8000488281</ele>
        <time>2013-09-21T14:39:49Z</time>
      </trkpt>
      <trkpt lat="45.6465" lon="2.80351">
        <ele>1041.4000244141</ele>
        <time>2013-09-21T14:40:01Z</time>
      </trkpt>
      <trkpt lat="45.6465" lon="2.80352">
        <ele>1041.8000488281</ele>
        <time>2013-09-21T14:40:02Z</time>
      </trkpt>
      <trkpt lat="45.64642" lon="2.80365">
        <ele>1043.4000244141</ele>
        <time>2013-09-21T14:40:16Z</time>
      </trkpt>
      <trkpt lat="45.6464" lon="2.80369">
        <ele>1044.8000488281</ele>
        <time>2013-09-21T14:40:19Z</time>
      </trkpt>
      <trkpt lat="45.64634" lon="2.8037">
        <ele>1045.1999511719</ele>
        <time>2013-09-21T14:40:23Z</time>
      </trkpt>
      <trkpt lat="45.64625" lon="2.80377">
        <ele>1045.1999511719</ele>
        <time>2013-09-21T14:40:32Z</time>
      </trkpt>
      <trkpt lat="45.6462" lon="2.80379">
        <ele>1046.5999755859</ele>
        <time>2013-09-21T14:40:37Z</time>
      </trkpt>
      <trkpt lat="45.646" lon="2.80387">
        <ele>1047.4000244141</ele>
        <time>2013-09-21T14:40:59Z</time>
      </trkpt>
      <trkpt lat="45.64595" lon="2.8039">
        <ele>1048.1999511719</ele>
        <time>2013-09-21T14:41:03Z</time>
      </trkpt>
      <trkpt lat="45.64579" lon="2.80394">
        <ele>1049.4000244141</ele>
        <time>2013-09-21T14:41:14Z</time>
      </trkpt>
      <trkpt lat="45.6457" lon="2.80399">
        <ele>1051.5999755859</ele>
        <time>2013-09-21T14:41:21Z</time>
      </trkpt>
      <trkpt lat="45.64568" lon="2.804">
        <ele>1051.5999755859</ele>
        <time>2013-09-21T14:41:22Z</time>
      </trkpt>
      <trkpt lat="45.64558" lon="2.80404">
        <ele>1051.5999755859</ele>
        <time>2013-09-21T14:41:30Z</time>
      </trkpt>
      <trkpt lat="45.64549" lon="2.80409">
        <ele>1052.1999511719</ele>
        <time>2013-09-21T14:41:36Z</time>
      </trkpt>
      <trkpt lat="45.64548" lon="2.8041">
        <ele>1052.5999755859</ele>
        <time>2013-09-21T14:41:37Z</time>
      </trkpt>
      <trkpt lat="45.64539" lon="2.80416">
        <ele>1053.8000488281</ele>
        <time>2013-09-21T14:41:43Z</time>
      </trkpt>
      <trkpt lat="45.6453" lon="2.80421">
        <ele>1053.8000488281</ele>
        <time>2013-09-21T14:41:49Z</time>
      </trkpt>
      <trkpt lat="45.64513" lon="2.80425">
        <ele>1054.1999511719</ele>
        <time>2013-09-21T14:42:00Z</time>
      </trkpt>
      <trkpt lat="45.64509" lon="2.80426">
        <ele>1055</ele>
        <time>2013-09-21T14:42:02Z</time>
      </trkpt>
      <trkpt lat="45.64493" lon="2.80428">
        <ele>1055.8000488281</ele>
        <time>2013-09-21T14:42:11Z</time>
      </trkpt>
      <trkpt lat="45.64481" lon="2.80431">
        <ele>1055.8000488281</ele>
        <time>2013-09-21T14:42:18Z</time>
      </trkpt>
      <trkpt lat="45.64476" lon="2.80431">
        <ele>1056.1999511719</ele>
        <time>2013-09-21T14:42:21Z</time>
      </trkpt>
      <trkpt lat="45.6447" lon="2.8043">
        <ele>1058</ele>
        <time>2013-09-21T14:42:25Z</time>
      </trkpt>
      <trkpt lat="45.64458" lon="2.80427">
        <ele>1058.4000244141</ele>
        <time>2013-09-21T14:42:32Z</time>
      </trkpt>
      <trkpt lat="45.64446" lon="2.8042">
        <ele>1060.4000244141</ele>
        <time>2013-09-21T14:42:40Z</time>
      </trkpt>
      <trkpt lat="45.64445" lon="2.80419">
        <ele>1060.8000488281</ele>
        <time>2013-09-21T14:42:41Z</time>
      </trkpt>
      <trkpt lat="45.64439" lon="2.80406">
        <ele>1062.4000244141</ele>
        <time>2013-09-21T14:42:47Z</time>
      </trkpt>
      <trkpt lat="45.64432" lon="2.80393">
        <ele>1062.4000244141</ele>
        <time>2013-09-21T14:42:53Z</time>
      </trkpt>
      <trkpt lat="45.6442" lon="2.80382">
        <ele>1062.8000488281</ele>
        <time>2013-09-21T14:43:00Z</time>
      </trkpt>
      <trkpt lat="45.64415" lon="2.8038">
        <ele>1063.8000488281</ele>
        <time>2013-09-21T14:43:02Z</time>
      </trkpt>
      <trkpt lat="45.64405" lon="2.80376">
        <ele>1064.5999755859</ele>
        <time>2013-09-21T14:43:07Z</time>
      </trkpt>
      <trkpt lat="45.64388" lon="2.80372">
        <ele>1064.5999755859</ele>
        <time>2013-09-21T14:43:15Z</time>
      </trkpt>
      <trkpt lat="45.64383" lon="2.8037">
        <ele>1065.4000244141</ele>
        <time>2013-09-21T14:43:17Z</time>
      </trkpt>
      <trkpt lat="45.6438" lon="2.80369">
        <ele>1065.8000488281</ele>
        <time>2013-09-21T14:43:18Z</time>
      </trkpt>
      <trkpt lat="45.64351" lon="2.80359">
        <ele>1066.5999755859</ele>
        <time>2013-09-21T14:43:28Z</time>
      </trkpt>
      <trkpt lat="45.6434" lon="2.80357">
        <ele>1067</ele>
        <time>2013-09-21T14:43:32Z</time>
      </trkpt>
      <trkpt lat="45.64338" lon="2.80357">
        <ele>1067.4000244141</ele>
        <time>2013-09-21T14:43:33Z</time>
      </trkpt>
      <trkpt lat="45.64319" lon="2.80352">
        <ele>1068.5999755859</ele>
        <time>2013-09-21T14:43:41Z</time>
      </trkpt>
      <trkpt lat="45.64308" lon="2.8035">
        <ele>1068.5999755859</ele>
        <time>2013-09-21T14:43:46Z</time>
      </trkpt>
      <trkpt lat="45.64299" lon="2.80348">
        <ele>1070</ele>
        <time>2013-09-21T14:43:50Z</time>
      </trkpt>
      <trkpt lat="45.64272" lon="2.80346">
        <ele>1070.8000488281</ele>
        <time>2013-09-21T14:44:01Z</time>
      </trkpt>
      <trkpt lat="45.64264" lon="2.80346">
        <ele>1071.4000244141</ele>
        <time>2013-09-21T14:44:04Z</time>
      </trkpt>
      <trkpt lat="45.6426" lon="2.80348">
        <ele>1072.1999511719</ele>
        <time>2013-09-21T14:44:06Z</time>
      </trkpt>
      <trkpt lat="45.6424" lon="2.80347">
        <ele>1073.1999511719</ele>
        <time>2013-09-21T14:44:15Z</time>
      </trkpt>
      <trkpt lat="45.64234" lon="2.80349">
        <ele>1073.5999755859</ele>
        <time>2013-09-21T14:44:18Z</time>
      </trkpt>
      <trkpt lat="45.64228" lon="2.80348">
        <ele>1074.4000244141</ele>
        <time>2013-09-21T14:44:20Z</time>
      </trkpt>
      <trkpt lat="45.64199" lon="2.8035">
        <ele>1075.1999511719</ele>
        <time>2013-09-21T14:44:28Z</time>
      </trkpt>
      <trkpt lat="45.64181" lon="2.80349">
        <ele>1075.1999511719</ele>
        <time>2013-09-21T14:44:34Z</time>
      </trkpt>
      <trkpt lat="45.64178" lon="2.80349">
        <ele>1075.5999755859</ele>
        <time>2013-09-21T14:44:35Z</time>
      </trkpt>
      <trkpt lat="45.64166" lon="2.80352">
        <ele>1077.1999511719</ele>
        <time>2013-09-21T14:44:41Z</time>
      </trkpt>
      <trkpt lat="45.64149" lon="2.80352">
        <ele>1077.1999511719</ele>
        <time>2013-09-21T14:44:48Z</time>
      </trkpt>
      <trkpt lat="45.64135" lon="2.80353">
        <ele>1077.5999755859</ele>
        <time>2013-09-21T14:44:54Z</time>
      </trkpt>
      <trkpt lat="45.6413" lon="2.80354">
        <ele>1078.5999755859</ele>
        <time>2013-09-21T14:44:56Z</time>
      </trkpt>
      <trkpt lat="45.64106" lon="2.80357">
        <ele>1079.8000488281</ele>
        <time>2013-09-21T14:45:03Z</time>
      </trkpt>
      <trkpt lat="45.641" lon="2.80358">
        <ele>1081</ele>
        <time>2013-09-21T14:45:06Z</time>
      </trkpt>
      <trkpt lat="45.6409" lon="2.80358">
        <ele>1081.4000244141</ele>
        <time>2013-09-21T14:45:09Z</time>
      </trkpt>
      <trkpt lat="45.64069" lon="2.80364">
        <ele>1081.4000244141</ele>
        <time>2013-09-21T14:45:17Z</time>
      </trkpt>
      <trkpt lat="45.64058" lon="2.8037">
        <ele>1083</ele>
        <time>2013-09-21T14:45:22Z</time>
      </trkpt>
      <trkpt lat="45.64057" lon="2.80371">
        <ele>1083.5999755859</ele>
        <time>2013-09-21T14:45:23Z</time>
      </trkpt>
      <trkpt lat="45.6403" lon="2.80385">
        <ele>1083.5999755859</ele>
        <time>2013-09-21T14:45:33Z</time>
      </trkpt>
      <trkpt lat="45.6402" lon="2.80391">
        <ele>1084</ele>
        <time>2013-09-21T14:45:38Z</time>
      </trkpt>
      <trkpt lat="45.64004" lon="2.80402">
        <ele>1085.5999755859</ele>
        <time>2013-09-21T14:45:47Z</time>
      </trkpt>
      <trkpt lat="45.63992" lon="2.80409">
        <ele>1085.5999755859</ele>
        <time>2013-09-21T14:45:53Z</time>
      </trkpt>
      <trkpt lat="45.6399" lon="2.80411">
        <ele>1086</ele>
        <time>2013-09-21T14:45:54Z</time>
      </trkpt>
      <trkpt lat="45.63988" lon="2.80413">
        <ele>1086.4000244141</ele>
        <time>2013-09-21T14:45:55Z</time>
      </trkpt>
      <trkpt lat="45.63971" lon="2.8043">
        <ele>1087.8000488281</ele>
        <time>2013-09-21T14:46:02Z</time>
      </trkpt>
      <trkpt lat="45.63952" lon="2.80452">
        <ele>1087.8000488281</ele>
        <time>2013-09-21T14:46:12Z</time>
      </trkpt>
      <trkpt lat="45.6395" lon="2.80457">
        <ele>1088.5999755859</ele>
        <time>2013-09-21T14:46:14Z</time>
      </trkpt>
      <trkpt lat="45.63948" lon="2.80461">
        <ele>1089.5999755859</ele>
        <time>2013-09-21T14:46:16Z</time>
      </trkpt>
      <trkpt lat="45.63942" lon="2.80473">
        <ele>1090.1999511719</ele>
        <time>2013-09-21T14:46:22Z</time>
      </trkpt>
      <trkpt lat="45.63927" lon="2.80489">
        <ele>1090.1999511719</ele>
        <time>2013-09-21T14:46:30Z</time>
      </trkpt>
      <trkpt lat="45.63919" lon="2.80495">
        <ele>1090.1999511719</ele>
        <time>2013-09-21T14:46:32Z</time>
      </trkpt>
      <trkpt lat="45.63905" lon="2.805">
        <ele>1090.5999755859</ele>
        <time>2013-09-21T14:46:38Z</time>
      </trkpt>
      <trkpt lat="45.63899" lon="2.80502">
        <ele>1092.5999755859</ele>
        <time>2013-09-21T14:46:42Z</time>
      </trkpt>
      <trkpt lat="45.63889" lon="2.80506">
        <ele>1092.5999755859</ele>
        <time>2013-09-21T14:46:49Z</time>
      </trkpt>
      <trkpt lat="45.63876" lon="2.80515">
        <ele>1092.5999755859</ele>
        <time>2013-09-21T14:46:56Z</time>
      </trkpt>
      <trkpt lat="45.63872" lon="2.80521">
        <ele>1093.4000244141</ele>
        <time>2013-09-21T14:46:59Z</time>
      </trkpt>
      <trkpt lat="45.63868" lon="2.8053">
        <ele>1094.8000488281</ele>
        <time>2013-09-21T14:47:02Z</time>
      </trkpt>
      <trkpt lat="45.63842" lon="2.8055">
        <ele>1095.1999511719</ele>
        <time>2013-09-21T14:47:13Z</time>
      </trkpt>
      <trkpt lat="45.63839" lon="2.80551">
        <ele>1095.5999755859</ele>
        <time>2013-09-21T14:47:14Z</time>
      </trkpt>
      <trkpt lat="45.63824" lon="2.80558">
        <ele>1096.8000488281</ele>
        <time>2013-09-21T14:47:21Z</time>
      </trkpt>
      <trkpt lat="45.63808" lon="2.80559">
        <ele>1096.8000488281</ele>
        <time>2013-09-21T14:47:27Z</time>
      </trkpt>
      <trkpt lat="45.63799" lon="2.80558">
        <ele>1097.8000488281</ele>
        <time>2013-09-21T14:47:33Z</time>
      </trkpt>
      <trkpt lat="45.63784" lon="2.80559">
        <ele>1099</ele>
        <time>2013-09-21T14:47:42Z</time>
      </trkpt>
      <trkpt lat="45.63771" lon="2.80563">
        <ele>1099.4000244141</ele>
        <time>2013-09-21T14:47:48Z</time>
      </trkpt>
      <trkpt lat="45.6377" lon="2.80563">
        <ele>1100</ele>
        <time>2013-09-21T14:47:49Z</time>
      </trkpt>
      <trkpt lat="45.63753" lon="2.80577">
        <ele>1101.1999511719</ele>
        <time>2013-09-21T14:47:57Z</time>
      </trkpt>
      <trkpt lat="45.63742" lon="2.806">
        <ele>1101.5999755859</ele>
        <time>2013-09-21T14:48:04Z</time>
      </trkpt>
      <trkpt lat="45.63742" lon="2.80605">
        <ele>1102</ele>
        <time>2013-09-21T14:48:05Z</time>
      </trkpt>
      <trkpt lat="45.6374" lon="2.80609">
        <ele>1102.4000244141</ele>
        <time>2013-09-21T14:48:06Z</time>
      </trkpt>
      <trkpt lat="45.63739" lon="2.80613">
        <ele>1102.8000488281</ele>
        <time>2013-09-21T14:48:07Z</time>
      </trkpt>
      <trkpt lat="45.63735" lon="2.80622">
        <ele>1103.4000244141</ele>
        <time>2013-09-21T14:48:10Z</time>
      </trkpt>
      <trkpt lat="45.63727" lon="2.80637">
        <ele>1103.4000244141</ele>
        <time>2013-09-21T14:48:15Z</time>
      </trkpt>
      <trkpt lat="45.63725" lon="2.80642">
        <ele>1103.8000488281</ele>
        <time>2013-09-21T14:48:17Z</time>
      </trkpt>
      <trkpt lat="45.63721" lon="2.8065">
        <ele>1105</ele>
        <time>2013-09-21T14:48:20Z</time>
      </trkpt>
      <trkpt lat="45.6372" lon="2.80653">
        <ele>1105.4000244141</ele>
        <time>2013-09-21T14:48:21Z</time>
      </trkpt>
      <trkpt lat="45.63705" lon="2.80671">
        <ele>1105.4000244141</ele>
        <time>2013-09-21T14:48:30Z</time>
      </trkpt>
      <trkpt lat="45.637" lon="2.80674">
        <ele>1106.1999511719</ele>
        <time>2013-09-21T14:48:34Z</time>
      </trkpt>
      <trkpt lat="45.63681" lon="2.80676">
        <ele>1107.5999755859</ele>
        <time>2013-09-21T14:48:44Z</time>
      </trkpt>
      <trkpt lat="45.63666" lon="2.80681">
        <ele>1107.5999755859</ele>
        <time>2013-09-21T14:48:50Z</time>
      </trkpt>
      <trkpt lat="45.63659" lon="2.80685">
        <ele>1109.1999511719</ele>
        <time>2013-09-21T14:48:55Z</time>
      </trkpt>
      <trkpt lat="45.63632" lon="2.80692">
        <ele>1110.1999511719</ele>
        <time>2013-09-21T14:49:08Z</time>
      </trkpt>
      <trkpt lat="45.63629" lon="2.80693">
        <ele>1110.5999755859</ele>
        <time>2013-09-21T14:49:09Z</time>
      </trkpt>
      <trkpt lat="45.63617" lon="2.80698">
        <ele>1112</ele>
        <time>2013-09-21T14:49:12Z</time>
      </trkpt>
      <trkpt lat="45.636" lon="2.80703">
        <ele>1112</ele>
        <time>2013-09-21T14:49:19Z</time>
      </trkpt>
      <trkpt lat="45.63588" lon="2.80709">
        <ele>1112.4000244141</ele>
        <time>2013-09-21T14:49:26Z</time>
      </trkpt>
      <trkpt lat="45.63586" lon="2.8071">
        <ele>1112.8000488281</ele>
        <time>2013-09-21T14:49:27Z</time>
      </trkpt>
      <trkpt lat="45.63566" lon="2.80717">
        <ele>1114</ele>
        <time>2013-09-21T14:49:35Z</time>
      </trkpt>
      <trkpt lat="45.6356" lon="2.80719">
        <ele>1114.4000244141</ele>
        <time>2013-09-21T14:49:37Z</time>
      </trkpt>
      <trkpt lat="45.63557" lon="2.8072">
        <ele>1114.8000488281</ele>
        <time>2013-09-21T14:49:38Z</time>
      </trkpt>
      <trkpt lat="45.63549" lon="2.80725">
        <ele>1116</ele>
        <time>2013-09-21T14:49:41Z</time>
      </trkpt>
      <trkpt lat="45.6353" lon="2.80731">
        <ele>1116</ele>
        <time>2013-09-21T14:49:48Z</time>
      </trkpt>
      <trkpt lat="45.63514" lon="2.80737">
        <ele>1116.4000244141</ele>
        <time>2013-09-21T14:49:53Z</time>
      </trkpt>
      <trkpt lat="45.63509" lon="2.80738">
        <ele>1117</ele>
        <time>2013-09-21T14:49:54Z</time>
      </trkpt>
      <trkpt lat="45.63501" lon="2.80741">
        <ele>1117.8000488281</ele>
        <time>2013-09-21T14:49:56Z</time>
      </trkpt>
      <trkpt lat="45.63498" lon="2.80742">
        <ele>1118.1999511719</ele>
        <time>2013-09-21T14:49:57Z</time>
      </trkpt>
      <trkpt lat="45.63482" lon="2.80747">
        <ele>1118.1999511719</ele>
        <time>2013-09-21T14:50:01Z</time>
      </trkpt>
      <trkpt lat="45.63455" lon="2.80759">
        <ele>1118.1999511719</ele>
        <time>2013-09-21T14:50:08Z</time>
      </trkpt>
      <trkpt lat="45.63427" lon="2.80773">
        <ele>1118.1999511719</ele>
        <time>2013-09-21T14:50:14Z</time>
      </trkpt>
      <trkpt lat="45.63398" lon="2.80788">
        <ele>1117.8000488281</ele>
        <time>2013-09-21T14:50:19Z</time>
      </trkpt>
      <trkpt lat="45.63392" lon="2.80791">
        <ele>1117.1999511719</ele>
        <time>2013-09-21T14:50:20Z</time>
      </trkpt>
      <trkpt lat="45.63386" lon="2.80795">
        <ele>1116.8000488281</ele>
        <time>2013-09-21T14:50:21Z</time>
      </trkpt>
      <trkpt lat="45.6338" lon="2.80798">
        <ele>1116.4000244141</ele>
        <time>2013-09-21T14:50:22Z</time>
      </trkpt>
      <trkpt lat="45.63374" lon="2.808">
        <ele>1116</ele>
        <time>2013-09-21T14:50:23Z</time>
      </trkpt>
      <trkpt lat="45.63359" lon="2.80806">
        <ele>1115.5999755859</ele>
        <time>2013-09-21T14:50:25Z</time>
      </trkpt>
      <trkpt lat="45.63346" lon="2.80813">
        <ele>1114.8000488281</ele>
        <time>2013-09-21T14:50:27Z</time>
      </trkpt>
      <trkpt lat="45.63339" lon="2.80816">
        <ele>1114.4000244141</ele>
        <time>2013-09-21T14:50:28Z</time>
      </trkpt>
      <trkpt lat="45.63331" lon="2.80821">
        <ele>1114</ele>
        <time>2013-09-21T14:50:29Z</time>
      </trkpt>
      <trkpt lat="45.63307" lon="2.80832">
        <ele>1113.4000244141</ele>
        <time>2013-09-21T14:50:32Z</time>
      </trkpt>
      <trkpt lat="45.63298" lon="2.80835">
        <ele>1113</ele>
        <time>2013-09-21T14:50:33Z</time>
      </trkpt>
      <trkpt lat="45.63281" lon="2.80842">
        <ele>1112</ele>
        <time>2013-09-21T14:50:35Z</time>
      </trkpt>
      <trkpt lat="45.63273" lon="2.80846">
        <ele>1111.4000244141</ele>
        <time>2013-09-21T14:50:36Z</time>
      </trkpt>
      <trkpt lat="45.63265" lon="2.8085">
        <ele>1111</ele>
        <time>2013-09-21T14:50:37Z</time>
      </trkpt>
      <trkpt lat="45.63258" lon="2.80855">
        <ele>1110.5999755859</ele>
        <time>2013-09-21T14:50:38Z</time>
      </trkpt>
      <trkpt lat="45.6325" lon="2.8086">
        <ele>1110.1999511719</ele>
        <time>2013-09-21T14:50:39Z</time>
      </trkpt>
      <trkpt lat="45.63242" lon="2.80864">
        <ele>1109.8000488281</ele>
        <time>2013-09-21T14:50:40Z</time>
      </trkpt>
      <trkpt lat="45.63232" lon="2.80868">
        <ele>1109.4000244141</ele>
        <time>2013-09-21T14:50:41Z</time>
      </trkpt>
      <trkpt lat="45.63213" lon="2.80877">
        <ele>1109.4000244141</ele>
        <time>2013-09-21T14:50:43Z</time>
      </trkpt>
      <trkpt lat="45.63187" lon="2.80889">
        <ele>1109</ele>
        <time>2013-09-21T14:50:46Z</time>
      </trkpt>
      <trkpt lat="45.63179" lon="2.80892">
        <ele>1108.5999755859</ele>
        <time>2013-09-21T14:50:47Z</time>
      </trkpt>
      <trkpt lat="45.63163" lon="2.80899">
        <ele>1107.8000488281</ele>
        <time>2013-09-21T14:50:49Z</time>
      </trkpt>
      <trkpt lat="45.63157" lon="2.80902">
        <ele>1107.4000244141</ele>
        <time>2013-09-21T14:50:50Z</time>
      </trkpt>
      <trkpt lat="45.63111" lon="2.80923">
        <ele>1107.4000244141</ele>
        <time>2013-09-21T14:50:56Z</time>
      </trkpt>
      <trkpt lat="45.63088" lon="2.80933">
        <ele>1107</ele>
        <time>2013-09-21T14:50:59Z</time>
      </trkpt>
      <trkpt lat="45.63074" lon="2.80939">
        <ele>1106.1999511719</ele>
        <time>2013-09-21T14:51:01Z</time>
      </trkpt>
      <trkpt lat="45.63068" lon="2.80942">
        <ele>1105.8000488281</ele>
        <time>2013-09-21T14:51:02Z</time>
      </trkpt>
      <trkpt lat="45.63056" lon="2.80947">
        <ele>1105.4000244141</ele>
        <time>2013-09-21T14:51:04Z</time>
      </trkpt>
      <trkpt lat="45.6301" lon="2.80965">
        <ele>1105.4000244141</ele>
        <time>2013-09-21T14:51:12Z</time>
      </trkpt>
      <trkpt lat="45.63002" lon="2.80967">
        <ele>1105.4000244141</ele>
        <time>2013-09-21T14:51:14Z</time>
      </trkpt>
      <trkpt lat="45.62999" lon="2.80965">
        <ele>1105.4000244141</ele>
        <time>2013-09-21T14:51:15Z</time>
      </trkpt>
      <trkpt lat="45.62991" lon="2.80955">
        <ele>1105.4000244141</ele>
        <time>2013-09-21T14:51:18Z</time>
      </trkpt>
      <trkpt lat="45.62988" lon="2.80952">
        <ele>1105.4000244141</ele>
        <time>2013-09-21T14:51:19Z</time>
      </trkpt>
      <trkpt lat="45.62984" lon="2.80949">
        <ele>1105.8000488281</ele>
        <time>2013-09-21T14:51:21Z</time>
      </trkpt>
      <trkpt lat="45.62979" lon="2.80949">
        <ele>1107</ele>
        <time>2013-09-21T14:51:24Z</time>
      </trkpt>
      <trkpt lat="45.62972" lon="2.8095">
        <ele>1107.8000488281</ele>
        <time>2013-09-21T14:51:29Z</time>
      </trkpt>
      <trkpt lat="45.6297" lon="2.80951">
        <ele>1108.4000244141</ele>
        <time>2013-09-21T14:51:30Z</time>
      </trkpt>
      <trkpt lat="45.62956" lon="2.80956">
        <ele>1110.1999511719</ele>
        <time>2013-09-21T14:51:40Z</time>
      </trkpt>
      <trkpt lat="45.62952" lon="2.8096">
        <ele>1111</ele>
        <time>2013-09-21T14:51:42Z</time>
      </trkpt>
      <trkpt lat="45.62949" lon="2.80963">
        <ele>1111.8000488281</ele>
        <time>2013-09-21T14:51:44Z</time>
      </trkpt>
      <trkpt lat="45.62938" lon="2.8097">
        <ele>1111.8000488281</ele>
        <time>2013-09-21T14:51:51Z</time>
      </trkpt>
      <trkpt lat="45.62925" lon="2.80978">
        <ele>1112.1999511719</ele>
        <time>2013-09-21T14:51:58Z</time>
      </trkpt>
      <trkpt lat="45.62922" lon="2.80981">
        <ele>1113</ele>
        <time>2013-09-21T14:52:00Z</time>
      </trkpt>
      <trkpt lat="45.62919" lon="2.80983">
        <ele>1113.8000488281</ele>
        <time>2013-09-21T14:52:02Z</time>
      </trkpt>
      <trkpt lat="45.62908" lon="2.80992">
        <ele>1113.8000488281</ele>
        <time>2013-09-21T14:52:09Z</time>
      </trkpt>
      <trkpt lat="45.62896" lon="2.81009">
        <ele>1113.8000488281</ele>
        <time>2013-09-21T14:52:17Z</time>
      </trkpt>
      <trkpt lat="45.62886" lon="2.81023">
        <ele>1113.8000488281</ele>
        <time>2013-09-21T14:52:23Z</time>
      </trkpt>
      <trkpt lat="45.62878" lon="2.81037">
        <ele>1114.1999511719</ele>
        <time>2013-09-21T14:52:29Z</time>
      </trkpt>
      <trkpt lat="45.62875" lon="2.81041">
        <ele>1115</ele>
        <time>2013-09-21T14:52:31Z</time>
      </trkpt>
      <trkpt lat="45.62865" lon="2.81057">
        <ele>1116</ele>
        <time>2013-09-21T14:52:40Z</time>
      </trkpt>
      <trkpt lat="45.62862" lon="2.81071">
        <ele>1116.4000244141</ele>
        <time>2013-09-21T14:52:46Z</time>
      </trkpt>
      <trkpt lat="45.62859" lon="2.81076">
        <ele>1117.5999755859</ele>
        <time>2013-09-21T14:52:49Z</time>
      </trkpt>
      <trkpt lat="45.62854" lon="2.81086">
        <ele>1118</ele>
        <time>2013-09-21T14:52:55Z</time>
      </trkpt>
      <trkpt lat="45.6285" lon="2.81093">
        <ele>1118.4000244141</ele>
        <time>2013-09-21T14:52:59Z</time>
      </trkpt>
      <trkpt lat="45.62849" lon="2.81094">
        <ele>1118.8000488281</ele>
        <time>2013-09-21T14:53:00Z</time>
      </trkpt>
      <trkpt lat="45.62837" lon="2.8111">
        <ele>1120</ele>
        <time>2013-09-21T14:53:11Z</time>
      </trkpt>
      <trkpt lat="45.6283" lon="2.81117">
        <ele>1120.4000244141</ele>
        <time>2013-09-21T14:53:17Z</time>
      </trkpt>
      <trkpt lat="45.62828" lon="2.8112">
        <ele>1121.8000488281</ele>
        <time>2013-09-21T14:53:20Z</time>
      </trkpt>
      <trkpt lat="45.62823" lon="2.81132">
        <ele>1122.8000488281</ele>
        <time>2013-09-21T14:53:30Z</time>
      </trkpt>
      <trkpt lat="45.62821" lon="2.81151">
        <ele>1124.8000488281</ele>
        <time>2013-09-21T14:53:42Z</time>
      </trkpt>
      <trkpt lat="45.62819" lon="2.8116">
        <ele>1126.5999755859</ele>
        <time>2013-09-21T14:53:46Z</time>
      </trkpt>
      <trkpt lat="45.62816" lon="2.81169">
        <ele>1126.5999755859</ele>
        <time>2013-09-21T14:53:52Z</time>
      </trkpt>
      <trkpt lat="45.62812" lon="2.81171">
        <ele>1127</ele>
        <time>2013-09-21T14:53:56Z</time>
      </trkpt>
      <trkpt lat="45.62809" lon="2.81174">
        <ele>1128.1999511719</ele>
        <time>2013-09-21T14:53:59Z</time>
      </trkpt>
      <trkpt lat="45.62808" lon="2.81182">
        <ele>1129</ele>
        <time>2013-09-21T14:54:03Z</time>
      </trkpt>
      <trkpt lat="45.62804" lon="2.81201">
        <ele>1131</ele>
        <time>2013-09-21T14:54:15Z</time>
      </trkpt>
      <trkpt lat="45.62805" lon="2.81212">
        <ele>1132.8000488281</ele>
        <time>2013-09-21T14:54:19Z</time>
      </trkpt>
      <trkpt lat="45.62802" lon="2.81227">
        <ele>1133.1999511719</ele>
        <time>2013-09-21T14:54:30Z</time>
      </trkpt>
      <trkpt lat="45.62802" lon="2.8123">
        <ele>1134</ele>
        <time>2013-09-21T14:54:32Z</time>
      </trkpt>
      <trkpt lat="45.62794" lon="2.81248">
        <ele>1134.8000488281</ele>
        <time>2013-09-21T14:54:45Z</time>
      </trkpt>
      <trkpt lat="45.62786" lon="2.81263">
        <ele>1135.1999511719</ele>
        <time>2013-09-21T14:54:55Z</time>
      </trkpt>
      <trkpt lat="45.62783" lon="2.81271">
        <ele>1137</ele>
        <time>2013-09-21T14:54:59Z</time>
      </trkpt>
      <trkpt lat="45.62775" lon="2.81283">
        <ele>1137</ele>
        <time>2013-09-21T14:55:13Z</time>
      </trkpt>
      <trkpt lat="45.62769" lon="2.8129">
        <ele>1138</ele>
        <time>2013-09-21T14:55:19Z</time>
      </trkpt>
      <trkpt lat="45.6277" lon="2.81303">
        <ele>1139.8000488281</ele>
        <time>2013-09-21T14:55:28Z</time>
      </trkpt>
      <trkpt lat="45.62781" lon="2.81312">
        <ele>1141.8000488281</ele>
        <time>2013-09-21T14:55:39Z</time>
      </trkpt>
      <trkpt lat="45.62791" lon="2.81316">
        <ele>1144</ele>
        <time>2013-09-21T14:55:50Z</time>
      </trkpt>
      <trkpt lat="45.62805" lon="2.81323">
        <ele>1145.5999755859</ele>
        <time>2013-09-21T14:55:59Z</time>
      </trkpt>
      <trkpt lat="45.62812" lon="2.81339">
        <ele>1146</ele>
        <time>2013-09-21T14:56:10Z</time>
      </trkpt>
      <trkpt lat="45.62812" lon="2.81341">
        <ele>1146.5999755859</ele>
        <time>2013-09-21T14:56:11Z</time>
      </trkpt>
      <trkpt lat="45.62809" lon="2.81352">
        <ele>1147.4000244141</ele>
        <time>2013-09-21T14:56:18Z</time>
      </trkpt>
      <trkpt lat="45.62801" lon="2.81362">
        <ele>1148.5999755859</ele>
        <time>2013-09-21T14:56:30Z</time>
      </trkpt>
      <trkpt lat="45.628" lon="2.81363">
        <ele>1149.4000244141</ele>
        <time>2013-09-21T14:56:32Z</time>
      </trkpt>
      <trkpt lat="45.62795" lon="2.81371">
        <ele>1152</ele>
        <time>2013-09-21T14:56:43Z</time>
      </trkpt>
      <trkpt lat="45.62786" lon="2.81381">
        <ele>1152.5999755859</ele>
        <time>2013-09-21T14:56:56Z</time>
      </trkpt>
      <trkpt lat="45.62777" lon="2.81379">
        <ele>1155.1999511719</ele>
        <time>2013-09-21T14:57:07Z</time>
      </trkpt>
      <trkpt lat="45.62769" lon="2.81374">
        <ele>1158</ele>
        <time>2013-09-21T14:57:15Z</time>
      </trkpt>
      <trkpt lat="45.6276" lon="2.8137">
        <ele>1160</ele>
        <time>2013-09-21T14:57:27Z</time>
      </trkpt>
      <trkpt lat="45.6276" lon="2.81369">
        <ele>1160.5999755859</ele>
        <time>2013-09-21T14:57:28Z</time>
      </trkpt>
      <trkpt lat="45.62746" lon="2.81362">
        <ele>1161.4000244141</ele>
        <time>2013-09-21T14:57:42Z</time>
      </trkpt>
      <trkpt lat="45.6274" lon="2.81361">
        <ele>1163</ele>
        <time>2013-09-21T14:57:46Z</time>
      </trkpt>
      <trkpt lat="45.6273" lon="2.8136">
        <ele>1164.4000244141</ele>
        <time>2013-09-21T14:57:57Z</time>
      </trkpt>
      <trkpt lat="45.62729" lon="2.81359">
        <ele>1164.8000488281</ele>
        <time>2013-09-21T14:57:58Z</time>
      </trkpt>
      <trkpt lat="45.6272" lon="2.81357">
        <ele>1167.1999511719</ele>
        <time>2013-09-21T14:58:12Z</time>
      </trkpt>
      <trkpt lat="45.62708" lon="2.81357">
        <ele>1169.5999755859</ele>
        <time>2013-09-21T14:58:30Z</time>
      </trkpt>
      <trkpt lat="45.62693" lon="2.81357">
        <ele>1171.8000488281</ele>
        <time>2013-09-21T14:58:46Z</time>
      </trkpt>
      <trkpt lat="45.6269" lon="2.81356">
        <ele>1173</ele>
        <time>2013-09-21T14:58:51Z</time>
      </trkpt>
      <trkpt lat="45.62674" lon="2.81355">
        <ele>1176.4000244141</ele>
        <time>2013-09-21T14:59:13Z</time>
      </trkpt>
      <trkpt lat="45.62658" lon="2.8135">
        <ele>1178</ele>
        <time>2013-09-21T14:59:31Z</time>
      </trkpt>
      <trkpt lat="45.62656" lon="2.81349">
        <ele>1178.4000244141</ele>
        <time>2013-09-21T14:59:33Z</time>
      </trkpt>
      <trkpt lat="45.6265" lon="2.8135">
        <ele>1180.4000244141</ele>
        <time>2013-09-21T14:59:41Z</time>
      </trkpt>
      <trkpt lat="45.62648" lon="2.8135">
        <ele>1180.4000244141</ele>
        <time>2013-09-21T14:59:43Z</time>
      </trkpt>
      <trkpt lat="45.6264" lon="2.8135">
        <ele>1181.5999755859</ele>
        <time>2013-09-21T14:59:53Z</time>
      </trkpt>
      <trkpt lat="45.62627" lon="2.81352">
        <ele>1182.4000244141</ele>
        <time>2013-09-21T15:00:04Z</time>
      </trkpt>
      <trkpt lat="45.62613" lon="2.81356">
        <ele>1185</ele>
        <time>2013-09-21T15:00:18Z</time>
      </trkpt>
      <trkpt lat="45.6261" lon="2.81357">
        <ele>1186.4000244141</ele>
        <time>2013-09-21T15:00:21Z</time>
      </trkpt>
      <trkpt lat="45.626" lon="2.81364">
        <ele>1186.8000488281</ele>
        <time>2013-09-21T15:00:33Z</time>
      </trkpt>
      <trkpt lat="45.62598" lon="2.81369">
        <ele>1187.1999511719</ele>
        <time>2013-09-21T15:00:39Z</time>
      </trkpt>
      <trkpt lat="45.62598" lon="2.8137">
        <ele>1188.4000244141</ele>
        <time>2013-09-21T15:00:42Z</time>
      </trkpt>
      <trkpt lat="45.62592" lon="2.81383">
        <ele>1188.8000488281</ele>
        <time>2013-09-21T15:00:54Z</time>
      </trkpt>
      <trkpt lat="45.62592" lon="2.81402">
        <ele>1189.4000244141</ele>
        <time>2013-09-21T15:01:03Z</time>
      </trkpt>
      <trkpt lat="45.62591" lon="2.81423">
        <ele>1191.8000488281</ele>
        <time>2013-09-21T15:01:18Z</time>
      </trkpt>
      <trkpt lat="45.62601" lon="2.81435">
        <ele>1194.1999511719</ele>
        <time>2013-09-21T15:01:28Z</time>
      </trkpt>
      <trkpt lat="45.62613" lon="2.81453">
        <ele>1196.4000244141</ele>
        <time>2013-09-21T15:01:43Z</time>
      </trkpt>
      <trkpt lat="45.62625" lon="2.81465">
        <ele>1198.1999511719</ele>
        <time>2013-09-21T15:01:55Z</time>
      </trkpt>
      <trkpt lat="45.62626" lon="2.8147">
        <ele>1199</ele>
        <time>2013-09-21T15:01:59Z</time>
      </trkpt>
      <trkpt lat="45.62636" lon="2.81488">
        <ele>1200.5999755859</ele>
        <time>2013-09-21T15:02:11Z</time>
      </trkpt>
      <trkpt lat="45.62638" lon="2.81491">
        <ele>1201.4000244141</ele>
        <time>2013-09-21T15:02:13Z</time>
      </trkpt>
      <trkpt lat="45.62629" lon="2.81496">
        <ele>1204.8000488281</ele>
        <time>2013-09-21T15:02:34Z</time>
      </trkpt>
      <trkpt lat="45.6262" lon="2.81494">
        <ele>1207.8000488281</ele>
        <time>2013-09-21T15:02:46Z</time>
      </trkpt>
      <trkpt lat="45.62609" lon="2.81492">
        <ele>1208.8000488281</ele>
        <time>2013-09-21T15:02:59Z</time>
      </trkpt>
      <trkpt lat="45.62597" lon="2.81487">
        <ele>1211</ele>
        <time>2013-09-21T15:03:14Z</time>
      </trkpt>
      <trkpt lat="45.62586" lon="2.8148">
        <ele>1213.5999755859</ele>
        <time>2013-09-21T15:03:33Z</time>
      </trkpt>
      <trkpt lat="45.62579" lon="2.81477">
        <ele>1215.4000244141</ele>
        <time>2013-09-21T15:03:42Z</time>
      </trkpt>
      <trkpt lat="45.62571" lon="2.8147">
        <ele>1217.5999755859</ele>
        <time>2013-09-21T15:03:57Z</time>
      </trkpt>
      <trkpt lat="45.62565" lon="2.81468">
        <ele>1218</ele>
        <time>2013-09-21T15:04:05Z</time>
      </trkpt>
      <trkpt lat="45.62558" lon="2.81466">
        <ele>1219.8000488281</ele>
        <time>2013-09-21T15:04:16Z</time>
      </trkpt>
      <trkpt lat="45.62545" lon="2.81467">
        <ele>1222.1999511719</ele>
        <time>2013-09-21T15:04:38Z</time>
      </trkpt>
      <trkpt lat="45.62536" lon="2.8147">
        <ele>1224.1999511719</ele>
        <time>2013-09-21T15:04:54Z</time>
      </trkpt>
      <trkpt lat="45.62526" lon="2.81475">
        <ele>1227.8000488281</ele>
        <time>2013-09-21T15:05:15Z</time>
      </trkpt>
      <trkpt lat="45.62518" lon="2.81481">
        <ele>1230</ele>
        <time>2013-09-21T15:05:29Z</time>
      </trkpt>
      <trkpt lat="45.62508" lon="2.81483">
        <ele>1232</ele>
        <time>2013-09-21T15:05:43Z</time>
      </trkpt>
      <trkpt lat="45.62496" lon="2.81488">
        <ele>1234.5999755859</ele>
        <time>2013-09-21T15:05:57Z</time>
      </trkpt>
      <trkpt lat="45.62481" lon="2.81493">
        <ele>1236.8000488281</ele>
        <time>2013-09-21T15:06:14Z</time>
      </trkpt>
      <trkpt lat="45.62479" lon="2.81494">
        <ele>1237.1999511719</ele>
        <time>2013-09-21T15:06:15Z</time>
      </trkpt>
      <trkpt lat="45.62468" lon="2.815">
        <ele>1240.5999755859</ele>
        <time>2013-09-21T15:06:37Z</time>
      </trkpt>
      <trkpt lat="45.62459" lon="2.81507">
        <ele>1241.4000244141</ele>
        <time>2013-09-21T15:06:44Z</time>
      </trkpt>
      <trkpt lat="45.62454" lon="2.81511">
        <ele>1242.5999755859</ele>
        <time>2013-09-21T15:06:47Z</time>
      </trkpt>
      <trkpt lat="45.62448" lon="2.81512">
        <ele>1242.5999755859</ele>
        <time>2013-09-21T15:06:51Z</time>
      </trkpt>
      <trkpt lat="45.62441" lon="2.8152">
        <ele>1243.5999755859</ele>
        <time>2013-09-21T15:07:01Z</time>
      </trkpt>
      <trkpt lat="45.62439" lon="2.81524">
        <ele>1244.8000488281</ele>
        <time>2013-09-21T15:07:04Z</time>
      </trkpt>
      <trkpt lat="45.62438" lon="2.81539">
        <ele>1244.8000488281</ele>
        <time>2013-09-21T15:07:15Z</time>
      </trkpt>
      <trkpt lat="45.62437" lon="2.81541">
        <ele>1245.4000244141</ele>
        <time>2013-09-21T15:07:16Z</time>
      </trkpt>
      <trkpt lat="45.62433" lon="2.81552">
        <ele>1247</ele>
        <time>2013-09-21T15:07:26Z</time>
      </trkpt>
      <trkpt lat="45.6243" lon="2.8156">
        <ele>1248.8000488281</ele>
        <time>2013-09-21T15:07:32Z</time>
      </trkpt>
      <trkpt lat="45.62429" lon="2.81561">
        <ele>1249.1999511719</ele>
        <time>2013-09-21T15:07:33Z</time>
      </trkpt>
      <trkpt lat="45.62422" lon="2.81572">
        <ele>1249.1999511719</ele>
        <time>2013-09-21T15:07:44Z</time>
      </trkpt>
      <trkpt lat="45.62413" lon="2.81579">
        <ele>1249.8000488281</ele>
        <time>2013-09-21T15:07:51Z</time>
      </trkpt>
      <trkpt lat="45.62411" lon="2.81581">
        <ele>1250.5999755859</ele>
        <time>2013-09-21T15:07:53Z</time>
      </trkpt>
      <trkpt lat="45.6241" lon="2.81583">
        <ele>1251.1999511719</ele>
        <time>2013-09-21T15:07:54Z</time>
      </trkpt>
      <trkpt lat="45.62391" lon="2.81597">
        <ele>1251.5999755859</ele>
        <time>2013-09-21T15:08:08Z</time>
      </trkpt>
      <trkpt lat="45.62376" lon="2.81604">
        <ele>1252</ele>
        <time>2013-09-21T15:08:17Z</time>
      </trkpt>
      <trkpt lat="45.6237" lon="2.81603">
        <ele>1253.1999511719</ele>
        <time>2013-09-21T15:08:20Z</time>
      </trkpt>
      <trkpt lat="45.62358" lon="2.81595">
        <ele>1253.8000488281</ele>
        <time>2013-09-21T15:08:25Z</time>
      </trkpt>
      <trkpt lat="45.62349" lon="2.81592">
        <ele>1255.8000488281</ele>
        <time>2013-09-21T15:08:35Z</time>
      </trkpt>
      <trkpt lat="45.62337" lon="2.81589">
        <ele>1255.8000488281</ele>
        <time>2013-09-21T15:08:44Z</time>
      </trkpt>
      <trkpt lat="45.62325" lon="2.81578">
        <ele>1256.1999511719</ele>
        <time>2013-09-21T15:08:51Z</time>
      </trkpt>
      <trkpt lat="45.6232" lon="2.81574">
        <ele>1257</ele>
        <time>2013-09-21T15:08:53Z</time>
      </trkpt>
      <trkpt lat="45.62309" lon="2.81564">
        <ele>1258</ele>
        <time>2013-09-21T15:09:00Z</time>
      </trkpt>
      <trkpt lat="45.623" lon="2.81554">
        <ele>1258</ele>
        <time>2013-09-21T15:09:06Z</time>
      </trkpt>
      <trkpt lat="45.62289" lon="2.81542">
        <ele>1258</ele>
        <time>2013-09-21T15:09:14Z</time>
      </trkpt>
      <trkpt lat="45.62287" lon="2.81538">
        <ele>1259.1999511719</ele>
        <time>2013-09-21T15:09:16Z</time>
      </trkpt>
      <trkpt lat="45.62278" lon="2.81525">
        <ele>1260</ele>
        <time>2013-09-21T15:09:21Z</time>
      </trkpt>
      <trkpt lat="45.62266" lon="2.81512">
        <ele>1260</ele>
        <time>2013-09-21T15:09:30Z</time>
      </trkpt>
      <trkpt lat="45.62258" lon="2.81502">
        <ele>1260.4000244141</ele>
        <time>2013-09-21T15:09:36Z</time>
      </trkpt>
      <trkpt lat="45.62256" lon="2.81498">
        <ele>1261.4000244141</ele>
        <time>2013-09-21T15:09:38Z</time>
      </trkpt>
      <trkpt lat="45.62247" lon="2.81488">
        <ele>1262.1999511719</ele>
        <time>2013-09-21T15:09:48Z</time>
      </trkpt>
      <trkpt lat="45.62239" lon="2.81483">
        <ele>1263.4000244141</ele>
        <time>2013-09-21T15:09:54Z</time>
      </trkpt>
      <trkpt lat="45.62238" lon="2.81479">
        <ele>1264</ele>
        <time>2013-09-21T15:09:55Z</time>
      </trkpt>
      <trkpt lat="45.62225" lon="2.81476">
        <ele>1264.8000488281</ele>
        <time>2013-09-21T15:10:04Z</time>
      </trkpt>
      <trkpt lat="45.62215" lon="2.81482">
        <ele>1266.4000244141</ele>
        <time>2013-09-21T15:10:14Z</time>
      </trkpt>
      <trkpt lat="45.62213" lon="2.81492">
        <ele>1266.4000244141</ele>
        <time>2013-09-21T15:10:20Z</time>
      </trkpt>
      <trkpt lat="45.62212" lon="2.81501">
        <ele>1267.5999755859</ele>
        <time>2013-09-21T15:10:26Z</time>
      </trkpt>
      <trkpt lat="45.62214" lon="2.81519">
        <ele>1268.8000488281</ele>
        <time>2013-09-21T15:10:38Z</time>
      </trkpt>
      <trkpt lat="45.62215" lon="2.8152">
        <ele>1269.1999511719</ele>
        <time>2013-09-21T15:10:39Z</time>
      </trkpt>
      <trkpt lat="45.62217" lon="2.81539">
        <ele>1270.4000244141</ele>
        <time>2013-09-21T15:10:49Z</time>
      </trkpt>
      <trkpt lat="45.6222" lon="2.81552">
        <ele>1270.8000488281</ele>
        <time>2013-09-21T15:10:55Z</time>
      </trkpt>
      <trkpt lat="45.62222" lon="2.81564">
        <ele>1272.5999755859</ele>
        <time>2013-09-21T15:11:01Z</time>
      </trkpt>
      <trkpt lat="45.62217" lon="2.81583">
        <ele>1272.5999755859</ele>
        <time>2013-09-21T15:11:10Z</time>
      </trkpt>
      <trkpt lat="45.62212" lon="2.81591">
        <ele>1274.1999511719</ele>
        <time>2013-09-21T15:11:15Z</time>
      </trkpt>
      <trkpt lat="45.62208" lon="2.81595">
        <ele>1274.5999755859</ele>
        <time>2013-09-21T15:11:18Z</time>
      </trkpt>
      <trkpt lat="45.62201" lon="2.81603">
        <ele>1274.5999755859</ele>
        <time>2013-09-21T15:11:24Z</time>
      </trkpt>
      <trkpt lat="45.62196" lon="2.81608">
        <ele>1275</ele>
        <time>2013-09-21T15:11:27Z</time>
      </trkpt>
      <trkpt lat="45.62191" lon="2.81611">
        <ele>1276.4000244141</ele>
        <time>2013-09-21T15:11:30Z</time>
      </trkpt>
      <trkpt lat="45.62189" lon="2.81612">
        <ele>1276.8000488281</ele>
        <time>2013-09-21T15:11:31Z</time>
      </trkpt>
      <trkpt lat="45.62176" lon="2.81618">
        <ele>1276.8000488281</ele>
        <time>2013-09-21T15:11:40Z</time>
      </trkpt>
      <trkpt lat="45.62165" lon="2.81623">
        <ele>1277.1999511719</ele>
        <time>2013-09-21T15:11:47Z</time>
      </trkpt>
      <trkpt lat="45.62159" lon="2.81625">
        <ele>1279.1999511719</ele>
        <time>2013-09-21T15:11:51Z</time>
      </trkpt>
      <trkpt lat="45.62149" lon="2.81629">
        <ele>1279.1999511719</ele>
        <time>2013-09-21T15:11:57Z</time>
      </trkpt>
      <trkpt lat="45.62133" lon="2.81639">
        <ele>1279.1999511719</ele>
        <time>2013-09-21T15:12:05Z</time>
      </trkpt>
      <trkpt lat="45.62132" lon="2.81641">
        <ele>1279.1999511719</ele>
        <time>2013-09-21T15:12:06Z</time>
      </trkpt>
      <trkpt lat="45.62117" lon="2.81654">
        <ele>1279.1999511719</ele>
        <time>2013-09-21T15:12:14Z</time>
      </trkpt>
      <trkpt lat="45.62103" lon="2.81668">
        <ele>1279.5999755859</ele>
        <time>2013-09-21T15:12:22Z</time>
      </trkpt>
      <trkpt lat="45.62099" lon="2.81671">
        <ele>1280.4000244141</ele>
        <time>2013-09-21T15:12:24Z</time>
      </trkpt>
      <trkpt lat="45.62086" lon="2.81676">
        <ele>1281.1999511719</ele>
        <time>2013-09-21T15:12:30Z</time>
      </trkpt>
      <trkpt lat="45.62066" lon="2.81692">
        <ele>1285.4000244141</ele>
        <time>2013-09-21T15:30:09Z</time>
      </trkpt>
      <trkpt lat="45.62047" lon="2.81705">
        <ele>1285.4000244141</ele>
        <time>2013-09-21T15:30:18Z</time>
      </trkpt>
      <trkpt lat="45.62021" lon="2.81719">
        <ele>1285.4000244141</ele>
        <time>2013-09-21T15:30:26Z</time>
      </trkpt>
      <trkpt lat="45.62011" lon="2.81721">
        <ele>1285</ele>
        <time>2013-09-21T15:30:29Z</time>
      </trkpt>
      <trkpt lat="45.62008" lon="2.81722">
        <ele>1284.5999755859</ele>
        <time>2013-09-21T15:30:30Z</time>
      </trkpt>
      <trkpt lat="45.62" lon="2.81724">
        <ele>1283.8000488281</ele>
        <time>2013-09-21T15:30:32Z</time>
      </trkpt>
      <trkpt lat="45.6199" lon="2.81725">
        <ele>1283</ele>
        <time>2013-09-21T15:30:34Z</time>
      </trkpt>
      <trkpt lat="45.61981" lon="2.81733">
        <ele>1281.1999511719</ele>
        <time>2013-09-21T15:30:38Z</time>
      </trkpt>
      <trkpt lat="45.61979" lon="2.81753">
        <ele>1281.1999511719</ele>
        <time>2013-09-21T15:30:41Z</time>
      </trkpt>
      <trkpt lat="45.61977" lon="2.81761">
        <ele>1280.8000488281</ele>
        <time>2013-09-21T15:30:42Z</time>
      </trkpt>
      <trkpt lat="45.61972" lon="2.8178">
        <ele>1279.5999755859</ele>
        <time>2013-09-21T15:30:44Z</time>
      </trkpt>
      <trkpt lat="45.61969" lon="2.81791">
        <ele>1279.1999511719</ele>
        <time>2013-09-21T15:30:45Z</time>
      </trkpt>
      <trkpt lat="45.61967" lon="2.81802">
        <ele>1278.5999755859</ele>
        <time>2013-09-21T15:30:46Z</time>
      </trkpt>
      <trkpt lat="45.61965" lon="2.81814">
        <ele>1278</ele>
        <time>2013-09-21T15:30:47Z</time>
      </trkpt>
      <trkpt lat="45.61962" lon="2.81825">
        <ele>1277.4000244141</ele>
        <time>2013-09-21T15:30:48Z</time>
      </trkpt>
      <trkpt lat="45.61959" lon="2.81837">
        <ele>1277</ele>
        <time>2013-09-21T15:30:49Z</time>
      </trkpt>
      <trkpt lat="45.61957" lon="2.81849">
        <ele>1276.4000244141</ele>
        <time>2013-09-21T15:30:50Z</time>
      </trkpt>
      <trkpt lat="45.61954" lon="2.8186">
        <ele>1276</ele>
        <time>2013-09-21T15:30:51Z</time>
      </trkpt>
      <trkpt lat="45.61952" lon="2.81871">
        <ele>1275.5999755859</ele>
        <time>2013-09-21T15:30:52Z</time>
      </trkpt>
      <trkpt lat="45.6195" lon="2.81883">
        <ele>1275</ele>
        <time>2013-09-21T15:30:53Z</time>
      </trkpt>
      <trkpt lat="45.61946" lon="2.81906">
        <ele>1274.5999755859</ele>
        <time>2013-09-21T15:30:55Z</time>
      </trkpt>
      <trkpt lat="45.61946" lon="2.81919">
        <ele>1274.1999511719</ele>
        <time>2013-09-21T15:30:56Z</time>
      </trkpt>
      <trkpt lat="45.61946" lon="2.81944">
        <ele>1274.1999511719</ele>
        <time>2013-09-21T15:30:58Z</time>
      </trkpt>
      <trkpt lat="45.61946" lon="2.81956">
        <ele>1273.8000488281</ele>
        <time>2013-09-21T15:30:59Z</time>
      </trkpt>
      <trkpt lat="45.61949" lon="2.81967">
        <ele>1273.1999511719</ele>
        <time>2013-09-21T15:31:00Z</time>
      </trkpt>
      <trkpt lat="45.61953" lon="2.81978">
        <ele>1272.8000488281</ele>
        <time>2013-09-21T15:31:01Z</time>
      </trkpt>
      <trkpt lat="45.61959" lon="2.8199">
        <ele>1272.1999511719</ele>
        <time>2013-09-21T15:31:02Z</time>
      </trkpt>
      <trkpt lat="45.61965" lon="2.81997">
        <ele>1271.8000488281</ele>
        <time>2013-09-21T15:31:03Z</time>
      </trkpt>
      <trkpt lat="45.61973" lon="2.82003">
        <ele>1271.4000244141</ele>
        <time>2013-09-21T15:31:04Z</time>
      </trkpt>
      <trkpt lat="45.61982" lon="2.82009">
        <ele>1271</ele>
        <time>2013-09-21T15:31:05Z</time>
      </trkpt>
      <trkpt lat="45.6199" lon="2.82014">
        <ele>1270.5999755859</ele>
        <time>2013-09-21T15:31:06Z</time>
      </trkpt>
      <trkpt lat="45.61999" lon="2.82019">
        <ele>1270.1999511719</ele>
        <time>2013-09-21T15:31:07Z</time>
      </trkpt>
      <trkpt lat="45.62008" lon="2.82024">
        <ele>1269.5999755859</ele>
        <time>2013-09-21T15:31:08Z</time>
      </trkpt>
      <trkpt lat="45.62016" lon="2.82028">
        <ele>1269.1999511719</ele>
        <time>2013-09-21T15:31:09Z</time>
      </trkpt>
      <trkpt lat="45.62024" lon="2.82033">
        <ele>1268.5999755859</ele>
        <time>2013-09-21T15:31:10Z</time>
      </trkpt>
      <trkpt lat="45.62032" lon="2.82038">
        <ele>1268.1999511719</ele>
        <time>2013-09-21T15:31:11Z</time>
      </trkpt>
      <trkpt lat="45.62039" lon="2.82042">
        <ele>1267.5999755859</ele>
        <time>2013-09-21T15:31:12Z</time>
      </trkpt>
      <trkpt lat="45.62043" lon="2.82045">
        <ele>1267.1999511719</ele>
        <time>2013-09-21T15:31:13Z</time>
      </trkpt>
      <trkpt lat="45.62053" lon="2.82051">
        <ele>1266.4000244141</ele>
        <time>2013-09-21T15:31:15Z</time>
      </trkpt>
      <trkpt lat="45.62063" lon="2.82058">
        <ele>1265.5999755859</ele>
        <time>2013-09-21T15:31:17Z</time>
      </trkpt>
      <trkpt lat="45.62069" lon="2.82065">
        <ele>1265.5999755859</ele>
        <time>2013-09-21T15:31:19Z</time>
      </trkpt>
      <trkpt lat="45.62069" lon="2.82075">
        <ele>1265.5999755859</ele>
        <time>2013-09-21T15:31:21Z</time>
      </trkpt>
      <trkpt lat="45.62056" lon="2.82089">
        <ele>1265.5999755859</ele>
        <time>2013-09-21T15:31:25Z</time>
      </trkpt>
      <trkpt lat="45.62052" lon="2.82093">
        <ele>1265.5999755859</ele>
        <time>2013-09-21T15:31:26Z</time>
      </trkpt>
      <trkpt lat="45.62035" lon="2.82115">
        <ele>1265.5999755859</ele>
        <time>2013-09-21T15:31:30Z</time>
      </trkpt>
      <trkpt lat="45.62032" lon="2.82122">
        <ele>1265.5999755859</ele>
        <time>2013-09-21T15:31:31Z</time>
      </trkpt>
      <trkpt lat="45.62018" lon="2.82174">
        <ele>1265</ele>
        <time>2013-09-21T15:31:37Z</time>
      </trkpt>
      <trkpt lat="45.62015" lon="2.82185">
        <ele>1264.5999755859</ele>
        <time>2013-09-21T15:31:38Z</time>
      </trkpt>
      <trkpt lat="45.62012" lon="2.82195">
        <ele>1264</ele>
        <time>2013-09-21T15:31:39Z</time>
      </trkpt>
      <trkpt lat="45.62007" lon="2.82204">
        <ele>1263.4000244141</ele>
        <time>2013-09-21T15:31:40Z</time>
      </trkpt>
      <trkpt lat="45.62003" lon="2.82215">
        <ele>1263</ele>
        <time>2013-09-21T15:31:41Z</time>
      </trkpt>
      <trkpt lat="45.61999" lon="2.82224">
        <ele>1263</ele>
        <time>2013-09-21T15:31:42Z</time>
      </trkpt>
      <trkpt lat="45.61984" lon="2.82268">
        <ele>1262.5999755859</ele>
        <time>2013-09-21T15:31:46Z</time>
      </trkpt>
      <trkpt lat="45.61979" lon="2.8228">
        <ele>1262.1999511719</ele>
        <time>2013-09-21T15:31:47Z</time>
      </trkpt>
      <trkpt lat="45.61975" lon="2.82291">
        <ele>1261.5999755859</ele>
        <time>2013-09-21T15:31:48Z</time>
      </trkpt>
      <trkpt lat="45.6197" lon="2.82302">
        <ele>1261.1999511719</ele>
        <time>2013-09-21T15:31:49Z</time>
      </trkpt>
      <trkpt lat="45.61954" lon="2.82317">
        <ele>1260.8000488281</ele>
        <time>2013-09-21T15:31:51Z</time>
      </trkpt>
      <trkpt lat="45.61913" lon="2.82355">
        <ele>1260.4000244141</ele>
        <time>2013-09-21T15:31:56Z</time>
      </trkpt>
      <trkpt lat="45.61905" lon="2.82362">
        <ele>1260</ele>
        <time>2013-09-21T15:31:57Z</time>
      </trkpt>
      <trkpt lat="45.61895" lon="2.82368">
        <ele>1259.5999755859</ele>
        <time>2013-09-21T15:31:58Z</time>
      </trkpt>
      <trkpt lat="45.61877" lon="2.82378">
        <ele>1259.1999511719</ele>
        <time>2013-09-21T15:32:00Z</time>
      </trkpt>
      <trkpt lat="45.61868" lon="2.82383">
        <ele>1258.8000488281</ele>
        <time>2013-09-21T15:32:01Z</time>
      </trkpt>
      <trkpt lat="45.61859" lon="2.82388">
        <ele>1258.8000488281</ele>
        <time>2013-09-21T15:32:02Z</time>
      </trkpt>
      <trkpt lat="45.61818" lon="2.8241">
        <ele>1258.4000244141</ele>
        <time>2013-09-21T15:32:07Z</time>
      </trkpt>
      <trkpt lat="45.61809" lon="2.82415">
        <ele>1257.8000488281</ele>
        <time>2013-09-21T15:32:08Z</time>
      </trkpt>
      <trkpt lat="45.618" lon="2.82419">
        <ele>1257.4000244141</ele>
        <time>2013-09-21T15:32:09Z</time>
      </trkpt>
      <trkpt lat="45.61791" lon="2.82423">
        <ele>1257</ele>
        <time>2013-09-21T15:32:10Z</time>
      </trkpt>
      <trkpt lat="45.61782" lon="2.82427">
        <ele>1256.4000244141</ele>
        <time>2013-09-21T15:32:11Z</time>
      </trkpt>
      <trkpt lat="45.61746" lon="2.82439">
        <ele>1256</ele>
        <time>2013-09-21T15:32:15Z</time>
      </trkpt>
      <trkpt lat="45.61737" lon="2.82442">
        <ele>1255.5999755859</ele>
        <time>2013-09-21T15:32:16Z</time>
      </trkpt>
      <trkpt lat="45.61727" lon="2.82444">
        <ele>1255.1999511719</ele>
        <time>2013-09-21T15:32:17Z</time>
      </trkpt>
      <trkpt lat="45.61717" lon="2.82447">
        <ele>1254.8000488281</ele>
        <time>2013-09-21T15:32:18Z</time>
      </trkpt>
      <trkpt lat="45.61708" lon="2.82449">
        <ele>1254.4000244141</ele>
        <time>2013-09-21T15:32:19Z</time>
      </trkpt>
      <trkpt lat="45.61669" lon="2.82462">
        <ele>1254</ele>
        <time>2013-09-21T15:32:23Z</time>
      </trkpt>
      <trkpt lat="45.61659" lon="2.82465">
        <ele>1253.5999755859</ele>
        <time>2013-09-21T15:32:24Z</time>
      </trkpt>
      <trkpt lat="45.6165" lon="2.82469">
        <ele>1253</ele>
        <time>2013-09-21T15:32:25Z</time>
      </trkpt>
      <trkpt lat="45.6164" lon="2.82472">
        <ele>1252.5999755859</ele>
        <time>2013-09-21T15:32:26Z</time>
      </trkpt>
      <trkpt lat="45.61629" lon="2.82477">
        <ele>1252.1999511719</ele>
        <time>2013-09-21T15:32:27Z</time>
      </trkpt>
      <trkpt lat="45.61591" lon="2.82495">
        <ele>1252.1999511719</ele>
        <time>2013-09-21T15:32:31Z</time>
      </trkpt>
      <trkpt lat="45.61562" lon="2.82508">
        <ele>1251.8000488281</ele>
        <time>2013-09-21T15:32:34Z</time>
      </trkpt>
      <trkpt lat="45.61552" lon="2.82513">
        <ele>1251.4000244141</ele>
        <time>2013-09-21T15:32:35Z</time>
      </trkpt>
      <trkpt lat="45.61542" lon="2.82517">
        <ele>1251</ele>
        <time>2013-09-21T15:32:36Z</time>
      </trkpt>
      <trkpt lat="45.61532" lon="2.82521">
        <ele>1250.4000244141</ele>
        <time>2013-09-21T15:32:37Z</time>
      </trkpt>
      <trkpt lat="45.61522" lon="2.82525">
        <ele>1250</ele>
        <time>2013-09-21T15:32:38Z</time>
      </trkpt>
      <trkpt lat="45.61483" lon="2.82542">
        <ele>1250</ele>
        <time>2013-09-21T15:32:42Z</time>
      </trkpt>
      <trkpt lat="45.6143" lon="2.82574">
        <ele>1250</ele>
        <time>2013-09-21T15:32:48Z</time>
      </trkpt>
      <trkpt lat="45.6138" lon="2.82606">
        <ele>1250</ele>
        <time>2013-09-21T15:32:54Z</time>
      </trkpt>
      <trkpt lat="45.61372" lon="2.82611">
        <ele>1250</ele>
        <time>2013-09-21T15:32:55Z</time>
      </trkpt>
      <trkpt lat="45.61318" lon="2.82635">
        <ele>1250</ele>
        <time>2013-09-21T15:33:01Z</time>
      </trkpt>
      <trkpt lat="45.61309" lon="2.82638">
        <ele>1250</ele>
        <time>2013-09-21T15:33:02Z</time>
      </trkpt>
      <trkpt lat="45.61275" lon="2.82645">
        <ele>1250</ele>
        <time>2013-09-21T15:33:06Z</time>
      </trkpt>
      <trkpt lat="45.61266" lon="2.82643">
        <ele>1250</ele>
        <time>2013-09-21T15:33:07Z</time>
      </trkpt>
      <trkpt lat="45.6124" lon="2.8263">
        <ele>1250</ele>
        <time>2013-09-21T15:33:10Z</time>
      </trkpt>
      <trkpt lat="45.61233" lon="2.82625">
        <ele>1250</ele>
        <time>2013-09-21T15:33:11Z</time>
      </trkpt>
      <trkpt lat="45.6121" lon="2.82609">
        <ele>1250</ele>
        <time>2013-09-21T15:33:14Z</time>
      </trkpt>
      <trkpt lat="45.612" lon="2.82591">
        <ele>1250</ele>
        <time>2013-09-21T15:33:16Z</time>
      </trkpt>
      <trkpt lat="45.61198" lon="2.82556">
        <ele>1250</ele>
        <time>2013-09-21T15:33:19Z</time>
      </trkpt>
      <trkpt lat="45.61202" lon="2.82533">
        <ele>1250</ele>
        <time>2013-09-21T15:33:21Z</time>
      </trkpt>
      <trkpt lat="45.61203" lon="2.8251">
        <ele>1250</ele>
        <time>2013-09-21T15:33:23Z</time>
      </trkpt>
      <trkpt lat="45.61202" lon="2.82499">
        <ele>1250</ele>
        <time>2013-09-21T15:33:24Z</time>
      </trkpt>
      <trkpt lat="45.61193" lon="2.82472">
        <ele>1250</ele>
        <time>2013-09-21T15:33:27Z</time>
      </trkpt>
      <trkpt lat="45.61172" lon="2.82448">
        <ele>1250</ele>
        <time>2013-09-21T15:33:31Z</time>
      </trkpt>
      <trkpt lat="45.61137" lon="2.82439">
        <ele>1250</ele>
        <time>2013-09-21T15:33:36Z</time>
      </trkpt>
      <trkpt lat="45.6112" lon="2.82446">
        <ele>1249.5999755859</ele>
        <time>2013-09-21T15:33:38Z</time>
      </trkpt>
      <trkpt lat="45.61112" lon="2.82451">
        <ele>1249.5999755859</ele>
        <time>2013-09-21T15:33:39Z</time>
      </trkpt>
      <trkpt lat="45.61104" lon="2.82455">
        <ele>1248.8000488281</ele>
        <time>2013-09-21T15:33:40Z</time>
      </trkpt>
      <trkpt lat="45.61086" lon="2.82466">
        <ele>1247.8000488281</ele>
        <time>2013-09-21T15:33:42Z</time>
      </trkpt>
      <trkpt lat="45.61069" lon="2.82476">
        <ele>1247</ele>
        <time>2013-09-21T15:33:44Z</time>
      </trkpt>
      <trkpt lat="45.6106" lon="2.82481">
        <ele>1246.4000244141</ele>
        <time>2013-09-21T15:33:45Z</time>
      </trkpt>
      <trkpt lat="45.61041" lon="2.82491">
        <ele>1245.5999755859</ele>
        <time>2013-09-21T15:33:47Z</time>
      </trkpt>
      <trkpt lat="45.61012" lon="2.82501">
        <ele>1245.1999511719</ele>
        <time>2013-09-21T15:33:50Z</time>
      </trkpt>
      <trkpt lat="45.61002" lon="2.82503">
        <ele>1244.8000488281</ele>
        <time>2013-09-21T15:33:51Z</time>
      </trkpt>
      <trkpt lat="45.60992" lon="2.82504">
        <ele>1244.4000244141</ele>
        <time>2013-09-21T15:33:52Z</time>
      </trkpt>
      <trkpt lat="45.60971" lon="2.82508">
        <ele>1243.8000488281</ele>
        <time>2013-09-21T15:33:54Z</time>
      </trkpt>
      <trkpt lat="45.60962" lon="2.8251">
        <ele>1243.4000244141</ele>
        <time>2013-09-21T15:33:55Z</time>
      </trkpt>
      <trkpt lat="45.60953" lon="2.82513">
        <ele>1243.4000244141</ele>
        <time>2013-09-21T15:33:56Z</time>
      </trkpt>
      <trkpt lat="45.60933" lon="2.82521">
        <ele>1243</ele>
        <time>2013-09-21T15:33:58Z</time>
      </trkpt>
      <trkpt lat="45.60921" lon="2.82525">
        <ele>1242.5999755859</ele>
        <time>2013-09-21T15:33:59Z</time>
      </trkpt>
      <trkpt lat="45.60912" lon="2.82528">
        <ele>1242.1999511719</ele>
        <time>2013-09-21T15:34:00Z</time>
      </trkpt>
      <trkpt lat="45.60902" lon="2.82532">
        <ele>1241.8000488281</ele>
        <time>2013-09-21T15:34:01Z</time>
      </trkpt>
      <trkpt lat="45.60892" lon="2.82536">
        <ele>1241.4000244141</ele>
        <time>2013-09-21T15:34:02Z</time>
      </trkpt>
      <trkpt lat="45.60881" lon="2.82539">
        <ele>1241.4000244141</ele>
        <time>2013-09-21T15:34:03Z</time>
      </trkpt>
      <trkpt lat="45.60871" lon="2.82541">
        <ele>1241</ele>
        <time>2013-09-21T15:34:04Z</time>
      </trkpt>
      <trkpt lat="45.6086" lon="2.82542">
        <ele>1240.4000244141</ele>
        <time>2013-09-21T15:34:05Z</time>
      </trkpt>
      <trkpt lat="45.60849" lon="2.82538">
        <ele>1240</ele>
        <time>2013-09-21T15:34:06Z</time>
      </trkpt>
      <trkpt lat="45.60837" lon="2.82536">
        <ele>1239.5999755859</ele>
        <time>2013-09-21T15:34:07Z</time>
      </trkpt>
      <trkpt lat="45.60827" lon="2.82535">
        <ele>1239.1999511719</ele>
        <time>2013-09-21T15:34:08Z</time>
      </trkpt>
      <trkpt lat="45.60806" lon="2.82531">
        <ele>1238.8000488281</ele>
        <time>2013-09-21T15:34:10Z</time>
      </trkpt>
      <trkpt lat="45.60794" lon="2.8253">
        <ele>1238.1999511719</ele>
        <time>2013-09-21T15:34:11Z</time>
      </trkpt>
      <trkpt lat="45.60783" lon="2.82527">
        <ele>1237.8000488281</ele>
        <time>2013-09-21T15:34:12Z</time>
      </trkpt>
      <trkpt lat="45.60772" lon="2.82523">
        <ele>1237.4000244141</ele>
        <time>2013-09-21T15:34:13Z</time>
      </trkpt>
      <trkpt lat="45.60762" lon="2.82518">
        <ele>1236.8000488281</ele>
        <time>2013-09-21T15:34:14Z</time>
      </trkpt>
      <trkpt lat="45.60729" lon="2.82506">
        <ele>1236.8000488281</ele>
        <time>2013-09-21T15:34:17Z</time>
      </trkpt>
      <trkpt lat="45.60718" lon="2.82508">
        <ele>1236.4000244141</ele>
        <time>2013-09-21T15:34:18Z</time>
      </trkpt>
      <trkpt lat="45.60706" lon="2.82511">
        <ele>1236</ele>
        <time>2013-09-21T15:34:19Z</time>
      </trkpt>
      <trkpt lat="45.60695" lon="2.82517">
        <ele>1235.5999755859</ele>
        <time>2013-09-21T15:34:20Z</time>
      </trkpt>
      <trkpt lat="45.60685" lon="2.82526">
        <ele>1235.1999511719</ele>
        <time>2013-09-21T15:34:21Z</time>
      </trkpt>
      <trkpt lat="45.60675" lon="2.82532">
        <ele>1234.5999755859</ele>
        <time>2013-09-21T15:34:22Z</time>
      </trkpt>
      <trkpt lat="45.60664" lon="2.82538">
        <ele>1234</ele>
        <time>2013-09-21T15:34:23Z</time>
      </trkpt>
      <trkpt lat="45.60653" lon="2.82542">
        <ele>1233.5999755859</ele>
        <time>2013-09-21T15:34:24Z</time>
      </trkpt>
      <trkpt lat="45.60642" lon="2.82545">
        <ele>1233</ele>
        <time>2013-09-21T15:34:25Z</time>
      </trkpt>
      <trkpt lat="45.60631" lon="2.82548">
        <ele>1232.4000244141</ele>
        <time>2013-09-21T15:34:26Z</time>
      </trkpt>
      <trkpt lat="45.60597" lon="2.82556">
        <ele>1232.4000244141</ele>
        <time>2013-09-21T15:34:29Z</time>
      </trkpt>
      <trkpt lat="45.60586" lon="2.82558">
        <ele>1231.8000488281</ele>
        <time>2013-09-21T15:34:30Z</time>
      </trkpt>
      <trkpt lat="45.60574" lon="2.82561">
        <ele>1231.4000244141</ele>
        <time>2013-09-21T15:34:31Z</time>
      </trkpt>
      <trkpt lat="45.60564" lon="2.82563">
        <ele>1230.8000488281</ele>
        <time>2013-09-21T15:34:32Z</time>
      </trkpt>
      <trkpt lat="45.60553" lon="2.82566">
        <ele>1230.4000244141</ele>
        <time>2013-09-21T15:34:33Z</time>
      </trkpt>
      <trkpt lat="45.60542" lon="2.82568">
        <ele>1229.8000488281</ele>
        <time>2013-09-21T15:34:34Z</time>
      </trkpt>
      <trkpt lat="45.60531" lon="2.82571">
        <ele>1229.4000244141</ele>
        <time>2013-09-21T15:34:35Z</time>
      </trkpt>
      <trkpt lat="45.60519" lon="2.82573">
        <ele>1229</ele>
        <time>2013-09-21T15:34:36Z</time>
      </trkpt>
      <trkpt lat="45.60508" lon="2.82576">
        <ele>1228.5999755859</ele>
        <time>2013-09-21T15:34:37Z</time>
      </trkpt>
      <trkpt lat="45.60497" lon="2.82579">
        <ele>1228</ele>
        <time>2013-09-21T15:34:38Z</time>
      </trkpt>
      <trkpt lat="45.60485" lon="2.82581">
        <ele>1227.5999755859</ele>
        <time>2013-09-21T15:34:39Z</time>
      </trkpt>
      <trkpt lat="45.60462" lon="2.82582">
        <ele>1227.1999511719</ele>
        <time>2013-09-21T15:34:41Z</time>
      </trkpt>
      <trkpt lat="45.6045" lon="2.82577">
        <ele>1226.8000488281</ele>
        <time>2013-09-21T15:34:42Z</time>
      </trkpt>
      <trkpt lat="45.60438" lon="2.82573">
        <ele>1226.4000244141</ele>
        <time>2013-09-21T15:34:43Z</time>
      </trkpt>
      <trkpt lat="45.60429" lon="2.8257">
        <ele>1226</ele>
        <time>2013-09-21T15:34:44Z</time>
      </trkpt>
      <trkpt lat="45.60418" lon="2.82565">
        <ele>1225.5999755859</ele>
        <time>2013-09-21T15:34:45Z</time>
      </trkpt>
      <trkpt lat="45.60386" lon="2.82547">
        <ele>1225.1999511719</ele>
        <time>2013-09-21T15:34:48Z</time>
      </trkpt>
      <trkpt lat="45.60376" lon="2.82542">
        <ele>1224.8000488281</ele>
        <time>2013-09-21T15:34:49Z</time>
      </trkpt>
      <trkpt lat="45.60365" lon="2.82537">
        <ele>1224.4000244141</ele>
        <time>2013-09-21T15:34:50Z</time>
      </trkpt>
      <trkpt lat="45.60354" lon="2.82534">
        <ele>1223.8000488281</ele>
        <time>2013-09-21T15:34:51Z</time>
      </trkpt>
      <trkpt lat="45.60342" lon="2.82534">
        <ele>1223.4000244141</ele>
        <time>2013-09-21T15:34:52Z</time>
      </trkpt>
      <trkpt lat="45.60329" lon="2.82537">
        <ele>1223.4000244141</ele>
        <time>2013-09-21T15:34:53Z</time>
      </trkpt>
      <trkpt lat="45.60317" lon="2.82541">
        <ele>1223</ele>
        <time>2013-09-21T15:34:54Z</time>
      </trkpt>
      <trkpt lat="45.60304" lon="2.82546">
        <ele>1222.4000244141</ele>
        <time>2013-09-21T15:34:55Z</time>
      </trkpt>
      <trkpt lat="45.60292" lon="2.82549">
        <ele>1222</ele>
        <time>2013-09-21T15:34:56Z</time>
      </trkpt>
      <trkpt lat="45.60279" lon="2.82552">
        <ele>1221.1999511719</ele>
        <time>2013-09-21T15:34:57Z</time>
      </trkpt>
      <trkpt lat="45.60267" lon="2.82554">
        <ele>1220.4000244141</ele>
        <time>2013-09-21T15:34:58Z</time>
      </trkpt>
      <trkpt lat="45.60255" lon="2.82555">
        <ele>1219.5999755859</ele>
        <time>2013-09-21T15:34:59Z</time>
      </trkpt>
      <trkpt lat="45.60242" lon="2.82555">
        <ele>1219</ele>
        <time>2013-09-21T15:35:00Z</time>
      </trkpt>
      <trkpt lat="45.60228" lon="2.82553">
        <ele>1218.1999511719</ele>
        <time>2013-09-21T15:35:01Z</time>
      </trkpt>
      <trkpt lat="45.60217" lon="2.82551">
        <ele>1217.5999755859</ele>
        <time>2013-09-21T15:35:02Z</time>
      </trkpt>
      <trkpt lat="45.60205" lon="2.82548">
        <ele>1217.1999511719</ele>
        <time>2013-09-21T15:35:03Z</time>
      </trkpt>
      <trkpt lat="45.60194" lon="2.82544">
        <ele>1216.5999755859</ele>
        <time>2013-09-21T15:35:04Z</time>
      </trkpt>
      <trkpt lat="45.60182" lon="2.8254">
        <ele>1216.1999511719</ele>
        <time>2013-09-21T15:35:05Z</time>
      </trkpt>
      <trkpt lat="45.60167" lon="2.82541">
        <ele>1215.5999755859</ele>
        <time>2013-09-21T15:35:06Z</time>
      </trkpt>
      <trkpt lat="45.60155" lon="2.82543">
        <ele>1215.1999511719</ele>
        <time>2013-09-21T15:35:07Z</time>
      </trkpt>
      <trkpt lat="45.60144" lon="2.82545">
        <ele>1214.8000488281</ele>
        <time>2013-09-21T15:35:08Z</time>
      </trkpt>
      <trkpt lat="45.60131" lon="2.8255">
        <ele>1214.4000244141</ele>
        <time>2013-09-21T15:35:09Z</time>
      </trkpt>
      <trkpt lat="45.6012" lon="2.8256">
        <ele>1213.8000488281</ele>
        <time>2013-09-21T15:35:10Z</time>
      </trkpt>
      <trkpt lat="45.60112" lon="2.82577">
        <ele>1213.1999511719</ele>
        <time>2013-09-21T15:35:11Z</time>
      </trkpt>
      <trkpt lat="45.60107" lon="2.82593">
        <ele>1212.5999755859</ele>
        <time>2013-09-21T15:35:12Z</time>
      </trkpt>
      <trkpt lat="45.60102" lon="2.82611">
        <ele>1212</ele>
        <time>2013-09-21T15:35:13Z</time>
      </trkpt>
      <trkpt lat="45.601" lon="2.82629">
        <ele>1211.1999511719</ele>
        <time>2013-09-21T15:35:14Z</time>
      </trkpt>
      <trkpt lat="45.60097" lon="2.82647">
        <ele>1210.5999755859</ele>
        <time>2013-09-21T15:35:15Z</time>
      </trkpt>
      <trkpt lat="45.60093" lon="2.82663">
        <ele>1210</ele>
        <time>2013-09-21T15:35:16Z</time>
      </trkpt>
      <trkpt lat="45.60085" lon="2.82679">
        <ele>1209.1999511719</ele>
        <time>2013-09-21T15:35:17Z</time>
      </trkpt>
      <trkpt lat="45.60074" lon="2.82692">
        <ele>1208.4000244141</ele>
        <time>2013-09-21T15:35:18Z</time>
      </trkpt>
      <trkpt lat="45.60061" lon="2.82699">
        <ele>1207.8000488281</ele>
        <time>2013-09-21T15:35:19Z</time>
      </trkpt>
      <trkpt lat="45.60048" lon="2.82703">
        <ele>1207</ele>
        <time>2013-09-21T15:35:20Z</time>
      </trkpt>
      <trkpt lat="45.60036" lon="2.82704">
        <ele>1206.5999755859</ele>
        <time>2013-09-21T15:35:21Z</time>
      </trkpt>
      <trkpt lat="45.60025" lon="2.82701">
        <ele>1206</ele>
        <time>2013-09-21T15:35:22Z</time>
      </trkpt>
      <trkpt lat="45.60014" lon="2.82693">
        <ele>1205.5999755859</ele>
        <time>2013-09-21T15:35:23Z</time>
      </trkpt>
      <trkpt lat="45.60004" lon="2.82682">
        <ele>1205</ele>
        <time>2013-09-21T15:35:24Z</time>
      </trkpt>
      <trkpt lat="45.59995" lon="2.82669">
        <ele>1204.5999755859</ele>
        <time>2013-09-21T15:35:25Z</time>
      </trkpt>
      <trkpt lat="45.59988" lon="2.82657">
        <ele>1204</ele>
        <time>2013-09-21T15:35:26Z</time>
      </trkpt>
      <trkpt lat="45.59981" lon="2.82644">
        <ele>1203.4000244141</ele>
        <time>2013-09-21T15:35:27Z</time>
      </trkpt>
      <trkpt lat="45.59973" lon="2.82632">
        <ele>1203</ele>
        <time>2013-09-21T15:35:28Z</time>
      </trkpt>
      <trkpt lat="45.59963" lon="2.82623">
        <ele>1202.4000244141</ele>
        <time>2013-09-21T15:35:29Z</time>
      </trkpt>
      <trkpt lat="45.59929" lon="2.82605">
        <ele>1202.4000244141</ele>
        <time>2013-09-21T15:35:32Z</time>
      </trkpt>
      <trkpt lat="45.59899" lon="2.82584">
        <ele>1202</ele>
        <time>2013-09-21T15:35:35Z</time>
      </trkpt>
      <trkpt lat="45.59887" lon="2.82579">
        <ele>1201.5999755859</ele>
        <time>2013-09-21T15:35:36Z</time>
      </trkpt>
      <trkpt lat="45.59877" lon="2.82573">
        <ele>1201.1999511719</ele>
        <time>2013-09-21T15:35:37Z</time>
      </trkpt>
      <trkpt lat="45.59867" lon="2.82566">
        <ele>1200.8000488281</ele>
        <time>2013-09-21T15:35:38Z</time>
      </trkpt>
      <trkpt lat="45.59856" lon="2.82559">
        <ele>1200.4000244141</ele>
        <time>2013-09-21T15:35:39Z</time>
      </trkpt>
      <trkpt lat="45.59809" lon="2.82513">
        <ele>1200.4000244141</ele>
        <time>2013-09-21T15:35:44Z</time>
      </trkpt>
      <trkpt lat="45.59799" lon="2.82506">
        <ele>1199.8000488281</ele>
        <time>2013-09-21T15:35:45Z</time>
      </trkpt>
      <trkpt lat="45.5979" lon="2.82494">
        <ele>1199.4000244141</ele>
        <time>2013-09-21T15:35:46Z</time>
      </trkpt>
      <trkpt lat="45.59781" lon="2.82485">
        <ele>1199</ele>
        <time>2013-09-21T15:35:47Z</time>
      </trkpt>
      <trkpt lat="45.59771" lon="2.82476">
        <ele>1198.5999755859</ele>
        <time>2013-09-21T15:35:48Z</time>
      </trkpt>
      <trkpt lat="45.59762" lon="2.82466">
        <ele>1198.1999511719</ele>
        <time>2013-09-21T15:35:49Z</time>
      </trkpt>
      <trkpt lat="45.59735" lon="2.82441">
        <ele>1198.1999511719</ele>
        <time>2013-09-21T15:35:52Z</time>
      </trkpt>
      <trkpt lat="45.59706" lon="2.82411">
        <ele>1197.8000488281</ele>
        <time>2013-09-21T15:35:55Z</time>
      </trkpt>
      <trkpt lat="45.59697" lon="2.82401">
        <ele>1197.4000244141</ele>
        <time>2013-09-21T15:35:56Z</time>
      </trkpt>
      <trkpt lat="45.59688" lon="2.82392">
        <ele>1197</ele>
        <time>2013-09-21T15:35:57Z</time>
      </trkpt>
      <trkpt lat="45.59678" lon="2.8238">
        <ele>1196.4000244141</ele>
        <time>2013-09-21T15:35:58Z</time>
      </trkpt>
      <trkpt lat="45.59669" lon="2.82371">
        <ele>1196</ele>
        <time>2013-09-21T15:35:59Z</time>
      </trkpt>
      <trkpt lat="45.59641" lon="2.82342">
        <ele>1195.5999755859</ele>
        <time>2013-09-21T15:36:02Z</time>
      </trkpt>
      <trkpt lat="45.59631" lon="2.82333">
        <ele>1195.1999511719</ele>
        <time>2013-09-21T15:36:03Z</time>
      </trkpt>
      <trkpt lat="45.59623" lon="2.82324">
        <ele>1194.8000488281</ele>
        <time>2013-09-21T15:36:04Z</time>
      </trkpt>
      <trkpt lat="45.59613" lon="2.82314">
        <ele>1194.1999511719</ele>
        <time>2013-09-21T15:36:05Z</time>
      </trkpt>
      <trkpt lat="45.59604" lon="2.82304">
        <ele>1193.8000488281</ele>
        <time>2013-09-21T15:36:06Z</time>
      </trkpt>
      <trkpt lat="45.59578" lon="2.82275">
        <ele>1193.4000244141</ele>
        <time>2013-09-21T15:36:09Z</time>
      </trkpt>
      <trkpt lat="45.5957" lon="2.82267">
        <ele>1193</ele>
        <time>2013-09-21T15:36:10Z</time>
      </trkpt>
      <trkpt lat="45.59561" lon="2.82258">
        <ele>1192.5999755859</ele>
        <time>2013-09-21T15:36:11Z</time>
      </trkpt>
      <trkpt lat="45.59553" lon="2.8225">
        <ele>1192.1999511719</ele>
        <time>2013-09-21T15:36:12Z</time>
      </trkpt>
      <trkpt lat="45.59546" lon="2.82241">
        <ele>1191.8000488281</ele>
        <time>2013-09-21T15:36:13Z</time>
      </trkpt>
      <trkpt lat="45.59537" lon="2.82233">
        <ele>1191.8000488281</ele>
        <time>2013-09-21T15:36:14Z</time>
      </trkpt>
      <trkpt lat="45.5949" lon="2.82186">
        <ele>1191.8000488281</ele>
        <time>2013-09-21T15:36:20Z</time>
      </trkpt>
      <trkpt lat="45.59472" lon="2.82177">
        <ele>1191.8000488281</ele>
        <time>2013-09-21T15:36:22Z</time>
      </trkpt>
      <trkpt lat="45.59454" lon="2.82175">
        <ele>1191.4000244141</ele>
        <time>2013-09-21T15:36:24Z</time>
      </trkpt>
      <trkpt lat="45.59445" lon="2.82181">
        <ele>1191</ele>
        <time>2013-09-21T15:36:25Z</time>
      </trkpt>
      <trkpt lat="45.59436" lon="2.82187">
        <ele>1190.5999755859</ele>
        <time>2013-09-21T15:36:26Z</time>
      </trkpt>
      <trkpt lat="45.59428" lon="2.82196">
        <ele>1190.1999511719</ele>
        <time>2013-09-21T15:36:27Z</time>
      </trkpt>
      <trkpt lat="45.59425" lon="2.82209">
        <ele>1189.8000488281</ele>
        <time>2013-09-21T15:36:28Z</time>
      </trkpt>
      <trkpt lat="45.59424" lon="2.82223">
        <ele>1189.8000488281</ele>
        <time>2013-09-21T15:36:29Z</time>
      </trkpt>
      <trkpt lat="45.59423" lon="2.8225">
        <ele>1189.8000488281</ele>
        <time>2013-09-21T15:36:31Z</time>
      </trkpt>
      <trkpt lat="45.59424" lon="2.82263">
        <ele>1189.8000488281</ele>
        <time>2013-09-21T15:36:32Z</time>
      </trkpt>
      <trkpt lat="45.59431" lon="2.82311">
        <ele>1189.8000488281</ele>
        <time>2013-09-21T15:36:36Z</time>
      </trkpt>
      <trkpt lat="45.59433" lon="2.82322">
        <ele>1189.4000244141</ele>
        <time>2013-09-21T15:36:37Z</time>
      </trkpt>
      <trkpt lat="45.59435" lon="2.82334">
        <ele>1189</ele>
        <time>2013-09-21T15:36:38Z</time>
      </trkpt>
      <trkpt lat="45.59437" lon="2.82345">
        <ele>1188.5999755859</ele>
        <time>2013-09-21T15:36:39Z</time>
      </trkpt>
      <trkpt lat="45.59439" lon="2.82356">
        <ele>1188.1999511719</ele>
        <time>2013-09-21T15:36:40Z</time>
      </trkpt>
      <trkpt lat="45.59441" lon="2.82367">
        <ele>1187.8000488281</ele>
        <time>2013-09-21T15:36:41Z</time>
      </trkpt>
      <trkpt lat="45.59447" lon="2.824">
        <ele>1187.8000488281</ele>
        <time>2013-09-21T15:36:44Z</time>
      </trkpt>
      <trkpt lat="45.59452" lon="2.82427">
        <ele>1187.8000488281</ele>
        <time>2013-09-21T15:36:47Z</time>
      </trkpt>
      <trkpt lat="45.59452" lon="2.82434">
        <ele>1187.8000488281</ele>
        <time>2013-09-21T15:36:48Z</time>
      </trkpt>
      <trkpt lat="45.59449" lon="2.82434">
        <ele>1187.1999511719</ele>
        <time>2013-09-21T15:36:49Z</time>
      </trkpt>
      <trkpt lat="45.59443" lon="2.8243">
        <ele>1186.4000244141</ele>
        <time>2013-09-21T15:36:51Z</time>
      </trkpt>
      <trkpt lat="45.59438" lon="2.82417">
        <ele>1185.1999511719</ele>
        <time>2013-09-21T15:36:53Z</time>
      </trkpt>
      <trkpt lat="45.59435" lon="2.8241">
        <ele>1184.5999755859</ele>
        <time>2013-09-21T15:36:54Z</time>
      </trkpt>
      <trkpt lat="45.59431" lon="2.82398">
        <ele>1183.5999755859</ele>
        <time>2013-09-21T15:36:55Z</time>
      </trkpt>
      <trkpt lat="45.59429" lon="2.82391">
        <ele>1182.5999755859</ele>
        <time>2013-09-21T15:36:56Z</time>
      </trkpt>
      <trkpt lat="45.59423" lon="2.8238">
        <ele>1181.5999755859</ele>
        <time>2013-09-21T15:36:57Z</time>
      </trkpt>
      <trkpt lat="45.5942" lon="2.82372">
        <ele>1180.4000244141</ele>
        <time>2013-09-21T15:36:58Z</time>
      </trkpt>
      <trkpt lat="45.59413" lon="2.8236">
        <ele>1179</ele>
        <time>2013-09-21T15:36:59Z</time>
      </trkpt>
      <trkpt lat="45.59409" lon="2.8235">
        <ele>1177.8000488281</ele>
        <time>2013-09-21T15:37:00Z</time>
      </trkpt>
      <trkpt lat="45.59404" lon="2.8234">
        <ele>1176.5999755859</ele>
        <time>2013-09-21T15:37:01Z</time>
      </trkpt>
      <trkpt lat="45.59401" lon="2.8233">
        <ele>1175.4000244141</ele>
        <time>2013-09-21T15:37:02Z</time>
      </trkpt>
      <trkpt lat="45.59398" lon="2.82322">
        <ele>1174.1999511719</ele>
        <time>2013-09-21T15:37:03Z</time>
      </trkpt>
      <trkpt lat="45.59395" lon="2.8231">
        <ele>1173</ele>
        <time>2013-09-21T15:37:04Z</time>
      </trkpt>
      <trkpt lat="45.59393" lon="2.82296">
        <ele>1172</ele>
        <time>2013-09-21T15:37:05Z</time>
      </trkpt>
      <trkpt lat="45.59389" lon="2.82288">
        <ele>1171</ele>
        <time>2013-09-21T15:37:06Z</time>
      </trkpt>
      <trkpt lat="45.59387" lon="2.82277">
        <ele>1169.8000488281</ele>
        <time>2013-09-21T15:37:07Z</time>
      </trkpt>
      <trkpt lat="45.59383" lon="2.82265">
        <ele>1168.5999755859</ele>
        <time>2013-09-21T15:37:08Z</time>
      </trkpt>
      <trkpt lat="45.5938" lon="2.82256">
        <ele>1167.5999755859</ele>
        <time>2013-09-21T15:37:09Z</time>
      </trkpt>
      <trkpt lat="45.59379" lon="2.82246">
        <ele>1166.4000244141</ele>
        <time>2013-09-21T15:37:10Z</time>
      </trkpt>
      <trkpt lat="45.59379" lon="2.82234">
        <ele>1165.4000244141</ele>
        <time>2013-09-21T15:37:11Z</time>
      </trkpt>
      <trkpt lat="45.59379" lon="2.82223">
        <ele>1164.4000244141</ele>
        <time>2013-09-21T15:37:12Z</time>
      </trkpt>
      <trkpt lat="45.59375" lon="2.8221">
        <ele>1163.4000244141</ele>
        <time>2013-09-21T15:37:13Z</time>
      </trkpt>
      <trkpt lat="45.59373" lon="2.822">
        <ele>1162.4000244141</ele>
        <time>2013-09-21T15:37:14Z</time>
      </trkpt>
      <trkpt lat="45.5937" lon="2.82183">
        <ele>1160.1999511719</ele>
        <time>2013-09-21T15:37:16Z</time>
      </trkpt>
      <trkpt lat="45.59365" lon="2.82178">
        <ele>1159</ele>
        <time>2013-09-21T15:37:17Z</time>
      </trkpt>
      <trkpt lat="45.59359" lon="2.82162">
        <ele>1157</ele>
        <time>2013-09-21T15:37:19Z</time>
      </trkpt>
      <trkpt lat="45.59357" lon="2.82154">
        <ele>1155.8000488281</ele>
        <time>2013-09-21T15:37:20Z</time>
      </trkpt>
      <trkpt lat="45.59354" lon="2.82145">
        <ele>1154.8000488281</ele>
        <time>2013-09-21T15:37:21Z</time>
      </trkpt>
      <trkpt lat="45.59351" lon="2.82136">
        <ele>1153.8000488281</ele>
        <time>2013-09-21T15:37:22Z</time>
      </trkpt>
      <trkpt lat="45.59346" lon="2.82127">
        <ele>1152.8000488281</ele>
        <time>2013-09-21T15:37:23Z</time>
      </trkpt>
      <trkpt lat="45.59343" lon="2.82118">
        <ele>1151.8000488281</ele>
        <time>2013-09-21T15:37:24Z</time>
      </trkpt>
      <trkpt lat="45.5934" lon="2.8211">
        <ele>1150.8000488281</ele>
        <time>2013-09-21T15:37:25Z</time>
      </trkpt>
      <trkpt lat="45.59337" lon="2.82098">
        <ele>1149.5999755859</ele>
        <time>2013-09-21T15:37:26Z</time>
      </trkpt>
      <trkpt lat="45.59334" lon="2.82089">
        <ele>1148.4000244141</ele>
        <time>2013-09-21T15:37:27Z</time>
      </trkpt>
      <trkpt lat="45.59334" lon="2.82075">
        <ele>1147.4000244141</ele>
        <time>2013-09-21T15:37:28Z</time>
      </trkpt>
      <trkpt lat="45.59333" lon="2.82064">
        <ele>1146.4000244141</ele>
        <time>2013-09-21T15:37:29Z</time>
      </trkpt>
      <trkpt lat="45.59332" lon="2.82053">
        <ele>1145.1999511719</ele>
        <time>2013-09-21T15:37:30Z</time>
      </trkpt>
      <trkpt lat="45.5933" lon="2.82043">
        <ele>1144.1999511719</ele>
        <time>2013-09-21T15:37:31Z</time>
      </trkpt>
      <trkpt lat="45.59328" lon="2.82035">
        <ele>1143.1999511719</ele>
        <time>2013-09-21T15:37:32Z</time>
      </trkpt>
      <trkpt lat="45.59327" lon="2.82026">
        <ele>1142</ele>
        <time>2013-09-21T15:37:33Z</time>
      </trkpt>
      <trkpt lat="45.59324" lon="2.82016">
        <ele>1141</ele>
        <time>2013-09-21T15:37:34Z</time>
      </trkpt>
      <trkpt lat="45.59323" lon="2.82003">
        <ele>1140</ele>
        <time>2013-09-21T15:37:35Z</time>
      </trkpt>
      <trkpt lat="45.59322" lon="2.81993">
        <ele>1138.8000488281</ele>
        <time>2013-09-21T15:37:36Z</time>
      </trkpt>
      <trkpt lat="45.59324" lon="2.81982">
        <ele>1137.8000488281</ele>
        <time>2013-09-21T15:37:37Z</time>
      </trkpt>
      <trkpt lat="45.59326" lon="2.8197">
        <ele>1136.8000488281</ele>
        <time>2013-09-21T15:37:38Z</time>
      </trkpt>
      <trkpt lat="45.59328" lon="2.8196">
        <ele>1135.8000488281</ele>
        <time>2013-09-21T15:37:39Z</time>
      </trkpt>
      <trkpt lat="45.59332" lon="2.81943">
        <ele>1133.8000488281</ele>
        <time>2013-09-21T15:37:41Z</time>
      </trkpt>
      <trkpt lat="45.59335" lon="2.81934">
        <ele>1133</ele>
        <time>2013-09-21T15:37:42Z</time>
      </trkpt>
      <trkpt lat="45.59335" lon="2.81926">
        <ele>1132.1999511719</ele>
        <time>2013-09-21T15:37:43Z</time>
      </trkpt>
      <trkpt lat="45.59333" lon="2.81916">
        <ele>1130.4000244141</ele>
        <time>2013-09-21T15:37:45Z</time>
      </trkpt>
      <trkpt lat="45.59328" lon="2.81918">
        <ele>1128.8000488281</ele>
        <time>2013-09-21T15:37:47Z</time>
      </trkpt>
      <trkpt lat="45.59321" lon="2.81922">
        <ele>1127.5999755859</ele>
        <time>2013-09-21T15:37:49Z</time>
      </trkpt>
      <trkpt lat="45.59317" lon="2.81927">
        <ele>1126.8000488281</ele>
        <time>2013-09-21T15:37:50Z</time>
      </trkpt>
      <trkpt lat="45.59312" lon="2.81931">
        <ele>1126</ele>
        <time>2013-09-21T15:37:51Z</time>
      </trkpt>
      <trkpt lat="45.59306" lon="2.81936">
        <ele>1125.1999511719</ele>
        <time>2013-09-21T15:37:52Z</time>
      </trkpt>
      <trkpt lat="45.59301" lon="2.81943">
        <ele>1124.4000244141</ele>
        <time>2013-09-21T15:37:53Z</time>
      </trkpt>
      <trkpt lat="45.59298" lon="2.81949">
        <ele>1124.4000244141</ele>
        <time>2013-09-21T15:37:54Z</time>
      </trkpt>
      <trkpt lat="45.59296" lon="2.81957">
        <ele>1123</ele>
        <time>2013-09-21T15:37:55Z</time>
      </trkpt>
      <trkpt lat="45.59293" lon="2.81969">
        <ele>1122.1999511719</ele>
        <time>2013-09-21T15:37:56Z</time>
      </trkpt>
      <trkpt lat="45.59291" lon="2.81977">
        <ele>1121.4000244141</ele>
        <time>2013-09-21T15:37:57Z</time>
      </trkpt>
      <trkpt lat="45.59288" lon="2.81985">
        <ele>1121</ele>
        <time>2013-09-21T15:37:58Z</time>
      </trkpt>
      <trkpt lat="45.59286" lon="2.81995">
        <ele>1120.4000244141</ele>
        <time>2013-09-21T15:37:59Z</time>
      </trkpt>
      <trkpt lat="45.59286" lon="2.82003">
        <ele>1120</ele>
        <time>2013-09-21T15:38:00Z</time>
      </trkpt>
      <trkpt lat="45.59285" lon="2.82012">
        <ele>1119.4000244141</ele>
        <time>2013-09-21T15:38:01Z</time>
      </trkpt>
      <trkpt lat="45.59283" lon="2.82035">
        <ele>1117.5999755859</ele>
        <time>2013-09-21T15:38:04Z</time>
      </trkpt>
      <trkpt lat="45.59283" lon="2.82041">
        <ele>1117</ele>
        <time>2013-09-21T15:38:05Z</time>
      </trkpt>
      <trkpt lat="45.59281" lon="2.82039">
        <ele>1116.4000244141</ele>
        <time>2013-09-21T15:38:06Z</time>
      </trkpt>
      <trkpt lat="45.59275" lon="2.82042">
        <ele>1116</ele>
        <time>2013-09-21T15:38:07Z</time>
      </trkpt>
      <trkpt lat="45.5927" lon="2.8203">
        <ele>1115.5999755859</ele>
        <time>2013-09-21T15:38:08Z</time>
      </trkpt>
      <trkpt lat="45.59267" lon="2.82026">
        <ele>1115.1999511719</ele>
        <time>2013-09-21T15:38:09Z</time>
      </trkpt>
      <trkpt lat="45.59266" lon="2.82007">
        <ele>1114.1999511719</ele>
        <time>2013-09-21T15:38:11Z</time>
      </trkpt>
      <trkpt lat="45.59261" lon="2.82">
        <ele>1113.5999755859</ele>
        <time>2013-09-21T15:38:12Z</time>
      </trkpt>
      <trkpt lat="45.59259" lon="2.81988">
        <ele>1113</ele>
        <time>2013-09-21T15:38:13Z</time>
      </trkpt>
      <trkpt lat="45.59262" lon="2.81972">
        <ele>1112.4000244141</ele>
        <time>2013-09-21T15:38:14Z</time>
      </trkpt>
      <trkpt lat="45.59258" lon="2.81963">
        <ele>1111.8000488281</ele>
        <time>2013-09-21T15:38:15Z</time>
      </trkpt>
      <trkpt lat="45.59254" lon="2.81951">
        <ele>1111.1999511719</ele>
        <time>2013-09-21T15:38:16Z</time>
      </trkpt>
      <trkpt lat="45.59251" lon="2.81936">
        <ele>1110.5999755859</ele>
        <time>2013-09-21T15:38:17Z</time>
      </trkpt>
      <trkpt lat="45.59247" lon="2.81926">
        <ele>1110</ele>
        <time>2013-09-21T15:38:18Z</time>
      </trkpt>
      <trkpt lat="45.59245" lon="2.81913">
        <ele>1109.4000244141</ele>
        <time>2013-09-21T15:38:19Z</time>
      </trkpt>
      <trkpt lat="45.59243" lon="2.81899">
        <ele>1108.5999755859</ele>
        <time>2013-09-21T15:38:20Z</time>
      </trkpt>
      <trkpt lat="45.59239" lon="2.81888">
        <ele>1107.8000488281</ele>
        <time>2013-09-21T15:38:21Z</time>
      </trkpt>
      <trkpt lat="45.59238" lon="2.81876">
        <ele>1106.8000488281</ele>
        <time>2013-09-21T15:38:22Z</time>
      </trkpt>
      <trkpt lat="45.59235" lon="2.81866">
        <ele>1106</ele>
        <time>2013-09-21T15:38:23Z</time>
      </trkpt>
      <trkpt lat="45.59232" lon="2.81854">
        <ele>1105</ele>
        <time>2013-09-21T15:38:24Z</time>
      </trkpt>
      <trkpt lat="45.5923" lon="2.81843">
        <ele>1104.1999511719</ele>
        <time>2013-09-21T15:38:25Z</time>
      </trkpt>
      <trkpt lat="45.59228" lon="2.81832">
        <ele>1103.4000244141</ele>
        <time>2013-09-21T15:38:26Z</time>
      </trkpt>
      <trkpt lat="45.59225" lon="2.81822">
        <ele>1102.4000244141</ele>
        <time>2013-09-21T15:38:27Z</time>
      </trkpt>
      <trkpt lat="45.59224" lon="2.81805">
        <ele>1101.4000244141</ele>
        <time>2013-09-21T15:38:28Z</time>
      </trkpt>
      <trkpt lat="45.59222" lon="2.8179">
        <ele>1100.4000244141</ele>
        <time>2013-09-21T15:38:29Z</time>
      </trkpt>
      <trkpt lat="45.59219" lon="2.81777">
        <ele>1099.4000244141</ele>
        <time>2013-09-21T15:38:30Z</time>
      </trkpt>
      <trkpt lat="45.59217" lon="2.81764">
        <ele>1098.4000244141</ele>
        <time>2013-09-21T15:38:31Z</time>
      </trkpt>
      <trkpt lat="45.59216" lon="2.8175">
        <ele>1097.1999511719</ele>
        <time>2013-09-21T15:38:32Z</time>
      </trkpt>
      <trkpt lat="45.59218" lon="2.81736">
        <ele>1096.1999511719</ele>
        <time>2013-09-21T15:38:33Z</time>
      </trkpt>
      <trkpt lat="45.59219" lon="2.81725">
        <ele>1095</ele>
        <time>2013-09-21T15:38:34Z</time>
      </trkpt>
      <trkpt lat="45.59219" lon="2.81713">
        <ele>1093.8000488281</ele>
        <time>2013-09-21T15:38:35Z</time>
      </trkpt>
      <trkpt lat="45.59218" lon="2.81701">
        <ele>1092.5999755859</ele>
        <time>2013-09-21T15:38:36Z</time>
      </trkpt>
      <trkpt lat="45.59216" lon="2.8169">
        <ele>1091.4000244141</ele>
        <time>2013-09-21T15:38:37Z</time>
      </trkpt>
      <trkpt lat="45.59208" lon="2.81679">
        <ele>1090.4000244141</ele>
        <time>2013-09-21T15:38:38Z</time>
      </trkpt>
      <trkpt lat="45.59203" lon="2.81669">
        <ele>1089.4000244141</ele>
        <time>2013-09-21T15:38:39Z</time>
      </trkpt>
      <trkpt lat="45.59202" lon="2.81657">
        <ele>1088.4000244141</ele>
        <time>2013-09-21T15:38:40Z</time>
      </trkpt>
      <trkpt lat="45.59196" lon="2.81647">
        <ele>1087.4000244141</ele>
        <time>2013-09-21T15:38:41Z</time>
      </trkpt>
      <trkpt lat="45.5919" lon="2.81638">
        <ele>1086.4000244141</ele>
        <time>2013-09-21T15:38:42Z</time>
      </trkpt>
      <trkpt lat="45.59179" lon="2.81628">
        <ele>1085.1999511719</ele>
        <time>2013-09-21T15:38:43Z</time>
      </trkpt>
      <trkpt lat="45.59173" lon="2.81617">
        <ele>1084.1999511719</ele>
        <time>2013-09-21T15:38:44Z</time>
      </trkpt>
      <trkpt lat="45.59171" lon="2.81606">
        <ele>1083</ele>
        <time>2013-09-21T15:38:45Z</time>
      </trkpt>
      <trkpt lat="45.59163" lon="2.81596">
        <ele>1082</ele>
        <time>2013-09-21T15:38:46Z</time>
      </trkpt>
      <trkpt lat="45.59159" lon="2.81586">
        <ele>1081.1999511719</ele>
        <time>2013-09-21T15:38:47Z</time>
      </trkpt>
      <trkpt lat="45.59155" lon="2.81576">
        <ele>1080.1999511719</ele>
        <time>2013-09-21T15:38:48Z</time>
      </trkpt>
      <trkpt lat="45.5915" lon="2.81568">
        <ele>1079.1999511719</ele>
        <time>2013-09-21T15:38:49Z</time>
      </trkpt>
      <trkpt lat="45.59145" lon="2.81557">
        <ele>1078.1999511719</ele>
        <time>2013-09-21T15:38:50Z</time>
      </trkpt>
      <trkpt lat="45.59141" lon="2.81545">
        <ele>1077.1999511719</ele>
        <time>2013-09-21T15:38:51Z</time>
      </trkpt>
      <trkpt lat="45.59133" lon="2.81535">
        <ele>1076.1999511719</ele>
        <time>2013-09-21T15:38:52Z</time>
      </trkpt>
      <trkpt lat="45.59124" lon="2.81527">
        <ele>1076.1999511719</ele>
        <time>2013-09-21T15:38:53Z</time>
      </trkpt>
      <trkpt lat="45.59117" lon="2.81522">
        <ele>1074.8000488281</ele>
        <time>2013-09-21T15:38:54Z</time>
      </trkpt>
      <trkpt lat="45.59112" lon="2.81518">
        <ele>1074</ele>
        <time>2013-09-21T15:38:55Z</time>
      </trkpt>
      <trkpt lat="45.59106" lon="2.81513">
        <ele>1073.1999511719</ele>
        <time>2013-09-21T15:38:56Z</time>
      </trkpt>
      <trkpt lat="45.59101" lon="2.81509">
        <ele>1072.4000244141</ele>
        <time>2013-09-21T15:38:57Z</time>
      </trkpt>
      <trkpt lat="45.59079" lon="2.81489">
        <ele>1072</ele>
        <time>2013-09-21T15:39:00Z</time>
      </trkpt>
      <trkpt lat="45.59068" lon="2.81476">
        <ele>1071</ele>
        <time>2013-09-21T15:39:02Z</time>
      </trkpt>
      <trkpt lat="45.59063" lon="2.81468">
        <ele>1070.1999511719</ele>
        <time>2013-09-21T15:39:03Z</time>
      </trkpt>
      <trkpt lat="45.59059" lon="2.81462">
        <ele>1069.5999755859</ele>
        <time>2013-09-21T15:39:04Z</time>
      </trkpt>
      <trkpt lat="45.59054" lon="2.81452">
        <ele>1068.8000488281</ele>
        <time>2013-09-21T15:39:05Z</time>
      </trkpt>
      <trkpt lat="45.5905" lon="2.8144">
        <ele>1068.1999511719</ele>
        <time>2013-09-21T15:39:06Z</time>
      </trkpt>
      <trkpt lat="45.59045" lon="2.8143">
        <ele>1067.5999755859</ele>
        <time>2013-09-21T15:39:07Z</time>
      </trkpt>
      <trkpt lat="45.59041" lon="2.81419">
        <ele>1067</ele>
        <time>2013-09-21T15:39:08Z</time>
      </trkpt>
      <trkpt lat="45.59037" lon="2.81408">
        <ele>1066.4000244141</ele>
        <time>2013-09-21T15:39:09Z</time>
      </trkpt>
      <trkpt lat="45.59033" lon="2.81399">
        <ele>1065.8000488281</ele>
        <time>2013-09-21T15:39:10Z</time>
      </trkpt>
      <trkpt lat="45.5903" lon="2.8139">
        <ele>1065</ele>
        <time>2013-09-21T15:39:11Z</time>
      </trkpt>
      <trkpt lat="45.59019" lon="2.81376">
        <ele>1063.1999511719</ele>
        <time>2013-09-21T15:39:14Z</time>
      </trkpt>
      <trkpt lat="45.5901" lon="2.81371">
        <ele>1062.4000244141</ele>
        <time>2013-09-21T15:39:16Z</time>
      </trkpt>
      <trkpt lat="45.59002" lon="2.81369">
        <ele>1062</ele>
        <time>2013-09-21T15:39:18Z</time>
      </trkpt>
      <trkpt lat="45.58997" lon="2.81368">
        <ele>1061.5999755859</ele>
        <time>2013-09-21T15:39:19Z</time>
      </trkpt>
      <trkpt lat="45.58988" lon="2.81368">
        <ele>1060.8000488281</ele>
        <time>2013-09-21T15:39:21Z</time>
      </trkpt>
      <trkpt lat="45.58981" lon="2.81373">
        <ele>1060.1999511719</ele>
        <time>2013-09-21T15:39:22Z</time>
      </trkpt>
      <trkpt lat="45.58976" lon="2.81373">
        <ele>1059.8000488281</ele>
        <time>2013-09-21T15:39:23Z</time>
      </trkpt>
      <trkpt lat="45.58967" lon="2.8138">
        <ele>1059</ele>
        <time>2013-09-21T15:39:25Z</time>
      </trkpt>
      <trkpt lat="45.58957" lon="2.8138">
        <ele>1058</ele>
        <time>2013-09-21T15:39:27Z</time>
      </trkpt>
      <trkpt lat="45.58937" lon="2.81381">
        <ele>1058</ele>
        <time>2013-09-21T15:39:30Z</time>
      </trkpt>
      <trkpt lat="45.58924" lon="2.81387">
        <ele>1058</ele>
        <time>2013-09-21T15:39:32Z</time>
      </trkpt>
      <trkpt lat="45.58911" lon="2.81397">
        <ele>1058</ele>
        <time>2013-09-21T15:39:34Z</time>
      </trkpt>
      <trkpt lat="45.58902" lon="2.81409">
        <ele>1058</ele>
        <time>2013-09-21T15:39:36Z</time>
      </trkpt>
      <trkpt lat="45.58894" lon="2.81418">
        <ele>1058</ele>
        <time>2013-09-21T15:39:38Z</time>
      </trkpt>
      <trkpt lat="45.5889" lon="2.81424">
        <ele>1058</ele>
        <time>2013-09-21T15:39:40Z</time>
      </trkpt>
      <trkpt lat="45.58879" lon="2.81417">
        <ele>1059.8000488281</ele>
        <time>2013-09-21T15:39:44Z</time>
      </trkpt>
      <trkpt lat="45.58877" lon="2.8141">
        <ele>1060.1999511719</ele>
        <time>2013-09-21T15:39:47Z</time>
      </trkpt>
      <trkpt lat="45.58868" lon="2.81402">
        <ele>1061.1999511719</ele>
        <time>2013-09-21T15:39:51Z</time>
      </trkpt>
      <trkpt lat="45.58862" lon="2.81398">
        <ele>1062.1999511719</ele>
        <time>2013-09-21T15:39:53Z</time>
      </trkpt>
      <trkpt lat="45.58859" lon="2.81396">
        <ele>1062.8000488281</ele>
        <time>2013-09-21T15:39:54Z</time>
      </trkpt>
      <trkpt lat="45.58846" lon="2.81391">
        <ele>1063.1999511719</ele>
        <time>2013-09-21T15:40:01Z</time>
      </trkpt>
      <trkpt lat="45.58843" lon="2.8139">
        <ele>1064.1999511719</ele>
        <time>2013-09-21T15:40:03Z</time>
      </trkpt>
      <trkpt lat="45.58839" lon="2.81387">
        <ele>1065</ele>
        <time>2013-09-21T15:40:06Z</time>
      </trkpt>
      <trkpt lat="45.5883" lon="2.81386">
        <ele>1067.1999511719</ele>
        <time>2013-09-21T15:40:14Z</time>
      </trkpt>
      <trkpt lat="45.58823" lon="2.81391">
        <ele>1067.1999511719</ele>
        <time>2013-09-21T15:40:18Z</time>
      </trkpt>
      <trkpt lat="45.58812" lon="2.81399">
        <ele>1067.5999755859</ele>
        <time>2013-09-21T15:40:24Z</time>
      </trkpt>
      <trkpt lat="45.5881" lon="2.81401">
        <ele>1068</ele>
        <time>2013-09-21T15:40:25Z</time>
      </trkpt>
      <trkpt lat="45.58809" lon="2.81403">
        <ele>1068.5999755859</ele>
        <time>2013-09-21T15:40:26Z</time>
      </trkpt>
      <trkpt lat="45.58796" lon="2.81422">
        <ele>1069.4000244141</ele>
        <time>2013-09-21T15:40:35Z</time>
      </trkpt>
      <trkpt lat="45.58791" lon="2.81433">
        <ele>1069.8000488281</ele>
        <time>2013-09-21T15:40:41Z</time>
      </trkpt>
      <trkpt lat="45.58789" lon="2.81435">
        <ele>1070.5999755859</ele>
        <time>2013-09-21T15:40:43Z</time>
      </trkpt>
      <trkpt lat="45.58782" lon="2.81427">
        <ele>1071.4000244141</ele>
        <time>2013-09-21T15:40:50Z</time>
      </trkpt>
      <trkpt lat="45.58783" lon="2.8142">
        <ele>1072.4000244141</ele>
        <time>2013-09-21T15:40:55Z</time>
      </trkpt>
      <trkpt lat="45.58784" lon="2.81403">
        <ele>1074</ele>
        <time>2013-09-21T15:41:04Z</time>
      </trkpt>
      <trkpt lat="45.58784" lon="2.814">
        <ele>1074.8000488281</ele>
        <time>2013-09-21T15:41:06Z</time>
      </trkpt>
      <trkpt lat="45.5878" lon="2.81388">
        <ele>1076.1999511719</ele>
        <time>2013-09-21T15:41:13Z</time>
      </trkpt>
      <trkpt lat="45.58773" lon="2.81361">
        <ele>1077.8000488281</ele>
        <time>2013-09-21T15:41:27Z</time>
      </trkpt>
      <trkpt lat="45.58775" lon="2.81357">
        <ele>1078.1999511719</ele>
        <time>2013-09-21T15:41:29Z</time>
      </trkpt>
      <trkpt lat="45.58778" lon="2.81346">
        <ele>1079.4000244141</ele>
        <time>2013-09-21T15:41:32Z</time>
      </trkpt>
      <trkpt lat="45.58783" lon="2.81337">
        <ele>1080</ele>
        <time>2013-09-21T15:41:34Z</time>
      </trkpt>
      <trkpt lat="45.58797" lon="2.81317">
        <ele>1079.4000244141</ele>
        <time>2013-09-21T15:41:37Z</time>
      </trkpt>
      <trkpt lat="45.58802" lon="2.81309">
        <ele>1078.8000488281</ele>
        <time>2013-09-21T15:41:38Z</time>
      </trkpt>
      <trkpt lat="45.58804" lon="2.813">
        <ele>1078.1999511719</ele>
        <time>2013-09-21T15:41:39Z</time>
      </trkpt>
      <trkpt lat="45.58811" lon="2.81283">
        <ele>1076.4000244141</ele>
        <time>2013-09-21T15:41:41Z</time>
      </trkpt>
      <trkpt lat="45.58812" lon="2.81273">
        <ele>1075.4000244141</ele>
        <time>2013-09-21T15:41:42Z</time>
      </trkpt>
      <trkpt lat="45.58812" lon="2.81263">
        <ele>1074.4000244141</ele>
        <time>2013-09-21T15:41:43Z</time>
      </trkpt>
      <trkpt lat="45.58813" lon="2.81254">
        <ele>1073.4000244141</ele>
        <time>2013-09-21T15:41:44Z</time>
      </trkpt>
      <trkpt lat="45.58815" lon="2.81243">
        <ele>1072.4000244141</ele>
        <time>2013-09-21T15:41:45Z</time>
      </trkpt>
      <trkpt lat="45.58819" lon="2.81233">
        <ele>1071.4000244141</ele>
        <time>2013-09-21T15:41:46Z</time>
      </trkpt>
      <trkpt lat="45.58821" lon="2.81222">
        <ele>1070.4000244141</ele>
        <time>2013-09-21T15:41:47Z</time>
      </trkpt>
      <trkpt lat="45.58823" lon="2.8121">
        <ele>1069.5999755859</ele>
        <time>2013-09-21T15:41:48Z</time>
      </trkpt>
      <trkpt lat="45.58824" lon="2.812">
        <ele>1068.5999755859</ele>
        <time>2013-09-21T15:41:49Z</time>
      </trkpt>
      <trkpt lat="45.58826" lon="2.8119">
        <ele>1067.5999755859</ele>
        <time>2013-09-21T15:41:50Z</time>
      </trkpt>
      <trkpt lat="45.5883" lon="2.81152">
        <ele>1067.1999511719</ele>
        <time>2013-09-21T15:41:53Z</time>
      </trkpt>
      <trkpt lat="45.58831" lon="2.81142">
        <ele>1066.5999755859</ele>
        <time>2013-09-21T15:41:54Z</time>
      </trkpt>
      <trkpt lat="45.58831" lon="2.81128">
        <ele>1066.1999511719</ele>
        <time>2013-09-21T15:41:55Z</time>
      </trkpt>
      <trkpt lat="45.58833" lon="2.81117">
        <ele>1065.5999755859</ele>
        <time>2013-09-21T15:41:56Z</time>
      </trkpt>
      <trkpt lat="45.58834" lon="2.81106">
        <ele>1065.1999511719</ele>
        <time>2013-09-21T15:41:57Z</time>
      </trkpt>
      <trkpt lat="45.58836" lon="2.81091">
        <ele>1064.5999755859</ele>
        <time>2013-09-21T15:41:58Z</time>
      </trkpt>
      <trkpt lat="45.58838" lon="2.8108">
        <ele>1064</ele>
        <time>2013-09-21T15:41:59Z</time>
      </trkpt>
      <trkpt lat="45.58839" lon="2.81069">
        <ele>1063.4000244141</ele>
        <time>2013-09-21T15:42:00Z</time>
      </trkpt>
      <trkpt lat="45.58841" lon="2.8106">
        <ele>1062.8000488281</ele>
        <time>2013-09-21T15:42:01Z</time>
      </trkpt>
      <trkpt lat="45.58844" lon="2.81048">
        <ele>1061.8000488281</ele>
        <time>2013-09-21T15:42:02Z</time>
      </trkpt>
      <trkpt lat="45.58846" lon="2.81035">
        <ele>1061</ele>
        <time>2013-09-21T15:42:03Z</time>
      </trkpt>
      <trkpt lat="45.58845" lon="2.81016">
        <ele>1060</ele>
        <time>2013-09-21T15:42:04Z</time>
      </trkpt>
      <trkpt lat="45.58847" lon="2.81003">
        <ele>1059.1999511719</ele>
        <time>2013-09-21T15:42:05Z</time>
      </trkpt>
      <trkpt lat="45.58845" lon="2.80983">
        <ele>1058.1999511719</ele>
        <time>2013-09-21T15:42:06Z</time>
      </trkpt>
      <trkpt lat="45.58845" lon="2.80965">
        <ele>1057.1999511719</ele>
        <time>2013-09-21T15:42:07Z</time>
      </trkpt>
      <trkpt lat="45.58844" lon="2.80949">
        <ele>1056.1999511719</ele>
        <time>2013-09-21T15:42:08Z</time>
      </trkpt>
      <trkpt lat="45.58844" lon="2.80933">
        <ele>1055</ele>
        <time>2013-09-21T15:42:09Z</time>
      </trkpt>
      <trkpt lat="45.58845" lon="2.80917">
        <ele>1053.8000488281</ele>
        <time>2013-09-21T15:42:10Z</time>
      </trkpt>
      <trkpt lat="45.58847" lon="2.80904">
        <ele>1052.5999755859</ele>
        <time>2013-09-21T15:42:11Z</time>
      </trkpt>
      <trkpt lat="45.58848" lon="2.80891">
        <ele>1051.5999755859</ele>
        <time>2013-09-21T15:42:12Z</time>
      </trkpt>
      <trkpt lat="45.58852" lon="2.80881">
        <ele>1050.4000244141</ele>
        <time>2013-09-21T15:42:13Z</time>
      </trkpt>
      <trkpt lat="45.58854" lon="2.80864">
        <ele>1050.8000488281</ele>
        <time>2013-09-21T15:42:15Z</time>
      </trkpt>
      <trkpt lat="45.58854" lon="2.80854">
        <ele>1050.8000488281</ele>
        <time>2013-09-21T15:42:16Z</time>
      </trkpt>
      <trkpt lat="45.58855" lon="2.80845">
        <ele>1051.8000488281</ele>
        <time>2013-09-21T15:42:17Z</time>
      </trkpt>
      <trkpt lat="45.58857" lon="2.80832">
        <ele>1053.1999511719</ele>
        <time>2013-09-21T15:42:19Z</time>
      </trkpt>
      <trkpt lat="45.58858" lon="2.80823">
        <ele>1054.5999755859</ele>
        <time>2013-09-21T15:42:21Z</time>
      </trkpt>
      <trkpt lat="45.58857" lon="2.80817">
        <ele>1055</ele>
        <time>2013-09-21T15:42:22Z</time>
      </trkpt>
      <trkpt lat="45.58856" lon="2.80809">
        <ele>1055.4000244141</ele>
        <time>2013-09-21T15:42:23Z</time>
      </trkpt>
      <trkpt lat="45.58855" lon="2.80798">
        <ele>1056.4000244141</ele>
        <time>2013-09-21T15:42:25Z</time>
      </trkpt>
      <trkpt lat="45.58857" lon="2.8079">
        <ele>1056.8000488281</ele>
        <time>2013-09-21T15:42:26Z</time>
      </trkpt>
      <trkpt lat="45.58857" lon="2.80766">
        <ele>1056.8000488281</ele>
        <time>2013-09-21T15:42:29Z</time>
      </trkpt>
      <trkpt lat="45.5886" lon="2.80752">
        <ele>1056.8000488281</ele>
        <time>2013-09-21T15:42:30Z</time>
      </trkpt>
      <trkpt lat="45.58861" lon="2.80744">
        <ele>1056.4000244141</ele>
        <time>2013-09-21T15:42:31Z</time>
      </trkpt>
      <trkpt lat="45.58861" lon="2.80733">
        <ele>1056</ele>
        <time>2013-09-21T15:42:32Z</time>
      </trkpt>
      <trkpt lat="45.58858" lon="2.80715">
        <ele>1055.5999755859</ele>
        <time>2013-09-21T15:42:33Z</time>
      </trkpt>
      <trkpt lat="45.58857" lon="2.80705">
        <ele>1055.1999511719</ele>
        <time>2013-09-21T15:42:34Z</time>
      </trkpt>
      <trkpt lat="45.58857" lon="2.80692">
        <ele>1054.5999755859</ele>
        <time>2013-09-21T15:42:35Z</time>
      </trkpt>
      <trkpt lat="45.58856" lon="2.80679">
        <ele>1054</ele>
        <time>2013-09-21T15:42:36Z</time>
      </trkpt>
      <trkpt lat="45.58854" lon="2.80663">
        <ele>1053.1999511719</ele>
        <time>2013-09-21T15:42:37Z</time>
      </trkpt>
      <trkpt lat="45.58852" lon="2.80636">
        <ele>1052.5999755859</ele>
        <time>2013-09-21T15:42:39Z</time>
      </trkpt>
      <trkpt lat="45.5885" lon="2.80622">
        <ele>1052</ele>
        <time>2013-09-21T15:42:40Z</time>
      </trkpt>
      <trkpt lat="45.58849" lon="2.80607">
        <ele>1051.4000244141</ele>
        <time>2013-09-21T15:42:41Z</time>
      </trkpt>
      <trkpt lat="45.58849" lon="2.80592">
        <ele>1050.8000488281</ele>
        <time>2013-09-21T15:42:42Z</time>
      </trkpt>
      <trkpt lat="45.58844" lon="2.8057">
        <ele>1050</ele>
        <time>2013-09-21T15:42:43Z</time>
      </trkpt>
      <trkpt lat="45.58844" lon="2.80552">
        <ele>1049.1999511719</ele>
        <time>2013-09-21T15:42:44Z</time>
      </trkpt>
      <trkpt lat="45.58842" lon="2.80532">
        <ele>1048.1999511719</ele>
        <time>2013-09-21T15:42:45Z</time>
      </trkpt>
      <trkpt lat="45.58842" lon="2.80511">
        <ele>1047.1999511719</ele>
        <time>2013-09-21T15:42:46Z</time>
      </trkpt>
      <trkpt lat="45.58842" lon="2.80491">
        <ele>1046</ele>
        <time>2013-09-21T15:42:47Z</time>
      </trkpt>
      <trkpt lat="45.5884" lon="2.8047">
        <ele>1045</ele>
        <time>2013-09-21T15:42:48Z</time>
      </trkpt>
      <trkpt lat="45.58838" lon="2.80451">
        <ele>1043.8000488281</ele>
        <time>2013-09-21T15:42:49Z</time>
      </trkpt>
      <trkpt lat="45.58836" lon="2.80434">
        <ele>1042.4000244141</ele>
        <time>2013-09-21T15:42:50Z</time>
      </trkpt>
      <trkpt lat="45.58834" lon="2.80415">
        <ele>1041</ele>
        <time>2013-09-21T15:42:51Z</time>
      </trkpt>
      <trkpt lat="45.58832" lon="2.80394">
        <ele>1039.5999755859</ele>
        <time>2013-09-21T15:42:52Z</time>
      </trkpt>
      <trkpt lat="45.58832" lon="2.80374">
        <ele>1038.4000244141</ele>
        <time>2013-09-21T15:42:53Z</time>
      </trkpt>
      <trkpt lat="45.58833" lon="2.80352">
        <ele>1037</ele>
        <time>2013-09-21T15:42:54Z</time>
      </trkpt>
      <trkpt lat="45.58832" lon="2.80333">
        <ele>1035.8000488281</ele>
        <time>2013-09-21T15:42:55Z</time>
      </trkpt>
      <trkpt lat="45.58831" lon="2.80315">
        <ele>1034.5999755859</ele>
        <time>2013-09-21T15:42:56Z</time>
      </trkpt>
      <trkpt lat="45.58829" lon="2.80298">
        <ele>1033.1999511719</ele>
        <time>2013-09-21T15:42:57Z</time>
      </trkpt>
      <trkpt lat="45.58825" lon="2.80281">
        <ele>1032.1999511719</ele>
        <time>2013-09-21T15:42:58Z</time>
      </trkpt>
      <trkpt lat="45.58821" lon="2.80267">
        <ele>1031.1999511719</ele>
        <time>2013-09-21T15:42:59Z</time>
      </trkpt>
      <trkpt lat="45.58815" lon="2.80254">
        <ele>1030.1999511719</ele>
        <time>2013-09-21T15:43:00Z</time>
      </trkpt>
      <trkpt lat="45.58808" lon="2.80244">
        <ele>1029</ele>
        <time>2013-09-21T15:43:01Z</time>
      </trkpt>
      <trkpt lat="45.58801" lon="2.80234">
        <ele>1028</ele>
        <time>2013-09-21T15:43:02Z</time>
      </trkpt>
      <trkpt lat="45.58794" lon="2.80224">
        <ele>1028</ele>
        <time>2013-09-21T15:43:03Z</time>
      </trkpt>
      <trkpt lat="45.58773" lon="2.80193">
        <ele>1027.4000244141</ele>
        <time>2013-09-21T15:43:06Z</time>
      </trkpt>
      <trkpt lat="45.58763" lon="2.80182">
        <ele>1027</ele>
        <time>2013-09-21T15:43:07Z</time>
      </trkpt>
      <trkpt lat="45.58755" lon="2.80174">
        <ele>1026.4000244141</ele>
        <time>2013-09-21T15:43:08Z</time>
      </trkpt>
      <trkpt lat="45.58744" lon="2.80167">
        <ele>1025.8000488281</ele>
        <time>2013-09-21T15:43:09Z</time>
      </trkpt>
      <trkpt lat="45.58731" lon="2.80163">
        <ele>1025</ele>
        <time>2013-09-21T15:43:10Z</time>
      </trkpt>
      <trkpt lat="45.5872" lon="2.80161">
        <ele>1024.1999511719</ele>
        <time>2013-09-21T15:43:11Z</time>
      </trkpt>
      <trkpt lat="45.58711" lon="2.8016">
        <ele>1023.5999755859</ele>
        <time>2013-09-21T15:43:12Z</time>
      </trkpt>
      <trkpt lat="45.58702" lon="2.80162">
        <ele>1022.799987793</ele>
        <time>2013-09-21T15:43:13Z</time>
      </trkpt>
      <trkpt lat="45.58693" lon="2.80163">
        <ele>1022.799987793</ele>
        <time>2013-09-21T15:43:14Z</time>
      </trkpt>
      <trkpt lat="45.5864" lon="2.80174">
        <ele>1022.799987793</ele>
        <time>2013-09-21T15:43:20Z</time>
      </trkpt>
      <trkpt lat="45.58623" lon="2.8018">
        <ele>1022.4000244141</ele>
        <time>2013-09-21T15:43:22Z</time>
      </trkpt>
      <trkpt lat="45.58614" lon="2.80182">
        <ele>1022</ele>
        <time>2013-09-21T15:43:23Z</time>
      </trkpt>
      <trkpt lat="45.58606" lon="2.80185">
        <ele>1021.5999755859</ele>
        <time>2013-09-21T15:43:24Z</time>
      </trkpt>
      <trkpt lat="45.58598" lon="2.8019">
        <ele>1021.200012207</ele>
        <time>2013-09-21T15:43:25Z</time>
      </trkpt>
      <trkpt lat="45.5859" lon="2.80196">
        <ele>1020.5999755859</ele>
        <time>2013-09-21T15:43:26Z</time>
      </trkpt>
      <trkpt lat="45.58582" lon="2.80204">
        <ele>1020.200012207</ele>
        <time>2013-09-21T15:43:27Z</time>
      </trkpt>
      <trkpt lat="45.58574" lon="2.80212">
        <ele>1019.799987793</ele>
        <time>2013-09-21T15:43:28Z</time>
      </trkpt>
      <trkpt lat="45.58565" lon="2.8022">
        <ele>1019.200012207</ele>
        <time>2013-09-21T15:43:29Z</time>
      </trkpt>
      <trkpt lat="45.58556" lon="2.80227">
        <ele>1018.799987793</ele>
        <time>2013-09-21T15:43:30Z</time>
      </trkpt>
      <trkpt lat="45.58546" lon="2.80233">
        <ele>1018.4000244141</ele>
        <time>2013-09-21T15:43:31Z</time>
      </trkpt>
      <trkpt lat="45.58537" lon="2.8024">
        <ele>1018</ele>
        <time>2013-09-21T15:43:32Z</time>
      </trkpt>
      <trkpt lat="45.58528" lon="2.80247">
        <ele>1017.5999755859</ele>
        <time>2013-09-21T15:43:33Z</time>
      </trkpt>
      <trkpt lat="45.58519" lon="2.80253">
        <ele>1017</ele>
        <time>2013-09-21T15:43:34Z</time>
      </trkpt>
      <trkpt lat="45.5851" lon="2.80259">
        <ele>1016.5999755859</ele>
        <time>2013-09-21T15:43:35Z</time>
      </trkpt>
      <trkpt lat="45.58492" lon="2.80272">
        <ele>1016.200012207</ele>
        <time>2013-09-21T15:43:37Z</time>
      </trkpt>
      <trkpt lat="45.58482" lon="2.80279">
        <ele>1015.799987793</ele>
        <time>2013-09-21T15:43:38Z</time>
      </trkpt>
      <trkpt lat="45.58474" lon="2.80285">
        <ele>1015.4000244141</ele>
        <time>2013-09-21T15:43:39Z</time>
      </trkpt>
      <trkpt lat="45.58465" lon="2.80292">
        <ele>1015</ele>
        <time>2013-09-21T15:43:40Z</time>
      </trkpt>
      <trkpt lat="45.58455" lon="2.80299">
        <ele>1014.5999755859</ele>
        <time>2013-09-21T15:43:41Z</time>
      </trkpt>
      <trkpt lat="45.58445" lon="2.80306">
        <ele>1014.200012207</ele>
        <time>2013-09-21T15:43:42Z</time>
      </trkpt>
      <trkpt lat="45.58435" lon="2.80312">
        <ele>1013.799987793</ele>
        <time>2013-09-21T15:43:43Z</time>
      </trkpt>
      <trkpt lat="45.58427" lon="2.80319">
        <ele>1013.4000244141</ele>
        <time>2013-09-21T15:43:44Z</time>
      </trkpt>
      <trkpt lat="45.58418" lon="2.80327">
        <ele>1013</ele>
        <time>2013-09-21T15:43:45Z</time>
      </trkpt>
      <trkpt lat="45.58409" lon="2.80334">
        <ele>1012.4000244141</ele>
        <time>2013-09-21T15:43:46Z</time>
      </trkpt>
      <trkpt lat="45.584" lon="2.80341">
        <ele>1012</ele>
        <time>2013-09-21T15:43:47Z</time>
      </trkpt>
      <trkpt lat="45.5838" lon="2.80348">
        <ele>1010.799987793</ele>
        <time>2013-09-21T15:43:49Z</time>
      </trkpt>
      <trkpt lat="45.5837" lon="2.80352">
        <ele>1010.200012207</ele>
        <time>2013-09-21T15:43:50Z</time>
      </trkpt>
      <trkpt lat="45.58361" lon="2.80356">
        <ele>1009.4000244141</ele>
        <time>2013-09-21T15:43:51Z</time>
      </trkpt>
      <trkpt lat="45.58353" lon="2.80362">
        <ele>1008.799987793</ele>
        <time>2013-09-21T15:43:52Z</time>
      </trkpt>
      <trkpt lat="45.58345" lon="2.80367">
        <ele>1008.200012207</ele>
        <time>2013-09-21T15:43:53Z</time>
      </trkpt>
      <trkpt lat="45.58339" lon="2.80371">
        <ele>1007.799987793</ele>
        <time>2013-09-21T15:43:54Z</time>
      </trkpt>
      <trkpt lat="45.5833" lon="2.80375">
        <ele>1007.200012207</ele>
        <time>2013-09-21T15:43:55Z</time>
      </trkpt>
      <trkpt lat="45.58313" lon="2.8038">
        <ele>1006.4000244141</ele>
        <time>2013-09-21T15:43:57Z</time>
      </trkpt>
      <trkpt lat="45.58305" lon="2.80381">
        <ele>1005.799987793</ele>
        <time>2013-09-21T15:43:58Z</time>
      </trkpt>
      <trkpt lat="45.58283" lon="2.80396">
        <ele>1005.799987793</ele>
        <time>2013-09-21T15:44:01Z</time>
      </trkpt>
      <trkpt lat="45.58269" lon="2.80419">
        <ele>1006.200012207</ele>
        <time>2013-09-21T15:44:04Z</time>
      </trkpt>
      <trkpt lat="45.58263" lon="2.80427">
        <ele>1006.5999755859</ele>
        <time>2013-09-21T15:44:05Z</time>
      </trkpt>
      <trkpt lat="45.58258" lon="2.80434">
        <ele>1007</ele>
        <time>2013-09-21T15:44:06Z</time>
      </trkpt>
      <trkpt lat="45.58253" lon="2.80441">
        <ele>1007.5999755859</ele>
        <time>2013-09-21T15:44:07Z</time>
      </trkpt>
      <trkpt lat="45.58248" lon="2.80446">
        <ele>1008</ele>
        <time>2013-09-21T15:44:08Z</time>
      </trkpt>
      <trkpt lat="45.58229" lon="2.80474">
        <ele>1008.4000244141</ele>
        <time>2013-09-21T15:44:12Z</time>
      </trkpt>
      <trkpt lat="45.58224" lon="2.80481">
        <ele>1008.799987793</ele>
        <time>2013-09-21T15:44:13Z</time>
      </trkpt>
      <trkpt lat="45.5822" lon="2.80488">
        <ele>1009.200012207</ele>
        <time>2013-09-21T15:44:14Z</time>
      </trkpt>
      <trkpt lat="45.58214" lon="2.80493">
        <ele>1009.5999755859</ele>
        <time>2013-09-21T15:44:15Z</time>
      </trkpt>
      <trkpt lat="45.58209" lon="2.80499">
        <ele>1010</ele>
        <time>2013-09-21T15:44:16Z</time>
      </trkpt>
      <trkpt lat="45.582" lon="2.80508">
        <ele>1010</ele>
        <time>2013-09-21T15:44:18Z</time>
      </trkpt>
      <trkpt lat="45.58184" lon="2.80526">
        <ele>1010.4000244141</ele>
        <time>2013-09-21T15:44:22Z</time>
      </trkpt>
      <trkpt lat="45.58176" lon="2.80535">
        <ele>1011.200012207</ele>
        <time>2013-09-21T15:44:24Z</time>
      </trkpt>
      <trkpt lat="45.58169" lon="2.80543">
        <ele>1012</ele>
        <time>2013-09-21T15:44:26Z</time>
      </trkpt>
      <trkpt lat="45.58162" lon="2.80551">
        <ele>1012</ele>
        <time>2013-09-21T15:44:28Z</time>
      </trkpt>
      <trkpt lat="45.58149" lon="2.80564">
        <ele>1012.5999755859</ele>
        <time>2013-09-21T15:44:32Z</time>
      </trkpt>
      <trkpt lat="45.58138" lon="2.8057">
        <ele>1014.200012207</ele>
        <time>2013-09-21T15:44:35Z</time>
      </trkpt>
      <trkpt lat="45.58128" lon="2.80579">
        <ele>1014.5999755859</ele>
        <time>2013-09-21T15:44:38Z</time>
      </trkpt>
      <trkpt lat="45.58099" lon="2.80603">
        <ele>1015</ele>
        <time>2013-09-21T15:44:47Z</time>
      </trkpt>
      <trkpt lat="45.58089" lon="2.80611">
        <ele>1016.4000244141</ele>
        <time>2013-09-21T15:44:50Z</time>
      </trkpt>
      <trkpt lat="45.58074" lon="2.80624">
        <ele>1016.799987793</ele>
        <time>2013-09-21T15:44:55Z</time>
      </trkpt>
      <trkpt lat="45.58057" lon="2.80636">
        <ele>1017.200012207</ele>
        <time>2013-09-21T15:45:00Z</time>
      </trkpt>
      <trkpt lat="45.58051" lon="2.80642">
        <ele>1018</ele>
        <time>2013-09-21T15:45:02Z</time>
      </trkpt>
      <trkpt lat="45.58049" lon="2.80645">
        <ele>1018.4000244141</ele>
        <time>2013-09-21T15:45:03Z</time>
      </trkpt>
      <trkpt lat="45.58025" lon="2.80659">
        <ele>1019.200012207</ele>
        <time>2013-09-21T15:45:10Z</time>
      </trkpt>
      <trkpt lat="45.58022" lon="2.80661">
        <ele>1019.799987793</ele>
        <time>2013-09-21T15:45:11Z</time>
      </trkpt>
      <trkpt lat="45.58018" lon="2.80663">
        <ele>1020.200012207</ele>
        <time>2013-09-21T15:45:12Z</time>
      </trkpt>
      <trkpt lat="45.57985" lon="2.80677">
        <ele>1021</ele>
        <time>2013-09-21T15:45:22Z</time>
      </trkpt>
      <trkpt lat="45.57963" lon="2.80685">
        <ele>1021.4000244141</ele>
        <time>2013-09-21T15:45:29Z</time>
      </trkpt>
      <trkpt lat="45.5796" lon="2.80686">
        <ele>1021.799987793</ele>
        <time>2013-09-21T15:45:30Z</time>
      </trkpt>
      <trkpt lat="45.57949" lon="2.80689">
        <ele>1023</ele>
        <time>2013-09-21T15:45:33Z</time>
      </trkpt>
      <trkpt lat="45.57943" lon="2.80691">
        <ele>1023</ele>
        <time>2013-09-21T15:45:35Z</time>
      </trkpt>
      <trkpt lat="45.57919" lon="2.80705">
        <ele>1023</ele>
        <time>2013-09-21T15:45:43Z</time>
      </trkpt>
      <trkpt lat="45.57907" lon="2.80711">
        <ele>1024.4000244141</ele>
        <time>2013-09-21T15:45:47Z</time>
      </trkpt>
      <trkpt lat="45.57892" lon="2.80722">
        <ele>1025.1999511719</ele>
        <time>2013-09-21T15:45:52Z</time>
      </trkpt>
      <trkpt lat="45.57864" lon="2.80749">
        <ele>1025.5999755859</ele>
        <time>2013-09-21T15:46:02Z</time>
      </trkpt>
      <trkpt lat="45.57862" lon="2.80752">
        <ele>1026.1999511719</ele>
        <time>2013-09-21T15:46:03Z</time>
      </trkpt>
      <trkpt lat="45.57859" lon="2.80756">
        <ele>1026.5999755859</ele>
        <time>2013-09-21T15:46:04Z</time>
      </trkpt>
      <trkpt lat="45.57853" lon="2.80763">
        <ele>1027.5999755859</ele>
        <time>2013-09-21T15:46:06Z</time>
      </trkpt>
      <trkpt lat="45.57835" lon="2.80779">
        <ele>1027.5999755859</ele>
        <time>2013-09-21T15:46:12Z</time>
      </trkpt>
      <trkpt lat="45.57819" lon="2.80795">
        <ele>1028</ele>
        <time>2013-09-21T15:46:17Z</time>
      </trkpt>
      <trkpt lat="45.57812" lon="2.80802">
        <ele>1028.8000488281</ele>
        <time>2013-09-21T15:46:19Z</time>
      </trkpt>
      <trkpt lat="45.57808" lon="2.80805">
        <ele>1029.1999511719</ele>
        <time>2013-09-21T15:46:20Z</time>
      </trkpt>
      <trkpt lat="45.5779" lon="2.80825">
        <ele>1029.5999755859</ele>
        <time>2013-09-21T15:46:26Z</time>
      </trkpt>
      <trkpt lat="45.57784" lon="2.80832">
        <ele>1030</ele>
        <time>2013-09-21T15:46:28Z</time>
      </trkpt>
      <trkpt lat="45.57778" lon="2.80838">
        <ele>1031</ele>
        <time>2013-09-21T15:46:30Z</time>
      </trkpt>
      <trkpt lat="45.57775" lon="2.80841">
        <ele>1031.4000244141</ele>
        <time>2013-09-21T15:46:31Z</time>
      </trkpt>
      <trkpt lat="45.57771" lon="2.80851">
        <ele>1031.8000488281</ele>
        <time>2013-09-21T15:46:33Z</time>
      </trkpt>
      <trkpt lat="45.57747" lon="2.80873">
        <ele>1031.8000488281</ele>
        <time>2013-09-21T15:46:40Z</time>
      </trkpt>
      <trkpt lat="45.57734" lon="2.80885">
        <ele>1032.1999511719</ele>
        <time>2013-09-21T15:46:44Z</time>
      </trkpt>
      <trkpt lat="45.57729" lon="2.80892">
        <ele>1033</ele>
        <time>2013-09-21T15:46:46Z</time>
      </trkpt>
      <trkpt lat="45.57701" lon="2.80919">
        <ele>1034</ele>
        <time>2013-09-21T15:46:55Z</time>
      </trkpt>
      <trkpt lat="45.57696" lon="2.80925">
        <ele>1034.4000244141</ele>
        <time>2013-09-21T15:46:57Z</time>
      </trkpt>
      <trkpt lat="45.57692" lon="2.80933">
        <ele>1035.1999511719</ele>
        <time>2013-09-21T15:46:59Z</time>
      </trkpt>
      <trkpt lat="45.57689" lon="2.80935">
        <ele>1035.5999755859</ele>
        <time>2013-09-21T15:47:00Z</time>
      </trkpt>
      <trkpt lat="45.57685" lon="2.80941">
        <ele>1036</ele>
        <time>2013-09-21T15:47:01Z</time>
      </trkpt>
      <trkpt lat="45.57674" lon="2.80944">
        <ele>1036</ele>
        <time>2013-09-21T15:47:04Z</time>
      </trkpt>
      <trkpt lat="45.57669" lon="2.80935">
        <ele>1036</ele>
        <time>2013-09-21T15:47:06Z</time>
      </trkpt>
      <trkpt lat="45.57669" lon="2.80898">
        <ele>1036</ele>
        <time>2013-09-21T15:47:11Z</time>
      </trkpt>
      <trkpt lat="45.57668" lon="2.80888">
        <ele>1036</ele>
        <time>2013-09-21T15:47:12Z</time>
      </trkpt>
      <trkpt lat="45.57666" lon="2.80859">
        <ele>1036</ele>
        <time>2013-09-21T15:47:15Z</time>
      </trkpt>
      <trkpt lat="45.57666" lon="2.80849">
        <ele>1035.5999755859</ele>
        <time>2013-09-21T15:47:16Z</time>
      </trkpt>
      <trkpt lat="45.57663" lon="2.80831">
        <ele>1034.5999755859</ele>
        <time>2013-09-21T15:47:18Z</time>
      </trkpt>
      <trkpt lat="45.57662" lon="2.80823">
        <ele>1034.1999511719</ele>
        <time>2013-09-21T15:47:19Z</time>
      </trkpt>
      <trkpt lat="45.5766" lon="2.80817">
        <ele>1033.8000488281</ele>
        <time>2013-09-21T15:47:20Z</time>
      </trkpt>
      <trkpt lat="45.57654" lon="2.80803">
        <ele>1033.8000488281</ele>
        <time>2013-09-21T15:47:23Z</time>
      </trkpt>
      <trkpt lat="45.5765" lon="2.80802">
        <ele>1033.8000488281</ele>
        <time>2013-09-21T15:47:25Z</time>
      </trkpt>
      <trkpt lat="45.57629" lon="2.80805">
        <ele>1033.8000488281</ele>
        <time>2013-09-21T15:47:31Z</time>
      </trkpt>
      <trkpt lat="45.57606" lon="2.80819">
        <ele>1033.8000488281</ele>
        <time>2013-09-21T15:47:37Z</time>
      </trkpt>
      <trkpt lat="45.57581" lon="2.80845">
        <ele>1034.1999511719</ele>
        <time>2013-09-21T15:47:45Z</time>
      </trkpt>
      <trkpt lat="45.57578" lon="2.80849">
        <ele>1034.8000488281</ele>
        <time>2013-09-21T15:47:46Z</time>
      </trkpt>
      <trkpt lat="45.57574" lon="2.80852">
        <ele>1035.1999511719</ele>
        <time>2013-09-21T15:47:47Z</time>
      </trkpt>
      <trkpt lat="45.57568" lon="2.80859">
        <ele>1036</ele>
        <time>2013-09-21T15:47:49Z</time>
      </trkpt>
      <trkpt lat="45.57552" lon="2.8087">
        <ele>1036</ele>
        <time>2013-09-21T15:47:53Z</time>
      </trkpt>
      <trkpt lat="45.57545" lon="2.80874">
        <ele>1036.4000244141</ele>
        <time>2013-09-21T15:47:55Z</time>
      </trkpt>
      <trkpt lat="45.57536" lon="2.80878">
        <ele>1037.1999511719</ele>
        <time>2013-09-21T15:47:57Z</time>
      </trkpt>
      <trkpt lat="45.57533" lon="2.8088">
        <ele>1037.5999755859</ele>
        <time>2013-09-21T15:47:58Z</time>
      </trkpt>
      <trkpt lat="45.57528" lon="2.80882">
        <ele>1038.1999511719</ele>
        <time>2013-09-21T15:47:59Z</time>
      </trkpt>
      <trkpt lat="45.57498" lon="2.80896">
        <ele>1038.5999755859</ele>
        <time>2013-09-21T15:48:07Z</time>
      </trkpt>
      <trkpt lat="45.57488" lon="2.809">
        <ele>1039.8000488281</ele>
        <time>2013-09-21T15:48:10Z</time>
      </trkpt>
      <trkpt lat="45.57468" lon="2.8091">
        <ele>1040.5999755859</ele>
        <time>2013-09-21T15:48:17Z</time>
      </trkpt>
      <trkpt lat="45.57452" lon="2.80921">
        <ele>1042.4000244141</ele>
        <time>2013-09-21T15:48:26Z</time>
      </trkpt>
      <trkpt lat="45.57438" lon="2.80929">
        <ele>1042.4000244141</ele>
        <time>2013-09-21T15:48:31Z</time>
      </trkpt>
      <trkpt lat="45.57429" lon="2.80937">
        <ele>1042.8000488281</ele>
        <time>2013-09-21T15:48:34Z</time>
      </trkpt>
      <trkpt lat="45.57423" lon="2.80942">
        <ele>1043.5999755859</ele>
        <time>2013-09-21T15:48:36Z</time>
      </trkpt>
      <trkpt lat="45.5742" lon="2.80944">
        <ele>1044</ele>
        <time>2013-09-21T15:48:37Z</time>
      </trkpt>
      <trkpt lat="45.57396" lon="2.80958">
        <ele>1044.4000244141</ele>
        <time>2013-09-21T15:48:44Z</time>
      </trkpt>
      <trkpt lat="45.57385" lon="2.80966">
        <ele>1044.8000488281</ele>
        <time>2013-09-21T15:48:47Z</time>
      </trkpt>
      <trkpt lat="45.57379" lon="2.80969">
        <ele>1045.5999755859</ele>
        <time>2013-09-21T15:48:49Z</time>
      </trkpt>
      <trkpt lat="45.57371" lon="2.80959">
        <ele>1046.4000244141</ele>
        <time>2013-09-21T15:48:55Z</time>
      </trkpt>
      <trkpt lat="45.57369" lon="2.80964">
        <ele>1046.4000244141</ele>
        <time>2013-09-21T15:49:52Z</time>
      </trkpt>
      <trkpt lat="45.57359" lon="2.80956">
        <ele>1046.4000244141</ele>
        <time>2013-09-21T15:49:58Z</time>
      </trkpt>
      <trkpt lat="45.57358" lon="2.80945">
        <ele>1046.4000244141</ele>
        <time>2013-09-21T15:50:03Z</time>
      </trkpt>
      <trkpt lat="45.5735" lon="2.80943">
        <ele>1046.4000244141</ele>
        <time>2013-09-21T15:50:08Z</time>
      </trkpt>
      <trkpt lat="45.57338" lon="2.80949">
        <ele>1046.4000244141</ele>
        <time>2013-09-21T15:50:22Z</time>
      </trkpt>
      <trkpt lat="45.5733" lon="2.80948">
        <ele>1046.4000244141</ele>
        <time>2013-09-21T15:50:38Z</time>
      </trkpt>
    </trkseg>
  </trk>
</gpx>